KFLSEBAS1 - CW7841 in Sebastian, Florida  

Real Time Weather Statistics from Sebastian Highlands





Enter city or zip for your forecast     


2001-2004 Daily Reports
Daily, Monthly and Yearly Statistics
Snark fixed the MoFo!


Find the Weather for any City,
State or Zipcode, or Country:  

Sebastian (Sebastian Highlands), FL 32958   2001-2004 Daily Reports
[Select Refresh to Update]
Updated Automatically by Ambient Software's Virtual Weather Station  V15.00

 


Sebastian (Sebastian Highlands), FL 32958    Prior Years 2001-2004 Daily Summary Report

			Temp	Hi	Low	Out	Dew	Wind	Wind	Wind	Hi	Wind	Heat	THW			Heat	Cool	In 	In	In 	In 	Arc.
Date		Time	Out	Temp	Temp	Hum	Pt.	Speed	Dir	Run	Speed	Chill	Index	Index	Bar  	Rain	D-D 	D-D 	Temp	Hum	Dew	Heat	Int.

03/09/01	10:30 p	67.2	67.4	66.8	63	54.2	0.0	SW	0.00	4.0	67.2	67.0	67.0	29.770	0.00	0.000	0.046	72.1	49	51.9	71.1	30
03/09/01	11:00 p	66.6	66.9	66.4	63	53.6	0.0	SW	0.00	5.0	66.6	66.3	66.3	29.769	0.00	0.000	0.033	71.5	50	51.9	70.3	30
03/09/01	11:30 p	66.4	66.5	66.3	64	53.8	1.0	SSW	0.50	5.0	66.4	66.2	66.2	29.761	0.00	0.000	0.029	70.9	51	51.9	69.6	30
03/10/01	12:00 a	66.1	66.5	65.8	64	53.6	1.0	SW	0.50	4.0	66.1	65.8	65.8	29.758	0.00	0.000	0.023	70.4	51	51.4	68.9	30
03/10/01	12:30 a	65.5	65.8	65.1	65	53.4	0.0	SW	0.00	3.0	65.5	65.3	65.3	29.762	0.00	0.000	0.010	69.9	52	51.5	68.4	30
03/10/01	1:00 a	64.8	65.1	64.5	68	54.0	0.0	SW	0.00	4.0	64.8	64.6	64.6	29.764	0.00	0.004	0.000	69.5	53	51.6	68.2	30
03/10/01	1:30 a	64.3	64.5	63.9	70	54.3	1.0	SW	0.50	5.0	64.3	64.2	64.2	29.760	0.00	0.015	0.000	69.1	54	51.8	68.0	30
03/10/01	2:00 a	63.9	64.1	63.7	72	54.7	0.0	SSW	0.00	4.0	63.9	63.8	63.8	29.761	0.00	0.023	0.000	68.8	55	52.0	67.8	30
03/10/01	2:30 a	63.6	63.7	63.4	76	55.9	0.0	SW	0.00	4.0	63.6	63.7	63.7	29.752	0.00	0.029	0.000	68.5	56	52.2	67.7	30
03/10/01	3:00 a	63.6	63.7	63.5	76	55.9	1.0	SSW	0.50	4.0	63.6	63.7	63.7	29.745	0.00	0.029	0.000	68.4	56	52.1	67.6	30
03/10/01	3:30 a	63.8	64.0	63.5	77	56.4	1.0	SSW	0.50	4.0	63.8	64.0	64.0	29.745	0.00	0.025	0.000	68.3	57	52.5	67.6	30
03/10/01	4:00 a	64.1	64.3	63.7	77	56.7	1.0	SW	0.50	4.0	64.1	64.4	64.4	29.747	0.00	0.019	0.000	68.3	58	52.9	67.7	30
03/10/01	4:30 a	64.4	64.5	64.2	78	57.4	1.0	WSW	0.50	5.0	64.4	64.8	64.8	29.749	0.00	0.012	0.000	68.3	59	53.4	67.8	30
03/10/01	5:00 a	64.3	64.5	64.2	79	57.6	1.0	SW	0.50	4.0	64.3	64.8	64.8	29.753	0.00	0.015	0.000	68.3	59	53.4	67.8	30
03/10/01	5:30 a	64.1	64.3	64.0	81	58.1	0.0	SW	0.00	3.0	64.1	64.6	64.6	29.765	0.00	0.019	0.000	68.2	60	53.8	67.8	30
03/10/01	6:00 a	63.8	64.0	63.5	83	58.5	0.0	SW	0.00	2.0	63.8	64.3	64.3	29.779	0.00	0.025	0.000	68.0	61	54.0	67.8	30
03/10/01	6:30 a	63.4	63.5	63.3	83	58.1	0.0	SW	0.00	2.0	63.4	63.9	63.9	29.786	0.00	0.033	0.000	67.8	61	53.9	67.6	30
03/10/01	7:00 a	63.3	63.4	63.2	83	58.0	0.0	---	0.00	0.0	63.3	63.8	63.8	29.798	0.00	0.035	0.000	67.6	60	53.2	67.2	30
03/10/01	7:30 a	63.2	63.3	63.0	84	58.3	0.0	WSW	0.00	1.0	63.2	63.7	63.7	29.804	0.00	0.037	0.000	67.5	60	53.1	67.1	30
03/10/01	8:00 a	63.2	63.7	63.0	85	58.6	0.0	WSW	0.00	3.0	63.2	63.7	63.7	29.806	0.00	0.037	0.000	67.3	61	53.4	67.0	30
03/10/01	8:30 a	64.9	66.0	63.7	79	58.2	2.0	NW	1.00	6.0	64.9	65.5	65.5	29.815	0.00	0.002	0.000	67.5	63	54.5	67.4	30
03/10/01	9:00 a	66.7	67.7	65.9	73	57.8	2.0	NW	1.00	7.0	66.7	67.2	67.2	29.826	0.00	0.000	0.035	68.2	66	56.4	68.4	30
03/10/01	9:30 a	67.9	68.5	67.4	72	58.5	2.0	N	1.00	8.0	67.9	68.6	68.6	29.827	0.00	0.000	0.060	69.1	68	58.1	69.3	30
03/10/01	10:00 a	69.3	70.4	68.2	67	57.9	2.0	N	1.00	7.0	69.3	69.3	69.3	29.822	0.00	0.000	0.090	70.1	68	59.0	70.1	30
03/10/01	10:30 a	70.8	71.1	70.4	66	58.9	3.0	N	1.50	11.0	70.8	70.8	70.8	29.826	0.00	0.000	0.121	71.4	69	60.7	71.8	30
03/10/01	11:00 a	71.3	71.7	71.0	65	58.9	4.0	N	2.00	12.0	71.3	71.3	71.3	29.823	0.00	0.000	0.131	72.9	67	61.3	73.7	30
03/10/01	11:30 a	71.2	71.6	70.6	66	59.3	3.0	N	1.50	12.0	71.2	71.3	71.3	29.822	0.00	0.000	0.129	74.1	65	61.6	75.3	30
03/10/01	12:00 p	70.4	71.0	69.8	66	58.5	3.0	NE	1.50	11.0	70.4	70.3	70.3	29.822	0.00	0.000	0.113	74.4	64	61.4	75.5	30
03/10/01	12:30 p	70.2	71.7	69.5	63	57.0	2.0	NE	1.00	12.0	70.2	69.7	69.7	29.811	0.00	0.000	0.108	74.5	64	61.5	75.7	30
03/10/01	1:00 p	71.9	72.6	71.4	61	57.7	3.0	NE	1.50	12.0	71.9	71.8	71.8	29.802	0.00	0.000	0.144	75.3	63	61.8	76.4	30
03/10/01	1:30 p	71.1	72.6	70.5	64	58.3	2.0	NE	1.00	8.0	71.1	71.0	71.0	29.799	0.00	0.000	0.127	75.5	61	61.1	76.4	30
03/10/01	2:00 p	69.8	70.6	69.1	64	57.1	2.0	NNE	1.00	9.0	69.8	69.4	69.4	29.789	0.00	0.000	0.100	75.1	62	61.2	76.1	30
03/10/01	2:30 p	71.2	71.9	69.9	60	56.6	3.0	NE	1.50	12.0	71.2	70.8	70.8	29.776	0.00	0.000	0.129	75.2	61	60.8	76.1	30
03/10/01	3:00 p	72.3	72.5	71.9	56	55.7	3.0	NNE	1.50	11.0	72.3	72.0	72.0	29.770	0.00	0.000	0.152	75.9	59	60.5	76.5	30
03/10/01	3:30 p	72.3	72.5	72.0	59	57.2	4.0	NNE	2.00	11.0	72.3	72.3	72.3	29.761	0.00	0.000	0.152	76.4	59	61.0	77.1	30
03/10/01	4:00 p	72.3	72.8	71.9	60	57.6	3.0	N	1.50	12.0	72.3	72.4	72.4	29.758	0.00	0.000	0.152	76.8	59	61.4	77.5	30
03/10/01	4:30 p	72.0	72.5	71.4	63	58.7	3.0	NE	1.50	14.0	72.0	72.1	72.1	29.751	0.00	0.000	0.146	76.9	60	62.0	77.7	30
03/10/01	5:00 p	71.1	71.6	70.8	63	57.9	3.0	NE	1.50	13.0	71.1	70.9	70.9	29.747	0.00	0.000	0.127	76.9	59	61.5	77.6	30
03/10/01	5:30 p	70.4	70.8	70.0	65	58.1	2.0	NNE	1.00	12.0	70.4	70.2	70.2	29.763	0.00	0.000	0.113	76.4	59	61.0	77.1	30
03/10/01	6:00 p	69.2	70.0	68.3	71	59.4	2.0	N	1.00	9.0	69.2	69.7	69.7	29.776	0.00	0.000	0.087	75.6	61	61.2	76.5	30
03/10/01	6:30 p	67.7	68.3	67.1	73	58.7	1.0	N	0.50	9.0	67.7	68.4	68.4	29.784	0.00	0.000	0.056	74.8	61	60.4	75.7	30
03/10/01	7:00 p	66.8	67.4	66.3	75	58.6	1.0	N	0.50	8.0	66.8	67.5	67.5	29.806	0.00	0.000	0.038	74.0	61	59.7	74.8	30
03/10/01	7:30 p	65.9	66.4	65.5	76	58.1	1.0	N	0.50	8.0	65.9	66.5	66.5	29.819	0.00	0.000	0.019	73.5	62	59.7	74.2	30
03/10/01	8:00 p	65.3	65.6	65.0	77	57.9	1.0	N	0.50	7.0	65.3	65.8	65.8	29.830	0.00	0.000	0.006	73.0	62	59.2	73.5	30
03/10/01	8:30 p	64.7	65.0	64.4	77	57.3	1.0	N	0.50	8.0	64.7	65.1	65.1	29.850	0.00	0.006	0.000	72.3	62	58.5	72.5	30
03/10/01	9:00 p	64.6	64.7	64.5	79	57.9	1.0	N	0.50	7.0	64.6	65.1	65.1	29.857	0.00	0.008	0.000	71.8	63	58.5	71.9	30
03/10/01	9:30 p	64.5	64.6	64.4	79	57.8	1.0	N	0.50	7.0	64.5	65.0	65.0	29.853	0.00	0.010	0.000	71.3	64	58.5	71.2	30
03/10/01	10:00 p	64.4	64.5	64.2	79	57.7	1.0	N	0.50	9.0	64.4	64.9	64.9	29.857	0.00	0.012	0.000	71.0	64	58.2	70.8	30
03/10/01	10:30 p	64.3	64.4	64.1	80	58.0	1.0	N	0.50	6.0	64.3	64.9	64.9	29.859	0.00	0.015	0.000	70.6	64	57.8	70.3	30
03/10/01	11:00 p	64.2	64.4	64.0	80	57.9	1.0	N	0.50	5.0	64.2	64.7	64.7	29.862	0.00	0.017	0.000	70.2	64	57.4	69.8	30
03/10/01	11:30 p	64.0	64.1	63.7	82	58.4	1.0	N	0.50	4.0	64.0	64.5	64.5	29.853	0.00	0.021	0.000	69.9	65	57.6	69.6	30
03/11/01	12:00 a	64.2	64.4	63.9	82	58.6	1.0	N	0.50	5.0	64.2	64.8	64.8	29.862	0.00	0.017	0.000	69.6	66	57.7	69.5	30
03/11/01	12:30 a	64.3	64.4	64.1	82	58.7	0.0	N	0.00	4.0	64.3	64.9	64.9	29.873	0.00	0.015	0.000	69.4	66	57.5	69.3	30
03/11/01	1:00 a	63.9	64.1	63.5	82	58.3	0.0	---	0.00	0.0	63.9	64.4	64.4	29.869	0.00	0.023	0.000	69.2	65	56.9	69.1	30
03/11/01	1:30 a	63.0	63.5	62.5	82	57.4	0.0	---	0.00	1.0	63.0	63.4	63.4	29.878	0.00	0.042	0.000	68.9	65	56.6	68.8	30
03/11/01	2:00 a	62.0	62.5	61.5	83	56.8	0.0	NW	0.00	2.0	62.0	62.3	62.3	29.875	0.00	0.063	0.000	68.4	64	55.7	68.4	30
03/11/01	2:30 a	61.1	61.5	60.8	83	55.9	0.0	NW	0.00	1.0	61.1	61.2	61.2	29.875	0.00	0.081	0.000	68.0	64	55.4	68.1	30
03/11/01	3:00 a	60.6	60.9	60.4	85	56.1	0.0	NW	0.00	2.0	60.6	60.8	60.8	29.868	0.00	0.092	0.000	67.6	64	55.0	67.6	30
03/11/01	3:30 a	60.3	60.5	60.0	84	55.4	0.0	---	0.00	0.0	60.3	60.4	60.4	29.866	0.00	0.098	0.000	67.3	64	54.7	67.3	30
03/11/01	4:00 a	59.9	60.1	59.7	84	55.1	0.0	---	0.00	1.0	59.9	60.0	60.0	29.864	0.00	0.106	0.000	66.9	64	54.3	66.8	30
03/11/01	4:30 a	59.5	59.7	59.3	84	54.7	0.0	---	0.00	0.0	59.5	59.5	59.5	29.865	0.00	0.115	0.000	66.6	64	54.0	66.4	30
03/11/01	5:00 a	59.1	59.3	58.7	84	54.3	0.0	---	0.00	0.0	59.1	59.1	59.1	29.878	0.00	0.123	0.000	66.3	64	53.8	66.1	30
03/11/01	5:30 a	58.6	58.8	58.4	84	53.8	0.0	---	0.00	0.0	58.6	58.5	58.5	29.880	0.00	0.133	0.000	66.0	64	53.5	65.7	30
03/11/01	6:00 a	58.2	58.5	58.0	84	53.4	0.0	---	0.00	0.0	58.2	58.1	58.1	29.900	0.00	0.142	0.000	65.6	64	53.1	65.3	30
03/11/01	6:30 a	58.0	58.1	57.9	85	53.5	0.0	---	0.00	0.0	58.0	57.9	57.9	29.911	0.00	0.146	0.000	65.3	64	52.8	64.9	30
03/11/01	7:00 a	57.9	58.0	57.8	85	53.4	0.0	---	0.00	0.0	57.9	57.8	57.8	29.922	0.00	0.148	0.000	65.2	64	52.7	64.8	30
03/11/01	7:30 a	58.0	58.5	57.8	85	53.5	0.0	---	0.00	0.0	58.0	57.9	57.9	29.925	0.00	0.146	0.000	65.0	64	52.5	64.6	30
03/11/01	8:00 a	59.4	60.7	58.4	90	56.5	0.0	---	0.00	0.0	59.4	59.6	59.6	29.931	0.00	0.117	0.000	65.0	66	53.4	64.8	30
03/11/01	8:30 a	63.6	66.7	60.7	85	59.0	1.0	ESE	0.50	8.0	63.6	64.2	64.2	29.925	0.00	0.029	0.000	65.8	73	56.9	66.1	30
03/11/01	9:00 a	68.8	70.0	66.7	77	61.3	4.0	SE	2.00	13.0	68.8	70.0	70.0	29.930	0.00	0.000	0.079	67.3	77	59.8	68.2	30
03/11/01	9:30 a	71.2	72.2	70.0	74	62.5	4.0	SE	2.00	11.0	71.2	72.0	72.0	29.928	0.00	0.000	0.129	68.7	79	61.9	70.0	30
03/11/01	10:00 a	73.6	74.8	72.2	68	62.4	4.0	SE	2.00	17.0	73.6	74.8	74.8	29.933	0.00	0.000	0.179	69.8	77	62.3	70.7	30
03/11/01	10:30 a	74.8	76.2	74.5	67	63.1	5.0	SE	2.50	14.0	74.8	76.2	76.2	29.928	0.00	0.000	0.204	70.9	75	62.6	71.7	30
03/11/01	11:00 a	77.2	78.2	76.2	53	58.7	3.0	SE	1.50	15.0	77.2	77.3	77.3	29.913	0.00	0.000	0.254	71.9	73	62.8	72.8	30
03/11/01	11:30 a	79.3	80.3	78.2	49	58.5	5.0	SSW	2.50	15.0	79.3	79.4	79.4	29.908	0.00	0.000	0.298	72.9	70	62.5	74.0	30
03/11/01	12:00 p	80.8	82.4	79.6	36	51.4	4.0	SSW	2.00	15.0	80.8	79.4	79.4	29.889	0.00	0.000	0.329	74.0	67	62.3	75.4	30
03/11/01	12:30 p	83.1	83.8	82.5	39	55.6	5.0	S	2.50	16.0	83.1	82.7	82.7	29.877	0.00	0.000	0.377	75.1	64	62.1	76.3	30
03/11/01	1:00 p	85.0	85.9	83.4	35	54.3	5.0	SW	2.50	18.0	85.0	84.2	84.2	29.872	0.00	0.000	0.417	76.3	61	61.9	77.1	30
03/11/01	1:30 p	85.9	86.6	85.0	36	55.8	5.0	SW	2.50	15.0	85.9	85.4	85.4	29.853	0.00	0.000	0.435	77.9	58	61.9	78.6	30
03/11/01	2:00 p	85.9	86.6	84.8	39	58.1	5.0	SSW	2.50	19.0	85.9	85.9	85.9	29.834	0.00	0.000	0.435	78.6	58	62.6	79.4	30
03/11/01	2:30 p	85.9	87.2	84.4	37	56.6	4.0	SW	2.00	15.0	85.9	85.6	85.6	29.827	0.00	0.000	0.435	79.4	57	62.8	80.3	30
03/11/01	3:00 p	86.6	87.0	85.9	39	58.7	4.0	SSW	2.00	11.0	86.6	86.7	86.7	29.820	0.00	0.000	0.450	80.0	57	63.4	80.9	30
03/11/01	3:30 p	86.7	87.2	85.4	49	65.3	5.0	S	2.50	14.0	86.7	89.3	89.3	29.816	0.00	0.000	0.452	80.5	57	63.9	81.6	30
03/11/01	4:00 p	84.3	85.4	82.9	57	67.4	6.0	ESE	3.00	18.0	84.3	87.5	87.5	29.812	0.00	0.000	0.402	81.0	60	65.8	82.7	30
03/11/01	4:30 p	82.6	83.6	80.9	63	68.7	6.0	SE	3.00	18.0	82.6	85.8	85.8	29.806	0.00	0.000	0.367	81.6	64	68.2	84.3	30
03/11/01	5:00 p	80.3	81.0	79.8	62	66.1	6.0	SE	3.00	17.0	80.3	82.0	82.0	29.809	0.00	0.000	0.319	81.2	64	67.9	83.7	30
03/11/01	5:30 p	80.0	80.5	79.0	68	68.5	7.0	SE	3.50	20.0	80.0	82.4	82.4	29.820	0.00	0.000	0.313	81.0	65	68.1	83.5	30
03/11/01	6:00 p	78.4	79.1	77.8	70	67.8	5.0	SE	2.50	16.0	78.4	80.5	80.5	29.841	0.00	0.000	0.279	80.6	67	68.6	83.2	30
03/11/01	6:30 p	77.1	77.8	76.4	74	68.2	3.0	SE	1.50	14.0	77.1	79.5	79.5	29.859	0.00	0.000	0.252	80.0	68	68.5	82.4	30
03/11/01	7:00 p	75.8	76.4	75.3	76	67.7	2.0	SE	1.00	7.0	75.8	78.2	78.2	29.875	0.00	0.000	0.225	79.2	69	68.1	81.5	30
03/11/01	7:30 p	74.9	75.3	74.4	79	67.9	1.0	SE	0.50	6.0	74.9	77.3	77.3	29.884	0.00	0.000	0.206	78.6	70	68.0	80.8	30
03/11/01	8:00 p	74.0	74.4	73.6	77	66.3	0.0	SE	0.00	4.0	74.0	75.9	75.9	29.899	0.00	0.000	0.188	78.0	71	67.8	80.1	30
03/11/01	8:30 p	73.2	73.7	72.5	80	66.7	0.0	SE	0.00	1.0	73.2	75.0	75.0	29.902	0.00	0.000	0.171	77.5	69	66.5	79.3	30
03/11/01	9:00 p	71.9	72.5	71.4	80	65.4	0.0	SE	0.00	2.0	71.9	73.3	73.3	29.911	0.00	0.000	0.144	76.9	68	65.5	78.6	30
03/11/01	9:30 p	70.8	71.4	70.1	81	64.7	0.0	---	0.00	0.0	70.8	72.2	72.2	29.916	0.00	0.000	0.121	76.1	67	64.3	77.6	30
03/11/01	10:00 p	69.5	70.1	68.9	81	63.4	0.0	---	0.00	0.0	69.5	70.9	70.9	29.925	0.00	0.000	0.094	75.5	66	63.3	76.9	30
03/11/01	10:30 p	68.4	68.9	67.9	80	62.0	0.0	---	0.00	0.0	68.4	69.8	69.8	29.925	0.00	0.000	0.071	74.9	66	62.8	76.3	30
03/11/01	11:00 p	67.3	67.8	66.7	79	60.6	0.0	---	0.00	1.0	67.3	68.4	68.4	29.925	0.00	0.000	0.048	74.2	65	61.7	75.4	30
03/11/01	11:30 p	66.3	66.8	65.9	80	59.9	0.0	---	0.00	0.0	66.3	67.3	67.3	29.932	0.00	0.000	0.027	73.5	65	61.0	74.4	30
03/12/01	12:00 a	65.5	65.9	65.0	78	58.5	0.0	---	0.00	0.0	65.5	66.1	66.1	29.927	0.00	0.000	0.010	72.9	64	60.0	73.5	30
03/12/01	12:30 a	64.6	65.0	64.3	77	57.2	0.0	SE	0.00	1.0	64.6	65.0	65.0	29.928	0.00	0.008	0.000	72.3	64	59.4	72.6	30
03/12/01	1:00 a	64.0	64.3	63.6	77	56.6	0.0	---	0.00	0.0	64.0	64.3	64.3	29.930	0.00	0.021	0.000	71.7	63	58.4	71.7	30
03/12/01	1:30 a	63.3	63.7	62.9	77	56.0	0.0	ENE	0.00	3.0	63.3	63.4	63.4	29.926	0.00	0.035	0.000	71.2	63	58.0	71.0	30
03/12/01	2:00 a	62.8	63.1	62.6	77	55.5	0.0	ENE	0.00	1.0	62.8	62.8	62.8	29.928	0.00	0.046	0.000	70.6	63	57.4	70.2	30
03/12/01	2:30 a	62.5	62.8	62.4	78	55.5	0.0	ENE	0.00	1.0	62.5	62.6	62.6	29.924	0.00	0.052	0.000	70.2	63	57.0	69.7	30
03/12/01	3:00 a	62.3	62.7	62.0	79	55.7	0.0	---	0.00	0.0	62.3	62.4	62.4	29.923	0.00	0.056	0.000	69.7	63	56.5	69.3	30
03/12/01	3:30 a	61.7	62.0	61.4	80	55.5	0.0	---	0.00	0.0	61.7	61.8	61.8	29.914	0.00	0.069	0.000	69.3	63	56.2	68.9	30
03/12/01	4:00 a	61.3	61.5	61.2	80	55.1	0.0	---	0.00	0.0	61.3	61.4	61.4	29.914	0.00	0.077	0.000	68.9	63	55.8	68.6	30
03/12/01	4:30 a	61.1	61.2	61.0	81	55.2	0.0	---	0.00	0.0	61.1	61.2	61.2	29.917	0.00	0.081	0.000	68.7	64	56.0	68.6	30
03/12/01	5:00 a	61.2	61.7	61.0	87	57.3	0.0	SSE	0.00	3.0	61.2	61.5	61.5	29.923	0.00	0.079	0.000	68.4	64	55.7	68.4	30
03/12/01	5:30 a	62.7	63.7	61.5	92	60.3	2.0	S	1.00	7.0	62.7	63.4	63.4	29.928	0.00	0.048	0.000	68.3	68	57.3	68.7	30
03/12/01	6:00 a	64.3	64.8	63.5	92	61.9	2.0	SSW	1.00	6.0	64.3	65.2	65.2	29.942	0.00	0.015	0.000	68.5	70	58.3	69.0	30
03/12/01	6:30 a	64.9	65.0	64.7	92	62.5	2.0	S	1.00	8.0	64.9	66.0	66.0	29.941	0.00	0.002	0.000	68.7	71	58.9	69.3	30
03/12/01	7:00 a	65.0	65.1	64.9	92	62.6	1.0	SSE	0.50	5.0	65.0	66.1	66.1	29.944	0.00	0.000	0.000	68.7	72	59.3	69.4	30
03/12/01	7:30 a	65.3	65.9	65.0	92	62.9	1.0	SSW	0.50	5.0	65.3	66.5	66.5	29.956	0.00	0.000	0.006	68.8	73	59.8	69.6	30
03/12/01	8:00 a	66.8	68.1	65.9	90	63.8	1.0	S	0.50	10.0	66.8	68.3	68.3	29.953	0.00	0.000	0.038	69.1	76	61.2	70.2	30
03/12/01	8:30 a	69.9	71.8	68.0	86	65.5	3.0	S	1.50	10.0	69.9	71.5	71.5	29.956	0.00	0.000	0.102	69.9	80	63.4	71.0	30
03/12/01	9:00 a	73.5	75.0	71.8	80	66.9	5.0	S	2.50	16.0	73.5	75.4	75.4	29.958	0.00	0.000	0.177	71.1	83	65.7	72.7	30
03/12/01	9:30 a	75.3	76.1	74.9	75	66.8	6.0	S	3.00	18.0	75.3	77.5	77.5	29.951	0.00	0.000	0.215	72.2	83	66.7	73.9	30
03/12/01	10:00 a	77.9	79.4	76.1	67	66.1	6.0	S	3.00	17.0	77.9	79.5	79.5	29.947	0.00	0.000	0.269	73.3	81	67.1	75.2	30
03/12/01	10:30 a	80.7	81.8	79.4	60	65.5	7.0	S	3.50	19.0	80.7	82.3	82.3	29.925	0.00	0.000	0.327	74.4	79	67.5	76.6	30
03/12/01	11:00 a	82.7	83.6	81.8	64	69.3	7.0	SE	3.50	17.0	82.7	86.2	86.2	29.916	0.00	0.000	0.369	75.8	78	68.4	78.4	30
03/12/01	11:30 a	82.0	83.6	81.2	62	67.7	7.0	ESE	3.50	19.0	82.0	84.6	84.6	29.910	0.00	0.000	0.354	77.2	78	69.8	80.1	30
03/12/01	12:00 p	83.4	83.8	82.9	61	68.5	6.0	SE	3.00	19.0	83.4	86.8	86.8	29.893	0.00	0.000	0.383	78.1	77	70.3	81.1	30
03/12/01	12:30 p	83.5	84.0	82.9	62	69.1	8.0	SE	4.00	23.0	83.2	87.2	86.9	29.875	0.00	0.000	0.385	79.4	75	70.8	82.6	30
03/12/01	1:00 p	84.6	85.1	83.9	61	69.7	8.0	SE	4.00	21.0	84.4	89.0	88.8	29.850	0.00	0.000	0.408	80.2	75	71.6	84.0	30
03/12/01	1:30 p	85.0	85.5	84.5	60	69.6	8.0	SE	4.00	26.0	84.8	89.4	89.2	29.832	0.00	0.000	0.417	81.1	74	72.0	85.4	30
03/12/01	2:00 p	85.6	85.9	85.2	60	70.1	8.0	SE	4.00	26.0	85.4	90.7	90.5	29.814	0.00	0.000	0.429	81.8	73	72.3	86.6	30
03/12/01	2:30 p	85.5	85.9	84.9	60	70.0	8.0	SE	4.00	19.0	85.3	90.4	90.2	29.805	0.00	0.000	0.427	82.2	72	72.3	87.2	30
03/12/01	3:00 p	84.9	85.6	84.0	62	70.4	9.0	SE	4.50	26.0	84.3	89.9	89.3	29.787	0.00	0.000	0.415	82.7	71	72.3	88.1	30
03/12/01	3:30 p	83.9	84.3	83.4	63	70.0	9.0	SE	4.50	26.0	83.2	88.4	87.7	29.780	0.00	0.000	0.394	83.0	70	72.2	88.4	30
03/12/01	4:00 p	83.4	83.9	82.7	65	70.4	9.0	SE	4.50	25.0	82.6	87.8	87.0	29.770	0.00	0.000	0.383	83.0	70	72.2	88.4	30
03/12/01	4:30 p	82.6	83.1	81.9	66	70.1	7.0	SE	3.50	20.0	82.6	86.5	86.5	29.779	0.00	0.000	0.367	82.9	70	72.1	88.2	30
03/12/01	5:00 p	81.4	82.1	80.4	69	70.2	8.0	SE	4.00	21.0	81.0	85.0	84.6	29.781	0.00	0.000	0.342	82.6	71	72.2	87.9	30
03/12/01	5:30 p	80.4	80.7	79.8	70	69.7	7.0	SSE	3.50	22.0	80.4	83.4	83.4	29.779	0.00	0.000	0.321	82.1	71	71.8	86.8	30
03/12/01	6:00 p	79.0	79.8	78.4	73	69.6	7.0	SE	3.50	20.0	79.0	81.7	81.7	29.786	0.00	0.000	0.292	81.5	72	71.6	85.8	30
03/12/01	6:30 p	77.6	78.4	76.9	77	69.8	7.0	SE	3.50	18.0	77.6	80.4	80.4	29.788	0.00	0.000	0.262	80.8	74	71.7	84.8	30
03/12/01	7:00 p	76.4	76.9	75.9	80	69.8	7.0	SSE	3.50	19.0	76.4	79.3	79.3	29.793	0.00	0.000	0.238	80.0	75	71.4	83.6	30
03/12/01	7:30 p	75.5	75.9	75.1	82	69.6	5.0	SSE	2.50	15.0	75.5	78.4	78.4	29.796	0.00	0.000	0.219	79.3	77	71.5	82.8	30
03/12/01	8:00 p	74.9	75.2	74.7	83	69.4	5.0	SSE	2.50	17.0	74.9	77.6	77.6	29.802	0.00	0.000	0.206	78.9	77	71.1	82.2	30
03/12/01	8:30 p	74.5	74.7	74.3	84	69.3	4.0	SSE	2.00	12.0	74.5	77.0	77.0	29.804	0.00	0.000	0.198	78.6	77	70.8	81.8	30
03/12/01	9:00 p	74.2	74.4	74.1	84	69.1	4.0	SSE	2.00	14.0	74.2	76.5	76.5	29.814	0.00	0.000	0.192	78.2	78	70.8	81.4	30
03/12/01	9:30 p	74.0	74.2	73.8	85	69.2	4.0	SSE	2.00	11.0	74.0	76.2	76.2	29.827	0.00	0.000	0.188	77.9	78	70.5	81.0	30
03/12/01	10:00 p	73.7	73.9	73.6	86	69.2	3.0	SSE	1.50	9.0	73.7	75.9	75.9	29.832	0.00	0.000	0.181	77.7	79	70.7	80.8	30
03/12/01	10:30 p	73.5	73.6	73.4	86	69.1	3.0	S	1.50	10.0	73.5	75.7	75.7	29.830	0.00	0.000	0.177	77.3	79	70.3	80.3	30
03/12/01	11:00 p	73.3	73.4	73.1	87	69.2	3.0	S	1.50	11.0	73.3	75.6	75.6	29.831	0.00	0.000	0.173	77.0	79	70.0	79.9	30
03/12/01	11:30 p	73.0	73.2	72.9	88	69.2	3.0	S	1.50	9.0	73.0	75.3	75.3	29.827	0.00	0.000	0.167	76.7	80	70.1	79.7	30
03/13/01	12:00 a	72.8	73.0	72.7	88	69.0	4.0	S	2.00	10.0	72.8	75.1	75.1	29.814	0.00	0.000	0.163	76.5	81	70.2	79.5	30
03/13/01	12:30 a	72.7	72.8	72.6	89	69.3	4.0	S	2.00	11.0	72.7	75.0	75.0	29.806	0.00	0.000	0.160	76.3	81	70.0	79.3	30
03/13/01	1:00 a	72.7	72.8	72.6	89	69.3	4.0	S	2.00	12.0	72.7	75.0	75.0	29.805	0.00	0.000	0.160	76.1	82	70.2	79.1	30
03/13/01	1:30 a	72.7	73.0	72.6	90	69.6	3.0	S	1.50	9.0	72.7	75.1	75.1	29.812	0.00	0.000	0.160	76.0	82	70.1	79.0	30
03/13/01	2:00 a	73.0	73.2	72.8	90	69.9	5.0	SSW	2.50	12.0	73.0	75.5	75.5	29.807	0.00	0.000	0.167	75.9	83	70.4	79.0	30
03/13/01	2:30 a	73.2	73.3	73.1	90	70.1	4.0	SSW	2.00	12.0	73.2	75.7	75.7	29.795	0.00	0.000	0.171	75.9	84	70.7	79.0	30
03/13/01	3:00 a	73.3	73.4	73.2	90	70.2	5.0	SSW	2.50	16.0	73.3	75.8	75.8	29.788	0.00	0.000	0.173	75.9	85	71.1	79.1	30
03/13/01	3:30 a	73.5	73.6	73.3	89	70.1	6.0	SSW	3.00	15.0	73.5	75.9	75.9	29.782	0.00	0.000	0.177	75.9	86	71.4	79.1	30
03/13/01	4:00 a	73.5	73.6	73.2	89	70.1	6.0	SSW	3.00	17.0	73.5	75.9	75.9	29.776	0.00	0.000	0.177	75.9	86	71.4	79.1	30
03/13/01	4:30 a	73.2	73.3	73.0	89	69.8	5.0	SSW	2.50	12.0	73.2	75.6	75.6	29.774	0.00	0.000	0.171	75.8	86	71.3	79.0	30
03/13/01	5:00 a	73.4	73.5	73.1	89	70.0	6.0	SSW	3.00	16.0	73.4	75.8	75.8	29.774	0.00	0.000	0.175	75.8	87	71.7	79.1	30
03/13/01	5:30 a	73.5	73.6	73.4	89	70.1	5.0	SW	2.50	16.0	73.5	75.9	75.9	29.777	0.00	0.000	0.177	75.7	87	71.6	79.0	30
03/13/01	6:00 a	73.4	73.6	73.1	89	70.0	5.0	SSW	2.50	14.0	73.4	75.8	75.8	29.785	0.00	0.000	0.175	75.7	87	71.6	79.0	30
03/13/01	6:30 a	73.2	73.4	73.1	89	69.8	5.0	SSW	2.50	14.0	73.2	75.6	75.6	29.790	0.00	0.000	0.171	75.6	87	71.5	78.9	30
03/13/01	7:00 a	73.2	73.3	73.0	89	69.8	6.0	SW	3.00	15.0	73.2	75.6	75.6	29.789	0.00	0.000	0.171	75.5	87	71.4	78.7	30
03/13/01	7:30 a	73.3	73.6	73.0	89	69.9	6.0	SSW	3.00	14.0	73.3	75.7	75.7	29.795	0.00	0.000	0.173	75.4	88	71.6	78.7	30
03/13/01	8:00 a	73.7	74.2	73.4	88	69.9	6.0	SSW	3.00	15.0	73.7	76.0	76.0	29.806	0.00	0.000	0.181	75.5	89	72.0	78.9	30
03/13/01	8:30 a	74.9	75.8	74.1	84	69.7	7.0	SW	3.50	18.0	74.9	77.7	77.7	29.807	0.00	0.000	0.206	75.9	89	72.4	79.3	30
03/13/01	9:00 a	76.9	78.0	75.8	76	68.8	9.0	SW	4.50	21.0	75.7	79.5	78.3	29.787	0.00	0.000	0.248	76.5	89	73.0	80.2	30
03/13/01	9:30 a	78.3	79.2	77.9	74	69.3	11.0	SW	5.50	24.0	76.2	80.9	78.8	29.787	0.00	0.000	0.277	77.3	87	73.1	81.2	30
03/13/01	10:00 a	79.9	80.3	79.2	72	70.1	9.0	SW	4.50	19.0	78.8	82.9	81.8	29.781	0.00	0.000	0.310	77.9	86	73.4	82.1	30
03/13/01	10:30 a	80.5	81.1	79.9	71	70.2	9.0	SW	4.50	22.0	79.5	83.7	82.7	29.772	0.00	0.000	0.323	78.6	85	73.7	83.1	30
03/13/01	11:00 a	81.2	82.6	80.7	66	68.8	7.0	SW	3.50	20.0	81.2	84.0	84.0	29.774	0.00	0.000	0.337	78.9	83	73.3	83.2	30
03/13/01	11:30 a	83.3	83.8	82.6	64	69.8	8.0	SW	4.00	22.0	83.0	87.3	87.0	29.767	0.00	0.000	0.381	79.5	82	73.5	84.1	30
03/13/01	12:00 p	84.2	84.7	83.6	61	69.3	9.0	SW	4.50	24.0	83.5	88.3	87.6	29.761	0.00	0.000	0.400	80.4	80	73.7	85.3	30
03/13/01	12:30 p	84.0	85.3	82.1	71	73.6	6.0	WSW	3.00	17.0	84.0	91.3	91.3	29.755	0.01	0.000	0.396	81.6	79	74.5	87.7	30
03/13/01	1:00 p	83.5	85.2	82.1	59	67.7	7.0	SW	3.50	17.0	83.5	86.5	86.5	29.739	0.00	0.000	0.385	82.2	77	74.3	88.6	30
03/13/01	1:30 p	85.1	85.7	84.5	58	68.7	7.0	SW	3.50	20.0	85.1	89.0	89.0	29.730	0.00	0.000	0.419	82.8	74	73.7	89.3	30
03/13/01	2:00 p	85.4	86.1	84.7	55	67.4	7.0	SW	3.50	20.0	85.4	88.6	88.6	29.716	0.00	0.000	0.425	83.3	72	73.3	89.8	30
03/13/01	2:30 p	84.9	85.8	84.2	55	66.9	7.0	SW	3.50	22.0	84.9	87.8	87.8	29.717	0.00	0.000	0.415	83.6	70	72.8	89.9	30
03/13/01	3:00 p	86.2	86.6	85.6	53	67.1	9.0	WSW	4.50	22.0	85.7	89.5	89.0	29.704	0.00	0.000	0.442	84.1	69	72.8	90.8	30
03/13/01	3:30 p	86.2	86.7	85.8	54	67.6	6.0	WSW	3.00	19.0	86.2	89.8	89.8	29.702	0.00	0.000	0.442	84.5	68	72.8	91.2	30
03/13/01	4:00 p	85.1	86.5	83.6	59	69.2	8.0	WSW	4.00	22.0	84.9	89.3	89.1	29.698	0.00	0.000	0.419	84.7	67	72.5	91.2	30
03/13/01	4:30 p	83.2	84.0	82.7	60	67.9	6.0	WSW	3.00	19.0	83.2	86.1	86.1	29.694	0.00	0.000	0.379	84.3	68	72.6	90.8	30
03/13/01	5:00 p	82.2	83.1	81.5	63	68.3	7.0	SW	3.50	17.0	82.2	85.1	85.1	29.691	0.00	0.000	0.358	83.7	68	72.0	89.5	30
03/13/01	5:30 p	81.2	81.9	80.6	64	67.9	6.0	SW	3.00	18.0	81.2	83.7	83.7	29.709	0.00	0.000	0.337	83.1	68	71.4	88.0	30
03/13/01	6:00 p	80.4	80.9	79.8	65	67.6	6.0	SW	3.00	20.0	80.4	82.6	82.6	29.693	0.00	0.000	0.321	82.6	69	71.4	87.3	30
03/13/01	6:30 p	79.3	80.1	78.4	70	68.7	6.0	SW	3.00	15.0	79.3	81.7	81.7	29.721	0.00	0.000	0.298	82.0	70	71.2	86.3	30
03/13/01	7:00 p	78.1	78.9	77.2	75	69.5	2.0	NW	1.00	13.0	78.1	80.7	80.7	29.741	0.00	0.000	0.273	81.3	72	71.4	85.4	30
03/13/01	7:30 p	76.7	77.4	76.1	77	68.9	1.0	WNW	0.50	7.0	76.7	79.4	79.4	29.728	0.00	0.000	0.244	80.7	73	71.2	84.5	30
03/13/01	8:00 p	75.9	76.4	75.4	78	68.5	2.0	WSW	1.00	7.0	75.9	78.6	78.6	29.740	0.00	0.000	0.227	80.2	74	71.2	83.8	30
03/13/01	8:30 p	75.3	75.7	74.9	80	68.7	1.0	W	0.50	6.0	75.3	77.9	77.9	29.749	0.00	0.000	0.215	79.7	74	70.7	83.0	30
03/13/01	9:00 p	74.7	75.2	74.4	81	68.5	1.0	W	0.50	6.0	74.7	77.1	77.1	29.762	0.00	0.000	0.202	79.4	74	70.4	82.5	30
03/13/01	9:30 p	74.3	74.7	73.9	81	68.1	2.0	SW	1.00	5.0	74.3	76.5	76.5	29.775	0.00	0.000	0.194	79.0	74	70.0	81.9	30
03/13/01	10:00 p	73.8	74.4	73.3	83	68.3	2.0	WSW	1.00	6.0	73.8	75.9	75.9	29.791	0.00	0.000	0.183	78.5	74	69.5	81.2	30
03/13/01	10:30 p	73.4	73.8	73.0	84	68.3	1.0	WSW	0.50	5.0	73.4	75.5	75.5	29.789	0.00	0.000	0.175	78.1	75	69.5	80.7	30
03/13/01	11:00 p	73.0	73.4	72.6	85	68.2	0.0	WSW	0.00	4.0	73.0	75.1	75.1	29.779	0.00	0.000	0.167	77.7	74	68.7	80.1	30
03/13/01	11:30 p	72.7	73.2	72.2	85	67.9	1.0	SW	0.50	3.0	72.7	74.7	74.7	29.781	0.00	0.000	0.160	77.3	74	68.4	79.7	30
03/14/01	12:00 a	72.1	72.7	71.7	86	67.7	1.0	SW	0.50	4.0	72.1	74.0	74.0	29.780	0.00	0.000	0.148	76.9	75	68.4	79.4	30
03/14/01	12:30 a	71.8	72.2	71.4	87	67.7	1.0	SW	0.50	4.0	71.8	73.8	73.8	29.789	0.00	0.000	0.142	76.6	76	68.5	79.2	30
03/14/01	1:00 a	71.6	71.9	71.2	89	68.2	3.0	SW	1.50	8.0	71.6	73.7	73.7	29.789	0.00	0.000	0.137	76.3	77	68.6	78.9	30
03/14/01	1:30 a	71.4	71.8	71.0	89	68.0	2.0	SW	1.00	6.0	71.4	73.5	73.5	29.784	0.00	0.000	0.133	76.1	78	68.7	78.8	30
03/14/01	2:00 a	71.2	71.7	70.8	89	67.8	1.0	WSW	0.50	4.0	71.2	73.3	73.3	29.778	0.00	0.000	0.129	75.9	77	68.2	78.5	30
03/14/01	2:30 a	70.9	71.5	70.6	90	67.8	2.0	SW	1.00	6.0	70.9	73.1	73.1	29.776	0.00	0.000	0.123	75.6	78	68.3	78.2	30
03/14/01	3:00 a	70.8	71.2	70.5	91	68.0	1.0	WNW	0.50	4.0	70.8	73.1	73.1	29.785	0.00	0.000	0.121	75.4	80	68.8	78.1	30
03/14/01	3:30 a	71.0	71.3	70.6	89	67.6	2.0	WNW	1.00	6.0	71.0	73.1	73.1	29.786	0.00	0.000	0.125	75.3	80	68.7	77.9	30
03/14/01	4:00 a	70.9	71.3	70.6	89	67.5	1.0	WSW	0.50	5.0	70.9	73.0	73.0	29.786	0.00	0.000	0.123	75.2	80	68.6	77.8	30
03/14/01	4:30 a	70.7	71.1	70.3	89	67.3	0.0	WSW	0.00	3.0	70.7	72.8	72.8	29.795	0.00	0.000	0.119	75.0	79	68.0	77.4	30
03/14/01	5:00 a	70.4	70.9	69.9	90	67.3	0.0	W	0.00	2.0	70.4	72.5	72.5	29.803	0.00	0.000	0.113	74.8	79	67.8	77.1	30
03/14/01	5:30 a	69.9	70.4	69.3	89	66.5	0.0	---	0.00	0.0	69.9	71.8	71.8	29.814	0.00	0.000	0.102	74.5	78	67.2	76.6	30
03/14/01	6:00 a	69.4	69.8	68.8	88	65.7	0.0	---	0.00	0.0	69.4	71.3	71.3	29.828	0.00	0.000	0.092	74.2	78	66.9	76.2	30
03/14/01	6:30 a	68.9	69.4	68.5	89	65.5	0.0	---	0.00	0.0	68.9	70.8	70.8	29.837	0.00	0.000	0.081	73.8	77	66.1	75.7	30
03/14/01	7:00 a	69.0	69.3	68.6	90	65.9	0.0	---	0.00	0.0	69.0	71.0	71.0	29.837	0.00	0.000	0.083	73.7	77	66.0	75.5	30
03/14/01	7:30 a	69.3	69.8	68.8	89	65.9	0.0	---	0.00	0.0	69.3	71.2	71.2	29.844	0.00	0.000	0.090	73.7	78	66.4	75.6	30
03/14/01	8:00 a	70.0	70.9	69.3	87	66.0	0.0	SSW	0.00	2.0	70.0	71.7	71.7	29.841	0.00	0.000	0.104	73.8	78	66.5	75.7	30
03/14/01	8:30 a	70.9	71.5	70.3	84	65.8	1.0	ESE	0.50	6.0	70.9	72.6	72.6	29.848	0.00	0.000	0.123	74.0	78	66.7	76.0	30
03/14/01	9:00 a	71.6	72.2	71.0	81	65.5	1.0	ESE	0.50	4.0	71.6	73.0	73.0	29.844	0.00	0.000	0.137	74.3	78	67.0	76.4	30
03/14/01	9:30 a	72.1	72.5	71.7	78	64.9	1.0	ENE	0.50	7.0	72.1	73.4	73.4	29.845	0.00	0.000	0.148	74.5	78	67.2	76.6	30
03/14/01	10:00 a	72.7	73.2	71.9	72	63.1	1.0	ENE	0.50	6.0	72.7	73.8	73.8	29.844	0.00	0.000	0.160	74.9	77	67.2	77.1	30
03/14/01	10:30 a	73.2	73.8	72.6	70	62.8	1.0	ENE	0.50	5.0	73.2	74.4	74.4	29.837	0.00	0.000	0.171	75.4	76	67.3	77.7	30
03/14/01	11:00 a	74.0	75.0	73.4	67	62.3	1.0	NE	0.50	7.0	74.0	75.4	75.4	29.831	0.00	0.000	0.188	76.0	75	67.5	78.4	30
03/14/01	11:30 a	75.2	76.5	74.4	64	62.2	1.0	N	0.50	7.0	75.2	76.4	76.4	29.819	0.00	0.000	0.212	76.8	74	67.9	79.2	30
03/14/01	12:00 p	76.2	76.9	75.3	70	65.7	1.0	ENE	0.50	7.0	76.2	78.0	78.0	29.814	0.00	0.000	0.233	77.9	74	68.9	80.4	30
03/14/01	12:30 p	74.8	75.7	74.1	71	64.8	2.0	N	1.00	8.0	74.8	76.6	76.6	29.802	0.00	0.000	0.204	78.1	73	68.7	80.5	30
03/14/01	1:00 p	74.0	74.6	73.6	71	64.0	2.0	N	1.00	7.0	74.0	75.7	75.7	29.791	0.00	0.000	0.188	77.9	72	68.1	80.1	30
03/14/01	1:30 p	74.0	74.7	73.4	65	61.5	1.0	NNE	0.50	6.0	74.0	75.2	75.2	29.772	0.00	0.000	0.188	77.8	70	67.2	79.8	30
03/14/01	2:00 p	75.6	77.0	74.5	60	60.7	2.0	N	1.00	8.0	75.6	76.4	76.4	29.760	0.00	0.000	0.221	78.2	68	66.8	80.0	30
03/14/01	2:30 p	77.1	77.5	76.5	62	63.1	2.0	NE	1.00	8.0	77.1	78.1	78.1	29.751	0.00	0.000	0.252	79.2	68	67.7	81.3	30
03/14/01	3:00 p	77.3	78.6	76.6	59	61.9	2.0	NNE	1.00	7.0	77.3	78.0	78.0	29.738	0.00	0.000	0.256	79.9	67	68.0	82.1	30
03/14/01	3:30 p	78.6	79.2	78.1	59	63.1	3.0	ENE	1.50	10.0	78.6	79.5	79.5	29.730	0.00	0.000	0.283	80.7	66	68.3	83.2	30
03/14/01	4:00 p	78.4	79.1	77.9	60	63.4	2.0	NE	1.00	8.0	78.4	79.4	79.4	29.730	0.00	0.000	0.279	81.3	65	68.4	84.0	30
03/14/01	4:30 p	78.1	78.9	77.5	62	64.0	2.0	ENE	1.00	7.0	78.1	79.2	79.2	29.720	0.00	0.000	0.273	81.6	64	68.2	84.3	30
03/14/01	5:00 p	77.1	78.0	76.4	64	64.0	2.0	NE	1.00	7.0	77.1	78.3	78.3	29.725	0.00	0.000	0.252	81.4	64	68.1	84.0	30
03/14/01	5:30 p	75.8	76.7	74.9	69	64.9	2.0	ENE	1.00	8.0	75.8	77.5	77.5	29.728	0.00	0.000	0.225	80.7	65	67.8	83.0	30
03/14/01	6:00 p	74.3	75.1	73.6	72	64.7	2.0	NE	1.00	9.0	74.3	76.1	76.1	29.738	0.00	0.000	0.194	79.8	66	67.4	81.9	30
03/14/01	6:30 p	73.1	73.9	72.3	74	64.3	1.0	NE	0.50	6.0	73.1	74.6	74.6	29.743	0.00	0.000	0.169	78.9	67	67.0	80.8	30
03/14/01	7:00 p	71.9	72.6	71.4	77	64.3	0.0	NE	0.00	3.0	71.9	73.0	73.0	29.740	0.00	0.000	0.144	77.8	68	66.4	79.5	30
03/14/01	7:30 p	71.1	71.7	70.4	81	65.0	0.0	NE	0.00	4.0	71.1	72.5	72.5	29.734	0.00	0.000	0.127	77.2	69	66.2	79.0	30
03/14/01	8:00 p	70.6	70.8	70.3	83	65.2	1.0	NE	0.50	4.0	70.6	72.1	72.1	29.737	0.00	0.000	0.117	76.7	70	66.2	78.6	30
03/14/01	8:30 p	70.4	70.7	70.1	85	65.7	1.0	NE	0.50	3.0	70.4	72.0	72.0	29.752	0.00	0.000	0.113	76.3	71	66.2	78.3	30
03/14/01	9:00 p	70.6	71.0	70.2	85	65.9	1.0	NE	0.50	4.0	70.6	72.3	72.3	29.757	0.00	0.000	0.117	75.9	72	66.2	77.9	30
03/14/01	9:30 p	70.9	71.3	70.6	84	65.8	0.0	NE	0.00	4.0	70.9	72.6	72.6	29.750	0.00	0.000	0.123	75.9	72	66.2	77.9	30
03/14/01	10:00 p	71.2	71.4	70.9	85	66.5	1.0	E	0.50	7.0	71.2	73.0	73.0	29.745	0.00	0.000	0.129	76.3	73	67.0	78.5	30
03/14/01	10:30 p	71.3	71.6	71.0	87	67.2	1.0	ESE	0.50	8.0	71.3	73.3	73.3	29.750	0.00	0.000	0.131	76.0	74	67.1	78.3	30
03/14/01	11:00 p	70.9	71.4	70.4	87	66.8	0.0	ESE	0.00	2.0	70.9	72.8	72.8	29.754	0.00	0.000	0.123	75.5	75	67.0	77.8	30
03/14/01	11:30 p	70.2	70.8	69.7	87	66.1	0.0	---	0.00	0.0	70.2	72.0	72.0	29.752	0.00	0.000	0.108	75.1	74	66.2	77.1	30
03/15/01	12:00 a	69.6	70.1	69.1	86	65.2	0.0	---	0.00	0.0	69.6	71.3	71.3	29.741	0.00	0.000	0.096	74.7	73	65.5	76.6	30
03/15/01	12:30 a	69.0	69.5	68.5	86	64.6	0.0	---	0.00	0.0	69.0	70.8	70.8	29.734	0.00	0.000	0.083	74.3	73	65.1	76.1	30
03/15/01	1:00 a	68.6	68.9	68.3	91	65.9	0.0	SSW	0.00	3.0	68.6	70.5	70.5	29.726	0.00	0.000	0.075	73.9	74	65.1	75.7	30
03/15/01	1:30 a	68.8	69.1	68.5	92	66.4	1.0	SSW	0.50	8.0	68.8	70.9	70.9	29.713	0.00	0.000	0.079	73.7	75	65.3	75.5	30
03/15/01	2:00 a	68.8	69.0	68.4	91	66.1	2.0	SSW	1.00	7.0	68.8	70.8	70.8	29.702	0.00	0.000	0.079	73.6	77	65.9	75.4	30
03/15/01	2:30 a	68.7	69.0	68.4	91	66.0	2.0	S	1.00	8.0	68.7	70.7	70.7	29.690	0.00	0.000	0.077	73.5	77	65.8	75.3	30
03/15/01	3:00 a	68.8	69.1	68.5	90	65.7	1.0	S	0.50	6.0	68.8	70.7	70.7	29.682	0.00	0.000	0.079	73.3	77	65.7	75.0	30
03/15/01	3:30 a	68.7	69.0	68.3	89	65.3	0.0	S	0.00	2.0	68.7	70.6	70.6	29.688	0.00	0.000	0.077	73.2	78	65.9	74.9	30
03/15/01	4:00 a	68.2	68.8	67.6	88	64.5	0.0	---	0.00	0.0	68.2	69.9	69.9	29.689	0.00	0.000	0.067	72.9	77	65.3	74.5	30
03/15/01	4:30 a	67.6	68.1	67.1	88	63.9	0.0	---	0.00	0.0	67.6	69.1	69.1	29.669	0.00	0.000	0.054	72.6	76	64.6	74.0	30
03/15/01	5:00 a	67.1	67.5	66.7	91	64.4	0.0	S	0.00	1.0	67.1	68.6	68.6	29.666	0.00	0.000	0.044	72.3	76	64.3	73.5	30
03/15/01	5:30 a	67.1	67.5	66.8	93	65.0	0.0	---	0.00	0.0	67.1	68.7	68.7	29.689	0.00	0.000	0.044	72.0	78	64.8	73.2	30
03/15/01	6:00 a	67.3	67.7	66.9	93	65.2	0.0	S	0.00	4.0	67.3	68.9	68.9	29.702	0.00	0.000	0.048	71.9	78	64.7	73.1	30
03/15/01	6:30 a	67.6	68.0	67.1	94	65.8	0.0	S	0.00	4.0	67.6	69.3	69.3	29.711	0.00	0.000	0.054	71.9	78	64.7	73.1	30
03/15/01	7:00 a	67.8	68.3	67.4	95	66.3	0.0	S	0.00	4.0	67.8	69.6	69.6	29.728	0.00	0.000	0.058	71.9	79	65.0	73.2	30
03/15/01	7:30 a	68.6	69.4	67.9	96	67.4	1.0	S	0.50	5.0	68.6	70.8	70.8	29.738	0.00	0.000	0.075	71.9	80	65.4	73.3	30
03/15/01	8:00 a	69.6	70.5	68.9	95	68.1	2.0	SSW	1.00	6.0	69.6	72.0	72.0	29.753	0.00	0.000	0.096	72.3	80	65.8	73.8	30
03/15/01	8:30 a	71.6	73.0	70.2	90	68.5	3.0	SSW	1.50	8.0	71.6	73.8	73.8	29.754	0.00	0.000	0.137	73.0	83	67.5	75.0	30
03/15/01	9:00 a	74.3	75.5	72.6	82	68.4	5.0	SSW	2.50	17.0	74.3	76.6	76.6	29.751	0.00	0.000	0.194	73.9	87	69.8	76.2	30
03/15/01	9:30 a	76.7	77.7	75.1	76	68.6	8.0	SW	4.00	19.0	76.2	79.3	78.8	29.745	0.00	0.000	0.244	75.1	87	71.0	78.3	30
03/15/01	10:00 a	78.3	79.2	77.3	73	68.9	7.0	SSW	3.50	16.0	78.3	80.8	80.8	29.740	0.00	0.000	0.277	76.1	86	71.6	79.4	30
03/15/01	10:30 a	79.7	80.4	78.8	71	69.5	6.0	SSW	3.00	17.0	79.7	82.4	82.4	29.728	0.00	0.000	0.306	77.0	83	71.4	80.4	30
03/15/01	11:00 a	80.5	82.1	79.4	65	67.6	7.0	SW	3.50	17.0	80.5	82.8	82.8	29.720	0.00	0.000	0.323	77.8	82	71.9	81.4	30
03/15/01	11:30 a	82.2	83.1	81.6	65	69.3	7.0	SW	3.50	17.0	82.2	85.5	85.5	29.706	0.00	0.000	0.358	78.9	79	71.8	82.5	30
03/15/01	12:00 p	83.1	84.4	82.4	62	68.7	6.0	SW	3.00	17.0	83.1	86.4	86.4	29.692	0.00	0.000	0.377	79.7	79	72.6	83.8	30
03/15/01	12:30 p	84.6	85.4	84.0	57	67.7	8.0	SW	4.00	19.0	84.4	87.9	87.7	29.671	0.00	0.000	0.408	80.9	77	73.0	85.7	30
03/15/01	1:00 p	86.3	87.2	85.2	53	67.2	8.0	SW	4.00	19.0	86.1	89.7	89.5	29.645	0.00	0.000	0.444	81.9	74	72.8	87.1	30
03/15/01	1:30 p	85.6	86.4	85.2	53	66.5	7.0	SW	3.50	17.0	85.6	88.4	88.4	29.628	0.00	0.000	0.429	82.7	72	72.7	88.4	30
03/15/01	2:00 p	85.8	86.4	85.2	54	67.2	6.0	SW	3.00	15.0	85.8	89.1	89.1	29.614	0.00	0.000	0.433	83.1	70	72.3	88.6	30
03/15/01	2:30 p	85.9	86.3	85.5	53	66.8	5.0	SW	2.50	14.0	85.9	88.9	88.9	29.610	0.00	0.000	0.435	83.4	69	72.2	89.1	30
03/15/01	3:00 p	86.8	87.7	85.6	49	65.3	7.0	SW	3.50	19.0	86.8	89.4	89.4	29.604	0.00	0.000	0.454	83.8	68	72.1	89.7	30
03/15/01	3:30 p	86.8	87.5	86.4	43	61.6	7.0	SW	3.50	20.0	86.8	87.8	87.8	29.596	0.00	0.000	0.454	84.4	63	70.4	89.3	30
03/15/01	4:00 p	86.8	87.3	86.3	43	61.6	7.0	SW	3.50	17.0	86.8	87.8	87.8	29.600	0.00	0.000	0.454	84.4	62	70.0	89.0	30
03/15/01	4:30 p	86.4	87.2	86.0	45	62.5	7.0	SW	3.50	20.0	86.4	87.7	87.7	29.600	0.00	0.000	0.446	84.7	60	69.3	88.9	30
03/15/01	5:00 p	86.9	87.4	86.2	45	63.0	8.0	SW	4.00	19.0	86.8	88.4	88.3	29.597	0.00	0.000	0.456	85.2	60	69.7	89.8	30
03/15/01	5:30 p	85.3	86.4	84.6	48	63.4	7.0	SW	3.50	16.0	85.3	86.9	86.9	29.601	0.00	0.000	0.423	85.0	59	69.1	89.1	30
03/15/01	6:00 p	84.1	85.0	83.5	48	62.3	5.0	SW	2.50	14.0	84.1	85.6	85.6	29.612	0.00	0.000	0.398	84.3	60	68.9	88.2	30
03/15/01	6:30 p	83.0	83.8	82.1	51	63.0	4.0	SW	2.00	12.0	83.0	84.3	84.3	29.622	0.00	0.000	0.375	83.6	60	68.2	86.9	30
03/15/01	7:00 p	81.5	82.4	80.7	54	63.3	2.0	SW	1.00	8.0	81.5	82.5	82.5	29.629	0.00	0.000	0.344	82.8	61	68.0	85.6	30
03/15/01	7:30 p	80.0	80.9	79.1	57	63.4	1.0	SSW	0.50	6.0	80.0	80.9	80.9	29.647	0.00	0.000	0.313	81.9	61	67.1	84.2	30
03/15/01	8:00 p	78.7	79.4	78.1	57	62.2	1.0	SW	0.50	6.0	78.7	79.5	79.5	29.661	0.00	0.000	0.285	81.1	61	66.4	83.0	30
03/15/01	8:30 p	77.6	78.3	77.0	60	62.6	1.0	SW	0.50	4.0	77.6	78.5	78.5	29.675	0.00	0.000	0.262	80.4	62	66.2	82.2	30
03/15/01	9:00 p	76.6	77.2	76.0	62	62.6	1.0	SSW	0.50	4.0	76.6	77.6	77.6	29.691	0.00	0.000	0.242	79.9	62	65.7	81.5	30
03/15/01	9:30 p	75.5	76.3	74.6	65	62.9	0.0	SSW	0.00	1.0	75.5	76.8	76.8	29.708	0.00	0.000	0.219	79.3	62	65.1	80.7	30
03/15/01	10:00 p	74.2	74.9	73.4	67	62.5	0.0	SSW	0.00	1.0	74.2	75.6	75.6	29.721	0.00	0.000	0.192	78.8	62	64.7	80.1	30
03/15/01	10:30 p	73.1	73.6	72.5	69	62.3	0.0	SSW	0.00	1.0	73.1	74.2	74.2	29.720	0.00	0.000	0.169	78.1	63	64.5	79.3	30
03/15/01	11:00 p	72.4	72.8	72.1	72	62.9	0.0	SSW	0.00	2.0	72.4	73.4	73.4	29.723	0.00	0.000	0.154	77.6	63	64.0	78.8	30
03/15/01	11:30 p	72.0	72.4	71.5	73	62.9	0.0	SSW	0.00	1.0	72.0	72.9	72.9	29.724	0.00	0.000	0.146	77.0	64	63.9	78.2	30
03/16/01	12:00 a	71.3	71.9	70.6	74	62.6	0.0	---	0.00	0.0	71.3	72.1	72.1	29.728	0.00	0.000	0.131	76.6	64	63.5	77.8	30
03/16/01	12:30 a	70.5	70.9	70.1	75	62.2	0.0	---	0.00	0.0	70.5	71.2	71.2	29.734	0.00	0.000	0.115	76.1	64	63.0	77.2	30
03/16/01	1:00 a	70.2	70.5	69.9	77	62.6	0.0	SSW	0.00	1.0	70.2	71.0	71.0	29.730	0.00	0.000	0.108	75.7	66	63.5	77.0	30
03/16/01	1:30 a	70.3	70.6	70.1	79	63.5	0.0	SSW	0.00	3.0	70.3	71.4	71.4	29.716	0.00	0.000	0.110	75.4	66	63.2	76.8	30
03/16/01	2:00 a	70.2	70.4	69.9	82	64.4	1.0	SSW	0.50	5.0	70.2	71.5	71.5	29.714	0.00	0.000	0.108	75.1	67	63.4	76.6	30
03/16/01	2:30 a	70.1	70.3	69.8	84	65.0	2.0	S	1.00	6.0	70.1	71.5	71.5	29.714	0.00	0.000	0.106	75.0	69	64.1	76.6	30
03/16/01	3:00 a	70.2	70.6	69.9	85	65.5	2.0	SSW	1.00	6.0	70.2	71.8	71.8	29.712	0.00	0.000	0.108	74.8	70	64.4	76.5	30
03/16/01	3:30 a	70.3	70.6	70.0	86	65.9	2.0	SSW	1.00	8.0	70.3	72.0	72.0	29.720	0.00	0.000	0.110	74.7	72	65.1	76.5	30
03/16/01	4:00 a	70.4	70.8	70.1	87	66.3	3.0	SSW	1.50	8.0	70.4	72.2	72.2	29.713	0.00	0.000	0.113	74.6	73	65.4	76.5	30
03/16/01	4:30 a	70.5	70.8	70.3	88	66.8	3.0	SSW	1.50	10.0	70.5	72.4	72.4	29.718	0.00	0.000	0.115	74.6	74	65.8	76.5	30
03/16/01	5:00 a	70.5	70.8	70.1	89	67.1	3.0	SSW	1.50	9.0	70.5	72.5	72.5	29.720	0.00	0.000	0.115	74.5	75	66.1	76.5	30
03/16/01	5:30 a	70.5	70.8	70.2	90	67.4	3.0	S	1.50	10.0	70.5	72.6	72.6	29.732	0.00	0.000	0.115	74.4	76	66.3	76.4	30
03/16/01	6:00 a	70.5	70.8	70.1	91	67.7	3.0	SSW	1.50	9.0	70.5	72.7	72.7	29.742	0.00	0.000	0.115	74.3	77	66.6	76.3	30
03/16/01	6:30 a	70.4	70.7	70.1	92	68.0	4.0	SSW	2.00	10.0	70.4	72.7	72.7	29.744	0.00	0.000	0.113	74.3	78	67.0	76.4	30
03/16/01	7:00 a	70.4	71.0	70.0	92	68.0	3.0	SSW	1.50	9.0	70.4	72.7	72.7	29.752	0.00	0.000	0.113	74.2	79	67.3	76.3	30
03/16/01	7:30 a	71.3	72.1	70.5	92	68.9	4.0	SSW	2.00	11.0	71.3	73.7	73.7	29.769	0.00	0.000	0.131	74.3	80	67.7	76.5	30
03/16/01	8:00 a	72.8	74.2	71.6	90	69.7	4.0	SSW	2.00	14.0	72.8	75.2	75.2	29.778	0.00	0.000	0.163	74.8	81	68.6	77.3	30
03/16/01	8:30 a	74.6	75.2	73.7	86	70.1	6.0	SSW	3.00	15.0	74.6	77.3	77.3	29.779	0.00	0.000	0.200	75.6	84	70.4	78.6	30
03/16/01	9:00 a	75.6	76.6	74.9	83	70.1	6.0	SSW	3.00	14.0	75.6	78.6	78.6	29.790	0.00	0.000	0.221	76.2	85	71.4	79.5	30
03/16/01	9:30 a	77.5	78.7	76.2	77	69.7	6.0	SSW	3.00	18.0	77.5	80.3	80.3	29.802	0.00	0.000	0.260	77.1	84	71.9	80.6	30
03/16/01	10:00 a	79.3	80.3	78.4	72	69.5	6.0	SW	3.00	15.0	79.3	82.0	82.0	29.798	0.00	0.000	0.298	77.9	84	72.7	81.8	30
03/16/01	10:30 a	80.8	81.9	80.0	68	69.2	7.0	SSW	3.50	17.0	80.8	83.7	83.7	29.787	0.00	0.000	0.329	78.8	81	72.5	82.7	30
03/16/01	11:00 a	82.2	82.7	81.5	64	68.8	7.0	SW	3.50	17.0	82.2	85.3	85.3	29.783	0.00	0.000	0.358	79.7	80	73.0	84.0	30
03/16/01	11:30 a	83.4	84.6	82.3	59	67.6	6.0	SW	3.00	18.0	83.4	86.3	86.3	29.784	0.00	0.000	0.383	80.5	78	73.0	85.1	30
03/16/01	12:00 p	84.9	85.9	84.1	57	68.0	7.0	SW	3.50	23.0	84.9	88.4	88.4	29.764	0.00	0.000	0.415	81.4	76	73.1	86.5	30
03/16/01	12:30 p	86.1	86.6	85.6	55	68.0	6.0	SW	3.00	15.0	86.1	89.9	89.9	29.744	0.00	0.000	0.440	82.3	73	72.8	87.7	30
03/16/01	1:00 p	85.3	85.9	84.9	55	67.3	7.0	SW	3.50	18.0	85.3	88.4	88.4	29.719	0.00	0.000	0.423	82.9	70	72.1	88.2	30
03/16/01	1:30 p	84.7	85.4	84.1	56	67.3	6.0	SW	3.00	16.0	84.7	87.8	87.8	29.706	0.00	0.000	0.410	82.9	69	71.7	87.9	30
03/16/01	2:00 p	85.2	86.2	84.1	52	65.6	6.0	SW	3.00	17.0	85.2	87.6	87.6	29.697	0.00	0.000	0.421	83.0	69	71.8	88.1	30
03/16/01	2:30 p	86.0	86.7	85.5	53	66.9	6.0	SW	3.00	15.0	86.0	89.1	89.1	29.688	0.00	0.000	0.438	83.5	68	71.8	89.0	30
03/16/01	3:00 p	85.1	85.7	84.5	54	66.6	4.0	SW	2.00	13.0	85.1	87.9	87.9	29.698	0.00	0.000	0.419	83.5	67	71.4	88.7	30
03/16/01	3:30 p	84.6	84.9	84.1	55	66.7	3.0	WSW	1.50	13.0	84.6	87.4	87.4	29.699	0.00	0.000	0.408	83.4	67	71.3	88.5	30
03/16/01	4:00 p	84.0	84.3	83.7	56	66.6	3.0	WSW	1.50	14.0	84.0	86.8	86.8	29.675	0.00	0.000	0.396	83.2	67	71.1	88.0	30
03/16/01	4:30 p	83.8	84.1	83.4	56	66.4	3.0	WSW	1.50	9.0	83.8	86.5	86.5	29.679	0.00	0.000	0.392	83.1	67	71.0	87.7	30
03/16/01	5:00 p	83.7	84.1	83.4	56	66.3	3.0	WSW	1.50	13.0	83.7	86.3	86.3	29.685	0.00	0.000	0.390	83.1	67	71.0	87.7	30
03/16/01	5:30 p	83.2	83.7	82.9	56	65.9	4.0	WSW	2.00	12.0	83.2	85.4	85.4	29.700	0.00	0.000	0.379	83.2	65	70.2	87.4	30
03/16/01	6:00 p	82.6	83.2	82.1	60	67.3	3.0	WSW	1.50	14.0	82.6	85.1	85.1	29.699	0.00	0.000	0.367	82.9	66	70.4	87.0	30
03/16/01	6:30 p	81.9	82.5	81.0	62	67.6	2.0	WSW	1.00	8.0	81.9	84.4	84.4	29.702	0.00	0.000	0.352	82.7	67	70.6	86.9	30
03/16/01	7:00 p	80.5	81.3	79.6	64	67.2	1.0	WSW	0.50	6.0	80.5	82.6	82.6	29.709	0.00	0.000	0.323	82.3	67	70.2	86.2	30
03/16/01	7:30 p	79.0	79.9	78.2	66	66.7	0.0	WSW	0.00	2.0	79.0	80.8	80.8	29.723	0.00	0.000	0.292	81.5	67	69.5	84.8	30
03/16/01	8:00 p	77.7	78.5	77.0	69	66.7	0.0	WSW	0.00	3.0	77.7	79.5	79.5	29.738	0.00	0.000	0.265	80.9	67	68.9	83.7	30
03/16/01	8:30 p	76.7	77.2	76.1	71	66.6	0.0	WSW	0.00	2.0	76.7	78.7	78.7	29.739	0.00	0.000	0.244	80.4	68	68.9	83.1	30
03/16/01	9:00 p	75.8	76.4	75.1	72	66.1	1.0	SW	0.50	4.0	75.8	77.8	77.8	29.758	0.00	0.000	0.225	79.8	68	68.3	82.1	30
03/16/01	9:30 p	74.9	75.4	74.4	73	65.7	1.0	SW	0.50	4.0	74.9	76.8	76.8	29.771	0.00	0.000	0.206	79.3	68	67.8	81.5	30
03/16/01	10:00 p	74.2	74.7	73.8	74	65.4	0.0	SSW	0.00	3.0	74.2	76.1	76.1	29.777	0.00	0.000	0.192	78.9	68	67.4	80.9	30
03/16/01	10:30 p	73.6	74.1	73.2	75	65.2	0.0	SSW	0.00	2.0	73.6	75.3	75.3	29.773	0.00	0.000	0.179	78.5	68	67.1	80.4	30
03/16/01	11:00 p	72.9	73.4	72.3	77	65.3	0.0	SSW	0.00	2.0	72.9	74.5	74.5	29.774	0.00	0.000	0.165	78.0	68	66.6	79.8	30
03/16/01	11:30 p	72.2	72.7	71.6	78	65.0	0.0	SSW	0.00	1.0	72.2	73.5	73.5	29.780	0.00	0.000	0.150	77.3	68	65.9	79.0	30
03/17/01	12:00 a	71.3	71.9	70.7	80	64.8	0.0	---	0.00	0.0	71.3	72.6	72.6	29.784	0.00	0.000	0.131	76.9	68	65.5	78.6	30
03/17/01	12:30 a	70.6	71.1	70.1	81	64.5	0.0	---	0.00	0.0	70.6	71.9	71.9	29.790	0.00	0.000	0.117	76.3	68	65.0	77.9	30
03/17/01	1:00 a	70.1	70.5	69.7	82	64.3	0.0	---	0.00	0.0	70.1	71.4	71.4	29.792	0.00	0.000	0.106	75.9	68	64.6	77.5	30
03/17/01	1:30 a	69.7	70.1	69.3	82	64.0	0.0	SSW	0.00	1.0	69.7	71.1	71.1	29.791	0.00	0.000	0.098	75.5	69	64.6	77.1	30
03/17/01	2:00 a	69.4	69.7	69.0	84	64.4	0.0	SSW	0.00	1.0	69.4	71.0	71.0	29.788	0.00	0.000	0.092	75.1	70	64.6	76.8	30
03/17/01	2:30 a	69.1	69.5	68.8	84	64.1	0.0	---	0.00	0.0	69.1	70.8	70.8	29.786	0.00	0.000	0.085	74.8	70	64.4	76.5	30
03/17/01	3:00 a	68.9	69.3	68.6	85	64.2	0.0	SSW	0.00	2.0	68.9	70.7	70.7	29.791	0.00	0.000	0.081	74.5	71	64.5	76.2	30
03/17/01	3:30 a	68.7	69.0	68.3	87	64.7	0.0	SSW	0.00	3.0	68.7	70.5	70.5	29.792	0.00	0.000	0.077	74.2	71	64.2	75.9	30
03/17/01	4:00 a	68.6	68.9	68.2	88	64.9	1.0	SSW	0.50	3.0	68.6	70.4	70.4	29.797	0.00	0.000	0.075	74.0	73	64.8	75.8	30
03/17/01	4:30 a	68.8	69.2	68.5	89	65.4	1.0	SSW	0.50	3.0	68.8	70.7	70.7	29.802	0.00	0.000	0.079	73.9	75	65.5	75.8	30
03/17/01	5:00 a	68.9	69.2	68.6	89	65.5	1.0	SSW	0.50	3.0	68.9	70.8	70.8	29.812	0.00	0.000	0.081	73.9	74	65.1	75.7	30
03/17/01	5:30 a	68.7	69.1	68.4	90	65.6	0.0	SW	0.00	2.0	68.7	70.6	70.6	29.823	0.00	0.000	0.077	73.7	75	65.3	75.5	30
03/17/01	6:00 a	68.7	69.0	68.4	89	65.3	0.0	SW	0.00	2.0	68.7	70.6	70.6	29.826	0.00	0.000	0.077	73.6	75	65.2	75.3	30
03/17/01	6:30 a	68.7	69.0	68.4	89	65.3	0.0	SW	0.00	1.0	68.7	70.6	70.6	29.835	0.00	0.000	0.077	73.5	75	65.1	75.2	30
03/17/01	7:00 a	68.9	69.4	68.5	90	65.8	0.0	---	0.00	0.0	68.9	70.9	70.9	29.840	0.00	0.000	0.081	73.6	74	64.8	75.3	30
03/17/01	7:30 a	69.4	69.8	69.0	90	66.3	0.0	---	0.00	0.0	69.4	71.4	71.4	29.850	0.00	0.000	0.092	73.9	75	65.5	75.8	30
03/17/01	8:00 a	69.8	70.1	69.4	91	67.1	0.0	NW	0.00	3.0	69.8	71.9	71.9	29.864	0.00	0.000	0.100	74.3	77	66.6	76.3	30
03/17/01	8:30 a	70.6	71.4	69.8	89	67.2	1.0	NW	0.50	5.0	70.6	72.6	72.6	29.868	0.00	0.000	0.117	74.5	76	66.4	76.6	30
03/17/01	9:00 a	71.5	72.3	70.9	86	67.1	1.0	NW	0.50	4.0	71.5	73.4	73.4	29.863	0.00	0.000	0.135	75.0	77	67.3	77.3	30
03/17/01	9:30 a	72.5	73.3	71.9	75	64.1	1.0	N	0.50	5.0	72.5	73.8	73.8	29.869	0.00	0.000	0.156	75.8	78	68.4	78.4	30
03/17/01	10:00 a	73.8	74.4	73.0	69	63.0	2.0	N	1.00	6.0	73.8	75.2	75.2	29.880	0.00	0.000	0.183	76.6	75	68.1	79.1	30
03/17/01	10:30 a	74.1	74.5	73.6	69	63.3	2.0	N	1.00	7.0	74.1	75.6	75.6	29.886	0.00	0.000	0.190	77.3	74	68.4	79.7	30
03/17/01	11:00 a	74.3	75.7	73.5	65	61.8	3.0	N	1.50	9.0	74.3	75.5	75.5	29.879	0.00	0.000	0.194	77.8	72	68.0	80.0	30
03/17/01	11:30 a	76.8	78.1	75.4	59	61.4	2.0	NE	1.00	8.0	76.8	77.5	77.5	29.864	0.00	0.000	0.246	79.2	71	69.0	81.7	30
03/17/01	12:00 p	78.2	78.9	77.7	56	61.2	2.0	N	1.00	9.0	78.2	78.8	78.8	29.854	0.00	0.000	0.275	80.4	68	68.9	83.1	30
03/17/01	12:30 p	79.0	79.6	78.3	52	59.9	3.0	NE	1.50	9.0	79.0	79.4	79.4	29.846	0.00	0.000	0.292	81.4	65	68.5	84.2	30
03/17/01	1:00 p	78.8	79.5	78.0	53	60.2	3.0	NE	1.50	9.0	78.8	79.2	79.2	29.831	0.00	0.000	0.288	82.0	60	66.7	84.2	30
03/17/01	1:30 p	77.3	78.5	76.2	57	60.9	3.0	NE	1.50	9.0	77.3	77.8	77.8	29.825	0.00	0.000	0.256	82.1	58	65.9	84.0	30
03/17/01	2:00 p	76.9	77.7	76.3	59	61.5	2.0	N	1.00	9.0	76.9	77.6	77.6	29.814	0.00	0.000	0.248	81.8	60	66.6	83.9	30
03/17/01	2:30 p	76.9	77.7	76.5	55	59.5	3.0	N	1.50	11.0	76.9	77.2	77.2	29.794	0.00	0.000	0.248	82.0	58	65.8	83.9	30
03/17/01	3:00 p	77.2	77.7	76.7	58	61.3	3.0	N	1.50	11.0	77.2	77.8	77.8	29.778	0.00	0.000	0.254	82.0	58	65.8	83.9	30
03/17/01	3:30 p	77.5	78.0	76.8	55	60.1	4.0	N	2.00	9.0	77.5	77.9	77.9	29.764	0.00	0.000	0.260	82.2	58	66.0	84.2	30
03/17/01	4:00 p	77.1	78.0	76.5	61	62.6	3.0	NNE	1.50	12.0	77.1	78.0	78.0	29.752	0.00	0.000	0.252	82.4	59	66.6	84.6	30
03/17/01	4:30 p	76.0	76.9	75.3	61	61.6	2.0	N	1.00	11.0	76.0	76.8	76.8	29.757	0.00	0.000	0.229	82.0	59	66.3	84.0	30
03/17/01	5:00 p	75.1	76.3	74.2	65	62.5	3.0	NE	1.50	9.0	75.1	76.4	76.4	29.775	0.00	0.000	0.210	81.4	59	65.7	83.1	30
03/17/01	5:30 p	73.3	74.3	72.4	69	62.5	2.0	NE	1.00	8.0	73.3	74.5	74.5	29.789	0.00	0.000	0.173	80.2	61	65.5	81.7	30
03/17/01	6:00 p	72.1	72.7	71.4	73	63.0	1.0	NE	0.50	8.0	72.1	73.0	73.0	29.809	0.00	0.000	0.148	79.0	64	65.8	80.6	30
03/17/01	6:30 p	71.0	71.6	70.4	75	62.7	1.0	NE	0.50	5.0	71.0	71.8	71.8	29.823	0.00	0.000	0.125	78.0	66	65.7	79.5	30
03/17/01	7:00 p	70.5	70.9	69.8	77	62.9	1.0	NE	0.50	9.0	70.5	71.4	71.4	29.807	0.00	0.000	0.115	77.5	67	65.7	79.1	30
03/17/01	7:30 p	69.4	69.9	69.1	79	62.6	1.0	NE	0.50	5.0	69.4	70.6	70.6	29.823	0.00	0.000	0.092	76.8	68	65.4	78.4	30
03/17/01	8:00 p	69.1	69.5	68.6	80	62.7	1.0	NE	0.50	7.0	69.1	70.6	70.6	29.820	0.00	0.000	0.085	76.3	68	65.0	77.9	30
03/17/01	8:30 p	68.8	69.1	68.6	79	62.0	2.0	NE	1.00	7.0	68.8	70.2	70.2	29.832	0.00	0.000	0.079	75.8	69	64.9	77.5	30
03/17/01	9:00 p	69.1	69.5	68.7	76	61.2	1.0	NE	0.50	8.0	69.1	70.2	70.2	29.859	0.00	0.000	0.085	75.4	69	64.5	77.0	30
03/17/01	9:30 p	69.5	69.9	69.3	74	60.8	1.0	E	0.50	5.0	69.5	70.2	70.2	29.869	0.00	0.000	0.094	75.2	69	64.3	76.8	30
03/17/01	10:00 p	69.8	70.0	69.6	74	61.1	0.0	E	0.00	3.0	69.8	70.4	70.4	29.864	0.00	0.000	0.100	75.0	68	63.7	76.5	30
03/17/01	10:30 p	69.8	70.0	69.6	76	61.9	0.0	N	0.00	4.0	69.8	70.6	70.6	29.857	0.00	0.000	0.100	75.0	68	63.7	76.5	30
03/17/01	11:00 p	69.9	70.1	69.6	77	62.4	0.0	N	0.00	3.0	69.9	70.7	70.7	29.859	0.00	0.000	0.102	74.8	69	63.9	76.4	30
03/17/01	11:30 p	70.1	70.4	69.8	77	62.6	1.0	N	0.50	5.0	70.1	70.9	70.9	29.858	0.00	0.000	0.106	74.7	69	63.9	76.3	30
03/18/01	12:00 a	70.2	70.5	70.0	76	62.3	0.0	N	0.00	4.0	70.2	70.9	70.9	29.848	0.00	0.000	0.108	74.5	70	64.1	76.1	30
03/18/01	12:30 a	70.2	70.5	70.0	76	62.3	1.0	N	0.50	7.0	70.2	70.9	70.9	29.850	0.00	0.000	0.108	74.3	70	63.9	75.9	30
03/18/01	1:00 a	70.1	70.4	69.7	75	61.8	2.0	N	1.00	10.0	70.1	70.7	70.7	29.843	0.00	0.000	0.106	74.1	71	64.1	75.8	30
03/18/01	1:30 a	69.7	70.2	69.3	73	60.7	2.0	N	1.00	9.0	69.7	70.2	70.2	29.840	0.00	0.000	0.098	73.8	70	63.4	75.3	30
03/18/01	2:00 a	69.2	69.7	68.5	76	61.3	3.0	N	1.50	11.0	69.2	70.2	70.2	29.829	0.00	0.000	0.087	73.4	71	63.4	74.8	30
03/18/01	2:30 a	68.6	69.0	68.4	73	59.6	2.0	N	1.00	10.0	68.6	69.4	69.4	29.811	0.00	0.000	0.075	73.1	71	63.1	74.3	30
03/18/01	3:00 a	68.5	68.8	68.2	73	59.5	2.0	NNE	1.00	12.0	68.5	69.3	69.3	29.813	0.00	0.000	0.073	72.8	71	62.8	73.9	30
03/18/01	3:30 a	68.2	68.6	67.9	72	58.8	2.0	NNE	1.00	11.0	68.2	68.9	68.9	29.802	0.00	0.000	0.067	72.5	69	61.7	73.3	30
03/18/01	4:00 a	67.9	68.3	67.6	74	59.3	2.0	NNE	1.00	10.0	67.9	68.7	68.7	29.801	0.00	0.000	0.060	72.2	70	61.9	73.0	30
03/18/01	4:30 a	67.7	68.1	67.3	76	59.9	2.0	NE	1.00	9.0	67.7	68.6	68.6	29.796	0.00	0.000	0.056	72.1	71	62.2	72.9	30
03/18/01	5:00 a	67.5	67.7	67.1	75	59.3	2.0	NNE	1.00	8.0	67.5	68.3	68.3	29.795	0.00	0.000	0.052	72.0	70	61.7	72.7	30
03/18/01	5:30 a	67.4	67.7	67.1	73	58.4	1.0	NNE	0.50	11.0	67.4	68.1	68.1	29.803	0.00	0.000	0.050	71.8	70	61.5	72.4	30
03/18/01	6:00 a	67.4	67.6	67.1	71	57.7	1.0	N	0.50	8.0	67.4	67.9	67.9	29.803	0.00	0.000	0.050	71.7	70	61.4	72.3	30
03/18/01	6:30 a	67.4	67.7	67.1	72	58.1	1.0	NNE	0.50	8.0	67.4	68.0	68.0	29.807	0.00	0.000	0.050	71.5	69	60.8	72.0	30
03/18/01	7:00 a	67.5	67.9	67.1	73	58.5	2.0	N	1.00	7.0	67.5	68.2	68.2	29.823	0.00	0.000	0.052	71.3	70	61.0	71.8	30
03/18/01	7:30 a	67.9	68.4	67.4	73	58.9	2.0	N	1.00	8.0	67.9	68.7	68.7	29.831	0.00	0.000	0.060	71.3	70	61.0	71.8	30
03/18/01	8:00 a	69.1	70.2	68.2	69	58.5	2.0	N	1.00	12.0	69.1	69.4	69.4	29.839	0.00	0.000	0.085	71.6	71	61.7	72.2	30
03/18/01	8:30 a	70.5	71.1	69.9	67	59.0	3.0	N	1.50	11.0	70.5	70.5	70.5	29.848	0.00	0.000	0.115	72.3	71	62.4	73.2	30
03/18/01	9:00 a	70.7	71.1	70.4	67	59.2	4.0	N	2.00	14.0	70.7	70.7	70.7	29.861	0.00	0.000	0.119	72.9	70	62.5	74.0	30
03/18/01	9:30 a	70.7	71.3	70.3	67	59.2	4.0	N	2.00	15.0	70.7	70.7	70.7	29.857	0.00	0.000	0.119	73.2	70	62.8	74.4	30
03/18/01	10:00 a	72.4	74.0	71.0	64	59.5	4.0	NNE	2.00	17.0	72.4	72.8	72.8	29.846	0.00	0.000	0.154	73.9	71	63.9	75.5	30
03/18/01	10:30 a	74.1	74.6	73.4	64	61.1	5.0	N	2.50	15.0	74.1	75.2	75.2	29.856	0.00	0.000	0.190	75.3	70	64.8	77.0	30
03/18/01	11:00 a	73.6	74.1	73.2	61	59.3	5.0	N	2.50	17.0	73.6	74.3	74.3	29.850	0.00	0.000	0.179	76.0	68	64.7	77.6	30
03/18/01	11:30 a	75.2	75.8	73.8	60	60.4	5.0	N	2.50	16.0	75.2	76.1	76.1	29.843	0.00	0.000	0.212	76.9	67	65.1	78.4	30
03/18/01	12:00 p	75.0	75.9	73.7	65	62.4	5.0	N	2.50	18.0	75.0	76.3	76.3	29.845	0.00	0.000	0.208	77.8	66	65.5	79.3	30
03/18/01	12:30 p	73.6	75.0	73.0	64	60.7	6.0	N	3.00	17.0	73.6	74.5	74.5	29.833	0.00	0.000	0.179	77.5	67	65.7	79.1	30
03/18/01	1:00 p	75.0	75.7	74.5	65	62.4	7.0	NNE	3.50	20.0	75.0	76.3	76.3	29.828	0.00	0.000	0.208	78.1	67	66.2	79.8	30
03/18/01	1:30 p	74.3	75.1	73.7	65	61.8	5.0	N	2.50	18.0	74.3	75.5	75.5	29.812	0.00	0.000	0.194	78.6	66	66.3	80.3	30
03/18/01	2:00 p	75.6	76.4	74.4	63	62.1	6.0	N	3.00	19.0	75.6	76.7	76.7	29.803	0.00	0.000	0.221	79.0	66	66.7	80.8	30
03/18/01	2:30 p	74.1	76.1	72.8	68	62.9	6.0	N	3.00	18.0	74.1	75.5	75.5	29.802	0.00	0.000	0.190	79.3	65	66.5	81.1	30
03/18/01	3:00 p	72.2	72.9	71.6	72	62.7	6.0	N	3.00	16.0	72.2	73.1	73.1	29.800	0.00	0.000	0.150	78.3	66	66.0	79.9	30
03/18/01	3:30 p	71.8	72.2	71.4	71	61.9	5.0	NNE	2.50	17.0	71.8	72.5	72.5	29.796	0.00	0.000	0.142	77.4	66	65.1	78.9	30
03/18/01	4:00 p	73.0	73.8	71.9	68	61.8	5.0	NNE	2.50	15.0	73.0	73.9	73.9	29.791	0.00	0.000	0.167	77.5	66	65.2	79.0	30
03/18/01	4:30 p	72.7	73.3	72.1	71	62.8	5.0	NNE	2.50	16.0	72.7	73.8	73.8	29.791	0.00	0.000	0.160	77.6	66	65.3	79.1	30
03/18/01	5:00 p	71.6	72.2	71.1	73	62.5	4.0	NNE	2.00	12.0	71.6	72.4	72.4	29.806	0.00	0.000	0.137	77.0	67	65.2	78.5	30
03/18/01	5:30 p	71.3	71.6	71.0	73	62.2	4.0	NNE	2.00	15.0	71.3	72.0	72.0	29.810	0.00	0.000	0.131	76.4	68	65.1	78.0	30
03/18/01	6:00 p	70.6	71.3	70.0	76	62.7	3.0	NNE	1.50	13.0	70.6	71.4	71.4	29.811	0.00	0.000	0.117	76.1	69	65.2	77.8	30
03/18/01	6:30 p	70.2	70.6	69.9	74	61.5	3.0	NE	1.50	14.0	70.2	70.7	70.7	29.810	0.00	0.000	0.108	76.1	68	64.8	77.7	30
03/18/01	7:00 p	70.5	70.9	70.2	74	61.8	3.0	NE	1.50	14.0	70.5	71.1	71.1	29.822	0.00	0.000	0.115	75.9	69	65.0	77.6	30
03/18/01	7:30 p	70.8	71.1	70.5	74	62.1	3.0	NE	1.50	12.0	70.8	71.5	71.5	29.823	0.00	0.000	0.121	75.7	70	65.2	77.5	30
03/18/01	8:00 p	71.1	71.4	70.9	76	63.1	4.0	NE	2.00	14.0	71.1	72.0	72.0	29.818	0.00	0.000	0.127	75.7	70	65.2	77.5	30
03/18/01	8:30 p	71.3	71.5	71.0	72	61.8	4.0	ENE	2.00	13.0	71.3	71.9	71.9	29.826	0.00	0.000	0.131	75.7	70	65.2	77.5	30
03/18/01	9:00 p	71.3	71.5	71.1	73	62.2	2.0	E	1.00	14.0	71.3	72.0	72.0	29.831	0.00	0.000	0.131	75.7	70	65.2	77.5	30
03/18/01	9:30 p	71.3	71.6	71.0	72	61.8	3.0	ENE	1.50	10.0	71.3	71.9	71.9	29.831	0.00	0.000	0.131	75.7	69	64.8	77.4	30
03/18/01	10:00 p	71.3	71.5	71.1	72	61.8	3.0	ENE	1.50	11.0	71.3	71.9	71.9	29.831	0.00	0.000	0.131	75.6	70	65.1	77.4	30
03/18/01	10:30 p	71.3	71.5	71.0	71	61.4	3.0	E	1.50	11.0	71.3	71.9	71.9	29.832	0.00	0.000	0.131	75.4	70	64.9	77.1	30
03/18/01	11:00 p	71.3	71.5	71.0	74	62.6	2.0	ENE	1.00	9.0	71.3	72.1	72.1	29.823	0.00	0.000	0.131	75.3	70	64.8	77.0	30
03/18/01	11:30 p	71.3	71.5	71.0	76	63.3	2.0	ENE	1.00	10.0	71.3	72.3	72.3	29.823	0.00	0.000	0.131	74.9	72	65.3	76.7	30
03/19/01	12:00 a	71.3	71.6	71.0	77	63.7	3.0	ENE	1.50	10.0	71.3	72.3	72.3	29.811	0.00	0.000	0.131	74.7	73	65.5	76.6	30
03/19/01	12:30 a	71.3	71.6	71.0	78	64.1	2.0	ENE	1.00	10.0	71.3	72.4	72.4	29.801	0.00	0.000	0.131	74.6	74	65.8	76.5	30
03/19/01	1:00 a	71.1	71.5	70.7	80	64.6	2.0	ENE	1.00	11.0	71.1	72.4	72.4	29.790	0.00	0.000	0.127	74.4	75	66.0	76.4	30
03/19/01	1:30 a	70.9	71.2	70.6	81	64.8	3.0	ENE	1.50	11.0	70.9	72.3	72.3	29.782	0.00	0.000	0.123	74.3	75	65.9	76.3	30
03/19/01	2:00 a	70.8	71.1	70.6	82	65.0	4.0	E	2.00	15.0	70.8	72.3	72.3	29.768	0.00	0.000	0.121	74.2	76	66.1	76.2	30
03/19/01	2:30 a	70.9	71.2	70.6	82	65.1	3.0	E	1.50	11.0	70.9	72.4	72.4	29.749	0.00	0.000	0.123	74.0	77	66.3	75.9	30
03/19/01	3:00 a	70.9	71.2	70.6	81	64.8	4.0	ESE	2.00	18.0	70.9	72.3	72.3	29.736	0.00	0.000	0.123	74.0	77	66.3	75.9	30
03/19/01	3:30 a	70.8	71.1	70.5	80	64.3	3.0	ESE	1.50	9.0	70.8	72.1	72.1	29.743	0.00	0.000	0.121	73.8	77	66.1	75.7	30
03/19/01	4:00 a	70.8	71.1	70.5	80	64.3	3.0	ESE	1.50	10.0	70.8	72.1	72.1	29.737	0.00	0.000	0.121	73.8	77	66.1	75.7	30
03/19/01	4:30 a	70.8	71.1	70.6	80	64.3	4.0	ESE	2.00	14.0	70.8	72.1	72.1	29.740	0.00	0.000	0.121	73.7	77	66.0	75.5	30
03/19/01	5:00 a	70.9	71.2	70.6	81	64.8	3.0	ESE	1.50	12.0	70.9	72.3	72.3	29.757	0.00	0.000	0.123	73.7	77	66.0	75.5	30
03/19/01	5:30 a	70.9	71.1	70.6	81	64.8	3.0	ESE	1.50	10.0	70.9	72.3	72.3	29.764	0.00	0.000	0.123	73.7	77	66.0	75.5	30
03/19/01	6:00 a	71.0	71.3	70.7	80	64.5	4.0	ESE	2.00	17.0	71.0	72.3	72.3	29.753	0.00	0.000	0.125	73.7	78	66.4	75.6	30
03/19/01	6:30 a	71.0	71.2	70.6	79	64.2	4.0	ESE	2.00	13.0	71.0	72.2	72.2	29.763	0.00	0.000	0.125	73.6	78	66.3	75.4	30
03/19/01	7:00 a	70.9	71.2	70.6	79	64.1	3.0	ESE	1.50	10.0	70.9	72.1	72.1	29.773	0.00	0.000	0.123	73.5	77	65.8	75.3	30
03/19/01	7:30 a	71.1	71.5	70.7	79	64.3	3.0	ESE	1.50	15.0	71.1	72.3	72.3	29.780	0.00	0.000	0.127	73.6	77	65.9	75.4	30
03/19/01	8:00 a	71.7	72.2	71.1	78	64.5	3.0	ESE	1.50	12.0	71.7	72.9	72.9	29.781	0.00	0.000	0.140	73.8	78	66.5	75.7	30
03/19/01	8:30 a	72.4	72.9	71.9	76	64.4	6.0	ESE	3.00	20.0	72.4	73.7	73.7	29.774	0.00	0.000	0.154	74.1	78	66.8	76.1	30
03/19/01	9:00 a	72.7	72.9	72.4	75	64.3	7.0	SE	3.50	22.0	72.7	74.0	74.0	29.779	0.00	0.000	0.160	74.4	78	67.1	76.5	30
03/19/01	9:30 a	72.7	72.9	72.3	78	65.4	6.0	SE	3.00	18.0	72.7	74.2	74.2	29.775	0.00	0.000	0.160	74.8	78	67.5	77.1	30
03/19/01	10:00 a	72.2	72.7	71.9	79	65.3	6.0	SE	3.00	16.0	72.2	73.6	73.6	29.773	0.00	0.000	0.150	75.1	78	67.8	77.5	30
03/19/01	10:30 a	72.5	72.9	72.1	77	64.9	5.0	SE	2.50	18.0	72.5	73.9	73.9	29.774	0.00	0.000	0.156	75.4	78	68.1	77.9	30
03/19/01	11:00 a	73.2	73.9	72.5	75	64.8	6.0	SE	3.00	17.0	73.2	74.8	74.8	29.766	0.00	0.000	0.171	75.8	77	68.1	78.3	30
03/19/01	11:30 a	73.8	74.1	73.5	75	65.4	7.0	SE	3.50	21.0	73.8	75.6	75.6	29.763	0.00	0.000	0.183	76.3	77	68.6	78.9	30
03/19/01	12:00 p	74.1	74.6	73.5	75	65.7	8.0	SE	4.00	21.0	73.6	76.0	75.5	29.748	0.00	0.000	0.190	76.6	76	68.5	79.2	30
03/19/01	12:30 p	74.2	74.7	73.7	74	65.4	7.0	SE	3.50	23.0	74.2	76.1	76.1	29.728	0.00	0.000	0.192	77.0	76	68.9	79.6	30
03/19/01	1:00 p	74.9	75.4	74.3	74	66.1	7.0	SE	3.50	20.0	74.9	76.9	76.9	29.717	0.00	0.000	0.206	77.3	76	69.1	79.9	30
03/19/01	1:30 p	74.8	75.2	74.3	76	66.7	6.0	SE	3.00	18.0	74.8	76.9	76.9	29.710	0.00	0.000	0.204	77.7	76	69.5	80.4	30
03/19/01	2:00 p	74.1	74.8	73.4	81	67.9	6.0	SE	3.00	16.0	74.1	76.2	76.2	29.709	0.01	0.000	0.190	77.6	76	69.4	80.3	30
03/19/01	2:30 p	72.8	73.6	71.9	85	68.0	3.0	SE	1.50	12.0	72.8	74.8	74.8	29.703	0.08	0.000	0.163	77.2	77	69.4	79.9	30
03/19/01	3:00 p	71.6	72.4	70.8	89	68.2	3.0	S	1.50	9.0	71.6	73.7	73.7	29.704	0.70	0.000	0.137	76.8	79	69.8	79.7	30
03/19/01	3:30 p	71.0	71.3	70.8	89	67.6	5.0	S	2.50	19.0	71.0	73.1	73.1	29.709	0.03	0.000	0.125	76.5	80	69.9	79.4	30
03/19/01	4:00 p	71.1	71.4	70.8	90	68.0	5.0	S	2.50	19.0	71.1	73.3	73.3	29.691	0.02	0.000	0.127	76.4	80	69.8	79.3	30
03/19/01	4:30 p	71.6	72.1	71.0	89	68.2	4.0	SSE	2.00	13.0	71.6	73.7	73.7	29.677	0.01	0.000	0.137	76.5	81	70.2	79.5	30
03/19/01	5:00 p	71.8	72.1	71.4	89	68.4	5.0	SSE	2.50	14.0	71.8	73.9	73.9	29.686	0.00	0.000	0.142	76.5	81	70.2	79.5	30
03/19/01	5:30 p	71.4	71.8	71.0	87	67.3	6.0	SE	3.00	16.0	71.4	73.4	73.4	29.692	0.00	0.000	0.133	76.4	81	70.1	79.4	30
03/19/01	6:00 p	71.0	71.4	70.5	86	66.6	5.0	SE	2.50	12.0	71.0	72.9	72.9	29.698	0.00	0.000	0.125	76.1	80	69.5	79.0	30
03/19/01	6:30 p	70.7	71.0	70.4	89	67.3	5.0	SE	2.50	14.0	70.7	72.8	72.8	29.700	0.00	0.000	0.119	75.9	81	69.6	78.8	30
03/19/01	7:00 p	70.7	71.1	70.4	89	67.3	5.0	SE	2.50	15.0	70.7	72.8	72.8	29.702	0.01	0.000	0.119	75.8	82	69.9	78.8	30
03/19/01	7:30 p	70.7	71.0	70.4	89	67.3	5.0	SE	2.50	16.0	70.7	72.8	72.8	29.671	0.01	0.000	0.119	75.7	82	69.8	78.6	30
03/19/01	8:00 p	70.6	70.9	70.3	90	67.5	6.0	SE	3.00	17.0	70.6	72.7	72.7	29.687	0.01	0.000	0.117	75.6	83	70.1	78.6	30
03/19/01	8:30 p	70.5	70.8	70.2	89	67.1	5.0	SE	2.50	14.0	70.5	72.5	72.5	29.692	0.00	0.000	0.115	75.5	83	70.0	78.4	30
03/19/01	9:00 p	70.6	70.9	70.3	91	67.8	4.0	SE	2.00	12.0	70.6	72.8	72.8	29.694	0.01	0.000	0.117	75.5	84	70.3	78.5	30
03/19/01	9:30 p	70.6	71.0	70.3	92	68.2	5.0	SE	2.50	13.0	70.6	72.9	72.9	29.692	0.03	0.000	0.117	75.5	84	70.3	78.5	30
03/19/01	10:00 p	70.7	71.0	70.4	93	68.6	5.0	S	2.50	15.0	70.7	73.1	73.1	29.682	0.01	0.000	0.119	75.2	84	70.0	78.1	30
03/19/01	10:30 p	70.7	71.1	70.4	91	67.9	6.0	SSE	3.00	17.0	70.7	72.9	72.9	29.675	0.00	0.000	0.119	75.0	85	70.2	78.0	30
03/19/01	11:00 p	70.7	71.1	70.4	91	67.9	6.0	SSE	3.00	16.0	70.7	72.9	72.9	29.670	0.00	0.000	0.119	74.7	85	69.9	77.5	30
03/19/01	11:30 p	70.7	71.1	70.4	92	68.3	6.0	SSE	3.00	15.0	70.7	73.0	73.0	29.667	0.00	0.000	0.119	74.5	86	70.0	77.2	30
03/20/01	12:00 a	70.8	71.2	70.4	91	68.0	6.0	SSE	3.00	18.0	70.8	73.1	73.1	29.661	0.00	0.000	0.121	74.4	86	69.9	77.0	30
03/20/01	12:30 a	70.7	71.1	70.3	92	68.3	5.0	SSE	2.50	12.0	70.7	73.0	73.0	29.659	0.00	0.000	0.119	74.2	86	69.7	76.6	30
03/20/01	1:00 a	70.6	71.0	70.3	92	68.2	4.0	SSE	2.00	12.0	70.6	72.9	72.9	29.661	0.00	0.000	0.117	74.1	86	69.6	76.4	30
03/20/01	1:30 a	70.6	71.0	70.2	92	68.2	4.0	SSE	2.00	12.0	70.6	72.9	72.9	29.654	0.00	0.000	0.117	74.0	87	69.9	76.3	30
03/20/01	2:00 a	70.6	71.0	70.1	91	67.8	4.0	SE	2.00	13.0	70.6	72.8	72.8	29.638	0.00	0.000	0.117	74.0	87	69.9	76.3	30
03/20/01	2:30 a	70.5	70.8	70.1	92	68.1	3.0	SE	1.50	8.0	70.5	72.8	72.8	29.620	0.00	0.000	0.115	73.9	87	69.8	76.2	30
03/20/01	3:00 a	70.3	70.8	69.9	92	67.9	1.0	S	0.50	5.0	70.3	72.6	72.6	29.609	0.00	0.000	0.110	73.8	86	69.3	76.0	30
03/20/01	3:30 a	70.0	70.4	69.6	92	67.6	1.0	S	0.50	6.0	70.0	72.2	72.2	29.594	0.00	0.000	0.104	73.6	86	69.2	75.8	30
03/20/01	4:00 a	69.7	70.1	69.1	93	67.6	1.0	S	0.50	5.0	69.7	72.0	72.0	29.587	0.00	0.000	0.098	73.4	85	68.6	75.5	30
03/20/01	4:30 a	69.3	69.7	68.9	94	67.5	3.0	S	1.50	12.0	69.3	71.6	71.6	29.598	0.00	0.000	0.090	73.2	86	68.8	75.4	30
03/20/01	5:00 a	69.2	69.6	68.8	92	66.8	5.0	SSW	2.50	15.0	69.2	71.3	71.3	29.603	0.00	0.000	0.087	73.0	87	68.9	75.3	30
03/20/01	5:30 a	69.1	69.5	68.7	92	66.7	4.0	SW	2.00	11.0	69.1	71.2	71.2	29.617	0.00	0.000	0.085	73.0	87	68.9	75.3	30
03/20/01	6:00 a	68.9	69.4	68.5	92	66.5	4.0	SW	2.00	12.0	68.9	71.0	71.0	29.629	0.00	0.000	0.081	72.8	87	68.7	75.0	30
03/20/01	6:30 a	68.7	69.2	68.3	93	66.6	3.0	SW	1.50	10.0	68.7	70.8	70.8	29.637	0.00	0.000	0.077	72.7	87	68.6	74.9	30
03/20/01	7:00 a	68.6	69.0	68.1	93	66.5	3.0	SSW	1.50	10.0	68.6	70.6	70.6	29.632	0.00	0.000	0.075	72.6	87	68.5	74.7	30
03/20/01	7:30 a	68.7	69.3	68.2	92	66.3	3.0	SW	1.50	10.0	68.7	70.7	70.7	29.646	0.00	0.000	0.077	72.5	87	68.4	74.6	30
03/20/01	8:00 a	68.7	69.2	68.2	91	66.0	5.0	SW	2.50	15.0	68.7	70.7	70.7	29.657	0.00	0.000	0.077	72.6	87	68.5	74.7	30
03/20/01	8:30 a	68.6	69.1	68.2	90	65.5	3.0	SW	1.50	10.0	68.6	70.5	70.5	29.660	0.00	0.000	0.075	72.6	87	68.5	74.7	30
03/20/01	9:00 a	69.9	71.1	68.5	84	64.8	4.0	SW	2.00	11.0	69.9	71.4	71.4	29.660	0.00	0.000	0.102	72.9	86	68.5	75.1	30
03/20/01	9:30 a	72.1	73.1	70.6	76	64.1	4.0	WSW	2.00	13.0	72.1	73.2	73.2	29.662	0.00	0.000	0.148	73.7	85	68.9	75.9	30
03/20/01	10:00 a	73.7	75.1	72.2	70	63.3	5.0	WSW	2.50	15.0	73.7	75.1	75.1	29.656	0.00	0.000	0.181	74.7	84	69.5	77.4	30
03/20/01	10:30 a	74.6	75.0	74.1	66	62.5	4.0	WNW	2.00	15.0	74.6	75.9	75.9	29.654	0.00	0.000	0.200	75.7	80	69.1	78.5	30
03/20/01	11:00 a	75.6	76.5	74.8	60	60.7	4.0	WSW	2.00	15.0	75.6	76.4	76.4	29.648	0.00	0.000	0.221	76.5	77	68.7	79.1	30
03/20/01	11:30 a	76.9	77.7	75.8	57	60.5	5.0	WNW	2.50	15.0	76.9	77.4	77.4	29.639	0.00	0.000	0.248	77.3	74	68.4	79.7	30
03/20/01	12:00 p	78.5	79.3	77.7	57	62.0	6.0	WSW	3.00	17.0	78.5	79.2	79.2	29.623	0.00	0.000	0.281	78.3	73	68.9	80.8	30
03/20/01	12:30 p	79.2	80.0	78.4	47	57.2	5.0	W	2.50	19.0	79.2	79.1	79.1	29.611	0.00	0.000	0.296	79.2	67	67.3	81.2	30
03/20/01	1:00 p	80.0	81.3	79.1	43	55.5	6.0	WSW	3.00	18.0	80.0	79.4	79.4	29.599	0.00	0.000	0.313	80.0	64	66.7	81.9	30
03/20/01	1:30 p	80.2	81.3	79.3	44	56.3	5.0	WNW	2.50	17.0	80.2	79.7	79.7	29.584	0.00	0.000	0.317	80.7	62	66.5	82.6	30
03/20/01	2:00 p	80.6	81.7	79.4	42	55.4	6.0	WSW	3.00	16.0	80.6	79.8	79.8	29.569	0.00	0.000	0.325	81.0	61	66.3	82.9	30
03/20/01	2:30 p	81.3	82.4	80.0	43	56.7	5.0	W	2.50	17.0	81.3	80.8	80.8	29.572	0.00	0.000	0.340	81.5	60	66.3	83.4	30
03/20/01	3:00 p	80.9	82.1	79.8	40	54.3	7.0	SW	3.50	20.0	80.9	79.9	79.9	29.561	0.00	0.000	0.331	81.9	56	64.7	83.4	30
03/20/01	3:30 p	80.0	81.1	79.0	43	55.5	6.0	WNW	3.00	21.0	80.0	79.4	79.4	29.566	0.00	0.000	0.313	81.8	56	64.6	83.3	30
03/20/01	4:00 p	78.3	79.6	75.2	49	57.6	7.0	WNW	3.50	24.0	78.3	78.3	78.3	29.595	0.00	0.000	0.277	81.6	53	62.8	82.5	30
03/20/01	4:30 p	73.9	75.2	73.2	49	53.5	6.0	NW	3.00	16.0	73.9	73.5	73.5	29.609	0.00	0.000	0.185	80.0	52	60.8	80.3	30
03/20/01	5:00 p	72.9	73.5	72.0	51	53.7	4.0	NW	2.00	17.0	72.9	72.5	72.5	29.621	0.00	0.000	0.165	79.0	52	59.9	79.4	30
03/20/01	5:30 p	71.4	72.2	70.7	49	51.2	4.0	WNW	2.00	14.0	71.4	70.1	70.1	29.631	0.00	0.000	0.133	78.0	51	58.4	78.1	30
03/20/01	6:00 p	70.0	70.8	69.5	51	51.0	4.0	WSW	2.00	13.0	70.0	68.4	68.4	29.645	0.00	0.000	0.104	77.1	51	57.6	77.0	30
03/20/01	6:30 p	69.2	69.6	68.6	53	51.3	2.0	WSW	1.00	9.0	69.2	68.0	68.0	29.655	0.00	0.000	0.087	76.5	51	57.0	76.5	30
03/20/01	7:00 p	68.3	68.8	67.9	55	51.5	2.0	WSW	1.00	8.0	68.3	67.4	67.4	29.665	0.00	0.000	0.069	75.5	51	56.1	75.6	30
03/20/01	7:30 p	67.5	68.0	67.0	57	51.7	2.0	WSW	1.00	8.0	67.5	66.8	66.8	29.678	0.00	0.000	0.052	74.7	52	55.9	74.9	30
03/20/01	8:00 p	66.6	67.2	66.0	57	50.9	2.0	WSW	1.00	9.0	66.6	65.8	65.8	29.691	0.00	0.000	0.033	74.0	52	55.3	73.9	30
03/20/01	8:30 p	65.5	66.1	64.9	58	50.3	2.0	WSW	1.00	10.0	65.5	64.6	64.6	29.713	0.00	0.000	0.010	73.0	52	54.3	72.7	30
03/20/01	9:00 p	64.4	65.1	63.8	59	49.8	2.0	WSW	1.00	7.0	64.4	63.5	63.5	29.724	0.00	0.012	0.000	72.1	52	53.5	71.4	30
03/20/01	9:30 p	63.4	63.9	62.9	60	49.3	1.0	WSW	0.50	4.0	63.4	62.4	62.4	29.735	0.00	0.033	0.000	71.5	53	53.5	70.6	30
03/20/01	10:00 p	62.4	62.9	62.0	61	48.8	1.0	WSW	0.50	7.0	62.4	61.3	61.3	29.741	0.00	0.054	0.000	71.0	54	53.5	69.9	30
03/20/01	10:30 p	61.7	62.1	61.3	63	49.0	1.0	SW	0.50	5.0	61.7	60.8	60.8	29.750	0.00	0.069	0.000	70.2	54	52.8	68.9	30
03/20/01	11:00 p	60.9	61.4	60.3	65	49.1	1.0	SW	0.50	4.0	60.9	60.1	60.1	29.760	0.00	0.085	0.000	69.5	55	52.6	68.3	30
03/20/01	11:30 p	59.8	60.4	59.3	66	48.4	2.0	SW	1.00	7.0	59.8	58.9	58.9	29.758	0.00	0.108	0.000	68.8	55	52.0	67.8	30
03/21/01	12:00 a	59.0	59.4	58.4	69	48.8	1.0	SW	0.50	5.0	59.0	58.2	58.2	29.763	0.00	0.125	0.000	68.1	56	51.8	67.4	30
03/21/01	12:30 a	58.3	58.6	58.1	71	48.9	1.0	SW	0.50	4.0	58.3	57.6	57.6	29.764	0.00	0.140	0.000	67.5	57	51.7	66.8	30
03/21/01	1:00 a	57.9	58.2	57.5	73	49.3	0.0	SW	0.00	3.0	57.9	57.3	57.3	29.764	0.00	0.148	0.000	66.9	57	51.2	66.1	30
03/21/01	1:30 a	57.2	57.6	56.7	76	49.7	1.0	SW	0.50	5.0	57.2	56.7	56.7	29.760	0.00	0.162	0.000	66.3	59	51.5	65.6	30
03/21/01	2:00 a	56.6	56.9	56.4	76	49.1	0.0	SW	0.00	5.0	56.6	56.1	56.1	29.760	0.00	0.175	0.000	65.8	59	51.1	65.0	30
03/21/01	2:30 a	56.1	56.6	55.8	78	49.3	1.0	SW	0.50	5.0	56.1	55.7	55.7	29.757	0.00	0.185	0.000	65.4	59	50.7	64.6	30
03/21/01	3:00 a	55.6	55.9	55.3	79	49.2	1.0	SW	0.50	5.0	55.6	55.2	55.2	29.753	0.00	0.196	0.000	64.9	59	50.2	64.0	30
03/21/01	3:30 a	54.9	55.4	54.3	80	48.8	1.0	SSW	0.50	7.0	54.9	54.6	54.6	29.753	0.00	0.210	0.000	64.6	59	49.9	63.7	30
03/21/01	4:00 a	54.2	54.4	54.1	81	48.5	1.0	SSW	0.50	5.0	54.2	53.9	53.9	29.760	0.00	0.225	0.000	64.2	60	50.0	63.3	30
03/21/01	4:30 a	54.5	54.9	54.2	81	48.8	3.0	SW	1.50	9.0	54.5	54.2	54.2	29.766	0.00	0.219	0.000	63.9	61	50.2	63.1	30
03/21/01	5:00 a	54.9	55.1	54.8	81	49.2	3.0	SW	1.50	8.0	54.9	54.6	54.6	29.758	0.00	0.210	0.000	63.8	62	50.5	63.0	30
03/21/01	5:30 a	54.8	55.0	54.7	81	49.1	1.0	SW	0.50	5.0	54.8	54.5	54.5	29.772	0.00	0.213	0.000	63.4	62	50.1	62.6	30
03/21/01	6:00 a	54.7	54.9	54.6	82	49.3	1.0	SW	0.50	5.0	54.7	54.5	54.5	29.789	0.00	0.215	0.000	63.1	63	50.3	62.3	30
03/21/01	6:30 a	55.0	55.2	54.8	81	49.3	1.0	WSW	0.50	6.0	55.0	54.7	54.7	29.802	0.00	0.208	0.000	63.1	63	50.3	62.3	30
03/21/01	7:00 a	55.3	55.5	55.1	81	49.6	1.0	WSW	0.50	5.0	55.3	55.0	55.0	29.805	0.00	0.202	0.000	63.0	63	50.2	62.2	30
03/21/01	7:30 a	55.8	56.1	55.4	81	50.1	2.0	SW	1.00	7.0	55.8	55.5	55.5	29.811	0.00	0.192	0.000	63.0	64	50.6	62.3	30
03/21/01	8:00 a	56.4	57.0	55.9	79	50.0	2.0	SW	1.00	8.0	56.4	56.0	56.0	29.813	0.00	0.179	0.000	63.2	64	50.8	62.5	30
03/21/01	8:30 a	58.2	59.6	57.0	70	48.5	3.0	WSW	1.50	12.0	58.2	57.4	57.4	29.808	0.00	0.142	0.000	63.6	65	51.6	63.1	30
03/21/01	9:00 a	60.2	61.1	59.4	63	47.6	6.0	WNW	3.00	17.0	59.8	59.2	58.8	29.805	0.00	0.100	0.000	64.1	64	51.7	63.5	30
03/21/01	9:30 a	62.1	63.2	60.9	59	47.6	6.0	WSW	3.00	17.0	62.1	60.8	60.8	29.809	0.00	0.060	0.000	64.9	64	52.4	64.5	30
03/21/01	10:00 a	63.6	64.2	62.8	55	47.1	7.0	WNW	3.50	22.0	63.6	62.3	62.3	29.804	0.00	0.029	0.000	65.9	63	52.9	65.5	30
03/21/01	10:30 a	64.0	64.7	62.8	53	46.5	6.0	WNW	3.00	22.0	64.0	62.5	62.5	29.806	0.00	0.021	0.000	66.7	61	52.8	66.2	30
03/21/01	11:00 a	64.5	64.9	64.2	52	46.5	8.0	WNW	4.00	19.0	63.8	63.0	62.3	29.807	0.00	0.010	0.000	67.3	59	52.5	66.8	30
03/21/01	11:30 a	64.7	65.4	64.3	53	47.2	6.0	WNW	3.00	19.0	64.7	63.3	63.3	29.794	0.00	0.006	0.000	67.9	59	53.0	67.5	30
03/21/01	12:00 p	64.3	65.3	63.3	53	46.8	5.0	WNW	2.50	23.0	64.3	62.8	62.8	29.789	0.00	0.015	0.000	68.0	57	52.2	67.4	30
03/21/01	12:30 p	64.6	65.3	64.0	51	46.1	6.0	W	3.00	20.0	64.6	63.0	63.0	29.778	0.00	0.008	0.000	68.0	57	52.2	67.4	30
03/21/01	1:00 p	63.8	64.7	63.4	54	46.8	6.0	WNW	3.00	15.0	63.8	62.4	62.4	29.767	0.00	0.025	0.000	68.1	56	51.8	67.4	30
03/21/01	1:30 p	63.5	64.5	63.1	52	45.6	4.0	WNW	2.00	17.0	63.5	61.8	61.8	29.753	0.00	0.031	0.000	67.9	57	52.1	67.3	30
03/21/01	2:00 p	66.2	67.5	64.6	47	45.4	8.0	W	4.00	22.0	65.6	64.3	63.7	29.736	0.00	0.000	0.025	68.4	55	51.6	67.5	30
03/21/01	2:30 p	67.7	68.7	67.0	45	45.6	7.0	WNW	3.50	20.0	67.7	65.9	65.9	29.716	0.00	0.000	0.056	69.4	54	52.0	68.2	30
03/21/01	3:00 p	67.8	69.1	66.6	49	47.9	7.0	WSW	3.50	21.0	67.8	66.4	66.4	29.708	0.00	0.000	0.058	70.0	53	52.1	68.5	30
03/21/01	3:30 p	68.0	68.8	66.7	46	46.4	6.0	WSW	3.00	20.0	68.0	66.3	66.3	29.692	0.00	0.000	0.063	70.1	53	52.2	68.7	30
03/21/01	4:00 p	67.2	68.7	66.3	50	47.9	5.0	WNW	2.50	16.0	67.2	65.8	65.8	29.702	0.00	0.000	0.046	70.2	53	52.3	68.8	30
03/21/01	4:30 p	66.1	66.5	65.6	51	47.4	5.0	WNW	2.50	18.0	66.1	64.6	64.6	29.718	0.00	0.000	0.023	69.7	53	51.8	68.3	30
03/21/01	5:00 p	65.3	65.6	65.0	52	47.2	6.0	WNW	3.00	18.0	65.3	63.8	63.8	29.720	0.00	0.000	0.006	69.2	53	51.3	68.0	30
03/21/01	5:30 p	64.7	65.3	64.3	53	47.2	6.0	NW	3.00	19.0	64.7	63.3	63.3	29.732	0.00	0.006	0.000	68.8	53	51.0	67.7	30
03/21/01	6:00 p	63.9	64.4	63.3	55	47.4	7.0	NW	3.50	18.0	63.9	62.6	62.6	29.750	0.00	0.023	0.000	68.5	53	50.7	67.4	30
03/21/01	6:30 p	62.7	63.4	62.0	57	47.2	6.0	NW	3.00	19.0	62.7	61.4	61.4	29.757	0.00	0.048	0.000	67.9	54	50.6	67.0	30
03/21/01	7:00 p	61.5	62.0	61.0	59	47.0	3.0	NW	1.50	14.0	61.5	60.2	60.2	29.775	0.00	0.073	0.000	67.3	54	50.1	66.3	30
03/21/01	7:30 p	60.6	61.2	60.1	62	47.5	4.0	NW	2.00	11.0	60.6	59.5	59.5	29.789	0.00	0.092	0.000	66.9	55	50.2	66.0	30
03/21/01	8:00 p	59.5	60.2	58.9	64	47.3	2.0	NW	1.00	9.0	59.5	58.5	58.5	29.790	0.00	0.115	0.000	66.6	55	49.9	65.6	30
03/21/01	8:30 p	58.4	59.0	57.9	66	47.1	1.0	WNW	0.50	6.0	58.4	57.4	57.4	29.799	0.00	0.137	0.000	66.2	55	49.6	65.1	30
03/21/01	9:00 p	57.5	58.0	56.9	69	47.4	1.0	WSW	0.50	6.0	57.5	56.7	56.7	29.816	0.00	0.156	0.000	65.7	56	49.6	64.7	30
03/21/01	9:30 p	56.6	56.9	56.3	71	47.3	2.0	NW	1.00	7.0	56.6	55.9	55.9	29.833	0.00	0.175	0.000	65.1	56	49.0	64.0	30
03/21/01	10:00 p	56.1	56.4	55.9	72	47.2	3.0	NW	1.50	13.0	56.1	55.4	55.4	29.845	0.00	0.185	0.000	64.5	58	49.4	63.5	30
03/21/01	10:30 p	55.8	56.1	55.5	73	47.3	3.0	WNW	1.50	12.0	55.8	55.1	55.1	29.859	0.00	0.192	0.000	63.8	58	48.7	62.7	30
03/21/01	11:00 p	55.2	55.6	54.8	73	46.7	2.0	WNW	1.00	9.0	55.2	54.6	54.6	29.858	0.00	0.204	0.000	63.4	58	48.4	62.2	30
03/21/01	11:30 p	54.4	54.9	54.0	75	46.6	2.0	NW	1.00	7.0	54.4	53.9	53.9	29.871	0.00	0.221	0.000	62.9	59	48.3	61.7	30
03/22/01	12:00 a	53.8	54.1	53.6	76	46.4	2.0	NW	1.00	10.0	53.8	53.3	53.3	29.875	0.00	0.233	0.000	62.5	59	48.0	61.3	30
03/22/01	12:30 a	53.9	54.0	53.7	75	46.2	4.0	NW	2.00	12.0	53.4	53.4	52.9	29.873	0.00	0.231	0.000	62.0	60	48.0	60.8	30
03/22/01	1:00 a	54.1	54.3	53.9	71	44.9	5.0	NW	2.50	14.0	53.0	53.4	52.3	29.873	0.00	0.227	0.000	61.9	60	47.9	60.7	30
03/22/01	1:30 a	54.0	54.3	53.6	68	43.7	5.0	NW	2.50	14.0	52.9	53.2	52.1	29.866	0.00	0.229	0.000	61.8	59	47.3	60.5	30
03/22/01	2:00 a	53.2	53.8	52.8	67	42.5	3.0	NW	1.50	12.0	53.2	52.4	52.4	29.872	0.00	0.246	0.000	61.5	58	46.6	60.2	30
03/22/01	2:30 a	52.4	52.8	51.9	68	42.1	2.0	NW	1.00	8.0	52.4	51.7	51.7	29.873	0.00	0.262	0.000	61.0	57	45.7	59.6	30
03/22/01	3:00 a	51.6	52.0	51.2	70	42.1	1.0	NW	0.50	6.0	51.6	51.0	51.0	29.869	0.00	0.279	0.000	60.5	57	45.2	59.0	30
03/22/01	3:30 a	50.9	51.3	50.4	71	41.8	1.0	NW	0.50	6.0	50.9	50.5	50.5	29.875	0.00	0.294	0.000	60.1	57	44.8	58.6	30
03/22/01	4:00 a	50.2	50.6	49.8	73	41.9	0.0	WNW	0.00	5.0	50.2	49.9	49.9	29.871	0.00	0.308	0.000	59.7	57	44.4	58.2	30
03/22/01	4:30 a	49.5	49.9	49.2	74	41.6	1.0	WNW	0.50	5.0	49.5	49.2	49.2	29.880	0.00	0.323	0.000	59.3	57	44.1	57.8	30
03/22/01	5:00 a	48.9	49.3	48.5	75	41.3	0.0	WNW	0.00	3.0	48.9	48.6	48.6	29.892	0.00	0.335	0.000	58.9	57	43.7	57.4	30
03/22/01	5:30 a	48.4	48.7	48.0	76	41.2	0.0	WNW	0.00	3.0	48.4	48.1	48.1	29.900	0.00	0.346	0.000	58.5	57	43.3	57.0	30
03/22/01	6:00 a	47.7	48.2	47.4	76	40.5	0.0	WNW	0.00	4.0	47.7	47.4	47.4	29.914	0.00	0.360	0.000	58.0	57	42.8	56.5	30
03/22/01	6:30 a	47.4	47.6	47.3	76	40.2	0.0	WNW	0.00	3.0	47.4	47.1	47.1	29.925	0.00	0.367	0.000	57.7	57	42.6	56.2	30
03/22/01	7:00 a	47.3	47.5	47.2	77	40.5	0.0	WNW	0.00	2.0	47.3	47.1	47.1	29.938	0.00	0.369	0.000	57.4	57	42.3	55.9	30
03/22/01	7:30 a	47.8	48.3	47.3	77	40.9	1.0	WNW	0.50	5.0	47.8	47.6	47.6	29.944	0.00	0.358	0.000	57.2	58	42.5	55.8	30
03/22/01	8:00 a	49.2	50.5	48.3	74	41.3	3.0	NW	1.50	10.0	48.7	48.9	48.4	29.949	0.00	0.329	0.000	57.4	59	43.2	56.0	30
03/22/01	8:30 a	52.0	53.6	50.4	67	41.4	5.0	NW	2.50	14.0	50.6	51.3	49.9	29.944	0.00	0.271	0.000	57.8	61	44.4	56.6	30
03/22/01	9:00 a	54.8	56.1	53.6	60	41.2	7.0	NW	3.50	17.0	53.0	53.5	51.7	29.937	0.00	0.213	0.000	58.6	61	45.2	57.4	30
03/22/01	9:30 a	57.4	58.7	56.0	54	40.9	7.0	NW	3.50	18.0	56.1	55.7	54.4	29.930	0.00	0.158	0.000	59.9	61	46.4	58.7	30
03/22/01	10:00 a	59.6	60.7	58.6	53	42.4	8.0	NW	4.00	19.0	58.0	57.8	56.2	29.924	0.00	0.113	0.000	61.3	61	47.7	60.2	30
03/22/01	10:30 a	62.0	63.3	60.6	48	42.1	5.0	NW	2.50	17.0	62.0	59.9	59.9	29.910	0.00	0.063	0.000	62.8	61	49.1	61.8	30
03/22/01	11:00 a	64.3	65.8	63.2	44	41.9	6.0	NW	3.00	17.0	64.3	62.0	62.0	29.903	0.00	0.015	0.000	64.5	59	49.8	63.6	30
03/22/01	11:30 a	66.7	67.5	65.7	42	42.9	5.0	NW	2.50	15.0	66.7	64.4	64.4	29.884	0.00	0.000	0.035	66.1	57	50.4	65.2	30
03/22/01	12:00 p	68.4	69.3	67.3	40	43.1	6.0	NW	3.00	15.0	68.4	66.0	66.0	29.870	0.00	0.000	0.071	67.6	56	51.3	66.9	30
03/22/01	12:30 p	70.5	71.7	69.2	36	42.2	6.0	NW	3.00	17.0	70.5	67.6	67.6	29.851	0.00	0.000	0.115	69.1	56	52.7	68.2	30
03/22/01	1:00 p	72.0	72.9	71.3	35	42.8	6.0	NW	3.00	17.0	72.0	69.6	69.6	29.828	0.00	0.000	0.146	70.4	55	53.5	69.2	30
03/22/01	1:30 p	73.7	74.7	72.6	34	43.6	5.0	NW	2.50	14.0	73.7	72.2	72.2	29.810	0.00	0.000	0.181	71.7	54	54.2	71.0	30
03/22/01	2:00 p	74.7	75.0	74.4	33	43.7	5.0	NW	2.50	15.0	74.7	73.3	73.3	29.796	0.00	0.000	0.202	72.7	51	53.5	72.2	30
03/22/01	2:30 p	75.5	76.4	74.8	33	44.4	5.0	NW	2.50	14.0	75.5	74.1	74.1	29.782	0.00	0.000	0.219	73.5	51	54.3	73.2	30
03/22/01	3:00 p	77.0	77.6	76.2	32	44.9	4.0	NW	2.00	12.0	77.0	75.9	75.9	29.769	0.00	0.000	0.250	74.3	50	54.5	74.1	30
03/22/01	3:30 p	77.9	78.3	77.5	29	43.1	4.0	NW	2.00	16.0	77.9	76.3	76.3	29.761	0.00	0.000	0.269	75.2	50	55.3	75.3	30
03/22/01	4:00 p	78.0	78.3	77.5	28	42.2	4.0	NW	2.00	10.0	78.0	76.3	76.3	29.748	0.00	0.000	0.271	76.7	45	53.8	76.2	30
03/22/01	4:30 p	77.4	77.7	77.2	29	42.6	4.0	NW	2.00	15.0	77.4	76.0	76.0	29.750	0.00	0.000	0.258	77.1	43	52.9	76.5	30
03/22/01	5:00 p	77.1	77.7	76.7	29	42.4	3.0	NNW	1.50	9.0	77.1	75.8	75.8	29.750	0.00	0.000	0.252	77.0	42	52.1	76.3	30
03/22/01	5:30 p	75.9	76.7	74.5	30	42.2	3.0	NW	1.50	11.0	75.9	74.4	74.4	29.761	0.00	0.000	0.227	76.2	42	51.4	75.5	30
03/22/01	6:00 p	73.6	74.6	72.7	34	43.5	1.0	NNW	0.50	7.0	73.6	72.0	72.0	29.767	0.00	0.000	0.179	75.4	44	52.0	75.0	30
03/22/01	6:30 p	71.0	72.8	69.2	51	52.0	0.0	ENE	0.00	5.0	71.0	69.7	69.7	29.777	0.00	0.000	0.125	74.4	47	52.9	74.1	30
03/22/01	7:00 p	68.6	69.3	67.7	54	51.3	0.0	ENE	0.00	2.0	68.6	67.6	67.6	29.786	0.00	0.000	0.075	73.4	50	53.6	73.0	30
03/22/01	7:30 p	66.7	67.8	65.6	59	51.9	0.0	---	0.00	0.0	66.7	66.1	66.1	29.798	0.00	0.000	0.035	72.6	51	53.4	72.0	30
03/22/01	8:00 p	64.5	65.7	63.2	63	51.6	0.0	---	0.00	0.0	64.5	63.9	63.9	29.812	0.00	0.010	0.000	71.8	51	52.7	70.9	30
03/22/01	8:30 p	62.3	63.3	61.4	65	50.4	0.0	---	0.00	0.0	62.3	61.6	61.6	29.826	0.00	0.056	0.000	71.2	51	52.1	70.0	30
03/22/01	9:00 p	60.8	61.6	60.1	68	50.2	0.0	---	0.00	0.0	60.8	60.1	60.1	29.846	0.00	0.088	0.000	70.5	50	51.0	68.9	30
03/22/01	9:30 p	59.5	60.2	58.9	70	49.7	0.0	---	0.00	0.0	59.5	58.8	58.8	29.861	0.00	0.115	0.000	69.7	51	50.8	68.2	30
03/22/01	10:00 p	58.5	59.0	58.1	71	49.1	0.0	NW	0.00	3.0	58.5	57.8	57.8	29.874	0.00	0.135	0.000	68.9	51	50.0	67.6	30
03/22/01	10:30 p	57.8	58.2	57.4	67	46.9	0.0	NW	0.00	2.0	57.8	56.9	56.9	29.879	0.00	0.150	0.000	68.3	51	49.5	67.1	30
03/22/01	11:00 p	57.4	57.7	57.0	66	46.1	0.0	NW	0.00	2.0	57.4	56.4	56.4	29.885	0.00	0.158	0.000	67.2	51	48.5	65.9	30
03/22/01	11:30 p	56.6	57.2	56.0	67	45.8	0.0	---	0.00	1.0	56.6	55.7	55.7	29.886	0.00	0.175	0.000	66.0	51	47.3	64.5	30
03/23/01	12:00 a	55.5	56.2	55.0	69	45.5	0.0	---	0.00	0.0	55.5	54.7	54.7	29.891	0.00	0.198	0.000	65.1	51	46.5	63.5	30
03/23/01	12:30 a	54.6	55.1	54.1	70	45.0	0.0	---	0.00	1.0	54.6	53.8	53.8	29.891	0.00	0.217	0.000	64.3	51	45.8	62.6	30
03/23/01	1:00 a	53.8	54.3	53.4	72	45.0	0.0	NW	0.00	2.0	53.8	53.2	53.2	29.894	0.00	0.233	0.000	63.5	52	45.6	61.8	30
03/23/01	1:30 a	53.4	53.6	53.1	72	44.6	0.0	---	0.00	1.0	53.4	52.8	52.8	29.897	0.00	0.242	0.000	62.9	52	45.0	61.2	30
03/23/01	2:00 a	52.8	53.3	52.4	73	44.4	0.0	---	0.00	0.0	52.8	52.2	52.2	29.902	0.00	0.254	0.000	62.3	52	44.4	60.6	30
03/23/01	2:30 a	52.2	52.6	51.9	75	44.5	0.0	---	0.00	1.0	52.2	51.8	51.8	29.902	0.00	0.267	0.000	61.8	53	44.5	60.1	30
03/23/01	3:00 a	51.7	52.1	51.3	76	44.4	0.0	---	0.00	0.0	51.7	51.4	51.4	29.902	0.00	0.277	0.000	61.3	53	44.0	59.6	30
03/23/01	3:30 a	51.2	51.6	50.8	77	44.2	0.0	---	0.00	0.0	51.2	51.0	51.0	29.897	0.00	0.287	0.000	60.8	54	44.0	59.1	30
03/23/01	4:00 a	50.6	50.9	50.2	77	43.7	0.0	---	0.00	0.0	50.6	50.4	50.4	29.899	0.00	0.300	0.000	60.3	54	43.6	58.6	30
03/23/01	4:30 a	49.9	50.3	49.5	77	43.0	0.0	---	0.00	0.0	49.9	49.8	49.8	29.902	0.00	0.315	0.000	59.8	54	43.1	58.1	30
03/23/01	5:00 a	49.4	49.7	49.0	78	42.8	0.0	---	0.00	0.0	49.4	49.3	49.3	29.906	0.00	0.325	0.000	59.3	54	42.6	57.6	30
03/23/01	5:30 a	48.9	49.2	48.6	79	42.7	0.0	---	0.00	0.0	48.9	48.8	48.8	29.915	0.00	0.335	0.000	58.9	54	42.3	57.2	30
03/23/01	6:00 a	48.5	48.8	48.1	79	42.3	0.0	---	0.00	0.0	48.5	48.4	48.4	29.927	0.00	0.344	0.000	58.4	55	42.3	56.8	30
03/23/01	6:30 a	48.1	48.4	47.8	80	42.2	0.0	---	0.00	0.0	48.1	48.0	48.0	29.942	0.00	0.352	0.000	58.0	55	41.9	56.4	30
03/23/01	7:00 a	48.0	48.3	47.7	82	42.8	0.0	NW	0.00	1.0	48.0	47.9	47.9	29.950	0.00	0.354	0.000	57.7	55	41.6	56.1	30
03/23/01	7:30 a	48.7	49.4	48.1	85	44.4	0.0	NW	0.00	1.0	48.7	48.8	48.8	29.960	0.00	0.340	0.000	57.7	56	42.1	56.2	30
03/23/01	8:00 a	50.5	52.1	49.4	87	46.8	1.0	NW	0.50	5.0	50.5	50.6	50.6	29.967	0.00	0.302	0.000	58.2	59	43.9	56.8	30
03/23/01	8:30 a	54.1	56.6	51.9	79	47.7	2.0	NW	1.00	7.0	54.1	53.8	53.8	29.963	0.00	0.227	0.000	59.1	62	46.1	57.9	30
03/23/01	9:00 a	59.1	61.6	56.5	65	47.3	2.0	NW	1.00	5.0	59.1	58.1	58.1	29.955	0.00	0.123	0.000	60.6	65	48.8	59.8	30
03/23/01	9:30 a	63.9	66.4	61.5	53	46.4	2.0	NW	1.00	7.0	63.9	62.4	62.4	29.950	0.00	0.023	0.000	62.5	65	50.6	61.8	30
03/23/01	10:00 a	68.3	70.3	66.4	45	46.1	1.0	NW	0.50	7.0	68.3	66.5	66.5	29.941	0.00	0.000	0.069	64.7	65	52.7	64.3	30
03/23/01	10:30 a	71.1	72.2	70.1	43	47.5	2.0	N	1.00	7.0	71.1	69.1	69.1	29.931	0.00	0.000	0.127	66.9	61	53.0	66.5	30
03/23/01	11:00 a	73.3	74.4	71.9	35	44.0	2.0	N	1.00	8.0	73.3	71.7	71.7	29.921	0.00	0.000	0.173	68.9	59	54.0	68.2	30
03/23/01	11:30 a	74.8	75.6	74.1	32	43.0	2.0	NE	1.00	10.0	74.8	73.3	73.3	29.903	0.00	0.000	0.204	70.7	55	53.7	69.6	30
03/23/01	12:00 p	76.2	77.2	75.4	36	47.3	3.0	ENE	1.50	12.0	76.2	75.1	75.1	29.885	0.00	0.000	0.233	72.4	54	54.8	72.0	30
03/23/01	12:30 p	77.1	77.8	76.4	33	45.8	3.0	ENE	1.50	10.0	77.1	76.0	76.0	29.869	0.00	0.000	0.252	73.8	53	55.6	73.8	30
03/23/01	1:00 p	77.2	77.9	76.8	32	45.0	3.0	ENE	1.50	11.0	77.2	76.0	76.0	29.855	0.00	0.000	0.254	75.0	51	55.6	75.2	30
03/23/01	1:30 p	77.7	78.4	76.5	35	47.9	3.0	ENE	1.50	12.0	77.7	76.5	76.5	29.843	0.00	0.000	0.265	76.0	50	56.0	76.0	30
03/23/01	2:00 p	77.8	78.3	77.3	34	47.2	4.0	ENE	2.00	14.0	77.8	76.5	76.5	29.831	0.00	0.000	0.267	77.0	48	55.8	76.7	30
03/23/01	2:30 p	77.9	78.6	77.1	39	50.9	4.0	ENE	2.00	12.0	77.9	76.9	76.9	29.824	0.00	0.000	0.269	77.6	48	56.4	77.4	30
03/23/01	3:00 p	77.1	78.0	76.3	41	51.6	4.0	ENE	2.00	14.0	77.1	76.4	76.4	29.814	0.00	0.000	0.252	78.2	49	57.5	78.2	30
03/23/01	3:30 p	76.0	76.8	75.1	48	54.9	4.0	NE	2.00	17.0	76.0	75.8	75.8	29.811	0.00	0.000	0.229	78.4	48	57.1	78.3	30
03/23/01	4:00 p	75.6	75.9	75.1	51	56.2	4.0	ENE	2.00	11.0	75.6	75.7	75.7	29.814	0.00	0.000	0.221	78.6	50	58.4	78.7	30
03/23/01	4:30 p	75.3	75.8	74.8	47	53.7	3.0	ENE	1.50	13.0	75.3	75.1	75.1	29.809	0.00	0.000	0.215	78.7	50	58.5	78.8	30
03/23/01	5:00 p	75.1	75.8	74.4	41	49.8	3.0	ENE	1.50	10.0	75.1	74.4	74.4	29.817	0.00	0.000	0.210	78.6	48	57.3	78.5	30
03/23/01	5:30 p	73.8	74.7	73.0	43	49.9	3.0	ENE	1.50	8.0	73.8	73.0	73.0	29.820	0.00	0.000	0.183	77.8	47	56.0	77.5	30
03/23/01	6:00 p	72.1	73.2	71.4	44	49.0	1.0	NE	0.50	8.0	72.1	70.7	70.7	29.835	0.00	0.000	0.148	76.8	46	54.5	76.4	30
03/23/01	6:30 p	70.5	71.5	69.4	42	46.3	1.0	NE	0.50	6.0	70.5	68.1	68.1	29.840	0.00	0.000	0.115	75.8	44	52.3	75.3	30
03/23/01	7:00 p	68.6	69.6	67.7	51	49.7	1.0	N	0.50	5.0	68.6	67.3	67.3	29.846	0.00	0.000	0.075	74.8	46	52.6	74.5	30
03/23/01	7:30 p	67.1	67.9	66.5	59	52.3	1.0	N	0.50	7.0	67.1	66.5	66.5	29.859	0.00	0.000	0.044	74.1	49	53.7	73.8	30
03/23/01	8:00 p	66.1	66.6	65.6	61	52.3	1.0	N	0.50	6.0	66.1	65.5	65.5	29.872	0.00	0.000	0.023	73.5	51	54.3	73.2	30
03/23/01	8:30 p	65.4	65.8	65.0	63	52.5	0.0	N	0.00	4.0	65.4	64.9	64.9	29.876	0.00	0.000	0.008	73.0	52	54.3	72.7	30
03/23/01	9:00 p	64.7	65.2	64.4	62	51.4	0.0	N	0.00	6.0	64.7	64.1	64.1	29.889	0.00	0.006	0.000	72.4	53	54.3	71.9	30
03/23/01	9:30 p	64.3	64.7	63.9	65	52.3	0.0	NNE	0.00	4.0	64.3	63.9	63.9	29.901	0.00	0.015	0.000	71.5	56	55.0	70.8	30
03/23/01	10:00 p	63.7	64.2	63.0	67	52.5	0.0	---	0.00	1.0	63.7	63.3	63.3	29.908	0.00	0.027	0.000	70.5	57	54.5	69.5	30
03/23/01	10:30 p	62.4	63.1	61.7	69	52.1	0.0	---	0.00	0.0	62.4	61.9	61.9	29.910	0.00	0.054	0.000	69.8	55	52.9	68.6	30
03/23/01	11:00 p	61.2	61.9	60.6	71	51.7	0.0	---	0.00	0.0	61.2	60.7	60.7	29.908	0.00	0.079	0.000	69.0	54	51.7	67.9	30
03/23/01	11:30 p	60.2	60.8	59.6	72	51.1	0.0	---	0.00	0.0	60.2	59.7	59.7	29.914	0.00	0.100	0.000	68.1	55	51.3	67.3	30
03/24/01	12:00 a	59.3	59.8	58.7	73	50.6	0.0	---	0.00	0.0	59.3	58.7	58.7	29.918	0.00	0.119	0.000	67.4	54	50.2	66.4	30
03/24/01	12:30 a	58.5	59.0	58.0	74	50.2	0.0	---	0.00	0.0	58.5	57.9	57.9	29.923	0.00	0.135	0.000	66.7	55	50.0	65.7	30
03/24/01	1:00 a	57.7	58.2	57.2	76	50.2	0.0	---	0.00	0.0	57.7	57.3	57.3	29.919	0.00	0.152	0.000	66.2	55	49.6	65.1	30
03/24/01	1:30 a	57.0	57.4	56.7	76	49.5	0.0	---	0.00	0.0	57.0	56.5	56.5	29.922	0.00	0.167	0.000	65.6	55	49.0	64.5	30
03/24/01	2:00 a	56.4	56.8	56.1	78	49.6	0.0	NNE	0.00	1.0	56.4	56.0	56.0	29.926	0.00	0.179	0.000	65.1	56	49.0	64.0	30
03/24/01	2:30 a	56.0	56.2	55.7	79	49.6	0.0	NNE	0.00	2.0	56.0	55.6	55.6	29.922	0.00	0.188	0.000	64.6	56	48.5	63.4	30
03/24/01	3:00 a	55.6	56.0	55.3	80	49.5	0.0	NW	0.00	1.0	55.6	55.3	55.3	29.920	0.00	0.196	0.000	64.2	56	48.2	63.0	30
03/24/01	3:30 a	55.3	55.6	55.0	81	49.6	0.0	NW	0.00	1.0	55.3	55.0	55.0	29.928	0.00	0.202	0.000	63.8	56	47.8	62.6	30
03/24/01	4:00 a	55.0	55.2	54.7	82	49.6	0.0	NW	0.00	1.0	55.0	54.8	54.8	29.930	0.00	0.208	0.000	63.4	56	47.4	62.1	30
03/24/01	4:30 a	54.7	55.0	54.4	83	49.6	0.0	NW	0.00	1.0	54.7	54.5	54.5	29.937	0.00	0.215	0.000	63.1	56	47.1	61.8	30
03/24/01	5:00 a	54.4	54.7	54.1	83	49.3	0.0	NW	0.00	1.0	54.4	54.2	54.2	29.943	0.00	0.221	0.000	62.8	57	47.3	61.5	30
03/24/01	5:30 a	54.1	54.4	53.8	83	49.1	0.0	NW	0.00	2.0	54.1	53.9	53.9	29.952	0.00	0.227	0.000	62.4	58	47.4	61.1	30
03/24/01	6:00 a	53.8	54.1	53.5	85	49.4	0.0	NW	0.00	3.0	53.8	53.7	53.7	29.962	0.00	0.233	0.000	62.0	59	47.5	60.7	30
03/24/01	6:30 a	53.7	53.9	53.5	85	49.3	1.0	NW	0.50	3.0	53.7	53.6	53.6	29.971	0.00	0.235	0.000	61.8	59	47.3	60.5	30
03/24/01	7:00 a	53.8	54.2	53.5	87	50.0	1.0	NW	0.50	3.0	53.8	53.8	53.8	29.980	0.00	0.233	0.000	61.7	59	47.2	60.4	30
03/24/01	7:30 a	54.5	55.0	53.9	89	51.3	1.0	NW	0.50	4.0	54.5	54.6	54.6	29.989	0.00	0.219	0.000	61.8	60	47.8	60.6	30
03/24/01	8:00 a	56.1	57.5	55.0	89	52.9	1.0	NW	0.50	5.0	56.1	56.2	56.2	29.994	0.00	0.185	0.000	62.5	62	49.3	61.6	30
03/24/01	8:30 a	59.5	61.9	57.3	84	54.7	2.0	NW	1.00	6.0	59.5	59.5	59.5	29.995	0.00	0.115	0.000	63.5	66	51.9	63.0	30
03/24/01	9:00 a	64.0	66.2	61.7	76	56.3	2.0	NW	1.00	6.0	64.0	64.2	64.2	29.988	0.00	0.021	0.000	65.0	70	55.0	65.0	30
03/24/01	9:30 a	68.2	70.3	66.1	68	57.2	1.0	NW	0.50	6.0	68.2	68.6	68.6	29.976	0.00	0.000	0.067	67.0	73	58.1	67.6	30
03/24/01	10:00 a	72.0	73.7	70.2	58	56.4	1.0	N	0.50	5.0	72.0	71.7	71.7	29.962	0.00	0.000	0.146	69.3	72	59.9	69.8	30
03/24/01	10:30 a	74.6	75.8	73.5	56	57.9	1.0	NE	0.50	6.0	74.6	75.1	75.1	29.959	0.00	0.000	0.200	71.4	68	60.3	71.7	30
03/24/01	11:00 a	76.5	77.8	75.7	50	56.5	2.0	NNE	1.00	6.0	76.5	76.4	76.4	29.947	0.00	0.000	0.240	73.0	66	61.0	73.8	30
03/24/01	11:30 a	78.4	79.4	77.4	52	59.3	2.0	E	1.00	11.0	78.4	78.7	78.7	29.931	0.00	0.000	0.279	74.7	65	62.1	76.0	30
03/24/01	12:00 p	78.8	79.9	78.0	53	60.2	3.0	ENE	1.50	12.0	78.8	79.2	79.2	29.917	0.00	0.000	0.288	76.6	64	63.5	77.8	30
03/24/01	12:30 p	79.4	80.2	78.7	51	59.7	3.0	NE	1.50	9.0	79.4	79.7	79.7	29.897	0.00	0.000	0.300	78.3	61	63.7	79.4	30
03/24/01	1:00 p	79.2	79.9	78.4	54	61.1	4.0	NE	2.00	13.0	79.2	79.7	79.7	29.876	0.00	0.000	0.296	79.4	61	64.8	80.7	30
03/24/01	1:30 p	78.8	79.8	78.0	54	60.7	4.0	NE	2.00	11.0	78.8	79.3	79.3	29.866	0.00	0.000	0.288	80.3	60	65.1	81.7	30
03/24/01	2:00 p	80.2	80.9	79.6	49	59.3	3.0	ENE	1.50	12.0	80.2	80.2	80.2	29.851	0.00	0.000	0.317	81.0	59	65.3	82.5	30
03/24/01	2:30 p	81.9	82.6	80.7	45	58.5	5.0	ESE	2.50	16.0	81.9	81.8	81.8	29.843	0.00	0.000	0.352	81.4	57	64.7	82.8	30
03/24/01	3:00 p	81.0	81.6	80.1	44	57.0	5.0	ESE	2.50	16.0	81.0	80.5	80.5	29.830	0.00	0.000	0.333	81.7	55	64.0	82.9	30
03/24/01	3:30 p	81.9	82.5	81.2	45	58.5	6.0	ESE	3.00	16.0	81.9	81.8	81.8	29.821	0.00	0.000	0.352	81.8	54	63.5	82.9	30
03/24/01	4:00 p	80.6	81.5	79.5	47	58.5	5.0	ESE	2.50	17.0	80.6	80.4	80.4	29.815	0.00	0.000	0.325	82.0	53	63.2	83.1	30
03/24/01	4:30 p	79.3	80.1	78.5	48	57.9	5.0	E	2.50	17.0	79.3	79.3	79.3	29.813	0.00	0.000	0.298	81.8	53	63.0	82.8	30
03/24/01	5:00 p	78.1	79.4	77.3	53	59.6	5.0	ESE	2.50	15.0	78.1	78.4	78.4	29.814	0.00	0.000	0.273	81.5	53	62.7	82.4	30
03/24/01	5:30 p	77.2	77.7	76.4	54	59.3	5.0	ESE	2.50	17.0	77.2	77.4	77.4	29.815	0.00	0.000	0.254	80.8	53	62.1	81.4	30
03/24/01	6:00 p	76.1	76.6	75.1	57	59.8	5.0	ESE	2.50	13.0	76.1	76.6	76.6	29.826	0.00	0.000	0.231	79.4	55	61.8	80.0	30
03/24/01	6:30 p	74.4	75.4	73.5	59	59.1	2.0	ESE	1.00	12.0	74.4	75.1	75.1	29.837	0.00	0.000	0.196	78.3	57	61.8	79.0	30
03/24/01	7:00 p	73.1	73.8	72.4	64	60.2	2.0	ESE	1.00	8.0	73.1	73.8	73.8	29.844	0.00	0.000	0.169	76.9	60	62.0	77.7	30
03/24/01	7:30 p	72.0	72.5	71.4	64	59.2	0.0	ESE	0.00	5.0	72.0	72.2	72.2	29.850	0.00	0.000	0.146	76.1	61	61.7	76.9	30
03/24/01	8:00 p	71.1	71.6	70.5	66	59.2	0.0	ESE	0.00	2.0	71.1	71.1	71.1	29.856	0.00	0.000	0.127	75.4	62	61.5	76.4	30
03/24/01	8:30 p	70.1	70.8	69.3	71	60.3	0.0	SE	0.00	3.0	70.1	70.3	70.3	29.865	0.00	0.000	0.106	74.8	61	60.4	75.7	30
03/24/01	9:00 p	69.1	69.6	68.4	72	59.7	0.0	SE	0.00	3.0	69.1	69.7	69.7	29.878	0.00	0.000	0.085	74.3	62	60.4	75.2	30
03/24/01	9:30 p	67.8	68.7	67.1	72	58.4	0.0	---	0.00	0.0	67.8	68.5	68.5	29.890	0.00	0.000	0.058	73.9	61	59.6	74.7	30
03/24/01	10:00 p	66.6	67.3	65.8	75	58.4	0.0	---	0.00	0.0	66.6	67.2	67.2	29.899	0.00	0.000	0.033	73.3	60	58.6	73.8	30
03/24/01	10:30 p	65.6	66.1	64.9	75	57.5	0.0	---	0.00	0.0	65.6	66.0	66.0	29.904	0.00	0.000	0.012	72.6	59	57.4	72.7	30
03/24/01	11:00 p	64.9	65.3	64.5	78	57.9	0.0	SE	0.00	1.0	64.9	65.4	65.4	29.913	0.00	0.002	0.000	71.9	59	56.8	71.7	30
03/24/01	11:30 p	64.6	64.9	64.4	79	57.9	1.0	S	0.50	4.0	64.6	65.1	65.1	29.906	0.00	0.008	0.000	71.3	61	57.2	71.0	30
03/25/01	12:00 a	64.7	65.0	64.4	76	57.0	2.0	S	1.00	7.0	64.7	65.0	65.0	29.902	0.00	0.006	0.000	70.9	62	57.2	70.5	30
03/25/01	12:30 a	64.7	65.0	64.5	75	56.6	2.0	SSW	1.00	8.0	64.7	64.9	64.9	29.899	0.00	0.006	0.000	70.5	62	56.9	70.0	30
03/25/01	1:00 a	64.6	64.9	64.4	74	56.1	3.0	S	1.50	8.0	64.6	64.8	64.8	29.889	0.00	0.008	0.000	70.2	62	56.6	69.7	30
03/25/01	1:30 a	64.5	64.7	64.3	74	56.0	3.0	S	1.50	9.0	64.5	64.6	64.6	29.888	0.00	0.010	0.000	69.8	63	56.6	69.3	30
03/25/01	2:00 a	64.2	64.7	63.7	76	56.5	2.0	SSW	1.00	8.0	64.2	64.4	64.4	29.884	0.00	0.017	0.000	69.5	63	56.3	69.1	30
03/25/01	2:30 a	63.3	64.0	62.9	78	56.3	2.0	SSW	1.00	9.0	63.3	63.5	63.5	29.882	0.00	0.035	0.000	69.2	64	56.5	69.0	30
03/25/01	3:00 a	62.7	63.2	62.2	79	56.1	1.0	SSW	0.50	5.0	62.7	62.9	62.9	29.876	0.00	0.048	0.000	68.8	64	56.1	68.7	30
03/25/01	3:30 a	62.1	62.6	61.6	81	56.2	1.0	SW	0.50	5.0	62.1	62.3	62.3	29.876	0.00	0.060	0.000	68.4	64	55.7	68.4	30
03/25/01	4:00 a	61.4	62.0	60.8	81	55.5	0.0	WSW	0.00	3.0	61.4	61.5	61.5	29.883	0.00	0.075	0.000	67.9	64	55.3	68.0	30
03/25/01	4:30 a	60.7	61.2	60.1	80	54.5	0.0	WSW	0.00	1.0	60.7	60.7	60.7	29.886	0.00	0.090	0.000	67.5	63	54.5	67.4	30
03/25/01	5:00 a	60.0	60.4	59.4	80	53.8	0.0	---	0.00	1.0	60.0	59.9	59.9	29.893	0.00	0.104	0.000	67.0	63	54.0	66.8	30
03/25/01	5:30 a	59.2	59.7	58.8	81	53.4	0.0	---	0.00	1.0	59.2	59.1	59.1	29.905	0.00	0.121	0.000	66.5	63	53.5	66.2	30
03/25/01	6:00 a	58.6	58.9	58.2	81	52.8	0.0	SSW	0.00	3.0	58.6	58.4	58.4	29.922	0.00	0.133	0.000	66.1	63	53.1	65.7	30
03/25/01	6:30 a	58.0	58.6	57.6	83	52.9	0.0	SSW	0.00	4.0	58.0	57.9	57.9	29.926	0.00	0.146	0.000	65.6	63	52.7	65.2	30
03/25/01	7:00 a	57.7	57.9	57.5	82	52.2	0.0	SW	0.00	3.0	57.7	57.5	57.5	29.927	0.00	0.152	0.000	65.2	63	52.3	64.7	30
03/25/01	7:30 a	58.0	58.5	57.6	80	51.9	1.0	SW	0.50	5.0	58.0	57.8	57.8	29.942	0.00	0.146	0.000	65.1	64	52.6	64.7	30
03/25/01	8:00 a	59.3	60.5	58.3	78	52.4	1.0	WSW	0.50	7.0	59.3	59.0	59.0	29.947	0.00	0.119	0.000	65.3	65	53.2	65.0	30
03/25/01	8:30 a	62.2	64.4	60.1	70	52.3	2.0	WSW	1.00	6.0	62.2	61.7	61.7	29.944	0.00	0.058	0.000	65.9	66	54.2	65.8	30
03/25/01	9:00 a	66.5	68.7	64.4	61	52.6	2.0	WSW	1.00	7.0	66.5	66.0	66.0	29.934	0.00	0.000	0.031	67.0	68	56.1	67.2	30
03/25/01	9:30 a	70.5	72.4	68.5	50	51.0	3.0	NW	1.50	10.0	70.5	68.9	68.9	29.927	0.00	0.000	0.115	68.7	67	57.3	68.9	30
03/25/01	10:00 a	73.8	75.3	72.1	45	51.1	4.0	NW	2.00	13.0	73.8	73.1	73.1	29.932	0.00	0.000	0.183	70.4	64	57.6	70.1	30
03/25/01	10:30 a	76.6	77.9	75.1	41	51.1	3.0	NW	1.50	11.0	76.6	75.8	75.8	29.922	0.00	0.000	0.242	72.3	62	58.5	72.5	30
03/25/01	11:00 a	79.5	81.2	77.8	37	50.9	3.0	SW	1.50	10.0	79.5	78.3	78.3	29.905	0.00	0.000	0.302	74.1	62	60.2	75.0	30
03/25/01	11:30 a	81.9	82.7	80.9	36	52.3	4.0	SW	2.00	10.0	81.9	80.7	80.7	29.888	0.00	0.000	0.352	75.9	58	60.1	76.5	30
03/25/01	12:00 p	83.8	84.7	82.7	36	54.0	3.0	SW	1.50	10.0	83.8	83.2	83.2	29.872	0.00	0.000	0.392	77.4	56	60.5	77.9	30
03/25/01	12:30 p	85.2	85.9	84.7	33	52.8	4.0	SW	2.00	12.0	85.2	84.0	84.0	29.862	0.00	0.000	0.421	79.0	55	61.5	79.6	30
03/25/01	1:00 p	85.1	86.1	84.4	43	60.1	2.0	E	1.00	11.0	85.1	85.8	85.8	29.842	0.00	0.000	0.419	80.4	55	62.8	81.2	30
03/25/01	1:30 p	82.9	84.9	81.2	48	61.2	3.0	NE	1.50	11.0	82.9	83.8	83.8	29.821	0.00	0.000	0.373	81.9	56	64.7	83.4	30
03/25/01	2:00 p	81.8	82.6	81.3	52	62.5	4.0	ENE	2.00	14.0	81.8	82.6	82.6	29.807	0.00	0.000	0.350	82.6	56	65.3	84.5	30
03/25/01	2:30 p	83.0	84.1	81.5	48	61.3	4.0	NE	2.00	12.0	83.0	83.9	83.9	29.796	0.00	0.000	0.375	82.9	56	65.6	84.9	30
03/25/01	3:00 p	82.6	83.8	81.7	49	61.5	3.0	ENE	1.50	11.0	82.6	83.4	83.4	29.784	0.00	0.000	0.367	83.2	55	65.4	85.2	30
03/25/01	3:30 p	83.2	84.3	81.9	48	61.5	3.0	E	1.50	15.0	83.2	84.2	84.2	29.774	0.00	0.000	0.379	83.4	55	65.5	85.6	30
03/25/01	4:00 p	82.2	83.5	80.7	52	62.8	3.0	ENE	1.50	13.0	82.2	83.2	83.2	29.769	0.00	0.000	0.358	83.5	56	66.2	85.9	30
03/25/01	4:30 p	82.6	83.6	81.5	33	50.6	2.0	E	1.00	11.0	82.6	81.1	81.1	29.767	0.00	0.000	0.367	83.4	52	63.9	85.1	30
03/25/01	5:00 p	83.6	84.2	83.1	33	51.5	3.0	WNW	1.50	10.0	83.6	82.3	82.3	29.766	0.00	0.000	0.387	83.4	45	59.8	84.1	30
03/25/01	5:30 p	81.4	83.4	78.8	60	66.2	2.0	N	1.00	11.0	81.4	83.3	83.3	29.774	0.00	0.000	0.342	82.7	51	62.7	83.9	30
03/25/01	6:00 p	77.0	78.9	75.7	67	65.2	1.0	NE	0.50	7.0	77.0	78.5	78.5	29.776	0.00	0.000	0.250	81.6	57	64.9	83.1	30
03/25/01	6:30 p	75.2	75.7	74.7	68	63.9	0.0	NE	0.00	5.0	75.2	76.7	76.7	29.791	0.00	0.000	0.212	80.5	59	64.9	81.9	30
03/25/01	7:00 p	74.2	74.8	73.7	70	63.8	0.0	NE	0.00	2.0	74.2	75.8	75.8	29.797	0.00	0.000	0.192	79.4	60	64.3	80.6	30
03/25/01	7:30 p	72.9	73.8	71.8	73	63.7	0.0	NNW	0.00	4.0	72.9	74.2	74.2	29.806	0.00	0.000	0.165	78.3	61	63.7	79.4	30
03/25/01	8:00 p	71.3	72.0	70.9	73	62.2	1.0	N	0.50	5.0	71.3	72.0	72.0	29.825	0.00	0.000	0.131	77.6	61	63.1	78.6	30
03/25/01	8:30 p	70.5	71.1	70.1	74	61.8	1.0	N	0.50	5.0	70.5	71.1	71.1	29.838	0.00	0.000	0.115	76.9	61	62.4	77.8	30
03/25/01	9:00 p	69.9	70.3	69.6	73	60.8	1.0	N	0.50	6.0	69.9	70.3	70.3	29.852	0.00	0.000	0.102	76.1	61	61.7	76.9	30
03/25/01	9:30 p	69.4	69.8	69.0	73	60.4	0.0	N	0.00	6.0	69.4	70.0	70.0	29.860	0.00	0.000	0.092	75.5	61	61.1	76.4	30
03/25/01	10:00 p	68.7	69.2	68.1	73	59.7	0.0	N	0.00	3.0	68.7	69.5	69.5	29.862	0.00	0.000	0.077	74.8	61	60.4	75.7	30
03/25/01	10:30 p	68.1	68.4	67.8	76	60.2	0.0	N	0.00	3.0	68.1	69.1	69.1	29.863	0.00	0.000	0.065	74.2	61	59.9	75.0	30
03/25/01	11:00 p	67.7	68.0	67.3	79	61.0	0.0	N	0.00	3.0	67.7	68.9	68.9	29.858	0.00	0.000	0.056	73.6	62	59.8	74.3	30
03/25/01	11:30 p	67.2	67.7	66.8	80	60.8	0.0	N	0.00	2.0	67.2	68.3	68.3	29.854	0.00	0.000	0.046	73.2	63	59.8	73.9	30
03/26/01	12:00 a	66.7	67.1	66.3	79	60.0	0.0	N	0.00	2.0	66.7	67.7	67.7	29.847	0.00	0.000	0.035	72.8	61	58.6	73.2	30
03/26/01	12:30 a	66.0	66.6	65.3	79	59.3	0.0	---	0.00	0.0	66.0	66.8	66.8	29.847	0.00	0.000	0.021	72.2	62	58.5	72.4	30
03/26/01	1:00 a	64.9	65.5	64.2	79	58.2	0.0	---	0.00	0.0	64.9	65.5	65.5	29.845	0.00	0.002	0.000	71.6	62	57.9	71.5	30
03/26/01	1:30 a	63.8	64.6	63.1	80	57.5	0.0	N	0.00	1.0	63.8	64.3	64.3	29.845	0.00	0.025	0.000	70.9	62	57.2	70.5	30
03/26/01	2:00 a	62.9	63.5	62.4	80	56.6	0.0	---	0.00	0.0	62.9	63.2	63.2	29.841	0.00	0.044	0.000	70.4	61	56.3	69.8	30
03/26/01	2:30 a	62.1	62.7	61.5	79	55.5	0.0	---	0.00	0.0	62.1	62.2	62.2	29.840	0.00	0.060	0.000	69.8	61	55.7	69.1	30
03/26/01	3:00 a	61.3	61.8	60.8	81	55.4	0.0	---	0.00	0.0	61.3	61.4	61.4	29.837	0.00	0.077	0.000	69.3	61	55.3	68.7	30
03/26/01	3:30 a	60.6	61.1	60.1	80	54.4	0.0	---	0.00	0.0	60.6	60.6	60.6	29.830	0.00	0.092	0.000	68.8	61	54.8	68.4	30
03/26/01	4:00 a	59.9	60.5	59.5	81	54.1	0.0	N	0.00	2.0	59.9	59.8	59.8	29.833	0.00	0.106	0.000	68.2	62	54.7	68.0	30
03/26/01	4:30 a	59.4	59.8	59.0	82	53.9	0.0	---	0.00	0.0	59.4	59.3	59.3	29.837	0.00	0.117	0.000	67.7	62	54.2	67.5	30
03/26/01	5:00 a	58.8	59.2	58.5	81	53.0	0.0	---	0.00	0.0	58.8	58.6	58.6	29.848	0.00	0.129	0.000	67.4	61	53.5	67.1	30
03/26/01	5:30 a	58.3	58.8	58.0	82	52.8	0.0	---	0.00	1.0	58.3	58.2	58.2	29.864	0.00	0.140	0.000	66.9	62	53.5	66.6	30
03/26/01	6:00 a	57.8	58.2	57.3	84	53.0	0.0	N	0.00	1.0	57.8	57.7	57.7	29.879	0.00	0.150	0.000	66.5	62	53.1	66.1	30
03/26/01	6:30 a	57.2	57.6	56.9	85	52.7	0.0	N	0.00	2.0	57.2	57.1	57.1	29.892	0.00	0.162	0.000	66.2	62	52.8	65.7	30
03/26/01	7:00 a	57.0	57.2	56.6	86	52.9	0.0	N	0.00	2.0	57.0	56.9	56.9	29.906	0.00	0.167	0.000	65.9	63	52.9	65.5	30
03/26/01	7:30 a	57.3	57.9	56.7	88	53.8	1.0	NW	0.50	3.0	57.3	57.3	57.3	29.917	0.00	0.160	0.000	65.7	64	53.2	65.4	30
03/26/01	8:00 a	58.9	60.2	57.8	86	54.7	1.0	NNW	0.50	5.0	58.9	58.9	58.9	29.925	0.00	0.127	0.000	66.1	64	53.6	65.8	30
03/26/01	8:30 a	61.9	64.1	60.0	80	55.7	2.0	NNW	1.00	9.0	61.9	62.1	62.1	29.934	0.00	0.065	0.000	66.8	66	55.1	66.8	30
03/26/01	9:00 a	65.8	67.5	63.8	73	56.9	3.0	NW	1.50	9.0	65.8	66.1	66.1	29.931	0.00	0.000	0.017	68.0	69	57.4	68.5	30
03/26/01	9:30 a	69.0	70.3	67.4	68	58.0	4.0	NW	2.00	11.0	69.0	69.2	69.2	29.925	0.00	0.000	0.083	69.4	71	59.6	69.8	30
03/26/01	10:00 a	71.7	73.3	70.2	63	58.4	4.0	NW	2.00	11.0	71.7	71.7	71.7	29.915	0.00	0.000	0.140	71.1	71	61.2	71.6	30
03/26/01	10:30 a	74.3	75.7	73.0	58	58.6	4.0	NNW	2.00	11.0	74.3	74.9	74.9	29.903	0.00	0.000	0.194	72.5	69	61.7	73.3	30
03/26/01	11:00 a	76.5	77.2	75.4	59	61.1	3.0	NW	1.50	9.0	76.5	77.2	77.2	29.892	0.00	0.000	0.240	74.1	69	63.3	75.6	30
03/26/01	11:30 a	76.9	77.7	76.1	56	60.0	3.0	N	1.50	9.0	76.9	77.3	77.3	29.892	0.00	0.000	0.248	75.9	67	64.2	77.3	30
03/26/01	12:00 p	77.8	78.6	76.7	59	62.3	4.0	N	2.00	10.0	77.8	78.6	78.6	29.877	0.00	0.000	0.267	77.3	66	65.1	78.8	30
03/26/01	12:30 p	76.9	77.4	76.5	58	61.0	4.0	N	2.00	12.0	76.9	77.5	77.5	29.871	0.00	0.000	0.248	78.5	64	65.3	79.9	30
03/26/01	1:00 p	76.5	77.6	75.8	58	60.6	4.0	N	2.00	12.0	76.5	77.1	77.1	29.861	0.00	0.000	0.240	79.1	62	65.0	80.5	30
03/26/01	1:30 p	74.7	76.5	72.5	65	62.1	4.0	NNE	2.00	12.0	74.7	76.0	76.0	29.853	0.00	0.000	0.202	79.2	61	64.6	80.5	30
03/26/01	2:00 p	71.5	72.8	70.6	65	59.1	3.0	NE	1.50	11.0	71.5	71.6	71.6	29.851	0.00	0.000	0.135	78.1	60	63.1	79.0	30
03/26/01	2:30 p	71.8	73.1	70.6	64	59.0	4.0	NE	2.00	11.0	71.8	71.9	71.9	29.843	0.00	0.000	0.142	77.3	61	62.8	78.2	30
03/26/01	3:00 p	72.8	74.0	71.6	63	59.5	4.0	NE	2.00	11.0	72.8	73.3	73.3	29.833	0.00	0.000	0.163	77.6	61	63.1	78.6	30
03/26/01	3:30 p	72.1	73.5	71.1	62	58.4	3.0	NE	1.50	11.0	72.1	72.2	72.2	29.834	0.00	0.000	0.148	77.8	60	62.8	78.7	30
03/26/01	4:00 p	71.9	73.7	70.5	67	60.3	4.0	NE	2.00	12.0	71.9	72.3	72.3	29.833	0.00	0.000	0.144	77.7	60	62.7	78.6	30
03/26/01	4:30 p	70.2	70.8	69.4	67	58.7	3.0	NE	1.50	10.0	70.2	70.1	70.1	29.842	0.00	0.000	0.108	76.9	60	62.0	77.7	30
03/26/01	5:00 p	69.0	69.6	68.4	66	57.2	2.0	N	1.00	11.0	69.0	69.0	69.0	29.853	0.00	0.000	0.083	75.8	59	60.4	76.5	30
03/26/01	5:30 p	68.5	68.8	68.2	65	56.3	2.0	NE	1.00	10.0	68.5	68.6	68.6	29.860	0.00	0.000	0.073	74.9	59	59.6	75.7	30
03/26/01	6:00 p	68.0	68.5	67.6	66	56.2	2.0	NNE	1.00	8.0	68.0	68.3	68.3	29.868	0.00	0.000	0.063	74.1	59	58.9	74.7	30
03/26/01	6:30 p	67.6	68.1	67.0	65	55.4	2.0	NNE	1.00	8.0	67.6	67.7	67.7	29.872	0.00	0.000	0.054	73.6	59	58.4	74.1	30
03/26/01	7:00 p	67.1	67.5	66.8	66	55.4	1.0	NNE	0.50	7.0	67.1	67.2	67.2	29.883	0.00	0.000	0.044	73.2	59	58.0	73.6	30
03/26/01	7:30 p	67.1	67.4	66.7	66	55.4	1.0	NNE	0.50	6.0	67.1	67.2	67.2	29.898	0.00	0.000	0.044	72.9	60	58.2	73.3	30
03/26/01	8:00 p	66.9	67.3	66.6	65	54.7	1.0	NE	0.50	8.0	66.9	66.9	66.9	29.905	0.00	0.000	0.040	72.6	60	57.9	72.8	30
03/26/01	8:30 p	66.8	67.1	66.4	64	54.2	1.0	NE	0.50	6.0	66.8	66.7	66.7	29.906	0.00	0.000	0.038	72.2	59	57.1	72.1	30
03/26/01	9:00 p	66.5	66.9	66.1	65	54.4	1.0	N	0.50	6.0	66.5	66.4	66.4	29.920	0.00	0.000	0.031	71.9	60	57.3	71.8	30
03/26/01	9:30 p	66.5	66.8	66.2	64	53.9	1.0	NNE	0.50	6.0	66.5	66.3	66.3	29.926	0.00	0.000	0.031	71.6	59	56.5	71.3	30
03/26/01	10:00 p	66.4	66.8	66.2	64	53.8	1.0	N	0.50	11.0	66.4	66.2	66.2	29.936	0.00	0.000	0.029	71.4	60	56.8	71.1	30
03/26/01	10:30 p	66.3	66.7	66.0	65	54.2	1.0	N	0.50	7.0	66.3	66.2	66.2	29.936	0.00	0.000	0.027	71.2	60	56.6	70.8	30
03/26/01	11:00 p	65.9	66.3	65.4	66	54.2	1.0	N	0.50	6.0	65.9	65.8	65.8	29.935	0.00	0.000	0.019	70.9	60	56.3	70.4	30
03/26/01	11:30 p	65.3	65.8	64.9	65	53.2	1.0	NNE	0.50	5.0	65.3	65.0	65.0	29.935	0.00	0.000	0.006	70.4	60	55.8	69.7	30
03/27/01	12:00 a	64.8	65.2	64.5	63	51.9	1.0	N	0.50	4.0	64.8	64.3	64.3	29.941	0.00	0.004	0.000	70.0	59	55.0	69.1	30
03/27/01	12:30 a	64.9	65.4	64.5	60	50.7	1.0	N	0.50	6.0	64.9	64.1	64.1	29.941	0.00	0.002	0.000	69.6	59	54.6	68.8	30
03/27/01	1:00 a	64.9	65.4	64.4	61	51.1	1.0	N	0.50	5.0	64.9	64.2	64.2	29.936	0.00	0.002	0.000	69.4	58	54.0	68.5	30
03/27/01	1:30 a	64.2	64.7	63.7	60	50.0	1.0	N	0.50	5.0	64.2	63.3	63.3	29.936	0.00	0.017	0.000	69.0	58	53.6	68.2	30
03/27/01	2:00 a	63.8	64.3	63.4	60	49.6	1.0	N	0.50	7.0	63.8	62.9	62.9	29.935	0.00	0.025	0.000	68.6	57	52.8	67.9	30
03/27/01	2:30 a	63.6	63.9	63.3	58	48.5	2.0	N	1.00	6.0	63.6	62.5	62.5	29.926	0.00	0.029	0.000	68.2	57	52.4	67.6	30
03/27/01	3:00 a	62.9	64.0	61.7	65	51.0	1.0	NW	0.50	5.0	62.9	62.3	62.3	29.922	0.00	0.044	0.000	67.9	57	52.1	67.3	30
03/27/01	3:30 a	61.2	62.1	60.4	68	50.6	0.0	NW	0.00	2.0	61.2	60.5	60.5	29.922	0.00	0.079	0.000	67.5	58	52.2	66.9	30
03/27/01	4:00 a	60.3	60.8	59.9	69	50.1	1.0	NW	0.50	4.0	60.3	59.6	59.6	29.929	0.00	0.098	0.000	67.1	58	51.8	66.5	30
03/27/01	4:30 a	60.2	60.4	59.9	71	50.8	1.0	NNW	0.50	4.0	60.2	59.6	59.6	29.936	0.00	0.100	0.000	67.0	58	51.7	66.3	30
03/27/01	5:00 a	60.3	60.6	60.0	70	50.5	1.0	NNW	0.50	4.0	60.3	59.7	59.7	29.941	0.00	0.098	0.000	66.9	59	52.1	66.3	30
03/27/01	5:30 a	59.8	60.4	59.2	70	50.0	1.0	NW	0.50	5.0	59.8	59.2	59.2	29.942	0.00	0.108	0.000	66.7	59	51.9	66.1	30
03/27/01	6:00 a	58.8	59.5	58.2	71	49.4	1.0	NW	0.50	4.0	58.8	58.1	58.1	29.945	0.00	0.129	0.000	66.2	58	51.0	65.4	30
03/27/01	6:30 a	57.8	58.5	57.2	73	49.2	1.0	NNW	0.50	4.0	57.8	57.2	57.2	29.956	0.00	0.150	0.000	65.7	58	50.5	64.8	30
03/27/01	7:00 a	57.0	57.6	56.7	74	48.8	1.0	NW	0.50	4.0	57.0	56.4	56.4	29.964	0.00	0.167	0.000	65.2	58	50.0	64.3	30
03/27/01	7:30 a	57.2	57.7	56.8	76	49.7	2.0	NNW	1.00	6.0	57.2	56.7	56.7	29.974	0.00	0.162	0.000	65.0	59	50.3	64.1	30
03/27/01	8:00 a	58.3	59.4	57.4	74	50.0	2.0	NW	1.00	6.0	58.3	57.7	57.7	29.984	0.00	0.140	0.000	65.3	59	50.6	64.4	30
03/27/01	8:30 a	61.2	63.7	59.2	68	50.6	2.0	NW	1.00	7.0	61.2	60.5	60.5	29.992	0.00	0.079	0.000	66.0	62	52.6	65.5	30
03/27/01	9:00 a	65.9	68.0	63.5	54	48.8	3.0	N	1.50	10.0	65.9	64.7	64.7	29.993	0.00	0.000	0.019	67.3	63	54.3	67.2	30
03/27/01	9:30 a	68.7	69.5	67.7	58	53.3	4.0	N	2.00	11.0	68.7	68.0	68.0	29.998	0.00	0.000	0.077	68.9	63	55.8	68.6	30
03/27/01	10:00 a	69.8	70.7	68.7	52	51.4	4.0	N	2.00	15.0	69.8	68.3	68.3	29.999	0.00	0.000	0.100	70.3	63	57.1	69.9	30
03/27/01	10:30 a	70.7	71.3	70.1	51	51.7	4.0	N	2.00	12.0	70.7	69.3	69.3	30.003	0.00	0.000	0.119	71.7	60	57.1	71.5	30
03/27/01	11:00 a	71.5	72.0	70.6	51	52.4	4.0	N	2.00	13.0	71.5	70.4	70.4	30.002	0.00	0.000	0.135	72.8	58	57.2	72.9	30
03/27/01	11:30 a	72.4	73.0	71.4	49	52.2	5.0	N	2.50	14.0	72.4	71.6	71.6	29.988	0.00	0.000	0.154	74.0	58	58.3	74.5	30
03/27/01	12:00 p	73.5	74.3	72.4	49	53.2	5.0	N	2.50	15.0	73.5	73.0	73.0	29.975	0.00	0.000	0.177	75.1	57	58.8	75.7	30
03/27/01	12:30 p	73.9	74.3	73.6	49	53.5	5.0	N	2.50	13.0	73.9	73.5	73.5	29.958	0.00	0.000	0.185	76.1	56	59.3	76.5	30
03/27/01	1:00 p	74.4	75.7	73.6	48	53.4	4.0	N	2.00	12.0	74.4	74.1	74.1	29.956	0.00	0.000	0.196	77.0	55	59.6	77.3	30
03/27/01	1:30 p	74.6	75.1	73.8	50	54.7	5.0	N	2.50	13.0	74.6	74.5	74.5	29.939	0.00	0.000	0.200	77.8	53	59.3	78.1	30
03/27/01	2:00 p	74.3	74.9	73.7	49	53.9	4.0	N	2.00	13.0	74.3	74.1	74.1	29.929	0.00	0.000	0.194	78.3	52	59.2	78.5	30
03/27/01	2:30 p	73.8	74.2	73.4	49	53.4	5.0	NNE	2.50	16.0	73.8	73.4	73.4	29.919	0.00	0.000	0.183	78.5	51	58.9	78.7	30
03/27/01	3:00 p	73.2	73.7	72.7	50	53.4	6.0	N	3.00	17.0	73.2	72.7	72.7	29.909	0.00	0.000	0.171	78.5	51	58.9	78.7	30
03/27/01	3:30 p	72.8	73.2	72.4	51	53.6	5.0	NNE	2.50	19.0	72.8	72.3	72.3	29.908	0.00	0.000	0.163	78.6	50	58.4	78.7	30
03/27/01	4:00 p	72.5	73.2	71.6	53	54.4	5.0	NNE	2.50	17.0	72.5	72.1	72.1	29.911	0.00	0.000	0.156	78.6	50	58.4	78.7	30
03/27/01	4:30 p	71.5	72.2	70.8	55	54.5	5.0	NNE	2.50	14.0	71.5	70.8	70.8	29.913	0.00	0.000	0.135	78.2	50	58.0	78.2	30
03/27/01	5:00 p	70.3	71.1	69.0	57	54.3	5.0	N	2.50	16.0	70.3	69.3	69.3	29.920	0.00	0.000	0.110	77.5	51	57.9	77.5	30
03/27/01	5:30 p	68.8	69.4	68.5	58	53.4	4.0	NNE	2.00	13.0	68.8	68.1	68.1	29.928	0.00	0.000	0.079	76.4	51	56.9	76.4	30
03/27/01	6:00 p	67.7	68.6	66.7	62	54.2	4.0	N	2.00	16.0	67.7	67.5	67.5	29.939	0.00	0.000	0.056	75.3	52	56.5	75.5	30
03/27/01	6:30 p	66.2	66.9	65.5	64	53.7	3.0	N	1.50	13.0	66.2	65.9	65.9	29.945	0.00	0.000	0.025	74.0	53	55.8	74.0	30
03/27/01	7:00 p	65.1	65.8	64.4	64	52.6	3.0	N	1.50	10.0	65.1	64.7	64.7	29.954	0.00	0.000	0.002	72.9	54	55.3	72.8	30
03/27/01	7:30 p	64.2	64.8	63.6	65	52.2	4.0	N	2.00	17.0	64.2	63.7	63.7	29.961	0.00	0.017	0.000	71.9	55	54.9	71.4	30
03/27/01	8:00 p	63.6	64.2	63.2	64	51.2	4.0	N	2.00	14.0	63.6	63.0	63.0	29.969	0.00	0.029	0.000	71.1	55	54.1	70.1	30
03/27/01	8:30 p	63.4	63.8	63.0	62	50.1	3.0	N	1.50	11.0	63.4	62.6	62.6	29.980	0.00	0.033	0.000	70.4	55	53.5	69.2	30
03/27/01	9:00 p	63.2	63.6	62.9	61	49.5	4.0	N	2.00	14.0	63.2	62.2	62.2	29.996	0.00	0.037	0.000	69.8	54	52.4	68.5	30
03/27/01	9:30 p	63.1	63.5	62.7	60	49.0	3.0	N	1.50	15.0	63.1	62.0	62.0	30.005	0.00	0.040	0.000	69.4	54	52.0	68.2	30
03/27/01	10:00 p	62.9	63.4	62.6	62	49.7	3.0	N	1.50	12.0	62.9	62.0	62.0	30.011	0.00	0.044	0.000	69.2	55	52.3	68.1	30
03/27/01	10:30 p	62.8	63.3	62.5	63	50.0	3.0	N	1.50	11.0	62.8	62.0	62.0	30.007	0.00	0.046	0.000	68.9	55	52.1	67.9	30
03/27/01	11:00 p	62.6	63.0	62.3	62	49.4	3.0	N	1.50	10.0	62.6	61.7	61.7	30.018	0.00	0.050	0.000	68.6	55	51.8	67.7	30
03/27/01	11:30 p	62.5	62.9	62.1	60	48.4	3.0	N	1.50	10.0	62.5	61.3	61.3	30.010	0.00	0.052	0.000	68.3	55	51.5	67.4	30
03/28/01	12:00 a	62.4	62.7	62.0	60	48.3	2.0	N	1.00	9.0	62.4	61.2	61.2	30.006	0.00	0.054	0.000	68.0	55	51.2	67.2	30
03/28/01	12:30 a	62.5	62.9	62.0	59	48.0	3.0	N	1.50	11.0	62.5	61.3	61.3	30.009	0.00	0.052	0.000	67.9	55	51.1	67.1	30
03/28/01	1:00 a	62.7	63.0	62.5	60	48.6	2.0	N	1.00	10.0	62.7	61.6	61.6	30.000	0.00	0.048	0.000	67.7	55	50.9	66.9	30
03/28/01	1:30 a	62.6	63.0	62.4	60	48.5	2.0	N	1.00	10.0	62.6	61.5	61.5	29.997	0.00	0.050	0.000	67.4	55	50.7	66.5	30
03/28/01	2:00 a	62.6	63.0	62.4	62	49.4	2.0	N	1.00	9.0	62.6	61.7	61.7	29.991	0.00	0.050	0.000	67.1	56	50.9	66.3	30
03/28/01	2:30 a	62.8	63.1	62.5	63	50.0	2.0	N	1.00	10.0	62.8	62.0	62.0	29.979	0.00	0.046	0.000	67.0	56	50.8	66.2	30
03/28/01	3:00 a	63.0	63.3	62.7	63	50.2	1.0	N	0.50	8.0	63.0	62.2	62.2	29.976	0.00	0.042	0.000	66.9	57	51.2	66.1	30
03/28/01	3:30 a	63.1	63.6	62.8	63	50.3	2.0	N	1.00	8.0	63.1	62.3	62.3	29.972	0.00	0.040	0.000	66.8	57	51.1	66.0	30
03/28/01	4:00 a	63.4	63.6	63.0	63	50.6	1.0	N	0.50	7.0	63.4	62.7	62.7	29.971	0.00	0.033	0.000	66.8	58	51.5	66.1	30
03/28/01	4:30 a	63.3	63.7	63.0	65	51.3	1.0	N	0.50	7.0	63.3	62.7	62.7	29.970	0.00	0.035	0.000	66.8	58	51.5	66.1	30
03/28/01	5:00 a	63.3	63.7	63.0	65	51.3	1.0	N	0.50	9.0	63.3	62.7	62.7	29.966	0.00	0.035	0.000	66.7	58	51.5	66.0	30
03/28/01	5:30 a	63.2	63.6	63.0	66	51.6	2.0	N	1.00	7.0	63.2	62.7	62.7	29.978	0.00	0.037	0.000	66.6	59	51.8	65.9	30
03/28/01	6:00 a	63.2	63.5	62.9	67	52.1	1.0	N	0.50	7.0	63.2	62.7	62.7	29.982	0.00	0.037	0.000	66.5	59	51.7	65.8	30
03/28/01	6:30 a	63.2	63.6	63.0	69	52.9	1.0	N	0.50	7.0	63.2	62.9	62.9	29.985	0.00	0.037	0.000	66.4	60	52.1	65.8	30
03/28/01	7:00 a	63.6	64.1	63.2	70	53.6	1.0	N	0.50	8.0	63.6	63.4	63.4	29.991	0.00	0.029	0.000	66.4	61	52.5	65.9	30
03/28/01	7:30 a	64.6	65.6	63.9	69	54.2	2.0	NNE	1.00	8.0	64.6	64.5	64.5	29.989	0.00	0.008	0.000	66.6	62	53.2	66.2	30
03/28/01	8:00 a	66.1	67.0	65.1	68	55.2	2.0	NNE	1.00	9.0	66.1	66.2	66.2	29.983	0.00	0.000	0.023	67.2	67	55.9	67.4	30
03/28/01	8:30 a	67.9	69.4	66.6	65	55.7	2.0	NE	1.00	10.0	67.9	68.1	68.1	29.983	0.00	0.000	0.060	68.3	69	57.7	68.8	30
03/28/01	9:00 a	70.2	71.3	69.1	64	57.4	4.0	ENE	2.00	13.0	70.2	69.8	69.8	29.972	0.00	0.000	0.108	69.7	70	59.5	69.9	30
03/28/01	9:30 a	71.9	73.0	70.9	62	58.2	4.0	NE	2.00	12.0	71.9	71.9	71.9	29.967	0.00	0.000	0.144	71.1	69	60.4	71.4	30
03/28/01	10:00 a	73.5	75.1	72.5	59	58.3	4.0	ENE	2.00	13.0	73.5	74.0	74.0	29.964	0.00	0.000	0.177	72.5	68	61.3	73.2	30
03/28/01	10:30 a	75.4	76.1	74.8	58	59.6	4.0	ENE	2.00	14.0	75.4	76.1	76.1	29.970	0.00	0.000	0.217	73.8	67	62.2	75.1	30
03/28/01	11:00 a	76.2	76.7	75.7	58	60.3	5.0	ENE	2.50	14.0	76.2	76.8	76.8	29.953	0.00	0.000	0.233	75.1	66	63.0	76.5	30
03/28/01	11:30 a	76.2	78.2	74.9	52	57.3	4.0	NE	2.00	14.0	76.2	76.3	76.3	29.939	0.00	0.000	0.233	76.2	65	63.6	77.4	30
03/28/01	12:00 p	78.8	79.7	77.5	51	59.1	6.0	ENE	3.00	20.0	78.8	79.0	79.0	29.927	0.00	0.000	0.288	77.2	62	63.2	78.2	30
03/28/01	12:30 p	80.4	81.1	79.6	47	58.3	6.0	ESE	3.00	18.0	80.4	80.2	80.2	29.917	0.00	0.000	0.321	78.4	61	63.8	79.5	30
03/28/01	1:00 p	81.0	81.4	80.4	46	58.3	7.0	ENE	3.50	18.0	81.0	80.7	80.7	29.901	0.00	0.000	0.333	79.4	59	63.8	80.5	30
03/28/01	1:30 p	81.3	81.8	80.4	47	59.1	8.0	ESE	4.00	26.0	80.9	81.2	80.8	29.887	0.00	0.000	0.340	80.1	57	63.5	81.1	30
03/28/01	2:00 p	81.4	82.1	80.3	46	58.6	7.0	E	3.50	25.0	81.4	81.2	81.2	29.884	0.00	0.000	0.342	80.9	57	64.2	82.1	30
03/28/01	2:30 p	81.3	82.0	80.3	48	59.7	6.0	E	3.00	22.0	81.3	81.4	81.4	29.876	0.00	0.000	0.340	81.5	55	63.8	82.7	30
03/28/01	3:00 p	80.5	80.9	80.2	49	59.6	7.0	ESE	3.50	21.0	80.5	80.5	80.5	29.856	0.00	0.000	0.323	81.7	55	64.0	82.9	30
03/28/01	3:30 p	80.8	81.2	80.3	47	58.7	8.0	ESE	4.00	23.0	80.4	80.6	80.2	29.847	0.00	0.000	0.329	81.9	54	63.6	83.1	30
03/28/01	4:00 p	80.5	81.0	80.0	48	59.0	8.0	ESE	4.00	25.0	80.1	80.4	80.0	29.835	0.00	0.000	0.323	81.9	53	63.1	82.9	30
03/28/01	4:30 p	79.5	80.0	79.1	50	59.2	8.0	ESE	4.00	24.0	79.1	79.6	79.2	29.829	0.00	0.000	0.302	81.7	54	63.4	82.8	30
03/28/01	5:00 p	78.5	79.4	77.4	53	59.9	8.0	ESE	4.00	23.0	78.1	78.9	78.5	29.830	0.00	0.000	0.281	81.3	54	63.1	82.2	30
03/28/01	5:30 p	77.0	77.7	76.1	55	59.6	8.0	ESE	4.00	20.0	76.5	77.3	76.8	29.832	0.00	0.000	0.250	80.4	54	62.2	81.1	30
03/28/01	6:00 p	75.4	76.4	74.6	59	60.1	7.0	ESE	3.50	20.0	75.4	76.1	76.1	29.831	0.00	0.000	0.217	79.3	55	61.7	79.9	30
03/28/01	6:30 p	73.9	74.9	73.1	61	59.6	6.0	ESE	3.00	20.0	73.9	74.7	74.7	29.833	0.00	0.000	0.185	78.2	57	61.7	78.9	30
03/28/01	7:00 p	72.7	73.4	72.1	63	59.4	6.0	ESE	3.00	19.0	72.7	73.1	73.1	29.822	0.00	0.000	0.160	77.3	58	61.4	77.9	30
03/28/01	7:30 p	71.9	72.4	71.5	65	59.5	5.0	ESE	2.50	14.0	71.9	72.2	72.2	29.834	0.00	0.000	0.144	76.6	59	61.2	77.3	30
03/28/01	8:00 p	71.4	71.8	71.1	66	59.4	4.0	ESE	2.00	15.0	71.4	71.6	71.6	29.849	0.00	0.000	0.133	76.0	60	61.1	76.7	30
03/28/01	8:30 p	71.1	71.4	70.9	68	60.0	4.0	ESE	2.00	13.0	71.1	71.3	71.3	29.851	0.00	0.000	0.127	75.6	61	61.2	76.5	30
03/28/01	9:00 p	70.9	71.1	70.6	68	59.8	5.0	ESE	2.50	17.0	70.9	71.1	71.1	29.851	0.00	0.000	0.123	75.2	62	61.3	76.2	30
03/28/01	9:30 p	70.8	71.0	70.6	69	60.1	5.0	SE	2.50	17.0	70.8	71.0	71.0	29.858	0.00	0.000	0.121	74.9	63	61.5	76.0	30
03/28/01	10:00 p	70.7	70.9	70.5	68	59.6	5.0	SE	2.50	19.0	70.7	70.8	70.8	29.862	0.00	0.000	0.119	74.7	63	61.3	75.8	30
03/28/01	10:30 p	70.8	71.0	70.6	70	60.5	5.0	SE	2.50	16.0	70.8	71.1	71.1	29.859	0.00	0.000	0.121	74.6	64	61.6	75.8	30
03/28/01	11:00 p	70.8	71.0	70.6	71	60.9	6.0	SE	3.00	19.0	70.8	71.2	71.2	29.853	0.00	0.000	0.121	74.5	65	62.0	75.8	30
03/28/01	11:30 p	70.7	71.0	70.5	72	61.2	7.0	SE	3.50	19.0	70.7	71.2	71.2	29.845	0.00	0.000	0.119	74.3	66	62.2	75.6	30
03/29/01	12:00 a	70.7	70.9	70.5	71	60.8	7.0	ESE	3.50	21.0	70.7	71.1	71.1	29.844	0.00	0.000	0.119	74.1	67	62.4	75.5	30
03/29/01	12:30 a	70.7	70.9	70.5	72	61.2	7.0	SE	3.50	20.0	70.7	71.2	71.2	29.835	0.00	0.000	0.119	74.0	67	62.3	75.4	30
03/29/01	1:00 a	70.6	70.9	70.4	73	61.5	7.0	SE	3.50	22.0	70.6	71.1	71.1	29.834	0.00	0.000	0.117	73.7	68	62.5	75.0	30
03/29/01	1:30 a	70.6	70.9	70.4	73	61.5	7.0	SE	3.50	25.0	70.6	71.1	71.1	29.824	0.00	0.000	0.117	73.6	69	62.8	74.9	30
03/29/01	2:00 a	70.6	70.8	70.4	73	61.5	7.0	SE	3.50	21.0	70.6	71.1	71.1	29.817	0.00	0.000	0.117	73.4	69	62.6	74.6	30
03/29/01	2:30 a	70.7	71.0	70.4	74	62.0	6.0	SE	3.00	17.0	70.7	71.4	71.4	29.803	0.00	0.000	0.119	73.3	70	62.9	74.6	30
03/29/01	3:00 a	70.7	70.9	70.4	74	62.0	7.0	SE	3.50	18.0	70.7	71.4	71.4	29.792	0.00	0.000	0.119	73.3	71	63.3	74.6	30
03/29/01	3:30 a	70.6	70.9	70.4	76	62.7	7.0	SE	3.50	19.0	70.6	71.4	71.4	29.787	0.00	0.000	0.117	73.2	72	63.6	74.6	30
03/29/01	4:00 a	70.7	71.0	70.4	77	63.1	6.0	SE	3.00	17.0	70.7	71.6	71.6	29.774	0.00	0.000	0.119	73.1	73	63.9	74.5	30
03/29/01	4:30 a	71.0	71.2	70.7	78	63.8	7.0	SE	3.50	17.0	71.0	72.1	72.1	29.775	0.00	0.000	0.125	73.2	74	64.4	74.7	30
03/29/01	5:00 a	71.1	71.4	70.8	78	63.9	8.0	SE	4.00	22.0	70.6	72.2	71.7	29.776	0.00	0.000	0.127	73.3	75	64.9	74.9	30
03/29/01	5:30 a	71.2	71.5	71.0	79	64.4	7.0	SE	3.50	21.0	71.2	72.4	72.4	29.774	0.00	0.000	0.129	73.4	75	65.0	75.1	30
03/29/01	6:00 a	71.3	71.6	71.0	80	64.8	7.0	SE	3.50	19.0	71.3	72.6	72.6	29.780	0.00	0.000	0.131	73.4	76	65.4	75.1	30
03/29/01	6:30 a	71.6	71.9	71.3	80	65.1	8.0	SE	4.00	25.0	71.1	73.0	72.5	29.790	0.00	0.000	0.137	73.5	77	65.8	75.3	30
03/29/01	7:00 a	71.8	72.2	71.5	80	65.3	5.0	SE	2.50	14.0	71.8	73.2	73.2	29.797	0.00	0.000	0.142	73.7	77	66.0	75.5	30
03/29/01	7:30 a	72.2	72.6	71.7	81	66.0	5.0	SSE	2.50	15.0	72.2	73.8	73.8	29.806	0.00	0.000	0.150	73.9	77	66.2	75.8	30
03/29/01	8:00 a	72.9	73.5	72.3	79	66.0	5.0	SE	2.50	16.0	72.9	74.6	74.6	29.808	0.00	0.000	0.165	74.2	78	66.9	76.2	30
03/29/01	8:30 a	73.9	74.7	73.1	76	65.9	5.0	SSE	2.50	16.0	73.9	75.8	75.8	29.810	0.00	0.000	0.185	74.7	79	67.8	77.0	30
03/29/01	9:00 a	75.6	76.7	74.4	74	66.7	6.0	SSE	3.00	20.0	75.6	77.8	77.8	29.810	0.00	0.000	0.221	75.5	80	68.9	78.2	30
03/29/01	9:30 a	77.3	77.7	76.5	71	67.2	8.0	S	4.00	20.0	76.8	79.4	78.9	29.816	0.00	0.000	0.256	76.6	79	69.6	79.5	30
03/29/01	10:00 a	79.0	79.7	77.7	68	67.5	7.0	SSE	3.50	20.0	79.0	81.1	81.1	29.816	0.00	0.000	0.292	77.6	78	70.2	80.6	30
03/29/01	10:30 a	79.4	80.0	78.7	73	70.0	7.0	SSE	3.50	17.0	79.4	82.3	82.3	29.805	0.00	0.000	0.300	78.4	78	71.0	81.6	30
03/29/01	11:00 a	78.4	79.3	77.7	74	69.4	5.0	SSE	2.50	13.0	78.4	81.0	81.0	29.779	0.01	0.000	0.279	78.3	78	70.9	81.5	30
03/29/01	11:30 a	79.7	80.0	79.3	69	68.6	8.0	SSE	4.00	23.0	79.3	82.1	81.7	29.746	0.00	0.000	0.306	78.6	78	71.2	81.9	30
03/29/01	12:00 p	80.6	81.8	79.7	64	67.3	12.0	SSE	6.00	27.0	78.5	82.7	80.6	29.715	0.00	0.000	0.325	79.6	76	71.4	83.1	30
03/29/01	12:30 p	82.7	83.4	81.8	63	68.8	11.0	SSE	5.50	29.0	81.1	85.9	84.3	29.699	0.00	0.000	0.369	80.9	75	72.2	85.2	30
03/29/01	1:00 p	83.7	84.3	82.9	63	69.8	10.0	SSE	5.00	31.0	82.6	87.9	86.8	29.692	0.00	0.000	0.390	82.2	73	72.7	87.5	30
03/29/01	1:30 p	82.6	83.3	81.2	71	72.2	8.0	SE	4.00	29.0	82.3	87.9	87.6	29.663	0.01	0.000	0.367	82.3	72	72.4	87.5	30
03/29/01	2:00 p	81.2	81.9	80.8	66	68.8	9.0	SE	4.50	24.0	80.2	84.0	83.0	29.657	0.00	0.000	0.337	81.9	73	72.4	86.8	30
03/29/01	2:30 p	79.9	81.9	78.2	73	70.5	8.0	SSE	4.00	26.0	79.5	83.1	82.7	29.675	0.00	0.000	0.310	81.2	73	71.7	85.4	30
03/29/01	3:00 p	71.2	78.2	66.9	82	65.4	5.0	NNW	2.50	21.0	71.2	72.7	72.7	29.709	1.38	0.000	0.129	78.9	68	67.4	80.9	30
03/29/01	3:30 p	65.4	66.8	64.9	86	61.1	3.0	NNW	1.50	11.0	65.4	66.3	66.3	29.726	0.55	0.000	0.008	76.5	69	65.6	78.2	30
03/29/01	4:00 p	64.9	65.2	64.6	86	60.6	3.0	NNW	1.50	14.0	64.9	65.7	65.7	29.709	0.18	0.002	0.000	75.4	69	64.5	77.0	30
03/29/01	4:30 p	65.0	65.3	64.8	85	60.4	2.0	NW	1.00	11.0	65.0	65.8	65.8	29.717	0.08	0.000	0.000	74.9	69	64.0	76.5	30
03/29/01	5:00 p	64.8	65.2	64.6	87	60.8	1.0	N	0.50	4.0	64.8	65.6	65.6	29.722	0.03	0.004	0.000	74.3	69	63.5	75.8	30
03/29/01	5:30 p	65.3	65.6	64.9	87	61.3	0.0	N	0.00	3.0	65.3	66.3	66.3	29.706	0.02	0.000	0.006	74.1	69	63.3	75.6	30
03/29/01	6:00 p	65.7	66.0	65.5	88	62.0	0.0	N	0.00	4.0	65.7	66.8	66.8	29.711	0.00	0.000	0.015	73.8	71	63.8	75.4	30
03/29/01	6:30 p	66.1	66.5	65.8	88	62.4	0.0	N	0.00	3.0	66.1	67.3	67.3	29.733	0.01	0.000	0.023	73.7	70	63.3	75.1	30
03/29/01	7:00 p	66.3	66.5	66.0	88	62.6	0.0	NNW	0.00	4.0	66.3	67.6	67.6	29.747	0.00	0.000	0.027	73.5	71	63.5	74.9	30
03/29/01	7:30 p	66.3	66.5	66.0	87	62.3	0.0	NNW	0.00	3.0	66.3	67.5	67.5	29.737	0.01	0.000	0.027	73.4	70	63.0	74.7	30
03/29/01	8:00 p	66.1	66.4	65.9	88	62.4	0.0	---	0.00	0.0	66.1	67.3	67.3	29.742	0.00	0.000	0.023	73.2	70	62.8	74.4	30
03/29/01	8:30 p	66.0	66.3	65.8	88	62.3	0.0	NNW	0.00	1.0	66.0	67.2	67.2	29.746	0.00	0.000	0.021	73.0	71	63.0	74.2	30
03/29/01	9:00 p	65.9	66.2	65.5	89	62.6	1.0	NNW	0.50	5.0	65.9	67.1	67.1	29.758	0.00	0.000	0.019	73.0	71	63.0	74.2	30
03/29/01	9:30 p	65.4	65.9	64.8	89	62.1	3.0	NW	1.50	10.0	65.4	66.5	66.5	29.823	0.14	0.000	0.008	72.8	72	63.2	74.0	30
03/29/01	10:00 p	64.7	65.2	64.3	89	61.4	4.0	NW	2.00	10.0	64.7	65.6	65.6	29.817	0.06	0.006	0.000	72.3	72	62.8	73.3	30
03/29/01	10:30 p	64.4	64.8	64.0	89	61.1	3.0	NW	1.50	10.0	64.4	65.2	65.2	29.830	0.12	0.012	0.000	71.9	72	62.4	72.7	30
03/29/01	11:00 p	64.0	64.5	63.6	90	61.0	3.0	NW	1.50	10.0	64.0	64.8	64.8	29.832	0.16	0.021	0.000	71.5	72	62.0	72.2	30
03/29/01	11:30 p	63.9	64.4	63.5	90	60.9	0.0	NNW	0.00	2.0	63.9	64.7	64.7	29.787	0.04	0.023	0.000	71.2	72	61.7	71.8	30
03/30/01	12:00 a	63.7	64.1	63.3	90	60.7	0.0	NNW	0.00	3.0	63.7	64.5	64.5	29.763	0.01	0.027	0.000	70.9	72	61.4	71.4	30
03/30/01	12:30 a	64.0	64.4	63.5	90	61.0	0.0	ESE	0.00	4.0	64.0	64.8	64.8	29.754	0.00	0.021	0.000	70.7	72	61.2	71.2	30
03/30/01	1:00 a	64.2	64.7	63.8	90	61.2	1.0	ENE	0.50	6.0	64.2	65.0	65.0	29.750	0.00	0.017	0.000	70.5	72	61.0	70.9	30
03/30/01	1:30 a	64.4	64.7	64.0	92	62.0	0.0	ENE	0.00	3.0	64.4	65.4	65.4	29.745	0.01	0.012	0.000	70.3	74	61.6	70.9	30
03/30/01	2:00 a	64.4	64.8	64.0	92	62.0	0.0	NE	0.00	1.0	64.4	65.4	65.4	29.767	0.03	0.012	0.000	70.2	73	61.1	70.6	30
03/30/01	2:30 a	64.6	64.9	64.2	92	62.2	0.0	S	0.00	4.0	64.6	65.6	65.6	29.749	0.12	0.008	0.000	70.1	74	61.4	70.6	30
03/30/01	3:00 a	64.6	64.9	64.2	92	62.2	0.0	S	0.00	4.0	64.6	65.6	65.6	29.721	0.02	0.008	0.000	70.1	74	61.4	70.6	30
03/30/01	3:30 a	64.5	64.8	64.2	91	61.8	0.0	---	0.00	0.0	64.5	65.4	65.4	29.706	0.01	0.010	0.000	70.0	74	61.3	70.5	30
03/30/01	4:00 a	64.4	64.8	64.0	91	61.7	0.0	---	0.00	0.0	64.4	65.3	65.3	29.698	0.00	0.012	0.000	69.8	74	61.1	70.4	30
03/30/01	4:30 a	64.1	64.6	63.6	93	62.0	1.0	S	0.50	5.0	64.1	65.0	65.0	29.693	0.00	0.019	0.000	69.6	75	61.3	70.4	30
03/30/01	5:00 a	64.1	64.5	63.7	92	61.7	1.0	SSW	0.50	7.0	64.1	65.0	65.0	29.759	0.01	0.019	0.000	69.5	76	61.6	70.4	30
03/30/01	5:30 a	64.0	64.4	63.6	94	62.2	5.0	NW	2.50	15.0	64.0	65.0	65.0	29.738	0.33	0.021	0.000	69.2	78	62.0	70.4	30
03/30/01	6:00 a	64.2	64.5	63.7	94	62.4	4.0	SSW	2.00	10.0	64.2	65.2	65.2	29.754	0.03	0.017	0.000	69.2	78	62.0	70.4	30
03/30/01	6:30 a	64.1	64.5	63.7	93	62.0	4.0	S	2.00	12.0	64.1	65.0	65.0	29.730	0.06	0.019	0.000	69.2	78	62.0	70.4	30
03/30/01	7:00 a	64.1	64.5	63.7	93	62.0	1.0	NW	0.50	7.0	64.1	65.0	65.0	29.764	0.02	0.019	0.000	69.3	78	62.1	70.5	30
03/30/01	7:30 a	64.2	64.8	63.7	94	62.4	2.0	S	1.00	7.0	64.2	65.2	65.2	29.741	0.01	0.017	0.000	69.1	77	61.6	70.3	30
03/30/01	8:00 a	65.0	65.8	64.3	96	63.8	1.0	S	0.50	15.0	65.0	66.2	66.2	29.756	0.00	0.000	0.000	69.4	78	62.2	70.5	30
03/30/01	8:30 a	66.1	66.5	65.4	94	64.3	3.0	S	1.50	12.0	66.1	67.5	67.5	29.769	0.04	0.000	0.023	69.8	80	63.3	71.0	30
03/30/01	9:00 a	66.3	67.0	65.9	94	64.5	3.0	S	1.50	11.0	66.3	67.7	67.7	29.759	0.14	0.000	0.027	70.1	81	64.0	71.3	30
03/30/01	9:30 a	67.2	68.0	66.5	93	65.1	3.0	SSW	1.50	8.0	67.2	68.8	68.8	29.778	0.00	0.000	0.046	70.5	81	64.4	71.8	30
03/30/01	10:00 a	67.7	68.0	67.3	91	65.0	2.0	S	1.00	9.0	67.7	69.4	69.4	29.768	0.12	0.000	0.056	70.9	82	65.1	72.4	30
03/30/01	10:30 a	69.0	70.0	67.7	87	65.0	4.0	S	2.00	14.0	69.0	70.9	70.9	29.755	0.00	0.000	0.083	71.6	82	65.8	73.1	30
03/30/01	11:00 a	70.8	72.1	69.5	84	65.7	4.0	S	2.00	13.0	70.8	72.4	72.4	29.750	0.00	0.000	0.121	72.5	82	66.7	74.2	30
03/30/01	11:30 a	73.2	74.4	71.8	81	67.0	5.0	S	2.50	14.0	73.2	75.1	75.1	29.730	0.00	0.000	0.171	73.6	83	68.1	75.7	30
03/30/01	12:00 p	75.3	76.7	73.9	78	68.0	5.0	S	2.50	13.0	75.3	77.7	77.7	29.701	0.00	0.000	0.215	75.1	83	69.6	77.9	30
03/30/01	12:30 p	76.8	77.5	76.3	77	69.0	5.0	SSE	2.50	14.0	76.8	79.5	79.5	29.688	0.00	0.000	0.246	76.8	84	71.6	80.2	30
03/30/01	1:00 p	77.6	79.0	76.8	75	69.0	4.0	SE	2.00	13.0	77.6	80.2	80.2	29.669	0.00	0.000	0.262	77.6	82	71.7	81.1	30
03/30/01	1:30 p	78.9	79.4	78.4	73	69.5	6.0	S	3.00	18.0	78.9	81.6	81.6	29.659	0.00	0.000	0.290	78.5	81	72.2	82.3	30
03/30/01	2:00 p	78.6	78.9	78.2	73	69.2	5.0	SSW	2.50	16.0	78.6	81.2	81.2	29.653	0.00	0.000	0.283	78.8	80	72.1	82.5	30
03/30/01	2:30 p	78.8	79.2	78.4	73	69.4	5.0	S	2.50	15.0	78.8	81.4	81.4	29.652	0.00	0.000	0.288	78.9	79	71.8	82.5	30
03/30/01	3:00 p	79.4	80.1	78.8	72	69.6	4.0	S	2.00	13.0	79.4	82.2	82.2	29.647	0.00	0.000	0.300	79.3	79	72.2	83.1	30
03/30/01	3:30 p	79.5	80.1	78.9	73	70.1	3.0	S	1.50	14.0	79.5	82.5	82.5	29.651	0.00	0.000	0.302	79.6	79	72.5	83.6	30
03/30/01	4:00 p	79.2	79.5	78.9	73	69.8	5.0	S	2.50	13.0	79.2	82.0	82.0	29.642	0.00	0.000	0.296	79.7	78	72.2	83.6	30
03/30/01	4:30 p	79.3	79.5	78.9	72	69.5	5.0	S	2.50	13.0	79.3	82.0	82.0	29.633	0.00	0.000	0.298	79.7	78	72.2	83.6	30
03/30/01	5:00 p	79.3	79.8	79.0	71	69.1	4.0	SSW	2.00	13.0	79.3	81.9	81.9	29.630	0.00	0.000	0.298	79.9	77	72.0	83.8	30
03/30/01	5:30 p	79.7	80.3	79.0	71	69.5	5.0	SSW	2.50	13.0	79.7	82.4	82.4	29.639	0.00	0.000	0.306	80.2	77	72.3	84.3	30
03/30/01	6:00 p	78.8	79.3	78.4	72	69.0	4.0	SW	2.00	12.0	78.8	81.3	81.3	29.646	0.00	0.000	0.288	80.0	76	71.8	83.8	30
03/30/01	6:30 p	78.2	78.9	77.5	74	69.2	2.0	SSW	1.00	8.0	78.2	80.8	80.8	29.649	0.00	0.000	0.275	79.7	76	71.5	83.3	30
03/30/01	7:00 p	77.1	77.9	76.4	76	68.9	2.0	SSW	1.00	7.0	77.1	79.7	79.7	29.649	0.00	0.000	0.252	79.3	76	71.1	82.6	30
03/30/01	7:30 p	76.2	76.7	75.6	78	68.8	2.0	SSW	1.00	7.0	76.2	78.9	78.9	29.672	0.00	0.000	0.233	78.8	77	71.0	82.0	30
03/30/01	8:00 p	75.6	76.1	75.0	80	69.0	1.0	SSW	0.50	6.0	75.6	78.3	78.3	29.671	0.00	0.000	0.221	78.4	78	71.0	81.6	30
03/30/01	8:30 p	74.9	75.5	74.4	81	68.7	1.0	SSW	0.50	5.0	74.9	77.4	77.4	29.673	0.00	0.000	0.206	78.1	78	70.7	81.2	30
03/30/01	9:00 p	74.3	74.9	73.8	83	68.8	1.0	S	0.50	5.0	74.3	76.6	76.6	29.686	0.00	0.000	0.194	77.9	77	70.1	80.8	30
03/30/01	9:30 p	73.9	74.2	73.4	83	68.4	1.0	S	0.50	5.0	73.9	76.0	76.0	29.690	0.00	0.000	0.185	77.5	77	69.7	80.3	30
03/30/01	10:00 p	73.4	73.8	72.8	83	67.9	0.0	S	0.00	3.0	73.4	75.4	75.4	29.692	0.00	0.000	0.175	77.1	77	69.3	79.8	30
03/30/01	10:30 p	72.8	73.2	72.4	85	68.0	0.0	S	0.00	4.0	72.8	74.8	74.8	29.686	0.00	0.000	0.163	76.8	77	69.0	79.5	30
03/30/01	11:00 p	72.4	72.8	71.9	86	68.0	0.0	S	0.00	2.0	72.4	74.4	74.4	29.683	0.00	0.000	0.154	76.4	77	68.7	79.0	30
03/30/01	11:30 p	71.7	72.3	71.1	86	67.3	0.0	---	0.00	0.0	71.7	73.6	73.6	29.685	0.00	0.000	0.140	76.1	77	68.4	78.7	30
03/31/01	12:00 a	71.1	71.7	70.5	88	67.4	0.0	---	0.00	0.0	71.1	73.1	73.1	29.694	0.00	0.000	0.127	75.7	76	67.6	78.1	30
03/31/01	12:30 a	70.5	71.0	70.1	89	67.1	0.0	---	0.00	0.0	70.5	72.5	72.5	29.697	0.00	0.000	0.115	75.2	77	67.5	77.5	30
03/31/01	1:00 a	70.3	70.7	69.8	88	66.6	0.0	---	0.00	0.0	70.3	72.2	72.2	29.683	0.00	0.000	0.110	74.9	77	67.2	77.1	30
03/31/01	1:30 a	69.8	70.2	69.4	89	66.4	0.0	---	0.00	0.0	69.8	71.7	71.7	29.688	0.00	0.000	0.100	74.5	77	66.8	76.6	30
03/31/01	2:00 a	69.7	70.0	69.3	91	67.0	0.0	---	0.00	1.0	69.7	71.8	71.8	29.692	0.00	0.000	0.098	74.2	78	66.9	76.2	30
03/31/01	2:30 a	69.9	70.2	69.4	91	67.2	0.0	S	0.00	1.0	69.9	72.0	72.0	29.685	0.00	0.000	0.102	74.1	78	66.8	76.1	30
03/31/01	3:00 a	70.0	70.3	69.6	90	66.9	0.0	S	0.00	2.0	70.0	72.0	72.0	29.685	0.00	0.000	0.104	74.0	78	66.7	76.0	30
03/31/01	3:30 a	70.2	70.6	69.8	89	66.8	0.0	S	0.00	3.0	70.2	72.1	72.1	29.676	0.00	0.000	0.108	73.9	79	67.0	75.9	30
03/31/01	4:00 a	70.2	70.5	69.8	90	67.1	0.0	S	0.00	2.0	70.2	72.2	72.2	29.677	0.00	0.000	0.108	73.8	78	66.5	75.7	30
03/31/01	4:30 a	70.0	70.4	69.7	90	66.9	0.0	S	0.00	2.0	70.0	72.0	72.0	29.673	0.00	0.000	0.104	73.6	80	67.0	75.5	30
03/31/01	5:00 a	69.8	70.3	69.3	90	66.7	0.0	S	0.00	1.0	69.8	71.8	71.8	29.678	0.00	0.000	0.100	73.5	79	66.6	75.4	30
03/31/01	5:30 a	69.5	69.9	69.0	91	66.8	0.0	S	0.00	3.0	69.5	71.6	71.6	29.688	0.00	0.000	0.094	73.3	80	66.8	75.2	30
03/31/01	6:00 a	69.2	69.6	68.8	91	66.5	0.0	S	0.00	3.0	69.2	71.3	71.3	29.694	0.00	0.000	0.087	73.1	80	66.6	74.9	30
03/31/01	6:30 a	69.2	69.5	68.8	91	66.5	0.0	---	0.00	0.0	69.2	71.3	71.3	29.704	0.00	0.000	0.087	73.0	79	66.1	74.7	30
03/31/01	7:00 a	69.4	69.9	68.9	91	66.7	0.0	---	0.00	0.0	69.4	71.5	71.5	29.713	0.00	0.000	0.092	73.0	80	66.5	74.8	30
03/31/01	7:30 a	69.8	70.3	69.3	90	66.7	0.0	WSW	0.00	1.0	69.8	71.8	71.8	29.716	0.00	0.000	0.100	73.1	80	66.6	74.9	30
03/31/01	8:00 a	70.5	71.3	69.8	89	67.1	0.0	WSW	0.00	4.0	70.5	72.5	72.5	29.723	0.00	0.000	0.115	73.3	80	66.8	75.2	30
03/31/01	8:30 a	71.6	72.6	70.8	86	67.2	1.0	SSW	0.50	3.0	71.6	73.5	73.5	29.719	0.00	0.000	0.137	73.7	80	67.1	75.6	30
03/31/01	9:00 a	73.5	74.2	72.2	83	68.0	1.0	SSW	0.50	6.0	73.5	75.6	75.6	29.720	0.00	0.000	0.177	74.8	80	68.2	77.2	30
03/31/01	9:30 a	74.4	75.7	73.4	81	68.2	1.0	SW	0.50	7.0	74.4	76.7	76.7	29.710	0.00	0.000	0.196	75.9	79	68.9	78.7	30
03/31/01	10:00 a	76.4	77.3	75.2	79	69.4	3.0	SW	1.50	8.0	76.4	79.2	79.2	29.713	0.00	0.000	0.238	77.1	79	70.1	80.0	30
03/31/01	10:30 a	77.5	78.7	76.6	77	69.7	3.0	SW	1.50	9.0	77.5	80.3	80.3	29.711	0.00	0.000	0.260	78.3	81	72.0	82.0	30
03/31/01	11:00 a	79.1	79.8	78.3	75	70.5	3.0	SW	1.50	11.0	79.1	82.2	82.2	29.704	0.00	0.000	0.294	79.3	81	73.0	83.5	30
03/31/01	11:30 a	79.6	80.2	79.1	75	71.0	2.0	SW	1.00	8.0	79.6	83.0	83.0	29.697	0.00	0.000	0.304	79.8	80	73.1	84.2	30
03/31/01	12:00 p	81.3	83.0	80.0	69	70.2	3.0	SW	1.50	9.0	81.3	84.8	84.8	29.679	0.00	0.000	0.340	80.5	79	73.4	85.3	30
03/31/01	12:30 p	83.9	85.2	82.6	66	71.3	4.0	SW	2.00	15.0	83.9	89.3	89.3	29.654	0.00	0.000	0.394	81.8	78	74.3	87.9	30
03/31/01	1:00 p	86.5	87.6	85.1	59	70.5	5.0	SW	2.50	15.0	86.5	92.2	92.2	29.633	0.00	0.000	0.448	83.3	76	74.9	91.2	30
03/31/01	1:30 p	86.7	88.0	84.0	71	76.2	4.0	SW	2.00	16.0	86.7	97.2	97.2	29.640	0.05	0.000	0.452	84.3	74	75.1	92.9	30
03/31/01	2:00 p	79.9	84.0	78.1	83	74.3	1.0	N	0.50	14.0	79.9	85.0	85.0	29.613	0.38	0.000	0.310	83.3	76	74.9	91.2	30
03/31/01	2:30 p	80.2	81.3	79.1	79	73.1	1.0	ENE	0.50	5.0	80.2	84.7	84.7	29.592	0.00	0.000	0.317	82.9	78	75.3	90.8	30
03/31/01	3:00 p	80.5	82.1	79.7	77	72.6	1.0	NE	0.50	4.0	80.5	84.9	84.9	29.564	0.00	0.000	0.323	83.2	77	75.2	91.3	30
03/31/01	3:30 p	84.3	85.5	82.1	62	69.9	5.0	SW	2.50	14.0	84.3	88.8	88.8	29.555	0.00	0.000	0.402	84.3	74	75.1	92.9	30
03/31/01	4:00 p	86.3	87.8	84.9	55	68.2	6.0	SW	3.00	18.0	86.3	90.3	90.3	29.536	0.00	0.000	0.444	85.3	71	74.8	94.0	30
03/31/01	4:30 p	85.0	88.0	81.6	71	74.5	4.0	NNW	2.00	15.0	85.0	93.2	93.2	29.557	0.00	0.000	0.417	85.7	71	75.2	94.9	30
03/31/01	5:00 p	80.1	81.8	78.6	76	71.8	3.0	N	1.50	11.0	80.1	84.0	84.0	29.566	0.00	0.000	0.315	84.7	71	74.3	92.6	30
03/31/01	5:30 p	77.2	78.8	75.6	78	69.8	4.0	NNW	2.00	13.0	77.2	80.1	80.1	29.591	0.03	0.000	0.254	83.4	70	72.6	89.4	30
03/31/01	6:00 p	74.2	75.9	72.7	81	68.0	3.0	NW	1.50	13.0	74.2	76.4	76.4	29.628	0.08	0.000	0.192	81.9	70	71.2	86.1	30
03/31/01	6:30 p	71.9	72.9	71.1	83	66.5	3.0	NW	1.50	11.0	71.9	73.5	73.5	29.619	0.11	0.000	0.144	80.3	71	70.0	83.4	30
03/31/01	7:00 p	71.2	71.5	70.8	83	65.8	1.0	NW	0.50	5.0	71.2	72.8	72.8	29.614	0.00	0.000	0.129	79.5	71	69.3	82.2	30
03/31/01	7:30 p	70.9	71.2	70.6	84	65.8	0.0	NW	0.00	1.0	70.9	72.6	72.6	29.621	0.00	0.000	0.123	79.0	71	68.8	81.4	30
03/31/01	8:00 p	70.7	71.0	70.4	84	65.6	0.0	NW	0.00	1.0	70.7	72.3	72.3	29.641	0.00	0.000	0.119	78.6	73	69.2	81.2	30
03/31/01	8:30 p	70.9	71.2	70.5	84	65.8	0.0	NW	0.00	1.0	70.9	72.6	72.6	29.644	0.00	0.000	0.123	77.9	75	69.3	80.5	30
03/31/01	9:00 p	70.7	71.1	70.3	86	66.3	0.0	SW	0.00	4.0	70.7	72.5	72.5	29.660	0.00	0.000	0.119	77.5	76	69.3	80.2	30
03/31/01	9:30 p	70.5	70.9	70.1	89	67.1	1.0	WSW	0.50	5.0	70.5	72.5	72.5	29.665	0.00	0.000	0.115	77.2	75	68.7	79.7	30
03/31/01	10:00 p	70.4	70.8	70.1	89	67.0	1.0	W	0.50	5.0	70.4	72.4	72.4	29.674	0.00	0.000	0.113	77.1	74	68.2	79.5	30
03/31/01	10:30 p	70.4	70.8	70.1	90	67.3	1.0	NW	0.50	6.0	70.4	72.5	72.5	29.668	0.00	0.000	0.113	77.0	75	68.5	79.5	30
03/31/01	11:00 p	70.3	70.6	70.1	90	67.2	2.0	NW	1.00	7.0	70.3	72.4	72.4	29.667	0.00	0.000	0.110	76.7	77	68.9	79.4	30
03/31/01	11:30 p	70.1	70.5	69.7	91	67.3	1.0	WSW	0.50	5.0	70.1	72.2	72.2	29.674	0.00	0.000	0.106	76.3	77	68.6	78.9	30
04/01/01	12:00 a	69.9	70.3	69.4	90	66.8	1.0	WNW	0.50	5.0	69.9	71.9	71.9	29.679	0.00	0.000	0.102	75.8	77	68.1	78.3	30
04/01/01	12:30 a	69.4	69.9	68.8	90	66.3	1.0	NW	0.50	5.0	69.4	71.4	71.4	29.679	0.00	0.000	0.092	75.3	77	67.6	77.7	30
04/01/01	1:00 a	68.8	69.3	68.4	89	65.4	1.0	WNW	0.50	4.0	68.8	70.7	70.7	29.674	0.00	0.000	0.079	74.8	77	67.1	77.0	30
04/01/01	1:30 a	68.1	68.9	67.4	81	62.0	2.0	NW	1.00	11.0	68.1	69.5	69.5	29.667	0.01	0.000	0.065	74.3	76	66.2	76.3	30
04/01/01	2:00 a	66.8	67.8	66.0	79	60.1	1.0	SW	0.50	5.0	66.8	67.8	67.8	29.668	0.00	0.000	0.038	73.7	74	64.9	75.4	30
04/01/01	2:30 a	65.8	66.5	65.1	78	58.7	1.0	WSW	0.50	4.0	65.8	66.5	66.5	29.665	0.00	0.000	0.017	73.1	73	63.9	74.5	30
04/01/01	3:00 a	64.8	65.6	64.2	81	58.8	0.0	WSW	0.00	3.0	64.8	65.5	65.5	29.660	0.00	0.004	0.000	72.4	72	62.9	73.4	30
04/01/01	3:30 a	64.1	64.7	63.5	82	58.5	0.0	WSW	0.00	3.0	64.1	64.7	64.7	29.667	0.00	0.019	0.000	71.8	72	62.3	72.6	30
04/01/01	4:00 a	63.3	64.1	62.7	82	57.7	1.0	WNW	0.50	7.0	63.3	63.7	63.7	29.685	0.00	0.035	0.000	71.3	71	61.4	71.9	30
04/01/01	4:30 a	62.6	63.2	62.0	83	57.4	3.0	NW	1.50	8.0	62.6	63.0	63.0	29.694	0.00	0.050	0.000	70.5	71	60.6	70.8	30
04/01/01	5:00 a	62.0	62.5	61.5	84	57.1	3.0	NW	1.50	11.0	62.0	62.3	62.3	29.708	0.00	0.063	0.000	69.8	72	60.4	70.2	30
04/01/01	5:30 a	61.6	62.0	61.0	85	57.0	2.0	NW	1.00	8.0	61.6	61.9	61.9	29.711	0.00	0.071	0.000	69.4	72	60.0	69.9	30
04/01/01	6:00 a	61.0	61.5	60.4	87	57.1	2.0	NW	1.00	9.0	61.0	61.3	61.3	29.729	0.00	0.083	0.000	69.0	72	59.6	69.6	30
04/01/01	6:30 a	60.5	61.1	60.1	87	56.6	1.0	WNW	0.50	7.0	60.5	60.7	60.7	29.757	0.00	0.094	0.000	68.6	72	59.2	69.3	30
04/01/01	7:00 a	60.5	60.9	60.1	88	56.9	1.0	WNW	0.50	6.0	60.5	60.8	60.8	29.779	0.00	0.094	0.000	68.3	72	58.9	69.0	30
04/01/01	7:30 a	61.1	61.8	60.3	86	56.9	5.0	NW	2.50	14.0	61.1	61.3	61.3	29.791	0.00	0.081	0.000	68.1	74	59.5	68.9	30
04/01/01	8:00 a	61.9	62.7	61.2	83	56.7	4.0	NW	2.00	12.0	61.9	62.1	62.1	29.810	0.00	0.065	0.000	68.2	74	59.6	69.0	30
04/01/01	8:30 a	63.7	65.4	62.2	72	54.5	4.0	NW	2.00	12.0	63.7	63.6	63.6	29.805	0.00	0.027	0.000	68.7	74	60.1	69.6	30
04/01/01	9:00 a	66.5	67.7	65.1	64	53.9	5.0	NNW	2.50	12.0	66.5	66.3	66.3	29.801	0.00	0.000	0.031	69.6	72	60.2	70.0	30
04/01/01	9:30 a	68.4	69.8	67.1	59	53.5	4.0	NNW	2.00	14.0	68.4	67.9	67.9	29.791	0.00	0.000	0.071	70.9	70	60.6	71.3	30
04/01/01	10:00 a	70.8	72.4	69.4	54	53.3	5.0	NW	2.50	11.0	70.8	69.7	69.7	29.793	0.00	0.000	0.121	72.4	66	60.4	72.9	30
04/01/01	10:30 a	73.3	74.4	72.2	50	53.5	5.0	NW	2.50	15.0	73.3	72.9	72.9	29.784	0.00	0.000	0.173	74.0	64	61.0	75.1	30
04/01/01	11:00 a	75.1	76.3	73.9	45	52.3	5.0	NW	2.50	15.0	75.1	74.8	74.8	29.786	0.00	0.000	0.210	75.2	61	60.8	76.1	30
04/01/01	11:30 a	76.5	77.3	75.6	44	53.0	6.0	NW	3.00	17.0	76.5	76.0	76.0	29.775	0.00	0.000	0.240	76.2	57	59.9	76.7	30
04/01/01	12:00 p	77.7	78.5	77.0	41	52.1	5.0	NW	2.50	19.0	77.7	76.9	76.9	29.757	0.00	0.000	0.265	77.0	54	59.1	77.2	30
04/01/01	12:30 p	79.2	80.1	78.4	34	48.4	6.0	NW	3.00	16.0	79.2	77.8	77.8	29.748	0.00	0.000	0.296	78.2	54	60.2	78.6	30
04/01/01	1:00 p	80.2	81.4	79.6	33	48.5	7.0	NW	3.50	18.0	80.2	78.5	78.5	29.739	0.00	0.000	0.317	79.6	53	61.0	80.1	30
04/01/01	1:30 p	81.7	82.6	81.0	31	48.1	5.0	NW	2.50	18.0	81.7	79.9	79.9	29.723	0.00	0.000	0.348	80.6	52	61.3	81.0	30
04/01/01	2:00 p	82.7	83.2	82.2	27	45.3	5.0	NW	2.50	17.0	82.7	80.4	80.4	29.702	0.00	0.000	0.369	81.2	47	59.1	81.1	30
04/01/01	2:30 p	83.4	83.8	82.9	24	42.8	6.0	NW	3.00	16.0	83.4	80.8	80.8	29.696	0.00	0.000	0.383	81.5	44	57.5	81.1	30
04/01/01	3:00 p	83.5	83.8	83.0	26	45.0	6.0	NW	3.00	16.0	83.5	81.1	81.1	29.693	0.00	0.000	0.385	82.0	44	57.9	81.8	30
04/01/01	3:30 p	83.9	84.3	83.5	26	45.3	5.0	WSW	2.50	15.0	83.9	81.5	81.5	29.683	0.00	0.000	0.394	82.7	44	58.6	82.9	30
04/01/01	4:00 p	83.4	84.0	82.8	26	44.9	5.0	W	2.50	16.0	83.4	81.0	81.0	29.683	0.00	0.000	0.383	83.2	42	57.7	83.3	30
04/01/01	4:30 p	83.0	83.8	82.3	25	43.5	5.0	W	2.50	14.0	83.0	80.4	80.4	29.682	0.00	0.000	0.375	83.4	38	55.1	83.0	30
04/01/01	5:00 p	81.3	82.3	80.6	24	41.0	6.0	WNW	3.00	21.0	81.3	78.6	78.6	29.689	0.00	0.000	0.340	83.1	36	53.4	82.1	30
04/01/01	5:30 p	80.0	80.7	78.9	25	41.0	5.0	NW	2.50	16.0	80.0	77.5	77.5	29.699	0.00	0.000	0.313	82.4	36	52.8	81.3	30
04/01/01	6:00 p	77.9	79.0	76.9	27	41.2	5.0	WNW	2.50	15.0	77.9	76.2	76.2	29.708	0.00	0.000	0.269	81.5	37	52.7	80.3	30
04/01/01	6:30 p	75.9	77.0	74.7	30	42.2	3.0	NW	1.50	11.0	75.9	74.4	74.4	29.725	0.00	0.000	0.227	80.1	36	50.7	78.7	30
04/01/01	7:00 p	73.7	74.8	72.6	33	42.8	2.0	WNW	1.00	10.0	73.7	72.1	72.1	29.742	0.00	0.000	0.181	78.5	37	50.1	77.4	30
04/01/01	7:30 p	71.6	72.7	70.6	34	41.7	2.0	WNW	1.00	9.0	71.6	68.9	68.9	29.758	0.00	0.000	0.137	77.2	37	48.9	76.2	30
04/01/01	8:00 p	69.8	70.7	68.9	37	42.3	2.0	WNW	1.00	10.0	69.8	66.9	66.9	29.775	0.00	0.000	0.100	76.0	38	48.6	75.0	30
04/01/01	8:30 p	68.2	69.0	67.3	41	43.6	2.0	WNW	1.00	7.0	68.2	65.9	65.9	29.799	0.00	0.000	0.067	75.1	39	48.4	74.2	30
04/01/01	9:00 p	66.7	67.5	65.9	44	44.1	1.0	WNW	0.50	7.0	66.7	64.6	64.6	29.819	0.00	0.000	0.035	74.3	41	49.1	73.5	30
04/01/01	9:30 p	65.4	66.1	64.6	47	44.6	1.0	WNW	0.50	6.0	65.4	63.4	63.4	29.837	0.00	0.000	0.008	73.6	42	49.1	72.7	30
04/01/01	10:00 p	64.1	64.9	63.5	50	45.1	1.0	WNW	0.50	5.0	64.1	62.3	62.3	29.857	0.00	0.019	0.000	72.8	43	49.0	71.6	30
04/01/01	10:30 p	63.2	63.7	62.7	54	46.3	0.0	WNW	0.00	3.0	63.2	61.7	61.7	29.869	0.00	0.037	0.000	72.0	43	48.3	70.4	30
04/01/01	11:00 p	62.5	62.9	61.9	59	48.0	0.0	WNW	0.00	3.0	62.5	61.3	61.3	29.880	0.00	0.052	0.000	71.4	44	48.3	69.6	30
04/01/01	11:30 p	61.8	62.3	61.3	62	48.6	0.0	WNW	0.00	3.0	61.8	60.8	60.8	29.884	0.00	0.067	0.000	70.7	45	48.3	68.7	30
04/02/01	12:00 a	61.1	61.7	60.6	63	48.4	1.0	WNW	0.50	5.0	61.1	60.1	60.1	29.894	0.00	0.081	0.000	70.1	46	48.4	68.0	30
04/02/01	12:30 a	60.6	60.9	60.1	66	49.2	0.0	WNW	0.00	3.0	60.6	59.8	59.8	29.900	0.00	0.092	0.000	69.6	46	47.9	67.6	30
04/02/01	1:00 a	60.0	60.4	59.7	68	49.4	0.0	WNW	0.00	4.0	60.0	59.3	59.3	29.899	0.00	0.104	0.000	69.1	47	48.0	67.4	30
04/02/01	1:30 a	59.8	60.0	59.5	71	50.4	1.0	NW	0.50	6.0	59.8	59.2	59.2	29.904	0.00	0.108	0.000	68.6	49	48.7	67.1	30
04/02/01	2:00 a	59.7	59.9	59.4	73	51.0	2.0	NW	1.00	6.0	59.7	59.2	59.2	29.908	0.00	0.110	0.000	68.2	50	48.8	66.9	30
04/02/01	2:30 a	59.6	59.9	59.2	74	51.3	2.0	NW	1.00	7.0	59.6	59.1	59.1	29.915	0.00	0.113	0.000	67.9	50	48.6	66.6	30
04/02/01	3:00 a	59.2	59.6	58.8	75	51.3	2.0	NW	1.00	7.0	59.2	58.7	58.7	29.915	0.00	0.121	0.000	67.6	50	48.3	66.3	30
04/02/01	3:30 a	58.7	59.1	58.3	76	51.2	1.0	NNW	0.50	4.0	58.7	58.3	58.3	29.923	0.00	0.131	0.000	67.3	50	48.0	65.9	30
04/02/01	4:00 a	58.2	58.6	57.7	79	51.7	0.0	NNW	0.00	3.0	58.2	57.9	57.9	29.924	0.00	0.142	0.000	66.8	51	48.1	65.5	30
04/02/01	4:30 a	57.5	57.9	57.2	80	51.4	0.0	NNW	0.00	2.0	57.5	57.3	57.3	29.925	0.00	0.156	0.000	66.4	52	48.2	65.1	30
04/02/01	5:00 a	57.1	57.3	56.7	80	51.0	0.0	NNW	0.00	2.0	57.1	56.8	56.8	29.935	0.00	0.165	0.000	65.9	52	47.8	64.5	30
04/02/01	5:30 a	56.3	56.8	55.8	79	49.9	0.0	---	0.00	0.0	56.3	55.9	55.9	29.952	0.00	0.181	0.000	65.5	53	47.9	64.2	30
04/02/01	6:00 a	55.5	55.9	55.0	80	49.4	0.0	NNW	0.00	1.0	55.5	55.2	55.2	29.962	0.00	0.198	0.000	65.0	54	47.9	63.7	30
04/02/01	6:30 a	54.8	55.1	54.5	81	49.1	0.0	NNW	0.00	1.0	54.8	54.5	54.5	29.973	0.00	0.213	0.000	64.4	55	47.9	63.1	30
04/02/01	7:00 a	54.9	55.8	54.5	81	49.2	0.0	N	0.00	4.0	54.9	54.6	54.6	29.985	0.00	0.210	0.000	64.0	56	48.0	62.8	30
04/02/01	7:30 a	58.3	60.8	55.8	61	44.9	1.0	N	0.50	7.0	58.3	57.1	57.1	29.995	0.00	0.140	0.000	64.2	55	47.7	62.9	30
04/02/01	8:00 a	62.5	63.9	60.8	54	45.6	2.0	N	1.00	7.0	62.5	61.0	61.0	29.998	0.00	0.052	0.000	64.9	56	48.8	63.8	30
04/02/01	8:30 a	65.4	67.0	63.7	48	45.2	2.0	N	1.00	10.0	65.4	63.5	63.5	30.006	0.00	0.000	0.008	66.1	55	49.5	65.0	30
04/02/01	9:00 a	68.2	69.5	66.8	45	46.0	3.0	NE	1.50	10.0	68.2	66.4	66.4	30.011	0.00	0.000	0.067	67.7	54	50.5	66.8	30
04/02/01	9:30 a	70.2	71.4	69.2	41	45.4	3.0	N	1.50	9.0	70.2	67.7	67.7	30.013	0.00	0.000	0.108	69.4	52	51.0	68.0	30
04/02/01	10:00 a	71.9	72.4	71.1	39	45.6	3.0	N	1.50	11.0	71.9	69.9	69.9	30.018	0.00	0.000	0.144	70.9	51	51.9	69.6	30
04/02/01	10:30 a	73.0	73.6	72.1	36	44.5	3.0	N	1.50	10.0	73.0	71.3	71.3	30.025	0.00	0.000	0.167	72.5	50	52.8	71.8	30
04/02/01	11:00 a	74.4	75.4	73.4	36	45.7	3.0	N	1.50	9.0	74.4	73.2	73.2	30.018	0.00	0.000	0.196	73.9	50	54.1	73.6	30
04/02/01	11:30 a	75.0	75.5	74.7	38	47.7	4.0	N	2.00	11.0	75.0	74.0	74.0	30.006	0.00	0.000	0.208	75.3	49	54.8	75.3	30
04/02/01	12:00 p	76.5	77.3	75.2	39	49.7	3.0	N	1.50	9.0	76.5	75.6	75.6	29.999	0.00	0.000	0.240	76.6	49	56.0	76.4	30
04/02/01	12:30 p	77.1	77.9	76.6	34	46.6	3.0	N	1.50	11.0	77.1	76.0	76.0	29.993	0.00	0.000	0.252	77.8	49	57.1	77.7	30
04/02/01	1:00 p	77.3	77.7	76.8	38	49.7	4.0	N	2.00	11.0	77.3	76.4	76.4	29.992	0.00	0.000	0.256	78.9	47	57.0	78.8	30
04/02/01	1:30 p	77.4	77.8	77.0	37	49.1	4.0	N	2.00	12.0	77.4	76.4	76.4	29.983	0.00	0.000	0.258	79.7	47	57.7	79.5	30
04/02/01	2:00 p	77.0	77.5	76.5	40	50.8	5.0	N	2.50	13.0	77.0	76.2	76.2	29.979	0.00	0.000	0.250	80.2	46	57.5	79.9	30
04/02/01	2:30 p	76.4	77.3	75.8	42	51.6	4.0	N	2.00	14.0	76.4	75.7	75.7	29.970	0.00	0.000	0.238	80.5	45	57.2	80.1	30
04/02/01	3:00 p	76.2	76.8	75.7	42	51.4	4.0	N	2.00	13.0	76.2	75.5	75.5	29.953	0.00	0.000	0.233	80.7	45	57.4	80.3	30
04/02/01	3:30 p	76.3	76.7	75.8	41	50.9	3.0	NNE	1.50	13.0	76.3	75.5	75.5	29.949	0.00	0.000	0.235	80.8	45	57.5	80.4	30
04/02/01	4:00 p	76.1	76.6	75.7	44	52.6	3.0	NNE	1.50	9.0	76.1	75.6	75.6	29.945	0.00	0.000	0.231	80.9	45	57.6	80.5	30
04/02/01	4:30 p	75.7	76.5	75.1	45	52.8	3.0	N	1.50	11.0	75.7	75.3	75.3	29.946	0.00	0.000	0.223	80.9	45	57.6	80.5	30
04/02/01	5:00 p	75.1	75.6	74.4	47	53.5	2.0	N	1.00	8.0	75.1	74.9	74.9	29.952	0.00	0.000	0.210	80.7	46	58.0	80.4	30
04/02/01	5:30 p	73.8	74.4	72.8	51	54.5	2.0	NE	1.00	8.0	73.8	73.6	73.6	29.952	0.00	0.000	0.183	80.1	47	58.0	79.9	30
04/02/01	6:00 p	72.1	73.0	71.2	54	54.5	2.0	NNE	1.00	9.0	72.1	71.6	71.6	29.959	0.00	0.000	0.148	78.8	48	57.4	78.8	30
04/02/01	6:30 p	70.8	71.4	70.2	57	54.8	1.0	N	0.50	6.0	70.8	69.9	69.9	29.965	0.00	0.000	0.121	77.5	50	57.4	77.4	30
04/02/01	7:00 p	69.9	70.3	69.6	56	53.5	0.0	N	0.00	2.0	69.9	68.7	68.7	29.976	0.00	0.000	0.102	76.1	53	57.7	76.3	30
04/02/01	7:30 p	69.2	69.8	68.5	62	55.6	0.0	N	0.00	3.0	69.2	68.8	68.8	29.989	0.00	0.000	0.087	75.1	54	57.3	75.5	30
04/02/01	8:00 p	67.8	68.5	67.0	64	55.2	0.0	N	0.00	1.0	67.8	67.9	67.9	29.999	0.00	0.000	0.058	73.8	56	57.1	74.1	30
04/02/01	8:30 p	66.3	67.1	65.6	66	54.6	0.0	---	0.00	0.0	66.3	66.2	66.2	30.013	0.00	0.000	0.027	72.7	57	56.6	72.7	30
04/02/01	9:00 p	64.9	65.7	64.0	70	54.9	0.0	---	0.00	0.0	64.9	64.9	64.9	30.017	0.00	0.002	0.000	71.7	57	55.7	71.2	30
04/02/01	9:30 p	63.2	64.0	62.5	73	54.4	0.0	---	0.00	0.0	63.2	63.1	63.1	30.027	0.00	0.037	0.000	71.1	56	54.6	70.2	30
04/02/01	10:00 p	62.0	62.6	61.4	74	53.6	0.0	---	0.00	0.0	62.0	61.7	61.7	30.038	0.00	0.063	0.000	70.5	55	53.6	69.3	30
04/02/01	10:30 p	61.1	61.7	60.6	76	53.5	0.0	---	0.00	0.0	61.1	60.9	60.9	30.037	0.00	0.081	0.000	69.8	55	52.9	68.6	30
04/02/01	11:00 p	60.3	60.7	59.8	77	53.1	0.0	---	0.00	0.0	60.3	60.0	60.0	30.034	0.00	0.098	0.000	69.2	55	52.3	68.1	30
04/02/01	11:30 p	59.8	60.1	59.4	78	52.9	0.0	---	0.00	0.0	59.8	59.6	59.6	30.040	0.00	0.108	0.000	68.7	56	52.4	67.8	30
04/03/01	12:00 a	59.3	59.7	58.9	78	52.4	0.0	---	0.00	0.0	59.3	59.0	59.0	30.039	0.00	0.119	0.000	68.2	56	51.9	67.5	30
04/03/01	12:30 a	58.9	59.2	58.5	79	52.4	0.0	---	0.00	0.0	58.9	58.6	58.6	30.040	0.00	0.127	0.000	67.7	56	51.4	67.0	30
04/03/01	1:00 a	58.6	58.8	58.2	81	52.8	0.0	---	0.00	0.0	58.6	58.4	58.4	30.034	0.00	0.133	0.000	67.1	57	51.4	66.4	30
04/03/01	1:30 a	58.2	58.5	58.0	80	52.1	0.0	---	0.00	0.0	58.2	58.0	58.0	30.033	0.00	0.142	0.000	66.7	57	51.0	65.9	30
04/03/01	2:00 a	57.8	58.1	57.5	81	52.0	0.0	---	0.00	0.0	57.8	57.6	57.6	30.026	0.00	0.150	0.000	66.3	57	50.6	65.4	30
04/03/01	2:30 a	57.4	57.6	57.2	81	51.6	0.0	---	0.00	0.0	57.4	57.2	57.2	30.024	0.00	0.158	0.000	65.9	57	50.2	65.0	30
04/03/01	3:00 a	57.1	57.3	56.8	81	51.3	0.0	---	0.00	0.0	57.1	56.8	56.8	30.026	0.00	0.165	0.000	65.5	58	50.3	64.6	30
04/03/01	3:30 a	56.8	57.0	56.5	82	51.4	0.0	---	0.00	0.0	56.8	56.6	56.6	30.022	0.00	0.171	0.000	65.1	58	50.0	64.2	30
04/03/01	4:00 a	56.5	56.6	56.2	82	51.1	0.0	---	0.00	0.0	56.5	56.3	56.3	30.032	0.00	0.177	0.000	64.8	58	49.7	63.8	30
04/03/01	4:30 a	56.1	56.3	55.9	82	50.7	0.0	---	0.00	0.0	56.1	55.9	55.9	30.039	0.00	0.185	0.000	64.4	58	49.3	63.4	30
04/03/01	5:00 a	55.8	56.0	55.6	82	50.4	0.0	---	0.00	0.0	55.8	55.6	55.6	30.051	0.00	0.192	0.000	64.1	59	49.5	63.1	30
04/03/01	5:30 a	55.4	55.6	55.1	83	50.3	0.0	---	0.00	0.0	55.4	55.2	55.2	30.062	0.00	0.200	0.000	63.7	59	49.1	62.7	30
04/03/01	6:00 a	55.1	55.3	54.9	83	50.0	0.0	---	0.00	0.0	55.1	54.9	54.9	30.073	0.00	0.206	0.000	63.4	59	48.8	62.3	30
04/03/01	6:30 a	54.8	55.0	54.6	82	49.4	0.0	---	0.00	0.0	54.8	54.6	54.6	30.071	0.00	0.213	0.000	63.1	59	48.5	62.0	30
04/03/01	7:00 a	54.9	55.4	54.6	85	50.5	0.0	---	0.00	0.0	54.9	54.8	54.8	30.077	0.00	0.210	0.000	62.8	59	48.3	61.6	30
04/03/01	7:30 a	56.2	57.3	55.3	91	53.6	0.0	---	0.00	1.0	56.2	56.3	56.3	30.085	0.00	0.183	0.000	62.9	61	49.2	61.9	30
04/03/01	8:00 a	59.1	61.3	57.3	89	55.9	0.0	ENE	0.00	2.0	59.1	59.3	59.3	30.087	0.00	0.123	0.000	63.9	68	53.1	63.6	30
04/03/01	8:30 a	64.0	67.3	61.2	76	56.3	2.0	S	1.00	6.0	64.0	64.2	64.2	30.073	0.00	0.021	0.000	65.6	71	55.9	65.8	30
04/03/01	9:00 a	69.7	71.9	67.3	67	58.3	4.0	SSE	2.00	11.0	69.7	69.6	69.6	30.064	0.00	0.000	0.098	67.5	73	58.5	68.2	30
04/03/01	9:30 a	73.6	75.2	71.7	60	58.9	5.0	SSE	2.50	15.0	73.6	74.2	74.2	30.048	0.00	0.000	0.179	69.4	71	59.6	69.8	30
04/03/01	10:00 a	76.4	77.8	74.9	57	60.0	5.0	SE	2.50	14.0	76.4	76.9	76.9	30.040	0.00	0.000	0.238	71.3	69	60.6	71.7	30
04/03/01	10:30 a	78.8	79.9	77.5	52	59.7	6.0	SSE	3.00	12.0	78.8	79.1	79.1	30.030	0.00	0.000	0.288	73.0	67	61.4	73.9	30
04/03/01	11:00 a	80.7	81.7	79.7	43	56.1	6.0	SSE	3.00	15.0	80.7	80.1	80.1	30.015	0.00	0.000	0.327	74.6	65	62.1	75.9	30
04/03/01	11:30 a	82.0	83.0	81.4	43	57.3	7.0	SE	3.50	19.0	82.0	81.7	81.7	30.004	0.00	0.000	0.354	76.2	61	61.8	77.0	30
04/03/01	12:00 p	83.7	84.9	82.8	39	56.1	6.0	SSE	3.00	16.0	83.7	83.6	83.6	30.012	0.00	0.000	0.390	77.4	59	61.9	78.1	30
04/03/01	12:30 p	85.5	85.9	84.7	42	59.8	5.0	SE	2.50	14.0	85.5	86.0	86.0	29.995	0.00	0.000	0.427	78.6	58	62.6	79.4	30
04/03/01	1:00 p	85.8	86.3	85.2	46	62.6	8.0	ESE	4.00	21.0	85.6	87.1	86.9	29.967	0.00	0.000	0.433	80.1	58	64.0	81.2	30
04/03/01	1:30 p	85.6	86.0	85.0	45	61.8	9.0	ESE	4.50	27.0	85.1	86.7	86.2	29.958	0.00	0.000	0.429	81.3	57	64.6	82.7	30
04/03/01	2:00 p	84.7	85.5	84.1	47	62.2	9.0	ESE	4.50	24.0	84.1	86.0	85.4	29.950	0.00	0.000	0.410	82.1	56	64.8	83.7	30
04/03/01	2:30 p	84.3	85.1	83.7	44	60.0	8.0	ESE	4.00	27.0	84.0	85.2	84.9	29.928	0.00	0.000	0.402	82.6	56	65.3	84.5	30
04/03/01	3:00 p	84.7	85.1	84.2	46	61.6	8.0	SE	4.00	24.0	84.5	85.9	85.7	29.921	0.00	0.000	0.410	83.1	55	65.3	85.1	30
04/03/01	3:30 p	84.8	85.4	84.2	46	61.7	7.0	SE	3.50	21.0	84.8	86.0	86.0	29.919	0.00	0.000	0.413	83.4	55	65.5	85.6	30
04/03/01	4:00 p	84.5	85.4	83.9	45	60.8	7.0	SE	3.50	26.0	84.5	85.6	85.6	29.923	0.00	0.000	0.406	83.7	54	65.3	85.9	30
04/03/01	4:30 p	83.2	84.0	82.5	46	60.3	7.0	SE	3.50	19.0	83.2	84.0	84.0	29.927	0.00	0.000	0.379	83.7	53	64.8	85.8	30
04/03/01	5:00 p	82.5	83.5	81.2	50	62.0	6.0	SE	3.00	24.0	82.5	83.4	83.4	29.926	0.00	0.000	0.365	83.4	53	64.5	85.3	30
04/03/01	5:30 p	81.2	81.7	80.3	52	61.9	6.0	SE	3.00	19.0	81.2	81.8	81.8	29.941	0.00	0.000	0.337	82.8	54	64.5	84.5	30
04/03/01	6:00 p	79.1	80.6	77.8	58	63.1	5.0	SE	2.50	14.0	79.1	80.0	80.0	29.944	0.00	0.000	0.294	81.8	56	64.6	83.3	30
04/03/01	6:30 p	76.9	78.1	75.7	62	62.9	5.0	SE	2.50	15.0	76.9	77.9	77.9	29.942	0.00	0.000	0.248	80.7	57	64.1	81.8	30
04/03/01	7:00 p	74.9	75.9	74.0	64	61.9	4.0	SE	2.00	12.0	74.9	76.1	76.1	29.953	0.00	0.000	0.206	79.5	58	63.4	80.5	30
04/03/01	7:30 p	73.5	74.3	72.9	66	61.4	3.0	SSE	1.50	10.0	73.5	74.5	74.5	29.961	0.00	0.000	0.177	78.4	59	62.9	79.3	30
04/03/01	8:00 p	72.6	73.1	72.1	68	61.4	3.0	SSE	1.50	10.0	72.6	73.4	73.4	29.959	0.00	0.000	0.158	77.6	59	62.1	78.4	30
04/03/01	8:30 p	71.8	72.4	71.3	70	61.5	2.0	SSE	1.00	8.0	71.8	72.4	72.4	29.969	0.00	0.000	0.142	77.0	61	62.5	77.9	30
04/03/01	9:00 p	71.2	71.6	70.8	71	61.3	3.0	SE	1.50	7.0	71.2	71.7	71.7	29.964	0.00	0.000	0.129	76.4	61	62.0	77.2	30
04/03/01	9:30 p	70.7	71.0	70.4	72	61.2	2.0	SSE	1.00	8.0	70.7	71.2	71.2	29.971	0.00	0.000	0.119	75.9	62	61.9	76.8	30
04/03/01	10:00 p	70.5	70.8	70.1	73	61.4	2.0	SSE	1.00	7.0	70.5	71.0	71.0	29.972	0.00	0.000	0.115	75.3	63	61.8	76.4	30
04/03/01	10:30 p	70.2	70.4	69.9	74	61.5	2.0	SSE	1.00	7.0	70.2	70.7	70.7	29.968	0.00	0.000	0.108	74.9	63	61.5	76.0	30
04/03/01	11:00 p	69.9	70.3	69.5	75	61.6	1.0	S	0.50	7.0	69.9	70.5	70.5	29.961	0.00	0.000	0.102	74.5	63	61.1	75.6	30
04/03/01	11:30 p	69.5	69.8	69.1	77	62.0	1.0	S	0.50	5.0	69.5	70.5	70.5	29.971	0.00	0.000	0.094	74.1	63	60.7	75.1	30
04/04/01	12:00 a	68.9	69.4	68.3	77	61.4	0.0	S	0.00	2.0	68.9	70.1	70.1	29.976	0.00	0.000	0.081	73.7	64	60.8	74.7	30
04/04/01	12:30 a	67.9	68.6	67.1	79	61.1	0.0	S	0.00	4.0	67.9	69.1	69.1	29.969	0.00	0.000	0.060	73.1	64	60.2	73.8	30
04/04/01	1:00 a	66.8	67.5	66.2	79	60.1	1.0	S	0.50	4.0	66.8	67.8	67.8	29.968	0.00	0.000	0.038	72.7	64	59.8	73.2	30
04/04/01	1:30 a	66.1	66.6	65.5	80	59.7	0.0	SW	0.00	4.0	66.1	67.0	67.0	29.967	0.00	0.000	0.023	72.1	65	59.7	72.4	30
04/04/01	2:00 a	65.3	65.9	64.9	81	59.3	0.0	SW	0.00	2.0	65.3	66.1	66.1	29.970	0.00	0.000	0.006	71.6	65	59.2	71.7	30
04/04/01	2:30 a	64.9	65.2	64.6	81	58.9	0.0	SW	0.00	3.0	64.9	65.6	65.6	29.957	0.00	0.002	0.000	71.3	64	58.5	71.2	30
04/04/01	3:00 a	64.7	65.0	64.4	82	59.1	1.0	SW	0.50	4.0	64.7	65.4	65.4	29.958	0.00	0.006	0.000	70.9	66	59.0	70.9	30
04/04/01	3:30 a	64.5	64.8	63.9	82	58.9	0.0	SW	0.00	2.0	64.5	65.1	65.1	29.958	0.00	0.010	0.000	70.5	65	58.2	70.3	30
04/04/01	4:00 a	63.8	64.3	63.3	82	58.2	0.0	SW	0.00	1.0	63.8	64.3	64.3	29.974	0.00	0.025	0.000	70.1	65	57.8	69.8	30
04/04/01	4:30 a	63.3	63.7	63.0	83	58.0	0.0	---	0.00	0.0	63.3	63.8	63.8	29.977	0.00	0.035	0.000	69.8	65	57.5	69.5	30
04/04/01	5:00 a	63.1	63.4	62.8	84	58.2	0.0	---	0.00	0.0	63.1	63.6	63.6	29.979	0.00	0.040	0.000	69.5	65	57.2	69.3	30
04/04/01	5:30 a	62.9	63.2	62.6	84	58.0	0.0	---	0.00	0.0	62.9	63.3	63.3	29.988	0.00	0.044	0.000	69.3	65	57.0	69.1	30
04/04/01	6:00 a	62.8	63.1	62.6	85	58.2	0.0	---	0.00	0.0	62.8	63.3	63.3	29.995	0.00	0.046	0.000	69.2	65	56.9	69.1	30
04/04/01	6:30 a	63.0	63.3	62.6	86	58.7	0.0	---	0.00	0.0	63.0	63.5	63.5	29.995	0.00	0.042	0.000	69.0	65	56.7	68.9	30
04/04/01	7:00 a	63.2	63.6	62.9	86	58.9	0.0	---	0.00	0.0	63.2	63.8	63.8	30.017	0.00	0.037	0.000	68.9	66	57.1	68.9	30
04/04/01	7:30 a	63.9	64.5	63.3	86	59.6	0.0	SW	0.00	3.0	63.9	64.5	64.5	30.016	0.00	0.023	0.000	69.0	67	57.6	69.1	30
04/04/01	8:00 a	64.9	65.6	64.1	86	60.6	1.0	SW	0.50	4.0	64.9	65.7	65.7	30.009	0.00	0.002	0.000	69.2	68	58.2	69.3	30
04/04/01	8:30 a	65.8	66.4	65.2	85	61.2	2.0	SW	1.00	7.0	65.8	66.8	66.8	30.004	0.00	0.000	0.017	69.5	69	58.9	69.7	30
04/04/01	9:00 a	66.7	67.4	65.9	83	61.4	2.0	WSW	1.00	7.0	66.7	67.8	67.8	30.009	0.00	0.000	0.035	69.8	70	59.6	70.0	30
04/04/01	9:30 a	67.6	68.3	67.0	82	61.9	2.0	SW	1.00	7.0	67.6	68.9	68.9	29.997	0.00	0.000	0.054	70.2	71	60.4	70.5	30
04/04/01	10:00 a	69.1	70.4	67.8	77	61.6	4.0	SW	2.00	10.0	69.1	70.3	70.3	29.974	0.00	0.000	0.085	70.8	72	61.3	71.3	30
04/04/01	10:30 a	71.0	72.0	70.0	75	62.7	2.0	WSW	1.00	7.0	71.0	71.8	71.8	29.973	0.00	0.000	0.125	71.7	73	62.6	72.5	30
04/04/01	11:00 a	73.0	74.2	71.5	69	62.2	3.0	SW	1.50	10.0	73.0	74.0	74.0	29.968	0.00	0.000	0.167	72.6	72	63.1	73.7	30
04/04/01	11:30 a	75.3	76.5	73.9	62	61.4	3.0	SW	1.50	9.0	75.3	76.3	76.3	29.967	0.00	0.000	0.215	73.7	70	63.3	75.1	30
04/04/01	12:00 p	76.8	77.6	76.2	61	62.3	1.0	SW	0.50	7.0	76.8	77.7	77.7	29.959	0.00	0.000	0.246	74.7	69	63.9	76.3	30
04/04/01	12:30 p	77.9	79.1	77.3	60	62.9	1.0	WSW	0.50	4.0	77.9	78.8	78.8	29.954	0.00	0.000	0.269	75.5	68	64.2	77.1	30
04/04/01	1:00 p	79.9	82.0	78.7	55	62.3	1.0	NW	0.50	5.0	79.9	80.6	80.6	29.941	0.00	0.000	0.310	76.6	67	64.8	78.1	30
04/04/01	1:30 p	83.2	84.3	81.7	52	63.7	1.0	NNW	0.50	7.0	83.2	84.8	84.8	29.921	0.00	0.000	0.379	78.4	66	66.1	80.0	30
04/04/01	2:00 p	82.1	83.0	80.3	61	67.3	3.0	NE	1.50	10.0	82.1	84.6	84.6	29.922	0.00	0.000	0.356	80.1	67	68.2	82.4	30
04/04/01	2:30 p	79.5	80.5	78.6	61	64.9	3.0	ENE	1.50	10.0	79.5	80.8	80.8	29.914	0.00	0.000	0.302	80.9	65	68.0	83.4	30
04/04/01	3:00 p	77.8	78.7	77.2	56	60.8	3.0	NE	1.50	11.0	77.8	78.3	78.3	29.912	0.00	0.000	0.267	80.7	64	67.4	82.9	30
04/04/01	3:30 p	77.4	77.9	77.1	51	57.9	2.0	NE	1.00	9.0	77.4	77.4	77.4	29.909	0.00	0.000	0.258	80.3	59	64.7	81.6	30
04/04/01	4:00 p	77.5	78.0	76.9	46	55.1	2.0	NE	1.00	8.0	77.5	77.1	77.1	29.902	0.00	0.000	0.260	80.0	56	62.9	80.8	30
04/04/01	4:30 p	77.3	77.9	76.7	46	54.9	2.0	NE	1.00	8.0	77.3	76.9	76.9	29.898	0.00	0.000	0.256	79.9	55	62.3	80.6	30
04/04/01	5:00 p	77.0	77.7	76.2	50	56.9	2.0	NE	1.00	7.0	77.0	76.8	76.8	29.907	0.00	0.000	0.250	79.8	54	61.7	80.4	30
04/04/01	5:30 p	76.1	76.5	75.5	52	57.2	2.0	NE	1.00	9.0	76.1	76.2	76.2	29.913	0.00	0.000	0.231	79.3	53	60.7	79.7	30
04/04/01	6:00 p	75.8	76.0	75.4	53	57.4	1.0	ESE	0.50	8.0	75.8	76.0	76.0	29.918	0.00	0.000	0.225	78.9	55	61.4	79.5	30
04/04/01	6:30 p	75.0	75.8	74.1	57	58.7	1.0	ESE	0.50	5.0	75.0	75.7	75.7	29.924	0.00	0.000	0.208	78.1	55	60.6	78.6	30
04/04/01	7:00 p	73.4	74.3	72.6	62	59.6	0.0	---	0.00	0.0	73.4	74.1	74.1	29.929	0.00	0.000	0.175	77.1	58	61.2	77.7	30
04/04/01	7:30 p	72.1	72.6	71.4	65	59.7	0.0	---	0.00	1.0	72.1	72.4	72.4	29.935	0.00	0.000	0.148	76.6	57	60.2	77.1	30
04/04/01	8:00 p	70.8	71.6	70.3	67	59.3	0.0	---	0.00	0.0	70.8	70.9	70.9	29.946	0.00	0.000	0.121	76.0	58	60.2	76.5	30
04/04/01	8:30 p	70.2	70.6	69.9	71	60.4	0.0	---	0.00	0.0	70.2	70.5	70.5	29.955	0.00	0.000	0.108	75.5	59	60.2	76.2	30
04/04/01	9:00 p	70.0	70.3	69.8	73	60.9	0.0	ESE	0.00	2.0	70.0	70.4	70.4	29.953	0.00	0.000	0.104	75.1	59	59.8	75.9	30
04/04/01	9:30 p	70.2	70.4	70.0	74	61.5	0.0	ESE	0.00	1.0	70.2	70.7	70.7	29.963	0.00	0.000	0.108	74.8	61	60.4	75.7	30
04/04/01	10:00 p	70.1	70.4	69.8	75	61.8	0.0	---	0.00	0.0	70.1	70.7	70.7	29.970	0.00	0.000	0.106	74.6	62	60.7	75.6	30
04/04/01	10:30 p	69.9	70.2	69.7	75	61.6	0.0	---	0.00	0.0	69.9	70.5	70.5	29.974	0.00	0.000	0.102	74.4	63	61.0	75.5	30
04/04/01	11:00 p	69.8	70.1	69.4	76	61.9	0.0	---	0.00	0.0	69.8	70.6	70.6	29.977	0.00	0.000	0.100	74.2	63	60.8	75.2	30
04/04/01	11:30 p	69.1	69.8	68.5	78	61.9	0.0	---	0.00	1.0	69.1	70.4	70.4	29.981	0.00	0.000	0.085	73.9	64	61.0	75.0	30
04/05/01	12:00 a	68.5	68.9	68.1	80	62.1	0.0	---	0.00	0.0	68.5	69.9	69.9	29.986	0.00	0.000	0.073	73.5	64	60.6	74.4	30
04/05/01	12:30 a	68.4	68.7	68.1	83	63.0	0.0	N	0.00	3.0	68.4	69.9	69.9	29.984	0.00	0.000	0.071	73.2	65	60.7	74.0	30
04/05/01	1:00 a	68.7	69.0	68.4	84	63.7	0.0	N	0.00	3.0	68.7	70.4	70.4	29.975	0.00	0.000	0.077	73.1	66	61.1	73.9	30
04/05/01	1:30 a	68.4	68.9	67.8	86	64.0	0.0	N	0.00	2.0	68.4	70.1	70.1	29.964	0.00	0.000	0.071	72.9	66	60.9	73.6	30
04/05/01	2:00 a	67.8	68.1	67.5	86	63.5	0.0	N	0.00	3.0	67.8	69.3	69.3	29.954	0.00	0.000	0.058	72.5	67	60.9	73.2	30
04/05/01	2:30 a	67.6	67.9	67.3	86	63.3	0.0	N	0.00	4.0	67.6	69.1	69.1	29.949	0.00	0.000	0.054	72.2	68	61.0	72.8	30
04/05/01	3:00 a	67.1	67.6	66.7	86	62.8	0.0	N	0.00	2.0	67.1	68.5	68.5	29.949	0.00	0.000	0.044	71.9	67	60.3	72.3	30
04/05/01	3:30 a	66.6	67.1	66.1	85	61.9	0.0	N	0.00	2.0	66.6	67.8	67.8	29.952	0.00	0.000	0.033	71.5	68	60.4	71.9	30
04/05/01	4:00 a	65.9	66.5	65.4	86	61.6	0.0	N	0.00	2.0	65.9	66.9	66.9	29.958	0.00	0.000	0.019	71.2	68	60.1	71.5	30
04/05/01	4:30 a	65.3	65.7	64.7	87	61.3	0.0	N	0.00	2.0	65.3	66.3	66.3	29.970	0.00	0.000	0.006	70.8	68	59.7	70.9	30
04/05/01	5:00 a	64.7	65.2	64.2	87	60.7	0.0	N	0.00	3.0	64.7	65.5	65.5	29.983	0.00	0.006	0.000	70.5	69	59.8	70.7	30
04/05/01	5:30 a	64.4	64.6	64.0	86	60.1	0.0	N	0.00	2.0	64.4	65.1	65.1	29.988	0.00	0.012	0.000	70.2	68	59.1	70.2	30
04/05/01	6:00 a	63.8	64.3	63.4	86	59.5	0.0	N	0.00	3.0	63.8	64.4	64.4	30.002	0.00	0.025	0.000	69.9	68	58.9	69.9	30
04/05/01	6:30 a	63.6	63.8	63.2	88	60.0	0.0	N	0.00	3.0	63.6	64.3	64.3	30.008	0.00	0.029	0.000	69.6	68	58.6	69.6	30
04/05/01	7:00 a	63.7	64.1	63.3	89	60.4	1.0	N	0.50	3.0	63.7	64.4	64.4	30.024	0.00	0.027	0.000	69.5	68	58.5	69.6	30
04/05/01	7:30 a	64.5	65.4	63.7	91	61.8	1.0	N	0.50	5.0	64.5	65.4	65.4	30.031	0.00	0.010	0.000	69.6	68	58.6	69.6	30
04/05/01	8:00 a	66.4	67.8	65.1	91	63.7	1.0	NNW	0.50	6.0	66.4	67.8	67.8	30.029	0.00	0.000	0.029	70.1	70	59.9	70.2	30
04/05/01	8:30 a	69.5	71.4	67.6	84	64.5	2.0	N	1.00	8.0	69.5	71.1	71.1	30.030	0.00	0.000	0.094	71.2	80	64.7	72.5	30
04/05/01	9:00 a	72.7	74.4	71.2	78	65.4	2.0	N	1.00	7.0	72.7	74.2	74.2	30.029	0.00	0.000	0.160	72.7	82	66.9	74.5	30
04/05/01	9:30 a	75.0	76.0	73.9	74	66.1	2.0	N	1.00	9.0	75.0	77.0	77.0	30.031	0.00	0.000	0.208	74.1	82	68.3	76.2	30
04/05/01	10:00 a	76.2	77.3	75.3	69	65.3	3.0	N	1.50	9.0	76.2	77.9	77.9	30.023	0.00	0.000	0.233	75.4	79	68.4	78.0	30
04/05/01	10:30 a	77.9	78.9	77.0	70	67.3	3.0	N	1.50	10.0	77.9	79.9	79.9	30.023	0.00	0.000	0.269	76.8	78	69.4	79.6	30
04/05/01	11:00 a	78.9	79.9	77.9	69	67.9	3.0	NE	1.50	11.0	78.9	81.1	81.1	30.016	0.00	0.000	0.290	78.2	77	70.4	81.2	30
04/05/01	11:30 a	79.0	80.6	78.0	67	67.1	3.0	NE	1.50	14.0	79.0	80.9	80.9	30.001	0.00	0.000	0.292	79.3	75	70.7	82.5	30
04/05/01	12:00 p	81.2	82.1	80.2	63	67.4	3.0	ENE	1.50	13.0	81.2	83.5	83.5	29.998	0.00	0.000	0.337	80.4	74	71.3	84.1	30
04/05/01	12:30 p	82.7	83.5	81.7	63	68.8	4.0	ENE	2.00	13.0	82.7	85.9	85.9	29.987	0.00	0.000	0.369	81.7	72	71.8	86.2	30
04/05/01	1:00 p	83.0	83.9	82.0	60	67.7	5.0	ENE	2.50	16.0	83.0	85.7	85.7	29.979	0.00	0.000	0.375	82.9	69	71.7	87.9	30
04/05/01	1:30 p	83.2	83.9	82.6	61	68.3	6.0	ENE	3.00	16.0	83.2	86.4	86.4	29.971	0.00	0.000	0.379	83.8	67	71.7	89.4	30
04/05/01	2:00 p	83.2	84.0	82.1	58	66.9	7.0	E	3.50	17.0	83.2	85.8	85.8	29.963	0.00	0.000	0.379	84.4	66	71.8	90.3	30
04/05/01	2:30 p	82.6	83.7	81.1	61	67.8	5.0	ENE	2.50	20.0	82.6	85.3	85.3	29.954	0.00	0.000	0.367	84.7	64	71.2	90.2	30
04/05/01	3:00 p	82.2	82.7	81.1	59	66.4	7.0	ESE	3.50	21.0	82.2	84.3	84.3	29.944	0.00	0.000	0.358	84.6	63	70.6	89.7	30
04/05/01	3:30 p	82.3	82.9	81.0	60	67.0	7.0	ESE	3.50	19.0	82.3	84.7	84.7	29.937	0.00	0.000	0.360	84.6	62	70.1	89.4	30
04/05/01	4:00 p	80.9	82.4	78.7	65	68.0	5.0	ENE	2.50	15.0	80.9	83.4	83.4	29.940	0.00	0.000	0.331	84.3	61	69.4	88.5	30
04/05/01	4:30 p	78.6	79.1	78.2	66	66.3	6.0	E	3.00	19.0	78.6	80.3	80.3	29.943	0.00	0.000	0.283	83.4	63	69.5	87.3	30
04/05/01	5:00 p	78.0	78.6	77.5	67	66.2	5.0	ESE	2.50	17.0	78.0	79.6	79.6	29.937	0.00	0.000	0.271	82.6	64	69.2	86.0	30
04/05/01	5:30 p	78.0	78.4	77.3	67	66.2	5.0	E	2.50	16.0	78.0	79.6	79.6	29.941	0.00	0.000	0.271	82.3	64	68.9	85.5	30
04/05/01	6:00 p	76.9	77.7	76.3	69	66.0	3.0	ENE	1.50	13.0	76.9	78.7	78.7	29.951	0.00	0.000	0.248	81.7	64	68.3	84.5	30
04/05/01	6:30 p	75.6	76.3	74.7	72	65.9	3.0	ENE	1.50	8.0	75.6	77.6	77.6	29.960	0.00	0.000	0.221	80.7	65	67.8	83.0	30
04/05/01	7:00 p	74.4	75.1	73.9	73	65.2	2.0	ENE	1.00	8.0	74.4	76.2	76.2	29.967	0.00	0.000	0.196	79.7	66	67.3	81.7	30
04/05/01	7:30 p	73.8	74.2	73.3	74	65.0	2.0	E	1.00	8.0	73.8	75.6	75.6	29.977	0.00	0.000	0.183	78.8	67	66.9	80.7	30
04/05/01	8:00 p	73.3	73.6	73.1	74	64.5	2.0	E	1.00	8.0	73.3	74.8	74.8	29.989	0.00	0.000	0.173	78.2	68	66.8	80.0	30
04/05/01	8:30 p	73.0	73.4	72.6	76	65.0	1.0	E	0.50	7.0	73.0	74.6	74.6	29.998	0.00	0.000	0.167	77.7	68	66.3	79.4	30
04/05/01	9:00 p	72.7	73.0	72.5	76	64.7	2.0	ENE	1.00	10.0	72.7	74.1	74.1	30.004	0.00	0.000	0.160	77.4	69	66.4	79.2	30
04/05/01	9:30 p	72.6	72.9	72.3	76	64.6	2.0	ENE	1.00	10.0	72.6	74.0	74.0	30.007	0.00	0.000	0.158	77.6	69	66.6	79.4	30
04/05/01	10:00 p	72.4	72.7	72.0	75	64.0	2.0	E	1.00	9.0	72.4	73.6	73.6	30.009	0.00	0.000	0.154	77.5	69	66.5	79.3	30
04/05/01	10:30 p	72.1	72.4	71.8	77	64.5	1.0	E	0.50	7.0	72.1	73.3	73.3	30.007	0.00	0.000	0.148	77.1	69	66.1	78.9	30
04/05/01	11:00 p	71.9	72.3	71.5	78	64.7	2.0	ESE	1.00	7.0	71.9	73.1	73.1	30.006	0.00	0.000	0.144	76.6	70	66.1	78.5	30
04/05/01	11:30 p	71.7	71.9	71.3	78	64.5	1.0	E	0.50	7.0	71.7	72.9	72.9	30.007	0.00	0.000	0.140	76.2	70	65.7	78.0	30
04/06/01	12:00 a	71.5	71.8	71.1	79	64.6	2.0	ESE	1.00	10.0	71.5	72.8	72.8	30.011	0.00	0.000	0.135	75.8	71	65.7	77.7	30
04/06/01	12:30 a	71.4	71.8	71.1	78	64.2	2.0	ESE	1.00	9.0	71.4	72.6	72.6	30.013	0.00	0.000	0.133	75.6	71	65.5	77.5	30
04/06/01	1:00 a	71.6	71.8	71.3	76	63.6	5.0	ESE	2.50	15.0	71.6	72.6	72.6	30.011	0.00	0.000	0.137	75.3	72	65.6	77.2	30
04/06/01	1:30 a	71.5	71.8	71.1	77	63.9	3.0	ESE	1.50	13.0	71.5	72.6	72.6	30.005	0.00	0.000	0.135	75.2	71	65.1	77.0	30
04/06/01	2:00 a	71.1	71.6	70.7	78	63.9	2.0	ESE	1.00	10.0	71.1	72.2	72.2	29.997	0.00	0.000	0.127	74.9	72	65.3	76.7	30
04/06/01	2:30 a	70.8	71.1	70.4	78	63.6	3.0	ESE	1.50	10.0	70.8	71.9	71.9	29.991	0.00	0.000	0.121	74.6	72	65.0	76.4	30
04/06/01	3:00 a	70.5	70.9	70.1	79	63.7	2.0	ESE	1.00	8.0	70.5	71.6	71.6	29.996	0.00	0.000	0.115	74.4	72	64.8	76.2	30
04/06/01	3:30 a	70.2	70.5	69.9	78	63.0	1.0	E	0.50	7.0	70.2	71.1	71.1	30.000	0.00	0.000	0.108	74.1	72	64.5	75.8	30
04/06/01	4:00 a	70.0	70.3	69.6	79	63.2	1.0	ESE	0.50	7.0	70.0	71.0	71.0	29.995	0.00	0.000	0.104	73.9	72	64.3	75.6	30
04/06/01	4:30 a	69.7	70.1	69.5	79	62.9	3.0	ESE	1.50	12.0	69.7	70.8	70.8	29.995	0.00	0.000	0.098	73.6	72	64.0	75.1	30
04/06/01	5:00 a	69.9	70.2	69.5	78	62.7	2.0	ESE	1.00	12.0	69.9	70.8	70.8	30.007	0.00	0.000	0.102	73.4	73	64.2	74.9	30
04/06/01	5:30 a	69.9	70.2	69.6	76	62.0	3.0	ESE	1.50	12.0	69.9	70.6	70.6	30.019	0.00	0.000	0.102	73.3	73	64.1	74.8	30
04/06/01	6:00 a	69.6	70.1	69.2	77	62.1	1.0	ESE	0.50	11.0	69.6	70.6	70.6	30.032	0.00	0.000	0.096	73.1	72	63.5	74.4	30
04/06/01	6:30 a	69.4	69.7	69.1	76	61.5	1.0	E	0.50	5.0	69.4	70.3	70.3	30.045	0.00	0.000	0.092	72.9	72	63.3	74.1	30
04/06/01	7:00 a	69.6	70.1	69.2	76	61.7	2.0	E	1.00	9.0	69.6	70.5	70.5	30.050	0.00	0.000	0.096	72.8	72	63.2	74.0	30
04/06/01	7:30 a	70.4	71.2	69.6	72	60.9	3.0	ESE	1.50	11.0	70.4	70.8	70.8	30.061	0.00	0.000	0.113	72.8	72	63.2	74.0	30
04/06/01	8:00 a	71.6	72.4	70.8	69	60.9	4.0	ESE	2.00	13.0	71.6	72.1	72.1	30.060	0.00	0.000	0.137	73.5	73	64.3	75.1	30
04/06/01	8:30 a	73.6	75.0	72.0	66	61.5	6.0	ESE	3.00	21.0	73.6	74.7	74.7	30.064	0.00	0.000	0.179	74.5	73	65.3	76.4	30
04/06/01	9:00 a	75.7	76.9	74.6	63	62.2	6.0	ESE	3.00	19.0	75.7	76.7	76.7	30.068	0.00	0.000	0.223	75.7	72	66.0	77.7	30
04/06/01	9:30 a	77.6	78.5	76.6	59	62.1	7.0	ESE	3.50	18.0	77.6	78.4	78.4	30.067	0.00	0.000	0.262	76.8	70	66.3	78.7	30
04/06/01	10:00 a	78.4	79.0	78.0	58	62.4	6.0	E	3.00	17.0	78.4	79.2	79.2	30.071	0.00	0.000	0.279	77.9	69	66.9	79.8	30
04/06/01	10:30 a	79.3	80.1	78.5	58	63.2	6.0	ESE	3.00	20.0	79.3	80.2	80.2	30.069	0.00	0.000	0.298	79.0	67	67.1	80.9	30
04/06/01	11:00 a	80.1	80.7	79.3	55	62.5	5.0	E	2.50	18.0	80.1	80.8	80.8	30.066	0.00	0.000	0.315	80.2	66	67.8	82.4	30
04/06/01	11:30 a	80.8	82.3	79.4	52	61.5	6.0	ENE	3.00	19.0	80.8	81.3	81.3	30.052	0.00	0.000	0.329	81.1	64	67.8	83.5	30
04/06/01	12:00 p	82.2	82.7	81.4	54	63.9	6.0	E	3.00	20.0	82.2	83.5	83.5	30.038	0.00	0.000	0.358	82.1	63	68.3	85.0	30
04/06/01	12:30 p	83.0	83.9	82.0	53	64.1	7.0	ESE	3.50	24.0	83.0	84.6	84.6	30.029	0.00	0.000	0.375	83.0	61	68.2	85.9	30
04/06/01	1:00 p	82.6	83.7	81.9	52	63.2	7.0	ENE	3.50	20.0	82.6	83.9	83.9	30.014	0.00	0.000	0.367	83.5	60	68.2	86.7	30
04/06/01	1:30 p	83.0	83.6	82.3	51	63.0	7.0	E	3.50	26.0	83.0	84.3	84.3	30.004	0.00	0.000	0.375	84.0	59	68.1	87.5	30
04/06/01	2:00 p	82.8	83.5	82.1	51	62.8	6.0	ESE	3.00	21.0	82.8	84.0	84.0	30.006	0.00	0.000	0.371	84.5	58	68.1	88.0	30
04/06/01	2:30 p	83.8	84.9	82.8	50	63.2	6.0	ESE	3.00	19.0	83.8	85.5	85.5	29.999	0.00	0.000	0.392	84.9	58	68.5	88.6	30
04/06/01	3:00 p	82.1	84.1	80.9	51	62.2	6.0	ENE	3.00	20.0	82.1	82.9	82.9	29.993	0.00	0.000	0.356	85.0	57	68.1	88.5	30
04/06/01	3:30 p	83.3	83.9	82.5	50	62.7	6.0	E	3.00	20.0	83.3	84.7	84.7	29.987	0.00	0.000	0.381	85.0	56	67.5	88.2	30
04/06/01	4:00 p	82.5	83.3	81.5	54	64.2	6.0	ESE	3.00	17.0	82.5	84.0	84.0	29.981	0.00	0.000	0.365	85.2	56	67.7	88.6	30
04/06/01	4:30 p	81.7	82.3	80.9	54	63.4	5.0	ESE	2.50	16.0	81.7	82.8	82.8	29.978	0.00	0.000	0.348	85.1	56	67.6	88.4	30
04/06/01	5:00 p	81.0	81.5	80.3	56	63.8	6.0	ESE	3.00	17.0	81.0	82.1	82.1	29.975	0.00	0.000	0.333	84.6	56	67.2	87.6	30
04/06/01	5:30 p	80.2	80.8	79.3	57	63.6	7.0	ESE	3.50	18.0	80.2	81.2	81.2	29.976	0.00	0.000	0.317	83.8	57	66.9	86.7	30
04/06/01	6:00 p	77.9	79.3	76.8	62	63.8	5.0	ESE	2.50	18.0	77.9	79.0	79.0	29.986	0.00	0.000	0.269	82.6	58	66.3	84.8	30
04/06/01	6:30 p	76.2	77.1	75.3	65	63.6	3.0	ESE	1.50	18.0	76.2	77.4	77.4	29.983	0.00	0.000	0.233	81.4	59	65.7	83.1	30
04/06/01	7:00 p	74.9	75.7	74.2	67	63.2	4.0	ESE	2.00	13.0	74.9	76.3	76.3	29.987	0.00	0.000	0.206	80.3	60	65.1	81.7	30
04/06/01	7:30 p	73.9	74.6	73.3	68	62.7	4.0	ESE	2.00	15.0	73.9	75.3	75.3	29.998	0.00	0.000	0.185	79.3	61	64.7	80.6	30
04/06/01	8:00 p	73.1	73.6	72.7	69	62.3	3.0	ESE	1.50	11.0	73.1	74.2	74.2	30.000	0.00	0.000	0.169	78.5	61	63.9	79.6	30
04/06/01	8:30 p	72.6	73.0	72.1	68	61.4	3.0	ESE	1.50	14.0	72.6	73.4	73.4	30.012	0.00	0.000	0.158	78.0	61	63.5	79.0	30
04/06/01	9:00 p	72.1	72.5	71.7	68	61.0	4.0	ESE	2.00	14.0	72.1	72.7	72.7	30.020	0.00	0.000	0.148	77.4	62	63.4	78.4	30
04/06/01	9:30 p	71.8	72.2	71.4	69	61.1	2.0	ESE	1.00	9.0	71.8	72.4	72.4	30.024	0.00	0.000	0.142	76.9	62	62.9	77.9	30
04/06/01	10:00 p	71.4	71.7	71.0	71	61.5	3.0	ESE	1.50	11.0	71.4	72.0	72.0	30.023	0.00	0.000	0.133	76.5	63	63.0	77.6	30
04/06/01	10:30 p	71.1	71.4	70.8	74	62.4	4.0	ESE	2.00	13.0	71.1	71.8	71.8	30.026	0.00	0.000	0.127	76.1	64	63.0	77.2	30
04/06/01	11:00 p	70.9	71.2	70.5	75	62.6	2.0	ESE	1.00	7.0	70.9	71.7	71.7	30.032	0.00	0.000	0.123	75.8	64	62.8	76.9	30
04/06/01	11:30 p	70.6	71.0	70.2	75	62.3	2.0	ESE	1.00	7.0	70.6	71.3	71.3	30.032	0.00	0.000	0.117	75.5	65	62.9	76.8	30
04/07/01	12:00 a	70.3	70.7	70.0	76	62.4	2.0	ESE	1.00	7.0	70.3	71.1	71.1	30.039	0.00	0.000	0.110	75.2	66	63.1	76.6	30
04/07/01	12:30 a	70.1	70.4	69.8	77	62.6	2.0	SE	1.00	7.0	70.1	70.9	70.9	30.034	0.00	0.000	0.106	74.9	66	62.8	76.3	30
04/07/01	1:00 a	69.9	70.3	69.5	79	63.1	1.0	ESE	0.50	6.0	69.9	70.9	70.9	30.029	0.00	0.000	0.102	74.6	66	62.5	75.9	30
04/07/01	1:30 a	69.7	70.0	69.4	79	62.9	2.0	ESE	1.00	7.0	69.7	70.8	70.8	30.020	0.00	0.000	0.098	74.4	67	62.7	75.8	30
04/07/01	2:00 a	69.5	69.9	69.2	79	62.7	1.0	ESE	0.50	5.0	69.5	70.7	70.7	30.021	0.00	0.000	0.094	74.1	67	62.4	75.5	30
04/07/01	2:30 a	69.2	69.6	68.8	79	62.4	1.0	ESE	0.50	5.0	69.2	70.5	70.5	30.012	0.00	0.000	0.087	73.8	67	62.2	75.1	30
04/07/01	3:00 a	69.0	69.3	68.5	80	62.6	1.0	ESE	0.50	4.0	69.0	70.5	70.5	30.006	0.00	0.000	0.083	73.5	67	61.9	74.6	30
04/07/01	3:30 a	68.7	69.0	68.3	80	62.3	1.0	ESE	0.50	5.0	68.7	70.1	70.1	30.007	0.00	0.000	0.077	73.3	68	62.1	74.4	30
04/07/01	4:00 a	68.5	68.9	68.1	81	62.4	0.0	ESE	0.00	4.0	68.5	69.9	69.9	30.009	0.00	0.000	0.073	73.0	68	61.8	73.9	30
04/07/01	4:30 a	67.8	68.3	67.3	82	62.1	0.0	ESE	0.00	1.0	67.8	69.1	69.1	30.015	0.00	0.000	0.058	72.7	68	61.5	73.5	30
04/07/01	5:00 a	67.1	67.6	66.5	82	61.4	0.0	ESE	0.00	1.0	67.1	68.3	68.3	30.018	0.00	0.000	0.044	72.4	68	61.2	73.1	30
04/07/01	5:30 a	66.3	66.8	65.7	83	61.0	0.0	---	0.00	0.0	66.3	67.3	67.3	30.027	0.00	0.000	0.027	72.1	68	61.0	72.7	30
04/07/01	6:00 a	65.7	66.1	65.2	84	60.7	0.0	---	0.00	0.0	65.7	66.6	66.6	30.039	0.00	0.000	0.015	71.9	68	60.8	72.4	30
04/07/01	6:30 a	65.2	65.6	64.8	83	59.9	0.0	---	0.00	0.0	65.2	66.0	66.0	30.046	0.00	0.000	0.004	71.6	68	60.5	72.0	30
04/07/01	7:00 a	65.2	65.6	64.8	84	60.2	0.0	---	0.00	0.0	65.2	66.0	66.0	30.053	0.00	0.000	0.004	71.8	68	60.7	72.3	30
04/07/01	7:30 a	66.3	67.9	65.2	86	62.0	0.0	ESE	0.00	5.0	66.3	67.4	67.4	30.059	0.00	0.000	0.027	72.3	69	61.6	73.0	30
04/07/01	8:00 a	69.2	70.5	67.6	78	62.0	2.0	E	1.00	9.0	69.2	70.4	70.4	30.059	0.00	0.000	0.087	73.2	69	62.4	74.3	30
04/07/01	8:30 a	72.4	74.1	70.4	72	62.9	4.0	ESE	2.00	13.0	72.4	73.4	73.4	30.059	0.00	0.000	0.154	74.4	71	64.4	76.1	30
04/07/01	9:00 a	75.6	77.2	74.0	67	63.9	4.0	ESE	2.00	14.0	75.6	77.0	77.0	30.058	0.00	0.000	0.221	75.9	73	66.6	78.0	30
04/07/01	9:30 a	78.1	79.0	76.9	63	64.5	6.0	SE	3.00	17.0	78.1	79.3	79.3	30.057	0.00	0.000	0.273	77.5	71	67.4	79.6	30
04/07/01	10:00 a	79.8	81.0	78.9	60	64.7	6.0	ESE	3.00	14.0	79.8	81.1	81.1	30.048	0.00	0.000	0.308	78.9	70	68.3	81.2	30
04/07/01	10:30 a	81.3	81.9	80.5	59	65.6	5.0	SE	2.50	15.0	81.3	83.0	83.0	30.040	0.00	0.000	0.340	80.4	69	69.3	83.2	30
04/07/01	11:00 a	82.2	83.2	81.5	57	65.4	7.0	ESE	3.50	21.0	82.2	84.0	84.0	30.038	0.00	0.000	0.358	81.7	67	69.7	85.1	30
04/07/01	11:30 a	83.7	84.5	82.8	56	66.3	6.0	ESE	3.00	19.0	83.7	86.3	86.3	30.029	0.00	0.000	0.390	82.8	66	70.3	86.8	30
04/07/01	12:00 p	84.4	85.7	83.3	54	65.9	6.0	ESE	3.00	18.0	84.4	86.9	86.9	30.027	0.00	0.000	0.404	83.9	65	70.9	89.0	30
04/07/01	12:30 p	85.4	86.1	84.3	55	67.4	6.0	ESE	3.00	16.0	85.4	88.6	88.6	30.022	0.00	0.000	0.425	84.8	64	71.3	90.4	30
04/07/01	1:00 p	84.7	85.3	84.0	56	67.3	6.0	ESE	3.00	17.0	84.7	87.8	87.8	30.010	0.00	0.000	0.410	85.8	63	71.7	92.2	30
04/07/01	1:30 p	84.7	85.4	84.0	55	66.7	5.0	E	2.50	18.0	84.7	87.5	87.5	30.005	0.00	0.000	0.410	86.4	61	71.4	92.7	30
04/07/01	2:00 p	85.9	87.1	84.8	53	66.8	6.0	ESE	3.00	20.0	85.9	88.9	88.9	29.992	0.00	0.000	0.435	87.0	61	71.9	94.0	30
04/07/01	2:30 p	84.7	85.9	83.8	55	66.7	5.0	ENE	2.50	20.0	84.7	87.5	87.5	29.987	0.00	0.000	0.410	87.5	59	71.4	93.9	30
04/07/01	3:00 p	85.5	86.1	84.9	53	66.4	7.0	ESE	3.50	19.0	85.5	88.3	88.3	29.981	0.00	0.000	0.427	87.8	59	71.7	94.3	30
04/07/01	3:30 p	84.6	86.3	83.7	55	66.7	6.0	E	3.00	19.0	84.6	87.4	87.4	29.976	0.00	0.000	0.408	88.0	58	71.4	94.2	30
04/07/01	4:00 p	84.0	84.5	83.2	56	66.6	6.0	ESE	3.00	18.0	84.0	86.8	86.8	29.971	0.00	0.000	0.396	87.9	58	71.3	94.1	30
04/07/01	4:30 p	83.1	83.8	82.1	56	65.8	6.0	ESE	3.00	18.0	83.1	85.2	85.2	29.970	0.00	0.000	0.377	87.8	57	70.7	93.6	30
04/07/01	5:00 p	82.6	83.0	82.2	57	65.8	6.0	ESE	3.00	19.0	82.6	84.6	84.6	29.967	0.00	0.000	0.367	87.4	57	70.3	93.0	30
04/07/01	5:30 p	81.6	82.5	80.6	59	65.9	6.0	ESE	3.00	18.0	81.6	83.4	83.4	29.971	0.00	0.000	0.346	86.5	57	69.5	91.5	30
04/07/01	6:00 p	79.8	80.8	78.7	62	65.6	6.0	ESE	3.00	20.0	79.8	81.3	81.3	29.970	0.00	0.000	0.308	84.7	58	68.3	88.3	30
04/07/01	6:30 p	77.7	78.9	76.9	63	64.1	5.0	ESE	2.50	18.0	77.7	78.9	78.9	29.981	0.00	0.000	0.265	82.9	59	67.1	85.4	30
04/07/01	7:00 p	76.3	77.1	75.5	65	63.7	4.0	ESE	2.00	11.0	76.3	77.5	77.5	29.988	0.00	0.000	0.235	81.8	61	67.0	84.1	30
04/07/01	7:30 p	75.1	75.8	74.3	65	62.5	4.0	ESE	2.00	16.0	75.1	76.4	76.4	29.991	0.00	0.000	0.210	80.6	61	65.9	82.3	30
04/07/01	8:00 p	74.0	74.5	73.6	67	62.3	3.0	ESE	1.50	11.0	74.0	75.4	75.4	29.996	0.00	0.000	0.188	80.1	61	65.4	81.6	30
04/07/01	8:30 p	73.5	73.9	73.1	68	62.3	3.0	SE	1.50	9.0	73.5	74.7	74.7	30.002	0.00	0.000	0.177	79.7	61	65.1	81.1	30
04/07/01	9:00 p	73.1	73.4	72.7	68	61.9	3.0	SE	1.50	9.0	73.1	74.1	74.1	30.016	0.00	0.000	0.169	79.3	61	64.7	80.6	30
04/07/01	9:30 p	72.7	73.1	72.4	69	61.9	2.0	SE	1.00	10.0	72.7	73.6	73.6	30.017	0.00	0.000	0.160	78.9	61	64.3	80.1	30
04/07/01	10:00 p	72.4	72.7	71.9	70	62.1	0.0	SE	0.00	4.0	72.4	73.3	73.3	30.020	0.00	0.000	0.154	78.6	61	64.0	79.7	30
04/07/01	10:30 p	71.5	72.2	70.8	73	62.4	0.0	SE	0.00	3.0	71.5	72.3	72.3	30.020	0.00	0.000	0.135	78.2	61	63.6	79.2	30
04/07/01	11:00 p	70.8	71.2	70.3	75	62.5	0.0	SE	0.00	3.0	70.8	71.6	71.6	30.025	0.00	0.000	0.121	77.4	62	63.4	78.4	30
04/07/01	11:30 p	70.2	70.7	69.6	76	62.3	0.0	---	0.00	0.0	70.2	70.9	70.9	30.030	0.00	0.000	0.108	76.7	62	62.7	77.7	30
04/08/01	12:00 a	69.5	69.9	69.0	77	62.0	0.0	---	0.00	1.0	69.5	70.5	70.5	30.032	0.00	0.000	0.094	76.0	63	62.5	77.0	30
04/08/01	12:30 a	68.9	69.4	68.4	79	62.1	0.0	---	0.00	0.0	68.9	70.3	70.3	30.030	0.00	0.000	0.081	75.4	64	62.4	76.6	30
04/08/01	1:00 a	68.5	68.8	68.2	80	62.1	0.0	---	0.00	0.0	68.5	69.9	69.9	30.020	0.00	0.000	0.073	75.0	63	61.5	76.1	30
04/08/01	1:30 a	68.1	68.5	67.6	80	61.7	0.0	---	0.00	0.0	68.1	69.4	69.4	30.013	0.00	0.000	0.065	74.6	63	61.2	75.7	30
04/08/01	2:00 a	67.6	68.1	67.1	81	61.6	0.0	---	0.00	0.0	67.6	68.9	68.9	30.009	0.00	0.000	0.054	74.2	64	61.2	75.3	30
04/08/01	2:30 a	67.0	67.5	66.5	82	61.3	0.0	---	0.00	0.0	67.0	68.2	68.2	30.005	0.00	0.000	0.042	73.7	64	60.8	74.7	30
04/08/01	3:00 a	66.5	66.9	66.1	82	60.8	0.0	---	0.00	0.0	66.5	67.6	67.6	30.004	0.00	0.000	0.031	73.3	65	60.8	74.2	30
04/08/01	3:30 a	66.1	66.5	65.7	82	60.4	0.0	---	0.00	0.0	66.1	67.1	67.1	30.009	0.00	0.000	0.023	72.8	65	60.3	73.4	30
04/08/01	4:00 a	65.8	66.1	65.5	83	60.5	0.0	---	0.00	0.0	65.8	66.7	66.7	30.004	0.00	0.000	0.017	72.5	65	60.1	73.0	30
04/08/01	4:30 a	65.5	65.8	65.2	83	60.2	0.0	---	0.00	0.0	65.5	66.4	66.4	30.011	0.00	0.000	0.010	72.3	66	60.3	72.8	30
04/08/01	5:00 a	65.2	65.6	64.9	84	60.2	0.0	---	0.00	0.0	65.2	66.0	66.0	30.016	0.00	0.000	0.004	71.9	66	59.9	72.2	30
04/08/01	5:30 a	65.0	65.3	64.7	84	60.0	0.0	---	0.00	0.0	65.0	65.8	65.8	30.020	0.00	0.000	0.000	71.6	66	59.6	71.8	30
04/08/01	6:00 a	64.8	65.1	64.6	85	60.2	0.0	---	0.00	0.0	64.8	65.6	65.6	30.032	0.00	0.004	0.000	71.4	67	59.9	71.6	30
04/08/01	6:30 a	65.0	65.4	64.6	86	60.7	0.0	---	0.00	0.0	65.0	65.8	65.8	30.038	0.00	0.000	0.000	71.3	67	59.8	71.5	30
04/08/01	7:00 a	65.3	65.7	64.9	86	61.0	0.0	---	0.00	0.0	65.3	66.2	66.2	30.048	0.00	0.000	0.006	71.3	68	60.2	71.6	30
04/08/01	7:30 a	66.1	67.3	65.3	88	62.4	0.0	---	0.00	0.0	66.1	67.3	67.3	30.052	0.00	0.000	0.023	71.3	68	60.2	71.6	30
04/08/01	8:00 a	69.0	70.7	67.1	80	62.6	0.0	SE	0.00	2.0	69.0	70.5	70.5	30.055	0.00	0.000	0.083	72.0	69	61.3	72.6	30
04/08/01	8:30 a	72.6	74.9	70.5	74	63.8	2.0	SE	1.00	10.0	72.6	73.8	73.8	30.051	0.00	0.000	0.158	73.3	73	64.1	74.8	30
04/08/01	9:00 a	76.9	79.2	74.6	67	65.1	4.0	SE	2.00	16.0	76.9	78.4	78.4	30.048	0.00	0.000	0.248	75.1	76	67.0	77.3	30
04/08/01	9:30 a	80.7	81.8	79.1	63	66.9	4.0	SE	2.00	11.0	80.7	82.7	82.7	30.038	0.00	0.000	0.327	77.6	76	69.4	80.3	30
04/08/01	10:00 a	81.3	81.7	81.0	62	67.0	4.0	ESE	2.00	12.0	81.3	83.5	83.5	30.034	0.00	0.000	0.340	79.3	72	69.5	82.0	30
04/08/01	10:30 a	81.5	82.2	80.8	60	66.3	4.0	ESE	2.00	13.0	81.5	83.4	83.4	30.030	0.00	0.000	0.344	79.9	71	69.7	82.7	30
04/08/01	11:00 a	82.2	82.7	81.6	60	66.9	4.0	E	2.00	13.0	82.2	84.5	84.5	30.020	0.00	0.000	0.358	80.7	70	70.0	83.9	30
04/08/01	11:30 a	83.6	84.4	82.6	59	67.8	5.0	ESE	2.50	16.0	83.6	86.7	86.7	30.004	0.00	0.000	0.387	81.7	68	70.1	85.3	30
04/08/01	12:00 p	85.4	86.8	83.4	53	66.3	6.0	ESE	3.00	18.0	85.4	88.1	88.1	29.993	0.00	0.000	0.425	82.7	67	70.6	86.9	30
04/08/01	12:30 p	86.8	87.7	86.1	51	66.5	5.0	ESE	2.50	15.0	86.8	90.1	90.1	29.982	0.00	0.000	0.454	84.1	65	71.1	89.4	30
04/08/01	1:00 p	87.2	87.9	86.3	52	67.4	6.0	ESE	3.00	20.0	87.2	91.0	91.0	29.969	0.00	0.000	0.462	85.3	64	71.7	91.4	30
04/08/01	1:30 p	86.2	87.3	85.2	53	67.1	6.0	ESE	3.00	23.0	86.2	89.5	89.5	29.953	0.00	0.000	0.442	86.4	62	71.8	93.1	30
04/08/01	2:00 p	87.1	87.9	86.4	52	67.3	7.0	ESE	3.50	20.0	87.1	90.9	90.9	29.947	0.00	0.000	0.460	86.8	60	71.2	93.2	30
04/08/01	2:30 p	87.5	88.2	87.0	51	67.1	6.0	ESE	3.00	20.0	87.5	91.1	91.1	29.936	0.00	0.000	0.469	87.2	60	71.6	93.9	30
04/08/01	3:00 p	86.6	87.4	85.5	52	66.9	6.0	SE	3.00	17.0	86.6	90.0	90.0	29.928	0.00	0.000	0.450	87.0	59	70.9	93.2	30
04/08/01	3:30 p	85.8	86.6	85.1	51	65.6	6.0	ESE	3.00	17.0	85.8	88.2	88.2	29.917	0.00	0.000	0.433	86.4	58	69.9	91.6	30
04/08/01	4:00 p	86.3	86.8	85.7	51	66.0	6.0	SE	3.00	16.0	86.3	89.1	89.1	29.908	0.00	0.000	0.444	86.8	58	70.2	92.5	30
04/08/01	4:30 p	85.5	86.5	84.8	51	65.3	6.0	SE	3.00	21.0	85.5	87.8	87.8	29.905	0.00	0.000	0.427	87.2	57	70.1	92.8	30
04/08/01	5:00 p	84.6	85.2	84.3	53	65.6	6.0	ESE	3.00	15.0	84.6	87.0	87.0	29.905	0.00	0.000	0.408	86.7	57	69.6	91.9	30
04/08/01	5:30 p	83.8	84.6	82.1	56	66.4	5.0	SE	2.50	16.0	83.8	86.5	86.5	29.912	0.00	0.000	0.392	85.3	57	68.3	89.1	30
04/08/01	6:00 p	80.9	82.3	79.8	58	64.7	5.0	SE	2.50	15.0	80.9	82.2	82.2	29.913	0.00	0.000	0.331	84.0	58	67.6	87.3	30
04/08/01	6:30 p	78.9	79.9	77.9	62	64.8	5.0	SE	2.50	14.0	78.9	80.2	80.2	29.924	0.00	0.000	0.290	82.5	60	67.2	84.9	30
04/08/01	7:00 p	77.2	78.2	76.3	65	64.5	3.0	SE	1.50	9.0	77.2	78.5	78.5	29.936	0.00	0.000	0.254	81.0	62	66.8	83.0	30
04/08/01	7:30 p	75.6	76.5	74.9	67	63.9	3.0	SE	1.50	9.0	75.6	77.0	77.0	29.935	0.00	0.000	0.221	80.3	62	66.1	82.0	30
04/08/01	8:00 p	74.5	75.1	74.0	69	63.7	3.0	SE	1.50	10.0	74.5	76.1	76.1	29.940	0.00	0.000	0.198	79.6	62	65.4	81.1	30
04/08/01	8:30 p	73.9	74.3	73.5	69	63.1	3.0	SE	1.50	12.0	73.9	75.4	75.4	29.949	0.00	0.000	0.185	79.1	62	65.0	80.5	30
04/08/01	9:00 p	73.4	73.9	72.9	71	63.4	2.0	SSE	1.00	8.0	73.4	74.8	74.8	29.959	0.00	0.000	0.175	78.6	63	64.9	80.0	30
04/08/01	9:30 p	72.8	73.2	72.4	73	63.6	1.0	SSE	0.50	6.0	72.8	74.0	74.0	29.970	0.00	0.000	0.163	78.1	63	64.5	79.3	30
04/08/01	10:00 p	72.3	72.7	71.9	75	63.9	1.0	SSE	0.50	4.0	72.3	73.5	73.5	29.971	0.00	0.000	0.152	77.6	64	64.5	78.9	30
04/08/01	10:30 p	71.8	72.2	71.4	76	63.8	0.0	SSE	0.00	2.0	71.8	72.8	72.8	29.973	0.00	0.000	0.142	77.2	64	64.1	78.4	30
04/08/01	11:00 p	71.3	71.7	70.9	78	64.1	0.0	SSE	0.00	2.0	71.3	72.4	72.4	29.972	0.00	0.000	0.131	76.8	64	63.7	78.0	30
04/08/01	11:30 p	70.9	71.3	70.3	78	63.7	0.0	SSE	0.00	1.0	70.9	72.0	72.0	29.968	0.00	0.000	0.123	76.3	65	63.7	77.5	30
04/09/01	12:00 a	70.0	70.7	69.3	78	62.8	0.0	---	0.00	0.0	70.0	70.9	70.9	29.965	0.00	0.000	0.104	75.8	64	62.8	76.9	30
04/09/01	12:30 a	69.1	69.7	68.4	80	62.7	0.0	---	0.00	0.0	69.1	70.6	70.6	29.953	0.00	0.000	0.085	75.3	64	62.3	76.5	30
04/09/01	1:00 a	68.4	68.8	68.0	82	62.7	0.0	SSE	0.00	2.0	68.4	69.9	69.9	29.949	0.00	0.000	0.071	74.8	65	62.2	76.1	30
04/09/01	1:30 a	68.0	68.4	67.6	83	62.6	0.0	SSE	0.00	5.0	68.0	69.4	69.4	29.945	0.00	0.000	0.063	74.4	66	62.3	75.7	30
04/09/01	2:00 a	67.8	68.1	67.4	82	62.1	0.0	S	0.00	3.0	67.8	69.1	69.1	29.940	0.00	0.000	0.058	74.1	66	62.0	75.4	30
04/09/01	2:30 a	67.3	67.8	66.8	83	62.0	0.0	---	0.00	0.0	67.3	68.6	68.6	29.940	0.00	0.000	0.048	73.7	66	61.6	74.8	30
04/09/01	3:00 a	66.7	67.2	66.2	83	61.4	0.0	---	0.00	0.0	66.7	67.8	67.8	29.938	0.00	0.000	0.035	73.3	66	61.3	74.2	30
04/09/01	3:30 a	66.1	66.6	65.6	83	60.8	0.0	S	0.00	2.0	66.1	67.1	67.1	29.939	0.00	0.000	0.023	72.9	66	60.9	73.6	30
04/09/01	4:00 a	65.6	66.0	65.2	84	60.6	0.0	S	0.00	1.0	65.6	66.5	66.5	29.938	0.00	0.000	0.012	72.5	66	60.5	73.1	30
04/09/01	4:30 a	65.2	65.6	64.7	83	59.9	0.0	---	0.00	0.0	65.2	66.0	66.0	29.943	0.00	0.000	0.004	72.2	66	60.2	72.7	30
04/09/01	5:00 a	64.7	65.1	64.2	84	59.8	0.0	---	0.00	0.0	64.7	65.4	65.4	29.946	0.00	0.006	0.000	71.8	66	59.8	72.1	30
04/09/01	5:30 a	64.2	64.6	63.7	83	58.9	0.0	---	0.00	0.0	64.2	64.8	64.8	29.951	0.00	0.017	0.000	71.4	66	59.4	71.6	30
04/09/01	6:00 a	63.8	64.2	63.3	83	58.5	0.0	---	0.00	0.0	63.8	64.3	64.3	29.953	0.00	0.025	0.000	71.0	66	59.1	71.0	30
04/09/01	6:30 a	63.4	63.7	63.1	84	58.5	0.0	---	0.00	0.0	63.4	63.9	63.9	29.954	0.00	0.033	0.000	70.6	66	58.7	70.5	30
04/09/01	7:00 a	63.5	64.1	63.1	88	59.9	0.0	---	0.00	0.0	63.5	64.2	64.2	29.965	0.00	0.031	0.000	70.4	67	58.9	70.4	30
04/09/01	7:30 a	64.7	65.6	63.7	89	61.4	0.0	---	0.00	0.0	64.7	65.6	65.6	29.970	0.00	0.006	0.000	70.5	69	59.8	70.7	30
04/09/01	8:00 a	66.6	68.3	65.4	85	61.9	0.0	S	0.00	2.0	66.6	67.8	67.8	29.966	0.00	0.000	0.033	71.3	72	61.8	71.9	30
04/09/01	8:30 a	70.4	73.1	68.0	73	61.3	2.0	SW	1.00	7.0	70.4	70.9	70.9	29.954	0.00	0.000	0.113	72.5	74	63.7	73.7	30
04/09/01	9:00 a	75.1	76.8	72.9	64	62.1	3.0	S	1.50	8.0	75.1	76.3	76.3	29.951	0.00	0.000	0.210	74.1	74	65.3	76.0	30
04/09/01	9:30 a	78.4	80.5	76.5	58	62.4	3.0	S	1.50	7.0	78.4	79.2	79.2	29.949	0.00	0.000	0.279	75.6	74	66.7	77.8	30
04/09/01	10:00 a	81.0	82.0	80.1	53	62.3	2.0	SW	1.00	7.0	81.0	81.6	81.6	29.940	0.00	0.000	0.333	77.3	72	67.6	79.5	30
04/09/01	10:30 a	82.7	84.4	81.7	49	61.6	2.0	SSE	1.00	6.0	82.7	83.6	83.6	29.928	0.00	0.000	0.369	78.9	69	67.9	81.1	30
04/09/01	11:00 a	85.3	86.2	84.1	52	65.7	2.0	ESE	1.00	11.0	85.3	87.7	87.7	29.915	0.00	0.000	0.423	80.5	67	68.5	83.1	30
04/09/01	11:30 a	85.9	86.4	85.0	53	66.8	5.0	ESE	2.50	16.0	85.9	88.9	88.9	29.894	0.00	0.000	0.435	82.0	66	69.5	85.4	30
04/09/01	12:00 p	86.8	87.7	86.1	51	66.5	5.0	ESE	2.50	15.0	86.8	90.1	90.1	29.881	0.00	0.000	0.454	83.2	65	70.2	87.4	30
04/09/01	12:30 p	87.6	88.5	86.8	48	65.5	5.0	ESE	2.50	17.0	87.6	90.2	90.2	29.871	0.00	0.000	0.471	84.4	63	70.4	89.3	30
04/09/01	1:00 p	87.2	87.9	86.5	45	63.3	7.0	E	3.50	19.0	87.2	88.8	88.8	29.860	0.00	0.000	0.462	85.7	60	70.2	90.9	30
04/09/01	1:30 p	86.2	86.8	85.6	46	63.0	6.0	ENE	3.00	20.0	86.2	87.6	87.6	29.848	0.00	0.000	0.442	86.6	57	69.6	91.7	30
04/09/01	2:00 p	86.4	87.5	85.4	48	64.4	6.0	ESE	3.00	16.0	86.4	88.5	88.5	29.839	0.00	0.000	0.446	87.0	56	69.4	92.2	30
04/09/01	2:30 p	86.6	87.0	86.2	49	65.2	6.0	ESE	3.00	21.0	86.6	89.1	89.1	29.833	0.00	0.000	0.450	87.4	56	69.8	92.7	30
04/09/01	3:00 p	86.7	87.5	86.0	48	64.7	6.0	ESE	3.00	20.0	86.7	89.0	89.0	29.825	0.00	0.000	0.452	87.8	56	70.1	93.2	30
04/09/01	3:30 p	87.3	88.3	86.2	48	65.2	6.0	ESE	3.00	20.0	87.3	89.9	89.9	29.819	0.00	0.000	0.465	88.4	55	70.2	94.0	30
04/09/01	4:00 p	85.7	86.7	84.9	52	66.0	5.0	ESE	2.50	18.0	85.7	88.3	88.3	29.804	0.00	0.000	0.431	89.0	54	70.2	95.1	30
04/09/01	4:30 p	85.6	85.9	85.2	53	66.5	7.0	ESE	3.50	17.0	85.6	88.4	88.4	29.799	0.00	0.000	0.429	89.0	54	70.2	95.1	30
04/09/01	5:00 p	84.6	85.3	83.7	54	66.1	6.0	ESE	3.00	18.0	84.6	87.2	87.2	29.802	0.00	0.000	0.408	88.4	55	70.2	94.0	30
04/09/01	5:30 p	83.1	84.0	82.4	55	65.3	6.0	SE	3.00	15.0	83.1	85.1	85.1	29.800	0.00	0.000	0.377	86.6	56	69.0	91.3	30
04/09/01	6:00 p	81.5	82.4	80.5	59	65.8	4.0	SE	2.00	13.0	81.5	83.3	83.3	29.803	0.00	0.000	0.344	84.8	57	67.9	88.2	30
04/09/01	6:30 p	79.7	80.7	78.5	63	66.0	4.0	SE	2.00	13.0	79.7	81.3	81.3	29.805	0.00	0.000	0.306	83.3	60	68.0	86.3	30
04/09/01	7:00 p	77.5	78.7	76.4	66	65.2	5.0	SE	2.50	13.0	77.5	79.0	79.0	29.805	0.00	0.000	0.260	81.6	63	67.8	84.2	30
04/09/01	7:30 p	75.9	76.6	75.2	69	65.0	5.0	SE	2.50	15.0	75.9	77.6	77.6	29.821	0.00	0.000	0.227	80.3	64	67.0	82.3	30
04/09/01	8:00 p	74.9	75.5	74.4	70	64.5	3.0	SE	1.50	11.0	74.9	76.6	76.6	29.833	0.00	0.000	0.206	79.7	65	66.9	81.6	30
04/09/01	8:30 p	74.4	74.8	74.0	70	64.0	3.0	SE	1.50	8.0	74.4	76.0	76.0	29.839	0.00	0.000	0.196	78.8	65	66.0	80.4	30
04/09/01	9:00 p	73.9	74.3	73.5	71	63.9	2.0	SE	1.00	7.0	73.9	75.5	75.5	29.852	0.00	0.000	0.185	78.6	64	65.4	80.1	30
04/09/01	9:30 p	73.5	73.9	73.2	71	63.5	2.0	SE	1.00	7.0	73.5	74.9	74.9	29.855	0.00	0.000	0.177	78.2	64	65.0	79.6	30
04/09/01	10:00 p	73.2	73.6	72.8	71	63.2	1.0	S	0.50	5.0	73.2	74.5	74.5	29.853	0.00	0.000	0.171	77.9	64	64.7	79.2	30
04/09/01	10:30 p	72.6	73.2	72.1	72	63.1	1.0	S	0.50	5.0	72.6	73.7	73.7	29.855	0.00	0.000	0.158	77.5	64	64.4	78.8	30
04/09/01	11:00 p	71.9	72.4	71.3	73	62.8	0.0	S	0.00	3.0	71.9	72.8	72.8	29.859	0.00	0.000	0.144	77.1	63	63.5	78.2	30
04/09/01	11:30 p	70.8	71.6	70.0	75	62.5	0.0	---	0.00	0.0	70.8	71.6	71.6	29.859	0.00	0.000	0.121	76.5	63	63.0	77.6	30
04/10/01	12:00 a	69.7	70.4	68.8	77	62.2	0.0	S	0.00	2.0	69.7	70.6	70.6	29.862	0.00	0.000	0.098	75.9	64	62.8	77.0	30
04/10/01	12:30 a	68.7	69.3	68.2	78	61.6	0.0	S	0.00	3.0	68.7	70.0	70.0	29.855	0.00	0.000	0.077	75.4	64	62.4	76.6	30
04/10/01	1:00 a	68.2	68.5	67.9	78	61.1	0.0	S	0.00	1.0	68.2	69.4	69.4	29.848	0.00	0.000	0.067	74.9	64	61.9	76.1	30
04/10/01	1:30 a	68.1	68.4	67.8	79	61.3	0.0	S	0.00	3.0	68.1	69.3	69.3	29.847	0.00	0.000	0.065	74.6	65	62.1	75.9	30
04/10/01	2:00 a	68.1	68.4	67.8	78	61.0	1.0	S	0.50	4.0	68.1	69.3	69.3	29.836	0.00	0.000	0.065	74.3	65	61.8	75.5	30
04/10/01	2:30 a	68.0	68.3	67.7	77	60.5	0.0	S	0.00	3.0	68.0	69.1	69.1	29.834	0.00	0.000	0.063	74.2	65	61.7	75.4	30
04/10/01	3:00 a	68.0	68.2	67.6	77	60.5	1.0	S	0.50	4.0	68.0	69.1	69.1	29.833	0.00	0.000	0.063	73.9	65	61.4	75.1	30
04/10/01	3:30 a	67.8	68.1	67.6	77	60.3	0.0	S	0.00	4.0	67.8	68.8	68.8	29.838	0.00	0.000	0.058	73.8	65	61.3	74.9	30
04/10/01	4:00 a	67.7	68.1	67.2	77	60.2	0.0	S	0.00	2.0	67.7	68.7	68.7	29.838	0.00	0.000	0.056	73.5	65	61.0	74.4	30
04/10/01	4:30 a	66.9	67.7	66.1	79	60.2	0.0	---	0.00	0.0	66.9	67.9	67.9	29.846	0.00	0.000	0.040	73.1	65	60.6	73.8	30
04/10/01	5:00 a	65.8	66.5	65.1	80	59.5	0.0	---	0.00	0.0	65.8	66.7	66.7	29.855	0.00	0.000	0.017	72.5	65	60.1	73.0	30
04/10/01	5:30 a	64.9	65.4	64.3	81	58.9	0.0	---	0.00	0.0	64.9	65.6	65.6	29.864	0.00	0.002	0.000	72.0	65	59.6	72.3	30
04/10/01	6:00 a	64.2	64.7	63.6	81	58.2	0.0	---	0.00	0.0	64.2	64.8	64.8	29.878	0.00	0.017	0.000	71.6	64	58.8	71.7	30
04/10/01	6:30 a	64.0	64.4	63.6	81	58.1	0.0	S	0.00	2.0	64.0	64.5	64.5	29.893	0.00	0.021	0.000	71.2	66	59.3	71.3	30
04/10/01	7:00 a	64.6	65.2	64.1	81	58.6	0.0	S	0.00	1.0	64.6	65.2	65.2	29.903	0.00	0.008	0.000	70.9	66	59.0	70.9	30
04/10/01	7:30 a	65.8	67.0	65.0	78	58.7	1.0	S	0.50	5.0	65.8	66.5	66.5	29.910	0.00	0.000	0.017	71.1	66	59.2	71.1	30
04/10/01	8:00 a	67.9	69.3	66.6	76	60.1	1.0	S	0.50	4.0	67.9	68.9	68.9	29.912	0.00	0.000	0.060	71.7	69	61.0	72.2	30
04/10/01	8:30 a	71.1	73.4	69.1	72	61.6	2.0	SW	1.00	5.0	71.1	71.7	71.7	29.907	0.00	0.000	0.127	73.0	72	63.4	74.3	30
04/10/01	9:00 a	75.1	76.9	73.2	69	64.2	2.0	SSW	1.00	6.0	75.1	76.7	76.7	29.899	0.00	0.000	0.210	74.5	74	65.7	76.4	30
04/10/01	9:30 a	78.3	80.1	76.6	61	63.7	3.0	SSW	1.50	8.0	78.3	79.4	79.4	29.891	0.00	0.000	0.277	76.3	74	67.4	78.6	30
04/10/01	10:00 a	81.4	82.7	79.7	53	62.6	2.0	SSE	1.00	6.0	81.4	82.2	82.2	29.881	0.00	0.000	0.342	78.1	71	67.9	80.3	30
04/10/01	10:30 a	83.4	84.4	82.3	51	63.4	1.0	NW	0.50	5.0	83.4	85.0	85.0	29.869	0.00	0.000	0.383	79.5	66	67.1	81.5	30
04/10/01	11:00 a	85.6	86.5	84.3	51	65.4	2.0	WSW	1.00	9.0	85.6	87.9	87.9	29.853	0.00	0.000	0.429	81.2	65	68.3	83.8	30
04/10/01	11:30 a	85.3	86.1	84.5	56	67.8	3.0	NE	1.50	13.0	85.3	88.8	88.8	29.846	0.00	0.000	0.423	83.1	66	70.6	87.4	30
04/10/01	12:00 p	85.7	86.6	84.9	54	67.1	4.0	ENE	2.00	10.0	85.7	88.9	88.9	29.832	0.00	0.000	0.431	84.5	65	71.4	90.1	30
04/10/01	12:30 p	85.5	86.5	85.0	53	66.4	4.0	ENE	2.00	14.0	85.5	88.3	88.3	29.827	0.00	0.000	0.427	85.4	63	71.4	91.3	30
04/10/01	1:00 p	86.9	87.4	86.5	53	67.7	4.0	ENE	2.00	15.0	86.9	90.9	90.9	29.821	0.00	0.000	0.456	86.2	62	71.6	92.7	30
04/10/01	1:30 p	87.4	88.2	86.4	49	65.9	6.0	ESE	3.00	19.0	87.4	90.3	90.3	29.816	0.00	0.000	0.467	86.9	61	71.8	93.8	30
04/10/01	2:00 p	87.6	88.6	86.4	49	66.1	7.0	ESE	3.50	18.0	87.6	90.6	90.6	29.806	0.00	0.000	0.471	87.5	59	71.4	93.9	30
04/10/01	2:30 p	87.2	87.7	86.2	47	64.5	6.0	ESE	3.00	18.0	87.2	89.4	89.4	29.795	0.00	0.000	0.462	87.8	57	70.7	93.6	30
04/10/01	3:00 p	86.6	87.5	85.5	42	60.8	7.0	ESE	3.50	20.0	86.6	87.4	87.4	29.788	0.00	0.000	0.450	88.0	55	69.8	93.1	30
04/10/01	3:30 p	86.7	87.4	86.1	42	60.9	6.0	E	3.00	20.0	86.7	87.5	87.5	29.782	0.00	0.000	0.452	88.0	54	69.3	92.8	30
04/10/01	4:00 p	86.6	87.4	85.6	42	60.8	6.0	ESE	3.00	17.0	86.6	87.4	87.4	29.779	0.00	0.000	0.450	87.9	51	67.5	91.6	30
04/10/01	4:30 p	85.6	86.3	85.0	44	61.2	6.0	ESE	3.00	20.0	85.6	86.5	86.5	29.771	0.00	0.000	0.429	87.6	51	67.2	91.2	30
04/10/01	5:00 p	84.9	85.6	84.1	47	62.4	5.0	ESE	2.50	18.0	84.9	86.2	86.2	29.775	0.00	0.000	0.415	87.3	52	67.5	91.2	30
04/10/01	5:30 p	84.5	85.5	83.2	51	64.4	6.0	ESE	3.00	19.0	84.5	86.5	86.5	29.779	0.00	0.000	0.406	86.8	53	67.6	90.7	30
04/10/01	6:00 p	81.9	83.3	80.6	57	65.2	6.0	SE	3.00	15.0	81.9	83.6	83.6	29.774	0.00	0.000	0.352	85.7	54	67.1	88.9	30
04/10/01	6:30 p	79.8	80.8	79.0	60	64.7	6.0	ESE	3.00	15.0	79.8	81.1	81.1	29.779	0.00	0.000	0.308	84.5	56	67.1	87.5	30
04/10/01	7:00 p	78.0	79.1	77.2	65	65.3	5.0	SE	2.50	17.0	78.0	79.4	79.4	29.785	0.00	0.000	0.271	83.2	58	66.9	85.8	30
04/10/01	7:30 p	76.7	77.3	75.9	67	64.9	4.0	SE	2.00	10.0	76.7	78.2	78.2	29.793	0.00	0.000	0.244	82.1	59	66.4	84.2	30
04/10/01	8:00 p	75.6	76.2	75.2	68	64.3	4.0	SE	2.00	12.0	75.6	77.2	77.2	29.798	0.00	0.000	0.221	81.1	61	66.4	83.0	30
04/10/01	8:30 p	75.1	75.4	74.8	68	63.8	3.0	SE	1.50	11.0	75.1	76.6	76.6	29.814	0.00	0.000	0.210	80.4	61	65.7	82.0	30
04/10/01	9:00 p	74.8	75.1	74.4	68	63.5	3.0	SE	1.50	12.0	74.8	76.3	76.3	29.821	0.00	0.000	0.204	79.9	61	65.2	81.3	30
04/10/01	9:30 p	74.4	74.7	74.0	69	63.6	3.0	SE	1.50	9.0	74.4	76.0	76.0	29.823	0.00	0.000	0.196	79.3	61	64.7	80.6	30
04/10/01	10:00 p	73.8	74.3	73.4	69	63.0	1.0	SE	0.50	4.0	73.8	75.2	75.2	29.834	0.00	0.000	0.183	78.9	61	64.3	80.1	30
04/10/01	10:30 p	73.2	73.8	72.6	70	62.8	0.0	SE	0.00	2.0	73.2	74.4	74.4	29.837	0.00	0.000	0.171	78.3	61	63.7	79.4	30
04/10/01	11:00 p	71.9	72.8	71.0	73	62.8	0.0	---	0.00	0.0	71.9	72.8	72.8	29.846	0.00	0.000	0.144	77.7	61	63.2	78.7	30
04/10/01	11:30 p	70.5	71.3	69.8	75	62.2	0.0	---	0.00	0.0	70.5	71.2	71.2	29.848	0.00	0.000	0.115	77.0	61	62.5	77.9	30
04/11/01	12:00 a	69.6	70.1	69.1	76	61.7	0.0	SE	0.00	1.0	69.6	70.5	70.5	29.848	0.00	0.000	0.096	76.4	61	62.0	77.2	30
04/11/01	12:30 a	68.9	69.5	68.4	76	61.0	0.0	---	0.00	0.0	68.9	70.0	70.0	29.850	0.00	0.000	0.081	75.8	61	61.4	76.6	30
04/11/01	1:00 a	68.2	68.8	67.6	78	61.1	0.0	---	0.00	0.0	68.2	69.4	69.4	29.848	0.00	0.000	0.067	75.2	61	60.8	76.1	30
04/11/01	1:30 a	67.4	68.0	66.7	78	60.3	0.0	---	0.00	0.0	67.4	68.4	68.4	29.850	0.00	0.000	0.050	74.7	62	60.8	75.7	30
04/11/01	2:00 a	66.5	67.1	66.1	78	59.4	0.0	---	0.00	0.0	66.5	67.3	67.3	29.848	0.00	0.000	0.031	74.2	61	59.9	75.0	30
04/11/01	2:30 a	66.0	66.4	65.4	80	59.7	0.0	---	0.00	0.0	66.0	66.9	66.9	29.853	0.00	0.000	0.021	73.7	62	59.9	74.5	30
04/11/01	3:00 a	65.4	65.8	64.9	80	59.1	0.0	---	0.00	0.0	65.4	66.2	66.2	29.846	0.00	0.000	0.008	73.2	62	59.4	73.8	30
04/11/01	3:30 a	64.9	65.3	64.5	81	58.9	0.0	---	0.00	0.0	64.9	65.6	65.6	29.848	0.00	0.002	0.000	72.7	62	58.9	73.1	30
04/11/01	4:00 a	64.5	64.9	64.1	82	58.9	0.0	---	0.00	0.0	64.5	65.1	65.1	29.849	0.00	0.010	0.000	72.3	62	58.5	72.5	30
04/11/01	4:30 a	64.0	64.4	63.7	81	58.1	0.0	---	0.00	0.0	64.0	64.5	64.5	29.853	0.00	0.021	0.000	71.9	62	58.2	71.9	30
04/11/01	5:00 a	63.7	64.1	63.2	81	57.8	0.0	---	0.00	0.0	63.7	64.2	64.2	29.857	0.00	0.027	0.000	71.5	62	57.8	71.4	30
04/11/01	5:30 a	63.2	63.6	62.9	82	57.6	0.0	---	0.00	0.0	63.2	63.6	63.6	29.871	0.00	0.037	0.000	71.1	63	57.9	70.9	30
04/11/01	6:00 a	63.0	63.3	62.7	83	57.8	0.0	---	0.00	0.0	63.0	63.4	63.4	29.883	0.00	0.042	0.000	70.8	63	57.6	70.5	30
04/11/01	6:30 a	62.9	63.1	62.6	82	57.3	0.0	---	0.00	0.0	62.9	63.3	63.3	29.889	0.00	0.044	0.000	70.5	63	57.3	70.1	30
04/11/01	7:00 a	63.2	63.7	62.6	84	58.3	0.0	---	0.00	0.0	63.2	63.7	63.7	29.901	0.00	0.037	0.000	70.3	69	59.6	70.4	30
04/11/01	7:30 a	65.0	66.5	63.5	88	61.4	0.0	---	0.00	0.0	65.0	65.9	65.9	29.908	0.00	0.000	0.000	70.6	71	60.7	71.0	30
04/11/01	8:00 a	67.8	69.8	66.2	84	62.8	1.0	SE	0.50	4.0	67.8	69.2	69.2	29.903	0.00	0.000	0.058	71.8	76	63.8	72.8	30
04/11/01	8:30 a	72.4	75.2	69.7	72	62.9	3.0	SSE	1.50	10.0	72.4	73.4	73.4	29.896	0.00	0.000	0.154	73.7	77	66.0	75.5	30
04/11/01	9:00 a	77.1	79.2	74.9	63	63.5	4.0	SSE	2.00	13.0	77.1	78.2	78.2	29.897	0.00	0.000	0.252	75.7	75	67.2	78.0	30
04/11/01	9:30 a	79.0	80.4	78.4	60	63.9	4.0	S	2.00	11.0	79.0	80.1	80.1	29.900	0.00	0.000	0.292	77.6	70	67.0	79.6	30
04/11/01	10:00 a	82.5	84.2	80.6	55	64.7	5.0	SE	2.50	12.0	82.5	84.2	84.2	29.903	0.00	0.000	0.365	79.7	69	68.6	82.1	30
04/11/01	10:30 a	84.6	85.5	83.6	52	65.0	7.0	ESE	3.50	23.0	84.6	86.8	86.8	29.898	0.00	0.000	0.408	81.7	67	69.7	85.1	30
04/11/01	11:00 a	86.1	86.9	85.2	50	65.3	6.0	ESE	3.00	18.0	86.1	88.4	88.4	29.901	0.00	0.000	0.440	83.3	65	70.3	87.6	30
04/11/01	11:30 a	87.3	88.5	86.3	48	65.2	6.0	SE	3.00	19.0	87.3	89.9	89.9	29.894	0.00	0.000	0.465	84.6	61	69.7	89.0	30
04/11/01	12:00 p	88.1	88.7	87.5	51	67.7	7.0	ESE	3.50	23.0	88.1	92.0	92.0	29.878	0.00	0.000	0.481	85.4	61	70.4	90.6	30
04/11/01	12:30 p	88.2	88.8	87.9	51	67.8	8.0	ESE	4.00	23.0	88.1	92.2	92.1	29.863	0.00	0.000	0.483	86.1	61	71.1	92.1	30
04/11/01	1:00 p	88.6	89.1	87.9	50	67.6	8.0	ESE	4.00	25.0	88.6	92.8	92.8	29.860	0.00	0.000	0.492	86.8	61	71.7	93.6	30
04/11/01	1:30 p	89.0	89.7	88.4	51	68.5	8.0	ESE	4.00	22.0	89.0	94.0	94.0	29.866	0.00	0.000	0.500	87.6	60	72.0	94.4	30
04/11/01	2:00 p	89.0	89.6	88.5	51	68.5	8.0	ESE	4.00	20.0	89.0	94.0	94.0	29.850	0.00	0.000	0.500	88.1	60	72.5	95.1	30
04/11/01	2:30 p	89.2	90.0	87.9	55	70.9	6.0	ESE	3.00	18.0	89.2	95.8	95.8	29.841	0.00	0.000	0.504	88.6	60	72.9	96.3	30
04/11/01	3:00 p	88.6	89.4	87.8	55	70.4	9.0	ESE	4.50	21.0	88.4	94.5	94.3	29.832	0.00	0.000	0.492	89.0	60	73.3	97.3	30
04/11/01	3:30 p	87.7	88.4	86.9	54	69.0	7.0	ESE	3.50	23.0	87.7	92.4	92.4	29.838	0.00	0.000	0.473	89.1	60	73.4	97.6	30
04/11/01	4:00 p	88.5	89.4	88.0	50	67.5	7.0	ESE	3.50	22.0	88.5	92.6	92.6	29.838	0.00	0.000	0.490	89.1	59	72.9	97.2	30
04/11/01	4:30 p	88.1	89.3	86.9	49	66.5	6.0	ESE	3.00	20.0	88.1	91.3	91.3	29.837	0.00	0.000	0.481	90.0	56	72.2	97.9	30
04/11/01	5:00 p	86.5	87.5	86.0	50	65.7	7.0	ESE	3.50	17.0	86.5	89.1	89.1	29.839	0.00	0.000	0.448	89.4	54	70.6	95.8	30
04/11/01	5:30 p	85.5	86.5	84.5	52	65.9	7.0	SE	3.50	19.0	85.5	88.0	88.0	29.843	0.00	0.000	0.427	88.3	55	70.1	93.8	30
04/11/01	6:00 p	83.4	84.8	81.9	57	66.6	7.0	ESE	3.50	17.0	83.4	85.9	85.9	29.843	0.00	0.000	0.383	86.9	56	69.3	92.0	30
04/11/01	6:30 p	81.3	82.2	80.2	64	68.0	6.0	SE	3.00	16.0	81.3	83.8	83.8	29.853	0.00	0.000	0.340	85.5	59	69.5	90.1	30
04/11/01	7:00 p	79.6	80.5	78.7	67	67.7	4.0	SE	2.00	13.0	79.6	81.7	81.7	29.861	0.00	0.000	0.304	84.2	61	69.3	88.3	30
04/11/01	7:30 p	78.4	79.0	77.7	71	68.2	4.0	SE	2.00	12.0	78.4	80.6	80.6	29.873	0.00	0.000	0.279	83.1	63	69.2	86.6	30
04/11/01	8:00 p	77.6	78.1	77.1	74	68.7	4.0	SE	2.00	11.0	77.6	80.0	80.0	29.883	0.00	0.000	0.262	82.3	65	69.4	85.7	30
04/11/01	8:30 p	77.0	77.5	76.6	76	68.9	4.0	SE	2.00	13.0	77.0	79.6	79.6	29.889	0.00	0.000	0.250	81.7	67	69.7	85.1	30
04/11/01	9:00 p	76.6	77.0	76.2	79	69.6	4.0	ESE	2.00	13.0	76.6	79.5	79.5	29.894	0.00	0.000	0.242	81.2	69	70.1	84.6	30
04/11/01	9:30 p	76.3	76.6	76.1	78	68.9	4.0	SE	2.00	12.0	76.3	79.0	79.0	29.896	0.00	0.000	0.235	80.9	70	70.2	84.2	30
04/11/01	10:00 p	76.2	76.5	75.9	79	69.2	4.0	SE	2.00	12.0	76.2	79.0	79.0	29.890	0.00	0.000	0.233	80.5	70	69.8	83.6	30
04/11/01	10:30 p	75.9	76.3	75.4	79	68.9	3.0	SSE	1.50	11.0	75.9	78.7	78.7	29.892	0.00	0.000	0.227	80.2	71	69.9	83.2	30
04/11/01	11:00 p	75.5	75.9	75.1	80	68.9	4.0	SSE	2.00	10.0	75.5	78.2	78.2	29.892	0.00	0.000	0.219	79.8	71	69.6	82.6	30
04/11/01	11:30 p	75.1	75.5	74.8	81	68.9	4.0	SSE	2.00	12.0	75.1	77.7	77.7	29.897	0.00	0.000	0.210	79.5	72	69.7	82.3	30
04/12/01	12:00 a	74.9	75.2	74.6	80	68.3	4.0	SE	2.00	10.0	74.9	77.4	77.4	29.892	0.00	0.000	0.206	79.1	73	69.7	81.9	30
04/12/01	12:30 a	74.8	75.1	74.6	80	68.2	5.0	SSE	2.50	13.0	74.8	77.2	77.2	29.890	0.00	0.000	0.204	78.9	73	69.5	81.6	30
04/12/01	1:00 a	74.8	75.0	74.5	82	68.9	4.0	SSE	2.00	11.0	74.8	77.4	77.4	29.898	0.00	0.000	0.204	78.6	74	69.6	81.3	30
04/12/01	1:30 a	74.7	75.0	74.4	83	69.2	2.0	SSE	1.00	8.0	74.7	77.3	77.3	29.908	0.00	0.000	0.202	78.4	74	69.4	81.0	30
04/12/01	2:00 a	74.5	74.8	74.2	83	69.0	1.0	SSE	0.50	5.0	74.5	77.0	77.0	29.912	0.00	0.000	0.198	78.2	74	69.2	80.8	30
04/12/01	2:30 a	74.2	74.6	73.8	83	68.7	0.0	SSE	0.00	3.0	74.2	76.5	76.5	29.919	0.00	0.000	0.192	78.0	73	68.6	80.4	30
04/12/01	3:00 a	73.6	74.3	72.8	84	68.5	0.0	SSE	0.00	4.0	73.6	75.7	75.7	29.935	0.00	0.000	0.179	77.7	74	68.7	80.1	30
04/12/01	3:30 a	72.6	73.3	72.0	84	67.5	1.0	NNW	0.50	5.0	72.6	74.5	74.5	29.952	0.00	0.000	0.158	77.4	73	68.1	79.7	30
04/12/01	4:00 a	71.8	72.3	71.4	84	66.7	0.0	NNW	0.00	2.0	71.8	73.5	73.5	29.944	0.00	0.000	0.142	77.0	71	66.9	79.0	30
04/12/01	4:30 a	71.4	71.7	71.1	85	66.7	0.0	---	0.00	0.0	71.4	73.2	73.2	29.942	0.00	0.000	0.133	76.7	71	66.6	78.7	30
04/12/01	5:00 a	71.0	71.4	70.5	84	65.9	0.0	---	0.00	0.0	71.0	72.7	72.7	29.940	0.00	0.000	0.125	76.3	71	66.2	78.3	30
04/12/01	5:30 a	70.3	70.8	69.8	84	65.2	0.0	---	0.00	0.0	70.3	71.8	71.8	29.953	0.00	0.000	0.110	76.0	71	65.9	77.9	30
04/12/01	6:00 a	69.7	70.1	69.2	85	65.0	0.0	---	0.00	0.0	69.7	71.3	71.3	29.965	0.00	0.000	0.098	75.6	71	65.5	77.5	30
04/12/01	6:30 a	69.2	69.5	68.9	84	64.2	0.0	---	0.00	0.0	69.2	70.9	70.9	29.977	0.00	0.000	0.087	75.1	73	65.9	77.1	30
04/12/01	7:00 a	69.4	70.0	68.9	86	65.0	0.0	NNW	0.00	2.0	69.4	71.1	71.1	29.983	0.00	0.000	0.092	74.7	76	66.6	76.8	30
04/12/01	7:30 a	70.6	71.7	69.7	89	67.2	0.0	NW	0.00	2.0	70.6	72.6	72.6	29.985	0.00	0.000	0.117	75.0	77	67.3	77.3	30
04/12/01	8:00 a	73.1	74.7	71.6	85	68.3	2.0	SE	1.00	8.0	73.1	75.2	75.2	29.981	0.00	0.000	0.169	76.0	80	69.4	78.9	30
04/12/01	8:30 a	76.4	78.5	74.5	76	68.3	4.0	SE	2.00	11.0	76.4	78.9	78.9	29.979	0.00	0.000	0.238	77.4	82	71.5	80.8	30
04/12/01	9:00 a	79.7	80.4	78.3	72	69.9	5.0	SE	2.50	13.0	79.7	82.6	82.6	29.984	0.00	0.000	0.306	78.9	80	72.2	82.7	30
04/12/01	9:30 a	80.7	82.5	79.5	68	69.2	5.0	SSE	2.50	13.0	80.7	83.6	83.6	29.974	0.00	0.000	0.327	79.9	80	73.2	84.3	30
04/12/01	10:00 a	83.5	84.3	82.4	68	71.8	6.0	SE	3.00	17.0	83.5	89.0	89.0	29.968	0.00	0.000	0.385	81.7	78	74.2	87.7	30
04/12/01	10:30 a	84.3	85.3	82.7	62	69.9	7.0	SE	3.50	23.0	84.3	88.8	88.8	29.962	0.00	0.000	0.402	82.9	76	74.6	90.2	30
04/12/01	11:00 a	86.6	88.0	85.2	58	70.1	8.0	SE	4.00	17.0	86.5	92.0	91.9	29.958	0.00	0.000	0.450	84.2	72	74.2	92.0	30
04/12/01	11:30 a	88.3	88.8	87.9	59	72.2	8.0	ESE	4.00	18.0	88.2	95.3	95.2	29.954	0.00	0.000	0.485	85.6	72	75.5	95.0	30
04/12/01	12:00 p	86.4	88.6	85.1	64	72.8	8.0	ESE	4.00	25.0	86.2	93.9	93.7	29.948	0.00	0.000	0.446	85.9	70	75.0	95.1	30
04/12/01	12:30 p	86.9	89.0	84.8	59	70.8	9.0	ESE	4.50	23.0	86.5	93.0	92.6	29.937	0.00	0.000	0.456	85.9	70	75.0	95.1	30
04/12/01	1:00 p	88.3	89.2	87.4	59	72.2	8.0	SE	4.00	24.0	88.2	95.3	95.2	29.929	0.00	0.000	0.485	87.0	68	75.2	96.7	30
04/12/01	1:30 p	87.2	88.1	86.4	62	72.6	9.0	SE	4.50	23.0	86.8	94.7	94.3	29.920	0.00	0.000	0.462	87.1	68	75.3	96.9	30
04/12/01	2:00 p	87.0	88.1	86.1	59	70.9	8.0	SE	4.00	22.0	86.9	93.2	93.1	29.912	0.00	0.000	0.458	87.1	68	75.3	96.9	30
04/12/01	2:30 p	86.4	87.9	85.6	62	71.8	8.0	SE	4.00	22.0	86.2	93.1	92.9	29.903	0.00	0.000	0.446	87.6	67	75.3	97.2	30
04/12/01	3:00 p	87.7	89.0	85.6	57	70.6	8.0	SE	4.00	22.0	87.6	93.4	93.3	29.894	0.00	0.000	0.473	87.8	66	75.0	97.0	30
04/12/01	3:30 p	88.9	89.6	88.1	58	72.2	7.0	SE	3.50	21.0	88.9	96.3	96.3	29.887	0.00	0.000	0.498	88.8	65	75.5	99.0	30
04/12/01	4:00 p	88.2	89.4	86.5	61	73.0	7.0	SE	3.50	20.0	88.2	95.8	95.8	29.875	0.00	0.000	0.483	89.1	65	75.8	99.9	30
04/12/01	4:30 p	85.9	87.0	84.8	63	71.8	7.0	SE	3.50	20.0	85.9	92.4	92.4	29.875	0.00	0.000	0.435	88.6	64	74.9	98.1	30
04/12/01	5:00 p	83.5	84.8	82.6	68	71.8	7.0	SE	3.50	18.0	83.5	89.0	89.0	29.883	0.00	0.000	0.385	87.4	65	74.2	96.1	30
04/12/01	5:30 p	82.3	82.9	81.8	70	71.5	7.0	SE	3.50	26.0	82.3	86.9	86.9	29.883	0.00	0.000	0.360	86.4	67	74.1	95.0	30
04/12/01	6:00 p	81.5	82.1	81.0	71	71.2	6.0	SE	3.00	18.0	81.5	85.6	85.6	29.882	0.00	0.000	0.344	85.6	68	73.8	93.6	30
04/12/01	6:30 p	80.6	81.2	80.1	74	71.5	6.0	SSE	3.00	17.0	80.6	84.5	84.5	29.894	0.00	0.000	0.325	85.0	69	73.7	92.5	30
04/12/01	7:00 p	79.7	80.4	79.1	75	71.1	6.0	SE	3.00	15.0	79.7	83.1	83.1	29.899	0.00	0.000	0.306	84.3	70	73.4	91.5	30
04/12/01	7:30 p	78.9	79.4	78.4	77	71.1	5.0	SE	2.50	14.0	78.9	82.2	82.2	29.908	0.00	0.000	0.290	83.6	71	73.2	90.3	30
04/12/01	8:00 p	78.2	78.8	77.7	78	70.8	4.0	SE	2.00	12.0	78.2	81.4	81.4	29.916	0.00	0.000	0.275	83.0	72	73.0	89.1	30
04/12/01	8:30 p	77.5	77.9	77.0	80	70.8	5.0	SE	2.50	12.0	77.5	80.7	80.7	29.926	0.00	0.000	0.260	82.4	73	72.9	88.0	30
04/12/01	9:00 p	77.0	77.4	76.5	81	70.7	4.0	SSE	2.00	12.0	77.0	80.1	80.1	29.935	0.00	0.000	0.250	81.9	74	72.8	87.1	30
04/12/01	9:30 p	76.5	76.9	76.1	82	70.6	3.0	SSE	1.50	8.0	76.5	79.6	79.6	29.938	0.00	0.000	0.240	81.4	74	72.3	86.0	30
04/12/01	10:00 p	76.1	76.5	75.9	83	70.6	3.0	SE	1.50	9.0	76.1	79.2	79.2	29.941	0.00	0.000	0.231	81.1	75	72.4	85.6	30
04/12/01	10:30 p	75.9	76.2	75.5	84	70.7	3.0	SE	1.50	8.0	75.9	79.0	79.0	29.938	0.00	0.000	0.227	80.8	76	72.5	85.3	30
04/12/01	11:00 p	75.6	75.9	75.2	85	70.8	3.0	SE	1.50	9.0	75.6	78.7	78.7	29.941	0.00	0.000	0.221	80.3	75	71.6	84.1	30
04/12/01	11:30 p	75.3	75.6	74.8	85	70.5	2.0	SE	1.00	9.0	75.3	78.4	78.4	29.942	0.00	0.000	0.215	79.9	76	71.7	83.6	30
04/13/01	12:00 a	74.9	75.4	74.5	86	70.4	1.0	SSE	0.50	6.0	74.9	77.9	77.9	29.944	0.00	0.000	0.206	79.6	75	71.0	83.0	30
04/13/01	12:30 a	74.6	75.1	74.3	87	70.5	0.0	SSE	0.00	3.0	74.6	77.4	77.4	29.945	0.00	0.000	0.200	79.3	75	70.7	82.5	30
04/13/01	1:00 a	74.2	74.7	73.7	86	69.7	0.0	SSE	0.00	2.0	74.2	76.6	76.6	29.939	0.00	0.000	0.192	78.9	75	70.3	81.9	30
04/13/01	1:30 a	73.5	74.1	73.0	86	69.1	0.0	---	0.00	0.0	73.5	75.7	75.7	29.942	0.00	0.000	0.177	78.5	74	69.5	81.2	30
04/13/01	2:00 a	72.8	73.4	72.3	86	68.4	0.0	---	0.00	0.0	72.8	74.9	74.9	29.938	0.00	0.000	0.163	78.0	74	69.0	80.5	30
04/13/01	2:30 a	72.2	72.7	71.9	86	67.8	0.0	---	0.00	0.0	72.2	74.1	74.1	29.938	0.00	0.000	0.150	77.5	73	68.2	79.8	30
04/13/01	3:00 a	71.7	72.2	71.3	87	67.6	0.0	---	0.00	0.0	71.7	73.7	73.7	29.938	0.00	0.000	0.140	77.2	74	68.3	79.6	30
04/13/01	3:30 a	71.2	71.7	70.8	88	67.5	0.0	---	0.00	0.0	71.2	73.2	73.2	29.940	0.00	0.000	0.129	76.7	74	67.8	79.0	30
04/13/01	4:00 a	70.9	71.3	70.5	87	66.8	0.0	---	0.00	0.0	70.9	72.8	72.8	29.940	0.00	0.000	0.123	76.5	74	67.6	78.8	30
04/13/01	4:30 a	70.4	70.8	70.0	87	66.3	0.0	---	0.00	0.0	70.4	72.2	72.2	29.949	0.00	0.000	0.113	76.2	74	67.3	78.5	30
04/13/01	5:00 a	69.9	70.5	69.5	88	66.2	0.0	SSE	0.00	2.0	69.9	71.7	71.7	29.956	0.00	0.000	0.102	75.9	74	67.0	78.2	30
04/13/01	5:30 a	69.5	70.0	69.1	88	65.8	0.0	SSE	0.00	2.0	69.5	71.4	71.4	29.970	0.00	0.000	0.094	75.6	74	66.7	77.8	30
04/13/01	6:00 a	69.2	69.6	68.8	89	65.8	0.0	SSE	0.00	2.0	69.2	71.1	71.1	29.981	0.00	0.000	0.087	75.3	74	66.4	77.4	30
04/13/01	6:30 a	69.0	69.3	68.7	89	65.6	0.0	---	0.00	0.0	69.0	71.0	71.0	29.990	0.00	0.000	0.083	75.1	74	66.2	77.1	30
04/13/01	7:00 a	69.4	70.0	68.9	90	66.3	0.0	---	0.00	0.0	69.4	71.4	71.4	30.000	0.00	0.000	0.092	75.0	75	66.5	77.1	30
04/13/01	7:30 a	70.5	71.6	69.6	94	68.7	0.0	---	0.00	0.0	70.5	73.0	73.0	30.003	0.00	0.000	0.115	75.2	79	68.2	77.7	30
04/13/01	8:00 a	72.3	73.4	71.3	92	69.8	1.0	S	0.50	5.0	72.3	74.8	74.8	30.001	0.00	0.000	0.152	75.9	81	69.6	78.8	30
04/13/01	8:30 a	75.4	77.6	73.4	82	69.5	3.0	SSW	1.50	8.0	75.4	78.2	78.2	29.995	0.00	0.000	0.217	77.1	84	71.9	80.6	30
04/13/01	9:00 a	79.0	80.7	77.2	75	70.4	3.0	SSW	1.50	9.0	79.0	82.0	82.0	29.988	0.00	0.000	0.292	78.4	85	73.5	82.7	30
04/13/01	9:30 a	82.8	84.1	80.6	67	70.7	4.0	SW	2.00	11.0	82.8	87.1	87.1	29.981	0.00	0.000	0.371	80.3	83	74.7	85.8	30
04/13/01	10:00 a	83.8	84.7	83.0	62	69.4	4.0	SSW	2.00	10.0	83.8	87.9	87.9	29.977	0.00	0.000	0.392	81.5	78	74.0	87.2	30
04/13/01	10:30 a	85.0	86.7	84.2	58	68.6	4.0	SW	2.00	10.0	85.0	88.8	88.8	29.967	0.00	0.000	0.417	82.5	75	73.8	88.8	30
04/13/01	11:00 a	87.5	88.6	86.4	54	68.8	3.0	SW	1.50	9.0	87.5	92.1	92.1	29.956	0.00	0.000	0.469	83.9	71	73.5	91.0	30
04/13/01	11:30 a	89.6	91.1	87.3	47	66.7	3.0	SW	1.50	9.0	89.6	93.5	93.5	29.939	0.00	0.000	0.512	85.1	68	73.3	92.4	30
04/13/01	12:00 p	91.2	91.9	90.2	54	72.2	3.0	SSE	1.50	13.0	91.2	99.6	99.6	29.927	0.00	0.000	0.546	86.4	67	74.1	95.0	30
04/13/01	12:30 p	91.2	92.6	89.0	61	75.9	4.0	E	2.00	13.0	91.2	103.5	103.5	29.913	0.00	0.000	0.546	87.7	69	76.3	98.1	30
04/13/01	1:00 p	90.3	91.6	89.0	60	74.5	6.0	ESE	3.00	15.0	90.3	100.6	100.6	29.905	0.00	0.000	0.527	88.5	69	77.0	100.2	30
04/13/01	1:30 p	88.5	89.3	87.5	61	73.3	6.0	ESE	3.00	20.0	88.5	96.5	96.5	29.900	0.00	0.000	0.490	89.0	67	76.6	100.7	30
04/13/01	2:00 p	88.1	88.8	87.2	63	73.9	7.0	ESE	3.50	20.0	88.1	96.3	96.3	29.884	0.00	0.000	0.481	88.8	67	76.4	100.1	30
04/13/01	2:30 p	89.4	91.1	87.0	54	70.6	6.0	SE	3.00	19.0	89.4	95.8	95.8	29.872	0.00	0.000	0.508	88.8	67	76.4	100.1	30
04/13/01	3:00 p	91.0	91.7	90.1	54	72.0	5.0	ESE	2.50	15.0	91.0	99.2	99.2	29.864	0.00	0.000	0.542	89.6	65	76.3	101.5	30
04/13/01	3:30 p	91.5	92.3	90.9	51	70.8	7.0	ESE	3.50	19.0	91.5	98.7	98.7	29.854	0.00	0.000	0.552	90.1	63	75.8	101.9	30
04/13/01	4:00 p	91.3	92.3	90.2	51	70.6	6.0	SE	3.00	16.0	91.3	98.2	98.2	29.850	0.00	0.000	0.548	90.7	63	76.4	103.5	30
04/13/01	4:30 p	90.1	91.0	88.9	53	70.7	7.0	SE	3.50	21.0	90.1	96.7	96.7	29.843	0.00	0.000	0.523	90.4	60	74.6	100.8	30
04/13/01	5:00 p	88.8	89.2	88.0	56	71.1	6.0	SE	3.00	17.0	88.8	95.3	95.3	29.840	0.00	0.000	0.496	89.7	61	74.5	99.6	30
04/13/01	5:30 p	86.8	88.1	85.8	60	71.2	5.0	SE	2.50	14.0	86.8	93.2	93.2	29.839	0.00	0.000	0.454	88.7	63	74.5	97.9	30
04/13/01	6:00 p	85.4	86.2	84.6	62	70.9	5.0	SE	2.50	13.0	85.4	91.0	91.0	29.839	0.00	0.000	0.425	87.4	64	73.7	95.7	30
04/13/01	6:30 p	84.1	84.9	83.1	65	71.1	3.0	SE	1.50	12.0	84.1	89.4	89.4	29.842	0.00	0.000	0.398	86.3	66	73.6	94.4	30
04/13/01	7:00 p	82.3	83.2	81.5	69	71.1	3.0	SE	1.50	10.0	82.3	86.7	86.7	29.849	0.00	0.000	0.360	85.1	68	73.3	92.4	30
04/13/01	7:30 p	80.8	81.7	80.0	72	70.9	3.0	SE	1.50	10.0	80.8	84.5	84.5	29.851	0.00	0.000	0.329	84.3	68	72.6	90.8	30
04/13/01	8:00 p	79.6	80.2	78.9	73	70.2	3.0	SE	1.50	8.0	79.6	82.6	82.6	29.858	0.00	0.000	0.304	83.8	69	72.5	90.1	30
04/13/01	8:30 p	78.7	79.3	78.2	74	69.7	2.0	SSE	1.00	8.0	78.7	81.4	81.4	29.866	0.00	0.000	0.285	83.2	69	72.0	88.6	30
04/13/01	9:00 p	78.2	78.6	77.7	77	70.4	1.0	SSE	0.50	5.0	78.2	81.2	81.2	29.879	0.00	0.000	0.275	82.6	70	71.8	87.6	30
04/13/01	9:30 p	77.7	78.1	77.2	77	69.9	1.0	SSE	0.50	5.0	77.7	80.6	80.6	29.885	0.00	0.000	0.265	82.1	72	72.2	87.0	30
04/13/01	10:00 p	77.2	77.7	76.8	78	69.8	2.0	S	1.00	6.0	77.2	80.1	80.1	29.885	0.00	0.000	0.254	81.7	71	71.4	86.0	30
04/13/01	10:30 p	76.8	77.2	76.3	78	69.4	3.0	SSW	1.50	8.0	76.8	79.6	79.6	29.888	0.00	0.000	0.246	81.4	71	71.1	85.4	30
04/13/01	11:00 p	76.3	76.8	75.8	78	68.9	3.0	SSW	1.50	9.0	76.3	79.0	79.0	29.885	0.00	0.000	0.235	81.0	71	70.7	84.6	30
04/13/01	11:30 p	75.8	76.2	75.3	80	69.2	3.0	SSW	1.50	8.0	75.8	78.6	78.6	29.881	0.00	0.000	0.225	80.6	71	70.3	83.9	30
04/14/01	12:00 a	75.3	75.7	74.8	81	69.1	2.0	SSW	1.00	7.0	75.3	78.0	78.0	29.877	0.00	0.000	0.215	80.3	71	70.0	83.4	30
04/14/01	12:30 a	74.8	75.3	74.3	82	68.9	2.0	SSW	1.00	6.0	74.8	77.4	77.4	29.867	0.00	0.000	0.204	79.9	72	70.1	82.9	30
04/14/01	1:00 a	74.4	74.8	73.9	83	68.9	2.0	SSW	1.00	6.0	74.4	76.8	76.8	29.858	0.00	0.000	0.196	79.6	72	69.8	82.5	30
04/14/01	1:30 a	74.0	74.4	73.5	83	68.5	1.0	SW	0.50	4.0	74.0	76.1	76.1	29.855	0.00	0.000	0.188	79.2	72	69.4	81.9	30
04/14/01	2:00 a	73.6	74.0	73.2	83	68.1	0.0	SW	0.00	3.0	73.6	75.7	75.7	29.846	0.00	0.000	0.179	78.9	71	68.7	81.3	30
04/14/01	2:30 a	73.1	73.7	72.5	84	68.0	0.0	SW	0.00	3.0	73.1	75.2	75.2	29.839	0.00	0.000	0.169	78.4	70	67.8	80.5	30
04/14/01	3:00 a	72.4	72.9	71.9	84	67.3	0.0	---	0.00	1.0	72.4	74.2	74.2	29.843	0.00	0.000	0.154	78.0	70	67.4	80.0	30
04/14/01	3:30 a	71.8	72.4	71.3	84	66.7	0.0	---	0.00	0.0	71.8	73.5	73.5	29.846	0.00	0.000	0.142	77.6	70	67.0	79.6	30
04/14/01	4:00 a	71.2	71.8	70.6	85	66.5	0.0	SW	0.00	2.0	71.2	73.0	73.0	29.848	0.00	0.000	0.129	77.2	70	66.7	79.1	30
04/14/01	4:30 a	70.5	71.1	70.0	86	66.1	0.0	SW	0.00	3.0	70.5	72.2	72.2	29.855	0.00	0.000	0.115	76.8	70	66.3	78.7	30
04/14/01	5:00 a	70.0	70.4	69.7	85	65.3	0.0	NNW	0.00	3.0	70.0	71.5	71.5	29.865	0.00	0.000	0.104	76.4	70	65.9	78.2	30
04/14/01	5:30 a	69.7	70.0	69.4	87	65.7	0.0	NNW	0.00	2.0	69.7	71.5	71.5	29.871	0.00	0.000	0.098	76.0	70	65.5	77.8	30
04/14/01	6:00 a	69.4	69.7	69.1	87	65.4	0.0	---	0.00	0.0	69.4	71.2	71.2	29.882	0.00	0.000	0.092	75.7	69	64.8	77.4	30
04/14/01	6:30 a	69.4	69.7	69.1	88	65.7	0.0	NNW	0.00	3.0	69.4	71.3	71.3	29.885	0.00	0.000	0.092	75.5	70	65.0	77.3	30
04/14/01	7:00 a	69.6	70.0	69.2	90	66.5	0.0	NW	0.00	5.0	69.6	71.6	71.6	29.890	0.00	0.000	0.096	75.4	71	65.3	77.2	30
04/14/01	7:30 a	70.3	71.2	69.6	91	67.5	2.0	SW	1.00	7.0	70.3	72.5	72.5	29.894	0.00	0.000	0.110	75.6	74	66.7	77.8	30
04/14/01	8:00 a	71.8	72.6	70.7	89	68.4	2.0	SW	1.00	8.0	71.8	73.9	73.9	29.898	0.00	0.000	0.142	75.9	76	67.8	78.4	30
04/14/01	8:30 a	73.2	74.9	72.0	82	67.4	3.0	NW	1.50	9.0	73.2	75.2	75.2	29.895	0.00	0.000	0.171	76.5	77	68.7	79.1	30
04/14/01	9:00 a	76.2	77.5	74.6	76	68.1	4.0	WNW	2.00	9.0	76.2	78.7	78.7	29.885	0.00	0.000	0.233	77.6	79	70.6	80.7	30
04/14/01	9:30 a	78.8	80.8	77.1	67	66.9	3.0	WSW	1.50	8.0	78.8	80.7	80.7	29.876	0.00	0.000	0.288	78.8	78	71.4	82.2	30
04/14/01	10:00 a	82.3	84.2	80.6	61	67.5	3.0	WSW	1.50	8.0	82.3	84.9	84.9	29.863	0.00	0.000	0.360	80.4	76	72.1	84.5	30
04/14/01	10:30 a	85.3	87.1	83.8	55	67.3	3.0	NW	1.50	10.0	85.3	88.4	88.4	29.856	0.00	0.000	0.423	82.0	73	72.5	87.0	30
04/14/01	11:00 a	88.3	89.5	86.8	51	67.9	3.0	WNW	1.50	12.0	88.3	92.4	92.4	29.840	0.00	0.000	0.485	83.6	70	72.8	89.9	30
04/14/01	11:30 a	90.4	91.8	89.2	47	67.4	2.0	NW	1.00	9.0	90.4	94.8	94.8	29.827	0.00	0.000	0.529	85.0	66	72.4	91.5	30
04/14/01	12:00 p	90.7	92.1	88.2	56	72.8	3.0	NE	1.50	10.0	90.7	99.5	99.5	29.817	0.00	0.000	0.535	86.4	65	73.2	94.3	30
04/14/01	12:30 p	87.3	88.5	86.2	57	70.2	3.0	NE	1.50	9.0	87.3	92.9	92.9	29.803	0.00	0.000	0.465	87.1	66	74.4	96.1	30
04/14/01	1:00 p	87.2	88.3	86.1	62	72.6	3.0	ENE	1.50	9.0	87.2	94.7	94.7	29.788	0.00	0.000	0.462	87.6	66	74.8	96.7	30
04/14/01	1:30 p	86.1	87.1	85.1	61	71.1	3.0	ENE	1.50	11.0	86.1	92.1	92.1	29.777	0.00	0.000	0.440	88.0	66	75.2	97.2	30
04/14/01	2:00 p	87.0	87.7	86.2	60	71.4	4.0	ENE	2.00	11.0	87.0	93.6	93.6	29.770	0.00	0.000	0.458	88.4	65	75.1	97.9	30
04/14/01	2:30 p	86.6	88.0	85.8	64	73.0	4.0	NE	2.00	13.0	86.6	94.3	94.3	29.765	0.00	0.000	0.450	89.2	65	75.9	100.2	30
04/14/01	3:00 p	86.1	86.7	85.4	63	72.0	4.0	NE	2.00	13.0	86.1	92.9	92.9	29.755	0.00	0.000	0.440	89.7	65	76.4	101.8	30
04/14/01	3:30 p	85.6	86.6	84.4	67	73.4	4.0	NE	2.00	14.0	85.6	93.2	93.2	29.748	0.00	0.000	0.429	89.9	65	76.6	102.5	30
04/14/01	4:00 p	84.6	85.3	84.0	67	72.4	3.0	ENE	1.50	10.0	84.6	91.0	91.0	29.744	0.00	0.000	0.408	89.8	64	76.0	101.6	30
04/14/01	4:30 p	83.8	84.8	82.2	71	73.4	4.0	NE	2.00	12.0	83.8	90.8	90.8	29.739	0.00	0.000	0.392	89.7	64	75.9	101.3	30
04/14/01	5:00 p	81.8	82.7	80.8	73	72.3	4.0	NE	2.00	11.0	81.8	86.6	86.6	29.738	0.00	0.000	0.350	88.9	65	75.6	99.3	30
04/14/01	5:30 p	80.5	81.3	79.8	76	72.2	3.0	NE	1.50	12.0	80.5	84.7	84.7	29.739	0.00	0.000	0.323	87.7	66	74.9	96.9	30
04/14/01	6:00 p	79.5	80.0	79.0	78	72.0	3.0	NE	1.50	10.0	79.5	83.3	83.3	29.745	0.00	0.000	0.302	86.7	67	74.4	95.7	30
04/14/01	6:30 p	78.7	79.2	78.2	79	71.6	2.0	ENE	1.00	8.0	78.7	82.2	82.2	29.756	0.00	0.000	0.285	85.6	68	73.8	93.6	30
04/14/01	7:00 p	77.9	78.4	77.5	81	71.6	2.0	ENE	1.00	7.0	77.9	81.4	81.4	29.767	0.00	0.000	0.269	84.7	69	73.4	91.9	30
04/14/01	7:30 p	77.4	77.8	77.0	81	71.1	2.0	ENE	1.00	7.0	77.4	80.7	80.7	29.767	0.00	0.000	0.258	83.9	70	73.1	90.7	30
04/14/01	8:00 p	77.0	77.3	76.7	82	71.1	1.0	ENE	0.50	7.0	77.0	80.2	80.2	29.775	0.00	0.000	0.250	83.3	71	72.9	89.5	30
04/14/01	8:30 p	77.0	77.2	76.7	82	71.1	1.0	ESE	0.50	5.0	77.0	80.2	80.2	29.779	0.00	0.000	0.250	82.8	72	72.8	88.6	30
04/14/01	9:00 p	76.8	77.2	76.5	83	71.2	1.0	ENE	0.50	6.0	76.8	80.1	80.1	29.794	0.00	0.000	0.246	82.3	73	72.8	87.7	30
04/14/01	9:30 p	76.8	77.0	76.5	82	70.9	0.0	ESE	0.00	6.0	76.8	80.0	80.0	29.802	0.00	0.000	0.246	82.0	73	72.5	87.0	30
04/14/01	10:00 p	76.7	76.9	76.4	82	70.8	0.0	ESE	0.00	2.0	76.7	79.9	79.9	29.800	0.00	0.000	0.244	81.6	74	72.5	86.4	30
04/14/01	10:30 p	76.8	77.0	76.4	82	70.9	0.0	ESE	0.00	2.0	76.8	80.0	80.0	29.802	0.00	0.000	0.246	81.3	75	72.6	86.0	30
04/14/01	11:00 p	76.7	77.0	76.3	83	71.1	0.0	---	0.00	1.0	76.7	80.0	80.0	29.795	0.00	0.000	0.244	81.1	75	72.4	85.6	30
04/14/01	11:30 p	76.4	76.8	75.9	83	70.9	0.0	---	0.00	0.0	76.4	79.6	79.6	29.798	0.00	0.000	0.238	80.8	77	72.9	85.5	30
04/15/01	12:00 a	76.0	76.4	75.7	83	70.5	0.0	---	0.00	0.0	76.0	79.1	79.1	29.795	0.00	0.000	0.229	80.5	76	72.2	84.7	30
04/15/01	12:30 a	75.7	76.2	75.1	84	70.5	0.0	---	0.00	0.0	75.7	78.8	78.8	29.790	0.00	0.000	0.223	80.4	75	71.7	84.3	30
04/15/01	1:00 a	75.1	75.6	74.7	85	70.3	0.0	ESE	0.00	1.0	75.1	78.1	78.1	29.784	0.00	0.000	0.210	80.0	74	71.0	83.4	30
04/15/01	1:30 a	74.9	75.2	74.5	85	70.1	0.0	---	0.00	0.0	74.9	77.8	77.8	29.769	0.00	0.000	0.206	79.7	74	70.7	83.0	30
04/15/01	2:00 a	74.5	75.0	74.0	86	70.0	0.0	---	0.00	0.0	74.5	77.2	77.2	29.762	0.00	0.000	0.198	79.4	74	70.4	82.5	30
04/15/01	2:30 a	73.9	74.4	73.6	86	69.4	0.0	---	0.00	1.0	73.9	76.1	76.1	29.756	0.00	0.000	0.185	79.1	74	70.1	82.0	30
04/15/01	3:00 a	73.6	74.1	73.3	87	69.5	0.0	---	0.00	0.0	73.6	75.9	75.9	29.754	0.00	0.000	0.179	78.8	74	69.8	81.6	30
04/15/01	3:30 a	73.4	73.8	73.1	87	69.3	0.0	---	0.00	0.0	73.4	75.7	75.7	29.754	0.00	0.000	0.175	78.5	73	69.1	81.0	30
04/15/01	4:00 a	73.1	73.5	72.6	87	69.0	0.0	ESE	0.00	2.0	73.1	75.4	75.4	29.752	0.00	0.000	0.169	78.3	73	68.9	80.8	30
04/15/01	4:30 a	72.6	73.2	72.2	88	68.8	0.0	---	0.00	0.0	72.6	74.8	74.8	29.754	0.00	0.000	0.158	77.9	74	68.9	80.4	30
04/15/01	5:00 a	72.2	72.7	71.7	87	68.1	0.0	---	0.00	0.0	72.2	74.2	74.2	29.759	0.00	0.000	0.150	77.6	73	68.3	79.9	30
04/15/01	5:30 a	71.8	72.2	71.2	87	67.7	0.0	---	0.00	0.0	71.8	73.8	73.8	29.759	0.00	0.000	0.142	77.3	73	68.0	79.6	30
04/15/01	6:00 a	71.2	71.7	70.8	87	67.1	0.0	---	0.00	0.0	71.2	73.2	73.2	29.763	0.00	0.000	0.129	76.9	74	68.0	79.3	30
04/15/01	6:30 a	70.9	71.3	70.6	88	67.2	0.0	---	0.00	1.0	70.9	72.9	72.9	29.777	0.00	0.000	0.123	76.6	73	67.3	78.8	30
04/15/01	7:00 a	70.9	71.2	70.6	90	67.8	0.0	ESE	0.00	2.0	70.9	73.1	73.1	29.784	0.00	0.000	0.123	76.5	78	69.1	79.3	30
04/15/01	7:30 a	71.4	72.1	70.9	89	68.0	0.0	ESE	0.00	3.0	71.4	73.5	73.5	29.784	0.00	0.000	0.133	76.6	77	68.8	79.3	30
04/15/01	8:00 a	72.8	73.7	71.9	88	69.0	0.0	SSE	0.00	4.0	72.8	75.1	75.1	29.787	0.00	0.000	0.163	77.1	80	70.5	80.1	30
04/15/01	8:30 a	75.1	76.9	73.5	84	69.9	1.0	NNW	0.50	5.0	75.1	78.0	78.0	29.784	0.00	0.000	0.210	78.0	82	72.1	81.7	30
04/15/01	9:00 a	78.5	80.7	76.6	76	70.3	2.0	WSW	1.00	5.0	78.5	81.5	81.5	29.789	0.00	0.000	0.281	79.4	83	73.8	84.1	30
04/15/01	9:30 a	80.6	81.3	80.2	75	71.9	2.0	NW	1.00	5.0	80.6	84.7	84.7	29.791	0.00	0.000	0.325	80.7	82	74.7	86.4	30
04/15/01	10:00 a	81.3	82.3	80.6	71	71.0	2.0	NW	1.00	7.0	81.3	85.2	85.2	29.793	0.00	0.000	0.340	81.4	80	74.6	87.5	30
04/15/01	10:30 a	83.1	85.0	82.1	67	71.0	2.0	SW	1.00	7.0	83.1	87.7	87.7	29.788	0.00	0.000	0.377	82.3	78	74.7	89.2	30
04/15/01	11:00 a	85.6	86.7	84.1	63	71.6	3.0	SW	1.50	11.0	85.6	91.8	91.8	29.774	0.00	0.000	0.429	83.5	76	75.1	91.7	30
04/15/01	11:30 a	87.9	88.8	86.5	59	71.8	4.0	SW	2.00	9.0	87.9	94.4	94.4	29.755	0.00	0.000	0.477	84.7	74	75.5	93.7	30
04/15/01	12:00 p	90.3	91.7	88.5	51	69.7	4.0	SW	2.00	13.0	90.3	96.2	96.2	29.738	0.00	0.000	0.527	85.9	71	75.4	95.4	30
04/15/01	12:30 p	92.7	93.6	91.2	46	68.9	4.0	SW	2.00	10.0	92.7	98.7	98.7	29.725	0.00	0.000	0.577	87.5	66	74.7	96.6	30
04/15/01	1:00 p	93.2	94.1	92.5	46	69.3	4.0	WSW	2.00	12.0	93.2	99.7	99.7	29.708	0.00	0.000	0.587	88.5	64	74.8	97.8	30
04/15/01	1:30 p	92.4	94.1	91.0	45	68.0	4.0	NW	2.00	14.0	92.4	97.7	97.7	29.694	0.00	0.000	0.571	89.1	60	73.4	97.6	30
04/15/01	2:00 p	93.4	94.0	92.6	44	68.2	4.0	NW	2.00	13.0	93.4	99.1	99.1	29.673	0.00	0.000	0.592	89.6	59	73.4	98.4	30
04/15/01	2:30 p	94.3	95.2	93.3	53	74.5	2.0	NNW	1.00	9.0	94.3	106.5	106.5	29.664	0.00	0.000	0.610	91.0	61	75.7	103.0	30
04/15/01	3:00 p	93.0	94.4	92.3	57	75.5	4.0	ESE	2.00	13.0	93.0	105.8	105.8	29.648	0.00	0.000	0.583	91.8	62	76.9	105.8	30
04/15/01	3:30 p	92.3	93.2	91.2	58	75.4	4.0	ESE	2.00	14.0	92.3	104.6	104.6	29.627	0.00	0.000	0.569	92.3	63	77.9	108.0	30
04/15/01	4:00 p	92.2	93.3	91.3	57	74.8	4.0	ESE	2.00	12.0	92.2	103.7	103.7	29.613	0.00	0.000	0.567	92.3	63	77.9	108.0	30
04/15/01	4:30 p	93.6	94.1	93.1	38	64.2	3.0	WSW	1.50	10.0	93.6	96.4	96.4	29.609	0.00	0.000	0.596	92.5	54	73.4	102.7	30
04/15/01	5:00 p	93.4	94.0	92.3	40	65.5	4.0	SW	2.00	13.0	93.4	97.0	97.0	29.600	0.00	0.000	0.592	92.0	53	72.4	100.9	30
04/15/01	5:30 p	92.1	92.8	90.9	40	64.3	3.0	SW	1.50	10.0	92.1	94.7	94.7	29.603	0.00	0.000	0.565	91.4	55	73.0	100.7	30
04/15/01	6:00 p	89.7	91.1	88.5	43	64.2	3.0	NW	1.50	12.0	89.7	92.1	92.1	29.611	0.00	0.000	0.515	90.3	52	70.3	96.7	30
04/15/01	6:30 p	88.0	88.7	87.1	46	64.6	3.0	NW	1.50	10.0	88.0	90.0	90.0	29.624	0.00	0.000	0.479	89.3	54	70.5	95.6	30
04/15/01	7:00 p	86.5	87.4	85.5	47	63.9	3.0	NW	1.50	8.0	86.5	88.4	88.4	29.635	0.00	0.000	0.448	88.4	55	70.2	94.0	30
04/15/01	7:30 p	85.1	85.8	84.3	48	63.2	3.0	NW	1.50	9.0	85.1	86.6	86.6	29.650	0.00	0.000	0.419	87.6	54	68.9	92.2	30
04/15/01	8:00 p	83.7	84.5	82.7	48	61.9	3.0	NW	1.50	14.0	83.7	85.0	85.0	29.659	0.00	0.000	0.390	86.8	53	67.6	90.7	30
04/15/01	8:30 p	82.2	83.1	81.2	51	62.3	2.0	NW	1.00	9.0	82.2	83.1	83.1	29.672	0.00	0.000	0.358	86.0	53	66.9	89.1	30
04/15/01	9:00 p	80.8	81.6	80.0	55	63.1	3.0	NW	1.50	10.0	80.8	81.7	81.7	29.690	0.00	0.000	0.329	85.2	54	66.7	88.0	30
04/15/01	9:30 p	79.6	80.3	78.8	57	63.0	2.0	NW	1.00	9.0	79.6	80.5	80.5	29.701	0.00	0.000	0.304	84.5	55	66.6	87.3	30
04/15/01	10:00 p	78.4	79.1	77.7	59	62.9	1.0	WNW	0.50	5.0	78.4	79.3	79.3	29.707	0.00	0.000	0.279	83.7	56	66.3	86.3	30
04/15/01	10:30 p	77.2	78.0	76.4	60	62.2	1.0	WNW	0.50	6.0	77.2	78.0	78.0	29.709	0.00	0.000	0.254	82.9	56	65.6	84.9	30
04/15/01	11:00 p	76.0	76.7	75.3	63	62.5	1.0	W	0.50	5.0	76.0	77.0	77.0	29.702	0.00	0.000	0.229	82.1	57	65.4	83.9	30
04/15/01	11:30 p	75.0	75.7	74.3	66	62.9	1.0	WNW	0.50	5.0	75.0	76.4	76.4	29.704	0.00	0.000	0.208	81.6	57	64.9	83.1	30
04/16/01	12:00 a	74.0	74.6	73.4	70	63.6	1.0	WNW	0.50	7.0	74.0	75.6	75.6	29.701	0.00	0.000	0.188	80.9	58	64.7	82.2	30
04/16/01	12:30 a	73.0	73.7	72.3	73	63.8	1.0	NW	0.50	5.0	73.0	74.3	74.3	29.703	0.00	0.000	0.167	80.3	59	64.7	81.6	30
04/16/01	1:00 a	71.9	72.6	71.4	76	63.9	2.0	NW	1.00	8.0	71.9	73.0	73.0	29.697	0.00	0.000	0.144	79.7	60	64.6	80.9	30
04/16/01	1:30 a	71.3	71.8	70.7	79	64.4	2.0	WNW	1.00	7.0	71.3	72.5	72.5	29.695	0.00	0.000	0.131	79.1	61	64.5	80.3	30
04/16/01	2:00 a	70.6	71.1	70.1	82	64.8	2.0	WNW	1.00	7.0	70.6	72.0	72.0	29.685	0.00	0.000	0.117	78.6	62	64.5	79.8	30
04/16/01	2:30 a	70.0	70.5	69.6	83	64.6	2.0	WNW	1.00	7.0	70.0	71.3	71.3	29.672	0.00	0.000	0.104	78.0	63	64.4	79.2	30
04/16/01	3:00 a	69.6	69.9	69.4	85	64.9	1.0	WSW	0.50	5.0	69.6	71.2	71.2	29.666	0.00	0.000	0.096	77.6	63	64.0	78.8	30
04/16/01	3:30 a	69.6	69.9	69.3	86	65.2	1.0	W	0.50	4.0	69.6	71.3	71.3	29.657	0.00	0.000	0.096	77.2	64	64.1	78.4	30
04/16/01	4:00 a	69.4	69.8	69.1	87	65.4	2.0	WSW	1.00	6.0	69.4	71.2	71.2	29.656	0.00	0.000	0.092	76.8	65	64.1	78.1	30
04/16/01	4:30 a	69.4	69.7	69.1	87	65.4	1.0	WSW	0.50	5.0	69.4	71.2	71.2	29.660	0.00	0.000	0.092	76.5	66	64.3	77.9	30
04/16/01	5:00 a	69.3	69.6	68.9	87	65.3	2.0	SW	1.00	6.0	69.3	71.1	71.1	29.667	0.00	0.000	0.090	76.3	66	64.1	77.7	30
04/16/01	5:30 a	68.9	69.4	68.3	87	64.9	2.0	WSW	1.00	6.0	68.9	70.8	70.8	29.682	0.00	0.000	0.081	76.0	67	64.2	77.4	30
04/16/01	6:00 a	68.4	68.8	67.9	89	65.0	1.0	WSW	0.50	6.0	68.4	70.2	70.2	29.712	0.00	0.000	0.071	75.7	68	64.4	77.3	30
04/16/01	6:30 a	68.2	68.7	67.9	90	65.2	1.0	NW	0.50	5.0	68.2	70.0	70.0	29.728	0.00	0.000	0.067	75.3	68	64.0	76.8	30
04/16/01	7:00 a	69.0	69.7	68.3	89	65.6	2.0	NW	1.00	8.0	69.0	71.0	71.0	29.742	0.00	0.000	0.083	75.3	70	64.8	77.0	30
04/16/01	7:30 a	70.2	71.0	69.3	87	66.1	2.0	NW	1.00	8.0	70.2	72.0	72.0	29.748	0.00	0.000	0.108	75.5	71	65.4	77.4	30
04/16/01	8:00 a	71.3	72.2	70.6	84	66.2	3.0	NW	1.50	10.0	71.3	73.0	73.0	29.747	0.00	0.000	0.131	75.9	72	66.2	77.9	30
04/16/01	8:30 a	73.6	75.2	72.0	76	65.6	6.0	NW	3.00	14.0	73.6	75.4	75.4	29.752	0.00	0.000	0.179	76.6	73	67.3	78.8	30
04/16/01	9:00 a	76.5	78.2	75.0	70	66.0	5.0	NW	2.50	17.0	76.5	78.4	78.4	29.752	0.00	0.000	0.240	77.7	74	68.7	80.1	30
04/16/01	9:30 a	79.5	80.9	77.8	61	64.9	6.0	NW	3.00	17.0	79.5	80.8	80.8	29.752	0.00	0.000	0.302	79.1	73	69.7	81.9	30
04/16/01	10:00 a	81.9	83.4	80.5	54	63.6	7.0	NW	3.50	15.0	81.9	83.1	83.1	29.751	0.00	0.000	0.352	80.6	70	69.9	83.7	30
04/16/01	10:30 a	83.7	84.7	82.8	51	63.7	5.0	NW	2.50	14.0	83.7	85.5	85.5	29.752	0.00	0.000	0.390	81.7	66	69.2	84.9	30
04/16/01	11:00 a	85.6	86.7	84.4	44	61.2	6.0	NW	3.00	14.0	85.6	86.5	86.5	29.742	0.00	0.000	0.429	82.7	62	68.4	85.7	30
04/16/01	11:30 a	87.7	88.8	86.4	42	61.8	6.0	NW	3.00	15.0	87.7	88.5	88.5	29.732	0.00	0.000	0.473	83.8	59	67.9	87.1	30
04/16/01	12:00 p	90.1	91.2	88.5	38	61.1	5.0	NW	2.50	13.0	90.1	90.8	90.8	29.719	0.00	0.000	0.523	85.1	57	68.2	88.7	30
04/16/01	12:30 p	91.5	92.0	91.0	36	60.8	6.0	NW	3.00	19.0	91.5	92.3	92.3	29.710	0.00	0.000	0.552	86.4	55	68.3	90.5	30
04/16/01	1:00 p	92.3	92.9	91.4	36	61.5	6.0	NW	3.00	17.0	92.3	93.4	93.4	29.696	0.00	0.000	0.569	87.3	53	68.1	91.5	30
04/16/01	1:30 p	92.8	93.9	91.9	35	61.1	7.0	NW	3.50	18.0	92.8	93.7	93.7	29.688	0.00	0.000	0.579	88.2	51	67.8	92.2	30
04/16/01	2:00 p	92.9	93.6	92.0	34	60.4	6.0	NW	3.00	17.0	92.9	93.6	93.6	29.679	0.00	0.000	0.581	88.8	51	68.3	93.6	30
04/16/01	2:30 p	93.2	94.4	91.8	36	62.3	6.0	NW	3.00	18.0	93.2	94.8	94.8	29.667	0.00	0.000	0.587	89.3	48	67.0	93.4	30
04/16/01	3:00 p	93.4	95.0	92.1	33	60.0	6.0	NW	3.00	14.0	93.4	94.0	94.0	29.660	0.00	0.000	0.592	89.6	49	67.9	94.2	30
04/16/01	3:30 p	94.8	95.7	93.1	44	69.5	5.0	NW	2.50	17.0	94.8	101.9	101.9	29.660	0.00	0.000	0.621	90.3	48	67.9	95.0	30
04/16/01	4:00 p	88.4	93.1	84.9	58	71.7	5.0	NE	2.50	16.0	88.4	95.1	95.1	29.658	0.00	0.000	0.488	90.8	53	71.3	98.2	30
04/16/01	4:30 p	84.3	85.1	83.5	56	66.9	4.0	ENE	2.00	12.0	84.3	87.2	87.2	29.662	0.00	0.000	0.402	90.2	54	71.3	97.4	30
04/16/01	5:00 p	82.8	83.8	82.2	60	67.5	3.0	NE	1.50	11.0	82.8	85.4	85.4	29.666	0.00	0.000	0.371	89.3	54	70.5	95.6	30
04/16/01	5:30 p	81.9	82.5	81.3	60	66.6	3.0	NE	1.50	11.0	81.9	84.1	84.1	29.666	0.00	0.000	0.352	88.4	55	70.2	94.0	30
04/16/01	6:00 p	80.8	81.7	80.1	62	66.6	3.0	ENE	1.50	8.0	80.8	82.7	82.7	29.678	0.00	0.000	0.329	87.5	56	69.9	92.8	30
04/16/01	6:30 p	79.3	80.3	78.6	63	65.6	2.0	ENE	1.00	7.0	79.3	80.8	80.8	29.682	0.00	0.000	0.298	86.3	56	68.8	90.7	30
04/16/01	7:00 p	78.2	79.0	77.2	65	65.5	2.0	E	1.00	7.0	78.2	79.7	79.7	29.697	0.00	0.000	0.275	85.0	57	68.1	88.5	30
04/16/01	7:30 p	77.0	77.5	76.6	65	64.3	1.0	ESE	0.50	6.0	77.0	78.3	78.3	29.711	0.00	0.000	0.250	83.9	58	67.5	87.1	30
04/16/01	8:00 p	76.6	77.1	76.1	66	64.4	0.0	ESE	0.00	4.0	76.6	78.0	78.0	29.726	0.00	0.000	0.242	83.0	59	67.2	85.5	30
04/16/01	8:30 p	75.7	76.3	75.0	69	64.8	0.0	ESE	0.00	2.0	75.7	77.4	77.4	29.738	0.00	0.000	0.223	82.1	59	66.4	84.2	30
04/16/01	9:00 p	74.6	75.2	73.9	70	64.2	0.0	---	0.00	0.0	74.6	76.3	76.3	29.756	0.00	0.000	0.200	81.2	60	66.0	83.0	30
04/16/01	9:30 p	73.6	74.3	73.0	71	63.6	0.0	---	0.00	0.0	73.6	75.1	75.1	29.763	0.00	0.000	0.179	80.6	59	64.9	82.0	30
04/16/01	10:00 p	72.6	73.2	72.0	73	63.4	0.0	---	0.00	0.0	72.6	73.8	73.8	29.775	0.00	0.000	0.158	79.9	59	64.3	81.1	30
04/16/01	10:30 p	71.7	72.3	71.1	74	63.0	0.0	---	0.00	0.0	71.7	72.6	72.6	29.782	0.00	0.000	0.140	79.4	59	63.8	80.5	30
04/16/01	11:00 p	70.8	71.4	70.3	76	62.9	0.0	ESE	0.00	2.0	70.8	71.7	71.7	29.784	0.00	0.000	0.121	78.7	59	63.2	79.6	30
04/16/01	11:30 p	70.1	70.6	69.6	77	62.6	0.0	---	0.00	1.0	70.1	70.9	70.9	29.784	0.00	0.000	0.106	78.1	59	62.6	78.9	30
04/17/01	12:00 a	69.5	70.0	68.9	78	62.3	0.0	ESE	0.00	2.0	69.5	70.6	70.6	29.786	0.00	0.000	0.094	77.5	60	62.5	78.4	30
04/17/01	12:30 a	68.8	69.3	68.2	78	61.7	0.0	ESE	0.00	2.0	68.8	70.1	70.1	29.786	0.00	0.000	0.079	76.9	60	62.0	77.7	30
04/17/01	1:00 a	68.0	68.5	67.5	80	61.6	0.0	ESE	0.00	1.0	68.0	69.3	69.3	29.786	0.00	0.000	0.063	76.3	60	61.4	77.0	30
04/17/01	1:30 a	67.7	68.0	67.5	81	61.7	1.0	NNW	0.50	3.0	67.7	69.0	69.0	29.777	0.00	0.000	0.056	75.9	60	61.0	76.6	30
04/17/01	2:00 a	67.8	68.0	67.5	81	61.8	1.0	NNW	0.50	4.0	67.8	69.1	69.1	29.774	0.00	0.000	0.058	75.5	60	60.6	76.3	30
04/17/01	2:30 a	67.7	68.0	67.3	80	61.3	0.0	NNW	0.00	3.0	67.7	68.9	68.9	29.772	0.00	0.000	0.056	75.0	61	60.6	76.0	30
04/17/01	3:00 a	67.2	67.6	66.8	79	60.5	0.0	NNW	0.00	2.0	67.2	68.3	68.3	29.767	0.00	0.000	0.046	74.6	61	60.3	75.5	30
04/17/01	3:30 a	66.4	67.1	65.8	79	59.7	0.0	---	0.00	0.0	66.4	67.3	67.3	29.767	0.00	0.000	0.029	74.1	61	59.8	74.9	30
04/17/01	4:00 a	65.6	66.2	65.0	79	58.9	0.0	---	0.00	0.0	65.6	66.3	66.3	29.775	0.00	0.000	0.012	73.6	61	59.3	74.3	30
04/17/01	4:30 a	64.9	65.4	64.3	79	58.2	0.0	---	0.00	0.0	64.9	65.5	65.5	29.784	0.00	0.002	0.000	73.1	61	58.8	73.6	30
04/17/01	5:00 a	64.0	64.7	63.4	80	57.7	0.0	---	0.00	0.0	64.0	64.5	64.5	29.793	0.00	0.021	0.000	72.6	61	58.4	72.9	30
04/17/01	5:30 a	63.3	63.8	62.9	80	57.0	0.0	NNW	0.00	2.0	63.3	63.7	63.7	29.800	0.00	0.035	0.000	72.1	61	57.9	72.1	30
04/17/01	6:00 a	62.9	63.3	62.5	80	56.6	0.0	NNW	0.00	3.0	62.9	63.2	63.2	29.810	0.00	0.044	0.000	71.7	61	57.5	71.6	30
04/17/01	6:30 a	62.7	63.0	62.4	81	56.8	1.0	NNW	0.50	4.0	62.7	63.0	63.0	29.827	0.00	0.048	0.000	71.3	61	57.2	71.0	30
04/17/01	7:00 a	63.2	63.8	62.7	79	56.6	2.0	NNW	1.00	6.0	63.2	63.5	63.5	29.841	0.00	0.037	0.000	71.2	61	57.1	70.9	30
04/17/01	7:30 a	64.3	65.1	63.5	71	54.7	2.0	NW	1.00	6.0	64.3	64.2	64.2	29.849	0.00	0.015	0.000	71.3	61	57.2	71.0	30
04/17/01	8:00 a	65.8	66.9	64.8	69	55.3	3.0	NW	1.50	6.0	65.8	65.9	65.9	29.844	0.00	0.000	0.017	71.6	61	57.4	71.4	30
04/17/01	8:30 a	68.7	70.8	66.7	62	55.2	3.0	NW	1.50	7.0	68.7	68.4	68.4	29.839	0.00	0.000	0.077	72.4	63	59.1	72.7	30
04/17/01	9:00 a	72.9	75.0	70.7	53	54.8	3.0	NW	1.50	8.0	72.9	72.7	72.7	29.833	0.00	0.000	0.165	73.8	64	60.9	74.8	30
04/17/01	9:30 a	76.7	78.4	74.7	44	53.1	2.0	NNW	1.00	7.0	76.7	76.2	76.2	29.825	0.00	0.000	0.244	75.5	63	62.0	76.6	30
04/17/01	10:00 a	79.4	81.1	78.2	38	51.6	3.0	NW	1.50	10.0	79.4	78.3	78.3	29.814	0.00	0.000	0.300	77.3	62	63.3	78.3	30
04/17/01	10:30 a	82.0	83.0	80.8	33	50.1	3.0	NNW	1.50	9.0	82.0	80.5	80.5	29.809	0.00	0.000	0.354	79.0	56	62.0	79.7	30
04/17/01	11:00 a	83.7	85.2	82.7	32	50.7	4.0	NW	2.00	10.0	83.7	82.3	82.3	29.800	0.00	0.000	0.390	80.5	53	61.8	81.0	30
04/17/01	11:30 a	85.8	86.7	85.0	32	52.5	3.0	NW	1.50	12.0	85.8	84.5	84.5	29.780	0.00	0.000	0.433	81.7	52	62.4	82.5	30
04/17/01	12:00 p	87.4	88.6	86.3	28	50.3	3.0	NW	1.50	14.0	87.4	85.1	85.1	29.761	0.00	0.000	0.467	83.1	51	63.1	84.5	30
04/17/01	12:30 p	89.1	89.6	88.5	24	47.6	5.0	NW	2.50	12.0	89.1	86.0	86.0	29.745	0.00	0.000	0.502	84.3	50	63.6	86.1	30
04/17/01	1:00 p	90.0	91.4	88.9	22	46.0	3.0	WNW	1.50	12.0	90.0	86.9	86.9	29.728	0.00	0.000	0.521	85.3	48	63.4	86.9	30
04/17/01	1:30 p	91.4	92.1	90.6	21	46.0	4.0	NW	2.00	13.0	91.4	88.2	88.2	29.711	0.00	0.000	0.550	86.3	47	63.7	88.0	30
04/17/01	2:00 p	91.2	92.2	90.5	20	44.5	5.0	NW	2.50	14.0	91.2	87.8	87.8	29.702	0.00	0.000	0.546	87.2	44	62.6	88.6	30
04/17/01	2:30 p	91.8	92.4	90.9	19	43.7	5.0	NW	2.50	13.0	91.8	88.3	88.3	29.692	0.00	0.000	0.558	87.7	44	63.1	89.1	30
04/17/01	3:00 p	92.0	92.7	91.4	20	45.2	5.0	WNW	2.50	17.0	92.0	88.6	88.6	29.679	0.00	0.000	0.563	88.1	42	62.1	88.9	30
04/17/01	3:30 p	92.0	92.7	91.5	21	46.5	5.0	NW	2.50	14.0	92.0	88.8	88.8	29.670	0.00	0.000	0.563	88.1	40	60.7	88.3	30
04/17/01	4:00 p	91.1	91.9	90.1	22	47.0	6.0	NW	3.00	18.0	91.1	88.1	88.1	29.664	0.00	0.000	0.544	88.3	39	60.2	88.4	30
04/17/01	4:30 p	90.6	91.1	89.9	21	45.3	5.0	WNW	2.50	15.0	90.6	87.4	87.4	29.660	0.00	0.000	0.533	88.5	39	60.4	88.8	30
04/17/01	5:00 p	89.2	90.2	88.4	24	47.7	6.0	WNW	3.00	15.0	89.2	86.1	86.1	29.664	0.00	0.000	0.504	88.4	38	59.6	88.3	30
04/17/01	5:30 p	87.4	88.8	86.2	26	48.3	6.0	WNW	3.00	16.0	87.4	84.7	84.7	29.668	0.00	0.000	0.467	87.8	37	58.3	87.2	30
04/17/01	6:00 p	85.2	86.4	84.3	24	44.3	6.0	NW	3.00	17.0	85.2	82.5	82.5	29.680	0.00	0.000	0.421	86.6	35	55.7	85.8	30
04/17/01	6:30 p	82.9	84.4	81.5	28	46.4	5.0	NW	2.50	13.0	82.9	80.7	80.7	29.698	0.00	0.000	0.373	85.3	35	54.5	84.5	30
04/17/01	7:00 p	80.4	81.6	79.3	33	48.7	4.0	NW	2.00	12.0	80.4	78.7	78.7	29.713	0.00	0.000	0.321	83.5	37	54.5	82.9	30
04/17/01	7:30 p	78.2	79.3	77.3	36	49.1	3.0	NW	1.50	12.0	78.2	77.0	77.0	29.729	0.00	0.000	0.275	81.9	39	54.5	81.1	30
04/17/01	8:00 p	76.5	77.4	75.7	42	51.7	3.0	NW	1.50	9.0	76.5	75.8	75.8	29.749	0.00	0.000	0.240	81.0	41	55.1	80.1	30
04/17/01	8:30 p	75.3	75.9	74.4	46	53.1	2.0	WNW	1.00	6.0	75.3	75.1	75.1	29.769	0.00	0.000	0.215	79.8	44	55.9	79.3	30
04/17/01	9:00 p	73.8	74.6	73.2	48	52.9	2.0	NW	1.00	8.0	73.8	73.3	73.3	29.779	0.00	0.000	0.183	79.0	44	55.2	78.6	30
04/17/01	9:30 p	72.6	73.4	72.0	49	52.3	3.0	NW	1.50	8.0	72.6	71.9	71.9	29.791	0.00	0.000	0.158	78.9	45	55.8	78.6	30
04/17/01	10:00 p	71.7	72.3	71.2	50	52.1	2.0	NW	1.00	7.0	71.7	70.6	70.6	29.801	0.00	0.000	0.140	78.4	45	55.3	78.0	30
04/17/01	10:30 p	71.1	71.4	70.7	51	52.0	3.0	NW	1.50	9.0	71.1	69.8	69.8	29.810	0.00	0.000	0.127	77.9	45	54.8	77.5	30
04/17/01	11:00 p	70.5	70.9	70.2	52	52.0	4.0	NW	2.00	9.0	70.5	69.1	69.1	29.814	0.00	0.000	0.115	77.5	45	54.5	77.1	30
04/17/01	11:30 p	70.0	70.4	69.7	53	52.1	2.0	NW	1.00	6.0	70.0	68.5	68.5	29.823	0.00	0.000	0.104	77.1	45	54.1	76.6	30
04/18/01	12:00 a	69.6	69.9	68.9	52	51.2	2.0	NW	1.00	16.0	69.6	68.2	68.2	29.827	0.00	0.000	0.096	76.7	45	53.8	76.2	30
04/18/01	12:30 a	69.0	69.3	68.4	54	51.7	6.0	N	3.00	16.0	69.0	67.9	67.9	29.837	0.00	0.000	0.083	75.9	47	54.2	75.7	30
04/18/01	1:00 a	67.8	68.8	67.0	50	48.5	7.0	N	3.50	17.0	67.8	66.5	66.5	29.849	0.00	0.000	0.058	75.1	46	52.9	74.9	30
04/18/01	1:30 a	66.6	67.3	66.1	49	46.8	7.0	N	3.50	22.0	66.6	65.0	65.0	29.858	0.00	0.000	0.033	74.3	44	51.0	73.7	30
04/18/01	2:00 a	65.8	66.4	65.1	49	46.1	6.0	N	3.00	21.0	65.8	64.1	64.1	29.867	0.00	0.000	0.017	73.6	44	50.3	72.8	30
04/18/01	2:30 a	64.9	65.4	64.4	48	44.7	6.0	N	3.00	18.0	64.9	63.0	63.0	29.871	0.00	0.002	0.000	73.0	43	49.2	71.9	30
04/18/01	3:00 a	64.3	64.7	63.9	47	43.6	6.0	N	3.00	17.0	64.3	62.3	62.3	29.878	0.00	0.015	0.000	72.4	43	48.6	71.0	30
04/18/01	3:30 a	63.3	64.3	62.3	39	37.9	5.0	NNW	2.50	14.0	63.3	60.5	60.5	29.889	0.00	0.035	0.000	72.1	41	47.1	70.4	30
04/18/01	4:00 a	61.7	62.5	60.8	39	36.5	5.0	NW	2.50	13.0	61.7	58.9	58.9	29.899	0.00	0.069	0.000	71.5	40	45.9	69.3	30
04/18/01	4:30 a	60.4	61.1	59.5	41	36.6	5.0	NW	2.50	14.0	60.4	57.8	57.8	29.914	0.00	0.096	0.000	70.8	39	44.6	68.3	30
04/18/01	5:00 a	59.0	59.8	58.1	42	35.9	5.0	NW	2.50	15.0	58.8	56.5	56.3	29.933	0.00	0.125	0.000	70.0	39	43.9	67.2	30
04/18/01	5:30 a	57.7	58.2	57.1	44	35.9	6.0	NW	3.00	15.0	56.8	55.4	54.5	29.954	0.00	0.152	0.000	69.3	39	43.3	66.7	30
04/18/01	6:00 a	56.7	57.3	56.2	43	34.4	5.0	NNW	2.50	13.0	56.1	54.4	53.8	29.977	0.00	0.173	0.000	68.6	39	42.6	66.1	30
04/18/01	6:30 a	55.7	56.2	55.5	43	33.5	5.0	NW	2.50	13.0	54.9	53.4	52.6	30.000	0.00	0.194	0.000	67.9	38	41.3	65.3	30
04/18/01	7:00 a	55.7	56.2	55.4	44	34.1	5.0	NNW	2.50	13.0	54.9	53.5	52.7	30.011	0.00	0.194	0.000	67.3	38	40.8	64.6	30
04/18/01	7:30 a	56.3	56.7	56.0	45	35.2	5.0	NW	2.50	14.0	55.6	54.1	53.4	30.028	0.00	0.181	0.000	67.1	39	41.3	64.5	30
04/18/01	8:00 a	57.0	57.6	56.6	45	35.9	6.0	NW	3.00	13.0	56.0	54.8	53.8	30.037	0.00	0.167	0.000	67.2	39	41.4	64.6	30
04/18/01	8:30 a	58.5	59.4	57.6	45	37.2	5.0	NNW	2.50	13.0	58.2	56.2	55.9	30.044	0.00	0.135	0.000	67.5	40	42.3	65.1	30
04/18/01	9:00 a	60.8	62.1	59.3	45	39.3	5.0	NNW	2.50	16.0	60.8	58.5	58.5	30.044	0.00	0.088	0.000	68.1	41	43.5	65.8	30
04/18/01	9:30 a	63.0	64.2	62.1	46	41.9	6.0	N	3.00	18.0	63.0	60.8	60.8	30.048	0.00	0.042	0.000	69.1	43	45.7	67.0	30
04/18/01	10:00 a	64.8	65.5	64.1	48	44.6	6.0	N	3.00	16.0	64.8	62.9	62.9	30.048	0.00	0.004	0.000	70.4	45	48.0	68.3	30
04/18/01	10:30 a	66.4	66.9	65.4	45	44.4	7.0	N	3.50	19.0	66.4	64.4	64.4	30.046	0.00	0.000	0.029	71.7	45	49.2	70.1	30
04/18/01	11:00 a	68.0	68.7	66.8	42	44.0	6.0	N	3.00	19.0	68.0	65.8	65.8	30.034	0.00	0.000	0.063	72.9	45	50.3	71.9	30
04/18/01	11:30 a	69.7	70.8	68.7	33	39.3	6.0	NNW	3.00	17.0	69.7	66.4	66.4	30.029	0.00	0.000	0.098	74.3	43	50.4	73.6	30
04/18/01	12:00 p	70.0	70.8	69.1	38	43.2	7.0	N	3.50	18.0	70.0	67.1	67.1	30.016	0.00	0.000	0.104	75.3	41	50.0	74.6	30
04/18/01	12:30 p	70.0	70.6	69.2	37	42.5	6.0	N	3.00	21.0	70.0	67.1	67.1	30.014	0.00	0.000	0.104	75.8	40	49.8	74.9	30
04/18/01	1:00 p	69.8	70.4	69.2	37	42.3	6.0	N	3.00	19.0	69.8	66.9	66.9	30.011	0.00	0.000	0.100	76.2	39	49.4	75.3	30
04/18/01	1:30 p	70.1	71.0	69.3	35	41.2	6.0	N	3.00	18.0	70.1	67.0	67.0	30.006	0.00	0.000	0.106	76.5	39	49.7	75.6	30
04/18/01	2:00 p	70.7	71.4	70.0	35	41.7	6.0	N	3.00	17.0	70.7	67.8	67.8	30.004	0.00	0.000	0.119	77.0	39	50.1	76.2	30
04/18/01	2:30 p	70.8	71.2	70.4	33	40.3	5.0	N	2.50	15.0	70.8	67.7	67.7	29.998	0.00	0.000	0.121	77.4	38	49.8	76.4	30
04/18/01	3:00 p	71.3	71.9	71.0	32	39.9	6.0	N	3.00	18.0	71.3	68.3	68.3	29.993	0.00	0.000	0.131	77.8	37	49.4	76.7	30
04/18/01	3:30 p	71.4	71.8	70.5	32	40.0	5.0	N	2.50	17.0	71.4	68.5	68.5	29.991	0.00	0.000	0.133	78.1	36	49.0	76.9	30
04/18/01	4:00 p	70.8	71.2	70.1	33	40.3	5.0	N	2.50	15.0	70.8	67.7	67.7	29.980	0.00	0.000	0.121	78.1	36	49.0	76.9	30
04/18/01	4:30 p	70.3	70.7	69.9	34	40.6	5.0	N	2.50	17.0	70.3	67.2	67.2	29.983	0.00	0.000	0.110	78.2	36	49.1	77.0	30
04/18/01	5:00 p	69.4	70.2	68.2	38	42.7	5.0	N	2.50	13.0	69.4	66.7	66.7	29.988	0.00	0.000	0.092	78.0	36	48.9	76.8	30
04/18/01	5:30 p	67.9	68.6	66.8	41	43.3	4.0	N	2.00	17.0	67.9	65.6	65.6	29.995	0.00	0.000	0.060	77.3	37	49.0	76.3	30
04/18/01	6:00 p	65.7	66.8	65.0	45	43.8	4.0	N	2.00	13.0	65.7	63.6	63.6	30.007	0.00	0.000	0.015	75.8	37	47.7	74.7	30
04/18/01	6:30 p	64.2	65.4	63.1	47	43.5	4.0	N	2.00	12.0	64.2	62.2	62.2	30.021	0.00	0.017	0.000	74.4	39	47.8	73.5	30
04/18/01	7:00 p	62.5	63.3	61.7	48	42.5	3.0	N	1.50	10.0	62.5	60.4	60.4	30.033	0.00	0.052	0.000	73.1	39	46.7	71.7	30
04/18/01	7:30 p	61.4	61.9	60.9	46	40.4	3.0	N	1.50	11.0	61.4	59.2	59.2	30.043	0.00	0.075	0.000	72.0	39	45.7	70.0	30
04/18/01	8:00 p	60.5	61.0	60.1	48	40.7	4.0	N	2.00	12.0	60.5	58.4	58.4	30.057	0.00	0.094	0.000	70.8	39	44.6	68.3	30
04/18/01	8:30 p	60.1	60.3	59.9	48	40.3	3.0	N	1.50	9.0	60.1	58.0	58.0	30.074	0.00	0.102	0.000	69.8	39	43.7	67.1	30
04/18/01	9:00 p	59.8	60.1	59.5	49	40.6	2.0	N	1.00	9.0	59.8	57.7	57.7	30.088	0.00	0.108	0.000	69.1	40	43.8	66.7	30
04/18/01	9:30 p	59.6	59.8	59.3	47	39.3	2.0	N	1.00	10.0	59.6	57.4	57.4	30.095	0.00	0.113	0.000	68.6	40	43.3	66.2	30
04/18/01	10:00 p	59.3	59.6	59.1	46	38.5	2.0	N	1.00	7.0	59.3	57.1	57.1	30.099	0.00	0.119	0.000	68.1	39	42.2	65.6	30
04/18/01	10:30 p	59.3	59.5	59.1	52	41.7	2.0	N	1.00	7.0	59.3	57.5	57.5	30.106	0.00	0.119	0.000	67.6	41	43.1	65.3	30
04/18/01	11:00 p	59.4	59.6	59.1	54	42.7	2.0	N	1.00	7.0	59.4	57.7	57.7	30.118	0.00	0.117	0.000	67.2	42	43.3	65.0	30
04/18/01	11:30 p	59.4	59.6	59.3	58	44.6	1.0	N	0.50	6.0	59.4	58.0	58.0	30.120	0.00	0.117	0.000	66.9	43	43.7	64.7	30
04/19/01	12:00 a	58.6	59.6	57.3	57	43.4	1.0	NNW	0.50	4.0	58.6	57.1	57.1	30.120	0.00	0.133	0.000	66.5	43	43.3	64.3	30
04/19/01	12:30 a	56.3	57.3	55.4	59	42.1	1.0	NNW	0.50	3.0	56.3	54.9	54.9	30.116	0.00	0.181	0.000	66.0	42	42.2	63.6	30
04/19/01	1:00 a	54.8	55.5	54.3	61	41.6	1.0	NNW	0.50	4.0	54.8	53.6	53.6	30.113	0.00	0.213	0.000	65.3	43	42.2	63.0	30
04/19/01	1:30 a	54.1	54.4	53.8	62	41.4	1.0	NNW	0.50	3.0	54.1	53.0	53.0	30.106	0.00	0.227	0.000	64.8	43	41.8	62.4	30
04/19/01	2:00 a	53.5	53.9	53.2	64	41.6	1.0	NNW	0.50	4.0	53.5	52.5	52.5	30.101	0.00	0.240	0.000	64.2	43	41.2	61.8	30
04/19/01	2:30 a	53.1	53.3	52.9	65	41.6	1.0	NNW	0.50	3.0	53.1	52.2	52.2	30.101	0.00	0.248	0.000	63.7	44	41.4	61.4	30
04/19/01	3:00 a	53.0	53.1	52.9	67	42.3	1.0	NNW	0.50	3.0	53.0	52.2	52.2	30.104	0.00	0.250	0.000	63.3	44	41.0	60.9	30
04/19/01	3:30 a	53.0	53.2	52.8	67	42.3	0.0	NNW	0.00	5.0	53.0	52.2	52.2	30.107	0.00	0.250	0.000	63.1	45	41.4	60.8	30
04/19/01	4:00 a	53.0	53.2	52.7	68	42.7	0.0	NNW	0.00	4.0	53.0	52.2	52.2	30.115	0.00	0.250	0.000	62.8	45	41.1	60.5	30
04/19/01	4:30 a	52.6	52.8	52.4	68	42.3	1.0	NNW	0.50	4.0	52.6	51.9	51.9	30.120	0.00	0.258	0.000	62.5	46	41.4	60.3	30
04/19/01	5:00 a	52.5	52.7	52.3	67	41.9	0.0	NNW	0.00	3.0	52.5	51.7	51.7	30.126	0.00	0.260	0.000	62.2	46	41.2	60.0	30
04/19/01	5:30 a	52.3	52.5	52.2	67	41.7	0.0	NNW	0.00	3.0	52.3	51.6	51.6	30.137	0.00	0.265	0.000	61.9	46	40.9	59.7	30
04/19/01	6:00 a	53.1	54.9	52.3	62	40.4	1.0	NE	0.50	8.0	53.1	52.1	52.1	30.147	0.00	0.248	0.000	61.7	48	41.8	59.6	30
04/19/01	6:30 a	55.0	56.0	54.1	64	43.0	1.0	NW	0.50	6.0	55.0	53.9	53.9	30.165	0.00	0.208	0.000	61.8	47	41.3	59.7	30
04/19/01	7:00 a	53.7	54.1	53.5	64	41.8	1.0	NW	0.50	4.0	53.7	52.7	52.7	30.168	0.00	0.235	0.000	61.6	47	41.2	59.4	30
04/19/01	7:30 a	54.2	55.0	53.8	67	43.5	0.0	NW	0.00	3.0	54.2	53.3	53.3	30.176	0.00	0.225	0.000	61.7	48	41.8	59.6	30
04/19/01	8:00 a	59.0	63.0	55.0	52	41.4	2.0	NE	1.00	11.0	59.0	57.2	57.2	30.172	0.00	0.125	0.000	62.6	51	44.2	60.8	30
04/19/01	8:30 a	65.2	67.3	62.8	47	44.5	4.0	NE	2.00	11.0	65.2	63.2	63.2	30.159	0.00	0.000	0.004	64.9	52	46.8	63.4	30
04/19/01	9:00 a	67.0	67.9	66.7	45	44.9	3.0	NE	1.50	9.0	67.0	65.1	65.1	30.167	0.00	0.000	0.042	66.5	50	47.3	65.0	30
04/19/01	9:30 a	69.4	70.7	67.9	41	44.7	4.0	ENE	2.00	12.0	69.4	67.0	67.0	30.166	0.00	0.000	0.092	68.1	49	48.2	66.7	30
04/19/01	10:00 a	71.3	72.2	70.4	39	45.1	5.0	NE	2.50	14.0	71.3	69.0	69.0	30.169	0.00	0.000	0.131	69.8	48	49.2	68.0	30
04/19/01	10:30 a	73.2	74.6	71.9	36	44.6	4.0	NE	2.00	15.0	73.2	71.6	71.6	30.165	0.00	0.000	0.171	71.4	47	50.1	69.9	30
04/19/01	11:00 a	74.6	75.6	73.9	38	47.3	5.0	ENE	2.50	12.0	74.6	73.6	73.6	30.164	0.00	0.000	0.200	72.9	47	51.5	72.1	30
04/19/01	11:30 a	75.9	76.5	75.3	38	48.5	5.0	ENE	2.50	17.0	75.9	74.9	74.9	30.150	0.00	0.000	0.227	74.4	47	52.9	74.1	30
04/19/01	12:00 p	76.5	77.5	75.4	33	45.2	4.0	ENE	2.00	13.0	76.5	75.3	75.3	30.146	0.00	0.000	0.240	75.8	46	53.5	75.5	30
04/19/01	12:30 p	77.7	78.7	76.7	33	46.3	4.0	NE	2.00	14.0	77.7	76.4	76.4	30.137	0.00	0.000	0.265	77.0	44	53.4	76.4	30
04/19/01	1:00 p	77.9	78.5	77.1	33	46.5	4.0	NE	2.00	12.0	77.9	76.5	76.5	30.125	0.00	0.000	0.269	78.0	42	53.0	77.3	30
04/19/01	1:30 p	79.0	80.5	78.0	30	44.9	4.0	ENE	2.00	15.0	79.0	77.2	77.2	30.116	0.00	0.000	0.292	78.9	42	53.9	78.3	30
04/19/01	2:00 p	80.3	81.4	79.3	36	50.9	5.0	ENE	2.50	20.0	80.3	78.9	78.9	30.101	0.00	0.000	0.319	79.8	42	54.7	79.1	30
04/19/01	2:30 p	78.9	79.6	78.0	38	51.1	6.0	NE	3.00	20.0	78.9	77.9	77.9	30.088	0.00	0.000	0.290	80.4	42	55.2	79.6	30
04/19/01	3:00 p	76.3	77.8	75.0	40	50.2	5.0	ENE	2.50	15.0	76.3	75.4	75.4	30.083	0.00	0.000	0.235	80.0	41	54.2	79.1	30
04/19/01	3:30 p	76.7	78.4	74.6	40	50.6	5.0	E	2.50	20.0	76.7	75.9	75.9	30.082	0.00	0.000	0.244	79.5	42	54.4	78.8	30
04/19/01	4:00 p	76.1	77.2	74.6	41	50.7	5.0	ENE	2.50	17.0	76.1	75.3	75.3	30.084	0.00	0.000	0.231	79.4	41	53.6	78.6	30
04/19/01	4:30 p	74.9	75.9	73.8	42	50.3	5.0	ENE	2.50	16.0	74.9	74.3	74.3	30.085	0.00	0.000	0.206	79.0	42	53.9	78.4	30
04/19/01	5:00 p	74.6	75.3	74.0	41	49.3	5.0	ESE	2.50	18.0	74.6	73.8	73.8	30.089	0.00	0.000	0.200	78.5	42	53.5	77.8	30
04/19/01	5:30 p	73.7	74.9	72.4	43	49.8	4.0	E	2.00	14.0	73.7	72.9	72.9	30.103	0.00	0.000	0.181	77.7	42	52.8	77.0	30
04/19/01	6:00 p	72.1	72.6	71.7	42	47.7	3.0	ENE	1.50	13.0	72.1	70.5	70.5	30.114	0.00	0.000	0.148	76.8	42	52.0	76.1	30
04/19/01	6:30 p	71.2	72.0	70.6	44	48.2	2.0	ENE	1.00	10.0	71.2	69.3	69.3	30.115	0.00	0.000	0.129	76.1	42	51.3	75.4	30
04/19/01	7:00 p	70.2	70.8	69.6	44	47.3	2.0	E	1.00	11.0	70.2	68.0	68.0	30.124	0.00	0.000	0.108	75.3	43	51.3	74.8	30
04/19/01	7:30 p	69.0	69.6	68.4	45	46.8	2.0	ESE	1.00	10.0	69.0	67.1	67.1	30.132	0.00	0.000	0.083	74.5	43	50.5	73.9	30
04/19/01	8:00 p	68.0	68.6	67.2	49	48.1	0.0	E	0.00	2.0	68.0	66.6	66.6	30.137	0.00	0.000	0.063	73.9	43	50.0	73.1	30
04/19/01	8:30 p	66.8	67.4	66.4	52	48.6	0.0	E	0.00	5.0	66.8	65.6	65.6	30.147	0.00	0.000	0.038	73.2	43	49.4	72.2	30
04/19/01	9:00 p	66.6	66.8	66.4	50	47.4	2.0	E	1.00	7.0	66.6	65.1	65.1	30.156	0.00	0.000	0.033	72.7	44	49.5	71.6	30
04/19/01	9:30 p	66.5	66.7	66.1	47	45.6	2.0	ESE	1.00	8.0	66.5	64.7	64.7	30.163	0.00	0.000	0.031	72.2	44	49.1	70.8	30
04/19/01	10:00 p	66.1	66.4	65.8	46	44.7	2.0	ESE	1.00	8.0	66.1	64.1	64.1	30.170	0.00	0.000	0.023	71.6	43	47.9	69.8	30
04/19/01	10:30 p	65.7	66.0	65.2	50	46.5	1.0	E	0.50	7.0	65.7	64.1	64.1	30.169	0.00	0.000	0.015	71.1	44	48.1	69.1	30
04/19/01	11:00 p	64.6	65.3	63.6	55	48.1	0.0	E	0.00	1.0	64.6	63.4	63.4	30.176	0.00	0.008	0.000	70.5	44	47.5	68.4	30
04/19/01	11:30 p	63.3	63.8	62.8	57	47.8	0.0	---	0.00	1.0	63.3	62.1	62.1	30.181	0.00	0.035	0.000	69.9	45	47.6	67.7	30
04/20/01	12:00 a	62.9	63.1	62.7	60	48.8	0.0	E	0.00	2.0	62.9	61.8	61.8	30.181	0.00	0.044	0.000	69.5	46	47.8	67.6	30
04/20/01	12:30 a	64.2	65.4	62.8	55	47.7	3.0	ESE	1.50	11.0	64.2	62.9	62.9	30.179	0.00	0.017	0.000	69.5	47	48.4	67.6	30
04/20/01	1:00 a	65.5	65.8	65.1	52	47.4	3.0	ESE	1.50	12.0	65.5	64.1	64.1	30.168	0.00	0.000	0.010	69.6	47	48.5	67.7	30
04/20/01	1:30 a	65.3	65.7	64.9	57	49.7	1.0	SE	0.50	4.0	65.3	64.3	64.3	30.160	0.00	0.000	0.006	69.4	47	48.3	67.6	30
04/20/01	2:00 a	64.8	65.4	64.4	58	49.7	1.0	ESE	0.50	10.0	64.8	63.8	63.8	30.155	0.00	0.004	0.000	69.2	47	48.1	67.4	30
04/20/01	2:30 a	65.8	66.5	65.1	56	49.7	3.0	E	1.50	12.0	65.8	64.8	64.8	30.149	0.00	0.000	0.017	69.1	49	49.1	67.6	30
04/20/01	3:00 a	66.6	67.0	66.2	56	50.4	3.0	E	1.50	12.0	66.6	65.7	65.7	30.146	0.00	0.000	0.033	69.2	49	49.2	67.6	30
04/20/01	3:30 a	67.0	67.3	66.7	55	50.3	4.0	ESE	2.00	14.0	67.0	66.1	66.1	30.149	0.00	0.000	0.042	69.4	50	49.9	67.9	30
04/20/01	4:00 a	67.2	67.5	66.9	55	50.5	5.0	ESE	2.50	22.0	67.2	66.3	66.3	30.149	0.00	0.000	0.046	69.5	51	50.6	68.0	30
04/20/01	4:30 a	66.9	67.3	66.6	53	49.2	5.0	ESE	2.50	15.0	66.9	65.8	65.8	30.159	0.00	0.000	0.040	69.5	50	50.0	67.9	30
04/20/01	5:00 a	66.4	66.9	65.8	53	48.7	2.0	ESE	1.00	10.0	66.4	65.2	65.2	30.166	0.00	0.000	0.029	69.3	50	49.9	67.8	30
04/20/01	5:30 a	65.4	66.0	64.7	57	49.8	1.0	ESE	0.50	5.0	65.4	64.4	64.4	30.169	0.00	0.000	0.008	69.0	49	49.0	67.5	30
04/20/01	6:00 a	64.0	64.9	63.1	61	50.3	0.0	---	0.00	0.0	64.0	63.2	63.2	30.182	0.00	0.021	0.000	68.5	50	49.1	67.1	30
04/20/01	6:30 a	63.0	63.9	62.6	60	48.9	1.0	SE	0.50	12.0	63.0	61.9	61.9	30.188	0.00	0.042	0.000	68.1	50	48.8	66.8	30
04/20/01	7:00 a	65.6	66.8	63.7	53	48.0	5.0	ESE	2.50	17.0	65.6	64.3	64.3	30.192	0.00	0.000	0.012	68.3	51	49.5	67.1	30
04/20/01	7:30 a	67.6	68.5	66.6	51	48.8	6.0	ESE	3.00	19.0	67.6	66.4	66.4	30.202	0.00	0.000	0.054	68.9	51	50.0	67.6	30
04/20/01	8:00 a	68.9	69.9	68.2	50	49.5	5.0	ESE	2.50	18.0	68.9	67.5	67.5	30.201	0.00	0.000	0.081	69.8	53	51.9	68.4	30
04/20/01	8:30 a	70.8	72.3	69.7	49	50.7	5.0	ESE	2.50	14.0	70.8	69.2	69.2	30.204	0.00	0.000	0.121	70.9	53	52.9	69.7	30
04/20/01	9:00 a	73.6	74.9	72.1	46	51.5	5.0	ESE	2.50	16.0	73.6	72.9	72.9	30.202	0.00	0.000	0.179	72.3	53	54.2	71.8	30
04/20/01	9:30 a	76.0	77.1	75.0	45	53.1	4.0	ESE	2.00	14.0	76.0	75.6	75.6	30.199	0.00	0.000	0.229	73.8	53	55.6	73.8	30
04/20/01	10:00 a	77.9	78.4	77.0	44	54.2	5.0	E	2.50	15.0	77.9	77.4	77.4	30.204	0.00	0.000	0.269	75.1	53	56.8	75.4	30
04/20/01	10:30 a	78.9	79.8	78.1	44	55.1	4.0	ENE	2.00	15.0	78.9	78.5	78.5	30.199	0.00	0.000	0.290	76.6	53	58.2	76.7	30
04/20/01	11:00 a	79.6	80.1	78.7	48	58.2	5.0	ESE	2.50	17.0	79.6	79.5	79.5	30.197	0.00	0.000	0.304	78.1	52	59.0	78.3	30
04/20/01	11:30 a	78.0	79.0	77.1	51	58.4	6.0	ESE	3.00	21.0	78.0	78.1	78.1	30.188	0.00	0.000	0.271	78.7	52	59.6	79.0	30
04/20/01	12:00 p	78.7	80.2	77.3	47	56.8	7.0	ESE	3.50	21.0	78.7	78.6	78.6	30.183	0.00	0.000	0.285	78.9	53	60.3	79.3	30
04/20/01	12:30 p	80.5	81.7	79.6	45	57.2	8.0	ESE	4.00	23.0	80.1	80.1	79.7	30.172	0.00	0.000	0.323	80.0	52	60.8	80.3	30
04/20/01	1:00 p	81.6	82.1	81.0	43	56.9	7.0	E	3.50	25.0	81.6	81.1	81.1	30.163	0.00	0.000	0.346	81.1	51	61.3	81.5	30
04/20/01	1:30 p	81.3	82.4	80.3	43	56.7	8.0	ESE	4.00	23.0	80.9	80.8	80.4	30.157	0.00	0.000	0.340	81.8	49	60.8	82.2	30
04/20/01	2:00 p	80.4	81.1	79.6	44	56.5	8.0	ESE	4.00	22.0	80.0	79.9	79.5	30.147	0.00	0.000	0.321	81.7	49	60.7	82.0	30
04/20/01	2:30 p	81.2	82.8	80.2	42	55.9	8.0	ESE	4.00	26.0	80.8	80.5	80.1	30.137	0.00	0.000	0.337	81.8	49	60.8	82.2	30
04/20/01	3:00 p	82.4	83.5	80.9	43	57.7	8.0	ESE	4.00	21.0	82.1	82.3	82.0	30.130	0.00	0.000	0.363	82.4	49	61.3	83.1	30
04/20/01	3:30 p	81.4	82.1	80.8	43	56.8	7.0	E	3.50	21.0	81.4	80.9	80.9	30.115	0.00	0.000	0.342	82.9	48	61.2	83.8	30
04/20/01	4:00 p	81.4	82.3	80.5	43	56.8	7.0	ESE	3.50	22.0	81.4	80.9	80.9	30.105	0.00	0.000	0.342	83.0	47	60.7	83.8	30
04/20/01	4:30 p	80.5	81.1	79.9	44	56.6	7.0	E	3.50	20.0	80.5	80.0	80.0	30.104	0.00	0.000	0.323	82.9	47	60.6	83.6	30
04/20/01	5:00 p	79.0	79.9	78.0	45	55.8	7.0	ENE	3.50	24.0	79.0	78.7	78.7	30.109	0.00	0.000	0.292	82.6	47	60.3	83.1	30
04/20/01	5:30 p	78.5	79.4	77.1	46	56.0	8.0	ESE	4.00	22.0	78.1	78.2	77.8	30.114	0.00	0.000	0.281	81.9	46	59.1	81.9	30
04/20/01	6:00 p	76.3	77.5	75.3	47	54.6	5.0	E	2.50	21.0	76.3	76.0	76.0	30.120	0.00	0.000	0.235	80.9	46	58.2	80.6	30
04/20/01	6:30 p	74.4	75.3	73.5	49	54.0	5.0	E	2.50	21.0	74.4	74.2	74.2	30.128	0.00	0.000	0.196	79.7	47	57.7	79.5	30
04/20/01	7:00 p	72.9	73.8	72.2	53	54.8	5.0	ESE	2.50	17.0	72.9	72.7	72.7	30.134	0.00	0.000	0.165	78.4	48	57.1	78.3	30
04/20/01	7:30 p	71.9	72.4	71.5	52	53.3	4.0	ESE	2.00	16.0	71.9	71.1	71.1	30.135	0.00	0.000	0.144	77.3	48	56.1	77.0	30
04/20/01	8:00 p	71.3	71.7	71.0	56	54.8	3.0	E	1.50	15.0	71.3	70.5	70.5	30.146	0.00	0.000	0.131	76.5	49	55.9	76.3	30
04/20/01	8:30 p	71.0	71.2	70.6	55	54.0	5.0	ESE	2.50	17.0	71.0	70.0	70.0	30.151	0.00	0.000	0.125	75.9	50	55.9	75.9	30
04/20/01	9:00 p	70.6	70.9	70.3	54	53.1	5.0	ESE	2.50	18.0	70.6	69.4	69.4	30.167	0.00	0.000	0.117	75.4	50	55.5	75.5	30
04/20/01	9:30 p	70.3	70.6	70.0	56	53.9	4.0	ESE	2.00	11.0	70.3	69.2	69.2	30.179	0.00	0.000	0.110	74.9	50	55.0	75.0	30
04/20/01	10:00 p	70.0	70.3	69.8	57	54.1	4.0	ESE	2.00	12.0	70.0	68.9	68.9	30.182	0.00	0.000	0.104	74.5	51	55.2	74.5	30
04/20/01	10:30 p	69.8	70.0	69.6	56	53.4	4.0	ESE	2.00	15.0	69.8	68.7	68.7	30.183	0.00	0.000	0.100	74.2	51	54.9	74.1	30
04/20/01	11:00 p	69.8	70.0	69.5	57	53.9	6.0	ESE	3.00	19.0	69.8	68.8	68.8	30.180	0.00	0.000	0.100	73.9	52	55.2	73.8	30
04/20/01	11:30 p	69.6	69.8	69.3	56	53.2	6.0	ESE	3.00	19.0	69.6	68.5	68.5	30.179	0.00	0.000	0.096	73.6	52	54.9	73.4	30
04/21/01	12:00 a	69.4	69.7	69.1	57	53.5	6.0	ESE	3.00	17.0	69.4	68.5	68.5	30.181	0.00	0.000	0.092	73.3	52	54.6	73.1	30
04/21/01	12:30 a	69.2	69.4	68.9	55	52.3	5.0	ESE	2.50	16.0	69.2	68.1	68.1	30.181	0.00	0.000	0.087	73.1	52	54.4	72.8	30
04/21/01	1:00 a	68.8	69.2	68.4	56	52.5	3.0	ESE	1.50	9.0	68.8	67.9	67.9	30.173	0.00	0.000	0.079	72.8	52	54.1	72.4	30
04/21/01	1:30 a	68.5	68.8	68.3	60	54.1	3.0	SE	1.50	13.0	68.5	68.1	68.1	30.163	0.00	0.000	0.073	72.5	52	53.9	72.0	30
04/21/01	2:00 a	68.8	69.1	68.5	57	52.9	3.0	ESE	1.50	10.0	68.8	68.0	68.0	30.152	0.00	0.000	0.079	72.5	53	54.4	72.1	30
04/21/01	2:30 a	68.6	68.9	68.3	59	53.7	2.0	SE	1.00	12.0	68.6	68.0	68.0	30.146	0.00	0.000	0.075	72.3	53	54.2	71.8	30
04/21/01	3:00 a	68.5	68.8	68.3	59	53.6	4.0	ESE	2.00	13.0	68.5	68.0	68.0	30.146	0.00	0.000	0.073	72.1	53	54.0	71.5	30
04/21/01	3:30 a	68.6	68.8	68.3	60	54.2	4.0	ESE	2.00	15.0	68.6	68.1	68.1	30.140	0.00	0.000	0.075	72.0	54	54.4	71.4	30
04/21/01	4:00 a	68.3	68.7	68.1	61	54.3	3.0	E	1.50	10.0	68.3	68.0	68.0	30.142	0.00	0.000	0.069	71.8	55	54.8	71.2	30
04/21/01	4:30 a	68.5	68.8	68.1	61	54.5	3.0	E	1.50	12.0	68.5	68.1	68.1	30.142	0.00	0.000	0.073	71.6	56	55.1	71.0	30
04/21/01	5:00 a	68.6	68.9	68.3	61	54.6	4.0	E	2.00	18.0	68.6	68.2	68.2	30.143	0.00	0.000	0.075	71.5	56	55.0	70.8	30
04/21/01	5:30 a	68.6	69.0	68.3	59	53.7	5.0	ESE	2.50	15.0	68.6	68.0	68.0	30.152	0.00	0.000	0.075	71.3	56	54.8	70.5	30
04/21/01	6:00 a	68.3	68.6	68.0	57	52.5	4.0	ESE	2.00	14.0	68.3	67.6	67.6	30.157	0.00	0.000	0.069	71.2	55	54.2	70.3	30
04/21/01	6:30 a	67.8	68.2	67.3	60	53.4	2.0	SE	1.00	6.0	67.8	67.5	67.5	30.164	0.00	0.000	0.058	71.0	55	54.0	70.0	30
04/21/01	7:00 a	67.4	67.7	67.1	63	54.4	1.0	SE	0.50	4.0	67.4	67.3	67.3	30.175	0.00	0.000	0.050	70.9	55	53.9	69.9	30
04/21/01	7:30 a	69.1	70.6	67.5	60	54.6	5.0	E	2.50	17.0	69.1	68.5	68.5	30.176	0.00	0.000	0.085	71.3	58	55.8	70.7	30
04/21/01	8:00 a	71.4	72.3	70.4	58	55.9	6.0	ESE	3.00	20.0	71.4	70.9	70.9	30.182	0.00	0.000	0.133	72.5	60	57.8	72.7	30
04/21/01	8:30 a	73.4	74.8	72.2	55	56.2	5.0	E	2.50	17.0	73.4	73.5	73.5	30.185	0.00	0.000	0.175	73.9	60	59.1	74.6	30
04/21/01	9:00 a	75.2	76.3	74.5	52	56.4	6.0	ENE	3.00	18.0	75.2	75.4	75.4	30.189	0.00	0.000	0.212	75.4	59	60.1	76.1	30
04/21/01	9:30 a	76.9	77.9	76.1	48	55.7	6.0	ENE	3.00	22.0	76.9	76.6	76.6	30.201	0.00	0.000	0.248	76.9	57	60.5	77.4	30
04/21/01	10:00 a	78.3	79.2	77.5	46	55.8	6.0	ENE	3.00	26.0	78.3	78.0	78.0	30.206	0.00	0.000	0.277	78.1	55	60.6	78.6	30
04/21/01	10:30 a	79.6	80.4	78.9	44	55.8	6.0	E	3.00	21.0	79.6	79.1	79.1	30.201	0.00	0.000	0.304	79.2	53	60.6	79.6	30
04/21/01	11:00 a	80.4	81.3	79.4	44	56.5	6.0	ENE	3.00	18.0	80.4	79.9	79.9	30.201	0.00	0.000	0.321	80.4	52	61.2	80.8	30
04/21/01	11:30 a	81.6	83.1	80.2	41	55.6	6.0	E	3.00	17.0	81.6	80.9	80.9	30.189	0.00	0.000	0.346	81.4	50	61.0	81.8	30
04/21/01	12:00 p	83.9	85.2	82.9	43	59.0	7.0	E	3.50	22.0	83.9	84.6	84.6	30.185	0.00	0.000	0.394	82.3	51	62.4	83.2	30
04/21/01	12:30 p	84.6	86.0	83.7	42	59.0	7.0	ESE	3.50	19.0	84.6	85.1	85.1	30.187	0.00	0.000	0.408	83.4	51	63.4	85.0	30
04/21/01	1:00 p	83.5	84.7	82.2	45	59.9	6.0	ENE	3.00	18.0	83.5	84.3	84.3	30.178	0.00	0.000	0.385	84.4	50	63.7	86.2	30
04/21/01	1:30 p	83.5	84.9	82.4	44	59.3	6.0	ENE	3.00	22.0	83.5	84.1	84.1	30.167	0.00	0.000	0.385	85.0	49	63.7	86.6	30
04/21/01	2:00 p	82.6	84.4	81.2	42	57.2	5.0	ENE	2.50	20.0	82.6	82.4	82.4	30.158	0.00	0.000	0.367	85.3	49	64.0	87.0	30
04/21/01	2:30 p	84.9	85.4	84.3	40	57.9	6.0	ESE	3.00	19.0	84.9	85.0	85.0	30.141	0.00	0.000	0.415	85.8	47	63.2	87.3	30
04/21/01	3:00 p	83.8	85.5	82.6	44	59.6	5.0	ENE	2.50	14.0	83.8	84.6	84.6	30.137	0.00	0.000	0.392	86.2	47	63.6	87.9	30
04/21/01	3:30 p	82.7	83.6	81.9	42	57.3	5.0	ENE	2.50	15.0	82.7	82.6	82.6	30.134	0.00	0.000	0.369	86.2	46	63.0	87.6	30
04/21/01	4:00 p	82.4	84.0	80.8	46	59.5	5.0	ENE	2.50	15.0	82.4	82.7	82.7	30.128	0.00	0.000	0.363	86.3	47	63.7	88.0	30
04/21/01	4:30 p	80.7	81.6	79.6	46	58.0	5.0	ENE	2.50	15.0	80.7	80.4	80.4	30.128	0.00	0.000	0.327	85.5	46	62.4	86.7	30
04/21/01	5:00 p	79.5	80.3	78.8	47	57.5	5.0	ENE	2.50	14.0	79.5	79.3	79.3	30.128	0.00	0.000	0.302	84.9	46	61.8	86.1	30
04/21/01	5:30 p	79.3	79.6	78.8	49	58.5	4.0	ENE	2.00	13.0	79.3	79.4	79.4	30.123	0.00	0.000	0.298	84.4	47	62.0	85.8	30
04/21/01	6:00 p	77.9	79.1	77.3	52	58.9	4.0	ENE	2.00	14.0	77.9	78.1	78.1	30.125	0.00	0.000	0.269	83.6	48	61.8	84.9	30
04/21/01	6:30 p	76.6	77.4	76.0	54	58.7	4.0	E	2.00	14.0	76.6	76.8	76.8	30.128	0.00	0.000	0.242	82.1	50	61.6	82.8	30
04/21/01	7:00 p	75.2	76.2	74.3	57	58.9	3.0	E	1.50	10.0	75.2	75.8	75.8	30.132	0.00	0.000	0.212	80.6	51	60.8	80.9	30
04/21/01	7:30 p	74.0	74.4	73.7	59	58.8	3.0	ENE	1.50	10.0	74.0	74.6	74.6	30.137	0.00	0.000	0.188	79.5	53	60.9	79.9	30
04/21/01	8:00 p	73.9	74.1	73.6	60	59.1	3.0	E	1.50	13.0	73.9	74.6	74.6	30.141	0.00	0.000	0.185	79.1	53	60.5	79.5	30
04/21/01	8:30 p	73.4	73.8	72.9	60	58.7	4.0	ENE	2.00	12.0	73.4	73.9	73.9	30.154	0.00	0.000	0.175	78.5	54	60.5	79.0	30
04/21/01	9:00 p	73.0	73.2	72.8	62	59.2	4.0	ENE	2.00	14.0	73.0	73.5	73.5	30.163	0.00	0.000	0.167	77.9	55	60.4	78.4	30
04/21/01	9:30 p	72.7	73.1	72.5	62	58.9	4.0	ENE	2.00	13.0	72.7	73.1	73.1	30.167	0.00	0.000	0.160	77.5	55	60.1	77.9	30
04/21/01	10:00 p	72.7	73.0	72.5	67	61.1	4.0	ENE	2.00	14.0	72.7	73.4	73.4	30.170	0.00	0.000	0.160	77.1	57	60.7	77.6	30
04/21/01	10:30 p	72.8	73.1	72.5	64	59.9	4.0	ENE	2.00	14.0	72.8	73.4	73.4	30.167	0.00	0.000	0.163	77.0	58	61.1	77.6	30
04/21/01	11:00 p	72.7	73.0	72.5	64	59.8	4.0	E	2.00	18.0	72.7	73.2	73.2	30.164	0.00	0.000	0.160	76.8	58	60.9	77.4	30
04/21/01	11:30 p	72.7	73.0	72.3	64	59.8	5.0	E	2.50	18.0	72.7	73.2	73.2	30.157	0.00	0.000	0.160	76.5	59	61.1	77.2	30
04/22/01	12:00 a	72.4	72.7	72.1	64	59.5	5.0	ESE	2.50	19.0	72.4	72.8	72.8	30.158	0.00	0.000	0.154	76.3	59	60.9	76.9	30
04/22/01	12:30 a	72.1	72.5	71.8	66	60.1	4.0	E	2.00	15.0	72.1	72.5	72.5	30.146	0.00	0.000	0.148	76.0	59	60.6	76.6	30
04/22/01	1:00 a	71.8	72.1	71.5	66	59.8	5.0	ESE	2.50	17.0	71.8	72.1	72.1	30.137	0.00	0.000	0.142	75.7	59	60.4	76.4	30
04/22/01	1:30 a	71.5	71.9	71.2	67	60.0	4.0	ESE	2.00	13.0	71.5	71.8	71.8	30.128	0.00	0.000	0.135	75.5	59	60.2	76.2	30
04/22/01	2:00 a	71.2	71.5	70.9	67	59.7	4.0	ESE	2.00	12.0	71.2	71.4	71.4	30.124	0.00	0.000	0.129	75.2	60	60.4	76.1	30
04/22/01	2:30 a	71.0	71.3	70.7	67	59.5	4.0	ESE	2.00	13.0	71.0	71.1	71.1	30.119	0.00	0.000	0.125	75.0	60	60.2	75.9	30
04/22/01	3:00 a	70.9	71.1	70.7	67	59.4	4.0	E	2.00	16.0	70.9	71.0	71.0	30.121	0.00	0.000	0.123	74.7	61	60.4	75.6	30
04/22/01	3:30 a	70.9	71.1	70.6	67	59.4	3.0	E	1.50	13.0	70.9	71.0	71.0	30.119	0.00	0.000	0.123	74.5	61	60.2	75.4	30
04/22/01	4:00 a	70.8	71.1	70.6	68	59.7	3.0	ENE	1.50	10.0	70.8	70.9	70.9	30.116	0.00	0.000	0.121	74.4	61	60.1	75.3	30
04/22/01	4:30 a	70.7	71.0	70.4	68	59.6	3.0	ENE	1.50	12.0	70.7	70.8	70.8	30.110	0.00	0.000	0.119	74.2	61	59.9	75.0	30
04/22/01	5:00 a	70.5	70.8	70.2	69	59.8	2.0	E	1.00	8.0	70.5	70.7	70.7	30.114	0.00	0.000	0.115	74.1	61	59.8	74.9	30
04/22/01	5:30 a	70.5	70.8	70.2	70	60.2	2.0	ENE	1.00	9.0	70.5	70.8	70.8	30.123	0.00	0.000	0.115	73.9	62	60.1	74.8	30
04/22/01	6:00 a	70.9	71.2	70.4	70	60.6	3.0	ENE	1.50	11.0	70.9	71.3	71.3	30.126	0.00	0.000	0.123	73.8	63	60.4	74.7	30
04/22/01	6:30 a	71.4	71.9	70.9	68	60.3	3.0	ENE	1.50	14.0	71.4	71.7	71.7	30.135	0.00	0.000	0.133	73.9	64	61.0	75.0	30
04/22/01	7:00 a	72.0	72.4	71.6	67	60.4	4.0	E	2.00	13.0	72.0	72.5	72.5	30.137	0.00	0.000	0.146	74.1	64	61.1	75.2	30
04/22/01	7:30 a	72.7	73.2	72.3	66	60.7	5.0	ESE	2.50	17.0	72.7	73.4	73.4	30.146	0.00	0.000	0.160	74.4	64	61.4	75.5	30
04/22/01	8:00 a	73.6	74.3	73.1	64	60.7	7.0	ESE	3.50	18.0	73.6	74.5	74.5	30.146	0.00	0.000	0.179	75.1	65	62.5	76.4	30
04/22/01	8:30 a	75.5	76.9	74.3	58	59.7	6.0	ESE	3.00	21.0	75.5	76.1	76.1	30.149	0.00	0.000	0.219	76.2	64	63.1	77.3	30
04/22/01	9:00 a	77.8	78.7	76.8	56	60.8	8.0	ESE	4.00	23.0	77.3	78.3	77.8	30.151	0.00	0.000	0.267	77.5	63	63.9	78.7	30
04/22/01	9:30 a	79.6	80.4	78.6	55	62.0	7.0	E	3.50	25.0	79.6	80.3	80.3	30.149	0.00	0.000	0.304	78.7	62	64.6	80.0	30
04/22/01	10:00 a	80.7	81.1	80.2	54	62.5	6.0	ESE	3.00	20.0	80.7	81.4	81.4	30.154	0.00	0.000	0.327	79.7	61	65.1	81.1	30
04/22/01	10:30 a	80.9	81.3	80.5	53	62.2	7.0	ESE	3.50	20.0	80.9	81.5	81.5	30.150	0.00	0.000	0.331	80.7	60	65.5	82.3	30
04/22/01	11:00 a	81.1	81.5	80.7	54	62.9	7.0	ESE	3.50	23.0	81.1	81.9	81.9	30.148	0.00	0.000	0.335	81.3	59	65.6	83.0	30
04/22/01	11:30 a	82.4	83.1	81.1	53	63.5	6.0	ESE	3.00	21.0	82.4	83.7	83.7	30.141	0.00	0.000	0.363	82.1	59	66.4	84.2	30
04/22/01	12:00 p	83.1	84.0	82.4	50	62.5	7.0	ENE	3.50	20.0	83.1	84.4	84.4	30.130	0.00	0.000	0.377	83.5	59	67.7	86.5	30
04/22/01	12:30 p	84.8	86.0	83.6	49	63.5	8.0	ESE	4.00	21.0	84.6	86.4	86.2	30.127	0.00	0.000	0.413	84.9	57	68.0	88.4	30
04/22/01	1:00 p	85.7	86.3	85.0	49	64.3	6.0	ENE	3.00	26.0	85.7	87.6	87.6	30.119	0.00	0.000	0.431	86.1	56	68.6	90.3	30
04/22/01	1:30 p	86.1	87.2	85.2	49	64.7	7.0	ESE	3.50	25.0	86.1	88.2	88.2	30.109	0.00	0.000	0.440	86.9	55	68.8	91.6	30
04/22/01	2:00 p	87.2	88.0	85.8	46	63.9	8.0	ESE	4.00	22.0	87.1	89.1	89.0	30.096	0.00	0.000	0.462	87.6	55	69.4	92.6	30
04/22/01	2:30 p	87.7	88.3	87.2	46	64.4	9.0	ESE	4.50	21.0	87.4	89.7	89.4	30.091	0.00	0.000	0.473	88.1	54	69.4	93.0	30
04/22/01	3:00 p	85.7	88.0	84.3	48	63.8	7.0	ENE	3.50	17.0	85.7	87.4	87.4	30.076	0.00	0.000	0.431	88.4	53	69.1	93.3	30
04/22/01	3:30 p	85.9	86.6	85.0	49	64.5	6.0	ENE	3.00	17.0	85.9	87.8	87.8	30.062	0.00	0.000	0.435	88.5	52	68.6	93.2	30
04/22/01	4:00 p	85.4	86.1	84.8	49	64.1	5.0	E	2.50	18.0	85.4	87.2	87.2	30.054	0.00	0.000	0.425	88.6	52	68.7	93.5	30
04/22/01	4:30 p	84.8	86.5	83.6	53	65.8	5.0	ENE	2.50	15.0	84.8	87.2	87.2	30.049	0.00	0.000	0.413	88.5	51	68.1	92.9	30
04/22/01	5:00 p	81.9	83.8	80.8	56	64.7	5.0	ENE	2.50	16.0	81.9	83.4	83.4	30.049	0.00	0.000	0.352	87.6	53	68.4	91.9	30
04/22/01	5:30 p	80.5	81.5	79.7	57	63.9	5.0	E	2.50	17.0	80.5	81.6	81.6	30.045	0.00	0.000	0.323	86.3	53	67.2	89.7	30
04/22/01	6:00 p	79.4	80.2	78.5	60	64.3	4.0	ENE	2.00	17.0	79.4	80.6	80.6	30.039	0.00	0.000	0.300	85.2	54	66.7	88.0	30
04/22/01	6:30 p	77.6	78.5	76.9	63	64.0	4.0	ENE	2.00	15.0	77.6	78.8	78.8	30.042	0.00	0.000	0.262	84.1	55	66.2	86.7	30
04/22/01	7:00 p	76.8	77.2	76.2	64	63.7	4.0	E	2.00	14.0	76.8	78.0	78.0	30.050	0.00	0.000	0.246	82.8	57	66.0	84.9	30
04/22/01	7:30 p	75.8	76.3	75.4	66	63.6	5.0	ESE	2.50	14.0	75.8	77.1	77.1	30.060	0.00	0.000	0.225	81.6	57	64.9	83.1	30
04/22/01	8:00 p	74.9	75.4	74.5	66	62.8	4.0	E	2.00	15.0	74.9	76.3	76.3	30.063	0.00	0.000	0.206	80.7	59	65.0	82.1	30
04/22/01	8:30 p	74.4	74.8	74.0	66	62.3	4.0	ESE	2.00	16.0	74.4	75.7	75.7	30.070	0.00	0.000	0.196	80.1	59	64.5	81.3	30
04/22/01	9:00 p	74.0	74.3	73.8	66	61.9	4.0	E	2.00	15.0	74.0	75.3	75.3	30.077	0.00	0.000	0.188	79.6	59	64.0	80.7	30
04/22/01	9:30 p	73.7	74.0	73.4	66	61.6	4.0	ENE	2.00	11.0	73.7	74.8	74.8	30.082	0.00	0.000	0.181	79.1	59	63.5	80.1	30
04/22/01	10:00 p	73.5	73.7	73.2	68	62.3	4.0	ENE	2.00	15.0	73.5	74.7	74.7	30.086	0.00	0.000	0.177	78.6	60	63.6	79.6	30
04/22/01	10:30 p	73.1	73.5	72.9	68	61.9	3.0	ENE	1.50	12.0	73.1	74.1	74.1	30.082	0.00	0.000	0.169	78.2	60	63.2	79.1	30
04/22/01	11:00 p	73.0	73.2	72.7	68	61.8	3.0	ENE	1.50	14.0	73.0	73.9	73.9	30.078	0.00	0.000	0.167	77.8	61	63.3	78.8	30
04/22/01	11:30 p	73.0	73.3	72.7	69	62.2	3.0	ENE	1.50	12.0	73.0	74.0	74.0	30.072	0.00	0.000	0.167	77.6	61	63.1	78.6	30
04/23/01	12:00 a	72.7	73.0	72.5	68	61.5	4.0	ESE	2.00	16.0	72.7	73.5	73.5	30.071	0.00	0.000	0.160	77.3	61	62.8	78.2	30
04/23/01	12:30 a	72.6	72.9	72.3	70	62.3	4.0	E	2.00	12.0	72.6	73.5	73.5	30.061	0.00	0.000	0.158	77.0	62	63.0	78.0	30
04/23/01	1:00 a	72.5	72.8	72.2	71	62.6	4.0	E	2.00	12.0	72.5	73.5	73.5	30.053	0.00	0.000	0.156	76.8	63	63.2	77.9	30
04/23/01	1:30 a	72.5	72.8	72.2	70	62.2	5.0	ESE	2.50	16.0	72.5	73.4	73.4	30.045	0.00	0.000	0.156	76.6	63	63.1	77.7	30
04/23/01	2:00 a	72.3	72.6	72.0	71	62.4	6.0	ESE	3.00	16.0	72.3	73.2	73.2	30.038	0.00	0.000	0.152	76.4	63	62.9	77.4	30
04/23/01	2:30 a	72.0	72.3	71.7	72	62.5	4.0	ESE	2.00	14.0	72.0	72.8	72.8	30.029	0.00	0.000	0.146	76.2	64	63.1	77.3	30
04/23/01	3:00 a	71.8	72.0	71.5	73	62.7	4.0	ESE	2.00	13.0	71.8	72.6	72.6	30.024	0.00	0.000	0.142	76.0	64	62.9	77.1	30
04/23/01	3:30 a	71.7	72.0	71.5	74	63.0	4.0	ESE	2.00	11.0	71.7	72.6	72.6	30.015	0.00	0.000	0.140	75.7	65	63.1	76.9	30
04/23/01	4:00 a	71.7	71.9	71.5	76	63.7	2.0	ESE	1.00	11.0	71.7	72.7	72.7	30.011	0.00	0.000	0.140	75.6	65	63.0	76.8	30
04/23/01	4:30 a	71.6	71.9	71.3	75	63.3	2.0	SE	1.00	8.0	71.6	72.5	72.5	30.008	0.00	0.000	0.137	75.5	65	62.9	76.8	30
04/23/01	5:00 a	71.5	71.8	71.2	76	63.5	1.0	SE	0.50	7.0	71.5	72.5	72.5	30.010	0.00	0.000	0.135	75.3	65	62.7	76.6	30
04/23/01	5:30 a	71.3	71.6	71.1	77	63.7	2.0	ESE	1.00	7.0	71.3	72.3	72.3	30.015	0.00	0.000	0.131	75.1	66	63.0	76.5	30
04/23/01	6:00 a	71.3	71.6	71.0	80	64.8	3.0	ESE	1.50	11.0	71.3	72.6	72.6	30.019	0.00	0.000	0.131	75.0	67	63.3	76.5	30
04/23/01	6:30 a	71.2	71.5	70.9	80	64.7	2.0	E	1.00	10.0	71.2	72.5	72.5	30.024	0.00	0.000	0.129	75.0	68	63.7	76.5	30
04/23/01	7:00 a	71.8	72.5	71.1	78	64.6	3.0	ESE	1.50	10.0	71.8	73.0	73.0	30.029	0.00	0.000	0.142	75.1	68	63.8	76.6	30
04/23/01	7:30 a	72.7	73.1	72.1	77	65.1	4.0	SE	2.00	11.0	72.7	74.2	74.2	30.030	0.00	0.000	0.160	75.3	68	64.0	76.8	30
04/23/01	8:00 a	73.3	73.9	72.6	74	64.5	4.0	SE	2.00	14.0	73.3	74.8	74.8	30.032	0.00	0.000	0.173	75.6	68	64.3	77.2	30
04/23/01	8:30 a	75.2	77.0	73.6	67	63.5	6.0	SE	3.00	22.0	75.2	76.7	76.7	30.036	0.00	0.000	0.212	76.4	71	66.3	78.4	30
04/23/01	9:00 a	78.2	79.4	76.9	64	65.0	6.0	SE	3.00	20.0	78.2	79.6	79.6	30.045	0.00	0.000	0.275	77.9	70	67.3	79.9	30
04/23/01	9:30 a	80.3	81.5	78.9	59	64.7	6.0	SE	3.00	20.0	80.3	81.6	81.6	30.041	0.00	0.000	0.319	79.2	69	68.1	81.5	30
04/23/01	10:00 a	82.1	83.1	81.2	58	65.9	7.0	SE	3.50	21.0	82.1	84.0	84.0	30.040	0.00	0.000	0.356	80.4	68	68.9	83.1	30
04/23/01	10:30 a	83.4	84.5	82.4	52	63.9	8.0	SE	4.00	26.0	83.1	85.1	84.8	30.034	0.00	0.000	0.383	81.7	66	69.2	84.9	30
04/23/01	11:00 a	84.9	85.6	83.9	54	66.4	6.0	ESE	3.00	18.0	84.9	87.6	87.6	30.028	0.00	0.000	0.415	82.8	65	69.8	86.6	30
04/23/01	11:30 a	85.4	86.3	84.4	55	67.4	7.0	ESE	3.50	19.0	85.4	88.6	88.6	30.020	0.00	0.000	0.425	84.0	64	70.5	88.9	30
04/23/01	12:00 p	84.8	85.8	83.3	62	70.3	6.0	ESE	3.00	21.0	84.8	89.7	89.7	30.012	0.00	0.000	0.413	84.8	64	71.3	90.4	30
04/23/01	12:30 p	82.9	83.6	82.4	63	69.0	5.0	ENE	2.50	16.0	82.9	86.3	86.3	30.001	0.00	0.000	0.373	85.2	63	71.2	90.9	30
04/23/01	1:00 p	84.2	84.9	83.0	59	68.3	7.0	ESE	3.50	21.0	84.2	87.8	87.8	29.992	0.00	0.000	0.400	85.4	63	71.4	91.3	30
04/23/01	1:30 p	84.5	85.4	83.4	60	69.1	7.0	ESE	3.50	25.0	84.5	88.6	88.6	29.989	0.00	0.000	0.406	86.0	62	71.5	92.3	30
04/23/01	2:00 p	84.1	85.3	83.2	59	68.2	6.0	E	3.00	20.0	84.1	87.6	87.6	29.976	0.00	0.000	0.398	86.3	62	71.7	92.9	30
04/23/01	2:30 p	85.0	85.9	84.1	60	69.6	7.0	ESE	3.50	24.0	85.0	89.4	89.4	29.972	0.00	0.000	0.417	86.6	61	71.5	93.2	30
04/23/01	3:00 p	83.6	85.2	82.3	60	68.2	7.0	ESE	3.50	25.0	83.6	86.9	86.9	29.960	0.00	0.000	0.387	86.8	61	71.7	93.6	30
04/23/01	3:30 p	83.7	84.6	82.4	58	67.4	8.0	ESE	4.00	24.0	83.4	86.7	86.4	29.962	0.00	0.000	0.390	86.3	61	71.3	92.5	30
04/23/01	4:00 p	84.1	84.8	82.9	61	69.2	6.0	ENE	3.00	17.0	84.1	88.2	88.2	29.954	0.00	0.000	0.398	86.7	60	71.2	93.0	30
04/23/01	4:30 p	82.1	84.0	79.4	72	72.2	4.0	ENE	2.00	18.0	82.1	87.0	87.0	29.949	0.01	0.000	0.356	86.7	62	72.1	93.8	30
04/23/01	5:00 p	78.3	79.6	77.6	70	67.7	5.0	ESE	2.50	20.0	78.3	80.4	80.4	29.943	0.00	0.000	0.277	85.0	63	71.0	90.4	30
04/23/01	5:30 p	78.1	78.4	77.4	70	67.5	5.0	ESE	2.50	19.0	78.1	80.1	80.1	29.939	0.00	0.000	0.273	83.9	62	69.5	88.1	30
04/23/01	6:00 p	77.1	77.6	76.6	71	67.0	5.0	ESE	2.50	18.0	77.1	79.1	79.1	29.945	0.00	0.000	0.252	82.8	65	69.8	86.6	30
04/23/01	6:30 p	76.4	76.8	76.0	71	66.3	6.0	ESE	3.00	19.0	76.4	78.4	78.4	29.941	0.00	0.000	0.238	81.8	65	68.9	84.9	30
04/23/01	7:00 p	75.7	76.3	75.3	70	65.2	6.0	ESE	3.00	17.0	75.7	77.5	77.5	29.949	0.00	0.000	0.223	81.2	65	68.3	83.8	30
04/23/01	7:30 p	75.3	75.6	75.0	71	65.2	4.0	ESE	2.00	15.0	75.3	77.1	77.1	29.950	0.00	0.000	0.215	80.6	65	67.7	82.9	30
04/23/01	8:00 p	75.0	75.3	74.7	70	64.5	6.0	ESE	3.00	17.0	75.0	76.7	76.7	29.953	0.00	0.000	0.208	80.4	65	67.6	82.6	30
04/23/01	8:30 p	74.6	74.9	74.3	72	65.0	5.0	ESE	2.50	14.0	74.6	76.4	76.4	29.958	0.00	0.000	0.200	80.3	65	67.5	82.5	30
04/23/01	9:00 p	74.2	74.5	73.9	72	64.6	6.0	ESE	3.00	16.0	74.2	75.9	75.9	29.965	0.00	0.000	0.192	79.6	65	66.8	81.5	30
04/23/01	9:30 p	74.0	74.2	73.7	72	64.4	5.0	ESE	2.50	14.0	74.0	75.7	75.7	29.973	0.00	0.000	0.188	79.0	65	66.2	80.7	30
04/23/01	10:00 p	73.7	74.1	73.4	71	63.7	5.0	ESE	2.50	14.0	73.7	75.2	75.2	29.975	0.00	0.000	0.181	78.5	65	65.8	80.1	30
04/23/01	10:30 p	73.5	73.8	73.2	71	63.5	5.0	ESE	2.50	13.0	73.5	74.9	74.9	29.974	0.00	0.000	0.177	78.1	65	65.4	79.5	30
04/23/01	11:00 p	73.3	73.6	73.1	71	63.3	5.0	ESE	2.50	18.0	73.3	74.6	74.6	29.972	0.00	0.000	0.173	77.7	65	65.0	79.1	30
04/23/01	11:30 p	73.2	73.4	73.0	72	63.6	4.0	ESE	2.00	11.0	73.2	74.6	74.6	29.969	0.00	0.000	0.171	77.4	65	64.7	78.7	30
04/24/01	12:00 a	73.1	73.3	72.8	71	63.1	4.0	ESE	2.00	14.0	73.1	74.3	74.3	29.966	0.00	0.000	0.169	77.2	66	65.0	78.6	30
04/24/01	12:30 a	72.8	73.2	72.5	71	62.8	4.0	ESE	2.00	12.0	72.8	73.9	73.9	29.962	0.00	0.000	0.163	76.9	66	64.7	78.3	30
04/24/01	1:00 a	72.5	72.8	72.2	71	62.6	3.0	ESE	1.50	9.0	72.5	73.5	73.5	29.945	0.00	0.000	0.156	76.7	65	64.0	78.0	30
04/24/01	1:30 a	72.2	72.5	71.9	70	61.9	3.0	SE	1.50	11.0	72.2	73.0	73.0	29.932	0.00	0.000	0.150	76.4	65	63.8	77.6	30
04/24/01	2:00 a	71.9	72.2	71.5	71	62.0	3.0	SE	1.50	8.0	71.9	72.6	72.6	29.925	0.00	0.000	0.144	76.0	65	63.4	77.2	30
04/24/01	2:30 a	71.5	71.8	71.2	72	62.0	2.0	SSE	1.00	7.0	71.5	72.2	72.2	29.921	0.00	0.000	0.135	75.6	65	63.0	76.8	30
04/24/01	3:00 a	71.0	71.4	70.7	73	61.9	1.0	SE	0.50	5.0	71.0	71.6	71.6	29.919	0.00	0.000	0.125	75.3	65	62.7	76.6	30
04/24/01	3:30 a	70.4	70.8	70.0	72	60.9	0.0	SE	0.00	4.0	70.4	70.8	70.8	29.921	0.00	0.000	0.113	74.9	64	61.9	76.1	30
04/24/01	4:00 a	69.8	70.3	69.2	72	60.4	0.0	SE	0.00	3.0	69.8	70.2	70.2	29.933	0.00	0.000	0.100	74.5	64	61.5	75.7	30
04/24/01	4:30 a	68.6	69.5	67.7	75	60.4	0.0	---	0.00	0.0	68.6	69.6	69.6	29.932	0.00	0.000	0.075	74.0	64	61.0	75.1	30
04/24/01	5:00 a	67.1	67.9	66.3	77	59.6	0.0	---	0.00	0.0	67.1	68.0	68.0	29.939	0.00	0.000	0.044	73.5	64	60.6	74.4	30
04/24/01	5:30 a	66.0	66.7	65.4	79	59.3	0.0	---	0.00	0.0	66.0	66.8	66.8	29.951	0.00	0.000	0.021	73.0	64	60.1	73.6	30
04/24/01	6:00 a	65.2	65.7	64.7	80	58.9	0.0	---	0.00	0.0	65.2	65.9	65.9	29.959	0.00	0.000	0.004	72.5	64	59.6	72.9	30
04/24/01	6:30 a	64.8	65.1	64.6	81	58.8	0.0	---	0.00	0.0	64.8	65.5	65.5	29.973	0.00	0.004	0.000	72.2	64	59.3	72.5	30
04/24/01	7:00 a	65.4	66.1	64.8	83	60.1	0.0	---	0.00	0.0	65.4	66.2	66.2	29.982	0.00	0.000	0.008	71.9	65	59.5	72.2	30
04/24/01	7:30 a	66.9	68.2	65.8	82	61.2	0.0	---	0.00	0.0	66.9	68.1	68.1	29.989	0.00	0.000	0.040	72.1	66	60.1	72.5	30
04/24/01	8:00 a	69.7	71.6	68.1	72	60.3	1.0	SE	0.50	6.0	69.7	70.1	70.1	29.995	0.00	0.000	0.098	73.0	70	62.6	74.1	30
04/24/01	8:30 a	73.7	76.0	71.5	64	60.8	2.0	SSE	1.00	9.0	73.7	74.7	74.7	29.991	0.00	0.000	0.181	74.6	71	64.6	76.3	30
04/24/01	9:00 a	77.5	79.0	75.7	56	60.6	2.0	E	1.00	9.0	77.5	78.0	78.0	29.989	0.00	0.000	0.260	76.3	69	65.4	78.0	30
04/24/01	9:30 a	79.5	80.5	78.8	56	62.4	2.0	NE	1.00	8.0	79.5	80.3	80.3	29.981	0.00	0.000	0.302	78.0	67	66.2	79.6	30
04/24/01	10:00 a	81.0	81.9	80.3	53	62.3	3.0	NE	1.50	13.0	81.0	81.6	81.6	29.971	0.00	0.000	0.333	79.6	65	66.8	81.5	30
04/24/01	10:30 a	82.9	84.2	81.8	50	62.4	4.0	E	2.00	14.0	82.9	84.0	84.0	29.956	0.00	0.000	0.373	81.1	64	67.8	83.5	30
04/24/01	11:00 a	83.7	84.8	82.9	49	62.5	4.0	ENE	2.00	13.0	83.7	85.2	85.2	29.949	0.00	0.000	0.390	82.4	62	68.1	85.2	30
04/24/01	11:30 a	85.2	85.8	84.6	48	63.3	5.0	ENE	2.50	17.0	85.2	86.7	86.7	29.935	0.00	0.000	0.421	83.6	61	68.7	87.2	30
04/24/01	12:00 p	85.5	86.3	84.6	49	64.2	5.0	ENE	2.50	18.0	85.5	87.3	87.3	29.928	0.00	0.000	0.427	84.8	60	69.4	89.1	30
04/24/01	12:30 p	87.1	87.9	86.0	47	64.4	6.0	ESE	3.00	22.0	87.1	89.3	89.3	29.916	0.00	0.000	0.460	85.7	58	69.2	90.2	30
04/24/01	1:00 p	87.3	88.3	85.9	45	63.4	7.0	ESE	3.50	20.0	87.3	88.9	88.9	29.906	0.00	0.000	0.465	86.5	57	69.5	91.5	30
04/24/01	1:30 p	87.4	88.4	86.2	47	64.7	6.0	ENE	3.00	19.0	87.4	89.7	89.7	29.898	0.00	0.000	0.467	87.2	56	69.6	92.4	30
04/24/01	2:00 p	87.4	88.1	86.7	46	64.1	6.0	E	3.00	19.0	87.4	89.4	89.4	29.881	0.00	0.000	0.467	87.8	55	69.6	92.8	30
04/24/01	2:30 p	88.1	88.8	87.4	45	64.1	6.0	E	3.00	18.0	88.1	89.9	89.9	29.873	0.00	0.000	0.481	88.2	55	70.0	93.6	30
04/24/01	3:00 p	86.9	88.7	85.0	51	66.6	5.0	ENE	2.50	17.0	86.9	90.2	90.2	29.855	0.00	0.000	0.456	88.5	53	69.2	93.6	30
04/24/01	3:30 p	86.9	88.3	85.0	46	63.6	6.0	ESE	3.00	16.0	86.9	88.7	88.7	29.848	0.00	0.000	0.456	88.6	54	69.8	94.1	30
04/24/01	4:00 p	88.1	88.9	87.0	46	64.7	6.0	ESE	3.00	20.0	88.1	90.3	90.3	29.845	0.00	0.000	0.481	88.7	53	69.4	94.0	30
04/24/01	4:30 p	86.5	87.2	85.5	48	64.5	6.0	ESE	3.00	19.0	86.5	88.6	88.6	29.841	0.00	0.000	0.448	88.7	52	68.8	93.7	30
04/24/01	5:00 p	85.2	85.6	84.8	48	63.3	6.0	ESE	3.00	16.0	85.2	86.7	86.7	29.840	0.00	0.000	0.421	88.3	51	67.9	92.4	30
04/24/01	5:30 p	83.8	85.0	82.9	48	62.0	5.0	ESE	2.50	18.0	83.8	85.2	85.2	29.839	0.00	0.000	0.392	87.4	51	67.1	91.0	30
04/24/01	6:00 p	82.3	83.1	81.3	51	62.4	5.0	ESE	2.50	15.0	82.3	83.2	83.2	29.842	0.00	0.000	0.360	86.2	51	65.9	88.9	30
04/24/01	6:30 p	80.8	81.5	79.8	53	62.1	5.0	SE	2.50	16.0	80.8	81.4	81.4	29.846	0.00	0.000	0.329	84.5	52	64.9	86.7	30
04/24/01	7:00 p	78.8	79.9	77.9	57	62.3	4.0	SE	2.00	14.0	78.8	79.6	79.6	29.848	0.00	0.000	0.288	82.7	55	64.9	84.4	30
04/24/01	7:30 p	77.3	78.0	76.4	59	61.9	3.0	SE	1.50	11.0	77.3	78.0	78.0	29.861	0.00	0.000	0.256	81.3	56	64.1	82.5	30
04/24/01	8:00 p	75.9	76.5	75.4	62	61.9	2.0	SE	1.00	9.0	75.9	76.8	76.8	29.872	0.00	0.000	0.227	80.7	56	63.5	81.7	30
04/24/01	8:30 p	75.2	75.6	74.9	62	61.3	3.0	SE	1.50	8.0	75.2	76.2	76.2	29.877	0.00	0.000	0.212	80.2	57	63.6	81.2	30
04/24/01	9:00 p	74.7	75.1	74.4	63	61.3	2.0	ESE	1.00	5.0	74.7	75.8	75.8	29.886	0.00	0.000	0.202	79.8	57	63.2	80.7	30
04/24/01	9:30 p	74.3	74.7	73.8	65	61.8	0.0	ESE	0.00	4.0	74.3	75.5	75.5	29.897	0.00	0.000	0.194	79.3	56	62.2	80.0	30
04/24/01	10:00 p	73.6	74.0	73.2	67	62.0	0.0	ESE	0.00	3.0	73.6	74.8	74.8	29.897	0.00	0.000	0.179	78.8	57	62.3	79.6	30
04/24/01	10:30 p	72.9	73.4	72.3	68	61.7	0.0	ESE	0.00	2.0	72.9	73.8	73.8	29.893	0.00	0.000	0.165	78.3	57	61.8	79.0	30
04/24/01	11:00 p	72.1	72.6	71.6	69	61.4	0.0	ESE	0.00	3.0	72.1	72.8	72.8	29.883	0.00	0.000	0.148	77.8	57	61.3	78.4	30
04/24/01	11:30 p	71.5	71.9	71.0	70	61.2	0.0	ESE	0.00	1.0	71.5	72.1	72.1	29.881	0.00	0.000	0.135	77.3	58	61.4	77.9	30
04/25/01	12:00 a	70.6	71.2	70.0	72	61.1	0.0	---	0.00	0.0	70.6	71.1	71.1	29.879	0.00	0.000	0.117	76.8	57	60.4	77.3	30
04/25/01	12:30 a	69.7	70.3	69.2	73	60.7	0.0	---	0.00	0.0	69.7	70.2	70.2	29.876	0.00	0.000	0.098	76.2	57	59.9	76.7	30
04/25/01	1:00 a	68.9	69.5	68.3	74	60.3	0.0	---	0.00	0.0	68.9	69.8	69.8	29.870	0.00	0.000	0.081	75.7	58	59.9	76.3	30
04/25/01	1:30 a	68.1	68.6	67.6	75	59.9	0.0	---	0.00	0.0	68.1	69.0	69.0	29.873	0.00	0.000	0.065	75.1	58	59.3	75.8	30
04/25/01	2:00 a	67.2	67.9	66.5	78	60.1	0.0	ESE	0.00	4.0	67.2	68.2	68.2	29.872	0.00	0.000	0.046	74.6	60	59.8	75.4	30
04/25/01	2:30 a	66.4	66.8	66.1	78	59.3	0.0	ESE	0.00	2.0	66.4	67.2	67.2	29.866	0.00	0.000	0.029	74.2	59	58.9	74.8	30
04/25/01	3:00 a	66.1	66.4	65.8	78	59.0	0.0	---	0.00	0.0	66.1	66.9	66.9	29.862	0.00	0.000	0.023	73.8	59	58.6	74.3	30
04/25/01	3:30 a	65.7	66.0	65.3	78	58.7	0.0	---	0.00	1.0	65.7	66.4	66.4	29.859	0.00	0.000	0.015	73.4	59	58.2	73.8	30
04/25/01	4:00 a	65.2	65.6	64.8	79	58.5	0.0	---	0.00	0.0	65.2	65.9	65.9	29.859	0.00	0.000	0.004	73.0	59	57.8	73.3	30
04/25/01	4:30 a	64.8	65.2	64.5	80	58.5	0.0	---	0.00	0.0	64.8	65.5	65.5	29.854	0.00	0.004	0.000	72.6	59	57.4	72.7	30
04/25/01	5:00 a	64.4	64.7	64.0	81	58.4	0.0	---	0.00	0.0	64.4	65.0	65.0	29.854	0.00	0.012	0.000	72.2	60	57.5	72.2	30
04/25/01	5:30 a	64.0	64.3	63.7	81	58.1	0.0	---	0.00	0.0	64.0	64.5	64.5	29.856	0.00	0.021	0.000	71.9	60	57.3	71.8	30
04/25/01	6:00 a	63.6	64.0	63.3	82	58.0	0.0	---	0.00	0.0	63.6	64.1	64.1	29.872	0.00	0.029	0.000	71.5	61	57.3	71.3	30
04/25/01	6:30 a	63.8	64.3	63.4	82	58.2	0.0	---	0.00	0.0	63.8	64.3	64.3	29.879	0.00	0.025	0.000	71.3	61	57.2	71.0	30
04/25/01	7:00 a	64.8	65.6	64.0	84	59.9	0.0	---	0.00	0.0	64.8	65.5	65.5	29.880	0.00	0.004	0.000	71.4	61	57.2	71.1	30
04/25/01	7:30 a	66.7	68.1	65.4	83	61.4	0.0	ESE	0.00	2.0	66.7	67.8	67.8	29.874	0.00	0.000	0.035	71.8	62	58.1	71.8	30
04/25/01	8:00 a	69.0	70.3	67.8	79	62.2	0.0	ESE	0.00	2.0	69.0	70.4	70.4	29.871	0.00	0.000	0.083	72.4	64	59.5	72.8	30
04/25/01	8:30 a	72.4	74.4	70.1	71	62.5	2.0	ESE	1.00	6.0	72.4	73.3	73.3	29.869	0.00	0.000	0.154	73.7	67	62.1	74.9	30
04/25/01	9:00 a	76.3	78.3	74.4	64	63.2	3.0	SSW	1.50	7.0	76.3	77.4	77.4	29.870	0.00	0.000	0.235	75.2	69	64.3	76.8	30
04/25/01	9:30 a	79.3	80.5	78.3	57	62.7	2.0	SW	1.00	8.0	79.3	80.1	80.1	29.863	0.00	0.000	0.298	76.9	67	65.1	78.4	30
04/25/01	10:00 a	82.2	83.6	80.6	52	62.8	2.0	SW	1.00	6.0	82.2	83.2	83.2	29.857	0.00	0.000	0.358	78.4	66	66.1	80.0	30
04/25/01	10:30 a	85.0	86.3	83.4	47	62.5	3.0	SSW	1.50	9.0	85.0	86.3	86.3	29.847	0.00	0.000	0.417	80.2	64	66.9	82.2	30
04/25/01	11:00 a	86.9	88.2	86.0	41	60.4	2.0	WSW	1.00	7.0	86.9	87.5	87.5	29.829	0.00	0.000	0.456	81.8	61	67.0	84.1	30
04/25/01	11:30 a	88.7	89.6	87.1	49	67.1	2.0	NW	1.00	8.0	88.7	92.7	92.7	29.818	0.00	0.000	0.494	83.3	60	68.0	86.3	30
04/25/01	12:00 p	88.9	90.0	87.1	46	65.4	3.0	E	1.50	10.0	88.9	92.0	92.0	29.801	0.00	0.000	0.498	84.9	59	69.0	88.9	30
04/25/01	12:30 p	89.3	90.3	88.0	47	66.4	3.0	ENE	1.50	11.0	89.3	93.0	93.0	29.791	0.00	0.000	0.506	86.4	57	69.4	91.3	30
04/25/01	1:00 p	87.4	88.9	86.3	45	63.5	3.0	ENE	1.50	10.0	87.4	89.0	89.0	29.774	0.00	0.000	0.467	87.3	56	69.7	92.6	30
04/25/01	1:30 p	88.4	89.1	87.3	43	63.1	4.0	NE	2.00	10.0	88.4	89.9	89.9	29.759	0.00	0.000	0.488	87.7	54	69.0	92.4	30
04/25/01	2:00 p	87.3	88.7	86.0	47	64.6	4.0	NE	2.00	11.0	87.3	89.6	89.6	29.756	0.00	0.000	0.465	88.4	53	69.1	93.3	30
04/25/01	2:30 p	85.6	87.2	83.0	55	67.6	4.0	ENE	2.00	14.0	85.6	89.0	89.0	29.752	0.00	0.000	0.429	87.8	53	68.5	92.2	30
04/25/01	3:00 p	82.3	83.3	80.1	69	71.1	3.0	SSE	1.50	10.0	82.3	86.7	86.7	29.770	0.09	0.000	0.360	86.4	57	69.4	91.3	30
04/25/01	3:30 p	77.7	80.2	76.7	76	69.5	1.0	NNE	0.50	4.0	77.7	80.4	80.4	29.755	0.06	0.000	0.265	83.9	62	69.5	88.1	30
04/25/01	4:30 p	77.5	78.0	77.1	69	66.5	1.0	NNE	0.50	5.0	77.5	79.3	79.3	29.756	0.03	0.000	0.260	83.4	63	69.5	87.3	30
04/25/01	5:00 p	75.9	77.5	74.5	77	68.2	3.0	N	1.50	12.0	75.9	78.5	78.5	29.761	0.02	0.000	0.227	82.8	63	68.9	86.1	30
04/25/01	5:30 p	73.8	74.7	73.1	83	68.3	4.0	N	2.00	13.0	73.8	75.9	75.9	29.755	0.02	0.000	0.183	81.9	67	69.9	85.5	30
04/25/01	6:00 p	72.7	73.3	72.3	84	67.6	4.0	N	2.00	12.0	72.7	74.6	74.6	29.789	0.01	0.000	0.160	81.2	67	69.2	84.2	30
04/25/01	6:30 p	71.9	72.5	71.4	83	66.5	3.0	N	1.50	13.0	71.9	73.5	73.5	29.791	0.01	0.000	0.144	80.5	67	68.5	83.1	30
04/25/01	7:00 p	70.8	71.7	70.0	88	67.1	3.0	N	1.50	9.0	70.8	72.8	72.8	29.805	0.01	0.000	0.121	79.8	68	68.3	82.1	30
04/25/01	7:30 p	70.1	70.4	69.8	87	66.0	2.0	N	1.00	10.0	70.1	71.8	71.8	29.807	0.00	0.000	0.106	79.3	67	67.4	81.3	30
04/25/01	8:00 p	70.3	70.5	70.0	87	66.2	1.0	N	0.50	6.0	70.3	72.1	72.1	29.818	0.00	0.000	0.110	79.0	67	67.1	80.9	30
04/25/01	8:30 p	70.5	70.9	70.2	85	65.8	0.0	N	0.00	4.0	70.5	72.2	72.2	29.823	0.00	0.000	0.115	78.8	67	66.9	80.7	30
04/25/01	9:00 p	70.5	70.8	70.3	85	65.8	0.0	N	0.00	3.0	70.5	72.2	72.2	29.828	0.01	0.000	0.115	78.2	66	65.9	79.8	30
04/25/01	9:30 p	70.2	70.7	69.8	84	65.1	0.0	N	0.00	1.0	70.2	71.7	71.7	29.830	0.00	0.000	0.108	77.6	66	65.3	79.1	30
04/25/01	10:00 p	69.8	70.2	69.5	86	65.4	0.0	N	0.00	3.0	69.8	71.4	71.4	29.834	0.01	0.000	0.100	76.9	66	64.7	78.3	30
04/25/01	10:30 p	69.8	70.0	69.6	86	65.4	0.0	NNE	0.00	4.0	69.8	71.4	71.4	29.837	0.00	0.000	0.100	76.4	67	64.6	77.9	30
04/25/01	11:00 p	69.7	70.0	69.4	87	65.7	0.0	NNE	0.00	1.0	69.7	71.5	71.5	29.829	0.00	0.000	0.098	76.1	68	64.8	77.7	30
04/25/01	11:30 p	69.7	69.9	69.4	88	66.0	0.0	---	0.00	0.0	69.7	71.5	71.5	29.830	0.00	0.000	0.098	75.7	67	64.0	77.1	30
04/26/01	12:00 a	69.7	70.0	69.5	88	66.0	0.0	---	0.00	0.0	69.7	71.5	71.5	29.826	0.01	0.000	0.098	75.5	68	64.2	77.1	30
04/26/01	12:30 a	69.7	70.0	69.6	89	66.3	0.0	---	0.00	0.0	69.7	71.6	71.6	29.825	0.00	0.000	0.098	75.3	70	64.8	77.0	30
04/26/01	1:00 a	69.7	70.0	69.5	89	66.3	0.0	---	0.00	0.0	69.7	71.6	71.6	29.816	0.00	0.000	0.098	75.1	71	65.1	76.9	30
04/26/01	1:30 a	69.5	69.9	69.1	88	65.8	1.0	NW	0.50	7.0	69.5	71.4	71.4	29.816	0.00	0.000	0.094	75.0	70	64.5	76.7	30
04/26/01	2:00 a	69.3	69.6	68.9	88	65.6	2.0	NNW	1.00	7.0	69.3	71.2	71.2	29.809	0.00	0.000	0.090	74.9	69	64.0	76.5	30
04/26/01	2:30 a	68.9	69.3	68.5	88	65.2	2.0	NNW	1.00	9.0	68.9	70.8	70.8	29.809	0.00	0.000	0.081	74.8	69	63.9	76.4	30
04/26/01	3:00 a	68.5	68.9	68.1	88	64.8	2.0	NNW	1.00	9.0	68.5	70.3	70.3	29.804	0.01	0.000	0.073	74.6	69	63.8	76.2	30
04/26/01	3:30 a	68.1	68.5	67.7	88	64.4	2.0	NNW	1.00	7.0	68.1	69.7	69.7	29.806	0.00	0.000	0.065	74.3	69	63.5	75.8	30
04/26/01	4:00 a	67.8	68.1	67.4	88	64.1	3.0	NNW	1.50	9.0	67.8	69.4	69.4	29.802	0.00	0.000	0.058	74.0	69	63.2	75.5	30
04/26/01	4:30 a	67.6	67.9	67.3	88	63.9	2.0	N	1.00	8.0	67.6	69.1	69.1	29.805	0.00	0.000	0.054	73.8	71	63.8	75.4	30
04/26/01	5:00 a	67.6	67.9	67.3	87	63.6	2.0	NNW	1.00	7.0	67.6	69.1	69.1	29.823	0.00	0.000	0.054	73.6	70	63.2	75.0	30
04/26/01	5:30 a	67.3	67.6	66.9	87	63.3	1.0	NNW	0.50	6.0	67.3	68.7	68.7	29.832	0.00	0.000	0.048	73.4	69	62.6	74.6	30
04/26/01	6:00 a	67.1	67.4	66.8	88	63.4	1.0	NNW	0.50	3.0	67.1	68.5	68.5	29.836	0.00	0.000	0.044	73.3	68	62.1	74.4	30
04/26/01	6:30 a	67.1	67.4	66.8	87	63.1	0.0	NNW	0.00	3.0	67.1	68.5	68.5	29.848	0.00	0.000	0.044	73.2	69	62.4	74.3	30
04/26/01	7:00 a	66.9	67.2	66.6	88	63.2	1.0	NNW	0.50	5.0	66.9	68.3	68.3	29.852	0.00	0.000	0.040	72.9	68	61.7	73.8	30
04/26/01	7:30 a	67.1	67.5	66.7	87	63.1	1.0	NNW	0.50	5.0	67.1	68.5	68.5	29.869	0.00	0.000	0.044	72.9	69	62.1	73.9	30
04/26/01	8:00 a	68.1	69.0	67.4	87	64.1	3.0	NW	1.50	10.0	68.1	69.7	69.7	29.873	0.00	0.000	0.065	73.1	70	62.7	74.3	30
04/26/01	8:30 a	69.3	70.1	68.6	82	63.6	4.0	N	2.00	12.0	69.3	70.8	70.8	29.875	0.00	0.000	0.090	73.5	71	63.5	74.9	30
04/26/01	9:00 a	71.1	72.1	69.8	77	63.5	4.0	N	2.00	17.0	71.1	72.1	72.1	29.884	0.01	0.000	0.127	74.2	73	65.0	76.0	30
04/26/01	9:30 a	72.3	72.9	71.7	73	63.2	5.0	N	2.50	16.0	72.3	73.3	73.3	29.891	0.00	0.000	0.152	75.2	73	65.9	77.2	30
04/26/01	10:00 a	73.1	73.6	72.6	71	63.1	5.0	N	2.50	16.0	73.1	74.3	74.3	29.900	0.00	0.000	0.169	76.1	71	66.0	78.0	30
04/26/01	10:30 a	73.4	74.2	72.8	69	62.6	6.0	N	3.00	20.0	73.4	74.6	74.6	29.907	0.00	0.000	0.175	76.9	69	66.0	78.7	30
04/26/01	11:00 a	73.0	73.3	72.6	68	61.8	6.0	N	3.00	17.0	73.0	73.9	73.9	29.908	0.00	0.000	0.167	77.2	68	65.8	78.9	30
04/26/01	11:30 a	73.1	73.5	72.8	65	60.6	7.0	N	3.50	18.0	73.1	73.8	73.8	29.905	0.00	0.000	0.169	77.4	66	65.1	78.9	30
04/26/01	12:00 p	74.9	76.5	73.0	60	60.1	7.0	N	3.50	19.0	74.9	75.8	75.8	29.898	0.00	0.000	0.206	78.1	65	65.4	79.5	30
04/26/01	12:30 p	76.5	77.1	75.8	57	60.1	6.0	N	3.00	16.0	76.5	77.0	77.0	29.901	0.00	0.000	0.240	79.5	62	65.3	81.0	30
04/26/01	1:00 p	77.2	78.0	76.5	52	58.2	6.0	N	3.00	18.0	77.2	77.2	77.2	29.896	0.00	0.000	0.254	80.5	60	65.3	82.0	30
04/26/01	1:30 p	77.5	78.6	76.6	52	58.5	7.0	NNE	3.50	17.0	77.5	77.6	77.6	29.896	0.00	0.000	0.260	81.3	58	65.1	82.8	30
04/26/01	2:00 p	77.5	78.2	76.4	53	59.0	7.0	N	3.50	22.0	77.5	77.7	77.7	29.887	0.00	0.000	0.260	81.9	55	64.1	83.3	30
04/26/01	2:30 p	77.3	78.0	76.5	51	57.8	7.0	N	3.50	18.0	77.3	77.3	77.3	29.879	0.00	0.000	0.256	82.2	55	64.4	83.7	30
04/26/01	3:00 p	77.2	78.1	76.3	54	59.3	7.0	N	3.50	18.0	77.2	77.4	77.4	29.873	0.00	0.000	0.254	82.4	54	64.1	83.8	30
04/26/01	3:30 p	76.9	77.8	76.0	54	59.0	7.0	N	3.50	19.0	76.9	77.1	77.1	29.875	0.00	0.000	0.248	82.5	54	64.2	84.0	30
04/26/01	4:00 p	76.0	77.7	74.6	57	59.7	7.0	N	3.50	21.0	76.0	76.5	76.5	29.875	0.00	0.000	0.229	82.5	53	63.6	83.9	30
04/26/01	4:30 p	75.2	75.8	74.5	57	58.9	7.0	N	3.50	19.0	75.2	75.8	75.8	29.876	0.00	0.000	0.212	82.1	53	63.3	83.2	30
04/26/01	5:00 p	74.7	75.3	74.3	55	57.5	6.0	N	3.00	22.0	74.7	75.1	75.1	29.878	0.00	0.000	0.202	81.7	52	62.4	82.5	30
04/26/01	5:30 p	73.7	74.4	73.0	56	57.0	7.0	N	3.50	18.0	73.7	73.9	73.9	29.876	0.00	0.000	0.181	80.7	51	60.9	81.0	30
04/26/01	6:00 p	72.5	73.2	71.9	58	56.9	6.0	N	3.00	19.0	72.5	72.5	72.5	29.878	0.00	0.000	0.156	79.7	51	60.0	79.9	30
04/26/01	6:30 p	71.6	72.2	70.8	55	54.6	6.0	N	3.00	17.0	71.6	70.9	70.9	29.895	0.00	0.000	0.137	78.5	51	58.9	78.7	30
04/26/01	7:00 p	70.2	70.9	69.6	61	56.1	5.0	N	2.50	18.0	70.2	69.6	69.6	29.904	0.00	0.000	0.108	77.1	52	58.1	77.1	30
04/26/01	7:30 p	69.4	69.8	69.1	61	55.4	5.0	N	2.50	17.0	69.4	68.8	68.8	29.910	0.00	0.000	0.092	76.2	54	58.3	76.4	30
04/26/01	8:00 p	69.3	69.5	69.0	58	53.9	5.0	N	2.50	14.0	69.3	68.5	68.5	29.923	0.00	0.000	0.090	75.6	53	57.3	75.8	30
04/26/01	8:30 p	69.1	69.3	68.8	57	53.2	5.0	NNE	2.50	19.0	69.1	68.2	68.2	29.935	0.00	0.000	0.085	75.1	53	56.8	75.4	30
04/26/01	9:00 p	68.8	69.2	68.5	57	52.9	4.0	NNE	2.00	17.0	68.8	68.0	68.0	29.947	0.00	0.000	0.079	74.6	53	56.3	74.8	30
04/26/01	9:30 p	68.4	68.7	68.1	55	51.6	3.0	NNE	1.50	12.0	68.4	67.5	67.5	29.956	0.00	0.000	0.071	74.1	52	55.3	74.0	30
04/26/01	10:00 p	68.1	68.4	67.7	57	52.3	3.0	NE	1.50	12.0	68.1	67.5	67.5	29.963	0.00	0.000	0.065	73.6	53	55.4	73.5	30
04/26/01	10:30 p	67.8	68.2	67.6	56	51.5	3.0	NE	1.50	14.0	67.8	67.1	67.1	29.970	0.00	0.000	0.058	73.2	53	55.0	73.0	30
04/26/01	11:00 p	67.8	68.0	67.6	57	52.0	3.0	NE	1.50	13.0	67.8	67.2	67.2	29.972	0.00	0.000	0.058	72.9	53	54.8	72.7	30
04/26/01	11:30 p	67.6	67.9	67.3	57	51.8	3.0	NE	1.50	11.0	67.6	66.9	66.9	29.974	0.00	0.000	0.054	72.6	54	55.0	72.3	30
04/27/01	12:00 a	67.4	67.7	67.1	58	52.1	4.0	NE	2.00	11.0	67.4	66.8	66.8	29.972	0.00	0.000	0.050	72.3	54	54.7	71.9	30
04/27/01	12:30 a	67.3	67.7	67.0	61	53.4	4.0	NE	2.00	13.0	67.3	67.0	67.0	29.970	0.00	0.000	0.048	72.1	55	55.0	71.6	30
04/27/01	1:00 a	67.2	67.5	66.9	59	52.4	3.0	NE	1.50	15.0	67.2	66.7	66.7	29.973	0.00	0.000	0.046	71.8	54	54.3	71.1	30
04/27/01	1:30 a	67.0	67.3	66.6	59	52.2	3.0	NE	1.50	14.0	67.0	66.4	66.4	29.966	0.00	0.000	0.042	71.5	54	54.0	70.7	30
04/27/01	2:00 a	66.8	67.3	66.6	63	53.8	3.0	NE	1.50	10.0	66.8	66.6	66.6	29.964	0.00	0.000	0.038	71.2	56	54.7	70.4	30
04/27/01	2:30 a	67.0	67.3	66.8	62	53.5	3.0	NE	1.50	11.0	67.0	66.7	66.7	29.954	0.00	0.000	0.042	71.1	57	55.1	70.3	30
04/27/01	3:00 a	66.9	67.1	66.7	64	54.3	4.0	NE	2.00	13.0	66.9	66.8	66.8	29.951	0.00	0.000	0.040	71.0	58	55.5	70.3	30
04/27/01	3:30 a	67.1	67.4	66.8	58	51.8	5.0	NE	2.50	13.0	67.1	66.5	66.5	29.956	0.01	0.000	0.044	70.8	57	54.8	69.9	30
04/27/01	4:00 a	66.7	67.0	66.5	62	53.3	4.0	NE	2.00	12.0	66.7	66.3	66.3	29.961	0.00	0.000	0.035	70.6	56	54.1	69.6	30
04/27/01	4:30 a	66.8	67.1	66.5	60	52.5	4.0	NE	2.00	12.0	66.8	66.3	66.3	29.970	0.00	0.000	0.038	70.4	57	54.4	69.4	30
04/27/01	5:00 a	66.6	66.9	66.2	59	51.8	4.0	ENE	2.00	15.0	66.6	65.9	65.9	29.971	0.00	0.000	0.033	70.2	57	54.2	69.2	30
04/27/01	5:30 a	66.1	66.5	65.8	60	51.8	3.0	NE	1.50	9.0	66.1	65.4	65.4	29.976	0.00	0.000	0.023	70.1	56	53.7	68.9	30
04/27/01	6:00 a	66.1	66.3	65.9	63	53.1	3.0	NE	1.50	10.0	66.1	65.7	65.7	29.983	0.00	0.000	0.023	69.8	57	53.9	68.8	30
04/27/01	6:30 a	66.5	67.1	65.9	63	53.5	4.0	NE	2.00	10.0	66.5	66.2	66.2	29.992	0.00	0.000	0.031	69.8	59	54.8	68.9	30
04/27/01	7:00 a	67.4	67.8	66.8	58	52.1	4.0	ENE	2.00	13.0	67.4	66.8	66.8	30.002	0.00	0.000	0.050	69.9	58	54.4	68.9	30
04/27/01	7:30 a	67.8	68.5	67.4	59	52.9	4.0	NE	2.00	10.0	67.8	67.4	67.4	30.011	0.00	0.000	0.058	70.1	59	55.1	69.2	30
04/27/01	8:00 a	68.9	69.7	68.2	54	51.6	4.0	ENE	2.00	13.0	68.9	67.8	67.8	30.019	0.00	0.000	0.081	70.8	58	55.3	70.0	30
04/27/01	8:30 a	70.4	71.1	69.5	55	53.5	4.0	ENE	2.00	13.0	70.4	69.2	69.2	30.020	0.00	0.000	0.113	71.9	59	56.8	71.7	30
04/27/01	9:00 a	71.8	72.6	70.7	56	55.3	4.0	ENE	2.00	14.0	71.8	71.3	71.3	30.025	0.00	0.000	0.142	73.0	59	57.8	73.3	30
04/27/01	9:30 a	73.1	74.2	71.5	51	53.9	5.0	ENE	2.50	15.0	73.1	72.7	72.7	30.027	0.00	0.000	0.169	74.1	57	57.9	74.5	30
04/27/01	10:00 a	74.9	76.1	74.0	49	54.4	4.0	ENE	2.00	14.0	74.9	74.9	74.9	30.024	0.00	0.000	0.206	75.5	57	59.2	76.1	30
04/27/01	10:30 a	76.3	77.2	75.9	46	54.0	4.0	ENE	2.00	13.0	76.3	75.9	75.9	30.020	0.00	0.000	0.235	76.9	55	59.5	77.2	30
04/27/01	11:00 a	77.1	77.8	76.4	48	55.9	4.0	NE	2.00	13.0	77.1	76.8	76.8	30.012	0.00	0.000	0.252	78.3	54	60.3	78.7	30
04/27/01	11:30 a	78.3	79.4	77.1	45	55.2	5.0	ENE	2.50	15.0	78.3	77.9	77.9	29.992	0.00	0.000	0.277	79.5	53	60.9	79.9	30
04/27/01	12:00 p	79.0	79.8	78.0	45	55.8	4.0	NE	2.00	17.0	79.0	78.7	78.7	29.979	0.00	0.000	0.292	80.6	52	61.3	81.0	30
04/27/01	12:30 p	79.6	80.7	78.8	44	55.8	5.0	ENE	2.50	15.0	79.6	79.1	79.1	29.974	0.00	0.000	0.304	81.5	51	61.6	82.1	30
04/27/01	1:00 p	80.4	81.5	79.3	44	56.5	4.0	NE	2.00	13.0	80.4	79.9	79.9	29.970	0.00	0.000	0.321	82.5	51	62.5	83.6	30
04/27/01	1:30 p	80.7	81.6	80.1	44	56.8	5.0	NE	2.50	14.0	80.7	80.2	80.2	29.959	0.00	0.000	0.327	83.3	49	62.1	84.5	30
04/27/01	2:00 p	81.0	82.2	80.2	43	56.4	4.0	ENE	2.00	12.0	81.0	80.4	80.4	29.955	0.00	0.000	0.333	83.9	49	62.7	85.5	30
04/27/01	2:30 p	80.1	81.3	78.5	48	58.6	4.0	ENE	2.00	14.0	80.1	80.0	80.0	29.949	0.00	0.000	0.315	84.1	48	62.3	85.6	30
04/27/01	3:00 p	79.1	79.8	78.4	47	57.1	4.0	NE	2.00	15.0	79.1	79.0	79.0	29.944	0.00	0.000	0.294	83.8	48	62.0	85.2	30
04/27/01	3:30 p	78.6	80.0	77.7	44	54.9	5.0	ENE	2.50	15.0	78.6	78.2	78.2	29.940	0.00	0.000	0.283	83.5	47	61.1	84.6	30
04/27/01	4:00 p	79.6	80.6	78.3	46	57.0	4.0	NE	2.00	14.0	79.6	79.3	79.3	29.929	0.00	0.000	0.304	83.7	47	61.3	84.9	30
04/27/01	4:30 p	78.1	79.3	76.7	51	58.5	4.0	NE	2.00	12.0	78.1	78.2	78.2	29.934	0.00	0.000	0.273	83.5	47	61.1	84.6	30
04/27/01	5:00 p	76.1	77.1	75.5	50	56.1	4.0	ENE	2.00	15.0	76.1	76.1	76.1	29.926	0.00	0.000	0.231	82.6	47	60.3	83.1	30
04/27/01	5:30 p	75.8	76.3	75.0	47	54.1	4.0	ENE	2.00	12.0	75.8	75.6	75.6	29.930	0.00	0.000	0.225	81.9	46	59.1	81.9	30
04/27/01	6:00 p	74.9	75.4	74.2	50	55.0	4.0	ENE	2.00	11.0	74.9	75.0	75.0	29.935	0.00	0.000	0.206	80.9	47	58.8	80.7	30
04/27/01	6:30 p	73.7	74.5	72.7	54	56.0	3.0	NE	1.50	14.0	73.7	73.7	73.7	29.939	0.00	0.000	0.181	79.7	49	58.8	79.7	30
04/27/01	7:00 p	72.3	73.0	71.6	55	55.2	3.0	NE	1.50	9.0	72.3	72.0	72.0	29.949	0.00	0.000	0.152	78.6	50	58.4	78.7	30
04/27/01	7:30 p	71.3	71.9	71.0	57	55.3	2.0	NE	1.00	7.0	71.3	70.6	70.6	29.962	0.00	0.000	0.131	77.6	50	57.5	77.5	30
04/27/01	8:00 p	71.0	71.2	70.8	59	55.9	2.0	ENE	1.00	12.0	71.0	70.4	70.4	29.968	0.00	0.000	0.125	77.1	51	57.6	77.0	30
04/27/01	8:30 p	71.0	71.1	70.8	56	54.5	3.0	ENE	1.50	10.0	71.0	70.1	70.1	29.972	0.00	0.000	0.125	76.6	51	57.1	76.6	30
04/27/01	9:00 p	70.9	71.1	70.6	55	53.9	3.0	ENE	1.50	10.0	70.9	69.9	69.9	29.983	0.00	0.000	0.123	76.2	51	56.7	76.2	30
04/27/01	9:30 p	70.5	70.8	70.2	57	54.5	3.0	ENE	1.50	14.0	70.5	69.5	69.5	29.992	0.00	0.000	0.115	75.7	51	56.3	75.8	30
04/27/01	10:00 p	70.4	70.6	70.2	57	54.4	3.0	ENE	1.50	10.0	70.4	69.4	69.4	30.005	0.00	0.000	0.113	75.4	52	56.5	75.6	30
04/27/01	10:30 p	70.3	70.6	70.0	55	53.4	2.0	E	1.00	9.0	70.3	69.1	69.1	30.006	0.00	0.000	0.110	75.1	52	56.3	75.3	30
04/27/01	11:00 p	69.8	70.2	69.2	56	53.4	1.0	E	0.50	5.0	69.8	68.7	68.7	29.999	0.00	0.000	0.100	74.8	51	55.5	74.9	30
04/27/01	11:30 p	68.5	69.3	67.8	58	53.1	0.0	E	0.00	3.0	68.5	67.9	67.9	29.997	0.00	0.000	0.073	74.2	51	54.9	74.1	30
04/28/01	12:00 a	68.0	68.7	67.5	61	54.0	1.0	E	0.50	6.0	68.0	67.8	67.8	29.993	0.00	0.000	0.063	73.6	52	54.9	73.4	30
04/28/01	12:30 a	68.7	69.0	68.5	58	53.3	1.0	ESE	0.50	8.0	68.7	68.0	68.0	29.988	0.00	0.000	0.077	73.5	53	55.3	73.4	30
04/28/01	1:00 a	68.3	68.7	67.9	61	54.3	1.0	ESE	0.50	6.0	68.3	68.0	68.0	29.988	0.00	0.000	0.069	73.3	53	55.1	73.2	30
04/28/01	1:30 a	67.9	68.3	67.4	64	55.3	0.0	E	0.00	3.0	67.9	68.0	68.0	29.984	0.00	0.000	0.060	72.9	53	54.8	72.7	30
04/28/01	2:00 a	67.3	67.6	67.0	63	54.3	0.0	E	0.00	2.0	67.3	67.2	67.2	29.982	0.00	0.000	0.048	72.5	53	54.4	72.1	30
04/28/01	2:30 a	68.1	68.8	67.4	61	54.1	1.0	E	0.50	7.0	68.1	67.9	67.9	29.981	0.00	0.000	0.065	72.5	54	54.9	72.2	30
04/28/01	3:00 a	68.7	68.9	68.5	61	54.7	1.0	ENE	0.50	5.0	68.7	68.3	68.3	29.976	0.00	0.000	0.077	72.6	54	55.0	72.3	30
04/28/01	3:30 a	68.7	69.0	68.2	63	55.6	0.0	NE	0.00	4.0	68.7	68.5	68.5	29.975	0.00	0.000	0.077	72.5	54	54.9	72.2	30
04/28/01	4:00 a	67.6	68.4	66.6	65	55.4	0.0	---	0.00	1.0	67.6	67.7	67.7	29.978	0.00	0.000	0.054	72.2	54	54.6	71.7	30
04/28/01	4:30 a	65.9	66.8	65.0	67	54.6	0.0	---	0.00	0.0	65.9	65.8	65.8	29.983	0.00	0.000	0.019	71.6	55	54.6	70.9	30
04/28/01	5:00 a	64.5	65.3	63.8	70	54.5	0.0	NE	0.00	1.0	64.5	64.4	64.4	29.992	0.00	0.010	0.000	71.0	55	54.0	70.0	30
04/28/01	5:30 a	63.5	64.2	63.2	71	53.9	0.0	NE	0.00	4.0	63.5	63.3	63.3	29.998	0.00	0.031	0.000	70.4	55	53.5	69.2	30
04/28/01	6:00 a	65.1	66.5	63.2	63	52.2	2.0	NE	1.00	7.0	65.1	64.6	64.6	30.005	0.00	0.000	0.002	70.2	55	53.3	69.0	30
04/28/01	6:30 a	67.2	67.9	66.3	62	53.7	2.0	NE	1.00	8.0	67.2	66.9	66.9	30.022	0.00	0.000	0.046	70.3	56	53.9	69.2	30
04/28/01	7:00 a	68.4	69.3	67.7	54	51.1	2.0	ENE	1.00	8.0	68.4	67.4	67.4	30.031	0.00	0.000	0.071	70.5	55	53.6	69.3	30
04/28/01	7:30 a	69.8	70.5	69.0	52	51.4	3.0	NE	1.50	10.0	69.8	68.3	68.3	30.031	0.00	0.000	0.100	70.9	55	53.9	69.9	30
04/28/01	8:00 a	71.3	72.2	70.3	50	51.7	3.0	NE	1.50	15.0	71.3	70.1	70.1	30.030	0.00	0.000	0.131	71.9	56	55.3	71.4	30
04/28/01	8:30 a	73.2	73.8	72.1	47	51.8	4.0	ENE	2.00	12.0	73.2	72.5	72.5	30.029	0.00	0.000	0.171	73.3	55	56.2	73.4	30
04/28/01	9:00 a	74.1	74.9	73.4	49	53.7	4.0	ENE	2.00	16.0	74.1	73.8	73.8	30.024	0.00	0.000	0.190	74.6	55	57.4	75.0	30
04/28/01	9:30 a	75.2	76.0	74.1	47	53.6	4.0	ENE	2.00	13.0	75.2	75.0	75.0	30.020	0.00	0.000	0.212	76.0	54	58.2	76.2	30
04/28/01	10:00 a	76.4	77.0	75.7	47	54.7	5.0	ENE	2.50	16.0	76.4	76.1	76.1	30.013	0.00	0.000	0.238	77.4	54	59.5	77.7	30
04/28/01	10:30 a	77.7	79.1	76.6	40	51.5	5.0	ENE	2.50	14.0	77.7	76.8	76.8	30.016	0.00	0.000	0.265	78.8	52	59.7	79.1	30
04/28/01	11:00 a	78.8	80.2	78.0	40	52.4	6.0	ENE	3.00	17.0	78.8	78.0	78.0	30.009	0.00	0.000	0.288	80.2	50	59.9	80.3	30
04/28/01	11:30 a	79.3	80.3	78.6	41	53.6	5.0	NE	2.50	14.0	79.3	78.5	78.5	30.002	0.00	0.000	0.298	81.0	49	60.0	81.1	30
04/28/01	12:00 p	80.6	81.3	79.8	39	53.4	6.0	ENE	3.00	16.0	80.6	79.5	79.5	29.995	0.00	0.000	0.325	81.9	48	60.3	82.2	30
04/28/01	12:30 p	80.6	81.7	79.7	44	56.7	6.0	NE	3.00	16.0	80.6	80.1	80.1	29.991	0.00	0.000	0.325	82.8	48	61.1	83.6	30
04/28/01	1:00 p	80.5	81.1	79.9	40	54.0	5.0	ENE	2.50	15.0	80.5	79.5	79.5	29.983	0.00	0.000	0.323	83.1	47	60.8	83.9	30
04/28/01	1:30 p	81.1	82.0	80.2	42	55.8	5.0	ENE	2.50	14.0	81.1	80.4	80.4	29.972	0.00	0.000	0.335	83.7	47	61.3	84.9	30
04/28/01	2:00 p	80.1	81.4	79.5	43	55.6	5.0	ENE	2.50	14.0	80.1	79.5	79.5	29.962	0.00	0.000	0.315	83.8	46	60.8	84.9	30
04/28/01	2:30 p	80.6	81.1	79.4	44	56.7	5.0	ENE	2.50	15.0	80.6	80.1	80.1	29.957	0.00	0.000	0.325	83.9	45	60.3	84.9	30
04/28/01	3:00 p	80.3	82.1	79.3	40	53.8	5.0	E	2.50	15.0	80.3	79.3	79.3	29.956	0.00	0.000	0.319	83.7	46	60.7	84.8	30
04/28/01	3:30 p	81.6	82.8	80.5	40	54.9	6.0	ENE	3.00	18.0	81.6	80.8	80.8	29.955	0.00	0.000	0.346	84.2	46	61.2	85.4	30
04/28/01	4:00 p	81.9	83.0	80.9	42	56.6	5.0	ENE	2.50	19.0	81.9	81.4	81.4	29.951	0.00	0.000	0.352	84.7	45	61.0	85.7	30
04/28/01	4:30 p	80.6	81.5	79.5	44	56.7	4.0	ENE	2.00	13.0	80.6	80.1	80.1	29.942	0.00	0.000	0.325	84.7	45	61.0	85.7	30
04/28/01	5:00 p	79.3	80.2	77.9	45	56.1	4.0	NE	2.00	13.0	79.3	79.0	79.0	29.952	0.00	0.000	0.298	84.5	45	60.8	85.6	30
04/28/01	5:30 p	77.2	78.1	76.4	46	54.8	3.0	NE	1.50	11.0	77.2	76.8	76.8	29.959	0.00	0.000	0.254	83.3	45	59.7	84.0	30
04/28/01	6:00 p	75.9	76.6	74.9	50	55.9	3.0	ENE	1.50	11.0	75.9	75.9	75.9	29.962	0.00	0.000	0.227	81.9	46	59.1	81.9	30
04/28/01	6:30 p	74.3	75.0	73.6	52	55.5	3.0	ENE	1.50	11.0	74.3	74.3	74.3	29.965	0.00	0.000	0.194	80.7	47	58.6	80.5	30
04/28/01	7:00 p	73.3	73.9	72.7	52	54.6	3.0	ENE	1.50	13.0	73.3	73.1	73.1	29.970	0.00	0.000	0.173	79.6	48	58.2	79.5	30
04/28/01	7:30 p	72.6	72.9	72.1	53	54.5	3.0	ENE	1.50	12.0	72.6	72.2	72.2	29.978	0.00	0.000	0.158	78.6	48	57.3	78.5	30
04/28/01	8:00 p	72.1	72.3	71.8	54	54.5	3.0	ENE	1.50	9.0	72.1	71.6	71.6	29.984	0.00	0.000	0.148	77.9	49	57.2	77.8	30
04/28/01	8:30 p	71.9	72.1	71.7	55	54.9	3.0	ENE	1.50	10.0	71.9	71.4	71.4	29.997	0.00	0.000	0.144	77.3	50	57.2	77.2	30
04/28/01	9:00 p	71.8	72.0	71.6	56	55.3	3.0	ENE	1.50	9.0	71.8	71.3	71.3	29.995	0.00	0.000	0.142	76.9	50	56.8	76.7	30
04/28/01	9:30 p	71.6	71.9	71.4	58	56.0	3.0	ENE	1.50	10.0	71.6	71.2	71.2	29.996	0.00	0.000	0.137	76.5	51	57.0	76.5	30
04/28/01	10:00 p	71.4	71.7	71.2	59	56.3	2.0	E	1.00	10.0	71.4	71.0	71.0	29.997	0.00	0.000	0.133	76.3	52	57.4	76.4	30
04/28/01	10:30 p	71.5	71.7	71.3	59	56.4	2.0	E	1.00	9.0	71.5	71.1	71.1	30.003	0.00	0.000	0.135	76.0	53	57.6	76.2	30
04/28/01	11:00 p	71.6	71.8	71.3	60	57.0	3.0	E	1.50	13.0	71.6	71.3	71.3	29.998	0.00	0.000	0.137	75.9	53	57.5	76.1	30
04/28/01	11:30 p	71.6	71.9	71.4	59	56.5	3.0	E	1.50	12.0	71.6	71.3	71.3	30.002	0.00	0.000	0.137	75.7	54	57.9	76.0	30
04/29/01	12:00 a	71.6	71.8	71.4	60	57.0	4.0	ENE	2.00	14.0	71.6	71.3	71.3	29.995	0.00	0.000	0.137	75.6	55	58.3	76.0	30
04/29/01	12:30 a	71.5	71.7	71.2	60	56.9	3.0	ENE	1.50	11.0	71.5	71.2	71.2	29.992	0.00	0.000	0.135	75.4	56	58.6	75.9	30
04/29/01	1:00 a	71.3	71.6	70.9	61	57.2	3.0	ENE	1.50	12.0	71.3	71.0	71.0	29.990	0.00	0.000	0.131	75.2	56	58.4	75.7	30
04/29/01	1:30 a	70.9	71.2	70.7	63	57.7	3.0	ENE	1.50	10.0	70.9	70.6	70.6	29.983	0.00	0.000	0.123	74.9	56	58.1	75.5	30
04/29/01	2:00 a	70.8	71.1	70.6	63	57.6	3.0	ENE	1.50	10.0	70.8	70.5	70.5	29.967	0.00	0.000	0.121	74.7	57	58.5	75.3	30
04/29/01	2:30 a	70.8	71.0	70.5	59	55.8	3.0	E	1.50	12.0	70.8	70.1	70.1	29.972	0.00	0.000	0.121	74.6	57	58.4	75.2	30
04/29/01	3:00 a	70.6	70.9	70.4	62	56.9	2.0	ESE	1.00	10.0	70.6	70.2	70.2	29.972	0.00	0.000	0.117	74.4	56	57.7	74.8	30
04/29/01	3:30 a	70.6	70.8	70.3	61	56.5	3.0	E	1.50	17.0	70.6	70.1	70.1	29.969	0.00	0.000	0.117	74.3	56	57.6	74.7	30
04/29/01	4:00 a	70.4	70.7	70.1	60	55.8	2.0	E	1.00	14.0	70.4	69.7	69.7	29.974	0.00	0.000	0.113	74.1	56	57.4	74.4	30
04/29/01	4:30 a	70.4	70.6	70.2	59	55.4	2.0	E	1.00	8.0	70.4	69.6	69.6	29.978	0.00	0.000	0.113	73.9	56	57.2	74.2	30
04/29/01	5:00 a	70.7	71.0	70.3	65	58.4	4.0	ENE	2.00	14.0	70.7	70.5	70.5	29.985	0.00	0.000	0.119	73.8	58	58.1	74.2	30
04/29/01	5:30 a	70.9	71.2	70.7	64	58.1	4.0	ENE	2.00	15.0	70.9	70.7	70.7	29.993	0.00	0.000	0.123	73.8	60	59.0	74.4	30
04/29/01	6:00 a	71.0	71.2	70.8	63	57.8	5.0	ENE	2.50	16.0	71.0	70.7	70.7	30.006	0.00	0.000	0.125	73.8	60	59.0	74.4	30
04/29/01	6:30 a	71.1	71.3	70.8	65	58.7	5.0	ENE	2.50	15.0	71.1	71.0	71.0	30.020	0.00	0.000	0.127	73.8	60	59.0	74.4	30
04/29/01	7:00 a	70.9	71.2	70.6	63	57.7	5.0	ENE	2.50	16.0	70.9	70.6	70.6	30.041	0.00	0.000	0.123	73.8	61	59.5	74.5	30
04/29/01	7:30 a	71.0	71.3	70.8	63	57.8	4.0	ENE	2.00	15.0	71.0	70.7	70.7	30.050	0.00	0.000	0.125	73.6	61	59.3	74.3	30
04/29/01	8:00 a	71.2	71.5	70.9	61	57.1	5.0	ENE	2.50	15.0	71.2	70.9	70.9	30.059	0.00	0.000	0.129	73.8	60	59.0	74.4	30
04/29/01	8:30 a	71.6	72.1	71.1	60	57.0	5.0	ENE	2.50	17.0	71.6	71.3	71.3	30.062	0.00	0.000	0.137	73.9	60	59.1	74.6	30
04/29/01	9:00 a	72.1	72.6	71.7	60	57.4	6.0	ENE	3.00	15.0	72.1	72.1	72.1	30.068	0.00	0.000	0.148	74.2	60	59.4	74.9	30
04/29/01	9:30 a	72.7	73.1	72.3	57	56.6	5.0	ENE	2.50	18.0	72.7	72.7	72.7	30.073	0.00	0.000	0.160	74.7	59	59.4	75.5	30
04/29/01	10:00 a	72.9	73.4	72.7	57	56.8	5.0	ENE	2.50	18.0	72.9	73.0	73.0	30.077	0.00	0.000	0.165	75.0	58	59.2	75.7	30
04/29/01	10:30 a	73.3	73.5	73.1	56	56.7	5.0	E	2.50	20.0	73.3	73.4	73.4	30.077	0.00	0.000	0.173	75.3	58	59.5	76.0	30
04/29/01	11:00 a	73.7	74.2	73.2	56	57.0	6.0	ENE	3.00	17.0	73.7	73.9	73.9	30.077	0.00	0.000	0.181	75.6	58	59.8	76.2	30
04/29/01	11:30 a	74.4	74.8	73.8	57	58.2	5.0	ENE	2.50	17.0	74.4	74.9	74.9	30.070	0.00	0.000	0.196	76.2	58	60.3	76.8	30
04/29/01	12:00 p	74.4	74.6	74.1	58	58.7	6.0	ENE	3.00	18.0	74.4	75.0	75.0	30.067	0.00	0.000	0.196	76.7	58	60.8	77.3	30
04/29/01	12:30 p	74.8	75.4	74.2	57	58.5	6.0	ENE	3.00	19.0	74.8	75.4	75.4	30.056	0.00	0.000	0.204	77.1	58	61.2	77.7	30
04/29/01	1:00 p	74.8	75.5	74.3	58	59.0	7.0	ENE	3.50	22.0	74.8	75.5	75.5	30.044	0.00	0.000	0.204	77.5	58	61.6	78.2	30
04/29/01	1:30 p	74.6	74.9	74.3	55	57.4	6.0	ENE	3.00	20.0	74.6	75.0	75.0	30.050	0.00	0.000	0.200	77.6	57	61.2	78.2	30
04/29/01	2:00 p	74.6	74.9	74.3	56	57.9	6.0	ENE	3.00	19.0	74.6	75.1	75.1	30.045	0.00	0.000	0.200	77.7	56	60.8	78.2	30
04/29/01	2:30 p	74.9	75.3	74.5	55	57.6	6.0	ENE	3.00	17.0	74.9	75.4	75.4	30.041	0.00	0.000	0.206	77.9	56	60.9	78.5	30
04/29/01	3:00 p	74.7	75.2	74.3	56	58.0	6.0	ENE	3.00	16.0	74.7	75.2	75.2	30.036	0.00	0.000	0.202	77.9	55	60.4	78.4	30
04/29/01	3:30 p	74.1	74.5	73.6	58	58.4	5.0	ENE	2.50	15.0	74.1	74.6	74.6	30.038	0.00	0.000	0.190	77.8	56	60.8	78.3	30
04/29/01	4:00 p	73.7	74.0	73.5	58	58.0	5.0	ENE	2.50	19.0	73.7	74.1	74.1	30.033	0.00	0.000	0.181	77.5	56	60.6	78.0	30
04/29/01	4:30 p	73.5	73.9	73.1	59	58.3	6.0	ENE	3.00	19.0	73.5	74.0	74.0	30.034	0.00	0.000	0.177	77.3	56	60.4	77.8	30
04/29/01	5:00 p	73.1	73.5	72.7	60	58.4	6.0	ENE	3.00	17.0	73.1	73.5	73.5	30.038	0.00	0.000	0.169	77.0	57	60.6	77.5	30
04/29/01	5:30 p	72.8	73.2	72.5	61	58.6	6.0	ENE	3.00	18.0	72.8	73.2	73.2	30.029	0.00	0.000	0.163	76.7	57	60.3	77.2	30
04/29/01	6:00 p	72.5	72.8	72.3	60	57.8	5.0	ENE	2.50	18.0	72.5	72.7	72.7	30.029	0.00	0.000	0.156	76.4	57	60.0	76.9	30
04/29/01	6:30 p	72.2	72.6	71.9	61	58.0	5.0	ENE	2.50	15.0	72.2	72.3	72.3	30.029	0.00	0.000	0.150	76.1	58	60.2	76.6	30
04/29/01	7:00 p	71.9	72.2	71.6	60	57.3	5.0	ENE	2.50	17.0	71.9	71.8	71.8	30.033	0.00	0.000	0.144	75.7	57	59.4	76.2	30
04/29/01	7:30 p	71.6	71.8	71.4	59	56.5	6.0	ENE	3.00	24.0	71.6	71.3	71.3	30.038	0.00	0.000	0.137	75.3	58	59.5	76.0	30
04/29/01	8:00 p	71.6	71.8	71.5	61	57.4	6.0	ENE	3.00	16.0	71.6	71.4	71.4	30.050	0.00	0.000	0.137	75.0	59	59.7	75.8	30
04/29/01	8:30 p	71.7	71.9	71.5	60	57.1	6.0	ENE	3.00	20.0	71.7	71.5	71.5	30.048	0.00	0.000	0.140	75.1	58	59.3	75.8	30
04/29/01	9:00 p	71.8	71.9	71.6	61	57.6	6.0	ENE	3.00	21.0	71.8	71.7	71.7	30.050	0.00	0.000	0.142	75.3	58	59.5	76.0	30
04/29/01	9:30 p	71.7	71.9	71.5	63	58.4	7.0	ENE	3.50	25.0	71.7	71.7	71.7	30.040	0.00	0.000	0.140	75.4	59	60.1	76.1	30
04/29/01	10:00 p	71.7	71.8	71.5	63	58.4	7.0	ENE	3.50	19.0	71.7	71.7	71.7	30.037	0.00	0.000	0.140	75.4	59	60.1	76.1	30
04/29/01	10:30 p	71.6	71.8	71.5	63	58.3	7.0	ENE	3.50	22.0	71.6	71.6	71.6	30.037	0.00	0.000	0.137	75.3	60	60.5	76.1	30
04/29/01	11:00 p	71.7	71.8	71.5	64	58.9	6.0	E	3.00	20.0	71.7	71.8	71.8	30.028	0.00	0.000	0.140	75.4	60	60.5	76.2	30
04/29/01	11:30 p	71.7	71.8	71.5	63	58.4	7.0	ENE	3.50	21.0	71.7	71.7	71.7	30.021	0.00	0.000	0.140	75.3	60	60.5	76.1	30
04/30/01	12:00 a	71.7	71.9	71.5	63	58.4	7.0	E	3.50	21.0	71.7	71.7	71.7	30.020	0.00	0.000	0.140	75.2	60	60.4	76.1	30
04/30/01	12:30 a	71.8	72.0	71.5	63	58.5	7.0	E	3.50	19.0	71.8	71.9	71.9	30.016	0.00	0.000	0.142	75.1	61	60.7	76.1	30
04/30/01	1:00 a	71.8	72.0	71.6	61	57.6	8.0	E	4.00	30.0	71.3	71.7	71.2	30.009	0.00	0.000	0.142	75.1	60	60.3	76.0	30
04/30/01	1:30 a	71.9	72.1	71.7	60	57.3	8.0	E	4.00	34.0	71.4	71.8	71.3	30.000	0.00	0.000	0.144	75.0	60	60.2	75.9	30
04/30/01	2:00 a	71.9	72.1	71.6	63	58.6	8.0	E	4.00	33.0	71.4	72.0	71.5	29.991	0.00	0.000	0.144	75.0	60	60.2	75.9	30
04/30/01	2:30 a	71.9	72.1	71.7	62	58.2	8.0	E	4.00	28.0	71.4	71.9	71.4	29.986	0.00	0.000	0.144	75.0	60	60.2	75.9	30
04/30/01	3:00 a	71.9	72.1	71.7	63	58.6	7.0	E	3.50	21.0	71.9	72.0	72.0	29.978	0.00	0.000	0.144	75.0	61	60.6	76.0	30
04/30/01	3:30 a	71.9	72.1	71.7	63	58.6	7.0	E	3.50	25.0	71.9	72.0	72.0	29.980	0.00	0.000	0.144	75.0	61	60.6	76.0	30
04/30/01	4:00 a	71.9	72.1	71.7	64	59.1	7.0	E	3.50	24.0	71.9	72.1	72.1	29.981	0.00	0.000	0.144	75.0	61	60.6	76.0	30
04/30/01	4:30 a	71.4	72.1	70.3	74	62.7	6.0	ENE	3.00	19.0	71.4	72.2	72.2	29.986	0.01	0.000	0.133	75.0	65	62.4	76.3	30
04/30/01	5:00 a	70.1	70.5	69.8	73	61.0	5.0	E	2.50	22.0	70.1	70.5	70.5	29.994	0.01	0.000	0.106	74.8	65	62.2	76.1	30
04/30/01	5:30 a	69.6	70.2	68.6	83	64.2	6.0	ESE	3.00	24.0	69.6	71.1	71.1	30.011	0.05	0.000	0.096	74.5	68	63.2	76.0	30
04/30/01	6:00 a	67.9	68.7	67.2	85	63.2	6.0	ENE	3.00	22.0	67.9	69.4	69.4	30.025	0.07	0.000	0.060	74.3	69	63.5	75.8	30
04/30/01	6:30 a	67.2	67.5	66.9	87	63.2	5.0	ENE	2.50	20.0	67.2	68.6	68.6	30.034	0.06	0.000	0.046	74.1	71	64.1	75.8	30
04/30/01	7:00 a	66.8	67.3	66.4	86	62.5	6.0	ENE	3.00	16.0	66.8	68.1	68.1	30.043	0.05	0.000	0.038	73.9	71	63.9	75.5	30
04/30/01	7:30 a	66.8	67.0	66.4	86	62.5	5.0	ENE	2.50	16.0	66.8	68.1	68.1	30.047	0.04	0.000	0.038	73.7	72	64.1	75.3	30
04/30/01	8:00 a	66.9	67.1	66.7	84	61.9	4.0	NE	2.00	12.0	66.9	68.1	68.1	30.041	0.04	0.000	0.040	73.5	71	63.5	74.9	30
04/30/01	8:30 a	67.5	68.0	66.9	87	63.5	2.0	NNE	1.00	10.0	67.5	69.0	69.0	30.045	0.04	0.000	0.052	73.6	72	64.0	75.1	30
04/30/01	9:00 a	67.3	67.9	66.8	85	62.6	4.0	NE	2.00	14.0	67.3	68.7	68.7	30.050	0.06	0.000	0.048	73.5	72	63.9	75.0	30
04/30/01	9:30 a	67.5	68.2	66.8	79	60.8	2.0	ESE	1.00	12.0	67.5	68.6	68.6	30.053	0.04	0.000	0.052	73.6	71	63.6	75.1	30
04/30/01	10:00 a	69.1	69.9	68.0	73	60.1	1.0	E	0.50	5.0	69.1	69.8	69.8	30.048	0.04	0.000	0.085	74.0	69	63.2	75.5	30
04/30/01	10:30 a	70.0	70.7	69.5	78	62.8	1.0	ENE	0.50	10.0	70.0	70.9	70.9	30.040	0.04	0.000	0.104	74.4	69	63.6	76.0	30
04/30/01	11:00 a	71.7	72.3	70.5	76	63.7	4.0	ENE	2.00	14.0	71.7	72.7	72.7	30.039	0.03	0.000	0.140	74.8	69	63.9	76.4	30
04/30/01	11:30 a	71.7	72.2	70.8	78	64.5	5.0	ENE	2.50	14.0	71.7	72.9	72.9	30.032	0.02	0.000	0.140	75.2	71	65.1	77.0	30
04/30/01	12:00 p	71.5	72.0	70.8	74	62.8	5.0	ENE	2.50	14.0	71.5	72.3	72.3	30.020	0.01	0.000	0.135	75.4	70	64.9	77.1	30
04/30/01	12:30 p	71.5	73.4	70.8	72	62.0	5.0	NE	2.50	14.0	71.5	72.2	72.2	30.011	0.02	0.000	0.135	75.8	70	65.3	77.6	30
04/30/01	1:00 p	74.5	75.3	73.2	68	63.2	4.0	ENE	2.00	13.0	74.5	76.0	76.0	29.994	0.02	0.000	0.198	77.3	70	66.7	79.2	30
04/30/01	1:30 p	74.7	75.0	74.3	67	63.0	2.0	NE	1.00	8.0	74.7	76.1	76.1	29.987	0.01	0.000	0.202	78.2	67	66.3	79.9	30
04/30/01	2:00 p	74.7	75.5	74.3	65	62.1	3.0	NE	1.50	13.0	74.7	76.0	76.0	29.977	0.01	0.000	0.202	78.4	67	66.5	80.2	30
04/30/01	2:30 p	73.9	75.0	73.0	77	66.2	3.0	NNE	1.50	13.0	73.9	75.8	75.8	29.968	0.01	0.000	0.185	78.8	68	67.3	80.8	30
04/30/01	3:00 p	72.0	73.2	71.4	85	67.2	2.0	NE	1.00	10.0	72.0	73.8	73.8	29.959	0.02	0.000	0.146	77.9	71	67.7	80.0	30
04/30/01	3:30 p	72.2	73.5	71.5	69	61.5	3.0	ENE	1.50	12.0	72.2	72.9	72.9	29.951	0.01	0.000	0.150	77.4	70	66.8	79.3	30
04/30/01	4:00 p	73.5	74.0	72.8	67	61.9	4.0	E	2.00	13.0	73.5	74.6	74.6	29.948	0.01	0.000	0.177	77.6	66	65.3	79.1	30
04/30/01	4:30 p	72.2	72.8	71.9	69	61.5	3.0	ENE	1.50	13.0	72.2	72.9	72.9	29.942	0.01	0.000	0.150	77.2	66	65.0	78.6	30
04/30/01	5:00 p	73.6	74.9	72.0	69	62.8	5.0	ENE	2.50	16.0	73.6	74.9	74.9	29.942	0.01	0.000	0.179	77.6	65	64.9	79.0	30
04/30/01	5:30 p	73.4	74.3	73.1	68	62.2	4.0	ENE	2.00	13.0	73.4	74.5	74.5	29.933	0.01	0.000	0.175	77.9	65	65.2	79.3	30
04/30/01	6:00 p	73.3	73.5	73.1	71	63.3	3.0	ENE	1.50	13.0	73.3	74.6	74.6	29.926	0.01	0.000	0.173	77.7	66	65.4	79.2	30
04/30/01	6:30 p	72.9	73.3	72.5	72	63.3	5.0	ENE	2.50	16.0	72.9	74.1	74.1	29.930	0.00	0.000	0.165	77.5	66	65.2	79.0	30
04/30/01	7:00 p	72.3	72.8	71.7	71	62.4	5.0	ENE	2.50	14.0	72.3	73.2	73.2	29.931	0.01	0.000	0.152	77.0	67	65.2	78.5	30
04/30/01	7:30 p	71.6	71.8	71.4	69	60.9	3.0	ENE	1.50	12.0	71.6	72.1	72.1	29.928	0.00	0.000	0.137	76.5	65	63.9	77.8	30
04/30/01	8:00 p	71.5	71.7	71.2	70	61.2	4.0	ENE	2.00	12.0	71.5	72.1	72.1	29.930	0.01	0.000	0.135	76.1	65	63.5	77.3	30
04/30/01	8:30 p	71.1	71.6	69.8	81	65.0	4.0	ENE	2.00	15.0	71.1	72.5	72.5	29.930	0.00	0.000	0.127	76.1	69	65.2	77.8	30
04/30/01	9:00 p	69.2	69.9	68.5	84	64.2	2.0	E	1.00	10.0	69.2	70.9	70.9	29.928	0.01	0.000	0.087	75.6	68	64.3	77.2	30
04/30/01	9:30 p	69.2	69.6	68.5	78	62.0	4.0	E	2.00	15.0	69.2	70.4	70.4	29.932	0.00	0.000	0.087	74.9	70	64.5	76.6	30
04/30/01	10:00 p	69.5	69.8	69.2	80	63.1	3.0	ENE	1.50	13.0	69.5	70.8	70.8	29.925	0.00	0.000	0.094	74.4	70	64.0	76.0	30
04/30/01	10:30 p	69.7	70.0	69.3	76	61.8	3.0	E	1.50	16.0	69.7	70.5	70.5	29.923	0.00	0.000	0.098	74.2	71	64.2	75.9	30
04/30/01	11:00 p	69.0	70.2	67.7	86	64.6	5.0	ENE	2.50	18.0	69.0	70.8	70.8	29.923	0.01	0.000	0.083	73.8	73	64.6	75.5	30
04/30/01	11:30 p	67.7	68.1	67.4	88	64.0	1.0	E	0.50	6.0	67.7	69.3	69.3	29.915	0.00	0.000	0.056	73.5	72	63.9	75.0	30
05/01/01	12:00 a	67.7	68.2	67.4	86	63.4	2.0	ESE	1.00	13.0	67.7	69.2	69.2	29.902	0.01	0.000	0.056	73.3	73	64.1	74.8	30
05/01/01	12:30 a	68.4	68.9	68.0	85	63.7	6.0	ESE	3.00	19.0	68.4	70.0	70.0	29.901	0.00	0.000	0.071	73.2	75	64.8	74.8	30
05/01/01	1:00 a	68.2	68.4	67.9	85	63.5	2.0	ENE	1.00	11.0	68.2	69.8	69.8	29.887	0.00	0.000	0.067	73.0	74	64.2	74.4	30
05/01/01	1:30 a	68.2	68.5	67.8	87	64.2	3.0	E	1.50	15.0	68.2	69.8	69.8	29.882	0.00	0.000	0.067	72.9	75	64.5	74.4	30
05/01/01	2:00 a	67.6	68.2	67.1	88	63.9	4.0	ESE	2.00	13.0	67.6	69.1	69.1	29.877	0.01	0.000	0.054	72.8	75	64.4	74.2	30
05/01/01	2:30 a	67.4	67.6	67.1	88	63.7	0.0	E	0.00	4.0	67.4	68.9	68.9	29.871	0.00	0.000	0.050	72.6	74	63.8	73.8	30
05/01/01	3:00 a	67.6	67.9	67.2	88	63.9	1.0	ENE	0.50	13.0	67.6	69.1	69.1	29.874	0.00	0.000	0.054	72.5	74	63.7	73.7	30
05/01/01	3:30 a	67.1	67.6	66.5	88	63.4	3.0	ENE	1.50	12.0	67.1	68.5	68.5	29.881	0.01	0.000	0.044	72.4	76	64.4	73.7	30
05/01/01	4:00 a	66.5	66.8	66.1	89	63.2	4.0	ENE	2.00	12.0	66.5	67.9	67.9	29.882	0.00	0.000	0.031	72.1	76	64.1	73.2	30
05/01/01	4:30 a	66.3	66.7	65.9	92	63.9	2.0	NE	1.00	10.0	66.3	67.7	67.7	29.884	0.00	0.000	0.027	71.9	77	64.3	73.0	30
05/01/01	5:00 a	66.3	66.7	65.9	91	63.6	2.0	ENE	1.00	11.0	66.3	67.7	67.7	29.884	0.01	0.000	0.027	71.8	77	64.2	72.9	30
05/01/01	5:30 a	66.4	67.0	66.1	91	63.7	1.0	NE	0.50	9.0	66.4	67.8	67.8	29.879	0.00	0.000	0.029	71.7	77	64.1	72.8	30
05/01/01	6:00 a	66.8	67.0	66.4	85	62.1	1.0	NE	0.50	9.0	66.8	68.0	68.0	29.885	0.00	0.000	0.038	71.6	76	63.6	72.6	30
05/01/01	6:30 a	67.2	68.0	66.5	87	63.2	3.0	NE	1.50	13.0	67.2	68.6	68.6	29.885	0.01	0.000	0.046	71.4	77	63.8	72.5	30
05/01/01	7:00 a	68.2	69.1	67.6	82	62.5	5.0	NE	2.50	17.0	68.2	69.6	69.6	29.879	0.00	0.000	0.067	71.5	78	64.3	72.7	30
05/01/01	7:30 a	69.5	69.9	68.8	81	63.4	4.0	NE	2.00	12.0	69.5	70.9	70.9	29.890	0.00	0.000	0.094	71.8	77	64.2	72.9	30
05/01/01	8:00 a	70.0	70.7	69.5	81	63.9	4.0	ENE	2.00	14.0	70.0	71.2	71.2	29.891	0.01	0.000	0.104	72.1	78	64.9	73.4	30
05/01/01	8:30 a	69.7	70.6	69.1	85	65.0	4.0	ESE	2.00	17.0	69.7	71.3	71.3	29.902	0.00	0.000	0.098	72.4	78	65.2	73.8	30
05/01/01	9:00 a	70.1	71.2	69.2	81	64.0	5.0	E	2.50	19.0	70.1	71.3	71.3	29.904	0.00	0.000	0.106	72.6	79	65.7	74.2	30
05/01/01	9:30 a	72.2	73.7	70.7	78	65.0	5.0	ENE	2.50	20.0	72.2	73.5	73.5	29.897	0.00	0.000	0.150	73.6	81	67.4	75.6	30
05/01/01	10:00 a	74.4	75.5	73.3	73	65.2	6.0	NE	3.00	18.0	74.4	76.2	76.2	29.892	0.01	0.000	0.196	75.4	80	68.8	78.1	30
05/01/01	10:30 a	75.2	76.5	73.6	70	64.7	5.0	NE	2.50	18.0	75.2	76.9	76.9	29.884	0.00	0.000	0.212	76.7	77	68.9	79.4	30
05/01/01	11:00 a	77.3	78.0	76.2	66	65.1	6.0	ENE	3.00	20.0	77.3	78.8	78.8	29.876	0.01	0.000	0.256	78.0	75	69.4	80.6	30
05/01/01	11:30 a	76.5	78.1	75.4	72	66.8	6.0	ENE	3.00	21.0	76.5	78.6	78.6	29.868	0.00	0.000	0.240	78.9	74	69.9	81.7	30
05/01/01	12:00 p	76.0	76.4	75.4	72	66.3	6.0	E	3.00	20.0	76.0	78.0	78.0	29.859	0.00	0.000	0.229	78.9	73	69.5	81.6	30
05/01/01	12:30 p	74.8	76.4	73.6	76	66.7	5.0	E	2.50	19.0	74.8	76.9	76.9	29.849	0.01	0.000	0.204	78.5	73	69.1	81.0	30
05/01/01	1:00 p	76.9	78.5	75.4	66	64.7	6.0	ENE	3.00	17.0	76.9	78.3	78.3	29.844	0.00	0.000	0.248	78.6	72	68.8	81.0	30
05/01/01	1:30 p	76.6	78.4	75.1	67	64.8	5.0	NE	2.50	23.0	76.6	78.1	78.1	29.828	0.00	0.000	0.242	79.6	71	69.4	82.3	30
05/01/01	2:00 p	74.3	78.0	71.4	82	68.4	6.0	ENE	3.00	20.0	74.3	76.6	76.6	29.824	0.00	0.000	0.194	79.3	71	69.1	81.9	30
05/01/01	2:30 p	72.5	73.9	71.5	75	64.1	5.0	ENE	2.50	15.0	72.5	73.8	73.8	29.816	0.00	0.000	0.156	77.9	71	67.7	80.0	30
05/01/01	3:00 p	75.6	77.1	73.9	70	65.1	6.0	ENE	3.00	16.0	75.6	77.4	77.4	29.803	0.01	0.000	0.221	78.0	71	67.8	80.1	30
05/01/01	3:30 p	75.5	77.0	74.0	74	66.6	5.0	ENE	2.50	16.0	75.5	77.6	77.6	29.797	0.00	0.000	0.219	78.8	71	68.6	81.2	30
05/01/01	4:00 p	73.9	75.0	73.1	74	65.1	4.0	ENE	2.00	14.0	73.9	75.7	75.7	29.799	0.00	0.000	0.185	78.2	70	67.6	80.3	30
05/01/01	4:30 p	74.1	75.0	73.3	72	64.5	5.0	NE	2.50	14.0	74.1	75.8	75.8	29.800	0.00	0.000	0.190	77.6	70	67.0	79.6	30
05/01/01	5:00 p	75.1	76.0	74.4	72	65.5	4.0	ENE	2.00	12.0	75.1	77.0	77.0	29.797	0.00	0.000	0.210	78.1	71	67.9	80.3	30
05/01/01	5:30 p	75.1	75.5	74.7	69	64.2	4.0	NE	2.00	14.0	75.1	76.7	76.7	29.799	0.01	0.000	0.210	78.2	70	67.6	80.3	30
05/01/01	6:00 p	74.5	75.1	74.0	70	64.1	5.0	ENE	2.50	17.0	74.5	76.1	76.1	29.799	0.00	0.000	0.198	77.9	69	66.9	79.8	30
05/01/01	6:30 p	73.4	74.3	72.7	73	64.2	5.0	ENE	2.50	18.0	73.4	74.9	74.9	29.806	0.00	0.000	0.175	77.3	68	65.9	79.0	30
05/01/01	7:00 p	72.7	73.2	72.3	74	63.9	4.0	E	2.00	12.0	72.7	74.0	74.0	29.814	0.00	0.000	0.160	76.7	69	65.8	78.4	30
05/01/01	7:30 p	72.6	72.9	72.3	72	63.1	3.0	ENE	1.50	12.0	72.6	73.7	73.7	29.823	0.00	0.000	0.158	76.3	69	65.4	78.0	30
05/01/01	8:00 p	72.8	73.0	72.5	71	62.8	5.0	ENE	2.50	18.0	72.8	73.9	73.9	29.827	0.00	0.000	0.163	76.0	69	65.1	77.7	30
05/01/01	8:30 p	72.5	72.9	72.1	72	63.0	3.0	ENE	1.50	12.0	72.5	73.5	73.5	29.839	0.00	0.000	0.156	75.8	70	65.3	77.6	30
05/01/01	9:00 p	72.2	72.5	71.8	73	63.1	4.0	ENE	2.00	10.0	72.2	73.2	73.2	29.836	0.00	0.000	0.150	75.4	70	64.9	77.1	30
05/01/01	9:30 p	71.8	72.1	71.6	72	62.3	4.0	E	2.00	12.0	71.8	72.6	72.6	29.840	0.00	0.000	0.142	75.1	70	64.6	76.8	30
05/01/01	10:00 p	71.7	72.0	71.5	72	62.2	4.0	E	2.00	13.0	71.7	72.4	72.4	29.847	0.00	0.000	0.140	74.9	70	64.5	76.6	30
05/01/01	10:30 p	71.6	71.9	71.3	73	62.5	4.0	E	2.00	20.0	71.6	72.4	72.4	29.847	0.00	0.000	0.137	74.7	70	64.3	76.4	30
05/01/01	11:00 p	71.5	71.8	71.2	70	61.2	5.0	E	2.50	20.0	71.5	72.1	72.1	29.848	0.00	0.000	0.135	74.6	70	64.2	76.3	30
05/01/01	11:30 p	71.6	71.8	71.3	70	61.3	5.0	E	2.50	18.0	71.6	72.2	72.2	29.838	0.00	0.000	0.137	74.5	69	63.7	76.1	30
05/02/01	12:00 a	71.4	71.7	71.1	71	61.5	5.0	E	2.50	14.0	71.4	72.0	72.0	29.835	0.01	0.000	0.133	74.4	69	63.6	76.0	30
05/02/01	12:30 a	71.2	71.5	70.9	73	62.1	5.0	E	2.50	17.0	71.2	71.9	71.9	29.829	0.00	0.000	0.129	74.2	70	63.8	75.8	30
05/02/01	1:00 a	71.0	71.3	70.5	73	61.9	5.0	E	2.50	16.0	71.0	71.6	71.6	29.819	0.00	0.000	0.125	74.0	70	63.6	75.6	30
05/02/01	1:30 a	70.7	71.0	70.4	74	62.0	4.0	E	2.00	11.0	70.7	71.4	71.4	29.808	0.00	0.000	0.119	73.8	71	63.8	75.4	30
05/02/01	2:00 a	70.6	70.8	70.2	73	61.5	5.0	ESE	2.50	15.0	70.6	71.1	71.1	29.798	0.00	0.000	0.117	73.6	71	63.6	75.1	30
05/02/01	2:30 a	70.3	70.6	70.0	74	61.6	5.0	ESE	2.50	15.0	70.3	70.9	70.9	29.798	0.00	0.000	0.110	73.4	71	63.4	74.8	30
05/02/01	3:00 a	70.2	70.5	69.9	74	61.5	4.0	E	2.00	14.0	70.2	70.7	70.7	29.796	0.00	0.000	0.108	73.2	71	63.2	74.5	30
05/02/01	3:30 a	70.1	70.4	69.8	73	61.0	3.0	E	1.50	11.0	70.1	70.5	70.5	29.799	0.00	0.000	0.106	73.1	71	63.1	74.3	30
05/02/01	4:00 a	70.1	70.3	69.8	74	61.4	3.0	E	1.50	9.0	70.1	70.6	70.6	29.801	0.00	0.000	0.106	72.9	72	63.3	74.1	30
05/02/01	4:30 a	70.1	70.4	69.8	74	61.4	4.0	ENE	2.00	11.0	70.1	70.6	70.6	29.798	0.00	0.000	0.106	72.7	72	63.1	73.8	30
05/02/01	5:00 a	70.1	70.4	69.8	75	61.8	3.0	ENE	1.50	10.0	70.1	70.7	70.7	29.799	0.00	0.000	0.106	72.6	72	63.1	73.7	30
05/02/01	5:30 a	70.0	70.3	69.7	74	61.3	3.0	ENE	1.50	10.0	70.0	70.5	70.5	29.807	0.00	0.000	0.104	72.5	72	63.0	73.5	30
05/02/01	6:00 a	70.1	70.4	69.8	74	61.4	3.0	ENE	1.50	11.0	70.1	70.6	70.6	29.821	0.00	0.000	0.106	72.4	73	63.3	73.5	30
05/02/01	6:30 a	70.3	70.7	69.9	74	61.6	3.0	E	1.50	13.0	70.3	70.9	70.9	29.833	0.00	0.000	0.110	72.4	73	63.3	73.5	30
05/02/01	7:00 a	71.0	71.5	70.5	72	61.5	3.0	E	1.50	12.0	71.0	71.6	71.6	29.841	0.00	0.000	0.125	72.6	73	63.4	73.8	30
05/02/01	7:30 a	71.7	72.4	71.1	70	61.4	4.0	ENE	2.00	12.0	71.7	72.3	72.3	29.850	0.00	0.000	0.140	73.0	73	63.8	74.3	30
05/02/01	8:00 a	73.0	73.9	72.0	67	61.4	4.0	ENE	2.00	19.0	73.0	73.9	73.9	29.847	0.00	0.000	0.167	73.9	73	64.7	75.6	30
05/02/01	8:30 a	74.3	75.6	73.5	65	61.8	5.0	ENE	2.50	14.0	74.3	75.5	75.5	29.854	0.00	0.000	0.194	74.9	73	65.7	76.8	30
05/02/01	9:00 a	75.9	76.6	75.2	62	61.9	5.0	ENE	2.50	15.0	75.9	76.8	76.8	29.857	0.00	0.000	0.227	76.2	71	66.1	78.1	30
05/02/01	9:30 a	77.1	78.1	76.1	58	61.2	5.0	ENE	2.50	16.0	77.1	77.7	77.7	29.862	0.00	0.000	0.252	77.3	69	66.3	79.1	30
05/02/01	10:00 a	78.7	79.4	77.6	58	62.7	5.0	ENE	2.50	20.0	78.7	79.6	79.6	29.861	0.00	0.000	0.285	78.5	67	66.6	80.3	30
05/02/01	10:30 a	79.2	79.9	78.6	56	62.1	5.0	ENE	2.50	16.0	79.2	79.9	79.9	29.864	0.00	0.000	0.296	79.6	66	67.2	81.6	30
05/02/01	11:00 a	79.9	80.7	79.2	56	62.8	5.0	ENE	2.50	17.0	79.9	80.7	80.7	29.856	0.00	0.000	0.310	80.8	65	67.9	83.2	30
05/02/01	11:30 a	80.7	81.3	80.2	56	63.5	5.0	ENE	2.50	15.0	80.7	81.7	81.7	29.854	0.00	0.000	0.327	81.8	63	68.0	84.5	30
05/02/01	12:00 p	81.7	82.5	80.7	51	61.8	5.0	ENE	2.50	17.0	81.7	82.3	82.3	29.848	0.00	0.000	0.348	82.7	62	68.4	85.7	30
05/02/01	12:30 p	82.4	83.1	81.9	54	64.1	5.0	NE	2.50	15.0	82.4	83.8	83.8	29.835	0.00	0.000	0.363	83.6	61	68.7	87.2	30
05/02/01	1:00 p	82.5	83.1	81.8	55	64.7	5.0	ENE	2.50	17.0	82.5	84.2	84.2	29.825	0.00	0.000	0.365	84.4	60	69.0	88.4	30
05/02/01	1:30 p	83.2	84.2	82.0	55	65.4	5.0	ENE	2.50	13.0	83.2	85.2	85.2	29.819	0.00	0.000	0.379	85.0	60	69.6	89.4	30
05/02/01	2:00 p	83.5	84.0	83.0	55	65.6	6.0	NE	3.00	15.0	83.5	85.8	85.8	29.815	0.00	0.000	0.385	85.6	60	70.1	90.7	30
05/02/01	2:30 p	83.9	84.5	83.4	56	66.5	5.0	ENE	2.50	15.0	83.9	86.6	86.6	29.807	0.00	0.000	0.394	85.8	58	69.3	90.4	30
05/02/01	3:00 p	83.6	84.4	82.5	56	66.2	5.0	ENE	2.50	17.0	83.6	86.1	86.1	29.796	0.00	0.000	0.387	86.3	59	70.3	91.8	30
05/02/01	3:30 p	82.8	83.3	81.5	60	67.5	6.0	ENE	3.00	16.0	82.8	85.4	85.4	29.801	0.00	0.000	0.371	86.4	58	69.9	91.6	30
05/02/01	4:00 p	81.8	82.3	81.4	57	65.1	6.0	ENE	3.00	21.0	81.8	83.4	83.4	29.802	0.00	0.000	0.350	86.0	58	69.5	90.8	30
05/02/01	4:30 p	80.5	82.2	79.7	70	69.8	6.0	ESE	3.00	17.0	80.5	83.6	83.6	29.801	0.00	0.000	0.323	85.4	61	70.4	90.6	30
05/02/01	5:00 p	79.0	79.7	77.8	70	68.4	2.0	SE	1.00	10.0	79.0	81.3	81.3	29.802	0.00	0.000	0.292	83.9	62	69.5	88.1	30
05/02/01	5:30 p	77.0	77.7	76.2	68	65.6	5.0	ENE	2.50	14.0	77.0	78.7	78.7	29.809	0.00	0.000	0.250	82.7	62	68.4	85.7	30
05/02/01	6:00 p	76.0	76.6	75.3	69	65.1	4.0	ENE	2.00	12.0	76.0	77.7	77.7	29.811	0.00	0.000	0.229	81.8	61	67.0	84.1	30
05/02/01	6:30 p	75.2	75.6	74.7	69	64.3	4.0	ENE	2.00	15.0	75.2	76.8	76.8	29.820	0.00	0.000	0.212	81.0	62	66.8	83.0	30
05/02/01	7:00 p	74.1	74.8	73.7	69	63.3	5.0	ENE	2.50	14.0	74.1	75.6	75.6	29.829	0.00	0.000	0.190	80.3	62	66.1	82.0	30
05/02/01	7:30 p	73.5	73.8	73.3	69	62.7	4.0	ENE	2.00	13.0	73.5	74.8	74.8	29.839	0.00	0.000	0.177	79.7	62	65.5	81.2	30
05/02/01	8:00 p	73.2	73.4	73.1	69	62.4	5.0	ENE	2.50	15.0	73.2	74.3	74.3	29.847	0.00	0.000	0.171	79.0	63	65.3	80.5	30
05/02/01	8:30 p	73.0	73.2	72.7	69	62.2	4.0	ENE	2.00	13.0	73.0	74.0	74.0	29.858	0.00	0.000	0.167	78.5	63	64.9	79.8	30
05/02/01	9:00 p	72.9	73.1	72.7	69	62.1	4.0	ENE	2.00	14.0	72.9	73.9	73.9	29.866	0.00	0.000	0.165	78.1	63	64.5	79.3	30
05/02/01	9:30 p	72.7	72.9	72.5	69	61.9	4.0	ENE	2.00	11.0	72.7	73.6	73.6	29.879	0.00	0.000	0.160	77.7	63	64.1	78.9	30
05/02/01	10:00 p	72.5	72.7	72.2	69	61.7	4.0	ENE	2.00	16.0	72.5	73.3	73.3	29.882	0.00	0.000	0.156	77.4	64	64.3	78.6	30
05/02/01	10:30 p	72.3	72.5	72.0	68	61.1	5.0	E	2.50	15.0	72.3	73.0	73.0	29.879	0.00	0.000	0.152	77.1	63	63.5	78.2	30
05/02/01	11:00 p	72.0	72.3	71.8	67	60.4	4.0	E	2.00	18.0	72.0	72.5	72.5	29.882	0.00	0.000	0.146	76.8	63	63.2	77.9	30
05/02/01	11:30 p	71.9	72.1	71.6	67	60.3	4.0	ENE	2.00	14.0	71.9	72.3	72.3	29.878	0.00	0.000	0.144	76.4	63	62.9	77.4	30
05/03/01	12:00 a	71.7	72.0	71.4	67	60.2	4.0	ENE	2.00	13.0	71.7	72.1	72.1	29.884	0.00	0.000	0.140	76.0	62	62.0	76.9	30
05/03/01	12:30 a	71.4	71.7	71.0	69	60.7	3.0	ENE	1.50	9.0	71.4	71.8	71.8	29.870	0.00	0.000	0.133	75.7	63	62.2	76.7	30
05/03/01	1:00 a	71.1	71.4	70.9	71	61.2	3.0	ENE	1.50	8.0	71.1	71.6	71.6	29.864	0.00	0.000	0.127	75.4	64	62.4	76.6	30
05/03/01	1:30 a	71.1	71.4	70.8	73	62.0	2.0	ENE	1.00	10.0	71.1	71.8	71.8	29.856	0.00	0.000	0.127	75.2	65	62.6	76.5	30
05/03/01	2:00 a	71.2	71.6	70.9	76	63.2	3.0	ENE	1.50	12.0	71.2	72.1	72.1	29.852	0.00	0.000	0.129	75.0	68	63.7	76.5	30
05/03/01	2:30 a	71.4	71.7	71.1	76	63.4	3.0	ENE	1.50	10.0	71.4	72.4	72.4	29.848	0.00	0.000	0.133	75.0	69	64.1	76.6	30
05/03/01	3:00 a	71.5	71.8	71.2	76	63.5	3.0	ENE	1.50	12.0	71.5	72.5	72.5	29.841	0.00	0.000	0.135	74.9	70	64.5	76.6	30
05/03/01	3:30 a	71.4	71.7	71.1	76	63.4	3.0	ENE	1.50	11.0	71.4	72.4	72.4	29.852	0.00	0.000	0.133	74.8	70	64.4	76.5	30
05/03/01	4:00 a	71.3	71.5	71.0	76	63.3	3.0	ENE	1.50	10.0	71.3	72.3	72.3	29.860	0.00	0.000	0.131	74.7	70	64.3	76.4	30
05/03/01	4:30 a	71.2	71.5	71.0	76	63.2	2.0	ENE	1.00	8.0	71.2	72.1	72.1	29.870	0.00	0.000	0.129	74.6	70	64.2	76.3	30
05/03/01	5:00 a	70.7	71.4	70.1	83	65.3	2.0	ENE	1.00	8.0	70.7	72.2	72.2	29.875	0.01	0.000	0.119	74.6	72	65.0	76.4	30
05/03/01	5:30 a	70.3	70.6	70.0	84	65.2	2.0	ENE	1.00	9.0	70.3	71.8	71.8	29.877	0.00	0.000	0.110	74.4	73	65.2	76.2	30
05/03/01	6:00 a	70.3	70.5	70.0	83	64.9	2.0	ENE	1.00	7.0	70.3	71.7	71.7	29.884	0.00	0.000	0.110	74.4	73	65.2	76.2	30
05/03/01	6:30 a	70.5	70.9	70.1	82	64.7	2.0	ENE	1.00	11.0	70.5	71.9	71.9	29.897	0.00	0.000	0.115	74.2	73	65.0	76.0	30
05/03/01	7:00 a	71.1	71.7	70.6	83	65.7	3.0	ENE	1.50	12.0	71.1	72.7	72.7	29.902	0.00	0.000	0.127	74.2	76	66.1	76.2	30
05/03/01	7:30 a	71.9	72.3	71.4	78	64.7	4.0	ENE	2.00	13.0	71.9	73.1	73.1	29.902	0.00	0.000	0.144	74.3	76	66.2	76.3	30
05/03/01	8:00 a	72.4	72.9	72.0	77	64.8	5.0	ENE	2.50	14.0	72.4	73.7	73.7	29.909	0.00	0.000	0.154	74.8	76	66.7	76.9	30
05/03/01	8:30 a	73.2	73.6	72.6	75	64.8	4.0	ENE	2.00	16.0	73.2	74.8	74.8	29.919	0.00	0.000	0.171	75.5	75	67.0	77.8	30
05/03/01	9:00 a	74.2	75.5	73.2	76	66.1	4.0	ENE	2.00	14.0	74.2	76.2	76.2	29.918	0.00	0.000	0.192	76.2	77	68.5	78.8	30
05/03/01	9:30 a	75.8	76.6	75.1	79	68.8	3.0	NE	1.50	12.0	75.8	78.5	78.5	29.919	0.00	0.000	0.225	77.6	77	69.8	80.4	30
05/03/01	10:00 a	76.0	76.6	75.3	74	67.1	4.0	ENE	2.00	15.0	76.0	78.3	78.3	29.922	0.00	0.000	0.229	78.2	77	70.4	81.2	30
05/03/01	10:30 a	77.3	78.8	76.5	70	66.7	6.0	ENE	3.00	19.0	77.3	79.2	79.2	29.916	0.00	0.000	0.256	79.0	75	70.4	82.0	30
05/03/01	11:00 a	78.8	79.7	76.7	74	69.8	6.0	ENE	3.00	21.0	78.8	81.6	81.6	29.916	0.00	0.000	0.288	80.3	74	71.3	84.0	30
05/03/01	11:30 a	77.6	78.4	76.2	70	67.0	9.0	E	4.50	29.0	76.4	79.6	78.4	29.909	0.00	0.000	0.262	80.6	71	70.3	83.9	30
05/03/01	12:00 p	75.7	77.6	74.5	79	68.7	4.0	ENE	2.00	17.0	75.7	78.4	78.4	29.902	0.00	0.000	0.223	80.3	72	70.4	83.6	30
05/03/01	12:30 p	74.7	75.3	73.2	82	68.8	4.0	ENE	2.00	16.0	74.7	77.2	77.2	29.919	0.00	0.000	0.202	79.2	73	69.8	82.0	30
05/03/01	1:00 p	72.1	73.1	71.8	86	67.7	3.0	NE	1.50	10.0	72.1	74.0	74.0	29.907	0.00	0.000	0.148	77.8	75	69.2	80.4	30
05/03/01	1:30 p	72.4	72.8	71.7	84	67.3	5.0	ESE	2.50	19.0	72.4	74.2	74.2	29.900	0.00	0.000	0.154	77.4	76	69.2	80.1	30
05/03/01	2:00 p	71.2	72.0	70.8	83	65.8	5.0	ENE	2.50	26.0	71.2	72.8	72.8	29.894	0.00	0.000	0.129	76.7	75	68.2	79.2	30
05/03/01	2:30 p	71.5	72.1	71.1	82	65.7	5.0	ENE	2.50	18.0	71.5	73.0	73.0	29.889	0.00	0.000	0.135	76.1	76	68.0	78.6	30
05/03/01	3:00 p	72.1	72.4	71.8	79	65.2	4.0	E	2.00	18.0	72.1	73.5	73.5	29.893	0.00	0.000	0.148	75.8	77	68.1	78.3	30
05/03/01	3:30 p	72.3	72.5	72.1	78	65.1	4.0	ENE	2.00	15.0	72.3	73.7	73.7	29.898	0.00	0.000	0.152	75.7	76	67.6	78.1	30
05/03/01	4:00 p	71.9	72.4	71.1	82	66.1	4.0	ENE	2.00	15.0	71.9	73.5	73.5	29.904	0.00	0.000	0.144	75.5	77	67.8	77.9	30
05/03/01	4:30 p	70.7	71.5	70.1	84	65.6	4.0	ENE	2.00	14.0	70.7	72.3	72.3	29.909	0.01	0.000	0.119	75.2	77	67.5	77.5	30
05/03/01	5:00 p	69.9	70.5	69.0	85	65.2	4.0	NE	2.00	15.0	69.9	71.4	71.4	29.920	0.00	0.000	0.102	74.8	77	67.1	77.0	30
05/03/01	5:30 p	69.3	69.8	69.0	85	64.6	1.0	NE	0.50	7.0	69.3	71.0	71.0	29.918	0.00	0.000	0.090	74.5	78	67.2	76.6	30
05/03/01	6:00 p	70.0	70.4	69.5	83	64.6	3.0	NE	1.50	11.0	70.0	71.3	71.3	29.906	0.00	0.000	0.104	74.4	77	66.7	76.5	30
05/03/01	6:30 p	70.4	70.7	70.0	80	63.9	2.0	ENE	1.00	11.0	70.4	71.6	71.6	29.908	0.00	0.000	0.113	74.3	77	66.6	76.3	30
05/03/01	7:00 p	70.8	71.2	70.4	79	64.0	4.0	ENE	2.00	13.0	70.8	72.0	72.0	29.914	0.00	0.000	0.121	74.2	77	66.5	76.2	30
05/03/01	7:30 p	71.0	71.3	70.8	78	63.8	3.0	NE	1.50	12.0	71.0	72.1	72.1	29.933	0.00	0.000	0.125	74.1	77	66.4	76.1	30
05/03/01	8:00 p	71.2	71.5	70.9	79	64.4	4.0	NE	2.00	12.0	71.2	72.4	72.4	29.932	0.00	0.000	0.129	73.9	77	66.2	75.8	30
05/03/01	8:30 p	71.2	71.5	71.0	81	65.1	3.0	ENE	1.50	10.0	71.2	72.6	72.6	29.934	0.00	0.000	0.129	73.9	77	66.2	75.8	30
05/03/01	9:00 p	71.2	71.5	71.0	79	64.4	3.0	ENE	1.50	10.0	71.2	72.4	72.4	29.941	0.00	0.000	0.129	73.9	78	66.6	75.8	30
05/03/01	9:30 p	71.3	71.6	71.0	78	64.1	5.0	ENE	2.50	17.0	71.3	72.4	72.4	29.946	0.00	0.000	0.131	73.8	78	66.5	75.7	30
05/03/01	10:00 p	70.8	71.6	69.9	81	64.7	5.0	ESE	2.50	17.0	70.8	72.2	72.2	29.945	0.00	0.000	0.121	74.0	77	66.3	75.9	30
05/03/01	10:30 p	69.9	70.2	69.6	85	65.2	3.0	ESE	1.50	13.0	69.9	71.4	71.4	29.946	0.00	0.000	0.102	73.6	79	66.7	75.5	30
05/03/01	11:00 p	69.8	70.4	69.4	87	65.8	4.0	ENE	2.00	23.0	69.8	71.5	71.5	29.939	0.00	0.000	0.100	73.6	79	66.7	75.5	30
05/03/01	11:30 p	69.1	69.6	68.8	88	65.4	4.0	E	2.00	16.0	69.1	71.0	71.0	29.932	0.01	0.000	0.085	73.4	81	67.2	75.3	30
05/04/01	12:00 a	69.1	69.3	68.8	84	64.1	5.0	ENE	2.50	15.0	69.1	70.8	70.8	29.927	0.00	0.000	0.085	73.3	80	66.8	75.2	30
05/04/01	12:30 a	68.9	69.2	68.6	82	63.2	4.0	ENE	2.00	13.0	68.9	70.5	70.5	29.918	0.00	0.000	0.081	73.1	79	66.2	74.9	30
05/04/01	1:00 a	69.0	69.3	68.7	80	62.6	4.0	ENE	2.00	12.0	69.0	70.5	70.5	29.905	0.00	0.000	0.083	72.8	78	65.5	74.4	30
05/04/01	1:30 a	69.4	69.8	68.9	77	61.9	4.0	ENE	2.00	15.0	69.4	70.4	70.4	29.902	0.00	0.000	0.092	72.6	78	65.3	74.1	30
05/04/01	2:00 a	69.6	69.8	69.2	76	61.7	4.0	ENE	2.00	13.0	69.6	70.5	70.5	29.900	0.00	0.000	0.096	72.4	77	64.8	73.7	30
05/04/01	2:30 a	69.7	70.0	69.4	76	61.8	5.0	ENE	2.50	12.0	69.7	70.5	70.5	29.900	0.00	0.000	0.098	72.2	76	64.2	73.4	30
05/04/01	3:00 a	69.8	70.1	69.5	74	61.1	4.0	ENE	2.00	13.0	69.8	70.4	70.4	29.900	0.00	0.000	0.100	72.1	76	64.1	73.2	30
05/04/01	3:30 a	69.9	70.1	69.6	76	62.0	4.0	ENE	2.00	12.0	69.9	70.6	70.6	29.889	0.00	0.000	0.102	72.0	76	64.0	73.1	30
05/04/01	4:00 a	69.8	70.1	69.6	75	61.5	3.0	ENE	1.50	14.0	69.8	70.5	70.5	29.892	0.00	0.000	0.100	71.9	76	63.9	73.0	30
05/04/01	4:30 a	69.7	70.1	69.4	76	61.8	3.0	NE	1.50	13.0	69.7	70.5	70.5	29.890	0.00	0.000	0.098	71.9	76	63.9	73.0	30
05/04/01	5:00 a	69.9	70.2	69.6	76	62.0	3.0	NE	1.50	11.0	69.9	70.6	70.6	29.891	0.00	0.000	0.102	71.8	76	63.8	72.8	30
05/04/01	5:30 a	70.1	70.3	69.7	74	61.4	3.0	NE	1.50	10.0	70.1	70.6	70.6	29.897	0.00	0.000	0.106	71.8	77	64.2	72.9	30
05/04/01	6:00 a	70.2	70.5	69.9	75	61.9	3.0	NE	1.50	11.0	70.2	70.8	70.8	29.906	0.00	0.000	0.108	71.8	77	64.2	72.9	30
05/04/01	6:30 a	70.5	70.8	70.0	74	61.8	3.0	NE	1.50	13.0	70.5	71.1	71.1	29.907	0.00	0.000	0.115	71.9	77	64.3	73.0	30
05/04/01	7:00 a	70.9	71.4	70.5	73	61.8	4.0	NE	2.00	13.0	70.9	71.5	71.5	29.918	0.00	0.000	0.123	72.1	77	64.5	73.3	30
05/04/01	7:30 a	72.0	72.6	71.1	72	62.5	5.0	NE	2.50	12.0	72.0	72.8	72.8	29.923	0.01	0.000	0.146	72.6	78	65.3	74.1	30
05/04/01	8:00 a	72.7	73.4	72.2	70	62.3	5.0	NE	2.50	15.0	72.7	73.7	73.7	29.916	0.00	0.000	0.160	73.5	77	65.8	75.3	30
05/04/01	8:30 a	73.8	74.3	73.1	68	62.6	5.0	NE	2.50	17.0	73.8	75.1	75.1	29.918	0.00	0.000	0.183	74.5	76	66.4	76.6	30
05/04/01	9:00 a	75.3	76.1	74.2	67	63.6	5.0	NE	2.50	15.0	75.3	76.8	76.8	29.909	0.00	0.000	0.215	75.6	75	67.1	77.9	30
05/04/01	9:30 a	76.7	77.5	75.7	65	64.0	4.0	NE	2.00	14.0	76.7	78.0	78.0	29.900	0.00	0.000	0.244	76.8	74	67.9	79.2	30
05/04/01	10:00 a	77.9	78.7	77.2	62	63.8	6.0	ENE	3.00	19.0	77.9	79.0	79.0	29.904	0.00	0.000	0.269	78.1	72	68.3	80.4	30
05/04/01	10:30 a	79.1	80.0	78.5	60	64.0	6.0	ENE	3.00	19.0	79.1	80.2	80.2	29.900	0.00	0.000	0.294	79.2	71	69.0	81.7	30
05/04/01	11:00 a	80.0	80.3	79.5	60	64.9	6.0	ENE	3.00	17.0	80.0	81.3	81.3	29.895	0.01	0.000	0.313	80.4	69	69.3	83.2	30
05/04/01	11:30 a	80.8	81.7	79.9	62	66.6	5.0	ENE	2.50	18.0	80.8	82.7	82.7	29.895	0.00	0.000	0.329	81.4	69	70.2	85.0	30
05/04/01	12:00 p	81.7	82.1	81.0	60	66.5	6.0	ENE	3.00	16.0	81.7	83.7	83.7	29.887	0.00	0.000	0.348	82.4	68	70.8	86.6	30
05/04/01	12:30 p	82.7	83.5	81.6	58	66.4	6.0	ENE	3.00	16.0	82.7	84.9	84.9	29.872	0.00	0.000	0.369	83.3	65	70.3	87.6	30
05/04/01	1:00 p	82.7	83.2	82.3	60	67.4	6.0	ENE	3.00	16.0	82.7	85.2	85.2	29.864	0.00	0.000	0.369	84.1	64	70.6	89.1	30
05/04/01	1:30 p	80.6	82.5	79.0	68	69.1	4.0	NE	2.00	14.0	80.6	83.4	83.4	29.858	0.00	0.000	0.325	84.1	65	71.1	89.4	30
05/04/01	2:00 p	76.4	79.1	74.1	80	69.8	5.0	NE	2.50	12.0	76.4	79.3	79.3	29.861	0.01	0.000	0.238	82.9	66	70.4	87.0	30
05/04/01	2:30 p	73.5	74.2	73.2	83	68.0	2.0	N	1.00	7.0	73.5	75.6	75.6	29.857	0.00	0.000	0.177	80.9	69	69.8	84.1	30
05/04/01	3:00 p	74.7	76.3	73.6	79	67.8	2.0	N	1.00	9.0	74.7	77.0	77.0	29.841	0.00	0.000	0.202	80.2	73	70.8	83.6	30
05/04/01	3:30 p	75.4	75.9	74.6	76	67.3	5.0	NE	2.50	14.0	75.4	77.7	77.7	29.842	0.00	0.000	0.217	80.2	70	69.5	83.0	30
05/04/01	4:00 p	73.4	74.7	72.8	79	66.5	4.0	NE	2.00	16.0	73.4	75.2	75.2	29.837	0.00	0.000	0.175	79.4	71	69.2	82.0	30
05/04/01	4:30 p	73.7	74.3	73.1	75	65.3	4.0	NE	2.00	13.0	73.7	75.5	75.5	29.833	0.01	0.000	0.181	78.6	71	68.4	80.9	30
05/04/01	5:00 p	75.5	76.8	74.1	69	64.6	5.0	NE	2.50	14.0	75.5	77.1	77.1	29.833	0.00	0.000	0.219	78.9	69	67.9	81.1	30
05/04/01	5:30 p	76.4	77.0	75.5	70	65.9	5.0	ENE	2.50	15.0	76.4	78.2	78.2	29.831	0.00	0.000	0.238	79.6	69	68.5	82.0	30
05/04/01	6:00 p	75.0	76.0	74.3	71	65.0	5.0	ENE	2.50	19.0	75.0	76.8	76.8	29.830	1.03	0.000	0.208	79.5	68	68.0	81.7	30
05/04/01	6:30 p	74.5	74.7	74.1	72	64.9	4.0	NE	2.00	16.0	74.5	76.3	76.3	29.830	0.00	0.000	0.198	79.3	68	67.8	81.5	30
05/04/01	7:00 p	73.9	74.3	73.5	71	63.9	5.0	NE	2.50	16.0	73.9	75.5	75.5	29.838	0.00	0.000	0.185	78.8	67	66.9	80.7	30
05/04/01	7:30 p	73.4	73.7	73.0	70	63.0	6.0	ENE	3.00	16.0	73.4	74.7	74.7	29.839	0.00	0.000	0.175	78.1	67	66.2	79.8	30
05/04/01	8:00 p	72.9	73.2	72.6	69	62.1	5.0	ENE	2.50	14.0	72.9	73.9	73.9	29.844	0.00	0.000	0.165	77.5	67	65.7	79.1	30
05/04/01	8:30 p	72.6	72.8	72.3	72	63.1	5.0	NE	2.50	13.0	72.6	73.7	73.7	29.850	0.00	0.000	0.158	77.1	67	65.3	78.7	30
05/04/01	9:00 p	72.3	72.5	72.1	71	62.4	5.0	ENE	2.50	15.0	72.3	73.2	73.2	29.848	0.00	0.000	0.152	76.8	68	65.4	78.4	30
05/04/01	9:30 p	72.2	72.3	71.9	74	63.4	5.0	NE	2.50	15.0	72.2	73.2	73.2	29.850	0.00	0.000	0.150	76.8	68	65.4	78.4	30
05/04/01	10:00 p	72.0	72.1	71.8	73	62.9	5.0	ENE	2.50	12.0	72.0	72.9	72.9	29.856	0.00	0.000	0.146	76.5	69	65.6	78.2	30
05/04/01	10:30 p	71.9	72.1	71.7	72	62.4	4.0	ENE	2.00	16.0	71.9	72.7	72.7	29.850	0.00	0.000	0.144	76.5	69	65.6	78.2	30
05/04/01	11:00 p	71.7	71.9	71.5	75	63.4	4.0	ENE	2.00	13.0	71.7	72.6	72.6	29.847	0.00	0.000	0.140	76.2	69	65.3	77.9	30
05/04/01	11:30 p	71.6	71.8	71.4	72	62.1	4.0	ENE	2.00	11.0	71.6	72.3	72.3	29.841	0.00	0.000	0.137	75.6	70	65.1	77.4	30
05/05/01	12:00 a	71.5	71.7	71.3	71	61.6	4.0	NE	2.00	9.0	71.5	72.1	72.1	29.846	0.00	0.000	0.135	75.1	70	64.6	76.8	30
05/05/01	12:30 a	71.3	71.5	71.2	72	61.8	3.0	ENE	1.50	11.0	71.3	71.9	71.9	29.840	0.00	0.000	0.131	74.7	70	64.3	76.4	30
05/05/01	1:00 a	71.4	71.6	71.2	74	62.7	3.0	NE	1.50	12.0	71.4	72.2	72.2	29.830	0.00	0.000	0.133	74.6	71	64.6	76.3	30
05/05/01	1:30 a	71.3	71.4	71.0	75	63.0	3.0	ENE	1.50	11.0	71.3	72.2	72.2	29.818	0.00	0.000	0.131	74.4	72	64.8	76.2	30
05/05/01	2:00 a	71.1	71.2	70.8	76	63.1	4.0	ENE	2.00	10.0	71.1	72.0	72.0	29.813	0.00	0.000	0.127	74.2	72	64.6	75.9	30
05/05/01	2:30 a	70.9	71.1	70.8	76	63.0	3.0	NE	1.50	10.0	70.9	71.8	71.8	29.812	0.00	0.000	0.123	74.0	73	64.8	75.8	30
05/05/01	3:00 a	70.8	71.0	70.6	74	62.1	3.0	ENE	1.50	10.0	70.8	71.5	71.5	29.816	0.00	0.000	0.121	73.8	72	64.2	75.4	30
05/05/01	3:30 a	70.7	70.9	70.3	74	62.0	2.0	NE	1.00	10.0	70.7	71.4	71.4	29.814	0.00	0.000	0.119	73.6	72	64.0	75.1	30
05/05/01	4:00 a	70.4	70.6	70.3	72	60.9	2.0	NE	1.00	10.0	70.4	70.8	70.8	29.819	0.00	0.000	0.113	73.4	72	63.8	74.8	30
05/05/01	4:30 a	70.3	70.5	70.2	71	60.4	3.0	NE	1.50	11.0	70.3	70.6	70.6	29.816	0.00	0.000	0.110	73.1	71	63.1	74.3	30
05/05/01	5:00 a	70.2	70.5	69.9	73	61.1	2.0	NE	1.00	10.0	70.2	70.6	70.6	29.818	0.00	0.000	0.108	72.9	71	62.9	74.0	30
05/05/01	5:30 a	70.1	70.3	69.9	71	60.3	3.0	NE	1.50	10.0	70.1	70.3	70.3	29.820	0.00	0.000	0.106	72.7	71	62.8	73.8	30
05/05/01	6:00 a	70.2	70.4	70.0	70	60.0	3.0	NNE	1.50	10.0	70.2	70.4	70.4	29.818	0.00	0.000	0.108	73.0	70	62.6	74.1	30
05/05/01	6:30 a	70.6	71.1	70.2	70	60.3	3.0	NNE	1.50	12.0	70.6	70.9	70.9	29.819	0.00	0.000	0.117	73.5	70	63.1	74.8	30
05/05/01	7:00 a	71.4	71.8	71.0	72	61.9	3.0	NNE	1.50	12.0	71.4	72.1	72.1	29.833	0.00	0.000	0.133	73.9	71	63.9	75.5	30
05/05/01	7:30 a	72.0	72.5	71.6	71	62.1	3.0	N	1.50	11.0	72.0	72.8	72.8	29.836	0.00	0.000	0.146	74.2	72	64.6	75.9	30
05/05/01	8:00 a	73.0	73.7	72.4	69	62.2	4.0	NE	2.00	14.0	73.0	74.0	74.0	29.830	0.00	0.000	0.167	74.7	73	65.5	76.6	30
05/05/01	8:30 a	74.2	75.0	73.6	68	63.0	5.0	NNE	2.50	16.0	74.2	75.7	75.7	29.820	0.00	0.000	0.192	75.8	72	66.1	77.8	30
05/05/01	9:00 a	75.6	76.2	74.8	67	63.9	5.0	NNE	2.50	13.0	75.6	77.0	77.0	29.825	0.00	0.000	0.221	76.9	72	67.2	79.0	30
05/05/01	9:30 a	76.7	77.1	76.1	65	64.0	5.0	NE	2.50	18.0	76.7	78.0	78.0	29.823	0.00	0.000	0.244	78.4	70	67.8	80.5	30
05/05/01	10:00 a	76.9	77.1	76.6	63	63.3	5.0	NE	2.50	20.0	76.9	78.0	78.0	29.825	0.00	0.000	0.248	79.6	68	68.1	81.9	30
05/05/01	10:30 a	78.4	79.5	77.1	56	61.4	6.0	NE	3.00	17.0	78.4	79.0	79.0	29.825	0.00	0.000	0.279	80.5	67	68.5	83.1	30
05/05/01	11:00 a	79.3	79.7	79.1	59	63.7	6.0	NE	3.00	17.0	79.3	80.4	80.4	29.817	0.00	0.000	0.298	81.5	65	68.6	84.3	30
05/05/01	11:30 a	79.8	80.4	79.4	57	63.2	6.0	NE	3.00	17.0	79.8	80.7	80.7	29.813	0.00	0.000	0.308	82.3	64	68.9	85.5	30
05/05/01	12:00 p	81.0	81.7	80.1	56	63.8	5.0	NE	2.50	16.0	81.0	82.1	82.1	29.793	0.00	0.000	0.333	83.2	63	69.3	86.9	30
05/05/01	12:30 p	81.6	82.4	81.3	55	63.9	5.0	NE	2.50	16.0	81.6	82.8	82.8	29.786	0.00	0.000	0.346	84.0	61	69.1	88.0	30
05/05/01	1:00 p	82.1	82.8	81.6	55	64.3	5.0	NE	2.50	15.0	82.1	83.6	83.6	29.779	0.00	0.000	0.356	84.6	61	69.7	89.0	30
05/05/01	1:30 p	82.4	83.1	82.0	55	64.6	6.0	NE	3.00	16.0	82.4	84.0	84.0	29.777	0.00	0.000	0.363	85.2	59	69.3	89.5	30
05/05/01	2:00 p	82.3	83.0	81.7	56	65.0	5.0	NE	2.50	17.0	82.3	84.0	84.0	29.772	0.00	0.000	0.360	85.6	58	69.1	90.0	30
05/05/01	2:30 p	81.8	82.3	81.5	56	64.6	5.0	NE	2.50	16.0	81.8	83.3	83.3	29.758	0.00	0.000	0.350	85.6	58	69.1	90.0	30
05/05/01	3:00 p	81.5	82.5	80.2	62	67.2	5.0	NE	2.50	17.0	81.5	83.8	83.8	29.749	0.00	0.000	0.344	85.7	59	69.7	90.5	30
05/05/01	3:30 p	80.3	81.3	79.2	58	64.2	5.0	NE	2.50	15.0	80.3	81.5	81.5	29.749	0.00	0.000	0.319	85.1	59	69.2	89.3	30
05/05/01	4:00 p	81.3	81.6	80.4	58	65.1	5.0	NE	2.50	17.0	81.3	82.8	82.8	29.750	0.00	0.000	0.340	85.2	58	68.8	89.2	30
05/05/01	4:30 p	80.2	80.6	79.5	60	65.1	6.0	NE	3.00	17.0	80.2	81.6	81.6	29.748	0.00	0.000	0.317	85.3	57	68.3	89.1	30
05/05/01	5:00 p	79.1	79.5	78.7	60	64.0	5.0	NE	2.50	17.0	79.1	80.2	80.2	29.749	0.00	0.000	0.294	84.9	57	68.0	88.4	30
05/05/01	5:30 p	78.4	79.0	77.9	60	63.4	5.0	NE	2.50	18.0	78.4	79.4	79.4	29.751	0.00	0.000	0.279	84.2	57	67.3	87.3	30
05/05/01	6:00 p	77.6	78.1	76.8	63	64.0	4.0	NE	2.00	14.0	77.6	78.8	78.8	29.763	0.00	0.000	0.262	83.4	58	67.1	86.1	30
05/05/01	6:30 p	76.1	77.0	75.7	62	62.1	4.0	NE	2.00	13.0	76.1	77.0	77.0	29.765	0.00	0.000	0.231	82.0	58	65.8	83.9	30
05/05/01	7:00 p	75.2	75.9	74.6	62	61.3	4.0	NE	2.00	11.0	75.2	76.2	76.2	29.780	0.00	0.000	0.212	80.8	58	64.6	82.1	30
05/05/01	7:30 p	74.3	74.7	73.9	63	60.9	5.0	NE	2.50	17.0	74.3	75.3	75.3	29.778	0.00	0.000	0.194	79.8	59	64.2	80.9	30
05/05/01	8:00 p	73.8	74.1	73.5	64	60.9	4.0	NE	2.00	11.0	73.8	74.8	74.8	29.790	0.00	0.000	0.183	79.0	60	63.9	80.1	30
05/05/01	8:30 p	73.5	73.7	73.2	64	60.6	4.0	ENE	2.00	15.0	73.5	74.4	74.4	29.805	0.00	0.000	0.177	78.4	60	63.4	79.4	30
05/05/01	9:00 p	73.3	73.5	73.1	65	60.8	4.0	ENE	2.00	12.0	73.3	74.2	74.2	29.818	0.00	0.000	0.173	77.9	61	63.4	78.9	30
05/05/01	9:30 p	73.1	73.3	72.8	66	61.1	3.0	ENE	1.50	13.0	73.1	73.9	73.9	29.821	0.00	0.000	0.169	77.5	61	63.0	78.4	30
05/05/01	10:00 p	72.9	73.0	72.7	66	60.9	3.0	NE	1.50	10.0	72.9	73.6	73.6	29.823	0.00	0.000	0.165	77.1	61	62.6	78.0	30
05/05/01	10:30 p	72.6	72.9	72.5	66	60.6	3.0	NE	1.50	11.0	72.6	73.2	73.2	29.820	0.00	0.000	0.158	76.8	62	62.8	77.8	30
05/05/01	11:00 p	72.6	72.7	72.4	66	60.6	4.0	ENE	2.00	11.0	72.6	73.2	73.2	29.816	0.00	0.000	0.158	76.5	62	62.5	77.4	30
05/05/01	11:30 p	72.5	72.7	72.3	67	60.9	3.0	NE	1.50	11.0	72.5	73.2	73.2	29.816	0.00	0.000	0.156	76.2	63	62.7	77.2	30
05/06/01	12:00 a	72.4	72.6	72.2	68	61.2	3.0	NE	1.50	10.0	72.4	73.1	73.1	29.818	0.00	0.000	0.154	76.0	64	62.9	77.1	30
05/06/01	12:30 a	72.2	72.4	72.1	66	60.2	3.0	NE	1.50	12.0	72.2	72.7	72.7	29.821	0.00	0.000	0.150	75.8	64	62.8	76.9	30
05/06/01	1:00 a	72.2	72.4	71.9	68	61.0	3.0	NE	1.50	12.0	72.2	72.8	72.8	29.802	0.00	0.000	0.150	75.5	65	62.9	76.8	30
05/06/01	1:30 a	72.0	72.2	71.8	68	60.9	3.0	NE	1.50	10.0	72.0	72.5	72.5	29.796	0.00	0.000	0.146	75.3	65	62.7	76.6	30
05/06/01	2:00 a	71.9	72.1	71.7	69	61.2	3.0	NE	1.50	11.0	71.9	72.5	72.5	29.798	0.00	0.000	0.144	75.2	66	63.1	76.6	30
05/06/01	2:30 a	71.8	71.9	71.6	71	61.9	3.0	NE	1.50	8.0	71.8	72.5	72.5	29.793	0.00	0.000	0.142	75.0	66	62.9	76.4	30
05/06/01	3:00 a	71.6	71.8	71.5	70	61.3	3.0	NE	1.50	11.0	71.6	72.2	72.2	29.795	0.00	0.000	0.137	74.8	67	63.1	76.2	30
05/06/01	3:30 a	71.6	71.8	71.5	70	61.3	3.0	NE	1.50	11.0	71.6	72.2	72.2	29.791	0.00	0.000	0.137	74.6	68	63.3	76.1	30
05/06/01	4:00 a	71.6	71.8	71.4	70	61.3	3.0	NE	1.50	9.0	71.6	72.2	72.2	29.798	0.00	0.000	0.137	74.5	68	63.2	76.0	30
05/06/01	4:30 a	71.4	71.6	71.2	72	61.9	3.0	NE	1.50	10.0	71.4	72.1	72.1	29.799	0.00	0.000	0.133	74.3	68	63.1	75.8	30
05/06/01	5:00 a	71.3	71.4	71.1	71	61.4	3.0	NE	1.50	8.0	71.3	71.9	71.9	29.809	0.00	0.000	0.131	74.2	69	63.4	75.7	30
05/06/01	5:30 a	71.2	71.3	71.0	73	62.1	3.0	NE	1.50	9.0	71.2	71.9	71.9	29.812	0.00	0.000	0.129	74.0	69	63.2	75.5	30
05/06/01	6:00 a	71.2	71.4	71.0	71	61.3	3.0	NE	1.50	12.0	71.2	71.7	71.7	29.824	0.00	0.000	0.129	73.9	69	63.1	75.4	30
05/06/01	6:30 a	71.5	71.9	71.2	71	61.6	4.0	NE	2.00	14.0	71.5	72.1	72.1	29.841	0.00	0.000	0.135	73.8	70	63.4	75.3	30
05/06/01	7:00 a	72.2	72.6	71.7	72	62.7	4.0	NE	2.00	11.0	72.2	73.1	73.1	29.849	0.00	0.000	0.150	73.9	70	63.5	75.4	30
05/06/01	7:30 a	73.1	73.7	72.5	70	62.7	4.0	NE	2.00	15.0	73.1	74.3	74.3	29.858	0.00	0.000	0.169	74.3	70	63.9	75.9	30
05/06/01	8:00 a	74.1	74.8	73.6	67	62.4	4.0	NE	2.00	13.0	74.1	75.5	75.5	29.869	0.00	0.000	0.190	75.1	71	65.1	76.9	30
05/06/01	8:30 a	75.7	76.8	74.7	62	61.8	5.0	NE	2.50	12.0	75.7	76.6	76.6	29.864	0.00	0.000	0.223	76.2	70	65.7	78.0	30
05/06/01	9:00 a	77.3	78.1	76.7	59	61.9	5.0	NE	2.50	15.0	77.3	78.0	78.0	29.860	0.00	0.000	0.256	77.6	68	66.2	79.3	30
05/06/01	9:30 a	78.7	79.4	77.9	59	63.2	5.0	ENE	2.50	18.0	78.7	79.6	79.6	29.859	0.00	0.000	0.285	79.1	67	67.2	81.1	30
05/06/01	10:00 a	79.6	79.9	79.2	57	63.0	5.0	ENE	2.50	18.0	79.6	80.5	80.5	29.868	0.00	0.000	0.304	80.5	65	67.6	82.8	30
05/06/01	10:30 a	80.5	81.3	79.6	57	63.9	4.0	ENE	2.00	13.0	80.5	81.6	81.6	29.866	0.00	0.000	0.323	81.8	64	68.4	84.7	30
05/06/01	11:00 a	81.5	82.1	81.1	53	62.7	5.0	ENE	2.50	17.0	81.5	82.4	82.4	29.867	0.00	0.000	0.344	83.0	62	68.6	86.2	30
05/06/01	11:30 a	82.4	82.7	81.9	52	63.0	4.0	NE	2.00	16.0	82.4	83.5	83.5	29.864	0.00	0.000	0.363	84.0	60	68.6	87.7	30
05/06/01	12:00 p	83.1	84.0	82.6	48	61.4	5.0	NE	2.50	16.0	83.1	84.1	84.1	29.857	0.00	0.000	0.377	84.9	58	68.5	88.6	30
05/06/01	12:30 p	84.4	85.2	83.2	48	62.6	6.0	ENE	3.00	17.0	84.4	85.9	85.9	29.847	0.00	0.000	0.404	85.7	55	67.7	89.2	30
05/06/01	1:00 p	84.0	84.6	83.3	47	61.6	5.0	ENE	2.50	16.0	84.0	85.4	85.4	29.841	0.00	0.000	0.396	86.4	54	67.8	90.2	30
05/06/01	1:30 p	84.8	85.3	84.1	45	61.1	5.0	NE	2.50	15.0	84.8	85.8	85.8	29.840	0.00	0.000	0.413	87.0	52	67.2	90.8	30
05/06/01	2:00 p	84.0	84.8	83.0	49	62.8	6.0	ENE	3.00	16.0	84.0	85.7	85.7	29.830	0.00	0.000	0.396	87.4	52	67.6	91.3	30
05/06/01	2:30 p	83.7	84.5	82.8	47	61.3	5.0	NE	2.50	14.0	83.7	84.9	84.9	29.825	0.00	0.000	0.390	87.2	52	67.4	91.0	30
05/06/01	3:00 p	84.6	85.4	83.9	47	62.1	6.0	NE	3.00	17.0	84.6	85.9	85.9	29.809	0.00	0.000	0.408	87.4	51	67.1	91.0	30
05/06/01	3:30 p	84.2	84.7	83.7	45	60.6	5.0	NE	2.50	16.0	84.2	85.3	85.3	29.792	0.00	0.000	0.400	87.6	50	66.7	90.9	30
05/06/01	4:00 p	83.6	84.1	83.2	45	60.0	6.0	NE	3.00	18.0	83.6	84.5	84.5	29.789	0.00	0.000	0.387	87.5	49	66.0	90.4	30
05/06/01	4:30 p	82.8	83.8	81.9	45	59.3	5.0	NE	2.50	16.0	82.8	83.2	83.2	29.795	0.00	0.000	0.371	87.5	48	65.4	90.1	30
05/06/01	5:00 p	81.9	82.4	80.8	46	59.1	5.0	NE	2.50	15.0	81.9	81.9	81.9	29.793	0.00	0.000	0.352	87.4	46	64.1	89.4	30
05/06/01	5:30 p	80.1	80.9	79.3	45	56.8	5.0	NE	2.50	17.0	80.1	79.7	79.7	29.798	0.00	0.000	0.315	86.3	46	63.1	87.8	30
05/06/01	6:00 p	78.8	79.5	78.1	49	58.0	4.0	NE	2.00	15.0	78.8	78.9	78.9	29.805	0.00	0.000	0.288	85.2	47	62.7	86.6	30
05/06/01	6:30 p	77.7	78.3	76.9	47	55.9	4.0	NE	2.00	12.0	77.7	77.4	77.4	29.813	0.00	0.000	0.265	83.9	46	60.9	85.1	30
05/06/01	7:00 p	76.1	77.0	75.4	48	55.0	3.0	NE	1.50	13.0	76.1	75.9	75.9	29.821	0.00	0.000	0.231	82.5	47	60.2	83.0	30
05/06/01	7:30 p	75.1	75.5	74.7	51	55.7	3.0	NE	1.50	14.0	75.1	75.3	75.3	29.833	0.00	0.000	0.210	81.2	47	59.1	81.1	30
05/06/01	8:00 p	74.5	74.9	74.3	47	52.9	4.0	NE	2.00	11.0	74.5	74.2	74.2	29.839	0.00	0.000	0.198	80.2	47	58.1	80.0	30
05/06/01	8:30 p	74.3	74.5	74.1	48	53.3	4.0	NE	2.00	14.0	74.3	74.0	74.0	29.845	0.00	0.000	0.194	79.4	47	57.4	79.3	30
05/06/01	9:00 p	74.0	74.2	73.8	49	53.6	4.0	NE	2.00	15.0	74.0	73.6	73.6	29.852	0.00	0.000	0.188	78.7	48	57.4	78.7	30
05/06/01	9:30 p	73.8	74.0	73.5	51	54.5	4.0	NE	2.00	15.0	73.8	73.6	73.6	29.868	0.00	0.000	0.183	78.2	50	58.0	78.2	30
05/06/01	10:00 p	73.6	73.8	73.4	56	56.9	4.0	NE	2.00	11.0	73.6	73.8	73.8	29.871	0.00	0.000	0.179	77.8	51	58.2	77.9	30
05/06/01	10:30 p	73.3	73.6	73.1	60	58.6	3.0	NE	1.50	11.0	73.3	73.8	73.8	29.876	0.00	0.000	0.173	77.5	54	59.5	77.8	30
05/06/01	11:00 p	73.1	73.3	72.9	63	59.8	3.0	NE	1.50	14.0	73.1	73.7	73.7	29.876	0.00	0.000	0.169	77.3	56	60.4	77.8	30
05/06/01	11:30 p	72.9	73.1	72.7	67	61.3	3.0	NE	1.50	11.0	72.9	73.7	73.7	29.874	0.00	0.000	0.165	77.1	58	61.2	77.7	30
05/07/01	12:00 a	72.7	72.9	72.5	66	60.7	3.0	NE	1.50	11.0	72.7	73.4	73.4	29.869	0.00	0.000	0.160	76.9	59	61.5	77.6	30
05/07/01	12:30 a	72.6	72.8	72.4	68	61.4	3.0	NE	1.50	9.0	72.6	73.4	73.4	29.857	0.00	0.000	0.158	76.6	60	61.7	77.4	30
05/07/01	1:00 a	72.5	72.7	72.4	65	60.1	3.0	NE	1.50	10.0	72.5	73.0	73.0	29.848	0.00	0.000	0.156	76.4	60	61.5	77.1	30
05/07/01	1:30 a	72.4	72.6	72.3	65	60.0	4.0	NE	2.00	14.0	72.4	72.9	72.9	29.840	0.00	0.000	0.154	76.1	60	61.2	76.8	30
05/07/01	2:00 a	72.2	72.4	72.0	65	59.8	4.0	NE	2.00	13.0	72.2	72.6	72.6	29.834	0.00	0.000	0.150	75.9	61	61.5	76.7	30
05/07/01	2:30 a	72.1	72.3	71.9	67	60.5	4.0	NE	2.00	12.0	72.1	72.6	72.6	29.830	0.00	0.000	0.148	75.6	62	61.7	76.6	30
05/07/01	3:00 a	71.9	72.1	71.8	68	60.8	4.0	NE	2.00	11.0	71.9	72.4	72.4	29.825	0.00	0.000	0.144	75.4	63	61.9	76.5	30
05/07/01	3:30 a	71.9	72.1	71.7	69	61.2	3.0	NE	1.50	11.0	71.9	72.5	72.5	29.828	0.00	0.000	0.144	75.2	64	62.2	76.4	30
05/07/01	4:00 a	71.8	72.0	71.6	69	61.1	3.0	NE	1.50	12.0	71.8	72.4	72.4	29.837	0.00	0.000	0.142	75.1	64	62.1	76.3	30
05/07/01	4:30 a	71.8	72.0	71.6	71	61.9	3.0	NE	1.50	11.0	71.8	72.5	72.5	29.841	0.00	0.000	0.142	74.9	65	62.3	76.2	30
05/07/01	5:00 a	71.8	71.9	71.6	72	62.3	4.0	NE	2.00	11.0	71.8	72.6	72.6	29.855	0.00	0.000	0.142	74.8	66	62.7	76.2	30
05/07/01	5:30 a	71.7	71.9	71.6	71	61.8	3.0	NE	1.50	14.0	71.7	72.4	72.4	29.865	0.00	0.000	0.140	74.7	66	62.6	76.1	30
05/07/01	6:00 a	71.8	71.9	71.6	71	61.9	3.0	NE	1.50	11.0	71.8	72.5	72.5	29.881	0.00	0.000	0.142	74.5	67	62.8	75.9	30
05/07/01	6:30 a	72.0	72.4	71.7	70	61.7	4.0	NE	2.00	12.0	72.0	72.7	72.7	29.885	0.00	0.000	0.146	74.5	68	63.2	76.0	30
05/07/01	7:00 a	72.7	73.1	72.2	70	62.3	4.0	NE	2.00	12.0	72.7	73.7	73.7	29.901	0.00	0.000	0.160	74.5	68	63.2	76.0	30
05/07/01	7:30 a	73.4	73.9	73.0	67	61.8	4.0	NE	2.00	16.0	73.4	74.5	74.5	29.906	0.00	0.000	0.175	74.8	68	63.5	76.3	30
05/07/01	8:00 a	74.4	75.2	73.8	63	61.0	4.0	NE	2.00	15.0	74.4	75.5	75.5	29.915	0.00	0.000	0.196	75.6	68	64.3	77.2	30
05/07/01	8:30 a	76.0	76.8	75.1	62	62.0	5.0	NE	2.50	18.0	76.0	76.9	76.9	29.911	0.00	0.000	0.229	76.7	67	64.9	78.2	30
05/07/01	9:00 a	77.5	78.1	76.6	60	62.5	5.0	NE	2.50	16.0	77.5	78.4	78.4	29.917	0.00	0.000	0.260	78.0	67	66.2	79.6	30
05/07/01	9:30 a	78.6	79.2	78.0	60	63.6	5.0	NE	2.50	16.0	78.6	79.6	79.6	29.918	0.00	0.000	0.283	79.2	66	66.9	81.1	30
05/07/01	10:00 a	79.8	80.7	79.0	59	64.2	5.0	NE	2.50	16.0	79.8	80.9	80.9	29.926	0.00	0.000	0.308	80.4	65	67.6	82.6	30
05/07/01	10:30 a	80.8	81.6	80.1	57	64.1	5.0	NE	2.50	14.0	80.8	82.0	82.0	29.928	0.00	0.000	0.329	81.7	64	68.3	84.5	30
05/07/01	11:00 a	82.0	82.5	81.4	54	63.7	5.0	NE	2.50	16.0	82.0	83.2	83.2	29.926	0.00	0.000	0.354	82.8	62	68.4	85.9	30
05/07/01	11:30 a	82.6	83.6	81.8	53	63.7	5.0	ENE	2.50	18.0	82.6	84.0	84.0	29.923	0.00	0.000	0.367	83.8	61	68.9	87.6	30
05/07/01	12:00 p	83.5	83.8	83.1	54	65.1	6.0	NE	3.00	20.0	83.5	85.6	85.6	29.916	0.00	0.000	0.385	84.8	59	68.9	88.8	30
05/07/01	12:30 p	83.5	83.7	83.1	53	64.6	6.0	NE	3.00	17.0	83.5	85.4	85.4	29.907	0.00	0.000	0.385	85.5	58	69.0	89.8	30
05/07/01	1:00 p	84.7	85.6	83.5	51	64.6	5.0	NE	2.50	17.0	84.7	86.7	86.7	29.905	0.00	0.000	0.410	86.2	57	69.2	90.8	30
05/07/01	1:30 p	84.5	85.3	83.9	49	63.2	5.0	ENE	2.50	16.0	84.5	86.2	86.2	29.897	0.00	0.000	0.406	86.8	55	68.7	91.4	30
05/07/01	2:00 p	84.8	85.4	83.8	52	65.2	5.0	ENE	2.50	16.0	84.8	87.0	87.0	29.891	0.00	0.000	0.413	87.2	55	69.1	92.1	30
05/07/01	2:30 p	82.7	83.9	81.8	56	65.4	4.0	NE	2.00	14.0	82.7	84.6	84.6	29.887	0.00	0.000	0.369	87.1	55	69.0	91.9	30
05/07/01	3:00 p	81.1	81.8	80.7	60	65.9	4.0	NE	2.00	14.0	81.1	82.8	82.8	29.871	0.00	0.000	0.335	86.3	57	69.3	91.1	30
05/07/01	3:30 p	82.3	83.7	81.1	57	65.5	4.0	N	2.00	14.0	82.3	84.2	84.2	29.867	0.00	0.000	0.360	85.9	57	68.9	90.2	30
05/07/01	4:00 p	79.3	82.7	74.9	77	71.5	4.0	NE	2.00	22.0	79.3	82.8	82.8	29.880	0.48	0.000	0.298	85.7	59	69.7	90.5	30
05/07/01	4:30 p	73.9	74.9	73.6	79	67.0	2.0	N	1.00	8.0	73.9	75.9	75.9	29.883	0.08	0.000	0.185	83.0	63	69.1	86.4	30
05/07/01	5:00 p	73.8	74.2	73.2	79	66.9	2.0	ENE	1.00	15.0	73.8	75.7	75.7	29.890	0.00	0.000	0.183	81.7	64	68.3	84.5	30
05/07/01	5:30 p	73.3	73.8	72.9	79	66.4	3.0	ENE	1.50	10.0	73.3	75.1	75.1	29.889	0.00	0.000	0.173	80.9	66	68.5	83.5	30
05/07/01	6:00 p	73.7	73.9	73.3	76	65.7	3.0	E	1.50	11.0	73.7	75.5	75.5	29.891	0.00	0.000	0.181	80.4	67	68.4	82.9	30
05/07/01	6:30 p	73.3	73.6	73.1	74	64.5	2.0	ENE	1.00	10.0	73.3	74.8	74.8	29.898	0.00	0.000	0.173	79.5	68	68.0	81.7	30
05/07/01	7:00 p	72.0	73.3	70.6	80	65.5	4.0	ENE	2.00	19.0	72.0	73.4	73.4	29.910	0.08	0.000	0.146	78.8	67	66.9	80.7	30
05/07/01	7:30 p	70.8	71.1	70.5	85	66.1	0.0	ESE	0.00	2.0	70.8	72.5	72.5	29.914	0.01	0.000	0.121	78.4	67	66.5	80.2	30
05/07/01	8:00 p	71.0	71.3	70.6	79	64.2	5.0	ENE	2.50	21.0	71.0	72.2	72.2	29.929	0.05	0.000	0.125	78.0	69	67.0	79.9	30
05/07/01	8:30 p	71.1	71.5	70.8	80	64.6	5.0	ENE	2.50	22.0	71.1	72.4	72.4	29.940	0.00	0.000	0.127	77.5	69	66.5	79.3	30
05/07/01	9:00 p	71.0	71.6	70.6	75	62.7	4.0	ENE	2.00	16.0	71.0	71.8	71.8	29.949	0.00	0.000	0.125	77.0	68	65.6	78.7	30
05/07/01	9:30 p	71.7	71.9	71.4	73	62.6	6.0	ENE	3.00	15.0	71.7	72.5	72.5	29.942	0.00	0.000	0.140	76.6	67	64.8	78.1	30
05/07/01	10:00 p	71.6	71.8	71.4	72	62.1	6.0	ENE	3.00	14.0	71.6	72.3	72.3	29.951	0.00	0.000	0.137	76.1	66	63.9	77.4	30
05/07/01	10:30 p	71.5	71.8	71.3	72	62.0	6.0	ENE	3.00	15.0	71.5	72.2	72.2	29.957	0.00	0.000	0.135	75.7	67	64.0	77.1	30
05/07/01	11:00 p	71.5	71.8	71.3	72	62.0	5.0	ENE	2.50	20.0	71.5	72.2	72.2	29.960	0.00	0.000	0.135	75.5	67	63.8	76.9	30
05/07/01	11:30 p	71.5	71.6	71.3	67	60.0	7.0	ENE	3.50	17.0	71.5	71.8	71.8	29.955	0.00	0.000	0.135	75.2	66	63.1	76.6	30
05/08/01	12:00 a	71.3	71.6	71.0	63	58.1	7.0	ENE	3.50	22.0	71.3	71.2	71.2	29.948	0.00	0.000	0.131	74.8	64	61.8	76.0	30
05/08/01	12:30 a	70.9	71.3	70.5	63	57.7	6.0	ENE	3.00	20.0	70.9	70.6	70.6	29.948	0.00	0.000	0.123	74.4	63	61.0	75.5	30
05/08/01	1:00 a	70.6	70.8	70.5	63	57.4	5.0	ENE	2.50	15.0	70.6	70.2	70.2	29.947	0.00	0.000	0.117	74.2	62	60.3	75.1	30
05/08/01	1:30 a	70.5	70.7	70.4	64	57.7	5.0	ENE	2.50	13.0	70.5	70.2	70.2	29.933	0.00	0.000	0.115	74.0	62	60.2	74.9	30
05/08/01	2:00 a	70.4	70.6	70.2	67	58.9	4.0	ENE	2.00	12.0	70.4	70.4	70.4	29.921	0.00	0.000	0.113	73.9	63	60.5	74.9	30
05/08/01	2:30 a	70.4	70.6	70.2	70	60.1	3.0	ENE	1.50	11.0	70.4	70.6	70.6	29.916	0.00	0.000	0.113	73.8	65	61.3	74.9	30
05/08/01	3:00 a	70.5	70.8	70.4	67	59.0	4.0	ENE	2.00	14.0	70.5	70.5	70.5	29.911	0.00	0.000	0.115	73.7	65	61.2	74.7	30
05/08/01	3:30 a	70.7	71.0	70.5	66	58.8	5.0	ENE	2.50	15.0	70.7	70.6	70.6	29.912	0.00	0.000	0.119	73.7	65	61.2	74.7	30
05/08/01	4:00 a	70.8	71.0	70.6	66	58.9	5.0	ENE	2.50	17.0	70.8	70.8	70.8	29.903	0.00	0.000	0.121	73.6	65	61.1	74.6	30
05/08/01	4:30 a	70.9	71.1	70.8	68	59.8	5.0	ENE	2.50	15.0	70.9	71.1	71.1	29.908	0.00	0.000	0.123	73.6	66	61.5	74.7	30
05/08/01	5:00 a	71.0	71.1	70.8	65	58.6	6.0	ENE	3.00	23.0	71.0	70.9	70.9	29.913	0.00	0.000	0.125	73.6	66	61.5	74.7	30
05/08/01	5:30 a	71.0	71.2	70.9	64	58.2	7.0	ENE	3.50	20.0	71.0	70.8	70.8	29.921	0.00	0.000	0.125	73.4	65	60.9	74.3	30
05/08/01	6:00 a	70.9	71.1	70.6	60	56.3	6.0	ENE	3.00	19.0	70.9	70.4	70.4	29.942	0.00	0.000	0.123	73.3	63	59.9	74.0	30
05/08/01	6:30 a	70.8	71.0	70.6	57	54.8	6.0	ENE	3.00	17.0	70.8	69.9	69.9	29.953	0.00	0.000	0.121	73.2	61	58.9	73.7	30
05/08/01	7:00 a	71.2	71.6	70.9	55	54.2	6.0	NE	3.00	17.0	71.2	70.3	70.3	29.960	0.00	0.000	0.129	73.2	60	58.5	73.7	30
05/08/01	7:30 a	71.5	71.7	71.3	61	57.3	5.0	ENE	2.50	17.0	71.5	71.3	71.3	29.965	0.00	0.000	0.135	73.4	60	58.7	73.9	30
05/08/01	8:00 a	71.6	72.4	71.0	62	57.9	4.0	ENE	2.00	17.0	71.6	71.5	71.5	29.969	0.00	0.000	0.137	73.7	62	59.9	74.5	30
05/08/01	8:30 a	72.0	72.4	71.2	69	61.3	5.0	ENE	2.50	16.0	72.0	72.6	72.6	29.984	0.01	0.000	0.146	74.2	64	61.2	75.3	30
05/08/01	9:00 a	71.6	73.2	71.0	60	57.0	6.0	NE	3.00	18.0	71.6	71.3	71.3	29.988	0.00	0.000	0.137	74.3	64	61.3	75.4	30
05/08/01	9:30 a	74.1	75.1	73.1	52	55.3	7.0	ENE	3.50	20.0	74.1	74.0	74.0	29.985	0.00	0.000	0.190	74.9	62	61.0	75.9	30
05/08/01	10:00 a	75.5	76.4	74.8	45	52.7	7.0	NE	3.50	20.0	75.5	75.1	75.1	29.988	0.00	0.000	0.219	76.2	57	59.9	76.7	30
05/08/01	10:30 a	76.7	77.5	76.2	43	52.5	7.0	ENE	3.50	18.0	76.7	76.1	76.1	29.986	0.00	0.000	0.244	77.5	54	59.5	77.8	30
05/08/01	11:00 a	78.5	79.2	77.5	42	53.5	6.0	ENE	3.00	18.0	78.5	77.8	77.8	29.980	0.00	0.000	0.281	78.8	54	60.7	79.3	30
05/08/01	11:30 a	79.5	80.5	78.9	44	55.7	6.0	NE	3.00	16.0	79.5	79.0	79.0	29.973	0.00	0.000	0.302	80.0	52	60.8	80.3	30
05/08/01	12:00 p	79.4	80.6	78.2	51	59.7	6.0	NE	3.00	15.0	79.4	79.7	79.7	29.956	0.00	0.000	0.300	81.2	52	61.9	81.8	30
05/08/01	12:30 p	80.3	81.0	78.7	47	58.2	6.0	NE	3.00	20.0	80.3	80.1	80.1	29.949	0.00	0.000	0.319	81.9	53	63.1	82.9	30
05/08/01	1:00 p	79.7	80.8	78.0	54	61.6	6.0	NE	3.00	17.0	79.7	80.3	80.3	29.944	0.00	0.000	0.306	82.6	54	64.3	84.2	30
05/08/01	1:30 p	77.9	78.7	77.2	54	59.9	5.0	NE	2.50	17.0	77.9	78.3	78.3	29.934	0.00	0.000	0.269	82.3	53	63.5	83.5	30
05/08/01	2:00 p	78.6	79.8	77.6	53	60.0	5.0	NE	2.50	15.0	78.6	79.0	79.0	29.921	0.00	0.000	0.283	82.4	55	64.6	84.0	30
05/08/01	2:30 p	79.1	80.3	76.3	59	63.5	7.0	ENE	3.50	24.0	79.1	80.1	80.1	29.919	0.00	0.000	0.294	83.0	54	64.6	84.8	30
05/08/01	3:00 p	76.3	76.8	75.7	57	59.9	6.0	ENE	3.00	16.0	76.3	76.8	76.8	29.912	0.00	0.000	0.235	82.2	53	63.4	83.4	30
05/08/01	3:30 p	76.0	76.3	75.7	57	59.7	4.0	NE	2.00	14.0	76.0	76.5	76.5	29.901	0.00	0.000	0.229	81.5	54	63.3	82.5	30
05/08/01	4:00 p	76.0	76.4	75.7	60	61.1	3.0	NE	1.50	10.0	76.0	76.7	76.7	29.896	0.00	0.000	0.229	81.0	55	63.3	81.9	30
05/08/01	4:30 p	77.0	77.9	76.2	53	58.6	4.0	NE	2.00	13.0	77.0	77.1	77.1	29.897	0.00	0.000	0.250	81.2	55	63.5	82.2	30
05/08/01	5:00 p	77.6	78.0	77.0	55	60.2	4.0	ENE	2.00	14.0	77.6	78.0	78.0	29.896	0.00	0.000	0.262	81.6	54	63.3	82.6	30
05/08/01	5:30 p	76.9	77.4	75.8	55	59.5	4.0	NE	2.00	13.0	76.9	77.2	77.2	29.892	0.00	0.000	0.248	81.5	53	62.7	82.4	30
05/08/01	6:00 p	75.3	75.9	74.8	55	58.0	5.0	NE	2.50	16.0	75.3	75.7	75.7	29.883	0.00	0.000	0.215	80.7	52	61.4	81.1	30
05/08/01	6:30 p	74.4	74.9	73.9	58	58.7	4.0	NE	2.00	15.0	74.4	75.0	75.0	29.891	0.00	0.000	0.196	79.5	53	60.9	79.9	30
05/08/01	7:00 p	73.4	74.0	73.0	63	60.0	5.0	NE	2.50	17.0	73.4	74.1	74.1	29.896	0.00	0.000	0.175	78.6	57	62.1	79.3	30
05/08/01	7:30 p	72.9	73.2	72.5	62	59.1	5.0	ENE	2.50	14.0	72.9	73.4	73.4	29.908	0.00	0.000	0.165	77.9	57	61.4	78.5	30
05/08/01	8:00 p	72.4	72.7	72.1	61	58.2	5.0	ENE	2.50	14.0	72.4	72.6	72.6	29.919	0.00	0.000	0.154	77.3	57	60.9	77.8	30
05/08/01	8:30 p	72.3	72.4	72.1	62	58.5	5.0	ENE	2.50	19.0	72.3	72.5	72.5	29.927	0.00	0.000	0.152	76.8	58	60.9	77.4	30
05/08/01	9:00 p	72.2	72.4	72.0	64	59.3	5.0	ENE	2.50	17.0	72.2	72.5	72.5	29.935	0.00	0.000	0.150	76.5	59	61.1	77.2	30
05/08/01	9:30 p	72.0	72.2	71.8	63	58.7	4.0	ENE	2.00	17.0	72.0	72.1	72.1	29.945	0.00	0.000	0.146	76.2	59	60.8	76.8	30
05/08/01	10:00 p	71.7	71.9	71.5	63	58.4	4.0	ENE	2.00	11.0	71.7	71.7	71.7	29.954	0.00	0.000	0.140	75.9	59	60.5	76.5	30
05/08/01	10:30 p	71.5	71.7	71.4	62	57.8	4.0	ENE	2.00	11.0	71.5	71.4	71.4	29.960	0.00	0.000	0.135	75.6	59	60.3	76.3	30
05/08/01	11:00 p	71.4	71.7	71.1	63	58.1	4.0	ENE	2.00	14.0	71.4	71.3	71.3	29.956	0.00	0.000	0.133	75.3	59	60.0	76.1	30
05/08/01	11:30 p	71.2	71.4	70.9	60	56.6	4.0	NE	2.00	12.0	71.2	70.8	70.8	29.956	0.00	0.000	0.129	75.0	59	59.7	75.8	30
05/09/01	12:00 a	71.0	71.2	70.8	60	56.4	4.0	NE	2.00	19.0	71.0	70.5	70.5	29.958	0.00	0.000	0.125	74.7	59	59.4	75.5	30
05/09/01	12:30 a	71.0	71.2	70.7	61	56.9	5.0	ENE	2.50	13.0	71.0	70.6	70.6	29.956	0.00	0.000	0.125	74.5	59	59.2	75.2	30
05/09/01	1:00 a	70.6	71.0	70.3	58	55.1	4.0	ENE	2.00	10.0	70.6	69.8	69.8	29.946	0.00	0.000	0.117	74.3	57	58.1	74.8	30
05/09/01	1:30 a	70.2	70.6	69.9	59	55.2	3.0	ENE	1.50	9.0	70.2	69.4	69.4	29.938	0.00	0.000	0.108	73.9	57	57.7	74.3	30
05/09/01	2:00 a	69.9	70.2	69.7	60	55.4	3.0	E	1.50	12.0	69.9	69.1	69.1	29.933	0.00	0.000	0.102	73.7	58	58.0	74.1	30
05/09/01	2:30 a	70.3	70.5	70.0	62	56.7	4.0	E	2.00	12.0	70.3	69.8	69.8	29.929	0.00	0.000	0.110	73.6	59	58.4	74.1	30
05/09/01	3:00 a	70.3	70.5	70.2	62	56.7	3.0	ENE	1.50	10.0	70.3	69.8	69.8	29.928	0.00	0.000	0.110	73.6	60	58.9	74.2	30
05/09/01	3:30 a	70.4	70.5	70.2	60	55.8	4.0	ENE	2.00	11.0	70.4	69.7	69.7	29.929	0.00	0.000	0.113	73.5	59	58.3	74.0	30
05/09/01	4:00 a	70.4	70.5	70.2	58	54.9	4.0	ENE	2.00	11.0	70.4	69.5	69.5	29.933	0.00	0.000	0.113	73.4	59	58.2	73.8	30
05/09/01	4:30 a	70.4	70.5	70.1	56	54.0	4.0	ENE	2.00	11.0	70.4	69.3	69.3	29.942	0.00	0.000	0.113	73.3	57	57.1	73.5	30
05/09/01	5:00 a	70.1	70.3	69.8	58	54.6	3.0	ENE	1.50	10.0	70.1	69.1	69.1	29.946	0.00	0.000	0.106	73.1	57	57.0	73.3	30
05/09/01	5:30 a	69.6	69.9	69.3	61	55.6	2.0	ENE	1.00	11.0	69.6	69.0	69.0	29.945	0.00	0.000	0.096	72.9	58	57.3	73.1	30
05/09/01	6:00 a	69.2	69.5	69.1	62	55.6	2.0	E	1.00	11.0	69.2	68.8	68.8	29.954	0.00	0.000	0.087	72.7	58	57.1	72.8	30
05/09/01	6:30 a	69.7	70.2	69.3	60	55.2	3.0	E	1.50	14.0	69.7	69.0	69.0	29.960	0.00	0.000	0.098	72.7	59	57.5	72.9	30
05/09/01	7:00 a	70.6	71.3	70.1	61	56.5	3.0	ENE	1.50	11.0	70.6	70.1	70.1	29.967	0.00	0.000	0.117	72.9	60	58.2	73.3	30
05/09/01	7:30 a	71.8	72.3	71.2	59	56.7	4.0	ENE	2.00	13.0	71.8	71.5	71.5	29.969	0.00	0.000	0.142	73.5	60	58.8	74.1	30
05/09/01	8:00 a	72.7	73.6	72.1	58	57.1	4.0	ENE	2.00	21.0	72.7	72.8	72.8	29.967	0.00	0.000	0.160	74.2	61	59.9	75.0	30
05/09/01	8:30 a	74.3	75.2	73.5	54	56.6	5.0	ENE	2.50	16.0	74.3	74.5	74.5	29.967	0.00	0.000	0.194	75.3	60	60.5	76.1	30
05/09/01	9:00 a	75.9	76.8	75.0	52	57.0	4.0	ENE	2.00	14.0	75.9	76.0	76.0	29.962	0.00	0.000	0.227	76.5	59	61.1	77.2	30
05/09/01	9:30 a	77.7	78.3	76.5	51	58.1	4.0	ENE	2.00	13.0	77.7	77.7	77.7	29.965	0.00	0.000	0.265	77.9	58	61.9	78.6	30
05/09/01	10:00 a	78.8	79.5	77.9	48	57.4	5.0	NE	2.50	14.0	78.8	78.8	78.8	29.962	0.00	0.000	0.288	79.3	57	62.7	80.1	30
05/09/01	10:30 a	79.4	79.9	79.1	47	57.4	5.0	ENE	2.50	17.0	79.4	79.3	79.3	29.964	0.00	0.000	0.300	80.4	55	62.8	81.2	30
05/09/01	11:00 a	80.5	80.8	79.8	45	57.2	5.0	ENE	2.50	18.0	80.5	80.1	80.1	29.964	0.00	0.000	0.323	81.5	53	62.7	82.4	30
05/09/01	11:30 a	80.8	81.6	80.3	44	56.9	5.0	NE	2.50	14.0	80.8	80.3	80.3	29.956	0.00	0.000	0.329	82.5	52	63.1	83.7	30
05/09/01	12:00 p	82.5	83.2	81.4	43	57.7	5.0	ENE	2.50	14.0	82.5	82.4	82.4	29.944	0.00	0.000	0.365	83.5	51	63.5	85.1	30
05/09/01	12:30 p	83.9	84.6	83.0	42	58.3	5.0	ENE	2.50	17.0	83.9	84.5	84.5	29.935	0.00	0.000	0.394	84.7	50	64.0	86.5	30
05/09/01	1:00 p	83.5	84.2	83.0	44	59.3	5.0	NE	2.50	13.0	83.5	84.1	84.1	29.923	0.00	0.000	0.385	85.5	49	64.2	87.3	30
05/09/01	1:30 p	83.8	84.2	83.4	44	59.6	4.0	ENE	2.00	15.0	83.8	84.6	84.6	29.919	0.00	0.000	0.392	86.0	49	64.6	88.0	30
05/09/01	2:00 p	83.2	84.6	82.5	42	57.7	4.0	ENE	2.00	13.0	83.2	83.3	83.3	29.910	0.00	0.000	0.379	86.2	49	64.8	88.3	30
05/09/01	2:30 p	84.4	85.1	83.7	44	60.1	4.0	NE	2.00	11.0	84.4	85.3	85.3	29.906	0.00	0.000	0.404	86.6	49	65.2	89.1	30
05/09/01	3:00 p	83.8	84.8	81.9	48	62.0	5.0	NE	2.50	13.0	83.8	85.2	85.2	29.897	0.00	0.000	0.392	87.0	49	65.5	89.8	30
05/09/01	3:30 p	83.0	83.8	82.4	47	60.7	4.0	ENE	2.00	12.0	83.0	83.8	83.8	29.889	0.00	0.000	0.375	86.8	49	65.3	89.4	30
05/09/01	4:00 p	83.3	83.8	82.7	46	60.4	5.0	ENE	2.50	15.0	83.3	84.1	84.1	29.881	0.00	0.000	0.381	86.8	49	65.3	89.4	30
05/09/01	4:30 p	82.5	83.2	81.9	46	59.6	4.0	ENE	2.00	12.0	82.5	82.8	82.8	29.881	0.00	0.000	0.365	86.8	48	64.8	89.2	30
05/09/01	5:00 p	81.5	82.9	80.7	51	61.6	4.0	NE	2.00	13.0	81.5	82.1	82.1	29.884	0.00	0.000	0.344	86.8	49	65.3	89.4	30
05/09/01	5:30 p	79.9	80.9	79.2	51	60.2	4.0	ENE	2.00	14.0	79.9	80.1	80.1	29.891	0.00	0.000	0.310	85.9	49	64.5	87.8	30
05/09/01	6:00 p	78.4	79.3	77.4	48	57.1	5.0	NE	2.50	12.0	78.4	78.3	78.3	29.895	0.00	0.000	0.279	84.6	47	62.1	85.9	30
05/09/01	6:30 p	76.8	77.5	76.0	44	53.2	3.0	NE	1.50	10.0	76.8	76.3	76.3	29.901	0.00	0.000	0.246	82.9	45	59.4	83.3	30
05/09/01	7:00 p	75.4	76.0	74.9	50	55.5	2.0	ENE	1.00	9.0	75.4	75.5	75.5	29.909	0.00	0.000	0.217	81.3	46	58.5	81.1	30
05/09/01	7:30 p	74.3	75.0	73.8	51	55.0	3.0	NE	1.50	10.0	74.3	74.2	74.2	29.914	0.00	0.000	0.194	80.0	48	58.5	79.9	30
05/09/01	8:00 p	73.5	73.8	73.1	52	54.8	3.0	ENE	1.50	9.0	73.5	73.3	73.3	29.926	0.00	0.000	0.177	79.2	49	58.4	79.3	30
05/09/01	8:30 p	73.1	73.4	72.7	53	54.9	4.0	NE	2.00	12.0	73.1	72.9	72.9	29.929	0.00	0.000	0.169	78.7	49	57.9	78.7	30
05/09/01	9:00 p	72.7	72.9	72.4	46	50.7	3.0	NE	1.50	10.0	72.7	71.7	71.7	29.937	0.00	0.000	0.160	78.4	47	56.5	78.2	30
05/09/01	9:30 p	72.4	72.8	72.1	46	50.4	3.0	ENE	1.50	9.0	72.4	71.3	71.3	29.948	0.00	0.000	0.154	78.0	46	55.5	77.7	30
05/09/01	10:00 p	72.2	72.4	72.0	48	51.4	3.0	ENE	1.50	8.0	72.2	71.2	71.2	29.949	0.00	0.000	0.150	77.6	47	55.8	77.3	30
05/09/01	10:30 p	72.0	72.3	71.7	51	52.9	3.0	E	1.50	11.0	72.0	71.2	71.2	29.954	0.00	0.000	0.146	77.2	48	56.0	76.9	30
05/09/01	11:00 p	71.7	72.1	71.4	52	53.1	2.0	ENE	1.00	10.0	71.7	70.8	70.8	29.953	0.00	0.000	0.140	76.8	49	56.2	76.6	30
05/09/01	11:30 p	71.5	71.8	71.2	54	54.0	2.0	E	1.00	6.0	71.5	70.7	70.7	29.955	0.00	0.000	0.135	76.3	50	56.3	76.2	30
05/10/01	12:00 a	71.3	71.6	71.0	53	53.3	2.0	ENE	1.00	10.0	71.3	70.3	70.3	29.951	0.00	0.000	0.131	75.9	50	55.9	75.9	30
05/10/01	12:30 a	71.2	71.5	70.9	55	54.2	2.0	ENE	1.00	8.0	71.2	70.3	70.3	29.946	0.00	0.000	0.129	75.6	51	56.2	75.7	30
05/10/01	1:00 a	71.2	71.5	71.0	56	54.7	3.0	ENE	1.50	10.0	71.2	70.4	70.4	29.943	0.00	0.000	0.129	75.4	52	56.5	75.6	30
05/10/01	1:30 a	71.1	71.5	70.8	58	55.6	2.0	ENE	1.00	8.0	71.1	70.4	70.4	29.939	0.00	0.000	0.127	75.2	53	56.9	75.5	30
05/10/01	2:00 a	70.9	71.3	70.6	58	55.4	3.0	ENE	1.50	10.0	70.9	70.2	70.2	29.937	0.00	0.000	0.123	74.9	53	56.6	75.2	30
05/10/01	2:30 a	70.6	71.0	70.2	59	55.6	2.0	ENE	1.00	9.0	70.6	69.9	69.9	29.927	0.00	0.000	0.117	74.7	54	56.9	75.0	30
05/10/01	3:00 a	70.2	70.6	69.8	61	56.1	1.0	ENE	0.50	5.0	70.2	69.6	69.6	29.930	0.00	0.000	0.108	74.4	54	56.7	74.6	30
05/10/01	3:30 a	69.7	70.1	69.3	63	56.5	1.0	ENE	0.50	6.0	69.7	69.3	69.3	29.933	0.00	0.000	0.098	74.1	54	56.4	74.2	30
05/10/01	4:00 a	69.3	69.6	69.0	63	56.2	1.0	E	0.50	4.0	69.3	68.9	68.9	29.933	0.00	0.000	0.090	73.8	54	56.1	73.9	30
05/10/01	4:30 a	68.9	69.3	68.7	65	56.6	1.0	E	0.50	5.0	68.9	68.8	68.8	29.934	0.00	0.000	0.081	73.5	55	56.3	73.6	30
05/10/01	5:00 a	68.9	69.2	68.7	63	55.8	1.0	E	0.50	6.0	68.9	68.6	68.6	29.936	0.00	0.000	0.081	73.4	55	56.2	73.5	30
05/10/01	5:30 a	68.9	69.2	68.7	65	56.6	1.0	ENE	0.50	6.0	68.9	68.8	68.8	29.939	0.00	0.000	0.081	73.1	56	56.5	73.2	30
05/10/01	6:00 a	68.7	69.0	68.4	66	56.9	1.0	E	0.50	6.0	68.7	68.8	68.8	29.948	0.00	0.000	0.077	72.9	56	56.3	72.9	30
05/10/01	6:30 a	69.2	70.0	68.5	64	56.5	1.0	ENE	0.50	5.0	69.2	69.0	69.0	29.951	0.00	0.000	0.087	72.9	57	56.8	73.0	30
05/10/01	7:00 a	70.7	71.3	69.8	62	57.0	2.0	ENE	1.00	8.0	70.7	70.3	70.3	29.957	0.00	0.000	0.119	73.1	58	57.4	73.4	30
05/10/01	7:30 a	70.9	71.2	70.7	63	57.7	2.0	E	1.00	8.0	70.9	70.6	70.6	29.968	0.00	0.000	0.123	73.3	58	57.6	73.6	30
05/10/01	8:00 a	72.0	73.4	70.8	58	56.4	4.0	ESE	2.00	11.0	72.0	71.7	71.7	29.971	0.00	0.000	0.146	73.9	60	59.1	74.6	30
05/10/01	8:30 a	74.5	75.4	73.2	55	57.3	4.0	ENE	2.00	11.0	74.5	74.8	74.8	29.971	0.00	0.000	0.198	75.2	59	59.9	76.0	30
05/10/01	9:00 a	76.3	77.8	74.9	52	57.4	5.0	ESE	2.50	17.0	76.3	76.4	76.4	29.978	0.00	0.000	0.235	76.4	59	61.0	77.1	30
05/10/01	9:30 a	78.2	79.0	77.5	52	59.1	4.0	ENE	2.00	12.0	78.2	78.4	78.4	29.982	0.00	0.000	0.275	77.8	59	62.3	78.6	30
05/10/01	10:00 a	79.5	80.5	78.4	50	59.2	4.0	E	2.00	17.0	79.5	79.6	79.6	29.985	0.00	0.000	0.302	79.2	57	62.7	80.0	30
05/10/01	10:30 a	80.6	81.2	80.0	50	60.2	4.0	ENE	2.00	13.0	80.6	80.8	80.8	29.980	0.00	0.000	0.325	80.7	56	63.5	81.7	30
05/10/01	11:00 a	81.3	82.4	80.1	48	59.7	5.0	ENE	2.50	14.0	81.3	81.4	81.4	29.980	0.00	0.000	0.340	81.7	55	64.0	82.9	30
05/10/01	11:30 a	82.4	83.3	81.6	47	60.1	4.0	ENE	2.00	14.0	82.4	82.8	82.8	29.971	0.00	0.000	0.363	82.8	55	65.0	84.6	30
05/10/01	12:00 p	83.4	83.8	82.9	48	61.7	4.0	ENE	2.00	14.0	83.4	84.6	84.6	29.969	0.00	0.000	0.383	83.9	53	64.9	86.1	30
05/10/01	12:30 p	83.8	84.5	83.2	47	61.4	4.0	ENE	2.00	17.0	83.8	85.1	85.1	29.958	0.00	0.000	0.392	84.7	52	65.1	86.9	30
05/10/01	1:00 p	83.9	84.6	83.4	45	60.3	4.0	ENE	2.00	11.0	83.9	84.9	84.9	29.944	0.00	0.000	0.394	85.3	51	65.1	87.5	30
05/10/01	1:30 p	84.7	85.9	83.6	46	61.6	4.0	ENE	2.00	16.0	84.7	85.9	85.9	29.935	0.00	0.000	0.410	85.8	51	65.6	88.2	30
05/10/01	2:00 p	84.3	85.2	83.6	44	60.0	5.0	NE	2.50	14.0	84.3	85.2	85.2	29.929	0.00	0.000	0.402	86.2	50	65.4	88.6	30
05/10/01	2:30 p	85.2	86.3	84.2	46	62.1	4.0	ENE	2.00	18.0	85.2	86.4	86.4	29.919	0.00	0.000	0.421	86.4	50	65.6	89.0	30
05/10/01	3:00 p	84.6	85.7	83.1	47	62.1	4.0	ENE	2.00	13.0	84.6	85.9	85.9	29.909	0.00	0.000	0.408	86.8	50	65.9	89.7	30
05/10/01	3:30 p	84.8	85.5	84.1	47	62.3	4.0	ENE	2.00	15.0	84.8	86.1	86.1	29.902	0.00	0.000	0.413	87.0	50	66.1	90.1	30
05/10/01	4:00 p	83.3	84.3	82.4	49	62.1	4.0	ENE	2.00	11.0	83.3	84.5	84.5	29.900	0.00	0.000	0.381	86.8	50	65.9	89.7	30
05/10/01	4:30 p	81.7	83.0	80.7	52	62.4	4.0	ESE	2.00	16.0	81.7	82.5	82.5	29.907	0.00	0.000	0.348	86.1	50	65.3	88.4	30
05/10/01	5:00 p	80.9	81.3	80.6	51	61.1	4.0	ESE	2.00	15.0	80.9	81.2	81.2	29.902	0.00	0.000	0.331	84.9	51	64.8	86.9	30
05/10/01	5:30 p	80.3	81.2	79.3	53	61.6	4.0	E	2.00	12.0	80.3	80.8	80.8	29.903	0.00	0.000	0.319	84.4	51	64.3	86.4	30
05/10/01	6:00 p	78.4	79.4	77.8	55	60.9	4.0	ENE	2.00	12.0	78.4	78.9	78.9	29.903	0.00	0.000	0.279	83.6	52	64.1	85.5	30
05/10/01	6:30 p	77.5	78.2	76.7	57	61.1	2.0	E	1.00	10.0	77.5	78.1	78.1	29.904	0.00	0.000	0.260	82.6	52	63.2	83.9	30
05/10/01	7:00 p	76.3	77.0	75.8	59	60.9	3.0	E	1.50	8.0	76.3	76.9	76.9	29.911	0.00	0.000	0.235	81.6	53	62.8	82.5	30
05/10/01	7:30 p	75.5	76.1	74.9	62	61.6	2.0	E	1.00	12.0	75.5	76.5	76.5	29.913	0.00	0.000	0.219	80.9	55	63.2	81.8	30
05/10/01	8:00 p	74.9	75.2	74.6	61	60.5	2.0	E	1.00	10.0	74.9	75.9	75.9	29.918	0.00	0.000	0.206	80.3	55	62.7	81.1	30
05/10/01	8:30 p	74.5	74.9	74.0	63	61.1	2.0	E	1.00	8.0	74.5	75.6	75.6	29.925	0.00	0.000	0.198	79.8	56	62.7	80.6	30
05/10/01	9:00 p	73.9	74.3	73.5	63	60.5	1.0	E	0.50	6.0	73.9	74.9	74.9	29.933	0.00	0.000	0.185	79.3	56	62.2	80.0	30
05/10/01	9:30 p	73.5	73.9	73.2	64	60.6	0.0	E	0.00	9.0	73.5	74.4	74.4	29.938	0.00	0.000	0.177	78.8	55	61.3	79.4	30
05/10/01	10:00 p	73.0	73.6	72.5	72	63.4	1.0	E	0.50	7.0	73.0	74.3	74.3	29.936	0.00	0.000	0.167	78.3	57	61.8	79.0	30
05/10/01	10:30 p	72.3	72.8	71.9	71	62.4	1.0	SE	0.50	7.0	72.3	73.2	73.2	29.934	0.00	0.000	0.152	78.0	58	62.0	78.7	30
05/10/01	11:00 p	72.4	72.6	72.1	72	62.9	0.0	SE	0.00	3.0	72.4	73.4	73.4	29.934	0.00	0.000	0.154	77.7	58	61.7	78.4	30
05/10/01	11:30 p	71.9	72.4	71.4	73	62.8	0.0	---	0.00	0.0	71.9	72.8	72.8	29.930	0.00	0.000	0.144	77.4	58	61.5	78.1	30
05/11/01	12:00 a	71.4	71.7	71.1	75	63.1	0.0	---	0.00	0.0	71.4	72.3	72.3	29.927	0.00	0.000	0.133	77.0	59	61.6	77.7	30
05/11/01	12:30 a	71.0	71.5	70.3	76	63.1	0.0	---	0.00	0.0	71.0	71.9	71.9	29.921	0.00	0.000	0.125	76.7	60	61.8	77.5	30
05/11/01	1:00 a	70.2	70.7	69.8	74	61.5	0.0	ESE	0.00	6.0	70.2	70.7	70.7	29.914	0.00	0.000	0.108	76.2	60	61.3	76.9	30
05/11/01	1:30 a	70.5	70.9	69.9	70	60.2	2.0	ESE	1.00	8.0	70.5	70.8	70.8	29.912	0.00	0.000	0.115	76.0	60	61.1	76.7	30
05/11/01	2:00 a	70.8	71.0	70.5	67	59.3	3.0	ESE	1.50	9.0	70.8	70.9	70.9	29.907	0.00	0.000	0.121	75.7	60	60.8	76.5	30
05/11/01	2:30 a	70.6	71.0	70.2	67	59.1	2.0	SE	1.00	8.0	70.6	70.6	70.6	29.905	0.00	0.000	0.117	75.4	59	60.1	76.1	30
05/11/01	3:00 a	70.3	70.6	70.0	69	59.6	2.0	SE	1.00	8.0	70.3	70.4	70.4	29.911	0.00	0.000	0.110	75.1	59	59.8	75.9	30
05/11/01	3:30 a	70.1	70.4	69.8	67	58.6	2.0	E	1.00	7.0	70.1	70.0	70.0	29.916	0.00	0.000	0.106	74.8	60	60.0	75.7	30
05/11/01	4:00 a	70.2	70.5	69.9	65	57.9	2.0	E	1.00	8.0	70.2	69.9	69.9	29.920	0.00	0.000	0.108	74.6	60	59.8	75.4	30
05/11/01	4:30 a	70.1	70.4	69.7	64	57.4	1.0	E	0.50	7.0	70.1	69.7	69.7	29.925	0.00	0.000	0.106	74.3	59	59.0	75.0	30
05/11/01	5:00 a	69.8	70.1	69.3	65	57.5	1.0	E	0.50	9.0	69.8	69.5	69.5	29.925	0.00	0.000	0.100	74.1	59	58.9	74.7	30
05/11/01	5:30 a	69.1	69.7	68.5	69	58.5	0.0	ESE	0.00	3.0	69.1	69.4	69.4	29.936	0.00	0.000	0.085	73.7	59	58.5	74.2	30
05/11/01	6:00 a	68.1	68.8	67.4	73	59.1	0.0	---	0.00	0.0	68.1	68.9	68.9	29.946	0.00	0.000	0.065	73.3	59	58.1	73.7	30
05/11/01	6:30 a	67.6	68.1	67.3	75	59.4	0.0	---	0.00	1.0	67.6	68.4	68.4	29.953	0.00	0.000	0.054	72.9	60	58.2	73.3	30
05/11/01	7:00 a	68.6	70.0	67.8	71	58.8	1.0	E	0.50	7.0	68.6	69.2	69.2	29.958	0.00	0.000	0.075	72.8	61	58.6	73.2	30
05/11/01	7:30 a	71.1	72.3	70.0	67	59.6	3.0	E	1.50	11.0	71.1	71.2	71.2	29.961	0.00	0.000	0.127	73.3	62	59.5	73.9	30
05/11/01	8:00 a	73.1	74.3	72.0	65	60.6	4.0	E	2.00	14.0	73.1	73.8	73.8	29.955	0.00	0.000	0.169	74.3	66	62.2	75.6	30
05/11/01	8:30 a	75.3	76.6	74.1	62	61.4	4.0	ENE	2.00	10.0	75.3	76.3	76.3	29.961	0.00	0.000	0.215	75.9	66	63.7	77.2	30
05/11/01	9:00 a	77.3	78.0	76.3	61	62.8	4.0	ENE	2.00	11.0	77.3	78.2	78.2	29.959	0.00	0.000	0.256	77.3	65	64.6	78.6	30
05/11/01	9:30 a	77.7	78.2	77.1	61	63.2	3.0	ENE	1.50	12.0	77.7	78.7	78.7	29.957	0.00	0.000	0.265	78.4	64	65.2	79.8	30
05/11/01	10:00 a	79.4	80.4	78.0	57	62.8	4.0	ENE	2.00	12.0	79.4	80.3	80.3	29.959	0.00	0.000	0.300	79.5	64	66.3	81.2	30
05/11/01	10:30 a	79.4	80.1	78.3	63	65.7	3.0	ENE	1.50	9.0	79.4	81.0	81.0	29.957	0.00	0.000	0.300	80.8	63	67.0	82.9	30
05/11/01	11:00 a	76.5	78.7	74.5	73	67.2	5.0	ENE	2.50	15.0	76.5	78.7	78.7	29.962	0.01	0.000	0.240	80.5	65	67.6	82.8	30
05/11/01	11:30 a	73.9	74.7	73.4	70	63.5	5.0	ENE	2.50	16.0	73.9	75.4	75.4	29.962	0.00	0.000	0.185	79.1	64	65.9	80.7	30
05/11/01	12:00 p	73.6	74.0	73.2	66	61.5	4.0	ESE	2.00	15.0	73.6	74.7	74.7	29.962	0.00	0.000	0.179	78.2	63	64.6	79.5	30
05/11/01	12:30 p	74.2	75.2	73.6	63	60.8	5.0	ESE	2.50	16.0	74.2	75.2	75.2	29.959	0.00	0.000	0.192	77.7	63	64.1	78.9	30
05/11/01	1:00 p	76.3	77.2	75.1	61	61.9	6.0	E	3.00	17.0	76.3	77.1	77.1	29.955	0.00	0.000	0.235	78.3	63	64.7	79.6	30
05/11/01	1:30 p	77.9	79.1	76.8	56	60.9	5.0	ENE	2.50	16.0	77.9	78.5	78.5	29.954	0.00	0.000	0.269	79.6	61	65.0	81.0	30
05/11/01	2:00 p	80.6	81.9	78.9	51	60.8	7.0	ESE	3.50	22.0	80.6	80.9	80.9	29.946	0.00	0.000	0.325	81.0	60	65.8	82.7	30
05/11/01	2:30 p	83.5	84.6	81.8	48	61.7	7.0	ESE	3.50	22.0	83.5	84.7	84.7	29.935	0.00	0.000	0.385	82.4	58	66.1	84.5	30
05/11/01	3:00 p	84.5	85.3	83.8	49	63.2	7.0	ESE	3.50	25.0	84.5	86.2	86.2	29.925	0.00	0.000	0.406	83.5	56	66.2	85.9	30
05/11/01	3:30 p	83.8	84.4	83.1	48	62.0	6.0	E	3.00	23.0	83.8	85.2	85.2	29.911	0.00	0.000	0.392	84.1	55	66.2	86.7	30
05/11/01	4:00 p	83.6	84.3	82.7	47	61.2	6.0	ENE	3.00	23.0	83.6	84.7	84.7	29.904	0.00	0.000	0.387	84.5	53	65.5	86.9	30
05/11/01	4:30 p	82.5	83.1	81.7	48	60.8	5.0	ENE	2.50	23.0	82.5	83.1	83.1	29.903	0.00	0.000	0.365	84.8	52	65.2	87.0	30
05/11/01	5:00 p	82.0	83.3	81.2	51	62.1	6.0	E	3.00	20.0	82.0	82.8	82.8	29.894	0.00	0.000	0.354	84.8	52	65.2	87.0	30
05/11/01	5:30 p	80.5	81.4	79.8	53	61.8	5.0	ENE	2.50	17.0	80.5	81.0	81.0	29.895	0.00	0.000	0.323	84.2	53	65.2	86.5	30
05/11/01	6:00 p	78.8	79.9	77.7	55	61.3	5.0	E	2.50	16.0	78.8	79.4	79.4	29.893	0.00	0.000	0.288	83.1	53	64.2	84.8	30
05/11/01	6:30 p	77.3	78.1	76.6	57	60.9	4.0	E	2.00	14.0	77.3	77.8	77.8	29.902	0.00	0.000	0.256	81.9	54	63.6	83.1	30
05/11/01	7:00 p	76.0	76.9	75.0	58	60.2	4.0	ENE	2.00	15.0	76.0	76.5	76.5	29.903	0.00	0.000	0.229	80.9	54	62.7	81.6	30
05/11/01	7:30 p	74.5	75.3	73.8	58	58.8	3.0	E	1.50	11.0	74.5	75.1	75.1	29.906	0.00	0.000	0.198	79.8	54	61.7	80.4	30
05/11/01	8:00 p	73.7	74.1	73.2	59	58.5	3.0	E	1.50	11.0	73.7	74.2	74.2	29.910	0.00	0.000	0.181	79.0	55	61.5	79.6	30
05/11/01	8:30 p	73.1	73.5	72.7	60	58.4	3.0	E	1.50	14.0	73.1	73.5	73.5	29.912	0.00	0.000	0.169	78.3	55	60.8	78.8	30
05/11/01	9:00 p	72.6	73.0	72.3	59	57.4	3.0	E	1.50	14.0	72.6	72.7	72.7	29.926	0.00	0.000	0.158	77.7	55	60.2	78.1	30
05/11/01	9:30 p	72.1	72.5	71.6	59	57.0	2.0	E	1.00	8.0	72.1	72.0	72.0	29.927	0.00	0.000	0.148	77.2	55	59.8	77.5	30
05/11/01	10:00 p	71.6	72.0	71.2	59	56.5	2.0	ESE	1.00	9.0	71.6	71.3	71.3	29.928	0.00	0.000	0.137	76.8	55	59.4	77.1	30
05/11/01	10:30 p	71.1	71.5	70.7	61	57.0	2.0	ESE	1.00	9.0	71.1	70.7	70.7	29.929	0.00	0.000	0.127	76.3	55	58.9	76.6	30
05/11/01	11:00 p	70.7	71.1	70.3	62	57.0	2.0	ESE	1.00	9.0	70.7	70.3	70.3	29.931	0.00	0.000	0.119	75.9	55	58.6	76.2	30
05/11/01	11:30 p	70.2	70.6	69.8	61	56.1	1.0	ESE	0.50	11.0	70.2	69.6	69.6	29.929	0.00	0.000	0.108	75.5	55	58.2	75.9	30
05/12/01	12:00 a	69.9	70.2	69.5	63	56.7	1.0	ESE	0.50	7.0	69.9	69.4	69.4	29.929	0.00	0.000	0.102	75.1	56	58.3	75.7	30
05/12/01	12:30 a	69.5	69.9	69.2	65	57.2	1.0	E	0.50	4.0	69.5	69.3	69.3	29.926	0.00	0.000	0.094	74.9	56	58.1	75.5	30
05/12/01	1:00 a	69.0	69.5	68.3	67	57.6	0.0	E	0.00	4.0	69.0	69.1	69.1	29.925	0.00	0.000	0.083	74.6	56	57.9	75.1	30
05/12/01	1:30 a	67.7	68.5	66.8	70	57.6	0.0	---	0.00	0.0	67.7	68.2	68.2	29.926	0.00	0.000	0.056	74.0	56	57.3	74.3	30
05/12/01	2:00 a	66.3	67.1	65.4	72	57.0	0.0	---	0.00	0.0	66.3	66.7	66.7	29.925	0.00	0.000	0.027	73.4	56	56.7	73.6	30
05/12/01	2:30 a	65.1	65.8	64.5	75	57.0	0.0	---	0.00	0.0	65.1	65.4	65.4	29.928	0.00	0.000	0.002	73.0	56	56.4	73.1	30
05/12/01	3:00 a	64.1	64.7	63.5	76	56.4	0.0	---	0.00	0.0	64.1	64.3	64.3	29.932	0.00	0.019	0.000	72.4	57	56.3	72.3	30
05/12/01	3:30 a	63.2	63.8	62.6	77	55.9	0.0	---	0.00	0.0	63.2	63.3	63.3	29.932	0.00	0.037	0.000	71.8	57	55.7	71.4	30
05/12/01	4:00 a	62.5	63.0	62.0	78	55.5	0.0	---	0.00	0.0	62.5	62.6	62.6	29.940	0.00	0.052	0.000	71.3	57	55.3	70.6	30
05/12/01	4:30 a	61.9	62.3	61.4	79	55.3	0.0	---	0.00	0.0	61.9	62.0	62.0	29.943	0.00	0.065	0.000	70.8	57	54.8	69.9	30
05/12/01	5:00 a	61.3	61.8	60.9	80	55.1	0.0	---	0.00	0.0	61.3	61.4	61.4	29.948	0.00	0.077	0.000	70.3	57	54.3	69.3	30
05/12/01	5:30 a	60.9	61.3	60.5	80	54.7	0.0	---	0.00	0.0	60.9	60.9	60.9	29.959	0.00	0.085	0.000	69.9	58	54.4	68.9	30
05/12/01	6:00 a	60.7	61.0	60.4	81	54.8	0.0	---	0.00	0.0	60.7	60.7	60.7	29.963	0.00	0.090	0.000	69.5	58	54.1	68.6	30
05/12/01	6:30 a	61.2	62.0	60.6	82	55.7	0.0	E	0.00	1.0	61.2	61.3	61.3	29.980	0.00	0.079	0.000	69.3	59	54.4	68.6	30
05/12/01	7:00 a	62.7	63.9	61.8	81	56.8	0.0	E	0.00	1.0	62.7	63.0	63.0	29.987	0.00	0.048	0.000	69.4	61	55.4	68.8	30
05/12/01	7:30 a	64.5	65.5	63.5	79	57.8	1.0	NNW	0.50	3.0	64.5	65.0	65.0	29.993	0.00	0.010	0.000	69.9	64	57.2	69.5	30
05/12/01	8:00 a	66.6	68.4	65.2	75	58.4	1.0	NNW	0.50	3.0	66.6	67.2	67.2	29.990	0.00	0.000	0.033	70.8	67	59.3	70.9	30
05/12/01	8:30 a	70.8	73.2	68.3	60	56.2	1.0	NE	0.50	6.0	70.8	70.2	70.2	29.985	0.00	0.000	0.121	72.6	67	61.0	73.3	30
05/12/01	9:00 a	74.8	76.2	73.1	52	56.0	2.0	NE	1.00	8.0	74.8	75.0	75.0	29.978	0.00	0.000	0.204	74.9	62	61.0	75.9	30
05/12/01	9:30 a	77.3	78.3	75.9	54	59.4	3.0	ESE	1.50	12.0	77.3	77.6	77.6	29.973	0.00	0.000	0.256	77.0	62	63.0	78.0	30
05/12/01	10:00 a	79.1	80.1	78.0	52	60.0	3.0	NE	1.50	10.0	79.1	79.5	79.5	29.960	0.00	0.000	0.294	79.0	61	64.4	80.2	30
05/12/01	10:30 a	80.1	80.9	79.6	50	59.8	3.0	ENE	1.50	13.0	80.1	80.2	80.2	29.958	0.00	0.000	0.315	80.3	59	64.7	81.6	30
05/12/01	11:00 a	81.4	82.3	80.6	51	61.5	3.0	ENE	1.50	10.0	81.4	81.9	81.9	29.948	0.00	0.000	0.342	81.6	58	65.4	83.3	30
05/12/01	11:30 a	82.1	82.8	81.2	48	60.5	4.0	ENE	2.00	10.0	82.1	82.5	82.5	29.939	0.00	0.000	0.356	82.6	56	65.3	84.5	30
05/12/01	12:00 p	82.7	83.8	81.9	48	61.0	3.0	NE	1.50	17.0	82.7	83.4	83.4	29.938	0.00	0.000	0.369	83.5	55	65.6	85.8	30
05/12/01	12:30 p	84.8	86.0	83.5	46	61.7	3.0	N	1.50	11.0	84.8	86.0	86.0	29.925	0.00	0.000	0.413	84.5	54	66.0	87.1	30
05/12/01	1:00 p	85.3	86.0	84.5	46	62.2	3.0	ENE	1.50	13.0	85.3	86.5	86.5	29.913	0.00	0.000	0.423	85.6	54	67.0	88.7	30
05/12/01	1:30 p	85.0	85.7	83.7	48	63.1	4.0	ENE	2.00	13.0	85.0	86.5	86.5	29.913	0.00	0.000	0.417	86.4	53	67.2	89.9	30
05/12/01	2:00 p	85.5	86.4	84.9	47	63.0	4.0	ENE	2.00	14.0	85.5	86.9	86.9	29.900	0.00	0.000	0.427	86.9	53	67.7	90.9	30
05/12/01	2:30 p	85.1	86.2	83.6	51	64.9	3.0	ENE	1.50	11.0	85.1	87.2	87.2	29.889	0.00	0.000	0.419	87.5	52	67.7	91.4	30
05/12/01	3:00 p	82.7	83.6	81.6	52	63.3	3.0	ENE	1.50	9.0	82.7	84.0	84.0	29.873	0.00	0.000	0.369	87.1	52	67.3	90.9	30
05/12/01	3:30 p	82.3	83.1	81.4	53	63.5	4.0	NE	2.00	12.0	82.3	83.5	83.5	29.861	0.00	0.000	0.360	86.5	53	67.3	90.1	30
05/12/01	4:00 p	82.5	83.3	81.6	52	63.1	4.0	ENE	2.00	15.0	82.5	83.7	83.7	29.852	0.00	0.000	0.365	86.3	53	67.2	89.7	30
05/12/01	4:30 p	83.6	84.0	83.0	51	63.6	3.0	ENE	1.50	11.0	83.6	85.3	85.3	29.845	0.00	0.000	0.387	86.4	52	66.7	89.6	30
05/12/01	5:00 p	83.2	84.5	81.5	53	64.3	3.0	ENE	1.50	11.0	83.2	85.0	85.0	29.848	0.00	0.000	0.379	86.6	53	67.4	90.3	30
05/12/01	5:30 p	81.9	83.2	80.8	52	62.5	3.0	E	1.50	12.0	81.9	82.8	82.8	29.845	0.00	0.000	0.352	85.6	53	66.5	88.4	30
05/12/01	6:00 p	81.0	82.4	80.2	54	62.8	3.0	ESE	1.50	11.0	81.0	81.8	81.8	29.847	0.00	0.000	0.333	85.0	53	66.0	87.5	30
05/12/01	6:30 p	80.5	81.2	79.5	55	62.8	3.0	ESE	1.50	11.0	80.5	81.3	81.3	29.853	0.00	0.000	0.323	83.9	53	64.9	86.1	30
05/12/01	7:00 p	78.3	79.6	77.1	59	62.8	3.0	ESE	1.50	7.0	78.3	79.2	79.2	29.866	0.00	0.000	0.277	82.8	54	64.5	84.5	30
05/12/01	7:30 p	76.3	77.4	75.4	61	61.9	1.0	ESE	0.50	8.0	76.3	77.1	77.1	29.882	0.00	0.000	0.235	81.5	55	63.8	82.7	30
05/12/01	8:00 p	74.9	75.6	74.3	64	61.9	1.0	SE	0.50	5.0	74.9	76.1	76.1	29.889	0.00	0.000	0.206	80.5	55	62.8	81.3	30
05/12/01	8:30 p	74.1	74.6	73.6	65	61.6	1.0	ESE	0.50	3.0	74.1	75.3	75.3	29.894	0.00	0.000	0.190	79.8	55	62.2	80.5	30
05/12/01	9:00 p	73.2	73.8	72.5	67	61.6	0.0	ESE	0.00	2.0	73.2	74.2	74.2	29.901	0.00	0.000	0.171	79.2	55	61.6	79.8	30
05/12/01	9:30 p	72.2	72.7	71.8	67	60.6	1.0	ESE	0.50	4.0	72.2	72.7	72.7	29.901	0.00	0.000	0.150	78.5	55	61.0	79.1	30
05/12/01	10:00 p	71.6	72.1	71.1	69	60.9	1.0	ESE	0.50	3.0	71.6	72.1	72.1	29.905	0.00	0.000	0.137	77.9	55	60.4	78.4	30
05/12/01	10:30 p	70.8	71.3	70.1	70	60.5	0.0	ESE	0.00	3.0	70.8	71.1	71.1	29.909	0.00	0.000	0.121	77.3	56	60.4	77.8	30
05/12/01	11:00 p	69.5	70.3	68.8	72	60.1	0.0	---	0.00	0.0	69.5	70.0	70.0	29.918	0.00	0.000	0.094	76.6	56	59.7	77.0	30
05/12/01	11:30 p	68.4	69.1	67.7	74	59.8	0.0	---	0.00	0.0	68.4	69.3	69.3	29.911	0.00	0.000	0.071	76.0	56	59.2	76.4	30
05/13/01	12:00 a	67.5	68.0	66.9	76	59.7	0.0	---	0.00	0.0	67.5	68.4	68.4	29.912	0.00	0.000	0.052	75.4	56	58.6	75.9	30
05/13/01	12:30 a	66.7	67.3	66.2	77	59.3	0.0	---	0.00	0.0	66.7	67.5	67.5	29.914	0.00	0.000	0.035	74.8	57	58.5	75.4	30
05/13/01	1:00 a	66.0	66.6	65.6	77	58.6	0.0	---	0.00	0.0	66.0	66.7	66.7	29.913	0.00	0.000	0.021	74.3	57	58.1	74.8	30
05/13/01	1:30 a	65.3	65.9	64.8	78	58.3	0.0	---	0.00	0.0	65.3	65.9	65.9	29.903	0.00	0.000	0.006	73.8	57	57.6	74.2	30
05/13/01	2:00 a	64.6	65.2	64.2	78	57.6	0.0	---	0.00	0.0	64.6	65.1	65.1	29.907	0.00	0.008	0.000	73.2	57	57.1	73.4	30
05/13/01	2:30 a	64.0	64.6	63.5	79	57.4	0.0	---	0.00	0.0	64.0	64.4	64.4	29.898	0.00	0.021	0.000	72.7	57	56.6	72.7	30
05/13/01	3:00 a	63.3	63.9	62.9	80	57.0	0.0	---	0.00	0.0	63.3	63.7	63.7	29.902	0.00	0.035	0.000	72.3	57	56.2	72.1	30
05/13/01	3:30 a	62.9	63.2	62.4	80	56.6	0.0	---	0.00	1.0	62.9	63.2	63.2	29.897	0.00	0.044	0.000	71.8	57	55.7	71.4	30
05/13/01	4:00 a	62.4	62.8	62.1	81	56.5	0.0	---	0.00	0.0	62.4	62.7	62.7	29.900	0.00	0.054	0.000	71.4	57	55.4	70.8	30
05/13/01	4:30 a	62.1	62.5	61.7	81	56.2	0.0	---	0.00	0.0	62.1	62.3	62.3	29.905	0.00	0.060	0.000	71.0	57	55.0	70.2	30
05/13/01	5:00 a	61.8	62.2	61.6	83	56.6	0.0	---	0.00	1.0	61.8	62.0	62.0	29.917	0.00	0.067	0.000	70.6	58	55.1	69.8	30
05/13/01	5:30 a	61.7	62.0	61.3	83	56.5	0.0	---	0.00	1.0	61.7	61.9	61.9	29.921	0.00	0.069	0.000	70.2	58	54.7	69.3	30
05/13/01	6:00 a	61.5	61.8	61.2	84	56.6	0.0	---	0.00	1.0	61.5	61.7	61.7	29.937	0.00	0.073	0.000	69.9	59	54.9	69.0	30
05/13/01	6:30 a	61.9	62.6	61.3	86	57.7	0.0	ESE	0.00	2.0	61.9	62.2	62.2	29.942	0.00	0.065	0.000	69.7	61	55.6	69.1	30
05/13/01	7:00 a	63.0	63.9	62.2	88	59.4	0.0	ESE	0.00	2.0	63.0	63.6	63.6	29.948	0.00	0.042	0.000	69.7	62	56.1	69.2	30
05/13/01	7:30 a	64.6	65.6	63.5	83	59.3	0.0	ESE	0.00	3.0	64.6	65.3	65.3	29.947	0.00	0.008	0.000	70.0	63	56.8	69.5	30
05/13/01	8:00 a	66.9	68.6	65.4	76	59.1	1.0	ESE	0.50	3.0	66.9	67.7	67.7	29.943	0.00	0.000	0.040	70.8	65	58.4	70.7	30
05/13/01	8:30 a	70.4	72.7	68.4	67	58.9	1.0	WSW	0.50	5.0	70.4	70.4	70.4	29.936	0.00	0.000	0.113	72.2	67	60.6	72.7	30
05/13/01	9:00 a	74.3	76.3	72.5	60	59.5	2.0	SSW	1.00	7.0	74.3	75.1	75.1	29.937	0.00	0.000	0.194	74.0	67	62.3	75.4	30
05/13/01	9:30 a	77.7	79.2	76.2	55	60.2	1.0	SW	0.50	6.0	77.7	78.1	78.1	29.929	0.00	0.000	0.265	75.9	67	64.2	77.3	30
05/13/01	10:00 a	80.4	81.7	78.8	47	58.3	1.0	NW	0.50	6.0	80.4	80.2	80.2	29.923	0.00	0.000	0.321	77.7	64	64.5	79.0	30
05/13/01	10:30 a	82.8	83.6	81.4	49	61.7	2.0	NW	1.00	8.0	82.8	83.7	83.7	29.913	0.00	0.000	0.371	79.4	60	64.3	80.6	30
05/13/01	11:00 a	84.2	85.7	83.2	47	61.8	3.0	ESE	1.50	9.0	84.2	85.6	85.6	29.902	0.00	0.000	0.400	81.4	59	65.7	83.1	30
05/13/01	11:30 a	86.5	87.3	85.6	46	63.3	3.0	ENE	1.50	8.0	86.5	88.1	88.1	29.889	0.00	0.000	0.448	83.4	57	66.6	85.9	30
05/13/01	12:00 p	85.4	86.3	84.9	47	62.9	4.0	NE	2.00	11.0	85.4	86.8	86.8	29.884	0.00	0.000	0.425	85.1	56	67.6	88.4	30
05/13/01	12:30 p	86.4	87.8	85.6	43	61.3	3.0	ENE	1.50	10.0	86.4	87.3	87.3	29.872	0.00	0.000	0.446	87.1	54	68.4	91.6	30
05/13/01	1:00 p	88.4	89.4	87.2	41	61.7	4.0	ENE	2.00	12.0	88.4	89.2	89.2	29.864	0.00	0.000	0.488	88.6	53	69.3	93.8	30
05/13/01	1:30 p	88.1	89.0	87.0	42	62.1	4.0	ENE	2.00	15.0	88.1	88.9	88.9	29.863	0.00	0.000	0.481	89.1	51	68.6	94.2	30
05/13/01	2:00 p	86.6	87.5	85.8	42	60.8	5.0	ENE	2.50	13.0	86.6	87.4	87.4	29.854	0.00	0.000	0.450	89.2	49	67.5	93.6	30
05/13/01	2:30 p	87.9	89.2	86.7	41	61.3	4.0	NE	2.00	11.0	87.9	88.3	88.3	29.842	0.00	0.000	0.477	89.8	48	67.5	94.1	30
05/13/01	3:00 p	89.7	90.2	89.0	41	62.9	4.0	ENE	2.00	13.0	89.7	91.2	91.2	29.830	0.00	0.000	0.515	90.0	48	67.7	94.4	30
05/13/01	3:30 p	90.0	91.0	89.2	38	61.0	4.0	ENE	2.00	10.0	90.0	90.7	90.7	29.824	0.00	0.000	0.521	90.1	49	68.4	94.9	30
05/13/01	4:00 p	90.7	91.2	90.1	39	62.3	5.0	ENE	2.50	17.0	90.7	92.1	92.1	29.814	0.00	0.000	0.535	90.3	48	67.9	95.0	30
05/13/01	4:30 p	90.4	91.6	89.1	42	64.2	6.0	ESE	3.00	17.0	90.4	92.7	92.7	29.808	0.00	0.000	0.529	90.4	48	68.0	95.1	30
05/13/01	5:00 p	88.4	89.1	87.9	43	63.1	5.0	ESE	2.50	14.0	88.4	89.9	89.9	29.811	0.00	0.000	0.488	90.2	48	67.9	94.8	30
05/13/01	5:30 p	86.7	88.0	85.7	46	63.4	5.0	ESE	2.50	14.0	86.7	88.4	88.4	29.801	0.00	0.000	0.452	89.2	48	66.9	93.3	30
05/13/01	6:00 p	84.8	85.7	84.2	47	62.3	4.0	ESE	2.00	12.0	84.8	86.1	86.1	29.801	0.00	0.000	0.413	88.1	49	66.5	91.3	30
05/13/01	6:30 p	83.3	84.4	82.1	50	62.7	4.0	ESE	2.00	13.0	83.3	84.7	84.7	29.808	0.00	0.000	0.381	86.7	50	65.8	89.5	30
05/13/01	7:00 p	81.1	82.1	79.9	54	62.9	3.0	ESE	1.50	8.0	81.1	81.9	81.9	29.822	0.00	0.000	0.335	85.2	51	65.0	87.3	30
05/13/01	7:30 p	79.6	80.0	78.8	56	62.5	2.0	SE	1.00	6.0	79.6	80.4	80.4	29.836	0.00	0.000	0.304	83.6	54	65.2	85.8	30
05/13/01	8:00 p	78.2	78.9	77.2	60	63.2	2.0	SE	1.00	7.0	78.2	79.1	79.1	29.839	0.00	0.000	0.275	82.5	54	64.2	84.0	30
05/13/01	8:30 p	76.9	77.7	76.2	63	63.3	2.0	SE	1.00	6.0	76.9	78.0	78.0	29.848	0.00	0.000	0.248	81.8	55	64.1	83.1	30
05/13/01	9:00 p	76.1	76.7	75.6	66	63.9	1.0	SE	0.50	4.0	76.1	77.4	77.4	29.852	0.00	0.000	0.231	81.1	57	64.4	82.4	30
05/13/01	9:30 p	75.5	76.0	74.9	68	64.2	0.0	SE	0.00	3.0	75.5	77.1	77.1	29.859	0.00	0.000	0.219	80.5	58	64.4	81.7	30
05/13/01	10:00 p	74.8	75.4	74.0	70	64.4	0.0	---	0.00	0.0	74.8	76.5	76.5	29.861	0.00	0.000	0.204	80.1	57	63.5	81.1	30
05/13/01	10:30 p	73.7	74.4	73.0	71	63.7	0.0	---	0.00	0.0	73.7	75.2	75.2	29.865	0.00	0.000	0.181	79.6	57	63.0	80.5	30
05/13/01	11:00 p	72.7	73.4	72.0	73	63.5	0.0	---	0.00	0.0	72.7	73.9	73.9	29.875	0.00	0.000	0.160	79.0	57	62.5	79.8	30
05/13/01	11:30 p	71.9	72.5	71.4	73	62.8	0.0	---	0.00	0.0	71.9	72.8	72.8	29.873	0.00	0.000	0.144	78.4	57	61.9	79.1	30
05/14/01	12:00 a	71.3	71.9	70.7	74	62.6	0.0	---	0.00	1.0	71.3	72.1	72.1	29.870	0.00	0.000	0.131	78.0	57	61.5	78.7	30
05/14/01	12:30 a	70.6	71.2	70.0	75	62.3	0.0	---	0.00	1.0	70.6	71.3	71.3	29.866	0.00	0.000	0.117	77.5	57	61.1	78.1	30
05/14/01	1:00 a	69.8	70.5	69.3	76	61.9	0.0	---	0.00	0.0	69.8	70.6	70.6	29.871	0.00	0.000	0.100	77.0	57	60.6	77.5	30
05/14/01	1:30 a	69.3	69.8	68.7	77	61.8	0.0	---	0.00	0.0	69.3	70.4	70.4	29.866	0.00	0.000	0.090	76.5	57	60.1	77.0	30
05/14/01	2:00 a	68.7	69.2	68.1	78	61.6	0.0	---	0.00	0.0	68.7	70.0	70.0	29.863	0.00	0.000	0.077	76.0	58	60.2	76.5	30
05/14/01	2:30 a	68.2	68.6	67.6	78	61.1	0.0	---	0.00	0.0	68.2	69.4	69.4	29.859	0.00	0.000	0.067	75.6	57	59.3	76.1	30
05/14/01	3:00 a	67.7	68.1	67.2	79	61.0	0.0	---	0.00	0.0	67.7	68.9	68.9	29.863	0.00	0.000	0.056	75.2	58	59.4	75.9	30
05/14/01	3:30 a	67.3	67.8	66.9	81	61.3	0.0	---	0.00	0.0	67.3	68.5	68.5	29.871	0.00	0.000	0.048	74.8	59	59.5	75.6	30
05/14/01	4:00 a	67.4	67.9	66.9	81	61.4	0.0	---	0.00	0.0	67.4	68.6	68.6	29.872	0.00	0.000	0.050	74.5	59	59.2	75.2	30
05/14/01	4:30 a	67.7	68.0	67.3	82	62.0	0.0	SE	0.00	2.0	67.7	69.0	69.0	29.875	0.00	0.000	0.056	74.3	60	59.5	75.1	30
05/14/01	5:00 a	67.6	68.0	67.3	82	61.9	0.0	SE	0.00	2.0	67.6	68.9	68.9	29.879	0.00	0.000	0.054	74.1	61	59.8	74.9	30
05/14/01	5:30 a	67.5	67.8	67.1	82	61.8	0.0	SE	0.00	2.0	67.5	68.8	68.8	29.890	0.00	0.000	0.052	73.8	62	60.0	74.6	30
05/14/01	6:00 a	67.4	67.8	67.1	83	62.1	0.0	---	0.00	0.0	67.4	68.7	68.7	29.898	0.00	0.000	0.050	73.6	62	59.8	74.3	30
05/14/01	6:30 a	67.6	68.0	67.2	83	62.3	0.0	---	0.00	0.0	67.6	68.9	68.9	29.908	0.00	0.000	0.054	73.5	63	60.1	74.3	30
05/14/01	7:00 a	68.1	68.9	67.4	82	62.4	0.0	SE	0.00	2.0	68.1	69.5	69.5	29.918	0.00	0.000	0.065	73.6	64	60.7	74.5	30
05/14/01	7:30 a	69.3	70.3	68.4	80	62.9	0.0	WSW	0.00	5.0	69.3	70.7	70.7	29.924	0.00	0.000	0.090	73.8	66	61.7	75.0	30
05/14/01	8:00 a	71.0	72.4	69.8	78	63.8	2.0	SW	1.00	5.0	71.0	72.1	72.1	29.920	0.00	0.000	0.125	74.4	65	61.9	75.6	30
05/14/01	8:30 a	73.8	75.6	71.9	71	63.8	2.0	S	1.00	5.0	73.8	75.4	75.4	29.918	0.00	0.000	0.183	75.6	67	63.9	77.0	30
05/14/01	9:00 a	77.2	79.2	75.2	60	62.2	2.0	S	1.00	5.0	77.2	78.0	78.0	29.921	0.00	0.000	0.254	77.0	67	65.2	78.5	30
05/14/01	9:30 a	80.4	82.3	78.7	54	62.2	1.0	S	0.50	5.0	80.4	81.1	81.1	29.921	0.00	0.000	0.321	78.5	65	65.8	80.1	30
05/14/01	10:00 a	83.2	84.5	82.0	51	63.2	1.0	S	0.50	4.0	83.2	84.7	84.7	29.909	0.00	0.000	0.379	80.2	64	66.9	82.2	30
05/14/01	10:30 a	84.3	84.9	83.5	51	64.2	2.0	NE	1.00	8.0	84.3	86.3	86.3	29.903	0.00	0.000	0.402	81.9	63	68.1	84.6	30
05/14/01	11:00 a	85.1	86.2	84.4	49	63.8	4.0	NE	2.00	11.0	85.1	86.8	86.8	29.896	0.00	0.000	0.419	83.5	61	68.6	87.0	30
05/14/01	11:30 a	86.1	87.2	84.9	45	62.3	3.0	ENE	1.50	9.0	86.1	87.3	87.3	29.885	0.00	0.000	0.440	84.7	58	68.3	88.3	30
05/14/01	12:00 p	87.4	88.2	86.5	43	62.2	4.0	ENE	2.00	12.0	87.4	88.5	88.5	29.879	0.00	0.000	0.467	85.8	55	67.8	89.3	30
05/14/01	12:30 p	87.0	88.0	85.7	44	62.5	4.0	ENE	2.00	12.0	87.0	88.4	88.4	29.867	0.00	0.000	0.458	86.7	54	68.1	90.8	30
05/14/01	1:00 p	88.0	88.9	86.9	43	62.7	4.0	ENE	2.00	12.0	88.0	89.1	89.1	29.856	0.00	0.000	0.479	87.4	53	68.2	91.6	30
05/14/01	1:30 p	88.9	89.7	88.3	43	63.5	4.0	ENE	2.00	12.0	88.9	90.9	90.9	29.845	0.00	0.000	0.498	88.3	52	68.4	92.8	30
05/14/01	2:00 p	88.4	89.3	87.8	45	64.4	5.0	ENE	2.50	13.0	88.4	90.6	90.6	29.837	0.00	0.000	0.488	88.8	52	68.9	93.9	30
05/14/01	2:30 p	88.2	89.2	87.2	47	65.4	5.0	ENE	2.50	16.0	88.2	90.8	90.8	29.829	0.00	0.000	0.483	89.2	53	69.8	95.1	30
05/14/01	3:00 p	87.9	88.7	87.2	50	66.9	6.0	ENE	3.00	14.0	87.9	91.3	91.3	29.820	0.00	0.000	0.477	89.6	52	69.6	95.4	30
05/14/01	3:30 p	87.3	87.9	86.8	51	67.0	6.0	ENE	3.00	18.0	87.3	90.8	90.8	29.812	0.00	0.000	0.465	89.6	54	70.8	96.2	30
05/14/01	4:00 p	86.5	87.8	85.6	53	67.3	6.0	ENE	3.00	14.0	86.5	90.1	90.1	29.812	0.00	0.000	0.448	89.6	54	70.8	96.2	30
05/14/01	4:30 p	85.4	85.7	84.8	57	68.4	6.0	ENE	3.00	15.0	85.4	89.3	89.3	29.812	0.00	0.000	0.425	89.4	54	70.6	95.8	30
05/14/01	5:00 p	84.9	85.6	83.8	61	69.9	6.0	ENE	3.00	16.0	84.9	89.6	89.6	29.820	0.00	0.000	0.415	89.3	56	71.5	96.4	30
05/14/01	5:30 p	83.3	83.9	82.4	63	69.4	6.0	ENE	3.00	14.0	83.3	87.1	87.1	29.815	0.00	0.000	0.381	88.5	57	71.3	95.0	30
05/14/01	6:00 p	82.1	82.6	81.5	64	68.7	5.0	ENE	2.50	15.0	82.1	85.2	85.2	29.819	0.00	0.000	0.356	87.5	58	70.9	93.5	30
05/14/01	6:30 p	81.0	81.9	80.0	67	69.0	5.0	ENE	2.50	15.0	81.0	83.9	83.9	29.822	0.00	0.000	0.333	86.3	59	70.3	91.8	30
05/14/01	7:00 p	79.4	80.1	78.6	68	67.9	5.0	ENE	2.50	21.0	79.4	81.6	81.6	29.832	0.00	0.000	0.300	84.4	64	70.9	89.6	30
05/14/01	7:30 p	77.9	79.1	77.1	72	68.1	5.0	ENE	2.50	22.0	77.9	80.1	80.1	29.846	0.00	0.000	0.269	83.0	64	69.6	86.7	30
05/14/01	8:00 p	77.0	77.6	76.5	71	66.9	5.0	E	2.50	14.0	77.0	79.0	79.0	29.847	0.00	0.000	0.250	82.2	65	69.3	85.5	30
05/14/01	8:30 p	76.5	77.0	76.1	73	67.2	5.0	E	2.50	15.0	76.5	78.7	78.7	29.855	0.00	0.000	0.240	81.6	66	69.1	84.7	30
05/14/01	9:00 p	76.4	76.8	75.8	72	66.7	5.0	E	2.50	19.0	76.4	78.5	78.5	29.863	0.00	0.000	0.238	81.1	67	69.1	84.0	30
05/14/01	9:30 p	75.9	76.3	75.6	72	66.2	5.0	ESE	2.50	19.0	75.9	77.9	77.9	29.866	0.00	0.000	0.227	80.6	68	69.1	83.4	30
05/14/01	10:00 p	75.7	76.2	75.3	73	66.4	5.0	ESE	2.50	15.0	75.7	77.8	77.8	29.877	0.00	0.000	0.223	80.2	67	68.2	82.6	30
05/14/01	10:30 p	75.5	75.9	75.1	73	66.2	5.0	ESE	2.50	16.0	75.5	77.6	77.6	29.884	0.00	0.000	0.219	79.9	67	68.0	82.1	30
05/14/01	11:00 p	75.3	75.7	75.0	73	66.0	4.0	ESE	2.00	13.0	75.3	77.3	77.3	29.889	0.00	0.000	0.215	79.7	67	67.8	81.9	30
05/14/01	11:30 p	75.2	75.5	74.7	73	65.9	4.0	ESE	2.00	12.0	75.2	77.2	77.2	29.889	0.00	0.000	0.212	79.5	67	67.6	81.6	30
05/15/01	12:00 a	75.1	75.4	74.7	73	65.9	4.0	ESE	2.00	14.0	75.1	77.1	77.1	29.889	0.00	0.000	0.210	79.2	67	67.3	81.2	30
05/15/01	12:30 a	75.0	75.4	74.6	73	65.8	3.0	ESE	1.50	13.0	75.0	76.9	76.9	29.890	0.00	0.000	0.208	79.1	67	67.2	81.1	30
05/15/01	1:00 a	74.7	75.2	74.3	73	65.5	3.0	SE	1.50	9.0	74.7	76.6	76.6	29.882	0.00	0.000	0.202	78.8	67	66.9	80.7	30
05/15/01	1:30 a	74.4	74.9	74.0	74	65.6	3.0	SE	1.50	8.0	74.4	76.3	76.3	29.873	0.00	0.000	0.196	78.6	67	66.7	80.4	30
05/15/01	2:00 a	74.2	74.6	73.7	74	65.4	2.0	SE	1.00	9.0	74.2	76.1	76.1	29.868	0.00	0.000	0.192	78.3	67	66.4	80.0	30
05/15/01	2:30 a	73.8	74.2	73.3	74	65.0	2.0	SE	1.00	7.0	73.8	75.6	75.6	29.866	0.00	0.000	0.183	78.0	67	66.2	79.6	30
05/15/01	3:00 a	73.3	73.8	72.8	74	64.5	1.0	SSE	0.50	6.0	73.3	74.8	74.8	29.859	0.00	0.000	0.173	77.7	66	65.4	79.2	30
05/15/01	3:30 a	72.9	73.4	72.4	74	64.1	1.0	SSE	0.50	5.0	72.9	74.3	74.3	29.860	0.00	0.000	0.165	77.4	65	64.7	78.7	30
05/15/01	4:00 a	72.6	73.0	72.3	74	63.8	2.0	SE	1.00	5.0	72.6	73.8	73.8	29.861	0.00	0.000	0.158	77.1	66	64.9	78.5	30
05/15/01	4:30 a	72.5	72.9	72.1	74	63.7	2.0	SSE	1.00	7.0	72.5	73.7	73.7	29.861	0.00	0.000	0.156	76.8	66	64.6	78.2	30
05/15/01	5:00 a	72.2	72.7	71.7	76	64.2	0.0	SSE	0.00	3.0	72.2	73.4	73.4	29.862	0.00	0.000	0.150	76.5	66	64.3	77.9	30
05/15/01	5:30 a	71.6	72.1	70.8	76	63.6	0.0	SSE	0.00	1.0	71.6	72.6	72.6	29.871	0.00	0.000	0.137	76.2	66	64.0	77.5	30
05/15/01	6:00 a	70.7	71.3	70.1	78	63.5	0.0	---	0.00	0.0	70.7	71.7	71.7	29.872	0.00	0.000	0.119	75.9	65	63.3	77.1	30
05/15/01	6:30 a	70.7	71.3	70.1	77	63.1	1.0	SSE	0.50	3.0	70.7	71.6	71.6	29.881	0.00	0.000	0.119	75.5	66	63.3	76.9	30
05/15/01	7:00 a	71.5	72.2	70.8	76	63.5	1.0	SSE	0.50	5.0	71.5	72.5	72.5	29.891	0.00	0.000	0.135	75.5	67	63.8	76.9	30
05/15/01	7:30 a	72.7	74.1	71.7	71	62.8	3.0	SSE	1.50	12.0	72.7	73.8	73.8	29.895	0.00	0.000	0.160	75.8	67	64.1	77.2	30
05/15/01	8:00 a	74.5	75.2	73.6	69	63.7	5.0	SE	2.50	12.0	74.5	76.1	76.1	29.900	0.00	0.000	0.198	76.6	68	65.2	78.2	30
05/15/01	8:30 a	76.4	78.5	74.8	64	63.3	5.0	SSE	2.50	17.0	76.4	77.5	77.5	29.896	0.00	0.000	0.238	77.6	68	66.2	79.3	30
05/15/01	9:00 a	78.8	79.3	78.0	58	62.8	5.0	ESE	2.50	15.0	78.8	79.7	79.7	29.891	0.00	0.000	0.288	78.9	65	66.1	80.6	30
05/15/01	9:30 a	79.8	80.7	78.6	56	62.7	6.0	ESE	3.00	18.0	79.8	80.6	80.6	29.891	0.00	0.000	0.308	79.8	63	66.1	81.5	30
05/15/01	10:00 a	81.0	82.3	79.6	50	60.6	5.0	SE	2.50	16.0	81.0	81.2	81.2	29.879	0.00	0.000	0.333	80.7	61	66.0	82.4	30
05/15/01	10:30 a	83.1	84.1	82.0	48	61.4	5.0	SE	2.50	15.0	83.1	84.1	84.1	29.871	0.00	0.000	0.377	82.1	59	66.4	84.2	30
05/15/01	11:00 a	84.8	85.7	83.9	48	62.9	7.0	ESE	3.50	18.0	84.8	86.3	86.3	29.864	0.00	0.000	0.413	83.4	58	67.1	86.1	30
05/15/01	11:30 a	86.2	87.1	85.4	43	61.1	6.0	ESE	3.00	20.0	86.2	87.0	87.0	29.852	0.00	0.000	0.442	84.5	57	67.6	87.8	30
05/15/01	12:00 p	87.3	87.9	86.5	42	61.4	7.0	ESE	3.50	19.0	87.3	88.1	88.1	29.839	0.00	0.000	0.465	85.5	55	67.5	88.8	30
05/15/01	12:30 p	88.5	89.1	87.4	39	60.4	7.0	ESE	3.50	20.0	88.5	88.8	88.8	29.826	0.00	0.000	0.490	86.5	53	67.3	90.1	30
05/15/01	1:00 p	89.4	90.2	88.3	39	61.2	7.0	ESE	3.50	24.0	89.4	90.2	90.2	29.820	0.00	0.000	0.508	87.2	52	67.4	91.0	30
05/15/01	1:30 p	90.1	90.5	89.4	38	61.1	7.0	SE	3.50	20.0	90.1	90.8	90.8	29.808	0.00	0.000	0.523	87.9	51	67.5	91.6	30
05/15/01	2:00 p	89.9	90.8	88.5	37	60.1	7.0	ESE	3.50	21.0	89.9	90.3	90.3	29.798	0.00	0.000	0.519	88.3	48	66.1	91.4	30
05/15/01	2:30 p	88.3	89.7	87.0	39	60.2	7.0	SE	3.50	19.0	88.3	88.4	88.4	29.787	0.00	0.000	0.485	88.2	47	65.4	90.8	30
05/15/01	3:00 p	88.9	89.4	87.8	37	59.3	7.0	SE	3.50	18.0	88.9	88.8	88.8	29.776	0.00	0.000	0.498	87.9	47	65.2	90.3	30
05/15/01	3:30 p	89.6	90.2	88.9	37	59.9	7.0	SE	3.50	18.0	89.6	89.8	89.8	29.762	0.00	0.000	0.512	88.1	47	65.3	90.6	30
05/15/01	4:00 p	89.6	89.9	89.2	38	60.6	8.0	SE	4.00	20.0	89.6	90.1	90.1	29.760	0.00	0.000	0.512	88.3	47	65.5	91.1	30
05/15/01	4:30 p	89.4	89.9	88.9	40	61.9	6.0	SE	3.00	19.0	89.4	90.5	90.5	29.753	0.00	0.000	0.508	88.5	48	66.3	91.8	30
05/15/01	5:00 p	87.9	89.0	87.2	41	61.3	7.0	ESE	3.50	15.0	87.9	88.3	88.3	29.748	0.00	0.000	0.477	88.6	47	65.8	91.7	30
05/15/01	5:30 p	86.5	87.4	85.2	41	60.0	6.0	SE	3.00	18.0	86.5	87.0	87.0	29.744	0.00	0.000	0.448	87.9	47	65.2	90.3	30
05/15/01	6:00 p	83.8	85.2	82.3	46	60.8	5.0	SE	2.50	14.0	83.8	84.9	84.9	29.743	0.00	0.000	0.392	86.6	47	64.0	88.5	30
05/15/01	6:30 p	81.6	82.4	80.5	50	61.2	5.0	SE	2.50	13.0	81.6	82.0	82.0	29.748	0.00	0.000	0.346	84.5	50	63.8	86.3	30
05/15/01	7:00 p	79.7	80.5	79.0	53	61.1	4.0	SSE	2.00	12.0	79.7	80.2	80.2	29.755	0.00	0.000	0.306	83.0	52	63.6	84.5	30
05/15/01	7:30 p	78.3	79.1	77.5	54	60.3	3.0	SSE	1.50	9.0	78.3	78.7	78.7	29.762	0.00	0.000	0.277	81.9	52	62.5	82.8	30
05/15/01	8:00 p	77.0	77.6	76.4	55	59.6	3.0	SSE	1.50	7.0	77.0	77.3	77.3	29.762	0.00	0.000	0.250	81.3	52	62.0	81.9	30
05/15/01	8:30 p	76.0	76.5	75.3	57	59.7	2.0	S	1.00	6.0	76.0	76.5	76.5	29.769	0.00	0.000	0.229	80.8	52	61.5	81.3	30
05/15/01	9:00 p	75.1	75.4	74.7	60	60.3	2.0	S	1.00	6.0	75.1	76.0	76.0	29.774	0.00	0.000	0.210	80.3	53	61.6	80.8	30
05/15/01	9:30 p	74.2	74.7	73.6	61	59.9	3.0	S	1.50	10.0	74.2	75.0	75.0	29.786	0.00	0.000	0.192	79.7	53	61.1	80.2	30
05/15/01	10:00 p	73.5	74.1	72.9	62	59.7	3.0	SSW	1.50	9.0	73.5	74.2	74.2	29.794	0.00	0.000	0.177	79.2	54	61.1	79.7	30
05/15/01	10:30 p	72.8	73.3	72.3	62	59.0	3.0	SSW	1.50	10.0	72.8	73.2	73.2	29.798	0.00	0.000	0.163	78.7	54	60.7	79.2	30
05/15/01	11:00 p	72.4	72.8	72.0	61	58.2	3.0	SSW	1.50	9.0	72.4	72.6	72.6	29.797	0.00	0.000	0.154	78.3	54	60.3	78.7	30
05/15/01	11:30 p	72.4	72.7	72.1	60	57.7	3.0	S	1.50	8.0	72.4	72.5	72.5	29.785	0.00	0.000	0.154	78.0	54	60.0	78.4	30
05/16/01	12:00 a	72.1	72.6	71.5	61	57.9	3.0	SSW	1.50	8.0	72.1	72.1	72.1	29.772	0.00	0.000	0.148	77.7	54	59.7	78.0	30
05/16/01	12:30 a	71.5	72.0	71.0	62	57.8	3.0	SSW	1.50	7.0	71.5	71.4	71.4	29.760	0.00	0.000	0.135	77.3	54	59.4	77.6	30
05/16/01	1:00 a	70.8	71.5	70.3	65	58.4	3.0	SSW	1.50	11.0	70.8	70.7	70.7	29.748	0.00	0.000	0.121	76.9	55	59.5	77.2	30
05/16/01	1:30 a	70.3	70.7	69.9	70	60.1	3.0	SW	1.50	9.0	70.3	70.5	70.5	29.742	0.00	0.000	0.110	76.5	57	60.1	77.0	30
05/16/01	2:00 a	69.9	70.4	69.4	72	60.5	2.0	SW	1.00	7.0	69.9	70.2	70.2	29.735	0.00	0.000	0.102	76.2	58	60.3	76.8	30
05/16/01	2:30 a	69.5	69.9	69.0	74	60.8	2.0	SW	1.00	5.0	69.5	70.2	70.2	29.733	0.00	0.000	0.094	75.8	58	60.0	76.4	30
05/16/01	3:00 a	69.2	69.5	68.8	76	61.3	1.0	SSW	0.50	3.0	69.2	70.2	70.2	29.744	0.00	0.000	0.087	75.5	59	60.2	76.2	30
05/16/01	3:30 a	68.9	69.3	68.5	77	61.4	0.0	SW	0.00	3.0	68.9	70.1	70.1	29.751	0.00	0.000	0.081	75.1	59	59.8	75.9	30
05/16/01	4:00 a	68.5	69.0	68.0	78	61.4	0.0	---	0.00	2.0	68.5	69.7	69.7	29.756	0.00	0.000	0.073	74.8	59	59.5	75.6	30
05/16/01	4:30 a	68.2	68.6	67.8	79	61.4	1.0	SW	0.50	5.0	68.2	69.5	69.5	29.761	0.00	0.000	0.067	74.5	60	59.7	75.3	30
05/16/01	5:00 a	68.2	68.6	67.8	79	61.4	1.0	WSW	0.50	5.0	68.2	69.5	69.5	29.760	0.00	0.000	0.067	74.3	62	60.4	75.2	30
05/16/01	5:30 a	68.3	68.6	67.9	80	61.9	1.0	WSW	0.50	5.0	68.3	69.7	69.7	29.763	0.00	0.000	0.069	74.2	62	60.3	75.1	30
05/16/01	6:00 a	68.1	68.5	67.7	81	62.0	0.0	SW	0.00	3.0	68.1	69.5	69.5	29.771	0.00	0.000	0.065	74.0	62	60.2	74.9	30
05/16/01	6:30 a	68.1	68.5	67.7	82	62.4	1.0	SW	0.50	4.0	68.1	69.5	69.5	29.780	0.00	0.000	0.065	73.8	62	60.0	74.6	30
05/16/01	7:00 a	68.5	69.1	67.9	85	63.8	2.0	WSW	1.00	7.0	68.5	70.2	70.2	29.783	0.00	0.000	0.073	73.8	65	61.3	74.9	30
05/16/01	7:30 a	69.2	69.9	68.6	85	64.5	2.0	WNW	1.00	8.0	69.2	70.9	70.9	29.783	0.00	0.000	0.087	74.0	68	62.8	75.4	30
05/16/01	8:00 a	70.8	72.5	69.7	81	64.7	3.0	WNW	1.50	9.0	70.8	72.2	72.2	29.788	0.00	0.000	0.121	74.6	69	63.8	76.2	30
05/16/01	8:30 a	73.7	74.6	72.2	77	66.0	5.0	NW	2.50	16.0	73.7	75.5	75.5	29.790	0.00	0.000	0.181	75.7	72	66.0	77.7	30
05/16/01	9:00 a	74.1	74.6	73.5	76	66.0	5.0	NW	2.50	15.0	74.1	76.0	76.0	29.783	0.00	0.000	0.190	76.8	71	66.7	78.8	30
05/16/01	9:30 a	76.0	77.6	74.3	68	64.7	4.0	NW	2.00	11.0	76.0	77.6	77.6	29.772	0.00	0.000	0.229	77.8	71	67.6	79.9	30
05/16/01	10:00 a	78.8	80.4	77.2	63	65.1	5.0	NW	2.50	12.0	78.8	80.2	80.2	29.759	0.00	0.000	0.288	79.2	70	68.6	81.6	30
05/16/01	10:30 a	81.9	83.5	80.1	57	65.2	4.0	WSW	2.00	10.0	81.9	83.6	83.6	29.749	0.00	0.000	0.352	80.7	68	69.2	83.6	30
05/16/01	11:00 a	84.9	86.8	83.3	51	64.8	3.0	WSW	1.50	10.0	84.9	86.9	86.9	29.739	0.00	0.000	0.415	82.1	65	69.2	85.4	30
05/16/01	11:30 a	87.5	89.3	86.2	45	63.5	3.0	NNW	1.50	11.0	87.5	89.1	89.1	29.726	0.00	0.000	0.469	83.7	63	69.8	87.9	30
05/16/01	12:00 p	90.1	91.0	89.0	41	63.2	2.0	SW	1.00	8.0	90.1	91.8	91.8	29.710	0.00	0.000	0.523	85.3	61	70.3	90.4	30
05/16/01	12:30 p	91.9	94.0	90.3	41	64.8	3.0	NW	1.50	11.0	91.9	94.8	94.8	29.698	0.00	0.000	0.560	86.9	58	70.3	92.7	30
05/16/01	1:00 p	93.5	94.2	92.6	41	66.3	2.0	NW	1.00	8.0	93.5	97.7	97.7	29.675	0.00	0.000	0.594	88.2	55	70.0	93.6	30
05/16/01	1:30 p	92.7	95.0	91.5	36	61.8	3.0	ENE	1.50	8.0	92.7	94.0	94.0	29.667	0.00	0.000	0.577	89.4	55	71.1	96.2	30
05/16/01	2:00 p	93.5	94.8	92.6	40	65.6	3.0	NE	1.50	9.0	93.5	97.2	97.2	29.652	0.00	0.000	0.594	90.4	54	71.5	97.8	30
05/16/01	2:30 p	93.4	94.4	92.8	39	64.7	3.0	ENE	1.50	8.0	93.4	96.5	96.5	29.637	0.00	0.000	0.592	91.2	53	71.7	99.1	30
05/16/01	3:00 p	94.3	95.3	93.4	38	64.8	3.0	ENE	1.50	8.0	94.3	97.6	97.6	29.625	0.00	0.000	0.610	91.8	52	71.7	99.9	30
05/16/01	3:30 p	93.5	94.4	92.7	41	66.3	3.0	ENE	1.50	10.0	93.5	97.7	97.7	29.614	0.00	0.000	0.594	92.3	51	71.6	100.4	30
05/16/01	4:00 p	92.6	93.7	91.1	41	65.5	4.0	NE	2.00	10.0	92.6	96.1	96.1	29.616	0.00	0.000	0.575	92.4	50	71.1	99.9	30
05/16/01	4:30 p	92.6	93.3	91.6	40	64.8	4.0	ESE	2.00	12.0	92.6	95.6	95.6	29.612	0.00	0.000	0.575	92.5	50	71.2	100.1	30
05/16/01	5:00 p	92.8	93.4	91.8	44	67.7	4.0	ESE	2.00	12.0	92.8	97.9	97.9	29.610	0.00	0.000	0.579	92.4	50	71.1	99.9	30
05/16/01	5:30 p	90.8	92.2	89.5	46	67.2	3.0	ESE	1.50	12.0	90.8	95.1	95.1	29.602	0.00	0.000	0.538	91.9	50	70.6	98.9	30
05/16/01	6:00 p	88.9	89.9	88.4	48	66.7	3.0	ESE	1.50	11.0	88.9	92.8	92.8	29.599	0.00	0.000	0.498	91.0	51	70.4	97.6	30
05/16/01	6:30 p	87.8	88.7	86.7	49	66.3	3.0	ESE	1.50	11.0	87.8	90.8	90.8	29.608	0.00	0.000	0.475	89.7	52	69.7	95.5	30
05/16/01	7:00 p	85.6	87.1	84.1	52	66.0	2.0	SE	1.00	8.0	85.6	88.2	88.2	29.626	0.00	0.000	0.429	88.4	52	68.5	93.0	30
05/16/01	7:30 p	83.3	84.5	82.0	54	64.9	2.0	SSE	1.00	6.0	83.3	85.3	85.3	29.635	0.00	0.000	0.381	86.9	53	67.7	90.9	30
05/16/01	8:00 p	81.3	82.4	80.2	58	65.1	1.0	SE	0.50	6.0	81.3	82.8	82.8	29.646	0.00	0.000	0.340	85.6	54	67.0	88.7	30
05/16/01	8:30 p	79.9	80.6	79.0	61	65.2	1.0	SE	0.50	5.0	79.9	81.3	81.3	29.647	0.00	0.000	0.310	84.6	55	66.7	87.4	30
05/16/01	9:00 p	78.8	79.5	78.0	62	64.7	1.0	SSE	0.50	3.0	78.8	80.1	80.1	29.661	0.00	0.000	0.288	83.7	56	66.3	86.3	30
05/16/01	9:30 p	77.7	78.4	77.1	66	65.4	1.0	SSE	0.50	4.0	77.7	79.2	79.2	29.670	0.00	0.000	0.265	82.9	58	66.6	85.2	30
05/16/01	10:00 p	76.9	77.4	76.3	68	65.5	0.0	SSE	0.00	2.0	76.9	78.6	78.6	29.679	0.00	0.000	0.248	82.1	58	65.9	84.0	30
05/16/01	10:30 p	76.1	76.7	75.3	70	65.6	1.0	SW	0.50	5.0	76.1	77.9	77.9	29.689	0.00	0.000	0.231	81.6	58	65.4	83.3	30
05/16/01	11:00 p	75.1	75.7	74.4	72	65.5	2.0	SSW	1.00	7.0	75.1	77.0	77.0	29.690	0.00	0.000	0.210	81.1	59	65.4	82.7	30
05/16/01	11:30 p	74.1	74.9	73.3	72	64.5	1.0	NW	0.50	6.0	74.1	75.8	75.8	29.694	0.00	0.000	0.190	80.5	59	64.9	81.9	30
05/17/01	12:00 a	73.2	73.7	72.6	71	63.2	0.0	WNW	0.00	2.0	73.2	74.5	74.5	29.685	0.00	0.000	0.171	80.0	58	63.9	81.1	30
05/17/01	12:30 a	72.5	73.1	71.8	73	63.4	1.0	WSW	0.50	4.0	72.5	73.6	73.6	29.687	0.00	0.000	0.156	79.4	58	63.3	80.4	30
05/17/01	1:00 a	71.8	72.3	71.3	72	62.3	1.0	WSW	0.50	4.0	71.8	72.6	72.6	29.689	0.00	0.000	0.142	78.8	58	62.8	79.7	30
05/17/01	1:30 a	71.2	71.8	70.6	73	62.1	0.0	WSW	0.00	2.0	71.2	71.9	71.9	29.687	0.00	0.000	0.129	78.4	57	61.9	79.1	30
05/17/01	2:00 a	70.6	71.1	70.0	72	61.1	0.0	WSW	0.00	2.0	70.6	71.1	71.1	29.687	0.00	0.000	0.117	77.9	57	61.4	78.5	30
05/17/01	2:30 a	69.9	70.5	69.4	73	60.8	0.0	WSW	0.00	2.0	69.9	70.3	70.3	29.689	0.00	0.000	0.102	77.3	56	60.4	77.8	30
05/17/01	3:00 a	69.4	69.9	68.8	73	60.4	0.0	WSW	0.00	2.0	69.4	70.0	70.0	29.692	0.00	0.000	0.092	76.7	56	59.8	77.1	30
05/17/01	3:30 a	68.8	69.3	68.3	74	60.2	0.0	WSW	0.00	2.0	68.8	69.7	69.7	29.701	0.00	0.000	0.079	76.3	56	59.4	76.7	30
05/17/01	4:00 a	68.3	68.8	67.8	76	60.4	0.0	WSW	0.00	2.0	68.3	69.3	69.3	29.708	0.00	0.000	0.069	75.8	56	59.0	76.2	30
05/17/01	4:30 a	67.8	68.3	67.4	78	60.7	0.0	WSW	0.00	3.0	67.8	68.9	68.9	29.715	0.00	0.000	0.058	75.4	57	59.1	76.0	30
05/17/01	5:00 a	67.5	67.8	67.0	80	61.1	0.0	WSW	0.00	3.0	67.5	68.7	68.7	29.726	0.00	0.000	0.052	75.0	57	58.7	75.7	30
05/17/01	5:30 a	67.3	67.6	66.9	82	61.6	0.0	WSW	0.00	3.0	67.3	68.5	68.5	29.738	0.00	0.000	0.048	74.7	58	58.9	75.4	30
05/17/01	6:00 a	67.1	67.5	66.8	82	61.4	0.0	---	0.00	0.0	67.1	68.3	68.3	29.763	0.00	0.000	0.044	74.4	58	58.7	75.0	30
05/17/01	6:30 a	67.5	68.2	67.0	83	62.2	0.0	---	0.00	0.0	67.5	68.8	68.8	29.779	0.00	0.000	0.052	74.3	59	59.0	75.0	30
05/17/01	7:00 a	68.4	69.2	67.7	85	63.7	1.0	WSW	0.50	4.0	68.4	70.0	70.0	29.788	0.00	0.000	0.071	74.3	61	60.0	75.2	30
05/17/01	7:30 a	69.6	70.7	68.6	87	65.6	2.0	NW	1.00	7.0	69.6	71.4	71.4	29.797	0.00	0.000	0.096	74.5	66	62.4	75.8	30
05/17/01	8:00 a	71.6	73.1	70.3	84	66.5	3.0	NW	1.50	9.0	71.6	73.3	73.3	29.793	0.00	0.000	0.137	75.2	67	63.5	76.7	30
05/17/01	8:30 a	74.3	76.2	72.5	76	66.2	3.0	NW	1.50	8.0	74.3	76.3	76.3	29.788	0.00	0.000	0.194	76.4	71	66.3	78.4	30
05/17/01	9:00 a	77.7	79.7	75.8	67	65.9	3.0	NW	1.50	7.0	77.7	79.3	79.3	29.783	0.00	0.000	0.265	78.0	70	67.4	80.0	30
05/17/01	9:30 a	81.4	83.3	79.3	59	65.7	2.0	SSW	1.00	5.0	81.4	83.1	83.1	29.776	0.00	0.000	0.342	79.7	70	69.0	82.3	30
05/17/01	10:00 a	84.5	86.5	83.0	52	64.9	1.0	NW	0.50	5.0	84.5	86.7	86.7	29.770	0.00	0.000	0.406	81.4	67	69.4	84.6	30
05/17/01	10:30 a	87.5	89.3	86.1	43	62.2	1.0	SW	0.50	6.0	87.5	88.6	88.6	29.760	0.00	0.000	0.469	83.2	63	69.3	86.9	30
05/17/01	11:00 a	90.3	91.9	88.9	37	60.5	3.0	WSW	1.50	9.0	90.3	90.9	90.9	29.749	0.00	0.000	0.527	84.8	59	68.9	88.8	30
05/17/01	11:30 a	92.6	93.2	91.5	35	61.0	3.0	SW	1.50	10.0	92.6	93.4	93.4	29.738	0.00	0.000	0.575	86.3	57	69.3	91.1	30
05/17/01	12:00 p	93.9	95.3	92.9	32	59.6	2.0	N	1.00	10.0	93.9	94.4	94.4	29.731	0.00	0.000	0.602	87.7	55	69.5	92.7	30
05/17/01	12:30 p	95.9	96.9	94.9	34	63.0	2.0	ENE	1.00	9.0	95.9	98.0	98.0	29.726	0.00	0.000	0.644	89.2	54	70.4	95.4	30
05/17/01	1:00 p	93.9	95.3	92.9	36	62.9	4.0	ENE	2.00	12.0	93.9	95.8	95.8	29.719	0.00	0.000	0.602	90.4	51	69.8	96.4	30
05/17/01	1:30 p	93.4	94.7	92.7	37	63.2	4.0	NE	2.00	10.0	93.4	95.5	95.5	29.712	0.00	0.000	0.592	91.1	50	69.9	97.3	30
05/17/01	2:00 p	93.5	94.1	92.7	37	63.3	3.0	NE	1.50	10.0	93.5	95.7	95.7	29.701	0.00	0.000	0.594	91.7	50	70.4	98.5	30
05/17/01	2:30 p	94.7	95.7	93.1	34	62.0	4.0	ENE	2.00	15.0	94.7	96.2	96.2	29.689	0.00	0.000	0.619	92.3	49	70.4	99.3	30
05/17/01	3:00 p	94.1	95.6	93.0	36	63.1	4.0	NE	2.00	10.0	94.1	96.1	96.1	29.682	0.00	0.000	0.606	92.7	49	70.7	100.1	30
05/17/01	3:30 p	94.4	95.1	93.5	36	63.3	4.0	ENE	2.00	11.0	94.4	96.6	96.6	29.671	0.00	0.000	0.613	93.1	49	71.1	100.9	30
05/17/01	4:00 p	94.7	95.8	93.3	37	64.4	5.0	ESE	2.50	15.0	94.7	97.7	97.7	29.664	0.00	0.000	0.619	93.2	48	70.6	100.7	30
05/17/01	4:30 p	93.3	94.0	92.8	37	63.1	5.0	ESE	2.50	13.0	93.3	95.4	95.4	29.659	0.00	0.000	0.590	93.3	47	70.1	100.4	30
05/17/01	5:00 p	92.7	93.9	91.7	39	64.1	4.0	ESE	2.00	15.0	92.7	95.3	95.3	29.655	0.00	0.000	0.577	93.4	47	70.2	100.6	30
05/17/01	5:30 p	92.1	93.0	91.1	40	64.3	4.0	ESE	2.00	15.0	92.1	94.7	94.7	29.657	0.00	0.000	0.565	92.8	47	69.6	99.4	30
05/17/01	6:00 p	90.6	91.8	89.7	45	66.3	4.0	ESE	2.00	10.0	90.6	94.4	94.4	29.668	0.00	0.000	0.533	91.9	48	69.4	98.0	30
05/17/01	6:30 p	88.9	90.0	87.7	48	66.7	4.0	SE	2.00	10.0	88.9	92.8	92.8	29.673	0.00	0.000	0.498	90.6	49	68.8	95.9	30
05/17/01	7:00 p	86.6	88.2	84.9	52	66.9	3.0	SSE	1.50	9.0	86.6	90.0	90.0	29.681	0.00	0.000	0.450	89.3	51	68.8	94.5	30
05/17/01	7:30 p	84.1	85.4	83.0	56	66.7	2.0	SE	1.00	7.0	84.1	87.0	87.0	29.698	0.00	0.000	0.398	88.0	53	68.7	92.4	30
05/17/01	8:00 p	82.4	83.3	81.5	59	66.6	2.0	SE	1.00	6.0	82.4	84.6	84.6	29.706	0.00	0.000	0.363	86.8	54	68.2	91.0	30
05/17/01	8:30 p	81.2	82.0	80.5	63	67.4	1.0	S	0.50	5.0	81.2	83.5	83.5	29.720	0.00	0.000	0.337	85.8	56	68.3	89.7	30
05/17/01	9:00 p	80.1	80.8	79.2	65	67.3	1.0	SE	0.50	4.0	80.1	82.1	82.1	29.725	0.00	0.000	0.315	84.9	57	68.0	88.4	30
05/17/01	9:30 p	79.1	79.7	78.6	65	66.3	2.0	SSE	1.00	5.0	79.1	80.8	80.8	29.731	0.00	0.000	0.294	84.2	57	67.3	87.3	30
05/17/01	10:00 p	78.6	79.1	78.1	67	66.7	1.0	SE	0.50	5.0	78.6	80.4	80.4	29.740	0.00	0.000	0.283	83.5	59	67.7	86.5	30
05/17/01	10:30 p	77.7	78.6	77.0	66	65.4	3.0	SSW	1.50	11.0	77.7	79.2	79.2	29.750	0.00	0.000	0.265	82.8	59	67.0	85.2	30
05/17/01	11:00 p	77.0	77.5	76.5	67	65.2	3.0	S	1.50	9.0	77.0	78.5	78.5	29.748	0.00	0.000	0.250	82.2	60	66.9	84.5	30
05/17/01	11:30 p	76.6	77.0	76.2	68	65.2	4.0	S	2.00	11.0	76.6	78.2	78.2	29.754	0.00	0.000	0.242	81.8	60	66.6	83.9	30
05/18/01	12:00 a	76.2	76.7	75.8	69	65.3	3.0	SSW	1.50	8.0	76.2	77.9	77.9	29.757	0.00	0.000	0.233	81.5	60	66.3	83.4	30
05/18/01	12:30 a	75.8	76.2	75.2	70	65.3	3.0	SSW	1.50	8.0	75.8	77.6	77.6	29.764	0.00	0.000	0.225	81.1	61	66.4	83.0	30
05/18/01	1:00 a	75.1	75.7	74.5	71	65.1	2.0	SW	1.00	6.0	75.1	76.9	76.9	29.761	0.00	0.000	0.210	80.7	60	65.5	82.3	30
05/18/01	1:30 a	74.4	74.9	73.8	73	65.2	1.0	SSW	0.50	5.0	74.4	76.2	76.2	29.756	0.00	0.000	0.196	80.3	60	65.1	81.7	30
05/18/01	2:00 a	73.8	74.3	73.2	73	64.6	1.0	SSW	0.50	4.0	73.8	75.5	75.5	29.761	0.00	0.000	0.183	79.9	60	64.8	81.2	30
05/18/01	2:30 a	73.0	73.6	72.5	74	64.2	1.0	SSW	0.50	4.0	73.0	74.4	74.4	29.759	0.00	0.000	0.167	79.4	60	64.3	80.6	30
05/18/01	3:00 a	72.5	73.0	71.9	74	63.7	0.0	SSW	0.00	2.0	72.5	73.7	73.7	29.763	0.00	0.000	0.156	79.0	60	63.9	80.1	30
05/18/01	3:30 a	71.8	72.4	71.3	74	63.1	0.0	SSW	0.00	1.0	71.8	72.7	72.7	29.764	0.00	0.000	0.142	78.5	60	63.5	79.5	30
05/18/01	4:00 a	71.2	71.8	70.6	75	62.9	0.0	SSW	0.00	2.0	71.2	72.0	72.0	29.768	0.00	0.000	0.129	78.0	59	62.5	78.8	30
05/18/01	4:30 a	70.5	71.0	70.0	77	62.9	0.0	SSW	0.00	1.0	70.5	71.4	71.4	29.779	0.00	0.000	0.115	77.5	60	62.5	78.4	30
05/18/01	5:00 a	69.9	70.4	69.2	78	62.7	0.0	---	0.00	0.0	69.9	70.8	70.8	29.791	0.00	0.000	0.102	77.0	59	61.6	77.7	30
05/18/01	5:30 a	69.1	69.7	68.6	79	62.3	0.0	SSW	0.00	2.0	69.1	70.5	70.5	29.799	0.00	0.000	0.085	76.6	60	61.7	77.4	30
05/18/01	6:00 a	68.5	69.1	68.1	80	62.1	0.0	---	0.00	0.0	68.5	69.9	69.9	29.813	0.00	0.000	0.073	76.1	60	61.2	76.8	30
05/18/01	6:30 a	68.6	69.0	68.2	81	62.5	0.0	SSW	0.00	3.0	68.6	70.1	70.1	29.833	0.00	0.000	0.075	75.8	61	61.4	76.6	30
05/18/01	7:00 a	69.0	69.6	68.3	82	63.3	1.0	WSW	0.50	4.0	69.0	70.6	70.6	29.843	0.00	0.000	0.083	75.6	62	61.7	76.6	30
05/18/01	7:30 a	69.9	70.9	69.1	82	64.2	2.0	WNW	1.00	6.0	69.9	71.2	71.2	29.846	0.00	0.000	0.102	75.6	66	63.4	76.9	30
05/18/01	8:00 a	71.7	73.3	70.4	79	64.8	2.0	NW	1.00	8.0	71.7	73.0	73.0	29.844	0.00	0.000	0.140	76.1	65	63.5	77.3	30
05/18/01	8:30 a	74.7	76.5	72.9	71	64.7	3.0	NW	1.50	8.0	74.7	76.4	76.4	29.850	0.00	0.000	0.202	77.4	68	66.0	79.1	30
05/18/01	9:00 a	78.1	80.1	76.1	60	63.1	2.0	NW	1.00	5.0	78.1	79.0	79.0	29.848	0.00	0.000	0.273	78.9	67	67.0	80.8	30
05/18/01	9:30 a	81.5	83.5	79.8	52	62.2	2.0	N	1.00	5.0	81.5	82.2	82.2	29.844	0.00	0.000	0.344	80.7	64	67.4	82.9	30
05/18/01	10:00 a	84.0	84.6	83.1	57	67.1	2.0	NE	1.00	9.0	84.0	87.0	87.0	29.841	0.00	0.000	0.396	82.5	64	69.1	85.8	30
05/18/01	10:30 a	84.4	85.9	83.5	57	67.5	3.0	ENE	1.50	10.0	84.4	87.6	87.6	29.834	0.00	0.000	0.404	84.0	63	70.0	88.6	30
05/18/01	11:00 a	86.3	87.4	85.3	47	63.7	3.0	ENE	1.50	9.0	86.3	88.0	88.0	29.830	0.00	0.000	0.444	85.1	61	70.1	90.0	30
05/18/01	11:30 a	86.3	87.3	85.6	44	61.8	2.0	ENE	1.00	7.0	86.3	87.4	87.4	29.820	0.00	0.000	0.444	86.1	55	68.0	89.9	30
05/18/01	12:00 p	87.5	88.7	85.8	44	62.9	4.0	ENE	2.00	10.0	87.5	88.9	88.9	29.811	0.00	0.000	0.469	86.8	53	67.6	90.7	30
05/18/01	12:30 p	84.8	86.2	83.8	51	64.7	4.0	NE	2.00	11.0	84.8	86.8	86.8	29.809	0.00	0.000	0.413	87.0	54	68.3	91.5	30
05/18/01	1:00 p	85.1	86.0	84.2	52	65.5	3.0	ENE	1.50	12.0	85.1	87.4	87.4	29.808	0.00	0.000	0.419	86.8	54	68.2	91.0	30
05/18/01	1:30 p	88.0	89.6	85.5	48	65.8	3.0	ENE	1.50	10.0	88.0	90.7	90.7	29.791	0.00	0.000	0.479	87.5	55	69.3	92.4	30
05/18/01	2:00 p	90.1	91.7	88.6	40	62.5	4.0	ENE	2.00	13.0	90.1	91.4	91.4	29.783	0.00	0.000	0.523	88.9	54	70.1	94.8	30
05/18/01	2:30 p	90.8	92.2	89.8	45	66.5	4.0	NE	2.00	11.0	90.8	94.7	94.7	29.765	0.00	0.000	0.538	89.9	53	70.5	96.3	30
05/18/01	3:00 p	90.0	90.9	89.4	49	68.3	5.0	ENE	2.50	12.0	90.0	94.7	94.7	29.751	0.00	0.000	0.521	90.6	53	71.1	97.8	30
05/18/01	3:30 p	89.6	90.6	88.5	49	67.9	3.0	ENE	1.50	12.0	89.6	94.2	94.2	29.751	0.00	0.000	0.512	90.8	53	71.3	98.2	30
05/18/01	4:00 p	90.1	90.9	89.3	48	67.8	6.0	E	3.00	17.0	90.1	94.6	94.6	29.747	0.00	0.000	0.523	91.0	54	72.0	99.2	30
05/18/01	4:30 p	89.7	91.1	88.3	53	70.3	6.0	ESE	3.00	19.0	89.7	96.0	96.0	29.743	0.00	0.000	0.515	91.0	54	72.0	99.2	30
05/18/01	5:00 p	88.3	89.7	87.1	52	68.4	6.0	ESE	3.00	16.0	88.3	92.8	92.8	29.744	0.00	0.000	0.485	90.9	54	72.0	99.0	30
05/18/01	5:30 p	88.8	89.8	87.5	54	70.0	6.0	ESE	3.00	17.0	88.8	94.6	94.6	29.741	0.00	0.000	0.496	90.5	55	72.1	98.6	30
05/18/01	6:00 p	87.1	88.0	86.2	57	70.0	6.0	SE	3.00	14.0	87.1	92.7	92.7	29.747	0.00	0.000	0.460	89.8	56	72.0	97.5	30
05/18/01	6:30 p	85.6	86.7	84.5	60	70.1	4.0	SE	2.00	12.0	85.6	90.7	90.7	29.747	0.00	0.000	0.429	88.7	57	71.5	95.5	30
05/18/01	7:00 p	83.5	85.0	82.1	64	70.0	4.0	SE	2.00	11.0	83.5	87.8	87.8	29.754	0.00	0.000	0.385	87.3	58	70.7	93.3	30
05/18/01	7:30 p	81.5	82.5	80.6	67	69.5	3.0	SE	1.50	7.0	81.5	84.8	84.8	29.761	0.00	0.000	0.344	86.1	60	70.6	91.7	30
05/18/01	8:00 p	80.3	81.0	79.6	71	70.0	2.0	SE	1.00	9.0	80.3	83.4	83.4	29.771	0.00	0.000	0.319	85.0	62	70.5	90.1	30
05/18/01	8:30 p	79.3	80.0	78.6	71	69.1	3.0	SSE	1.50	7.0	79.3	81.9	81.9	29.770	0.00	0.000	0.298	84.1	63	70.1	88.8	30
05/18/01	9:00 p	78.6	79.1	78.1	72	68.8	4.0	SE	2.00	10.0	78.6	81.0	81.0	29.777	0.00	0.000	0.283	83.4	65	70.4	87.8	30
05/18/01	9:30 p	78.1	78.6	77.6	71	67.9	3.0	SE	1.50	10.0	78.1	80.3	80.3	29.785	0.00	0.000	0.273	82.8	65	69.8	86.6	30
05/18/01	10:00 p	77.6	78.1	77.0	69	66.6	3.0	SSE	1.50	11.0	77.6	79.4	79.4	29.791	0.00	0.000	0.262	82.2	64	68.8	85.3	30
05/18/01	10:30 p	76.9	77.5	76.2	68	65.5	2.0	SSE	1.00	9.0	76.9	78.6	78.6	29.798	0.00	0.000	0.248	81.6	63	67.8	84.2	30
05/18/01	11:00 p	75.8	76.7	74.8	69	64.9	2.0	SW	1.00	6.0	75.8	77.5	77.5	29.802	0.00	0.000	0.225	81.0	62	66.8	83.0	30
05/18/01	11:30 p	74.5	75.2	73.6	68	63.2	2.0	SSW	1.00	6.0	74.5	76.0	76.0	29.803	0.00	0.000	0.198	80.5	61	65.8	82.2	30
05/19/01	12:00 a	73.6	74.1	73.1	69	62.8	2.0	SSW	1.00	6.0	73.6	74.9	74.9	29.808	0.00	0.000	0.179	80.0	61	65.3	81.4	30
05/19/01	12:30 a	72.9	73.6	72.3	71	62.9	1.0	SSW	0.50	4.0	72.9	74.0	74.0	29.801	0.00	0.000	0.165	79.4	60	64.3	80.6	30
05/19/01	1:00 a	72.1	72.8	71.3	72	62.6	0.0	SSW	0.00	2.0	72.1	73.0	73.0	29.797	0.00	0.000	0.148	78.9	60	63.8	80.0	30
05/19/01	1:30 a	70.9	71.8	70.1	74	62.2	0.0	---	0.00	0.0	70.9	71.6	71.6	29.793	0.00	0.000	0.123	78.3	59	62.8	79.2	30
05/19/01	2:00 a	70.1	70.7	69.6	76	62.2	1.0	SSW	0.50	3.0	70.1	70.8	70.8	29.793	0.00	0.000	0.106	77.7	60	62.7	78.6	30
05/19/01	2:30 a	69.7	70.1	69.2	76	61.8	0.0	SSW	0.00	3.0	69.7	70.5	70.5	29.793	0.00	0.000	0.098	77.2	60	62.2	78.0	30
05/19/01	3:00 a	69.3	69.8	68.7	79	62.5	1.0	SSW	0.50	3.0	69.3	70.6	70.6	29.798	0.00	0.000	0.090	76.8	61	62.3	77.7	30
05/19/01	3:30 a	68.7	69.2	68.3	80	62.3	2.0	SSW	1.00	7.0	68.7	70.1	70.1	29.799	0.00	0.000	0.077	76.3	62	62.3	77.2	30
05/19/01	4:00 a	68.6	68.9	68.3	81	62.5	2.0	S	1.00	7.0	68.6	70.1	70.1	29.804	0.00	0.000	0.075	76.0	63	62.5	77.0	30
05/19/01	4:30 a	68.4	68.8	68.1	81	62.3	1.0	SSW	0.50	4.0	68.4	69.8	69.8	29.811	0.00	0.000	0.071	75.7	64	62.7	76.8	30
05/19/01	5:00 a	68.2	68.6	67.8	82	62.5	1.0	SSW	0.50	5.0	68.2	69.6	69.6	29.816	0.00	0.000	0.067	75.4	64	62.4	76.6	30
05/19/01	5:30 a	68.0	68.4	67.7	82	62.3	1.0	SSW	0.50	5.0	68.0	69.4	69.4	29.823	0.00	0.000	0.063	75.1	64	62.1	76.3	30
05/19/01	6:00 a	68.0	68.4	67.7	82	62.3	1.0	SSW	0.50	5.0	68.0	69.4	69.4	29.829	0.00	0.000	0.063	74.8	64	61.8	76.0	30
05/19/01	6:30 a	68.8	69.6	67.9	81	62.7	2.0	SSW	1.00	6.0	68.8	70.3	70.3	29.839	0.00	0.000	0.079	74.8	65	62.2	76.1	30
05/19/01	7:00 a	69.8	70.5	69.0	80	63.3	2.0	SSW	1.00	7.0	69.8	71.0	71.0	29.840	0.00	0.000	0.100	74.8	66	62.7	76.2	30
05/19/01	7:30 a	70.8	71.6	70.0	80	64.3	3.0	SSW	1.50	8.0	70.8	72.1	72.1	29.839	0.00	0.000	0.121	75.0	67	63.3	76.5	30
05/19/01	8:00 a	72.3	73.6	71.0	77	64.7	3.0	SSW	1.50	7.0	72.3	73.6	73.6	29.836	0.00	0.000	0.152	75.7	70	65.2	77.5	30
05/19/01	8:30 a	75.0	76.4	73.3	72	65.4	4.0	SSW	2.00	12.0	75.0	76.9	76.9	29.830	0.00	0.000	0.208	77.0	73	67.7	79.3	30
05/19/01	9:00 a	78.0	79.7	76.1	63	64.4	4.0	SW	2.00	10.0	78.0	79.2	79.2	29.829	0.00	0.000	0.271	78.5	71	68.3	80.8	30
05/19/01	9:30 a	81.1	82.7	79.2	59	65.4	5.0	SSW	2.50	11.0	81.1	82.7	82.7	29.825	0.00	0.000	0.335	80.1	69	69.0	82.7	30
05/19/01	10:00 a	83.8	85.1	82.3	53	64.8	5.0	SSW	2.50	13.0	83.8	85.9	85.9	29.817	0.00	0.000	0.392	81.6	65	68.7	84.5	30
05/19/01	10:30 a	86.2	87.4	84.7	48	64.2	4.0	SW	2.00	11.0	86.2	88.1	88.1	29.810	0.00	0.000	0.442	83.0	62	68.6	86.2	30
05/19/01	11:00 a	88.4	89.9	87.1	43	63.1	4.0	SW	2.00	10.0	88.4	89.9	89.9	29.793	0.00	0.000	0.488	84.4	59	68.5	88.1	30
05/19/01	11:30 a	90.3	91.5	89.6	36	59.7	4.0	SW	2.00	11.0	90.3	90.6	90.6	29.779	0.00	0.000	0.527	85.7	56	68.2	89.5	30
05/19/01	12:00 p	92.3	93.4	91.1	33	59.0	3.0	NW	1.50	10.0	92.3	92.5	92.5	29.763	0.00	0.000	0.569	87.0	53	67.8	91.1	30
05/19/01	12:30 p	94.9	97.0	93.1	30	58.6	3.0	NW	1.50	11.0	94.9	95.2	95.2	29.745	0.00	0.000	0.623	88.4	52	68.5	93.0	30
05/19/01	1:00 p	97.3	98.5	96.1	26	56.7	3.0	NNW	1.50	8.0	97.3	97.1	97.1	29.726	0.00	0.000	0.673	89.8	50	68.7	94.8	30
05/19/01	1:30 p	96.0	98.8	92.6	43	69.9	3.0	NE	1.50	12.0	96.0	103.9	103.9	29.714	0.00	0.000	0.646	91.1	51	70.5	97.8	30
05/19/01	2:00 p	94.4	95.5	92.8	44	69.1	6.0	ESE	3.00	16.0	94.4	101.1	101.1	29.703	0.00	0.000	0.613	92.2	52	72.0	100.8	30
05/19/01	2:30 p	94.3	96.1	92.5	40	66.3	6.0	ESE	3.00	16.0	94.3	98.7	98.7	29.691	0.00	0.000	0.610	92.6	52	72.4	101.7	30
05/19/01	3:00 p	95.2	96.4	93.9	42	68.5	7.0	ESE	3.50	22.0	95.2	101.6	101.6	29.687	0.00	0.000	0.629	92.8	51	72.0	101.4	30
05/19/01	3:30 p	93.4	94.2	92.7	43	67.6	8.0	ESE	4.00	23.0	93.4	98.6	98.6	29.675	0.00	0.000	0.592	93.0	51	72.2	101.9	30
05/19/01	4:00 p	93.4	94.2	92.4	44	68.2	7.0	SE	3.50	17.0	93.4	99.1	99.1	29.671	0.00	0.000	0.592	92.6	51	71.8	101.0	30
05/19/01	4:30 p	92.3	93.1	91.4	45	67.9	7.0	SE	3.50	19.0	92.3	97.5	97.5	29.665	0.00	0.000	0.569	92.3	51	71.6	100.4	30
05/19/01	5:00 p	91.0	92.1	89.9	48	68.6	7.0	SE	3.50	19.0	91.0	96.3	96.3	29.662	0.00	0.000	0.542	92.1	51	71.4	99.9	30
05/19/01	5:30 p	89.0	90.2	87.8	50	67.9	7.0	SE	3.50	16.0	89.0	93.7	93.7	29.657	0.00	0.000	0.500	91.1	52	71.0	98.4	30
05/19/01	6:00 p	87.1	88.3	85.8	52	67.3	6.0	SE	3.00	18.0	87.1	90.9	90.9	29.657	0.00	0.000	0.460	89.7	53	70.3	96.0	30
05/19/01	6:30 p	85.2	86.4	84.1	53	66.1	5.0	SSE	2.50	17.0	85.2	87.8	87.8	29.656	0.00	0.000	0.421	87.6	54	68.9	92.2	30
05/19/01	7:00 p	83.3	84.5	82.2	55	65.4	4.0	SSE	2.00	10.0	83.3	85.4	85.4	29.664	0.00	0.000	0.381	86.0	55	68.0	89.7	30
05/19/01	7:30 p	81.5	82.6	80.5	57	64.8	4.0	SSE	2.00	11.0	81.5	83.0	83.0	29.676	0.00	0.000	0.344	84.6	56	67.2	87.6	30
05/19/01	8:00 p	80.3	80.9	79.5	60	65.1	3.0	SSE	1.50	10.0	80.3	81.7	81.7	29.690	0.00	0.000	0.319	83.4	58	67.1	86.1	30
05/19/01	8:30 p	79.4	80.0	78.7	63	65.7	2.0	SSE	1.00	7.0	79.4	81.0	81.0	29.697	0.00	0.000	0.300	82.6	61	67.8	85.3	30
05/19/01	9:00 p	78.5	79.1	77.9	65	65.8	2.0	S	1.00	7.0	78.5	80.1	80.1	29.699	0.00	0.000	0.281	82.0	62	67.7	84.6	30
05/19/01	9:30 p	77.7	78.3	77.0	68	66.3	3.0	S	1.50	8.0	77.7	79.4	79.4	29.708	0.00	0.000	0.265	81.6	62	67.3	84.0	30
05/19/01	10:00 p	76.8	77.5	76.2	69	65.9	3.0	SSW	1.50	10.0	76.8	78.6	78.6	29.716	0.00	0.000	0.246	81.6	61	66.8	83.8	30
05/19/01	10:30 p	76.2	76.7	75.8	71	66.1	3.0	S	1.50	8.0	76.2	78.1	78.1	29.718	0.00	0.000	0.233	81.4	61	66.7	83.5	30
05/19/01	11:00 p	75.7	76.2	75.2	72	66.0	3.0	S	1.50	9.0	75.7	77.7	77.7	29.720	0.00	0.000	0.223	80.9	62	66.7	82.9	30
05/19/01	11:30 p	75.2	75.7	74.6	74	66.3	3.0	S	1.50	8.0	75.2	77.3	77.3	29.723	0.00	0.000	0.212	80.6	62	66.4	82.4	30
05/20/01	12:00 a	74.6	75.1	74.0	75	66.1	2.0	SSW	1.00	8.0	74.6	76.6	76.6	29.730	0.00	0.000	0.200	80.2	63	66.5	82.0	30
05/20/01	12:30 a	73.9	74.5	73.3	76	65.9	2.0	S	1.00	7.0	73.9	75.8	75.8	29.720	0.00	0.000	0.185	79.8	63	66.1	81.5	30
05/20/01	1:00 a	73.3	73.8	72.8	76	65.3	2.0	SSW	1.00	6.0	73.3	75.0	75.0	29.716	0.00	0.000	0.173	79.4	63	65.7	81.0	30
05/20/01	1:30 a	72.8	73.3	72.2	78	65.5	1.0	SSW	0.50	5.0	72.8	74.4	74.4	29.710	0.00	0.000	0.163	79.0	63	65.3	80.5	30
05/20/01	2:00 a	72.1	72.7	71.5	79	65.2	1.0	SSW	0.50	4.0	72.1	73.5	73.5	29.709	0.00	0.000	0.148	78.6	63	64.9	80.0	30
05/20/01	2:30 a	71.6	72.0	71.1	81	65.5	2.0	SSW	1.00	6.0	71.6	73.0	73.0	29.704	0.00	0.000	0.137	78.2	64	65.0	79.6	30
05/20/01	3:00 a	71.2	71.6	70.9	82	65.4	3.0	SSW	1.50	7.0	71.2	72.7	72.7	29.697	0.00	0.000	0.129	77.9	65	65.2	79.3	30
05/20/01	3:30 a	71.1	71.4	70.8	83	65.7	3.0	SSW	1.50	7.0	71.1	72.7	72.7	29.701	0.00	0.000	0.127	77.6	67	65.8	79.2	30
05/20/01	4:00 a	71.2	71.6	70.8	85	66.5	2.0	SSW	1.00	7.0	71.2	73.0	73.0	29.703	0.00	0.000	0.129	77.4	67	65.6	79.0	30
05/20/01	4:30 a	71.4	71.8	71.0	86	67.0	3.0	SSW	1.50	8.0	71.4	73.3	73.3	29.707	0.00	0.000	0.133	77.2	69	66.2	79.0	30
05/20/01	5:00 a	71.2	71.7	70.6	85	66.5	2.0	SSW	1.00	6.0	71.2	73.0	73.0	29.722	0.00	0.000	0.129	77.0	68	65.6	78.7	30
05/20/01	5:30 a	70.7	71.2	70.1	85	66.0	1.0	SSW	0.50	5.0	70.7	72.4	72.4	29.727	0.00	0.000	0.119	76.8	68	65.4	78.4	30
05/20/01	6:00 a	70.1	70.6	69.7	85	65.4	2.0	SSW	1.00	6.0	70.1	71.6	71.6	29.732	0.00	0.000	0.106	76.5	68	65.1	78.1	30
05/20/01	6:30 a	70.2	70.6	69.8	83	64.8	1.0	SW	0.50	5.0	70.2	71.6	71.6	29.741	0.00	0.000	0.108	76.2	68	64.9	77.8	30
05/20/01	7:00 a	70.6	71.1	70.1	79	63.8	2.0	SW	1.00	6.0	70.6	71.7	71.7	29.749	0.00	0.000	0.117	76.1	68	64.8	77.7	30
05/20/01	7:30 a	70.8	71.1	70.4	78	63.6	2.0	SW	1.00	6.0	70.8	71.9	71.9	29.761	0.00	0.000	0.121	76.0	67	64.2	77.4	30
05/20/01	8:00 a	70.7	71.4	70.3	78	63.5	2.0	SW	1.00	7.0	70.7	71.7	71.7	29.768	0.00	0.000	0.119	75.9	68	64.6	77.5	30
05/20/01	8:30 a	72.5	74.2	71.0	74	63.7	2.0	NW	1.00	6.0	72.5	73.7	73.7	29.768	0.00	0.000	0.156	76.3	68	65.0	77.9	30
05/20/01	9:00 a	75.9	78.7	73.9	66	63.7	2.0	NW	1.00	7.0	75.9	77.2	77.2	29.763	0.00	0.000	0.227	77.4	70	66.8	79.3	30
05/20/01	9:30 a	80.0	82.0	78.3	57	63.4	3.0	WNW	1.50	8.0	80.0	80.9	80.9	29.754	0.00	0.000	0.313	79.2	67	67.3	81.2	30
05/20/01	10:00 a	83.1	84.1	81.6	48	61.4	3.0	SW	1.50	9.0	83.1	84.1	84.1	29.747	0.00	0.000	0.377	80.8	65	67.9	83.2	30
05/20/01	10:30 a	84.6	86.1	83.5	46	61.5	3.0	WSW	1.50	8.0	84.6	85.8	85.8	29.735	0.00	0.000	0.408	82.1	61	67.3	84.6	30
05/20/01	11:00 a	87.5	89.2	85.6	40	60.2	3.0	SW	1.50	10.0	87.5	87.8	87.8	29.728	0.00	0.000	0.469	83.9	58	67.5	87.1	30
05/20/01	11:30 a	90.7	92.5	88.9	36	60.1	3.0	SW	1.50	9.0	90.7	91.1	91.1	29.722	0.00	0.000	0.535	85.6	54	67.0	88.7	30
05/20/01	12:00 p	93.8	95.0	92.2	33	60.3	3.0	SW	1.50	11.0	93.8	94.6	94.6	29.707	0.00	0.000	0.600	87.5	51	67.1	91.1	30
05/20/01	12:30 p	94.9	96.1	92.6	47	71.5	3.0	ENE	1.50	11.0	94.9	103.8	103.8	29.695	0.00	0.000	0.623	89.3	54	70.5	95.6	30
05/20/01	1:00 p	93.5	94.4	92.5	46	69.6	6.0	ESE	3.00	17.0	93.5	100.3	100.3	29.680	0.00	0.000	0.594	90.6	55	72.2	98.8	30
05/20/01	1:30 p	93.0	93.7	92.5	45	68.5	5.0	ENE	2.50	15.0	93.0	98.8	98.8	29.672	0.00	0.000	0.583	91.3	54	72.3	99.9	30
05/20/01	2:00 p	92.3	93.5	90.8	43	66.6	6.0	ENE	3.00	18.0	92.3	96.5	96.5	29.661	0.00	0.000	0.569	91.8	52	71.7	99.9	30
05/20/01	2:30 p	92.2	93.7	91.0	45	67.8	6.0	ESE	3.00	18.0	92.2	97.3	97.3	29.652	0.00	0.000	0.567	92.0	52	71.9	100.3	30
05/20/01	3:00 p	92.4	93.6	91.2	45	68.0	7.0	ESE	3.50	21.0	92.4	97.7	97.7	29.641	0.00	0.000	0.571	92.2	53	72.6	101.4	30
05/20/01	3:30 p	93.2	93.9	92.4	45	68.7	7.0	ESE	3.50	21.0	93.2	99.2	99.2	29.631	0.00	0.000	0.587	92.1	51	71.4	99.9	30
05/20/01	4:00 p	93.0	93.6	92.4	47	69.8	7.0	ESE	3.50	21.0	93.0	99.8	99.8	29.631	0.00	0.000	0.583	92.1	53	72.5	101.1	30
05/20/01	4:30 p	92.3	93.2	91.3	50	71.0	7.0	SE	3.50	19.0	92.3	99.7	99.7	29.630	0.00	0.000	0.569	92.2	54	73.2	102.0	30
05/20/01	5:00 p	90.9	92.1	89.7	53	71.4	9.0	ESE	4.50	27.0	90.9	98.4	98.4	29.629	0.00	0.000	0.540	91.9	56	74.0	102.4	30
05/20/01	5:30 p	89.0	90.2	87.5	59	72.8	9.0	SE	4.50	21.0	88.9	96.9	96.8	29.635	0.00	0.000	0.500	90.7	58	73.9	100.5	30
05/20/01	6:00 p	86.9	88.0	86.1	60	71.3	7.0	SE	3.50	19.0	86.9	93.4	93.4	29.636	0.00	0.000	0.456	89.5	60	73.8	98.6	30
05/20/01	6:30 p	85.2	86.6	84.1	63	71.2	6.0	SE	3.00	19.0	85.2	90.9	90.9	29.647	0.00	0.000	0.421	88.1	62	73.4	95.9	30
05/20/01	7:00 p	83.6	84.6	82.6	68	71.9	6.0	SE	3.00	16.0	83.6	89.3	89.3	29.653	0.00	0.000	0.387	86.6	66	73.9	95.1	30
05/20/01	7:30 p	82.1	83.1	81.3	71	71.8	6.0	SSE	3.00	15.0	82.1	86.8	86.8	29.664	0.00	0.000	0.356	85.4	68	73.6	93.1	30
05/20/01	8:00 p	80.8	81.7	80.1	73	71.3	6.0	SE	3.00	15.0	80.8	84.6	84.6	29.665	0.00	0.000	0.329	84.8	66	72.2	91.1	30
05/20/01	8:30 p	80.0	80.6	79.4	74	71.0	5.0	SSE	2.50	16.0	80.0	83.4	83.4	29.673	0.00	0.000	0.313	84.3	67	72.1	90.5	30
05/20/01	9:00 p	79.4	79.9	79.0	73	70.0	5.0	SSE	2.50	12.0	79.4	82.3	82.3	29.685	0.00	0.000	0.300	83.9	67	71.8	89.6	30
05/20/01	9:30 p	79.1	79.4	78.6	75	70.5	4.0	SSE	2.00	13.0	79.1	82.2	82.2	29.698	0.00	0.000	0.294	83.4	68	71.7	88.8	30
05/20/01	10:00 p	78.7	79.1	78.3	76	70.5	3.0	S	1.50	11.0	78.7	81.7	81.7	29.711	0.00	0.000	0.285	83.0	69	71.8	88.1	30
05/20/01	10:30 p	78.4	78.9	78.0	76	70.2	2.0	S	1.00	8.0	78.4	81.3	81.3	29.719	0.00	0.000	0.279	82.7	69	71.5	87.5	30
05/20/01	11:00 p	78.0	78.6	77.4	76	69.8	2.0	SSW	1.00	7.0	78.0	80.8	80.8	29.723	0.00	0.000	0.271	82.5	69	71.3	87.1	30
05/20/01	11:30 p	77.3	78.0	76.8	77	69.5	2.0	SSW	1.00	6.0	77.3	80.1	80.1	29.727	0.00	0.000	0.256	82.1	69	70.9	86.3	30
05/21/01	12:00 a	76.8	77.3	76.4	78	69.4	2.0	SSW	1.00	7.0	76.8	79.6	79.6	29.731	0.00	0.000	0.246	81.6	70	70.9	85.5	30
05/21/01	12:30 a	76.6	76.9	76.1	78	69.2	1.0	SSW	0.50	4.0	76.6	79.4	79.4	29.727	0.00	0.000	0.242	81.3	70	70.6	85.0	30
05/21/01	1:00 a	76.2	76.7	75.8	80	69.6	2.0	SSW	1.00	5.0	76.2	79.1	79.1	29.722	0.00	0.000	0.233	81.0	71	70.7	84.6	30
05/21/01	1:30 a	76.0	76.4	75.7	80	69.4	1.0	S	0.50	7.0	76.0	78.9	78.9	29.712	0.00	0.000	0.229	80.8	72	70.9	84.5	30
05/21/01	2:00 a	76.1	76.4	75.7	80	69.5	1.0	SSW	0.50	4.0	76.1	79.0	79.0	29.710	0.00	0.000	0.231	80.7	71	70.4	84.1	30
05/21/01	2:30 a	75.8	76.3	75.3	81	69.6	1.0	SSW	0.50	3.0	75.8	78.7	78.7	29.707	0.00	0.000	0.225	80.5	70	69.8	83.6	30
05/21/01	3:00 a	75.4	75.8	74.9	82	69.5	1.0	SSW	0.50	3.0	75.4	78.2	78.2	29.707	0.00	0.000	0.217	80.2	70	69.5	83.0	30
05/21/01	3:30 a	75.0	75.4	74.6	82	69.1	0.0	SSW	0.00	4.0	75.0	77.7	77.7	29.706	0.00	0.000	0.208	79.9	69	68.8	82.4	30
05/21/01	4:00 a	74.9	75.2	74.6	82	69.0	0.0	SSW	0.00	3.0	74.9	77.5	77.5	29.703	0.00	0.000	0.206	79.7	69	68.6	82.1	30
05/21/01	4:30 a	74.8	75.2	74.4	83	69.3	0.0	SSW	0.00	4.0	74.8	77.5	77.5	29.710	0.00	0.000	0.204	79.5	70	68.9	82.0	30
05/21/01	5:00 a	74.5	74.9	74.0	83	69.0	0.0	---	0.00	0.0	74.5	77.0	77.0	29.710	0.00	0.000	0.198	79.3	69	68.2	81.6	30
05/21/01	5:30 a	73.9	74.5	73.3	83	68.4	0.0	---	0.00	0.0	73.9	76.0	76.0	29.724	0.00	0.000	0.185	78.9	69	67.9	81.1	30
05/21/01	6:00 a	73.2	73.7	72.7	84	68.1	0.0	---	0.00	0.0	73.2	75.3	75.3	29.741	0.00	0.000	0.171	78.5	69	67.5	80.5	30
05/21/01	6:30 a	73.1	73.9	72.6	84	68.0	0.0	---	0.00	0.0	73.1	75.2	75.2	29.740	0.00	0.000	0.169	78.3	68	66.9	80.2	30
05/21/01	7:00 a	74.3	75.2	73.4	84	69.1	1.0	SSW	0.50	5.0	74.3	76.7	76.7	29.747	0.00	0.000	0.194	78.3	69	67.3	80.3	30
05/21/01	7:30 a	75.7	76.7	74.6	82	69.8	2.0	S	1.00	7.0	75.7	78.6	78.6	29.757	0.00	0.000	0.223	78.6	70	68.0	80.8	30
05/21/01	8:00 a	77.4	78.9	76.3	76	69.2	4.0	SSE	2.00	11.0	77.4	80.1	80.1	29.763	0.00	0.000	0.258	79.6	75	71.0	83.0	30
05/21/01	8:30 a	80.2	81.8	78.4	69	69.1	3.0	SSW	1.50	10.0	80.2	82.9	82.9	29.772	0.00	0.000	0.317	81.0	75	72.3	85.4	30
05/21/01	9:00 a	83.0	84.9	81.5	64	69.6	2.0	S	1.00	7.0	83.0	86.7	86.7	29.770	0.00	0.000	0.375	82.4	73	72.9	88.0	30
05/21/01	9:30 a	84.5	85.0	83.8	67	72.3	1.0	S	0.50	6.0	84.5	90.8	90.8	29.770	0.00	0.000	0.406	83.7	71	73.3	90.5	30
05/21/01	10:00 a	83.8	85.1	83.2	67	71.7	3.0	ESE	1.50	14.0	83.8	89.4	89.4	29.770	0.00	0.000	0.392	84.2	72	74.2	92.0	30
05/21/01	10:30 a	86.1	87.5	84.6	64	72.5	6.0	ESE	3.00	17.0	86.1	93.2	93.2	29.765	0.00	0.000	0.440	85.4	72	75.3	94.5	30
05/21/01	11:00 a	88.1	89.3	87.0	60	72.5	6.0	ESE	3.00	20.0	88.1	95.1	95.1	29.758	0.00	0.000	0.481	86.9	70	75.9	97.3	30
05/21/01	11:30 a	89.2	90.2	88.0	59	73.0	7.0	ESE	3.50	20.0	89.2	97.4	97.4	29.755	0.00	0.000	0.504	88.1	69	76.6	98.9	30
05/21/01	12:00 p	89.6	90.1	89.0	59	73.4	8.0	ESE	4.00	22.0	89.6	98.4	98.4	29.735	0.00	0.000	0.512	89.0	67	76.6	100.7	30
05/21/01	12:30 p	90.3	91.3	89.7	59	74.0	8.0	ESE	4.00	20.0	90.3	100.1	100.1	29.736	0.00	0.000	0.527	89.6	66	76.7	102.1	30
05/21/01	1:00 p	91.8	92.6	90.8	56	73.9	8.0	SE	4.00	23.0	91.8	102.2	102.2	29.725	0.00	0.000	0.558	90.2	65	76.8	103.4	30
05/21/01	1:30 p	91.8	92.4	91.0	55	73.3	7.0	ESE	3.50	26.0	91.8	101.6	101.6	29.725	0.00	0.000	0.558	90.6	64	76.7	103.8	30
05/21/01	2:00 p	92.3	93.0	91.8	55	73.8	8.0	ESE	4.00	21.0	92.3	102.9	102.9	29.714	0.00	0.000	0.569	91.2	63	76.8	104.8	30
05/21/01	2:30 p	92.8	93.2	92.2	55	74.3	10.0	ESE	5.00	25.0	92.8	104.1	104.1	29.694	0.00	0.000	0.579	91.7	63	77.3	106.3	30
05/21/01	3:00 p	92.9	93.9	92.1	54	73.8	8.0	ESE	4.00	23.0	92.9	103.7	103.7	29.696	0.00	0.000	0.581	91.7	63	77.3	106.3	30
05/21/01	3:30 p	92.7	93.8	92.1	53	73.1	9.0	ESE	4.50	21.0	92.7	102.5	102.5	29.696	0.00	0.000	0.577	91.8	61	76.4	105.1	30
05/21/01	4:00 p	92.8	93.1	92.3	53	73.2	8.0	SE	4.00	19.0	92.8	102.8	102.8	29.691	0.00	0.000	0.579	91.8	61	76.4	105.1	30
05/21/01	4:30 p	92.4	93.0	91.8	55	73.9	7.0	ESE	3.50	19.0	92.4	103.1	103.1	29.694	0.00	0.000	0.571	91.9	60	76.0	104.6	30
05/21/01	5:00 p	91.9	92.5	90.9	58	75.0	7.0	SE	3.50	19.0	91.9	103.5	103.5	29.694	0.00	0.000	0.560	92.1	61	76.7	105.9	30
05/21/01	5:30 p	89.6	91.0	87.5	64	75.8	7.0	SE	3.50	19.0	89.6	101.0	101.0	29.691	0.00	0.000	0.512	91.4	62	76.5	104.7	30
05/21/01	6:00 p	86.5	88.0	85.1	68	74.7	8.0	SE	4.00	19.0	86.4	95.6	95.5	29.682	0.00	0.000	0.448	90.0	64	76.2	102.2	30
05/21/01	6:30 p	85.3	85.9	84.4	70	74.4	7.0	SE	3.50	21.0	85.3	93.6	93.6	29.682	0.00	0.000	0.423	88.8	66	76.0	99.6	30
05/21/01	7:00 p	83.7	84.8	82.7	73	74.1	5.0	SE	2.50	16.0	83.7	91.2	91.2	29.695	0.00	0.000	0.390	87.8	68	75.9	97.8	30
05/21/01	7:30 p	82.2	83.2	81.2	75	73.5	5.0	SE	2.50	15.0	82.2	88.0	88.0	29.704	0.00	0.000	0.358	86.8	69	75.4	96.7	30
05/21/01	8:00 p	81.2	81.7	80.7	76	72.9	5.0	SE	2.50	13.0	81.2	86.1	86.1	29.708	0.00	0.000	0.337	85.9	69	74.5	94.7	30
05/21/01	8:30 p	80.5	81.1	79.9	78	73.0	5.0	SE	2.50	16.0	80.5	85.1	85.1	29.720	0.00	0.000	0.323	85.1	71	74.6	93.5	30
05/21/01	9:00 p	80.0	80.5	79.6	79	72.9	4.0	SE	2.00	13.0	80.0	84.3	84.3	29.728	0.00	0.000	0.313	84.6	72	74.6	92.8	30
05/21/01	9:30 p	79.8	80.1	79.4	80	73.1	4.0	SE	2.00	13.0	79.8	84.2	84.2	29.736	0.00	0.000	0.308	84.2	73	74.6	92.4	30
05/21/01	10:00 p	79.5	79.9	79.1	81	73.2	4.0	SSE	2.00	16.0	79.5	83.9	83.9	29.751	0.00	0.000	0.302	83.9	74	74.7	92.1	30
05/21/01	10:30 p	79.3	79.7	78.8	82	73.3	3.0	SE	1.50	10.0	79.3	83.7	83.7	29.752	0.00	0.000	0.298	83.6	75	74.8	91.7	30
05/21/01	11:00 p	78.9	79.4	78.5	82	72.9	3.0	SSE	1.50	8.0	78.9	83.0	83.0	29.745	0.00	0.000	0.290	83.3	76	74.9	91.2	30
05/21/01	11:30 p	78.6	79.1	78.2	83	73.0	3.0	SSE	1.50	8.0	78.6	82.7	82.7	29.743	0.00	0.000	0.283	82.9	76	74.6	90.2	30
05/22/01	12:00 a	78.3	78.7	77.8	83	72.7	1.0	S	0.50	6.0	78.3	82.3	82.3	29.735	0.00	0.000	0.277	82.6	76	74.3	89.4	30
05/22/01	12:30 a	77.9	78.4	77.4	83	72.3	1.0	S	0.50	6.0	77.9	81.7	81.7	29.726	0.00	0.000	0.269	82.3	76	74.0	88.6	30
05/22/01	1:00 a	77.6	78.0	77.0	84	72.4	1.0	S	0.50	5.0	77.6	81.4	81.4	29.719	0.00	0.000	0.262	82.0	75	73.3	87.5	30
05/22/01	1:30 a	77.2	77.6	76.7	84	72.0	0.0	---	0.00	1.0	77.2	80.8	80.8	29.719	0.00	0.000	0.254	81.8	74	72.7	86.8	30
05/22/01	2:00 a	76.7	77.2	76.2	85	71.8	0.0	---	0.00	0.0	76.7	80.2	80.2	29.710	0.00	0.000	0.244	81.4	73	71.9	85.8	30
05/22/01	2:30 a	76.2	76.8	75.9	86	71.7	0.0	S	0.00	2.0	76.2	79.5	79.5	29.706	0.00	0.000	0.233	81.1	74	72.0	85.4	30
05/22/01	3:00 a	75.7	76.3	75.1	85	70.9	0.0	---	0.00	0.0	75.7	78.8	78.8	29.701	0.00	0.000	0.223	80.8	73	71.3	84.6	30
05/22/01	3:30 a	75.1	75.6	74.5	85	70.3	0.0	---	0.00	0.0	75.1	78.1	78.1	29.704	0.00	0.000	0.210	80.4	72	70.5	83.8	30
05/22/01	4:00 a	74.5	75.0	74.0	85	69.7	0.0	---	0.00	0.0	74.5	77.1	77.1	29.713	0.00	0.000	0.198	80.0	72	70.2	83.1	30
05/22/01	4:30 a	74.0	74.4	73.4	85	69.2	0.0	---	0.00	0.0	74.0	76.2	76.2	29.719	0.00	0.000	0.188	79.6	71	69.4	82.3	30
05/22/01	5:00 a	73.4	73.9	73.0	86	69.0	0.0	S	0.00	1.0	73.4	75.6	75.6	29.727	0.00	0.000	0.175	79.2	71	69.0	81.7	30
05/22/01	5:30 a	73.1	73.5	72.7	86	68.7	0.0	---	0.00	0.0	73.1	75.3	75.3	29.745	0.00	0.000	0.169	78.9	71	68.7	81.3	30
05/22/01	6:00 a	72.9	73.2	72.6	87	68.8	0.0	---	0.00	1.0	72.9	75.1	75.1	29.759	0.00	0.000	0.165	78.6	71	68.4	80.9	30
05/22/01	6:30 a	73.3	74.0	72.6	88	69.5	0.0	---	0.00	0.0	73.3	75.6	75.6	29.770	0.00	0.000	0.173	78.5	71	68.3	80.8	30
05/22/01	7:00 a	74.4	75.4	73.5	90	71.3	0.0	---	0.00	0.0	74.4	77.2	77.2	29.771	0.00	0.000	0.196	78.6	74	69.6	81.3	30
05/22/01	7:30 a	76.1	77.4	74.9	87	71.9	1.0	S	0.50	4.0	76.1	79.5	79.5	29.767	0.00	0.000	0.231	79.0	73	69.6	81.7	30
05/22/01	8:00 a	77.7	78.7	76.9	84	72.5	2.0	S	1.00	8.0	77.7	81.5	81.5	29.766	0.00	0.000	0.265	79.9	78	72.4	84.0	30
05/22/01	8:30 a	79.6	81.3	78.2	78	72.1	4.0	SSE	2.00	8.0	79.6	83.5	83.5	29.761	0.00	0.000	0.304	81.0	79	73.9	86.3	30
05/22/01	9:00 a	82.6	83.8	80.8	73	73.1	3.0	SSE	1.50	10.0	82.6	88.5	88.5	29.756	0.00	0.000	0.367	82.1	78	74.6	88.6	30
05/22/01	9:30 a	85.1	86.0	83.5	67	72.9	3.0	S	1.50	10.0	85.1	92.1	92.1	29.751	0.00	0.000	0.419	83.5	78	75.9	92.4	30
05/22/01	10:00 a	86.8	88.3	85.0	71	76.3	4.0	SE	2.00	12.0	86.8	97.5	97.5	29.746	0.00	0.000	0.454	84.8	74	75.6	93.9	30
05/22/01	10:30 a	86.9	87.9	85.8	72	76.8	4.0	E	2.00	15.0	86.9	98.1	98.1	29.737	0.00	0.000	0.456	86.0	76	77.5	97.4	30
05/22/01	11:00 a	87.2	88.7	86.1	72	77.1	4.0	ESE	2.00	14.0	87.2	98.7	98.7	29.734	0.00	0.000	0.462	87.1	75	78.2	99.8	30
05/22/01	11:30 a	88.8	89.9	86.3	69	77.3	4.0	ENE	2.00	14.0	88.8	101.1	101.1	29.718	0.00	0.000	0.496	88.0	75	79.1	101.4	30
05/22/01	12:00 p	87.3	88.5	86.5	68	75.4	6.0	ESE	3.00	17.0	87.3	97.2	97.2	29.710	0.00	0.000	0.465	88.6	73	78.8	102.7	30
05/22/01	12:30 p	89.3	90.9	87.9	63	75.0	7.0	ESE	3.50	20.0	89.3	99.6	99.6	29.701	0.00	0.000	0.506	88.7	73	78.9	103.1	30
05/22/01	1:00 p	91.3	92.8	89.5	65	77.9	7.0	SE	3.50	21.0	91.3	106.5	106.5	29.681	0.00	0.000	0.548	89.7	71	79.0	105.4	30
05/22/01	1:30 p	90.2	91.7	88.8	64	76.4	6.0	SE	3.00	15.0	90.2	102.7	102.7	29.665	0.00	0.000	0.525	89.9	70	78.8	105.5	30
05/22/01	2:00 p	90.6	92.1	89.5	62	75.8	7.0	ESE	3.50	21.0	90.6	102.6	102.6	29.655	0.00	0.000	0.533	90.1	69	78.6	105.5	30
05/22/01	2:30 p	89.1	90.5	87.3	66	76.3	8.0	ESE	4.00	24.0	89.1	100.5	100.5	29.646	0.00	0.000	0.502	90.1	68	78.1	104.9	30
05/22/01	3:00 p	87.8	88.7	87.2	66	75.0	8.0	SE	4.00	20.0	87.7	97.0	96.9	29.623	0.00	0.000	0.475	89.5	68	77.5	102.9	30
05/22/01	3:30 p	87.2	87.9	86.1	64	73.5	4.0	S	2.00	12.0	87.2	95.4	95.4	29.625	0.00	0.000	0.462	89.1	67	76.7	101.0	30
05/22/01	4:00 p	85.1	86.6	83.2	75	76.3	1.0	SSE	0.50	7.0	85.1	94.8	94.8	29.641	0.01	0.000	0.419	87.8	70	76.8	98.7	30
05/22/01	4:30 p	82.0	83.6	80.5	77	74.1	2.0	SW	1.00	10.0	82.0	88.1	88.1	29.649	0.00	0.000	0.354	86.5	70	75.5	96.4	30
05/22/01	5:00 p	79.9	80.9	79.1	79	72.8	2.0	SSW	1.00	6.0	79.9	84.2	84.2	29.645	0.01	0.000	0.310	85.4	71	74.9	94.2	30
05/22/01	5:30 p	79.0	79.6	78.6	83	73.4	0.0	W	0.00	3.0	79.0	83.3	83.3	29.646	0.01	0.000	0.292	84.5	73	74.9	92.9	30
05/22/01	6:00 p	78.9	79.3	78.5	84	73.7	0.0	W	0.00	2.0	78.9	83.4	83.4	29.629	0.00	0.000	0.290	84.1	75	75.3	92.9	30
05/22/01	6:30 p	78.8	79.3	78.3	84	73.6	0.0	SSE	0.00	4.0	78.8	83.2	83.2	29.639	0.00	0.000	0.288	83.9	76	75.5	92.8	30
05/22/01	7:00 p	78.4	79.0	77.6	85	73.5	1.0	S	0.50	7.0	78.4	82.7	82.7	29.659	0.00	0.000	0.279	83.5	76	75.1	91.7	30
05/22/01	7:30 p	77.6	78.2	77.1	84	72.4	3.0	S	1.50	9.0	77.6	81.4	81.4	29.671	0.00	0.000	0.262	83.0	75	74.3	90.1	30
05/22/01	8:00 p	77.2	77.7	76.7	85	72.3	1.0	NW	0.50	5.0	77.2	80.9	80.9	29.692	0.00	0.000	0.254	82.6	76	74.3	89.4	30
05/22/01	8:30 p	77.0	77.3	76.6	85	72.1	0.0	NW	0.00	1.0	77.0	80.6	80.6	29.695	0.00	0.000	0.250	82.2	77	74.3	88.6	30
05/22/01	9:00 p	76.8	77.3	76.1	89	73.3	2.0	SW	1.00	10.0	76.8	80.6	80.6	29.725	0.20	0.000	0.246	82.1	79	74.9	88.9	30
05/22/01	9:30 p	75.3	76.5	74.1	89	71.8	5.0	WNW	2.50	19.0	75.3	78.7	78.7	29.728	0.37	0.000	0.215	81.6	78	74.1	87.4	30
05/22/01	10:00 p	74.0	74.6	73.6	89	70.6	1.0	NW	0.50	8.0	74.0	76.4	76.4	29.726	0.09	0.000	0.188	81.1	76	72.8	85.8	30
05/22/01	10:30 p	74.1	74.6	73.5	90	71.0	2.0	SW	1.00	7.0	74.1	76.6	76.6	29.710	0.32	0.000	0.190	80.8	77	72.9	85.5	30
05/22/01	11:00 p	74.2	74.6	73.6	90	71.1	2.0	SSW	1.00	6.0	74.2	76.8	76.8	29.703	0.00	0.000	0.192	80.5	77	72.6	84.9	30
05/22/01	11:30 p	74.3	74.7	73.9	89	70.8	2.0	SW	1.00	6.0	74.3	76.9	76.9	29.699	0.00	0.000	0.194	80.4	77	72.5	84.7	30
05/23/01	12:00 a	74.2	74.6	73.8	89	70.7	1.0	SSW	0.50	6.0	74.2	76.8	76.8	29.687	0.00	0.000	0.192	80.1	77	72.2	84.1	30
05/23/01	12:30 a	74.2	74.6	73.8	89	70.7	0.0	SSW	0.00	3.0	74.2	76.8	76.8	29.673	0.00	0.000	0.192	79.9	76	71.7	83.6	30
05/23/01	1:00 a	74.1	74.6	73.7	90	71.0	0.0	SSW	0.00	3.0	74.1	76.6	76.6	29.663	0.00	0.000	0.190	79.7	76	71.5	83.3	30
05/23/01	1:30 a	73.9	74.3	73.5	91	71.1	0.0	SSW	0.00	3.0	73.9	76.4	76.4	29.659	0.00	0.000	0.185	79.5	75	70.9	82.8	30
05/23/01	2:00 a	73.8	74.2	73.3	91	71.0	0.0	SSW	0.00	3.0	73.8	76.3	76.3	29.654	0.00	0.000	0.183	79.3	75	70.7	82.5	30
05/23/01	2:30 a	73.7	74.1	73.4	91	70.9	0.0	SSW	0.00	4.0	73.7	76.2	76.2	29.646	0.00	0.000	0.181	79.1	75	70.5	82.2	30
05/23/01	3:00 a	73.9	74.3	73.5	92	71.4	0.0	SSW	0.00	3.0	73.9	76.5	76.5	29.650	0.00	0.000	0.185	79.0	76	70.8	82.2	30
05/23/01	3:30 a	74.0	74.3	73.6	93	71.8	1.0	S	0.50	5.0	74.0	76.8	76.8	29.652	0.00	0.000	0.188	78.9	77	71.1	82.2	30
05/23/01	4:00 a	74.1	74.5	73.7	94	72.3	2.0	SSW	1.00	6.0	74.1	77.1	77.1	29.650	0.00	0.000	0.190	78.9	77	71.1	82.2	30
05/23/01	4:30 a	74.2	74.6	73.8	94	72.4	2.0	S	1.00	6.0	74.2	77.2	77.2	29.644	0.00	0.000	0.192	78.9	78	71.5	82.3	30
05/23/01	5:00 a	74.3	74.7	73.9	94	72.5	1.0	S	0.50	6.0	74.3	77.4	77.4	29.641	0.00	0.000	0.194	78.8	78	71.4	82.2	30
05/23/01	5:30 a	74.2	74.6	73.8	94	72.4	2.0	SSW	1.00	6.0	74.2	77.2	77.2	29.646	0.00	0.000	0.192	78.7	78	71.3	82.1	30
05/23/01	6:00 a	73.9	74.4	73.4	92	71.4	3.0	SSW	1.50	9.0	73.9	76.5	76.5	29.662	0.01	0.000	0.185	78.6	80	71.9	82.2	30
05/23/01	6:30 a	73.4	74.1	72.8	91	70.6	2.0	SSW	1.00	8.0	73.4	75.9	75.9	29.664	0.00	0.000	0.175	78.5	80	71.8	82.1	30
05/23/01	7:00 a	73.1	73.5	72.6	91	70.3	2.0	SSW	1.00	8.0	73.1	75.7	75.7	29.658	0.00	0.000	0.169	78.3	79	71.2	81.7	30
05/23/01	7:30 a	73.0	73.5	72.6	94	71.2	1.0	SSW	0.50	6.0	73.0	75.7	75.7	29.666	0.06	0.000	0.167	78.1	80	71.4	81.5	30
05/23/01	8:00 a	73.5	74.0	73.0	95	72.0	2.0	SW	1.00	6.0	73.5	76.4	76.4	29.688	0.01	0.000	0.177	78.0	82	72.1	81.7	30
05/23/01	8:30 a	73.6	74.0	73.2	94	71.8	2.0	NW	1.00	7.0	73.6	76.4	76.4	29.692	0.01	0.000	0.179	78.0	81	71.7	81.5	30
05/23/01	9:00 a	73.6	74.2	73.2	93	71.4	0.0	NW	0.00	2.0	73.6	76.3	76.3	29.684	0.05	0.000	0.179	78.0	80	71.3	81.4	30
05/23/01	9:30 a	74.1	74.7	73.6	93	71.9	0.0	NW	0.00	2.0	74.1	76.9	76.9	29.680	0.02	0.000	0.190	78.1	81	71.8	81.7	30
05/23/01	10:00 a	74.7	75.1	74.0	93	72.5	1.0	NW	0.50	5.0	74.7	78.0	78.0	29.684	0.01	0.000	0.202	78.4	81	72.1	82.1	30
05/23/01	10:30 a	75.1	75.8	74.5	92	72.6	1.0	SW	0.50	4.0	75.1	78.6	78.6	29.684	0.00	0.000	0.210	78.6	81	72.3	82.4	30
05/23/01	11:00 a	75.9	76.5	75.2	92	73.4	1.0	SW	0.50	6.0	75.9	79.6	79.6	29.684	0.01	0.000	0.227	78.9	82	72.9	83.0	30
05/23/01	11:30 a	76.6	78.1	75.9	88	72.8	2.0	WNW	1.00	7.0	76.6	80.3	80.3	29.669	0.01	0.000	0.242	79.3	83	73.7	83.9	30
05/23/01	12:00 p	79.5	81.6	77.6	79	72.4	3.0	NW	1.50	7.0	79.5	83.5	83.5	29.668	0.00	0.000	0.302	80.3	83	74.7	85.8	30
05/23/01	12:30 p	82.0	83.4	80.8	73	72.5	2.0	NW	1.00	6.0	82.0	87.0	87.0	29.655	0.00	0.000	0.354	81.8	80	75.0	88.4	30
05/23/01	1:00 p	83.4	85.1	82.8	72	73.4	1.0	NW	0.50	6.0	83.4	90.1	90.1	29.630	0.00	0.000	0.383	83.3	78	75.7	91.9	30
05/23/01	1:30 p	85.8	87.1	84.5	67	73.6	2.0	N	1.00	7.0	85.8	93.7	93.7	29.617	0.00	0.000	0.433	84.8	79	77.6	95.7	30
05/23/01	2:00 p	85.8	86.9	84.8	71	75.3	3.0	NE	1.50	8.0	85.8	95.2	95.2	29.615	0.00	0.000	0.433	86.6	77	78.5	99.4	30
05/23/01	2:30 p	85.2	86.5	84.3	67	73.0	3.0	N	1.50	9.0	85.2	92.3	92.3	29.607	0.00	0.000	0.421	87.0	75	78.1	99.6	30
05/23/01	3:00 p	86.0	87.2	84.1	72	75.9	4.0	ENE	2.00	12.0	86.0	96.0	96.0	29.602	0.00	0.000	0.438	88.0	73	78.3	100.4	30
05/23/01	3:30 p	83.4	84.1	82.8	72	73.4	4.0	ENE	2.00	11.0	83.4	90.1	90.1	29.604	0.00	0.000	0.383	87.6	71	77.0	98.9	30
05/23/01	4:00 p	84.2	85.3	83.5	69	72.9	4.0	ENE	2.00	12.0	84.2	91.0	91.0	29.600	0.00	0.000	0.400	87.3	71	76.7	98.4	30
05/23/01	4:30 p	86.2	87.2	85.0	64	72.6	5.0	ESE	2.50	18.0	86.2	93.5	93.5	29.593	0.00	0.000	0.442	87.9	70	76.9	98.9	30
05/23/01	5:00 p	87.1	87.8	86.1	66	74.4	4.0	E	2.00	14.0	87.1	96.1	96.1	29.592	0.00	0.000	0.460	88.9	68	77.0	100.9	30
05/23/01	5:30 p	86.6	87.1	85.8	70	75.6	5.0	ESE	2.50	15.0	86.6	96.6	96.6	29.584	0.00	0.000	0.450	90.2	67	77.8	104.6	30
05/23/01	6:00 p	85.5	86.1	84.4	73	75.9	5.0	ESE	2.50	15.0	85.5	95.1	95.1	29.577	0.00	0.000	0.427	89.0	69	77.5	101.8	30
05/23/01	6:30 p	83.7	84.9	82.5	76	75.3	3.0	ESE	1.50	13.0	83.7	92.3	92.3	29.576	0.00	0.000	0.390	87.3	71	76.7	98.4	30
05/23/01	7:00 p	81.8	82.7	81.0	79	74.6	2.0	ESE	1.00	7.0	81.8	88.2	88.2	29.591	0.00	0.000	0.350	86.1	72	76.0	96.2	30
05/23/01	7:30 p	80.7	81.5	79.7	81	74.3	0.0	ESE	0.00	2.0	80.7	86.1	86.1	29.602	0.00	0.000	0.327	85.1	74	75.9	94.5	30
05/23/01	8:00 p	79.4	80.2	78.5	84	74.1	0.0	---	0.00	0.0	79.4	84.3	84.3	29.607	0.00	0.000	0.300	84.2	75	75.4	93.1	30
05/23/01	8:30 p	78.7	79.1	78.1	84	73.5	0.0	ESE	0.00	1.0	78.7	83.1	83.1	29.623	0.00	0.000	0.285	83.5	76	75.1	91.7	30
05/23/01	9:00 p	77.9	78.7	77.3	83	72.3	1.0	N	0.50	8.0	77.9	81.7	81.7	29.651	0.00	0.000	0.269	83.0	77	75.0	90.7	30
05/23/01	9:30 p	77.3	77.7	76.8	81	71.0	1.0	NE	0.50	6.0	77.3	80.5	80.5	29.655	0.00	0.000	0.256	82.6	76	74.3	89.4	30
05/23/01	10:00 p	76.6	77.6	75.2	87	72.4	2.0	ESE	1.00	9.0	76.6	80.2	80.2	29.658	0.55	0.000	0.242	82.1	76	73.8	88.0	30
05/23/01	10:30 p	74.7	75.6	74.2	90	71.6	1.0	ENE	0.50	7.0	74.7	77.8	77.8	29.674	0.06	0.000	0.202	81.4	77	73.5	86.7	30
05/23/01	11:00 p	74.6	75.1	74.2	91	71.8	0.0	ENE	0.00	3.0	74.6	77.7	77.7	29.667	0.01	0.000	0.200	81.0	77	73.1	85.8	30
05/23/01	11:30 p	74.9	75.4	74.6	91	72.1	0.0	ENE	0.00	2.0	74.9	78.3	78.3	29.671	0.00	0.000	0.206	80.8	77	72.9	85.5	30
05/24/01	12:00 a	75.1	75.5	74.6	91	72.3	1.0	ENE	0.50	4.0	75.1	78.6	78.6	29.663	0.00	0.000	0.210	80.7	78	73.2	85.5	30
05/24/01	12:30 a	74.7	75.2	74.3	90	71.6	0.0	ENE	0.00	2.0	74.7	77.8	77.8	29.666	0.00	0.000	0.202	80.4	77	72.5	84.7	30
05/24/01	1:00 a	74.4	74.9	74.0	91	71.6	0.0	N	0.00	3.0	74.4	77.3	77.3	29.659	0.00	0.000	0.196	80.0	77	72.1	84.0	30
05/24/01	1:30 a	74.5	74.9	73.9	94	72.7	0.0	N	0.00	2.0	74.5	77.8	77.8	29.662	0.00	0.000	0.198	79.7	78	72.2	83.6	30
05/24/01	2:00 a	74.6	75.0	74.2	94	72.8	0.0	N	0.00	5.0	74.6	77.9	77.9	29.661	0.00	0.000	0.200	79.6	78	72.1	83.5	30
05/24/01	2:30 a	74.8	75.1	74.3	94	73.0	0.0	N	0.00	4.0	74.8	78.3	78.3	29.656	0.00	0.000	0.204	79.4	79	72.3	83.3	30
05/24/01	3:00 a	74.9	75.3	74.4	95	73.4	1.0	N	0.50	6.0	74.9	78.5	78.5	29.650	0.00	0.000	0.206	79.3	80	72.6	83.3	30
05/24/01	3:30 a	75.0	75.4	74.6	94	73.2	2.0	N	1.00	9.0	75.0	78.6	78.6	29.657	0.00	0.000	0.208	79.2	82	73.2	83.5	30
05/24/01	4:00 a	75.0	75.4	74.6	93	72.8	1.0	N	0.50	7.0	75.0	78.6	78.6	29.666	0.00	0.000	0.208	79.1	82	73.1	83.3	30
05/24/01	4:30 a	75.1	75.5	74.7	92	72.6	2.0	N	1.00	6.0	75.1	78.6	78.6	29.666	0.00	0.000	0.210	79.0	83	73.4	83.3	30
05/24/01	5:00 a	74.9	75.5	74.4	89	71.4	1.0	N	0.50	8.0	74.9	78.1	78.1	29.676	0.00	0.000	0.206	78.9	82	72.9	83.0	30
05/24/01	5:30 a	74.6	75.1	74.3	88	70.8	2.0	NNE	1.00	8.0	74.6	77.5	77.5	29.692	0.00	0.000	0.200	78.7	81	72.4	82.5	30
05/24/01	6:00 a	74.7	75.1	74.3	86	70.2	1.0	NNE	0.50	7.0	74.7	77.5	77.5	29.702	0.00	0.000	0.202	78.5	82	72.5	82.4	30
05/24/01	6:30 a	74.9	75.3	74.3	83	69.4	2.0	NNE	1.00	8.0	74.9	77.6	77.6	29.710	0.00	0.000	0.206	78.4	81	72.1	82.1	30
05/24/01	7:00 a	75.2	75.8	74.7	80	68.6	2.0	NNE	1.00	10.0	75.2	77.8	77.8	29.716	0.00	0.000	0.212	78.4	80	71.7	82.0	30
05/24/01	7:30 a	76.3	77.5	75.3	74	67.4	2.0	NE	1.00	10.0	76.3	78.6	78.6	29.726	0.00	0.000	0.235	78.9	79	71.8	82.5	30
05/24/01	8:00 a	77.7	78.6	76.8	72	68.0	3.0	NE	1.50	11.0	77.7	79.9	79.9	29.732	0.00	0.000	0.265	79.5	78	72.0	83.3	30
05/24/01	9:30 a	79.5	80.3	79.0	69	68.4	3.0	NE	1.50	10.0	79.5	81.9	81.9	29.747	0.00	0.000	0.302	81.8	74	72.7	86.8	30
05/24/01	10:00 a	81.0	81.8	79.8	64	67.7	3.0	NE	1.50	10.0	81.0	83.3	83.3	29.743	0.00	0.000	0.333	82.6	73	73.1	88.5	30
05/24/01	10:30 a	81.5	81.8	81.1	63	67.7	3.0	NE	1.50	9.0	81.5	84.0	84.0	29.747	0.00	0.000	0.344	83.7	71	73.3	90.5	30
05/24/01	11:00 a	82.6	83.6	81.5	60	67.3	4.0	N	2.00	11.0	82.6	85.1	85.1	29.747	0.00	0.000	0.367	84.2	68	72.5	90.6	30
05/24/01	11:30 a	83.0	83.5	82.5	59	67.2	4.0	NNE	2.00	10.0	83.0	85.5	85.5	29.747	0.00	0.000	0.375	85.2	65	72.1	91.6	30
05/24/01	12:00 p	83.2	83.7	82.6	60	67.9	5.0	NNE	2.50	12.0	83.2	86.1	86.1	29.740	0.00	0.000	0.379	85.8	65	72.7	92.9	30
05/24/01	12:30 p	84.1	85.5	82.8	58	67.7	5.0	NNE	2.50	15.0	84.1	87.4	87.4	29.740	0.00	0.000	0.398	86.7	65	73.5	94.9	30
05/24/01	1:00 p	85.5	86.3	84.9	56	68.0	5.0	NNE	2.50	15.0	85.5	89.1	89.1	29.734	0.00	0.000	0.427	87.9	64	74.2	96.3	30
05/24/01	1:30 p	85.7	86.4	85.1	55	67.7	6.0	NNE	3.00	15.0	85.7	89.2	89.2	29.729	0.00	0.000	0.431	88.8	62	74.1	97.7	30
05/24/01	2:00 p	86.3	86.9	85.3	54	67.7	5.0	NE	2.50	16.0	86.3	90.0	90.0	29.726	0.00	0.000	0.444	89.4	61	74.2	98.8	30
05/24/01	2:30 p	86.6	87.1	86.0	54	68.0	5.0	NE	2.50	17.0	86.6	90.6	90.6	29.720	0.00	0.000	0.450	90.0	60	74.2	99.8	30
05/24/01	3:00 p	86.6	87.6	85.7	55	68.5	5.0	N	2.50	13.0	86.6	91.0	91.0	29.707	0.00	0.000	0.450	90.3	59	74.0	100.1	30
05/24/01	3:30 p	87.2	88.1	86.3	48	65.1	5.0	NE	2.50	18.0	87.2	89.7	89.7	29.715	0.00	0.000	0.462	90.5	56	72.7	99.1	30
05/24/01	4:00 p	87.3	88.1	86.5	52	67.5	5.0	ENE	2.50	16.0	87.3	91.2	91.2	29.720	0.00	0.000	0.465	90.7	55	72.3	99.0	30
05/24/01	4:30 p	86.7	88.1	85.7	53	67.5	5.0	NE	2.50	16.0	86.7	90.5	90.5	29.719	0.00	0.000	0.452	90.7	55	72.3	99.0	30
05/24/01	5:00 p	85.7	86.9	84.4	56	68.2	5.0	ENE	2.50	16.0	85.7	89.5	89.5	29.718	0.00	0.000	0.431	90.7	54	71.8	98.5	30
05/24/01	5:30 p	84.0	85.1	82.8	59	68.1	4.0	NE	2.00	13.0	84.0	87.5	87.5	29.707	0.00	0.000	0.396	89.9	55	71.6	97.2	30
05/24/01	6:00 p	82.5	83.2	81.7	60	67.2	4.0	NE	2.00	13.0	82.5	84.9	84.9	29.721	0.00	0.000	0.365	88.7	56	71.0	95.1	30
05/24/01	6:30 p	81.4	82.1	80.5	61	66.7	4.0	ENE	2.00	12.0	81.4	83.5	83.5	29.736	0.00	0.000	0.342	87.5	56	69.9	92.8	30
05/24/01	7:00 p	80.1	80.8	79.4	63	66.4	4.0	ENE	2.00	12.0	80.1	81.9	81.9	29.739	0.00	0.000	0.315	86.4	58	69.9	91.6	30
05/24/01	7:30 p	79.1	79.7	78.5	65	66.3	4.0	ENE	2.00	12.0	79.1	80.8	80.8	29.744	0.00	0.000	0.294	85.3	59	69.3	89.7	30
05/24/01	8:00 p	78.4	79.0	77.9	68	67.0	4.0	ENE	2.00	11.0	78.4	80.3	80.3	29.748	0.00	0.000	0.279	84.6	60	69.2	88.7	30
05/24/01	8:30 p	78.1	78.5	77.6	70	67.5	4.0	ENE	2.00	14.0	78.1	80.1	80.1	29.755	0.00	0.000	0.273	84.1	62	69.7	88.5	30
05/24/01	9:00 p	77.8	78.2	77.4	70	67.2	4.0	ENE	2.00	14.0	77.8	79.8	79.8	29.769	0.00	0.000	0.267	83.6	63	69.7	87.7	30
05/24/01	9:30 p	77.6	77.9	77.2	71	67.4	4.0	ENE	2.00	13.0	77.6	79.7	79.7	29.769	0.00	0.000	0.262	83.3	64	69.8	87.3	30
05/24/01	10:00 p	77.4	77.7	77.0	72	67.7	4.0	ENE	2.00	13.0	77.4	79.6	79.6	29.773	0.00	0.000	0.258	83.0	65	70.0	86.9	30
05/24/01	10:30 p	77.2	77.6	76.8	73	67.9	4.0	E	2.00	13.0	77.2	79.5	79.5	29.777	0.00	0.000	0.254	82.6	65	69.6	86.2	30
05/24/01	11:00 p	77.0	77.3	76.6	72	67.3	3.0	E	1.50	10.0	77.0	79.1	79.1	29.773	0.00	0.000	0.250	82.1	66	69.6	85.6	30
05/24/01	11:30 p	76.9	77.3	76.5	73	67.6	3.0	E	1.50	10.0	76.9	79.2	79.2	29.773	0.00	0.000	0.248	81.7	67	69.7	85.1	30
05/25/01	12:00 a	76.7	77.2	76.3	74	67.8	3.0	E	1.50	9.0	76.7	79.0	79.0	29.771	0.00	0.000	0.244	81.3	67	69.3	84.4	30
05/25/01	12:30 a	76.5	76.9	76.2	75	68.0	2.0	E	1.00	8.0	76.5	78.9	78.9	29.774	0.00	0.000	0.240	81.1	68	69.5	84.2	30
05/25/01	1:00 a	76.3	76.7	76.0	76	68.2	3.0	ESE	1.50	14.0	76.3	78.8	78.8	29.769	0.00	0.000	0.235	80.8	68	69.2	83.7	30
05/25/01	1:30 a	76.2	76.6	75.9	78	68.8	4.0	ESE	2.00	15.0	76.2	78.9	78.9	29.754	0.00	0.000	0.233	80.6	70	69.9	83.7	30
05/25/01	2:00 a	76.2	76.5	75.9	79	69.2	2.0	ESE	1.00	9.0	76.2	79.0	79.0	29.754	0.00	0.000	0.233	80.5	70	69.8	83.6	30
05/25/01	2:30 a	76.1	76.5	75.7	80	69.5	2.0	ESE	1.00	10.0	76.1	79.0	79.0	29.743	0.00	0.000	0.231	80.4	71	70.1	83.6	30
05/25/01	3:00 a	75.9	76.3	75.5	81	69.6	1.0	ESE	0.50	6.0	75.9	78.8	78.8	29.747	0.00	0.000	0.227	80.2	71	69.9	83.2	30
05/25/01	3:30 a	75.7	76.1	75.4	82	69.8	1.0	ESE	0.50	6.0	75.7	78.6	78.6	29.746	0.00	0.000	0.223	80.0	71	69.7	82.9	30
05/25/01	4:00 a	75.5	76.0	75.1	83	70.0	0.0	ESE	0.00	3.0	75.5	78.4	78.4	29.750	0.00	0.000	0.219	79.8	71	69.6	82.6	30
05/25/01	4:30 a	75.2	75.7	74.7	85	70.4	0.0	ESE	0.00	2.0	75.2	78.2	78.2	29.759	0.00	0.000	0.212	79.6	72	69.8	82.5	30
05/25/01	5:00 a	74.6	75.2	74.2	86	70.1	0.0	---	0.00	0.0	74.6	77.3	77.3	29.772	0.00	0.000	0.200	79.3	72	69.5	82.0	30
05/25/01	5:30 a	74.5	74.8	74.2	86	70.0	0.0	ESE	0.00	2.0	74.5	77.2	77.2	29.767	0.00	0.000	0.198	79.1	72	69.3	81.7	30
05/25/01	6:00 a	74.6	74.9	74.2	89	71.1	0.0	ESE	0.00	2.0	74.6	77.5	77.5	29.775	0.00	0.000	0.200	79.0	74	70.0	81.9	30
05/25/01	6:30 a	75.2	76.2	74.3	88	71.4	1.0	ESE	0.50	5.0	75.2	78.5	78.5	29.779	0.00	0.000	0.212	79.0	74	70.0	81.9	30
05/25/01	7:00 a	76.6	77.6	75.7	85	71.7	2.0	E	1.00	7.0	76.6	80.0	80.0	29.786	0.00	0.000	0.242	79.3	75	70.7	82.5	30
05/25/01	7:30 a	78.0	78.9	77.1	83	72.4	3.0	E	1.50	13.0	78.0	81.8	81.8	29.785	0.00	0.000	0.271	79.8	77	71.9	83.6	30
05/25/01	8:00 a	79.2	79.9	78.5	81	72.9	4.0	ESE	2.00	10.0	79.2	83.3	83.3	29.781	0.00	0.000	0.296	80.8	79	73.7	85.9	30
05/25/01	8:30 a	80.4	81.5	79.4	78	72.9	4.0	E	2.00	14.0	80.4	84.9	84.9	29.783	0.00	0.000	0.321	81.7	79	74.5	87.9	30
05/25/01	9:00 a	82.1	83.6	80.9	75	73.4	3.0	ENE	1.50	12.0	82.1	87.8	87.8	29.779	0.00	0.000	0.356	82.7	79	75.5	90.6	30
05/25/01	9:30 a	83.9	85.3	82.8	73	74.3	4.0	ENE	2.00	11.0	83.9	91.7	91.7	29.779	0.00	0.000	0.394	84.2	79	77.0	94.5	30
05/25/01	10:00 a	86.1	87.5	84.7	69	74.7	5.0	ESE	2.50	12.0	86.1	95.1	95.1	29.778	0.00	0.000	0.440	85.5	77	77.5	96.5	30
05/25/01	10:30 a	86.6	87.4	85.7	70	75.6	5.0	ENE	2.50	15.0	86.6	96.6	96.6	29.782	0.00	0.000	0.450	86.8	76	78.3	99.6	30
05/25/01	11:00 a	87.7	88.4	87.0	69	76.3	5.0	ENE	2.50	15.0	87.7	98.1	98.1	29.781	0.00	0.000	0.473	88.0	75	79.1	101.4	30
05/25/01	11:30 a	88.5	89.5	87.1	65	75.2	6.0	ESE	3.00	15.0	88.5	98.2	98.2	29.765	0.00	0.000	0.490	89.0	73	79.2	104.2	30
05/25/01	12:00 p	89.3	90.3	88.3	65	76.0	6.0	ENE	3.00	21.0	89.3	100.6	100.6	29.750	0.00	0.000	0.506	90.0	72	79.8	107.2	30
05/25/01	12:30 p	89.6	91.3	87.2	69	78.1	5.0	ENE	2.50	18.0	89.6	103.8	103.8	29.736	0.00	0.000	0.512	90.8	70	79.7	108.4	30
05/25/01	1:00 p	85.7	87.4	84.6	78	78.0	2.0	NE	1.00	9.0	85.7	97.4	97.4	29.722	0.06	0.000	0.431	90.1	71	79.4	106.9	30
05/25/01	1:30 p	85.2	85.9	84.5	77	77.2	4.0	E	2.00	18.0	85.2	95.8	95.8	29.723	0.02	0.000	0.421	89.0	74	79.6	104.9	30
05/25/01	2:00 p	84.9	85.4	84.1	77	76.9	5.0	E	2.50	20.0	84.9	95.1	95.1	29.733	0.00	0.000	0.415	88.6	74	79.2	103.3	30
05/25/01	2:30 p	83.7	84.9	81.9	75	74.9	4.0	ESE	2.00	20.0	83.7	91.9	91.9	29.701	0.03	0.000	0.390	88.1	69	76.6	98.9	30
05/25/01	3:00 p	81.6	82.2	81.1	83	75.9	1.0	S	0.50	5.0	81.6	88.8	88.8	29.707	0.02	0.000	0.346	86.7	73	77.0	98.0	30
05/25/01	3:30 p	80.9	81.6	80.1	84	75.6	2.0	SSE	1.00	8.0	80.9	87.3	87.3	29.718	0.00	0.000	0.331	86.0	75	77.1	97.0	30
05/25/01	4:00 p	80.6	81.1	80.1	85	75.7	2.0	ESE	1.00	9.0	80.6	86.9	86.9	29.713	0.00	0.000	0.325	85.4	76	77.0	95.9	30
05/25/01	4:30 p	80.9	81.5	80.5	83	75.2	3.0	SE	1.50	10.0	80.9	87.1	87.1	29.713	0.00	0.000	0.331	85.3	77	77.3	96.0	30
05/25/01	5:00 p	81.2	81.8	80.7	82	75.2	3.0	SE	1.50	10.0	81.2	87.5	87.5	29.712	0.00	0.000	0.337	85.1	77	77.1	95.6	30
05/25/01	5:30 p	81.1	81.7	80.6	82	75.1	3.0	SSE	1.50	11.0	81.1	87.3	87.3	29.684	0.00	0.000	0.335	85.0	78	77.4	95.7	30
05/25/01	6:00 p	80.8	81.3	80.4	80	74.0	2.0	SSE	1.00	9.0	80.8	86.1	86.1	29.678	0.00	0.000	0.329	84.9	77	76.9	95.1	30
05/25/01	6:30 p	80.4	81.0	79.8	76	72.1	2.0	SE	1.00	8.0	80.4	84.5	84.5	29.704	0.00	0.000	0.321	84.6	75	75.8	93.8	30
05/25/01	7:00 p	79.7	80.3	78.9	74	70.7	2.0	SE	1.00	10.0	79.7	83.0	83.0	29.716	0.00	0.000	0.306	84.2	72	74.2	92.0	30
05/25/01	7:30 p	78.8	79.4	78.3	83	73.2	4.0	ESE	2.00	11.0	78.8	83.0	83.0	29.728	0.00	0.000	0.288	83.5	74	74.3	91.1	30
05/25/01	8:00 p	78.6	78.9	78.2	85	73.7	5.0	SE	2.50	14.0	78.6	83.1	83.1	29.730	0.00	0.000	0.283	83.1	78	75.5	91.3	30
05/25/01	8:30 p	78.4	78.8	77.9	86	73.9	4.0	SSE	2.00	14.0	78.4	82.9	82.9	29.731	0.00	0.000	0.279	82.9	79	75.7	91.1	30
05/25/01	9:00 p	78.3	78.7	77.9	86	73.8	2.0	SSE	1.00	7.0	78.3	82.7	82.7	29.747	0.00	0.000	0.277	82.7	80	75.9	90.9	30
05/25/01	9:30 p	78.1	78.6	77.7	86	73.6	1.0	SSE	0.50	7.0	78.1	82.4	82.4	29.759	0.00	0.000	0.273	82.5	80	75.7	90.3	30
05/25/01	10:00 p	76.8	78.4	75.0	86	72.3	3.0	NW	1.50	14.0	76.8	80.4	80.4	29.773	0.11	0.000	0.246	82.2	78	74.7	88.9	30
05/25/01	10:30 p	75.2	75.8	74.8	87	71.1	1.0	SW	0.50	3.0	75.2	78.4	78.4	29.780	0.02	0.000	0.212	81.5	78	74.0	87.2	30
05/25/01	11:00 p	74.8	75.3	74.2	88	71.0	0.0	SE	0.00	4.0	74.8	77.9	77.9	29.783	0.00	0.000	0.204	80.8	78	73.3	85.7	30
05/25/01	11:30 p	74.3	74.9	73.9	89	70.8	2.0	SE	1.00	7.0	74.3	76.9	76.9	29.771	0.00	0.000	0.194	80.6	78	73.1	85.3	30
05/26/01	12:00 a	74.4	74.8	74.0	89	70.9	1.0	SE	0.50	6.0	74.4	77.1	77.1	29.774	0.00	0.000	0.196	80.3	77	72.4	84.5	30
05/26/01	12:30 a	74.5	74.9	73.9	89	71.0	2.0	SSE	1.00	5.0	74.5	77.3	77.3	29.754	0.00	0.000	0.198	80.1	77	72.2	84.1	30
05/26/01	1:00 a	74.0	74.5	73.5	90	70.9	3.0	SSW	1.50	9.0	74.0	76.4	76.4	29.739	0.00	0.000	0.188	79.8	78	72.3	83.8	30
05/26/01	1:30 a	73.6	74.1	73.1	92	71.1	3.0	SSW	1.50	10.0	73.6	76.2	76.2	29.725	0.00	0.000	0.179	79.6	79	72.5	83.6	30
05/26/01	2:00 a	73.3	73.8	72.8	92	70.8	3.0	SSW	1.50	9.0	73.3	75.9	75.9	29.718	0.00	0.000	0.173	79.3	79	72.2	83.1	30
05/26/01	2:30 a	73.1	73.5	72.6	93	71.0	4.0	SSW	2.00	10.0	73.1	75.8	75.8	29.719	0.00	0.000	0.169	79.0	80	72.3	82.8	30
05/26/01	3:00 a	72.9	73.3	72.4	92	70.4	3.0	SW	1.50	9.0	72.9	75.5	75.5	29.728	0.00	0.000	0.165	78.8	80	72.1	82.5	30
05/26/01	3:30 a	72.6	73.1	72.1	92	70.1	3.0	SSW	1.50	10.0	72.6	75.1	75.1	29.725	0.00	0.000	0.158	78.5	80	71.8	82.1	30
05/26/01	4:00 a	72.3	72.8	71.8	91	69.5	2.0	SSW	1.00	6.0	72.3	74.7	74.7	29.730	0.00	0.000	0.152	78.2	79	71.2	81.5	30
05/26/01	4:30 a	72.1	72.6	71.6	92	69.6	2.0	SSW	1.00	8.0	72.1	74.6	74.6	29.737	0.00	0.000	0.148	78.0	79	71.0	81.2	30
05/26/01	5:00 a	71.8	72.3	71.3	90	68.7	2.0	SSW	1.00	8.0	71.8	74.0	74.0	29.747	0.00	0.000	0.142	77.7	79	70.7	80.8	30
05/26/01	5:30 a	71.5	72.1	71.0	91	68.7	2.0	SSW	1.00	7.0	71.5	73.8	73.8	29.759	0.00	0.000	0.135	77.5	79	70.5	80.6	30
05/26/01	6:00 a	71.4	71.8	71.0	91	68.6	1.0	SW	0.50	6.0	71.4	73.7	73.7	29.767	0.00	0.000	0.133	77.2	79	70.2	80.2	30
05/26/01	6:30 a	71.6	72.2	71.1	92	69.2	1.0	SW	0.50	4.0	71.6	74.0	74.0	29.773	0.00	0.000	0.137	77.3	80	70.6	80.4	30
05/26/01	7:00 a	72.1	72.6	71.5	92	69.6	0.0	WNW	0.00	4.0	72.1	74.6	74.6	29.780	0.00	0.000	0.148	77.8	80	71.1	81.1	30
05/26/01	7:30 a	72.7	73.4	72.1	92	70.2	0.0	WSW	0.00	3.0	72.7	75.3	75.3	29.781	0.00	0.000	0.160	78.1	79	71.1	81.4	30
05/26/01	8:00 a	73.4	74.1	72.6	91	70.6	1.0	WNW	0.50	5.0	73.4	75.9	75.9	29.783	0.00	0.000	0.175	78.5	80	71.8	82.1	30
05/26/01	8:30 a	74.9	76.3	73.6	86	70.4	1.0	NW	0.50	5.0	74.9	77.9	77.9	29.780	0.00	0.000	0.206	79.1	81	72.8	83.2	30
05/26/01	9:00 a	76.6	77.6	75.6	83	71.0	2.0	NW	1.00	9.0	76.6	79.8	79.8	29.777	0.00	0.000	0.242	80.1	82	74.1	85.1	30
05/26/01	9:30 a	78.0	78.7	77.1	80	71.3	2.0	NW	1.00	6.0	78.0	81.4	81.4	29.776	0.00	0.000	0.271	81.2	81	74.8	87.2	30
05/26/01	10:00 a	78.8	79.6	78.0	78	71.4	2.0	NW	1.00	7.0	78.8	82.2	82.2	29.779	0.00	0.000	0.288	81.6	79	74.5	87.7	30
05/26/01	10:30 a	80.1	81.6	78.9	74	71.1	2.0	SW	1.00	6.0	80.1	83.6	83.6	29.778	0.00	0.000	0.315	82.2	78	74.7	88.9	30
05/26/01	11:00 a	82.4	84.0	81.1	69	71.2	2.0	SW	1.00	7.0	82.4	86.9	86.9	29.769	0.00	0.000	0.363	83.2	77	75.2	91.3	30
05/26/01	11:30 a	85.2	87.0	83.4	62	70.7	2.0	WSW	1.00	9.0	85.2	90.5	90.5	29.764	0.00	0.000	0.421	84.4	74	75.2	93.1	30
05/26/01	12:00 p	87.5	88.2	86.7	61	72.4	3.0	NW	1.50	8.0	87.5	94.6	94.6	29.753	0.00	0.000	0.469	85.9	71	75.4	95.4	30
05/26/01	12:30 p	87.7	88.5	86.8	59	71.6	3.0	WSW	1.50	9.0	87.7	94.1	94.1	29.743	0.00	0.000	0.473	86.6	69	75.2	96.2	30
05/26/01	1:00 p	88.9	89.7	87.8	58	72.2	2.0	SSW	1.00	9.0	88.9	96.3	96.3	29.728	0.00	0.000	0.498	87.4	68	75.5	97.3	30
05/26/01	1:30 p	88.6	89.8	86.8	64	74.9	2.0	NE	1.00	8.0	88.6	98.1	98.1	29.723	0.00	0.000	0.492	88.3	68	76.4	99.1	30
05/26/01	2:00 p	86.3	87.5	85.4	67	74.0	3.0	NE	1.50	10.0	86.3	94.8	94.8	29.723	0.00	0.000	0.444	89.0	68	77.1	101.2	30
05/26/01	2:30 p	86.0	87.6	85.3	65	72.9	4.0	ENE	2.00	11.0	86.0	93.4	93.4	29.708	0.00	0.000	0.438	89.2	68	77.3	101.9	30
05/26/01	3:00 p	87.0	88.0	86.1	66	74.3	4.0	ENE	2.00	13.0	87.0	96.0	96.0	29.700	0.00	0.000	0.458	89.5	67	77.1	102.3	30
05/26/01	3:30 p	88.2	89.2	86.7	64	74.5	6.0	ESE	3.00	18.0	88.2	97.0	97.0	29.695	0.00	0.000	0.483	89.9	67	77.5	103.7	30
05/26/01	4:00 p	88.3	89.3	87.4	64	74.6	6.0	ESE	3.00	17.0	88.3	97.2	97.2	29.689	0.00	0.000	0.485	89.9	67	77.5	103.7	30
05/26/01	4:30 p	87.8	88.6	86.8	64	74.1	6.0	ESE	3.00	16.0	87.8	96.2	96.2	29.687	0.00	0.000	0.475	90.0	66	77.1	103.4	30
05/26/01	5:00 p	87.8	88.7	87.0	63	73.6	6.0	ESE	3.00	15.0	87.8	95.8	95.8	29.689	0.00	0.000	0.475	90.1	66	77.2	103.7	30
05/26/01	5:30 p	87.2	88.4	85.7	66	74.5	5.0	ESE	2.50	13.0	87.2	96.2	96.2	29.690	0.00	0.000	0.462	89.8	66	76.9	102.7	30
05/26/01	6:00 p	86.2	87.1	85.4	65	73.0	4.0	SE	2.00	12.0	86.2	93.8	93.8	29.696	0.00	0.000	0.442	88.9	65	75.6	99.3	30
05/26/01	6:30 p	85.0	86.0	84.1	67	72.8	4.0	SE	2.00	11.0	85.0	91.8	91.8	29.699	0.00	0.000	0.417	87.8	67	75.5	97.4	30
05/26/01	7:00 p	83.4	84.6	82.5	70	72.6	4.0	SE	2.00	13.0	83.4	89.4	89.4	29.708	0.00	0.000	0.383	86.5	68	74.7	95.6	30
05/26/01	7:30 p	81.9	82.9	80.9	72	72.0	3.0	SE	1.50	13.0	81.9	86.6	86.6	29.716	0.00	0.000	0.352	85.4	69	74.1	93.5	30
05/26/01	8:00 p	80.4	81.1	79.7	76	72.1	3.0	SSE	1.50	9.0	80.4	84.5	84.5	29.721	0.00	0.000	0.321	85.0	70	74.1	92.9	30
05/26/01	8:30 p	79.6	80.2	79.0	75	71.0	2.0	SSE	1.00	9.0	79.6	83.0	83.0	29.735	0.00	0.000	0.304	84.6	70	73.7	92.1	30
05/26/01	9:00 p	78.9	79.5	78.3	77	71.1	2.0	SSE	1.00	7.0	78.9	82.2	82.2	29.737	0.00	0.000	0.290	84.1	70	73.3	91.1	30
05/26/01	9:30 p	78.3	78.9	77.9	80	71.6	2.0	SSE	1.00	7.0	78.3	81.8	81.8	29.741	0.00	0.000	0.277	83.5	71	73.1	90.0	30
05/26/01	10:00 p	77.9	78.4	77.5	83	72.3	2.0	SE	1.00	6.0	77.9	81.7	81.7	29.746	0.00	0.000	0.269	82.9	74	73.8	89.5	30
05/26/01	10:30 p	77.7	78.1	77.4	85	72.8	2.0	SE	1.00	6.0	77.7	81.6	81.6	29.746	0.00	0.000	0.265	82.5	76	74.2	89.1	30
05/26/01	11:00 p	77.6	77.9	77.1	85	72.7	0.0	SSE	0.00	4.0	77.6	81.5	81.5	29.748	0.00	0.000	0.262	82.2	77	74.3	88.6	30
05/26/01	11:30 p	77.4	77.7	77.0	85	72.5	0.0	SSE	0.00	1.0	77.4	81.2	81.2	29.745	0.00	0.000	0.258	81.9	76	73.6	87.6	30
05/27/01	12:00 a	77.1	77.6	76.5	85	72.2	0.0	---	0.00	1.0	77.1	80.8	80.8	29.737	0.00	0.000	0.252	81.7	74	72.6	86.6	30
05/27/01	12:30 a	76.4	77.0	75.8	86	71.9	0.0	---	0.00	0.0	76.4	79.8	79.8	29.737	0.00	0.000	0.238	81.3	74	72.2	85.8	30
05/27/01	1:00 a	75.8	76.3	75.4	87	71.7	0.0	SSE	0.00	1.0	75.8	79.1	79.1	29.734	0.00	0.000	0.225	80.9	74	71.8	85.0	30
05/27/01	1:30 a	75.4	75.9	74.9	88	71.6	0.0	SSE	0.00	3.0	75.4	78.7	78.7	29.734	0.00	0.000	0.217	80.6	74	71.5	84.5	30
05/27/01	2:00 a	75.1	75.5	74.6	87	71.0	0.0	SSE	0.00	2.0	75.1	78.3	78.3	29.736	0.00	0.000	0.210	80.2	75	71.6	84.0	30
05/27/01	2:30 a	74.6	75.1	74.2	88	70.8	0.0	SSE	0.00	1.0	74.6	77.5	77.5	29.727	0.00	0.000	0.200	79.9	74	70.9	83.3	30
05/27/01	3:00 a	74.3	74.8	73.9	88	70.5	0.0	SSE	0.00	1.0	74.3	76.9	76.9	29.723	0.00	0.000	0.194	79.6	75	71.0	83.0	30
05/27/01	3:30 a	74.0	74.4	73.4	88	70.2	0.0	---	0.00	0.0	74.0	76.3	76.3	29.720	0.00	0.000	0.188	79.3	75	70.7	82.5	30
05/27/01	4:00 a	73.7	74.0	73.2	88	69.9	0.0	---	0.00	0.0	73.7	76.0	76.0	29.724	0.00	0.000	0.181	79.1	74	70.1	82.0	30
05/27/01	4:30 a	73.3	73.8	72.7	87	69.2	0.0	SSE	0.00	2.0	73.3	75.6	75.6	29.726	0.00	0.000	0.173	78.8	74	69.8	81.6	30
05/27/01	5:00 a	72.9	73.3	72.4	87	68.8	0.0	SSE	0.00	4.0	72.9	75.1	75.1	29.733	0.00	0.000	0.165	78.5	75	69.9	81.3	30
05/27/01	5:30 a	72.4	72.9	71.9	85	67.6	0.0	---	0.00	0.0	72.4	74.3	74.3	29.739	0.00	0.000	0.154	78.1	74	69.1	80.6	30
05/27/01	6:00 a	72.0	72.5	71.5	85	67.2	0.0	---	0.00	0.0	72.0	73.8	73.8	29.748	0.00	0.000	0.146	77.8	73	68.4	80.1	30
05/27/01	6:30 a	71.9	72.3	71.5	85	67.1	0.0	SSE	0.00	3.0	71.9	73.7	73.7	29.758	0.00	0.000	0.144	77.7	74	68.7	80.1	30
05/27/01	7:00 a	72.2	73.0	71.7	84	67.1	0.0	SSE	0.00	2.0	72.2	74.0	74.0	29.768	0.00	0.000	0.150	77.7	76	69.5	80.4	30
05/27/01	7:30 a	73.0	73.7	72.4	82	67.2	0.0	SSE	0.00	1.0	73.0	74.9	74.9	29.770	0.00	0.000	0.167	78.0	75	69.4	80.6	30
05/27/01	8:00 a	73.9	75.0	73.1	80	67.3	1.0	SSE	0.50	3.0	73.9	75.9	75.9	29.779	0.00	0.000	0.185	78.2	75	69.6	80.9	30
05/27/01	8:30 a	75.8	77.0	74.5	74	66.9	1.0	SSW	0.50	4.0	75.8	78.0	78.0	29.782	0.00	0.000	0.225	78.9	75	70.3	81.9	30
05/27/01	9:00 a	78.0	79.4	76.7	69	67.0	1.0	SSW	0.50	4.0	78.0	79.9	79.9	29.780	0.00	0.000	0.271	79.9	74	70.9	83.3	30
05/27/01	9:30 a	80.4	81.5	79.2	63	66.6	2.0	SW	1.00	6.0	80.4	82.3	82.3	29.783	0.00	0.000	0.321	81.0	74	71.9	85.2	30
05/27/01	10:00 a	82.5	83.8	81.3	55	64.7	2.0	SW	1.00	7.0	82.5	84.2	84.2	29.788	0.00	0.000	0.365	82.0	72	72.1	86.8	30
05/27/01	10:30 a	84.2	85.5	83.2	54	65.8	2.0	SW	1.00	8.0	84.2	86.7	86.7	29.786	0.00	0.000	0.400	83.1	70	72.3	88.6	30
05/27/01	11:00 a	85.8	86.8	85.2	55	67.8	3.0	SW	1.50	9.0	85.8	89.3	89.3	29.774	0.00	0.000	0.433	84.2	68	72.5	90.6	30
05/27/01	11:30 a	87.3	87.8	86.9	55	69.2	3.0	SW	1.50	8.0	87.3	92.2	92.2	29.767	0.00	0.000	0.465	85.2	67	73.0	92.3	30
05/27/01	12:00 p	87.7	88.4	86.8	54	69.0	4.0	SSW	2.00	11.0	87.7	92.4	92.4	29.753	0.00	0.000	0.473	86.0	66	73.3	93.8	30
05/27/01	12:30 p	89.1	90.7	87.3	50	68.0	3.0	SW	1.50	10.0	89.1	93.8	93.8	29.753	0.00	0.000	0.502	86.7	65	73.5	94.9	30
05/27/01	1:00 p	91.8	92.7	90.4	48	69.3	3.0	SSW	1.50	9.0	91.8	97.8	97.8	29.737	0.00	0.000	0.558	87.9	64	74.2	96.3	30
05/27/01	1:30 p	94.5	96.1	92.3	43	68.5	3.0	SW	1.50	8.0	94.5	100.7	100.7	29.721	0.00	0.000	0.615	89.2	63	75.0	99.3	30
05/27/01	2:00 p	96.2	96.8	95.6	44	70.7	4.0	SW	2.00	10.0	96.2	104.9	104.9	29.710	0.00	0.000	0.650	90.6	61	75.3	101.9	30
05/27/01	2:30 p	97.4	98.4	96.0	45	72.5	3.0	SW	1.50	12.0	97.4	108.2	108.2	29.700	0.00	0.000	0.675	91.6	60	75.7	103.9	30
05/27/01	3:00 p	95.8	98.4	93.5	50	74.2	4.0	ENE	2.00	11.0	95.8	107.6	107.6	29.686	0.00	0.000	0.642	92.6	60	76.7	106.6	30
05/27/01	3:30 p	93.4	94.6	92.1	53	73.7	5.0	ESE	2.50	14.0	93.4	104.2	104.2	29.675	0.00	0.000	0.592	93.1	60	77.2	108.0	30
05/27/01	4:00 p	90.3	92.6	88.5	57	73.0	5.0	ESE	2.50	15.0	90.3	99.1	99.1	29.684	0.00	0.000	0.527	92.3	60	76.4	105.7	30
05/27/01	4:30 p	87.4	88.6	86.4	62	72.8	5.0	ESE	2.50	13.0	87.4	94.9	94.9	29.693	0.00	0.000	0.467	90.6	61	75.3	101.9	30
05/27/01	5:00 p	85.8	86.5	84.8	65	72.7	4.0	SE	2.00	14.0	85.8	92.9	92.9	29.709	0.00	0.000	0.433	89.3	62	74.6	99.1	30
05/27/01	5:30 p	83.7	84.8	82.0	65	70.7	7.0	SSW	3.50	16.0	83.7	88.5	88.5	29.726	0.00	0.000	0.390	88.2	61	73.0	95.8	30
05/27/01	6:00 p	80.8	82.1	79.5	69	69.7	4.0	SW	2.00	12.0	80.8	83.9	83.9	29.727	0.00	0.000	0.329	86.6	61	71.5	93.2	30
05/27/01	6:30 p	78.8	79.6	78.3	72	69.0	5.0	SSW	2.50	13.0	78.8	81.3	81.3	29.736	0.00	0.000	0.288	85.2	63	71.2	90.9	30
05/27/01	7:00 p	78.4	79.1	77.8	75	69.8	4.0	SSW	2.00	11.0	78.4	81.2	81.2	29.742	0.00	0.000	0.279	84.6	65	71.5	90.3	30
05/27/01	7:30 p	77.7	78.2	77.1	74	68.7	3.0	SSW	1.50	9.0	77.7	80.1	80.1	29.740	0.00	0.000	0.265	83.8	65	70.8	88.7	30
05/27/01	8:00 p	77.1	77.4	76.7	72	67.4	2.0	SSW	1.00	7.0	77.1	79.3	79.3	29.731	0.00	0.000	0.252	83.2	65	70.2	87.4	30
05/27/01	8:30 p	76.8	77.1	76.6	73	67.5	1.0	SSE	0.50	5.0	76.8	79.0	79.0	29.741	0.00	0.000	0.246	82.6	65	69.6	86.2	30
05/27/01	9:00 p	76.6	76.9	76.3	74	67.7	0.0	S	0.00	6.0	76.6	78.9	78.9	29.748	0.00	0.000	0.242	82.1	66	69.6	85.6	30
05/27/01	9:30 p	76.3	76.7	75.9	72	66.6	0.0	S	0.00	2.0	76.3	78.4	78.4	29.764	0.00	0.000	0.235	81.6	66	69.1	84.7	30
05/27/01	10:00 p	75.8	76.4	75.3	74	66.9	0.0	S	0.00	2.0	75.8	78.0	78.0	29.774	0.00	0.000	0.225	81.3	65	68.4	84.0	30
05/27/01	10:30 p	75.0	75.6	74.4	73	65.8	1.0	S	0.50	6.0	75.0	76.9	76.9	29.780	0.00	0.000	0.208	80.9	65	68.0	83.4	30
05/27/01	11:00 p	74.2	74.7	73.8	73	65.0	2.0	S	1.00	8.0	74.2	76.0	76.0	29.781	0.00	0.000	0.192	80.5	65	67.6	82.8	30
05/27/01	11:30 p	73.8	74.2	73.4	75	65.4	3.0	SSW	1.50	10.0	73.8	75.6	75.6	29.770	0.00	0.000	0.183	80.0	65	67.2	82.0	30
05/28/01	12:00 a	73.5	73.9	73.2	78	66.2	2.0	SSW	1.00	7.0	73.5	75.3	75.3	29.759	0.00	0.000	0.177	79.7	66	67.3	81.7	30
05/28/01	12:30 a	73.2	73.6	72.9	79	66.3	1.0	SSW	0.50	6.0	73.2	75.0	75.0	29.756	0.00	0.000	0.171	79.4	67	67.5	81.5	30
05/28/01	1:00 a	73.1	73.4	72.8	81	66.9	1.0	SSW	0.50	5.0	73.1	75.0	75.0	29.751	0.00	0.000	0.169	79.1	67	67.2	81.1	30
05/28/01	1:30 a	72.8	73.2	72.4	82	67.0	1.0	SW	0.50	3.0	72.8	74.6	74.6	29.753	0.00	0.000	0.163	78.8	68	67.3	80.8	30
05/28/01	2:00 a	72.4	72.8	72.0	83	66.9	0.0	SW	0.00	1.0	72.4	74.2	74.2	29.743	0.00	0.000	0.154	78.5	68	67.1	80.4	30
05/28/01	2:30 a	72.0	72.5	71.7	83	66.6	0.0	SW	0.00	1.0	72.0	73.6	73.6	29.739	0.00	0.000	0.146	78.2	67	66.3	79.9	30
05/28/01	3:00 a	71.7	72.0	71.4	84	66.6	0.0	SW	0.00	3.0	71.7	73.4	73.4	29.753	0.00	0.000	0.140	77.9	67	66.1	79.5	30
05/28/01	3:30 a	71.6	71.9	71.3	86	67.2	0.0	SSE	0.00	3.0	71.6	73.5	73.5	29.754	0.00	0.000	0.137	77.7	67	65.9	79.3	30
05/28/01	4:00 a	71.3	71.7	70.9	86	66.9	0.0	S	0.00	4.0	71.3	73.2	73.2	29.764	0.00	0.000	0.131	77.4	68	66.0	79.1	30
05/28/01	4:30 a	71.1	71.5	70.8	89	67.7	1.0	S	0.50	6.0	71.1	73.2	73.2	29.774	0.00	0.000	0.127	77.3	69	66.3	79.1	30
05/28/01	5:00 a	71.0	71.3	70.8	89	67.6	2.0	SSW	1.00	6.0	71.0	73.1	73.1	29.776	0.00	0.000	0.125	77.1	70	66.6	79.0	30
05/28/01	5:30 a	71.1	71.3	70.8	90	68.0	1.0	SSW	0.50	5.0	71.1	73.3	73.3	29.781	0.00	0.000	0.127	77.0	71	66.9	79.0	30
05/28/01	6:00 a	71.0	71.3	70.7	89	67.6	1.0	SSW	0.50	5.0	71.0	73.1	73.1	29.793	0.00	0.000	0.125	76.9	72	67.2	79.0	30
05/28/01	6:30 a	71.3	71.7	70.8	89	67.9	1.0	SSW	0.50	6.0	71.3	73.4	73.4	29.803	0.00	0.000	0.131	76.8	72	67.1	78.9	30
05/28/01	7:00 a	71.7	72.2	71.2	88	68.0	1.0	SW	0.50	5.0	71.7	73.7	73.7	29.818	0.00	0.000	0.140	76.8	73	67.5	79.0	30
05/28/01	7:30 a	72.7	73.6	71.9	87	68.6	1.0	SW	0.50	5.0	72.7	74.9	74.9	29.830	0.00	0.000	0.160	77.0	75	68.5	79.5	30
05/28/01	8:00 a	73.7	74.2	73.1	87	69.6	2.0	SW	1.00	6.0	73.7	76.0	76.0	29.840	0.00	0.000	0.181	77.3	77	69.5	80.1	30
05/28/01	8:30 a	75.0	76.5	74.2	82	69.1	2.0	SW	1.00	8.0	75.0	77.7	77.7	29.832	0.00	0.000	0.208	77.9	77	70.1	80.8	30
05/28/01	9:00 a	77.8	78.8	76.2	76	69.6	3.0	WSW	1.50	8.0	77.8	80.5	80.5	29.831	0.00	0.000	0.267	79.2	78	71.7	82.8	30
05/28/01	9:30 a	80.0	81.2	78.7	72	70.2	2.0	SW	1.00	6.0	80.0	83.1	83.1	29.835	0.00	0.000	0.313	80.4	77	72.5	84.7	30
05/28/01	10:00 a	82.3	83.6	81.1	66	69.8	1.0	SW	0.50	5.0	82.3	86.0	86.0	29.831	0.00	0.000	0.360	81.7	76	73.4	87.1	30
05/28/01	10:30 a	84.8	86.4	83.5	62	70.3	1.0	S	0.50	6.0	84.8	89.7	89.7	29.827	0.00	0.000	0.413	83.3	72	73.3	89.8	30
05/28/01	11:00 a	87.2	88.1	86.0	60	71.6	2.0	SW	1.00	6.0	87.2	93.9	93.9	29.824	0.00	0.000	0.462	84.9	69	73.6	92.3	30
05/28/01	11:30 a	88.1	89.3	87.2	56	70.4	1.0	SW	0.50	5.0	88.1	93.7	93.7	29.811	0.00	0.000	0.481	86.0	67	73.8	94.2	30
05/28/01	12:00 p	88.4	89.5	86.9	62	73.7	2.0	ENE	1.00	7.0	88.4	96.7	96.7	29.808	0.00	0.000	0.488	87.1	66	74.4	96.1	30
05/28/01	12:30 p	85.6	87.2	84.5	67	73.4	2.0	NE	1.00	7.0	85.6	93.2	93.2	29.808	0.00	0.000	0.429	85.8	70	74.9	94.8	30
05/28/01	1:00 p	84.2	84.8	83.8	68	72.5	2.0	ENE	1.00	7.0	84.2	90.6	90.6	29.803	0.00	0.000	0.400	84.8	71	74.3	92.8	30
05/28/01	1:30 p	83.8	84.3	83.5	71	73.4	4.0	ESE	2.00	11.0	83.8	90.8	90.8	29.797	0.00	0.000	0.392	84.4	75	75.6	93.5	30
05/28/01	2:00 p	84.9	86.2	83.6	66	72.3	5.0	ESE	2.50	17.0	84.9	91.3	91.3	29.794	0.00	0.000	0.415	84.1	73	74.5	92.2	30
05/28/01	2:30 p	85.9	86.4	85.5	65	72.8	5.0	ESE	2.50	16.0	85.9	93.2	93.2	29.786	0.00	0.000	0.435	84.8	72	74.8	93.2	30
05/28/01	3:00 p	84.9	85.6	84.5	66	72.3	4.0	SE	2.00	12.0	84.9	91.3	91.3	29.770	0.00	0.000	0.415	84.5	72	74.5	92.6	30
05/28/01	3:30 p	84.4	84.8	84.1	68	72.7	4.0	SE	2.00	13.0	84.4	91.0	91.0	29.758	0.00	0.000	0.404	85.3	70	74.4	93.6	30
05/28/01	4:00 p	85.8	86.9	84.5	64	72.2	4.0	SE	2.00	13.0	85.8	92.6	92.6	29.758	0.00	0.000	0.433	86.0	70	75.1	95.3	30
05/28/01	4:30 p	84.9	85.7	84.4	68	73.2	3.0	SE	1.50	11.0	84.9	92.0	92.0	29.764	0.00	0.000	0.415	86.2	69	74.8	95.4	30
05/28/01	5:00 p	83.8	84.4	83.1	71	73.4	3.0	SE	1.50	8.0	83.8	90.8	90.8	29.766	0.00	0.000	0.392	85.8	70	74.9	94.8	30
05/28/01	5:30 p	82.4	83.2	80.8	65	69.4	3.0	SE	1.50	13.0	82.4	85.9	85.9	29.769	0.00	0.000	0.363	85.3	70	74.4	93.6	30
05/28/01	6:00 p	78.9	80.9	76.2	78	71.5	4.0	SSW	2.00	11.0	78.9	82.3	82.3	29.809	0.01	0.000	0.290	84.0	67	71.9	89.9	30
05/28/01	6:30 p	74.0	76.6	72.3	82	68.2	4.0	W	2.00	16.0	74.0	76.1	76.1	29.818	0.10	0.000	0.188	82.2	67	70.1	86.0	30
05/28/01	7:00 p	71.9	72.4	71.4	83	66.5	1.0	WSW	0.50	8.0	71.9	73.5	73.5	29.810	0.02	0.000	0.144	81.0	67	69.0	83.9	30
05/28/01	7:30 p	71.9	72.3	71.4	84	66.8	0.0	W	0.00	2.0	71.9	73.6	73.6	29.794	0.05	0.000	0.144	80.7	68	69.2	83.6	30
05/28/01	8:00 p	71.6	72.2	71.1	84	66.5	0.0	N	0.00	4.0	71.6	73.3	73.3	29.779	0.01	0.000	0.137	80.5	68	69.0	83.2	30
05/28/01	8:30 p	71.9	72.3	71.5	85	67.1	0.0	---	0.00	2.0	71.9	73.7	73.7	29.783	0.00	0.000	0.144	80.2	68	68.7	82.7	30
05/28/01	9:00 p	71.7	72.2	71.2	87	67.6	0.0	SE	0.00	3.0	71.7	73.7	73.7	29.790	0.00	0.000	0.140	79.7	68	68.2	82.0	30
05/28/01	9:30 p	71.5	71.9	71.1	87	67.4	0.0	SE	0.00	2.0	71.5	73.5	73.5	29.803	0.00	0.000	0.135	79.2	68	67.7	81.3	30
05/28/01	10:00 p	71.6	71.9	71.2	88	67.9	0.0	---	0.00	1.0	71.6	73.6	73.6	29.808	0.00	0.000	0.137	78.9	68	67.4	80.9	30
05/28/01	10:30 p	71.4	71.8	71.0	89	68.0	0.0	---	0.00	0.0	71.4	73.5	73.5	29.828	0.00	0.000	0.133	78.6	69	67.6	80.7	30
05/28/01	11:00 p	71.3	71.7	71.0	88	67.6	0.0	SE	0.00	3.0	71.3	73.3	73.3	29.820	0.00	0.000	0.131	78.3	69	67.3	80.3	30
05/28/01	11:30 p	71.2	71.6	70.9	88	67.5	0.0	SE	0.00	3.0	71.2	73.2	73.2	29.815	0.00	0.000	0.129	78.0	71	67.8	80.1	30
05/29/01	12:00 a	71.3	71.7	71.0	89	67.9	0.0	---	0.00	0.0	71.3	73.4	73.4	29.815	0.00	0.000	0.131	77.8	71	67.6	79.9	30
05/29/01	12:30 a	71.4	71.7	71.0	89	68.0	0.0	---	0.00	0.0	71.4	73.5	73.5	29.808	0.00	0.000	0.133	77.6	71	67.4	79.7	30
05/29/01	1:00 a	71.3	71.6	70.9	90	68.2	0.0	---	0.00	0.0	71.3	73.5	73.5	29.803	0.00	0.000	0.131	77.4	72	67.7	79.6	30
05/29/01	1:30 a	71.3	71.6	70.9	90	68.2	0.0	---	0.00	0.0	71.3	73.5	73.5	29.794	0.00	0.000	0.131	77.3	71	67.2	79.4	30
05/29/01	2:00 a	71.3	71.6	70.9	91	68.5	0.0	---	0.00	0.0	71.3	73.6	73.6	29.794	0.00	0.000	0.131	77.1	72	67.4	79.3	30
05/29/01	2:30 a	71.2	71.6	70.9	91	68.4	0.0	---	0.00	0.0	71.2	73.5	73.5	29.787	0.00	0.000	0.129	77.0	71	66.9	79.0	30
05/29/01	3:00 a	71.2	71.5	70.8	91	68.4	0.0	---	0.00	0.0	71.2	73.5	73.5	29.793	0.00	0.000	0.129	76.9	71	66.8	78.9	30
05/29/01	3:30 a	70.9	71.4	70.5	90	67.8	0.0	---	0.00	0.0	70.9	73.1	73.1	29.787	0.00	0.000	0.123	76.7	72	67.0	78.8	30
05/29/01	4:00 a	70.5	71.0	70.0	91	67.7	0.0	---	0.00	0.0	70.5	72.7	72.7	29.784	0.00	0.000	0.115	76.4	72	66.7	78.5	30
05/29/01	4:30 a	70.0	70.6	69.5	91	67.3	0.0	---	0.00	0.0	70.0	72.1	72.1	29.796	0.00	0.000	0.104	76.1	72	66.4	78.2	30
05/29/01	5:00 a	69.7	70.1	69.2	91	67.0	0.0	---	0.00	0.0	69.7	71.8	71.8	29.804	0.00	0.000	0.098	75.8	72	66.1	77.8	30
05/29/01	5:30 a	69.5	69.8	69.2	91	66.8	0.0	---	0.00	0.0	69.5	71.6	71.6	29.810	0.00	0.000	0.094	75.5	72	65.8	77.4	30
05/29/01	6:00 a	69.6	70.1	69.2	91	66.9	0.0	---	0.00	0.0	69.6	71.7	71.7	29.822	0.00	0.000	0.096	75.3	73	66.0	77.3	30
05/29/01	6:30 a	70.3	71.1	69.5	92	67.9	1.0	SE	0.50	4.0	70.3	72.6	72.6	29.839	0.00	0.000	0.110	75.3	74	66.4	77.4	30
05/29/01	7:00 a	71.5	72.5	70.5	94	69.7	1.0	SE	0.50	6.0	71.5	74.1	74.1	29.842	0.00	0.000	0.135	75.4	74	66.5	77.5	30
05/29/01	7:30 a	73.3	74.5	72.1	95	71.8	3.0	SSW	1.50	8.0	73.3	76.2	76.2	29.855	0.00	0.000	0.173	75.9	79	68.9	78.7	30
05/29/01	8:00 a	75.2	76.5	74.2	93	73.0	3.0	S	1.50	10.0	75.2	78.8	78.8	29.854	0.00	0.000	0.212	77.0	86	72.5	80.7	30
05/29/01	8:30 a	77.6	79.1	76.0	85	72.7	4.0	SSW	2.00	12.0	77.6	81.5	81.5	29.853	0.00	0.000	0.262	78.4	88	74.5	83.2	30
05/29/01	9:00 a	80.2	81.8	78.8	79	73.1	4.0	SSW	2.00	13.0	80.2	84.7	84.7	29.848	0.00	0.000	0.317	79.8	86	75.2	85.5	30
05/29/01	9:30 a	82.2	83.4	81.2	74	73.1	4.0	SSW	2.00	11.0	82.2	87.8	87.8	29.840	0.00	0.000	0.358	81.2	84	75.9	88.1	30
05/29/01	10:00 a	84.2	85.6	82.9	67	72.0	3.0	SSW	1.50	8.0	84.2	90.3	90.3	29.842	0.00	0.000	0.400	82.4	81	76.0	90.3	30
05/29/01	10:30 a	86.4	88.0	85.2	61	71.4	4.0	SSW	2.00	11.0	86.4	92.7	92.7	29.843	0.00	0.000	0.446	83.8	78	76.2	93.2	30
05/29/01	11:00 a	88.6	89.8	87.5	57	71.4	3.0	SSW	1.50	7.0	88.6	95.2	95.2	29.824	0.00	0.000	0.492	85.2	75	76.4	95.1	30
05/29/01	11:30 a	91.1	92.9	89.3	54	72.1	4.0	SSW	2.00	10.0	91.1	99.4	99.4	29.808	0.00	0.000	0.544	86.6	73	76.9	97.8	30
05/29/01	12:00 p	92.4	93.2	91.5	53	72.8	4.0	SW	2.00	10.0	92.4	101.8	101.8	29.797	0.00	0.000	0.571	88.1	70	77.1	99.3	30
05/29/01	12:30 p	92.5	94.2	91.0	52	72.3	3.0	SSW	1.50	9.0	92.5	101.4	101.4	29.785	0.00	0.000	0.573	88.8	69	77.3	101.1	30
05/29/01	1:00 p	94.3	95.0	93.2	59	77.8	4.0	SSE	2.00	12.0	94.3	110.9	110.9	29.777	0.00	0.000	0.610	89.7	68	77.7	103.6	30
05/29/01	1:30 p	92.6	93.8	90.8	63	78.2	5.0	ESE	2.50	15.0	92.6	108.9	108.9	29.763	0.00	0.000	0.575	90.5	69	78.9	106.8	30
05/29/01	2:00 p	90.5	92.2	88.9	68	78.5	5.0	ESE	2.50	18.0	90.5	106.1	106.1	29.751	0.00	0.000	0.531	90.5	69	78.9	106.8	30
05/29/01	2:30 p	89.8	90.7	88.9	64	76.0	6.0	ESE	3.00	16.0	89.8	101.6	101.6	29.732	0.00	0.000	0.517	90.2	69	78.6	105.8	30
05/29/01	3:00 p	89.2	90.5	87.8	64	75.4	6.0	ESE	3.00	15.0	89.2	99.8	99.8	29.728	0.00	0.000	0.504	90.1	68	78.1	104.9	30
05/29/01	3:30 p	87.4	88.2	86.4	66	74.6	5.0	ESE	2.50	14.0	87.4	96.5	96.5	29.730	0.00	0.000	0.467	89.3	68	77.3	102.2	30
05/29/01	4:00 p	84.4	87.0	79.3	72	74.4	5.0	NW	2.50	30.0	84.4	92.4	92.4	29.763	0.22	0.000	0.404	88.1	67	75.8	98.0	30
05/29/01	4:30 p	77.2	79.4	76.1	80	70.5	4.0	NNW	2.00	16.0	77.2	80.3	80.3	29.778	0.11	0.000	0.254	85.6	66	72.9	92.9	30
05/29/01	5:00 p	77.0	77.4	76.4	83	71.4	1.0	ENE	0.50	5.0	77.0	80.4	80.4	29.760	0.00	0.000	0.250	84.3	70	73.4	91.5	30
05/29/01	5:30 p	77.8	79.6	76.9	80	71.1	1.0	ENE	0.50	4.0	77.8	81.1	81.1	29.755	0.00	0.000	0.267	84.1	72	74.1	91.8	30
05/29/01	6:00 p	80.0	80.7	79.2	75	71.4	3.0	SSW	1.50	10.0	80.0	83.6	83.6	29.761	0.00	0.000	0.313	84.6	71	74.2	92.4	30
05/29/01	6:30 p	79.4	80.1	78.6	78	71.9	1.0	W	0.50	6.0	79.4	83.1	83.1	29.762	0.00	0.000	0.300	84.1	72	74.1	91.8	30
05/29/01	7:00 p	78.4	79.2	77.8	81	72.1	0.0	S	0.00	3.0	78.4	82.1	82.1	29.773	0.00	0.000	0.279	82.9	77	74.9	90.5	30
05/29/01	7:30 p	77.5	78.3	76.8	82	71.6	0.0	S	0.00	1.0	77.5	81.0	81.0	29.780	0.00	0.000	0.260	81.7	80	74.9	88.2	30
05/29/01	8:00 p	76.4	77.3	75.5	85	71.6	1.0	NW	0.50	6.0	76.4	79.8	79.8	29.792	0.00	0.000	0.238	80.9	79	73.8	86.1	30
05/29/01	8:30 p	75.7	76.1	75.2	85	70.9	0.0	N	0.00	3.0	75.7	78.8	78.8	29.791	0.00	0.000	0.223	80.9	77	73.0	85.7	30
05/29/01	9:00 p	75.4	75.9	74.9	85	70.6	0.0	N	0.00	1.0	75.4	78.5	78.5	29.796	0.00	0.000	0.217	80.6	77	72.7	85.1	30
05/29/01	9:30 p	74.9	75.4	74.4	87	70.8	0.0	N	0.00	1.0	74.9	78.0	78.0	29.804	0.00	0.000	0.206	80.2	78	72.7	84.5	30
05/29/01	10:00 p	74.7	75.1	74.2	86	70.2	0.0	N	0.00	3.0	74.7	77.5	77.5	29.805	0.00	0.000	0.202	79.9	78	72.4	84.0	30
05/29/01	10:30 p	74.4	74.8	74.0	86	69.9	0.0	N	0.00	2.0	74.4	77.0	77.0	29.804	0.00	0.000	0.196	79.5	78	72.0	83.3	30
05/29/01	11:00 p	74.1	74.6	73.8	87	70.0	0.0	---	0.00	0.0	74.1	76.5	76.5	29.811	0.00	0.000	0.190	79.2	78	71.7	82.8	30
05/29/01	11:30 p	73.7	74.4	73.2	88	69.9	0.0	---	0.00	0.0	73.7	76.0	76.0	29.814	0.00	0.000	0.181	78.9	78	71.5	82.3	30
05/30/01	12:00 a	73.5	73.9	73.0	88	69.7	1.0	SW	0.50	4.0	73.5	75.8	75.8	29.814	0.00	0.000	0.177	78.5	79	71.4	81.9	30
05/30/01	12:30 a	73.5	73.9	73.1	88	69.7	1.0	SW	0.50	5.0	73.5	75.8	75.8	29.804	0.00	0.000	0.177	78.4	80	71.7	82.0	30
05/30/01	1:00 a	73.5	73.9	73.1	88	69.7	1.0	SW	0.50	4.0	73.5	75.8	75.8	29.813	0.00	0.000	0.177	78.2	80	71.5	81.7	30
05/30/01	1:30 a	73.7	74.1	73.2	88	69.9	1.0	SW	0.50	5.0	73.7	76.0	76.0	29.808	0.00	0.000	0.181	78.1	80	71.4	81.5	30
05/30/01	2:00 a	73.6	74.0	73.1	88	69.8	1.0	SW	0.50	4.0	73.6	75.9	75.9	29.796	0.00	0.000	0.179	77.9	81	71.6	81.4	30
05/30/01	2:30 a	73.3	73.9	72.8	88	69.5	0.0	SW	0.00	2.0	73.3	75.6	75.6	29.801	0.00	0.000	0.173	77.7	81	71.4	81.1	30
05/30/01	3:00 a	73.0	73.6	72.5	89	69.6	0.0	SW	0.00	2.0	73.0	75.4	75.4	29.804	0.00	0.000	0.167	77.5	82	71.6	81.0	30
05/30/01	3:30 a	72.7	73.2	72.2	90	69.6	0.0	SW	0.00	3.0	72.7	75.1	75.1	29.806	0.00	0.000	0.160	77.3	82	71.4	80.7	30
05/30/01	4:00 a	72.3	72.9	71.8	91	69.5	0.0	SW	0.00	3.0	72.3	74.7	74.7	29.810	0.00	0.000	0.152	77.0	83	71.4	80.4	30
05/30/01	4:30 a	72.1	72.5	71.6	90	69.0	0.0	SW	0.00	1.0	72.1	74.3	74.3	29.810	0.00	0.000	0.148	76.7	82	70.8	79.9	30
05/30/01	5:00 a	71.8	72.3	71.2	91	69.0	0.0	SW	0.00	1.0	71.8	74.1	74.1	29.813	0.00	0.000	0.142	76.6	81	70.3	79.7	30
05/30/01	5:30 a	71.5	71.9	71.0	92	69.1	0.0	---	0.00	0.0	71.5	73.9	73.9	29.820	0.00	0.000	0.135	76.4	80	69.8	79.3	30
05/30/01	6:00 a	71.3	71.7	70.8	91	68.5	0.0	---	0.00	0.0	71.3	73.6	73.6	29.828	0.00	0.000	0.131	76.3	80	69.7	79.2	30
05/30/01	6:30 a	71.8	72.6	71.0	92	69.3	0.0	SW	0.00	4.0	71.8	74.2	74.2	29.844	0.00	0.000	0.142	76.2	80	69.6	79.1	30
05/30/01	7:00 a	72.7	73.4	71.9	92	70.2	2.0	NW	1.00	6.0	72.7	75.3	75.3	29.846	0.00	0.000	0.160	76.4	81	70.1	79.4	30
05/30/01	7:30 a	73.8	74.7	73.0	92	71.3	2.0	NW	1.00	5.0	73.8	76.4	76.4	29.847	0.00	0.000	0.183	76.8	81	70.5	79.9	30
05/30/01	8:00 a	75.3	76.3	74.3	88	71.5	2.0	NNW	1.00	6.0	75.3	78.6	78.6	29.847	0.00	0.000	0.215	77.5	83	71.9	81.1	30
05/30/01	8:30 a	76.6	78.0	75.7	84	71.4	1.0	NNW	0.50	5.0	76.6	79.9	79.9	29.840	0.00	0.000	0.242	78.5	84	73.3	82.7	30
05/30/01	9:00 a	79.0	80.5	77.4	79	71.9	1.0	N	0.50	5.0	79.0	82.6	82.6	29.835	0.00	0.000	0.292	79.9	85	75.0	85.4	30
05/30/01	9:30 a	82.0	83.4	80.0	71	71.7	1.0	WNW	0.50	5.0	82.0	86.5	86.5	29.832	0.00	0.000	0.354	81.5	85	76.6	89.1	30
05/30/01	10:00 a	83.9	84.9	82.5	73	74.3	1.0	E	0.50	5.0	83.9	91.7	91.7	29.826	0.00	0.000	0.394	83.0	81	76.6	92.0	30
05/30/01	10:30 a	85.6	86.3	84.4	72	75.5	2.0	SE	1.00	9.0	85.6	95.0	95.0	29.820	0.00	0.000	0.429	84.1	79	76.9	94.3	30
05/30/01	11:00 a	85.5	86.9	84.7	69	74.2	2.0	NE	1.00	7.0	85.5	93.7	93.7	29.808	0.00	0.000	0.427	85.2	78	77.6	96.2	30
05/30/01	11:30 a	87.8	88.6	86.5	66	75.0	3.0	NE	1.50	10.0	87.8	97.0	97.0	29.805	0.00	0.000	0.475	86.4	77	78.3	98.9	30
05/30/01	12:00 p	88.8	89.6	87.9	63	74.6	5.0	E	2.50	16.0	88.8	98.2	98.2	29.804	0.00	0.000	0.496	87.9	75	79.0	101.2	30
05/30/01	12:30 p	90.3	91.7	89.0	62	75.5	4.0	ESE	2.00	12.0	90.3	101.8	101.8	29.797	0.00	0.000	0.527	88.9	72	78.7	103.2	30
05/30/01	1:00 p	89.4	90.4	88.8	62	74.7	4.0	E	2.00	12.0	89.4	99.3	99.3	29.788	0.00	0.000	0.508	89.5	71	78.8	104.7	30
05/30/01	1:30 p	91.4	92.5	90.1	59	75.1	5.0	ESE	2.50	15.0	91.4	102.8	102.8	29.775	0.00	0.000	0.550	90.2	70	79.1	106.4	30
05/30/01	2:00 p	91.1	92.4	89.9	58	74.3	4.0	ENE	2.00	14.0	91.1	101.5	101.5	29.768	0.00	0.000	0.544	91.0	68	79.0	107.6	30
05/30/01	2:30 p	92.5	93.5	91.8	60	76.6	4.0	ENE	2.00	13.0	92.5	106.3	106.3	29.762	0.00	0.000	0.573	91.6	67	79.1	108.8	30
05/30/01	3:00 p	93.1	93.8	92.4	59	76.6	5.0	E	2.50	13.0	93.1	107.4	107.4	29.751	0.00	0.000	0.585	92.4	66	79.4	110.6	30
05/30/01	3:30 p	93.9	95.1	92.6	56	75.8	5.0	ESE	2.50	16.0	93.9	107.6	107.6	29.737	0.00	0.000	0.602	92.9	66	79.9	112.2	30
05/30/01	4:00 p	93.9	95.1	91.5	61	78.4	5.0	ESE	2.50	17.0	93.9	111.2	111.2	29.736	0.00	0.000	0.602	93.1	65	79.6	112.0	30
05/30/01	4:30 p	90.1	91.5	88.7	62	75.3	4.0	E	2.00	15.0	90.1	101.3	101.3	29.728	0.00	0.000	0.523	92.5	65	79.0	110.1	30
05/30/01	5:00 p	91.8	92.5	90.3	59	75.4	5.0	ESE	2.50	14.0	91.8	103.8	103.8	29.739	0.00	0.000	0.558	92.2	64	78.3	108.5	30
05/30/01	5:30 p	91.2	92.1	90.0	61	75.9	6.0	SE	3.00	14.0	91.2	103.5	103.5	29.735	0.00	0.000	0.546	89.9	65	76.6	102.5	30
05/30/01	6:00 p	89.0	90.4	87.9	65	75.7	6.0	SE	3.00	18.0	89.0	99.6	99.6	29.737	0.00	0.000	0.500	88.8	68	76.9	100.6	30
05/30/01	6:30 p	87.5	88.3	86.7	68	75.6	4.0	SSE	2.00	13.0	87.5	97.4	97.4	29.753	0.00	0.000	0.469	87.6	72	77.5	99.3	30
05/30/01	7:00 p	85.8	87.1	84.5	71	75.3	4.0	SE	2.00	11.0	85.8	95.2	95.2	29.764	0.00	0.000	0.433	86.5	73	76.8	97.5	30
05/30/01	7:30 p	84.0	85.0	83.1	73	74.4	4.0	SE	2.00	13.0	84.0	92.0	92.0	29.767	0.00	0.000	0.396	85.4	75	76.6	95.6	30
05/30/01	8:00 p	83.0	83.7	82.4	73	73.4	4.0	SE	2.00	11.0	83.0	89.4	89.4	29.772	0.00	0.000	0.375	84.5	75	75.7	93.6	30
05/30/01	8:30 p	82.1	82.9	81.4	72	72.2	3.0	S	1.50	8.0	82.1	87.0	87.0	29.784	0.00	0.000	0.356	84.4	73	74.8	92.8	30
05/30/01	9:00 p	81.4	82.0	80.8	73	71.9	3.0	S	1.50	9.0	81.4	85.8	85.8	29.785	0.00	0.000	0.342	84.6	72	74.6	92.8	30
05/30/01	9:30 p	80.8	81.4	80.2	75	72.1	2.0	S	1.00	8.0	80.8	85.0	85.0	29.789	0.00	0.000	0.329	84.3	72	74.3	92.2	30
05/30/01	10:00 p	80.3	80.8	79.7	74	71.3	2.0	SSW	1.00	7.0	80.3	84.0	84.0	29.799	0.00	0.000	0.319	84.0	72	74.0	91.6	30
05/30/01	10:30 p	79.7	80.2	79.1	74	70.7	2.0	SSW	1.00	6.0	79.7	83.0	83.0	29.807	0.00	0.000	0.306	83.6	71	73.2	90.3	30
05/30/01	11:00 p	79.0	79.7	78.4	73	69.6	2.0	SW	1.00	6.0	79.0	81.7	81.7	29.815	0.00	0.000	0.292	83.1	70	72.3	88.6	30
05/30/01	11:30 p	78.2	78.9	77.6	74	69.2	1.0	SW	0.50	4.0	78.2	80.8	80.8	29.811	0.00	0.000	0.275	82.6	70	71.8	87.6	30
05/31/01	12:00 a	77.6	78.2	76.9	76	69.4	1.0	SW	0.50	4.0	77.6	80.3	80.3	29.808	0.00	0.000	0.262	82.1	71	71.8	86.8	30
05/31/01	12:30 a	76.9	77.5	76.1	78	69.5	0.0	SW	0.00	4.0	76.9	79.7	79.7	29.807	0.00	0.000	0.248	81.6	70	70.9	85.5	30
05/31/01	1:00 a	76.0	76.7	75.4	79	69.0	1.0	SSW	0.50	5.0	76.0	78.8	78.8	29.806	0.00	0.000	0.229	81.2	71	70.9	85.0	30
05/31/01	1:30 a	75.4	76.0	74.8	80	68.8	0.0	SSW	0.00	3.0	75.4	78.1	78.1	29.803	0.00	0.000	0.217	80.8	70	70.1	84.1	30
05/31/01	2:00 a	74.8	75.5	74.2	82	68.9	0.0	SSW	0.00	3.0	74.8	77.4	77.4	29.799	0.00	0.000	0.204	80.4	71	70.1	83.6	30
05/31/01	2:30 a	74.3	74.8	73.7	83	68.8	0.0	SSW	0.00	1.0	74.3	76.6	76.6	29.789	0.00	0.000	0.194	80.0	71	69.7	82.9	30
05/31/01	3:00 a	73.7	74.3	73.1	83	68.2	0.0	SSW	0.00	2.0	73.7	75.8	75.8	29.784	0.00	0.000	0.181	79.7	71	69.5	82.4	30
05/31/01	3:30 a	73.2	73.7	72.6	85	68.4	0.0	SW	0.00	3.0	73.2	75.3	75.3	29.787	0.00	0.000	0.171	79.3	71	69.1	81.9	30
05/31/01	4:00 a	72.7	73.2	72.2	84	67.6	0.0	SW	0.00	3.0	72.7	74.6	74.6	29.787	0.00	0.000	0.160	78.9	71	68.7	81.3	30
05/31/01	4:30 a	72.2	72.7	71.6	85	67.4	0.0	SW	0.00	3.0	72.2	74.1	74.1	29.774	0.00	0.000	0.150	78.5	71	68.3	80.8	30
05/31/01	5:00 a	71.8	72.2	71.4	85	67.0	0.0	SW	0.00	3.0	71.8	73.6	73.6	29.771	0.00	0.000	0.142	78.2	70	67.6	80.3	30
05/31/01	5:30 a	71.5	72.0	70.9	86	67.1	1.0	SW	0.50	4.0	71.5	73.4	73.4	29.776	0.00	0.000	0.135	77.8	71	67.6	79.9	30
05/31/01	6:00 a	71.0	71.5	70.6	87	66.9	0.0	WSW	0.00	2.0	71.0	73.0	73.0	29.780	0.00	0.000	0.125	77.5	71	67.4	79.6	30
05/31/01	6:30 a	71.5	72.1	70.9	86	67.1	0.0	WSW	0.00	2.0	71.5	73.4	73.4	29.787	0.00	0.000	0.135	77.3	72	67.6	79.5	30
05/31/01	7:00 a	72.0	72.7	71.5	89	68.6	0.0	NW	0.00	4.0	72.0	74.1	74.1	29.799	0.00	0.000	0.146	77.2	74	68.3	79.6	30
05/31/01	7:30 a	73.2	74.2	72.4	87	69.1	1.0	WNW	0.50	5.0	73.2	75.5	75.5	29.799	0.00	0.000	0.171	77.3	75	68.8	79.8	30
05/31/01	8:00 a	74.8	75.8	73.6	86	70.3	2.0	WNW	1.00	6.0	74.8	77.7	77.7	29.808	0.00	0.000	0.204	78.0	77	70.2	80.9	30
05/31/01	8:30 a	76.9	78.6	75.4	80	70.3	2.0	NW	1.00	6.0	76.9	79.9	79.9	29.808	0.00	0.000	0.248	79.2	80	72.5	83.1	30
05/31/01	9:00 a	79.8	81.7	78.1	71	69.6	2.0	NW	1.00	6.0	79.8	82.6	82.6	29.802	0.00	0.000	0.308	80.8	80	74.0	86.1	30
05/31/01	9:30 a	83.2	85.0	81.1	62	68.8	2.0	WNW	1.00	7.0	83.2	86.6	86.6	29.801	0.00	0.000	0.379	82.5	78	74.9	89.7	30
05/31/01	10:00 a	86.0	87.4	84.5	54	67.4	2.0	NW	1.00	9.0	86.0	89.4	89.4	29.804	0.00	0.000	0.438	84.1	74	74.9	92.5	30
05/31/01	10:30 a	88.3	89.1	86.9	62	73.6	2.0	NW	1.00	8.0	88.3	96.4	96.4	29.799	0.00	0.000	0.485	85.6	71	75.1	94.7	30
05/31/01	11:00 a	88.8	89.5	88.3	63	74.6	2.0	NNE	1.00	8.0	88.8	98.2	98.2	29.788	0.00	0.000	0.496	87.2	72	77.1	98.7	30
05/31/01	11:30 a	88.4	89.3	87.7	66	75.6	4.0	ENE	2.00	12.0	88.4	98.4	98.4	29.783	0.00	0.000	0.488	88.6	72	78.4	102.1	30
05/31/01	12:00 p	88.9	89.8	88.1	64	75.1	3.0	NE	1.50	9.0	88.9	98.9	98.9	29.776	0.00	0.000	0.498	89.6	71	78.9	105.1	30
05/31/01	12:30 p	89.9	90.7	88.6	62	75.1	3.0	ENE	1.50	10.0	89.9	100.7	100.7	29.769	0.00	0.000	0.519	90.5	69	78.9	106.8	30
05/31/01	1:00 p	90.2	91.2	89.5	62	75.4	4.0	ENE	2.00	10.0	90.2	101.5	101.5	29.769	0.00	0.000	0.525	91.5	68	79.4	109.2	30
05/31/01	1:30 p	91.0	91.7	90.5	60	75.2	4.0	NE	2.00	11.0	91.0	102.3	102.3	29.758	0.00	0.000	0.542	92.2	67	79.7	110.7	30
05/31/01	2:00 p	91.3	92.0	90.6	61	76.0	5.0	ENE	2.50	12.0	91.3	103.8	103.8	29.752	0.00	0.000	0.548	92.8	65	79.3	111.1	30
05/31/01	2:30 p	91.9	93.0	90.7	58	75.0	4.0	ENE	2.00	13.0	91.9	103.5	103.5	29.738	0.00	0.000	0.560	93.3	64	79.3	111.8	30
05/31/01	3:00 p	91.8	92.6	91.0	58	74.9	4.0	ENE	2.00	12.0	91.8	103.3	103.3	29.722	0.00	0.000	0.558	93.6	63	79.1	112.0	30
05/31/01	3:30 p	91.9	92.8	91.2	57	74.5	4.0	ENE	2.00	16.0	91.9	103.0	103.0	29.709	0.00	0.000	0.560	93.8	62	78.8	111.8	30
05/31/01	4:00 p	92.5	93.4	91.6	57	75.0	6.0	E	3.00	20.0	92.5	104.5	104.5	29.715	0.00	0.000	0.573	93.9	62	78.9	112.1	30
05/31/01	4:30 p	93.6	94.4	93.0	54	74.5	6.0	SE	3.00	16.0	93.6	105.4	105.4	29.709	0.00	0.000	0.596	93.9	59	77.4	109.7	30
05/31/01	5:00 p	91.8	93.6	89.9	58	74.9	6.0	SE	3.00	14.0	91.8	103.3	103.3	29.726	0.00	0.000	0.558	93.4	59	76.9	108.2	30
05/31/01	5:30 p	88.8	90.0	87.1	61	73.6	5.0	SSE	2.50	17.0	88.8	97.3	97.3	29.742	0.00	0.000	0.496	91.9	60	76.0	104.6	30
05/31/01	6:00 p	86.1	87.6	85.0	67	73.9	5.0	S	2.50	14.0	86.1	94.4	94.4	29.747	0.00	0.000	0.440	90.0	64	76.2	102.2	30
05/31/01	6:30 p	84.3	85.4	83.1	59	68.4	4.0	S	2.00	10.0	84.3	88.0	88.0	29.750	0.00	0.000	0.402	88.5	59	72.3	95.7	30
05/31/01	7:00 p	82.0	83.4	81.0	66	69.5	3.0	SSW	1.50	12.0	82.0	85.4	85.4	29.770	0.00	0.000	0.354	87.1	61	72.0	94.1	30
05/31/01	7:30 p	80.5	81.5	79.6	70	69.8	3.0	SW	1.50	8.0	80.5	83.6	83.6	29.768	0.00	0.000	0.323	86.0	63	71.9	92.6	30
05/31/01	8:00 p	79.4	80.1	78.7	72	69.6	1.0	SW	0.50	5.0	79.4	82.2	82.2	29.785	0.00	0.000	0.300	85.0	66	72.4	91.5	30
05/31/01	8:30 p	79.1	79.4	78.5	74	70.1	1.0	W	0.50	4.0	79.1	82.0	82.0	29.788	0.00	0.000	0.294	84.1	68	72.4	90.4	30
05/31/01	9:00 p	78.2	79.0	77.5	76	70.0	2.0	SW	1.00	7.0	78.2	81.0	81.0	29.779	0.00	0.000	0.275	83.8	67	71.7	89.4	30
05/31/01	9:30 p	77.5	78.2	77.0	77	69.7	1.0	WSW	0.50	6.0	77.5	80.3	80.3	29.798	0.00	0.000	0.260	83.3	68	71.6	88.5	30
05/31/01	10:00 p	77.0	77.6	76.5	79	70.0	0.0	NNW	0.00	4.0	77.0	79.9	79.9	29.792	0.00	0.000	0.250	83.0	69	71.8	88.1	30
05/31/01	10:30 p	76.8	77.3	76.4	80	70.2	0.0	NNW	0.00	3.0	76.8	79.8	79.8	29.792	0.00	0.000	0.246	82.6	69	71.4	87.3	30
05/31/01	11:00 p	76.6	77.1	76.1	80	70.0	0.0	NNW	0.00	4.0	76.6	79.6	79.6	29.785	0.00	0.000	0.242	82.4	70	71.6	87.1	30
05/31/01	11:30 p	76.7	77.1	76.2	81	70.4	1.0	SSW	0.50	6.0	76.7	79.8	79.8	29.769	0.00	0.000	0.244	82.1	71	71.8	86.8	30
06/01/01	12:00 a	76.4	76.8	75.9	81	70.1	2.0	SSW	1.00	5.0	76.4	79.4	79.4	29.765	0.00	0.000	0.238	81.8	71	71.5	86.2	30
06/01/01	12:30 a	75.8	76.5	75.2	81	69.6	3.0	S	1.50	7.0	75.8	78.7	78.7	29.757	0.00	0.000	0.225	81.4	72	71.5	85.6	30
06/01/01	1:00 a	75.4	75.8	75.0	79	68.4	3.0	SSW	1.50	11.0	75.4	78.0	78.0	29.748	0.00	0.000	0.217	81.1	71	70.8	84.8	30
06/01/01	1:30 a	75.0	75.6	74.5	78	67.7	4.0	SSW	2.00	9.0	75.0	77.3	77.3	29.735	0.00	0.000	0.208	80.7	70	70.0	83.9	30
06/01/01	2:00 a	74.7	75.2	74.1	79	67.8	1.0	N	0.50	8.0	74.7	77.0	77.0	29.749	0.00	0.000	0.202	80.4	70	69.7	83.4	30
06/01/01	2:30 a	74.4	74.8	74.0	80	67.8	0.0	N	0.00	2.0	74.4	76.6	76.6	29.744	0.00	0.000	0.196	80.1	69	69.0	82.7	30
06/01/01	3:00 a	74.0	74.6	73.4	81	67.8	0.0	---	0.00	0.0	74.0	76.0	76.0	29.744	0.00	0.000	0.188	79.8	69	68.7	82.3	30
06/01/01	3:30 a	73.4	73.9	72.9	83	67.9	0.0	---	0.00	1.0	73.4	75.4	75.4	29.742	0.00	0.000	0.175	79.4	69	68.3	81.7	30
06/01/01	4:00 a	72.9	73.5	72.2	84	67.8	0.0	N	0.00	1.0	72.9	74.9	74.9	29.742	0.00	0.000	0.165	79.1	69	68.1	81.3	30
06/01/01	4:30 a	72.3	72.7	71.9	83	66.8	0.0	---	0.00	0.0	72.3	74.0	74.0	29.740	0.00	0.000	0.152	78.7	69	67.7	80.8	30
06/01/01	5:00 a	72.0	72.5	71.5	85	67.2	0.0	---	0.00	0.0	72.0	73.8	73.8	29.746	0.00	0.000	0.146	78.4	69	67.4	80.4	30
06/01/01	5:30 a	71.7	72.2	71.2	86	67.3	0.0	---	0.00	0.0	71.7	73.6	73.6	29.749	0.00	0.000	0.140	78.0	69	67.0	79.9	30
06/01/01	6:00 a	71.7	72.1	71.2	86	67.3	0.0	N	0.00	2.0	71.7	73.6	73.6	29.758	0.00	0.000	0.140	77.7	71	67.5	79.8	30
06/01/01	6:30 a	72.3	73.0	71.6	87	68.2	0.0	N	0.00	1.0	72.3	74.4	74.4	29.762	0.00	0.000	0.152	77.6	71	67.4	79.7	30
06/01/01	7:00 a	73.3	74.2	72.5	87	69.2	2.0	N	1.00	7.0	73.3	75.6	75.6	29.777	0.00	0.000	0.173	77.7	72	68.0	79.9	30
06/01/01	7:30 a	74.7	75.7	73.8	86	70.2	3.0	SW	1.50	7.0	74.7	77.5	77.5	29.786	0.00	0.000	0.202	78.1	73	68.7	80.5	30
06/01/01	8:00 a	76.3	77.6	75.1	83	70.8	3.0	SW	1.50	8.0	76.3	79.5	79.5	29.788	0.00	0.000	0.235	78.8	78	71.4	82.2	30
06/01/01	8:30 a	78.6	80.3	77.0	80	71.9	3.0	SW	1.50	8.0	78.6	82.2	82.2	29.789	0.00	0.000	0.283	80.2	81	73.8	85.1	30
06/01/01	9:00 a	81.9	83.9	79.8	72	72.0	4.0	SSW	2.00	11.0	81.9	86.6	86.6	29.785	0.00	0.000	0.352	81.8	80	75.0	88.4	30
06/01/01	9:30 a	85.3	86.7	83.5	67	73.1	5.0	SSW	2.50	11.0	85.3	92.5	92.5	29.774	0.00	0.000	0.423	83.5	79	76.3	92.8	30
06/01/01	10:00 a	87.4	88.1	86.3	64	73.7	4.0	SW	2.00	11.0	87.4	95.7	95.7	29.770	0.00	0.000	0.467	85.0	76	76.6	95.0	30
06/01/01	10:30 a	88.9	89.8	87.6	59	72.7	5.0	SW	2.50	12.0	88.9	96.7	96.7	29.761	0.00	0.000	0.498	86.5	73	76.8	97.5	30
06/01/01	11:00 a	91.1	92.6	89.2	55	72.7	4.0	SW	2.00	11.0	91.1	99.9	99.9	29.746	0.00	0.000	0.544	87.9	71	77.3	99.3	30
06/01/01	11:30 a	93.3	94.4	92.0	53	73.6	4.0	SW	2.00	11.0	93.3	104.0	104.0	29.729	0.00	0.000	0.590	89.3	68	77.3	102.2	30
06/01/01	12:00 p	94.4	95.0	93.8	51	73.5	4.0	SSW	2.00	15.0	94.4	105.1	105.1	29.714	0.00	0.000	0.613	90.5	67	78.0	105.5	30
06/01/01	12:30 p	94.0	94.8	93.5	51	73.1	4.0	SSW	2.00	11.0	94.0	104.2	104.2	29.709	0.00	0.000	0.604	91.2	66	78.2	106.9	30
06/01/01	1:00 p	93.5	94.6	91.3	61	78.0	5.0	SE	2.50	14.0	93.5	110.0	110.0	29.695	0.00	0.000	0.594	91.6	66	78.6	108.1	30
06/01/01	1:30 p	89.9	91.6	88.4	65	76.6	5.0	ESE	2.50	16.0	89.9	102.5	102.5	29.683	0.00	0.000	0.519	91.3	66	78.3	107.2	30
06/01/01	2:00 p	87.5	88.9	86.4	67	75.2	3.0	SE	1.50	10.0	87.5	97.0	97.0	29.691	0.00	0.000	0.469	90.2	67	77.8	104.6	30
06/01/01	2:30 p	85.6	87.0	83.1	72	75.5	4.0	SE	2.00	14.0	85.6	95.0	95.0	29.702	0.00	0.000	0.429	89.1	66	76.3	100.5	30
06/01/01	3:00 p	79.8	83.4	77.8	82	73.8	4.0	NW	2.00	16.0	79.8	84.6	84.6	29.705	0.04	0.000	0.308	87.2	67	74.9	96.6	30
06/01/01	3:30 p	78.0	78.5	77.4	82	72.1	1.0	N	0.50	4.0	78.0	81.7	81.7	29.707	0.00	0.000	0.271	85.9	71	75.4	95.4	30
06/01/01	4:00 p	79.7	80.7	77.9	78	72.2	3.0	NNW	1.50	8.0	79.7	83.6	83.6	29.700	0.00	0.000	0.306	85.8	70	74.9	94.8	30
06/01/01	4:30 p	81.5	82.4	80.7	72	71.6	4.0	NNW	2.00	11.0	81.5	85.8	85.8	29.705	0.00	0.000	0.344	86.8	69	75.4	96.7	30
06/01/01	5:00 p	80.6	82.4	79.5	77	72.7	5.0	NW	2.50	12.0	80.6	85.1	85.1	29.717	0.00	0.000	0.325	87.2	68	75.3	97.0	30
06/01/01	5:30 p	79.3	80.1	78.0	79	72.2	4.0	NW	2.00	12.0	79.3	83.1	83.1	29.728	0.00	0.000	0.298	86.6	67	74.3	95.5	30
06/01/01	6:00 p	77.8	78.5	77.1	83	72.2	2.0	NW	1.00	7.0	77.8	81.5	81.5	29.730	0.03	0.000	0.267	85.8	68	74.0	94.1	30
06/01/01	6:30 p	76.7	77.6	75.5	86	72.2	1.0	NW	0.50	6.0	76.7	80.3	80.3	29.732	0.14	0.000	0.244	84.9	70	74.0	92.7	30
06/01/01	7:00 p	75.0	75.8	74.3	87	70.9	1.0	NW	0.50	6.0	75.0	78.2	78.2	29.746	0.04	0.000	0.208	84.1	70	73.3	91.1	30
06/01/01	7:30 p	75.0	75.5	74.3	87	70.9	0.0	SSE	0.00	3.0	75.0	78.2	78.2	29.752	0.01	0.000	0.208	83.4	72	73.4	90.1	30
06/01/01	8:00 p	75.0	75.4	74.6	88	71.2	1.0	SSE	0.50	6.0	75.0	78.2	78.2	29.746	0.00	0.000	0.208	82.9	72	72.9	88.9	30
06/01/01	8:30 p	74.6	75.1	74.0	88	70.8	2.0	SSE	1.00	6.0	74.6	77.5	77.5	29.733	0.00	0.000	0.200	82.4	73	72.9	88.0	30
06/01/01	9:00 p	74.4	74.7	73.9	88	70.6	1.0	SSE	0.50	4.0	74.4	77.1	77.1	29.737	0.00	0.000	0.196	82.0	74	72.9	87.3	30
06/01/01	9:30 p	74.2	74.7	73.9	89	70.7	0.0	SSE	0.00	3.0	74.2	76.8	76.8	29.735	0.00	0.000	0.192	81.7	75	73.0	86.9	30
06/01/01	10:00 p	74.4	74.8	73.9	89	70.9	0.0	SSE	0.00	4.0	74.4	77.1	77.1	29.740	0.00	0.000	0.196	81.5	75	72.8	86.4	30
06/01/01	10:30 p	74.0	74.6	73.6	90	70.9	1.0	SSW	0.50	6.0	74.0	76.4	76.4	29.730	0.00	0.000	0.188	81.3	75	72.6	86.0	30
06/01/01	11:00 p	73.9	74.3	73.5	90	70.8	2.0	S	1.00	6.0	73.9	76.3	76.3	29.729	0.00	0.000	0.185	81.1	75	72.4	85.6	30
06/01/01	11:30 p	73.7	74.2	73.4	90	70.6	2.0	SSW	1.00	7.0	73.7	76.1	76.1	29.723	0.00	0.000	0.181	81.1	75	72.4	85.6	30
06/02/01	12:00 a	73.9	74.3	73.4	90	70.8	1.0	SSW	0.50	4.0	73.9	76.3	76.3	29.716	0.00	0.000	0.185	81.0	75	72.3	85.4	30
06/02/01	12:30 a	73.9	74.3	73.5	91	71.1	0.0	SSE	0.00	5.0	73.9	76.4	76.4	29.708	0.00	0.000	0.185	80.9	75	72.2	85.2	30
06/02/01	1:00 a	73.7	74.2	73.2	90	70.6	0.0	SSE	0.00	2.0	73.7	76.1	76.1	29.706	0.00	0.000	0.181	80.8	74	71.7	84.8	30
06/02/01	1:30 a	73.4	74.0	72.8	91	70.6	0.0	SSE	0.00	1.0	73.4	75.9	75.9	29.698	0.00	0.000	0.175	80.6	73	71.1	84.3	30
06/02/01	2:00 a	73.3	73.7	72.9	91	70.5	0.0	SSE	0.00	3.0	73.3	75.8	75.8	29.689	0.01	0.000	0.173	80.5	73	71.0	84.1	30
06/02/01	2:30 a	73.2	73.7	72.7	91	70.4	1.0	SSW	0.50	4.0	73.2	75.8	75.8	29.682	0.00	0.000	0.171	80.3	73	70.9	83.8	30
06/02/01	3:00 a	73.0	73.5	72.6	90	69.9	1.0	SSW	0.50	5.0	73.0	75.5	75.5	29.671	0.00	0.000	0.167	80.2	74	71.2	83.8	30
06/02/01	3:30 a	72.8	73.3	72.3	90	69.7	1.0	S	0.50	4.0	72.8	75.2	75.2	29.674	0.00	0.000	0.163	80.0	74	71.0	83.4	30
06/02/01	4:00 a	72.4	73.1	72.0	90	69.3	1.0	SSW	0.50	3.0	72.4	74.7	74.7	29.688	0.00	0.000	0.154	79.8	74	70.8	83.1	30
06/02/01	4:30 a	72.3	72.8	71.8	91	69.5	0.0	WSW	0.00	2.0	72.3	74.7	74.7	29.691	0.00	0.000	0.152	79.6	73	70.2	82.6	30
06/02/01	5:00 a	72.0	72.5	71.5	91	69.2	1.0	WSW	0.50	4.0	72.0	74.3	74.3	29.692	0.00	0.000	0.146	79.4	74	70.4	82.5	30
06/02/01	5:30 a	71.8	72.2	71.3	91	69.0	0.0	SSW	0.00	2.0	71.8	74.1	74.1	29.697	0.00	0.000	0.142	79.2	74	70.2	82.2	30
06/02/01	6:00 a	71.6	72.1	71.1	92	69.2	1.0	SSW	0.50	4.0	71.6	74.0	74.0	29.706	0.00	0.000	0.137	79.0	74	70.0	81.9	30
06/02/01	6:30 a	71.9	72.4	71.2	92	69.4	1.0	SSW	0.50	5.0	71.9	74.3	74.3	29.714	0.00	0.000	0.144	78.8	75	70.2	81.7	30
06/02/01	7:00 a	72.4	73.0	71.8	92	69.9	2.0	SSW	1.00	7.0	72.4	74.9	74.9	29.721	0.00	0.000	0.154	78.7	76	70.5	81.7	30
06/02/01	7:30 a	73.3	74.3	72.3	92	70.8	2.0	SW	1.00	5.0	73.3	75.9	75.9	29.732	0.00	0.000	0.173	78.9	77	71.1	82.2	30
06/02/01	8:00 a	74.6	75.8	73.8	90	71.5	2.0	SW	1.00	7.0	74.6	77.6	77.6	29.737	0.00	0.000	0.200	79.3	77	71.5	82.8	30
06/02/01	8:30 a	76.8	78.0	75.5	86	72.3	4.0	SSW	2.00	10.0	76.8	80.4	80.4	29.735	0.00	0.000	0.246	80.1	79	73.0	84.5	30
06/02/01	9:00 a	78.8	80.1	77.5	81	72.5	3.0	SW	1.50	12.0	78.8	82.7	82.7	29.737	0.00	0.000	0.288	81.2	81	74.8	87.2	30
06/02/01	9:30 a	80.8	82.1	79.8	76	72.5	4.0	SW	2.00	10.0	80.8	85.3	85.3	29.730	0.00	0.000	0.329	82.4	79	75.2	89.7	30
06/02/01	10:00 a	82.4	83.2	81.4	75	73.7	3.0	SW	1.50	9.0	82.4	88.5	88.5	29.729	0.00	0.000	0.363	83.5	78	75.9	92.4	30
06/02/01	10:30 a	83.6	84.2	82.7	73	74.0	3.0	SW	1.50	11.0	83.6	91.0	91.0	29.725	0.00	0.000	0.387	84.4	77	76.4	94.2	30
06/02/01	11:00 a	84.6	85.7	83.6	71	74.2	3.0	SW	1.50	9.0	84.6	92.4	92.4	29.721	0.00	0.000	0.408	85.0	76	76.6	95.0	30
06/02/01	11:30 a	85.9	87.5	85.2	67	73.7	3.0	SW	1.50	10.0	85.9	93.9	93.9	29.712	0.00	0.000	0.435	85.8	75	77.0	96.5	30
06/02/01	12:00 p	88.2	90.1	87.0	61	73.0	3.0	SW	1.50	12.0	88.2	95.8	95.8	29.704	0.00	0.000	0.483	87.0	73	77.3	98.8	30
06/02/01	12:30 p	90.8	92.2	89.6	55	72.4	3.0	SW	1.50	8.0	90.8	99.2	99.2	29.689	0.00	0.000	0.538	88.2	70	77.2	99.7	30
06/02/01	1:00 p	93.1	94.4	91.7	55	74.5	2.0	NW	1.00	8.0	93.1	104.9	104.9	29.674	0.00	0.000	0.585	89.5	68	77.5	102.9	30
06/02/01	1:30 p	93.7	95.0	92.0	54	74.5	2.0	NW	1.00	8.0	93.7	105.7	105.7	29.661	0.00	0.000	0.598	90.6	67	78.1	105.8	30
06/02/01	2:00 p	94.3	96.2	92.7	61	78.8	2.0	WNW	1.00	10.0	94.3	112.5	112.5	29.636	0.00	0.000	0.610	91.5	67	79.0	108.5	30
06/02/01	2:30 p	92.0	93.9	90.0	66	79.0	3.0	E	1.50	14.0	92.0	109.3	109.3	29.630	0.00	0.000	0.563	92.2	67	79.7	110.7	30
06/02/01	3:00 p	86.7	90.0	79.6	81	80.2	7.0	SSW	3.50	24.0	86.7	101.7	101.7	29.668	0.40	0.000	0.452	91.3	65	77.9	106.5	30
06/02/01	3:30 p	77.1	79.7	76.1	82	71.2	7.0	SSE	3.50	23.0	77.1	80.4	80.4	29.690	0.68	0.000	0.252	87.6	66	74.8	96.7	30
06/02/01	4:00 p	77.5	78.6	76.9	81	71.2	2.0	ESE	1.00	10.0	77.5	80.8	80.8	29.676	0.00	0.000	0.260	85.7	68	73.9	93.8	30
06/02/01	4:30 p	79.1	79.9	78.2	81	72.8	2.0	ESE	1.00	10.0	79.1	83.2	83.2	29.665	0.00	0.000	0.294	85.4	70	74.5	93.9	30
06/02/01	5:00 p	79.4	79.9	78.9	81	73.1	3.0	SE	1.50	8.0	79.4	83.7	83.7	29.662	0.00	0.000	0.300	85.2	71	74.7	93.7	30
06/02/01	5:30 p	78.8	79.5	78.2	82	72.8	2.0	SSE	1.00	7.0	78.8	82.9	82.9	29.671	0.00	0.000	0.288	84.7	71	74.3	92.6	30
06/02/01	6:00 p	77.9	78.7	77.1	84	72.7	1.0	SSE	0.50	4.0	77.9	81.8	81.8	29.658	0.00	0.000	0.269	84.1	72	74.1	91.8	30
06/02/01	6:30 p	77.8	78.7	77.1	83	72.2	2.0	SSW	1.00	6.0	77.8	81.5	81.5	29.661	0.00	0.000	0.267	83.8	73	74.2	91.5	30
06/02/01	7:00 p	78.8	79.3	78.2	81	72.5	1.0	S	0.50	6.0	78.8	82.7	82.7	29.667	0.00	0.000	0.288	83.9	74	74.7	92.1	30
06/02/01	7:30 p	77.9	78.7	77.2	84	72.7	0.0	SW	0.00	3.0	77.9	81.8	81.8	29.686	0.00	0.000	0.269	83.7	74	74.5	91.6	30
06/02/01	8:00 p	76.9	77.7	76.3	86	72.4	0.0	SW	0.00	2.0	76.9	80.5	80.5	29.680	0.00	0.000	0.248	83.1	75	74.4	90.4	30
06/02/01	8:30 p	76.3	76.9	75.6	88	72.5	0.0	SW	0.00	3.0	76.3	79.8	79.8	29.695	0.00	0.000	0.235	82.5	75	73.8	88.8	30
06/02/01	9:00 p	75.8	76.3	75.3	88	72.0	0.0	SW	0.00	3.0	75.8	79.2	79.2	29.705	0.00	0.000	0.225	81.9	76	73.6	87.6	30
06/02/01	9:30 p	75.6	76.0	75.2	88	71.8	0.0	---	0.00	0.0	75.6	78.9	78.9	29.719	0.00	0.000	0.221	81.6	77	73.7	87.2	30
06/02/01	10:00 p	75.5	75.9	75.0	89	72.0	0.0	---	0.00	0.0	75.5	78.9	78.9	29.718	0.00	0.000	0.219	81.2	78	73.7	86.5	30
06/02/01	10:30 p	75.1	75.7	74.7	90	72.0	0.0	SW	0.00	2.0	75.1	78.5	78.5	29.719	0.00	0.000	0.210	80.7	79	73.6	85.7	30
06/02/01	11:00 p	75.0	75.4	74.5	90	71.9	0.0	SW	0.00	3.0	75.0	78.4	78.4	29.721	0.00	0.000	0.208	80.4	78	72.9	84.9	30
06/02/01	11:30 p	74.8	75.3	74.5	91	72.0	0.0	S	0.00	5.0	74.8	78.1	78.1	29.725	0.00	0.000	0.204	80.1	78	72.6	84.3	30
06/03/01	12:00 a	74.7	75.1	74.2	90	71.6	1.0	S	0.50	5.0	74.7	77.8	77.8	29.728	0.00	0.000	0.202	79.9	78	72.4	84.0	30
06/03/01	12:30 a	74.4	74.9	74.0	89	70.9	2.0	SSW	1.00	7.0	74.4	77.1	77.1	29.724	0.00	0.000	0.196	79.7	78	72.2	83.6	30
06/03/01	1:00 a	74.3	74.7	73.7	90	71.2	2.0	SSW	1.00	6.0	74.3	77.0	77.0	29.714	0.00	0.000	0.194	79.4	79	72.3	83.3	30
06/03/01	1:30 a	74.0	74.5	73.5	90	70.9	1.0	SSW	0.50	5.0	74.0	76.4	76.4	29.713	0.00	0.000	0.188	79.2	78	71.7	82.8	30
06/03/01	2:00 a	73.8	74.2	73.3	91	71.0	0.0	SW	0.00	3.0	73.8	76.3	76.3	29.708	0.00	0.000	0.183	79.0	78	71.6	82.5	30
06/03/01	2:30 a	73.5	74.0	73.0	92	71.0	0.0	SW	0.00	3.0	73.5	76.1	76.1	29.700	0.00	0.000	0.177	78.7	78	71.3	82.1	30
06/03/01	3:00 a	73.3	73.8	72.8	91	70.5	0.0	SW	0.00	3.0	73.3	75.8	75.8	29.702	0.00	0.000	0.173	78.4	79	71.3	81.8	30
06/03/01	3:30 a	73.1	73.6	72.7	92	70.6	0.0	SW	0.00	4.0	73.1	75.7	75.7	29.697	0.00	0.000	0.169	78.2	79	71.2	81.5	30
06/03/01	4:00 a	72.9	73.4	72.5	92	70.4	0.0	SW	0.00	3.0	72.9	75.5	75.5	29.698	0.00	0.000	0.165	78.0	79	71.0	81.2	30
06/03/01	4:30 a	72.7	73.2	72.3	92	70.2	0.0	SW	0.00	2.0	72.7	75.3	75.3	29.708	0.00	0.000	0.160	77.8	78	70.4	80.8	30
06/03/01	5:00 a	72.6	73.0	72.1	92	70.1	0.0	---	0.00	0.0	72.6	75.1	75.1	29.721	0.00	0.000	0.158	77.6	78	70.2	80.6	30
06/03/01	5:30 a	72.2	72.7	71.7	93	70.1	1.0	SW	0.50	4.0	72.2	74.8	74.8	29.729	0.00	0.000	0.150	77.4	78	70.0	80.3	30
06/03/01	6:00 a	72.0	72.5	71.6	92	69.5	0.0	SW	0.00	3.0	72.0	74.4	74.4	29.743	0.00	0.000	0.146	77.2	79	70.2	80.2	30
06/03/01	6:30 a	72.6	73.2	71.8	92	70.1	0.0	---	0.00	0.0	72.6	75.1	75.1	29.751	0.00	0.000	0.158	77.2	78	69.8	80.1	30
06/03/01	7:00 a	73.2	73.7	72.6	92	70.7	0.0	SW	0.00	3.0	73.2	75.8	75.8	29.751	0.00	0.000	0.171	77.2	79	70.2	80.2	30
06/03/01	7:30 a	73.9	74.9	73.2	91	71.1	1.0	WSW	0.50	4.0	73.9	76.4	76.4	29.761	0.00	0.000	0.185	77.4	80	70.7	80.6	30
06/03/01	8:00 a	75.3	76.3	74.3	90	72.2	2.0	NW	1.00	6.0	75.3	78.7	78.7	29.759	0.00	0.000	0.215	78.0	82	72.1	81.7	30
06/03/01	8:30 a	77.1	78.1	75.8	85	72.2	1.0	NW	0.50	4.0	77.1	80.8	80.8	29.751	0.00	0.000	0.252	79.2	85	74.3	84.1	30
06/03/01	9:00 a	79.5	80.8	77.9	81	73.2	1.0	W	0.50	4.0	79.5	83.9	83.9	29.750	0.00	0.000	0.302	80.7	86	76.1	87.4	30
06/03/01	9:30 a	82.3	83.6	80.5	78	74.7	1.0	NNW	0.50	5.0	82.3	89.2	89.2	29.749	0.00	0.000	0.360	82.2	86	77.6	91.3	30
06/03/01	10:00 a	84.5	85.8	82.8	75	75.7	1.0	N	0.50	8.0	84.5	93.6	93.6	29.745	0.01	0.000	0.406	83.7	83	78.0	94.6	30
06/03/01	10:30 a	86.7	88.1	85.4	70	75.7	2.0	ESE	1.00	7.0	86.7	96.8	96.8	29.750	0.00	0.000	0.452	85.3	82	79.2	98.0	30
06/03/01	11:00 a	88.3	89.6	87.3	69	76.8	2.0	ENE	1.00	8.0	88.3	99.5	99.5	29.745	0.00	0.000	0.485	87.1	78	79.4	101.3	30
06/03/01	11:30 a	87.3	88.6	86.0	71	76.7	3.0	NE	1.50	10.0	87.3	98.4	98.4	29.744	0.00	0.000	0.465	88.6	76	80.1	104.5	30
06/03/01	12:00 p	88.3	90.0	86.4	65	75.0	4.0	ENE	2.00	15.0	88.3	97.6	97.6	29.735	0.00	0.000	0.485	89.4	74	80.0	106.4	30
06/03/01	12:30 p	90.1	90.8	89.5	65	76.7	4.0	E	2.00	15.0	90.1	103.1	103.1	29.719	0.00	0.000	0.523	90.7	73	80.8	110.5	30
06/03/01	1:00 p	90.3	91.4	89.4	62	75.5	4.0	ENE	2.00	12.0	90.3	101.8	101.8	29.703	0.00	0.000	0.527	91.8	71	81.0	112.7	30
06/03/01	1:30 p	92.0	92.9	90.8	63	77.6	6.0	ESE	3.00	16.0	92.0	107.1	107.1	29.687	0.00	0.000	0.563	92.6	70	81.4	114.3	30
06/03/01	2:00 p	90.8	92.3	89.1	64	76.9	5.0	ENE	2.50	18.0	90.8	104.4	104.4	29.689	0.00	0.000	0.538	93.0	68	80.9	114.1	30
06/03/01	2:30 p	91.3	92.5	90.4	62	76.5	6.0	ENE	3.00	19.0	91.3	104.4	104.4	29.677	0.00	0.000	0.548	93.1	67	80.5	113.6	30
06/03/01	3:00 p	92.0	93.3	91.0	59	75.6	6.0	ESE	3.00	16.0	92.0	104.3	104.3	29.675	0.00	0.000	0.563	93.3	67	80.7	114.3	30
06/03/01	3:30 p	93.4	94.2	92.4	61	77.9	6.0	SE	3.00	18.0	93.4	109.7	109.7	29.658	0.00	0.000	0.592	93.7	66	80.6	114.8	30
06/03/01	4:00 p	90.6	93.0	88.4	65	77.2	6.0	ESE	3.00	17.0	90.6	104.5	104.5	29.667	0.00	0.000	0.533	93.4	63	78.9	111.3	30
06/03/01	4:30 p	86.7	88.7	81.5	76	78.2	6.0	SSE	3.00	28.0	86.7	99.3	99.3	29.721	0.28	0.000	0.452	91.3	63	76.9	105.1	30
06/03/01	5:00 p	77.2	81.6	76.3	80	70.5	4.0	NW	2.00	23.0	77.2	80.3	80.3	29.691	0.70	0.000	0.254	87.9	64	74.2	96.3	30
06/03/01	5:30 p	76.4	76.9	75.9	84	71.2	0.0	ESE	0.00	4.0	76.4	79.7	79.7	29.676	0.03	0.000	0.238	86.2	66	73.5	94.2	30
06/03/01	6:00 p	77.1	78.4	76.1	82	71.2	0.0	ESE	0.00	2.0	77.1	80.4	80.4	29.669	0.00	0.000	0.252	85.6	68	73.8	93.6	30
06/03/01	6:30 p	78.2	78.7	77.7	84	73.0	0.0	ESE	0.00	2.0	78.2	82.3	82.3	29.685	0.00	0.000	0.275	85.6	71	75.1	94.7	30
06/03/01	7:00 p	78.2	78.7	77.6	85	73.3	1.0	ESE	0.50	3.0	78.2	82.4	82.4	29.702	0.00	0.000	0.275	85.1	72	75.1	93.8	30
06/03/01	7:30 p	77.4	78.1	76.9	88	73.6	1.0	SSE	0.50	6.0	77.4	81.5	81.5	29.731	0.00	0.000	0.258	84.4	73	74.8	92.8	30
06/03/01	8:00 p	76.8	77.3	76.3	89	73.3	0.0	SSE	0.00	3.0	76.8	80.6	80.6	29.745	0.00	0.000	0.246	83.9	75	75.1	92.4	30
06/03/01	8:30 p	76.7	77.1	76.4	89	73.2	0.0	SSE	0.00	1.0	76.7	80.5	80.5	29.753	0.00	0.000	0.244	83.6	76	75.2	92.0	30
06/03/01	9:00 p	76.5	77.0	75.9	89	73.0	0.0	---	0.00	0.0	76.5	80.2	80.2	29.752	0.00	0.000	0.240	83.2	76	74.8	90.9	30
06/03/01	9:30 p	76.1	76.6	75.7	91	73.3	0.0	SSE	0.00	1.0	76.1	79.8	79.8	29.777	0.00	0.000	0.231	82.9	77	74.9	90.5	30
06/03/01	10:00 p	76.1	76.5	75.7	91	73.3	0.0	SSE	0.00	2.0	76.1	79.8	79.8	29.784	0.00	0.000	0.231	82.6	78	75.0	90.0	30
06/03/01	10:30 p	76.1	76.5	75.8	92	73.6	1.0	SSE	0.50	3.0	76.1	79.8	79.8	29.783	0.00	0.000	0.231	82.3	79	75.1	89.4	30
06/03/01	11:00 p	76.1	76.5	75.7	91	73.3	0.0	SSE	0.00	4.0	76.1	79.8	79.8	29.797	0.00	0.000	0.231	81.9	80	75.1	88.7	30
06/03/01	11:30 p	75.9	76.3	75.4	91	73.1	0.0	---	0.00	0.0	75.9	79.5	79.5	29.798	0.00	0.000	0.227	81.4	81	75.0	87.7	30
06/04/01	12:00 a	75.6	76.1	75.1	91	72.8	0.0	---	0.00	0.0	75.6	79.1	79.1	29.799	0.00	0.000	0.221	81.0	80	74.2	86.5	30
06/04/01	12:30 a	75.4	75.8	75.0	91	72.6	0.0	---	0.00	0.0	75.4	78.9	78.9	29.791	0.00	0.000	0.217	80.8	79	73.7	85.9	30
06/04/01	1:00 a	75.1	75.6	74.7	91	72.3	0.0	---	0.00	0.0	75.1	78.6	78.6	29.790	0.00	0.000	0.210	80.5	78	73.0	85.1	30
06/04/01	1:30 a	74.8	75.3	74.4	91	72.0	0.0	---	0.00	0.0	74.8	78.1	78.1	29.792	0.00	0.000	0.204	80.2	78	72.7	84.5	30
06/04/01	2:00 a	74.5	75.0	73.9	91	71.7	0.0	---	0.00	0.0	74.5	77.5	77.5	29.787	0.00	0.000	0.198	79.9	77	72.0	83.8	30
06/04/01	2:30 a	74.2	74.6	73.8	92	71.7	0.0	---	0.00	0.0	74.2	77.0	77.0	29.778	0.00	0.000	0.192	79.6	77	71.8	83.3	30
06/04/01	3:00 a	74.2	74.5	73.8	92	71.7	0.0	---	0.00	0.0	74.2	77.0	77.0	29.773	0.00	0.000	0.192	79.4	77	71.6	83.0	30
06/04/01	3:30 a	74.0	74.4	73.5	92	71.5	0.0	---	0.00	0.0	74.0	76.6	76.6	29.774	0.00	0.000	0.188	79.1	77	71.3	82.5	30
06/04/01	4:00 a	73.7	74.2	73.3	92	71.2	0.0	SSE	0.00	2.0	73.7	76.3	76.3	29.778	0.00	0.000	0.181	78.9	78	71.5	82.3	30
06/04/01	4:30 a	73.5	73.9	73.1	92	71.0	0.0	---	0.00	1.0	73.5	76.1	76.1	29.778	0.00	0.000	0.177	78.7	77	70.9	81.9	30
06/04/01	5:00 a	73.2	73.7	72.6	92	70.7	0.0	---	0.00	0.0	73.2	75.8	75.8	29.787	0.00	0.000	0.171	78.4	78	71.0	81.6	30
06/04/01	5:30 a	72.9	73.3	72.4	92	70.4	0.0	---	0.00	0.0	72.9	75.5	75.5	29.798	0.00	0.000	0.165	78.2	78	70.8	81.4	30
06/04/01	6:00 a	72.6	73.0	72.3	93	70.5	0.0	---	0.00	0.0	72.6	75.2	75.2	29.812	0.00	0.000	0.158	77.9	77	70.1	80.8	30
06/04/01	6:30 a	73.1	73.7	72.4	93	71.0	0.0	SSE	0.00	4.0	73.1	75.8	75.8	29.818	0.00	0.000	0.169	77.9	78	70.5	81.0	30
06/04/01	7:00 a	73.9	74.7	73.2	92	71.4	0.0	SSE	0.00	1.0	73.9	76.5	76.5	29.823	0.00	0.000	0.185	78.0	79	71.0	81.2	30
06/04/01	7:30 a	75.3	76.4	74.2	93	73.1	1.0	S	0.50	6.0	75.3	78.9	78.9	29.826	0.00	0.000	0.215	78.4	79	71.3	81.8	30
06/04/01	8:00 a	77.0	78.1	75.8	90	73.8	1.0	SSW	0.50	7.0	77.0	81.0	81.0	29.828	0.00	0.000	0.250	79.3	84	74.0	84.1	30
06/04/01	8:30 a	78.7	80.0	77.5	85	73.8	3.0	S	1.50	11.0	78.7	83.2	83.2	29.819	0.00	0.000	0.285	80.5	86	75.9	87.0	30
06/04/01	9:00 a	80.9	82.4	79.3	79	73.8	3.0	S	1.50	9.0	80.9	86.1	86.1	29.827	0.00	0.000	0.331	81.7	86	77.1	89.9	30
06/04/01	9:30 a	83.6	85.2	81.8	74	74.4	3.0	S	1.50	11.0	83.6	91.3	91.3	29.825	0.00	0.000	0.387	83.2	85	78.2	93.7	30
06/04/01	10:00 a	85.8	87.1	84.8	71	75.3	3.0	S	1.50	9.0	85.8	95.2	95.2	29.820	0.00	0.000	0.433	84.6	82	78.5	96.4	30
06/04/01	10:30 a	87.3	88.1	86.6	69	75.9	3.0	S	1.50	8.0	87.3	97.6	97.6	29.819	0.00	0.000	0.465	85.7	79	78.4	97.7	30
06/04/01	11:00 a	89.6	90.5	87.9	66	76.7	3.0	S	1.50	10.0	89.6	102.1	102.1	29.818	0.00	0.000	0.512	87.0	77	78.9	100.6	30
06/04/01	11:30 a	89.0	89.7	88.1	67	76.6	5.0	ESE	2.50	17.0	89.0	100.7	100.7	29.812	0.00	0.000	0.500	88.0	77	79.9	102.6	30
06/04/01	12:00 p	90.4	91.3	89.1	63	76.1	6.0	ESE	3.00	17.0	90.4	102.7	102.7	29.812	0.00	0.000	0.529	89.2	75	80.2	106.3	30
06/04/01	12:30 p	91.9	93.2	90.8	60	76.0	7.0	ESE	3.50	19.0	91.9	104.6	104.6	29.810	0.00	0.000	0.560	90.5	72	80.2	109.0	30
06/04/01	1:00 p	93.7	95.1	92.8	55	75.1	6.0	ESE	3.00	17.0	93.7	106.4	106.4	29.802	0.00	0.000	0.598	91.5	70	80.3	110.7	30
06/04/01	1:30 p	94.9	95.6	94.2	55	76.2	7.0	ESE	3.50	21.0	94.9	109.7	109.7	29.798	0.00	0.000	0.623	92.3	68	80.2	111.8	30
06/04/01	2:00 p	94.2	95.9	91.7	61	78.7	6.0	ESE	3.00	17.0	94.2	112.2	112.2	29.785	0.00	0.000	0.608	92.9	68	80.8	113.8	30
06/04/01	2:30 p	93.0	94.6	91.2	61	77.6	6.0	ESE	3.00	19.0	93.0	108.5	108.5	29.780	0.00	0.000	0.583	92.4	68	80.3	112.1	30
06/04/01	3:00 p	93.9	94.6	92.9	59	77.4	6.0	ESE	3.00	18.0	93.9	109.7	109.7	29.771	0.00	0.000	0.602	92.8	67	80.2	112.7	30
06/04/01	3:30 p	92.8	94.8	91.1	60	76.9	6.0	E	3.00	20.0	92.8	107.1	107.1	29.764	0.00	0.000	0.579	93.2	67	80.6	114.0	30
06/04/01	4:00 p	93.5	94.9	91.7	58	76.5	6.0	ESE	3.00	19.0	93.5	107.9	107.9	29.765	0.00	0.000	0.594	93.3	66	80.2	113.5	30
06/04/01	4:30 p	93.3	94.4	92.3	58	76.3	6.0	ESE	3.00	17.0	93.3	107.3	107.3	29.776	0.00	0.000	0.590	93.3	62	78.3	110.2	30
06/04/01	5:00 p	93.1	94.0	91.5	62	78.1	6.0	SE	3.00	16.0	93.1	109.6	109.6	29.758	0.00	0.000	0.585	91.8	66	78.8	108.7	30
06/04/01	5:30 p	89.5	91.6	88.0	68	77.5	5.0	SE	2.50	13.0	89.5	102.9	102.9	29.743	0.00	0.000	0.510	90.0	69	78.5	105.2	30
06/04/01	6:00 p	87.5	88.4	86.3	67	75.2	2.0	SSE	1.00	10.0	87.5	97.0	97.0	29.763	0.00	0.000	0.469	89.0	68	77.1	101.2	30
06/04/01	6:30 p	85.7	86.7	84.5	73	76.0	2.0	SE	1.00	10.0	85.7	95.6	95.6	29.783	0.00	0.000	0.431	87.9	73	78.2	100.3	30
06/04/01	7:00 p	84.4	85.0	83.8	75	75.6	2.0	SE	1.00	8.0	84.4	93.5	93.5	29.790	0.00	0.000	0.404	87.2	74	77.9	99.5	30
06/04/01	7:30 p	83.5	84.3	82.9	76	75.1	3.0	SSE	1.50	8.0	83.5	91.7	91.7	29.796	0.00	0.000	0.385	86.6	76	78.1	99.0	30
06/04/01	8:00 p	82.9	83.5	82.4	76	74.6	2.0	SE	1.00	8.0	82.9	90.2	90.2	29.806	0.00	0.000	0.373	86.1	76	77.6	97.6	30
06/04/01	8:30 p	82.4	82.8	81.6	77	74.5	2.0	SSE	1.00	8.0	82.4	89.1	89.1	29.811	0.00	0.000	0.363	85.7	75	76.9	96.3	30
06/04/01	9:00 p	81.6	82.3	81.1	80	74.8	2.0	SE	1.00	6.0	81.6	87.9	87.9	29.832	0.00	0.000	0.346	85.9	75	77.1	96.8	30
06/04/01	9:30 p	81.2	81.7	80.7	81	74.8	1.0	SE	0.50	6.0	81.2	87.2	87.2	29.837	0.00	0.000	0.337	85.8	76	77.4	96.9	30
06/04/01	10:00 p	80.8	81.3	80.3	82	74.8	1.0	SE	0.50	6.0	80.8	86.6	86.6	29.848	0.00	0.000	0.329	85.3	76	76.9	95.7	30
06/04/01	10:30 p	80.5	80.9	80.0	83	74.9	1.0	SE	0.50	8.0	80.5	86.2	86.2	29.855	0.00	0.000	0.323	84.8	77	76.8	94.9	30
06/04/01	11:00 p	80.2	80.7	79.8	83	74.6	1.0	ESE	0.50	6.0	80.2	85.6	85.6	29.856	0.00	0.000	0.317	84.4	77	76.4	94.2	30
06/04/01	11:30 p	80.1	80.4	79.7	84	74.8	1.0	SE	0.50	5.0	80.1	85.6	85.6	29.860	0.00	0.000	0.315	84.1	78	76.5	94.0	30
06/05/01	12:00 a	79.9	80.3	79.6	84	74.6	0.0	SE	0.00	4.0	79.9	85.2	85.2	29.854	0.00	0.000	0.310	83.8	79	76.6	93.6	30
06/05/01	12:30 a	79.8	80.2	79.4	85	74.9	0.0	SE	0.00	4.0	79.8	85.2	85.2	29.853	0.00	0.000	0.308	83.6	80	76.8	93.4	30
06/05/01	1:00 a	79.6	80.0	79.2	86	75.0	0.0	---	0.00	0.0	79.6	85.1	85.1	29.849	0.00	0.000	0.304	83.4	81	77.0	93.1	30
06/05/01	1:30 a	79.3	79.8	78.8	86	74.7	0.0	---	0.00	0.0	79.3	84.5	84.5	29.847	0.00	0.000	0.298	83.1	82	77.0	92.5	30
06/05/01	2:00 a	78.9	79.4	78.5	87	74.7	0.0	---	0.00	0.0	78.9	83.9	83.9	29.838	0.00	0.000	0.290	82.8	82	76.7	91.7	30
06/05/01	2:30 a	78.5	79.1	78.0	88	74.6	0.0	---	0.00	0.0	78.5	83.4	83.4	29.831	0.00	0.000	0.281	82.6	82	76.5	91.2	30
06/05/01	3:00 a	78.1	78.7	77.6	88	74.3	0.0	---	0.00	0.0	78.1	82.7	82.7	29.833	0.00	0.000	0.273	82.3	83	76.6	90.6	30
06/05/01	3:30 a	77.8	78.3	77.2	88	74.0	0.0	---	0.00	0.0	77.8	82.2	82.2	29.829	0.00	0.000	0.267	82.0	83	76.3	89.8	30
06/05/01	4:00 a	77.3	77.8	76.7	89	73.8	0.0	---	0.00	0.0	77.3	81.4	81.4	29.838	0.00	0.000	0.256	81.7	83	76.0	89.0	30
06/05/01	4:30 a	76.9	77.4	76.3	89	73.4	0.0	---	0.00	0.0	76.9	80.8	80.8	29.836	0.00	0.000	0.248	81.4	83	75.7	88.3	30
06/05/01	5:00 a	76.4	77.0	75.7	90	73.2	0.0	---	0.00	0.0	76.4	80.1	80.1	29.842	0.00	0.000	0.238	81.0	83	75.3	87.3	30
06/05/01	5:30 a	75.9	76.4	75.4	89	72.4	0.0	---	0.00	0.0	75.9	79.3	79.3	29.848	0.00	0.000	0.227	80.7	82	74.7	86.4	30
06/05/01	6:00 a	75.7	76.0	75.2	90	72.6	0.0	---	0.00	0.0	75.7	79.2	79.2	29.858	0.00	0.000	0.223	80.4	81	74.0	85.5	30
06/05/01	6:30 a	76.0	76.8	75.3	90	72.9	0.0	---	0.00	0.0	76.0	79.5	79.5	29.858	0.00	0.000	0.229	80.3	80	73.6	85.1	30
06/05/01	7:00 a	77.1	78.0	76.3	91	74.3	0.0	SE	0.00	5.0	77.1	81.3	81.3	29.866	0.00	0.000	0.252	80.3	81	73.9	85.3	30
06/05/01	7:30 a	78.6	79.6	77.6	86	74.1	2.0	SE	1.00	9.0	78.6	83.2	83.2	29.872	0.00	0.000	0.283	80.8	82	74.8	86.6	30
06/05/01	8:00 a	79.9	80.9	79.1	83	74.3	4.0	SE	2.00	10.0	79.9	85.0	85.0	29.870	0.00	0.000	0.310	81.7	85	76.7	89.6	30
06/05/01	8:30 a	81.6	82.8	80.2	78	74.1	4.0	SE	2.00	13.0	81.6	87.4	87.4	29.868	0.00	0.000	0.346	83.0	85	78.0	93.1	30
06/05/01	9:00 a	84.4	86.0	82.4	72	74.4	5.0	SE	2.50	13.0	84.4	92.4	92.4	29.868	0.00	0.000	0.404	84.5	84	79.1	96.9	30
06/05/01	9:30 a	86.4	87.2	85.5	67	74.1	4.0	SSE	2.00	10.0	86.4	95.0	95.0	29.865	0.00	0.000	0.446	86.0	79	78.7	98.4	30
06/05/01	10:00 a	86.9	88.0	86.2	69	75.5	6.0	SE	3.00	20.0	86.9	96.9	96.9	29.868	0.00	0.000	0.456	86.6	79	79.3	100.3	30
06/05/01	10:30 a	88.7	89.9	87.7	66	75.9	6.0	ESE	3.00	21.0	88.7	99.3	99.3	29.859	0.00	0.000	0.494	87.9	77	79.8	102.4	30
06/05/01	11:00 a	90.3	91.0	89.3	62	75.5	7.0	SE	3.50	19.0	90.3	101.8	101.8	29.849	0.00	0.000	0.527	89.1	73	79.3	104.6	30
06/05/01	11:30 a	91.7	92.8	90.4	57	74.3	6.0	E	3.00	17.0	91.7	102.5	102.5	29.845	0.00	0.000	0.556	90.2	71	79.5	107.2	30
06/05/01	12:00 p	93.0	93.5	92.3	57	75.5	7.0	ESE	3.50	18.0	93.0	105.8	105.8	29.834	0.00	0.000	0.583	91.3	69	79.7	109.3	30
06/05/01	12:30 p	93.7	94.1	93.2	58	76.7	6.0	E	3.00	19.0	93.7	108.4	108.4	29.832	0.00	0.000	0.598	92.3	68	80.2	111.8	30
06/05/01	1:00 p	93.5	94.3	92.7	60	77.5	7.0	E	3.50	23.0	93.5	109.2	109.2	29.827	0.00	0.000	0.594	93.1	68	81.0	114.4	30
06/05/01	1:30 p	92.5	94.2	89.5	52	72.3	6.0	ESE	3.00	25.0	92.5	101.4	101.4	29.843	0.00	0.000	0.573	93.2	65	79.7	112.3	30
06/05/01	2:00 p	88.6	89.8	88.0	58	71.9	1.0	SW	0.50	5.0	88.6	95.6	95.6	29.839	0.00	0.000	0.492	91.1	62	76.3	103.9	30
06/05/01	2:30 p	90.7	93.2	88.1	54	71.8	1.0	WNW	0.50	8.0	90.7	98.5	98.5	29.830	0.00	0.000	0.535	90.3	63	76.0	102.4	30
06/05/01	3:00 p	94.2	95.3	93.1	54	75.0	5.0	ESE	2.50	15.0	94.2	107.0	107.0	29.816	0.00	0.000	0.608	92.0	64	78.1	107.9	30
06/05/01	3:30 p	95.1	95.6	94.7	53	75.3	7.0	ESE	3.50	21.0	95.1	108.5	108.5	29.803	0.00	0.000	0.627	93.4	64	79.4	112.2	30
06/05/01	4:00 p	94.7	95.6	93.8	53	74.9	7.0	SE	3.50	20.0	94.7	107.5	107.5	29.802	0.00	0.000	0.619	93.6	62	78.6	111.1	30
06/05/01	4:30 p	93.9	95.0	92.3	59	77.4	7.0	ESE	3.50	17.0	93.9	109.7	109.7	29.808	0.00	0.000	0.602	93.6	62	78.6	111.1	30
06/05/01	5:00 p	91.2	92.7	90.3	59	74.9	5.0	SE	2.50	17.0	91.2	102.3	102.3	29.806	0.00	0.000	0.546	92.8	62	77.9	108.7	30
06/05/01	5:30 p	90.2	90.9	88.6	61	74.9	4.0	SSE	2.00	12.0	90.2	100.9	100.9	29.802	0.00	0.000	0.525	91.9	62	77.0	106.1	30
06/05/01	6:00 p	87.3	88.9	86.0	63	73.2	2.0	SSW	1.00	8.0	87.3	95.2	95.2	29.797	0.00	0.000	0.465	90.8	61	75.5	102.4	30
06/05/01	6:30 p	86.0	86.5	85.5	64	72.4	0.0	S	0.00	4.0	86.0	93.0	93.0	29.809	0.00	0.000	0.438	89.7	63	75.4	100.7	30
06/05/01	7:00 p	84.8	85.9	83.7	68	73.1	1.0	SSW	0.50	4.0	84.8	91.8	91.8	29.830	0.00	0.000	0.413	88.7	64	75.0	98.3	30
06/05/01	7:30 p	83.3	84.2	82.3	69	72.1	1.0	SSW	0.50	4.0	83.3	88.8	88.8	29.828	0.00	0.000	0.381	87.7	65	74.5	96.4	30
06/05/01	8:00 p	81.8	82.5	81.1	70	71.1	1.0	S	0.50	4.0	81.8	85.9	85.9	29.847	0.00	0.000	0.350	86.7	65	73.5	94.9	30
06/05/01	8:30 p	80.8	81.4	80.3	71	70.5	0.0	S	0.00	3.0	80.8	84.3	84.3	29.851	0.00	0.000	0.329	86.0	65	72.9	93.4	30
06/05/01	9:00 p	80.1	80.7	79.6	70	69.4	0.0	---	0.00	0.0	80.1	82.9	82.9	29.861	0.00	0.000	0.315	85.3	65	72.2	91.8	30
06/05/01	9:30 p	79.5	80.0	79.0	72	69.7	0.0	---	0.00	1.0	79.5	82.3	82.3	29.880	0.00	0.000	0.302	84.7	66	72.1	90.9	30
06/05/01	10:00 p	79.0	79.5	78.4	74	70.0	0.0	SSE	0.00	4.0	79.0	81.9	81.9	29.878	0.00	0.000	0.292	84.2	67	72.0	90.3	30
06/05/01	10:30 p	78.7	79.1	78.3	78	71.3	1.0	SE	0.50	5.0	78.7	82.1	82.1	29.876	0.00	0.000	0.285	83.7	69	72.4	89.8	30
06/05/01	11:00 p	78.8	79.1	78.4	80	72.1	0.0	SE	0.00	4.0	78.8	82.5	82.5	29.880	0.00	0.000	0.288	83.6	71	73.2	90.3	30
06/05/01	11:30 p	78.4	78.9	77.7	82	72.4	0.0	---	0.00	0.0	78.4	82.3	82.3	29.882	0.00	0.000	0.279	83.3	72	73.3	89.8	30
06/06/01	12:00 a	77.7	78.3	77.1	83	72.1	0.0	---	0.00	0.0	77.7	81.4	81.4	29.882	0.00	0.000	0.265	82.9	73	73.4	89.2	30
06/06/01	12:30 a	77.1	77.6	76.6	83	71.5	0.0	---	0.00	0.0	77.1	80.5	80.5	29.876	0.00	0.000	0.252	82.5	72	72.6	87.9	30
06/06/01	1:00 a	76.6	77.1	76.2	85	71.7	0.0	---	0.00	0.0	76.6	80.0	80.0	29.868	0.00	0.000	0.242	82.2	71	71.9	87.0	30
06/06/01	1:30 a	76.6	77.1	76.2	88	72.8	0.0	SE	0.00	1.0	76.6	80.3	80.3	29.854	0.00	0.000	0.242	81.9	72	72.0	86.6	30
06/06/01	2:00 a	76.8	77.2	76.5	88	73.0	0.0	SE	0.00	1.0	76.8	80.5	80.5	29.843	0.00	0.000	0.246	81.8	73	72.3	86.6	30
06/06/01	2:30 a	76.6	77.0	76.2	88	72.8	0.0	SE	0.00	1.0	76.6	80.3	80.3	29.843	0.00	0.000	0.242	81.5	73	72.0	86.0	30
06/06/01	3:00 a	76.3	76.7	75.9	88	72.5	0.0	---	0.00	0.0	76.3	79.8	79.8	29.836	0.00	0.000	0.235	81.3	74	72.2	85.8	30
06/06/01	3:30 a	76.1	76.5	75.7	88	72.3	0.0	---	0.00	1.0	76.1	79.5	79.5	29.838	0.00	0.000	0.231	81.0	73	71.5	85.0	30
06/06/01	4:00 a	76.0	76.3	75.6	89	72.5	0.0	---	0.00	0.0	76.0	79.4	79.4	29.843	0.00	0.000	0.229	80.8	73	71.3	84.6	30
06/06/01	4:30 a	75.7	76.1	75.4	89	72.2	0.0	---	0.00	0.0	75.7	79.1	79.1	29.843	0.00	0.000	0.223	80.6	73	71.1	84.3	30
06/06/01	5:00 a	75.5	75.9	75.0	89	72.0	0.0	---	0.00	0.0	75.5	78.9	78.9	29.853	0.00	0.000	0.219	80.4	74	71.3	84.1	30
06/06/01	5:30 a	75.2	75.6	74.6	89	71.7	0.0	---	0.00	0.0	75.2	78.5	78.5	29.857	0.00	0.000	0.212	80.1	74	71.1	83.6	30
06/06/01	6:00 a	74.9	75.2	74.6	90	71.8	0.0	---	0.00	0.0	74.9	78.2	78.2	29.862	0.00	0.000	0.206	79.9	73	70.5	83.1	30
06/06/01	6:30 a	75.2	75.6	74.7	90	72.1	0.0	---	0.00	1.0	75.2	78.6	78.6	29.867	0.00	0.000	0.212	79.8	75	71.2	83.3	30
06/06/01	7:00 a	75.8	76.5	75.1	91	73.0	0.0	---	0.00	1.0	75.8	79.4	79.4	29.873	0.00	0.000	0.225	79.8	75	71.2	83.3	30
06/06/01	7:30 a	77.0	77.8	76.0	89	73.5	1.0	SSE	0.50	7.0	77.0	80.9	80.9	29.875	0.00	0.000	0.250	80.0	76	71.8	83.8	30
06/06/01	8:00 a	78.2	79.2	77.4	87	74.0	2.0	S	1.00	7.0	78.2	82.7	82.7	29.880	0.00	0.000	0.275	80.6	80	73.9	85.7	30
06/06/01	8:30 a	79.6	80.5	78.5	83	74.0	3.0	S	1.50	9.0	79.6	84.4	84.4	29.884	0.00	0.000	0.304	81.5	82	75.5	88.3	30
06/06/01	9:00 a	81.2	82.1	80.2	79	74.1	2.0	S	1.00	10.0	81.2	86.7	86.7	29.885	0.00	0.000	0.337	82.4	81	76.0	90.3	30
06/06/01	9:30 a	83.7	84.9	81.7	73	74.1	4.0	SSE	2.00	12.0	83.7	91.2	91.2	29.880	0.00	0.000	0.390	83.6	80	76.8	93.4	30
06/06/01	10:00 a	86.3	88.0	84.4	67	74.0	6.0	SE	3.00	19.0	86.3	94.8	94.8	29.877	0.00	0.000	0.444	85.3	79	78.0	96.8	30
06/06/01	10:30 a	89.0	90.0	87.6	65	75.7	7.0	SE	3.50	21.0	89.0	99.6	99.6	29.868	0.00	0.000	0.500	87.2	77	79.1	101.0	30
06/06/01	11:00 a	89.3	90.1	88.6	63	75.0	4.0	S	2.00	15.0	89.3	99.6	99.6	29.867	0.00	0.000	0.506	88.3	74	79.0	102.1	30
06/06/01	11:30 a	89.6	90.6	88.6	61	74.4	6.0	ESE	3.00	19.0	89.6	99.3	99.3	29.866	0.00	0.000	0.512	88.7	73	78.9	103.1	30
06/06/01	12:00 p	90.9	92.1	90.1	59	74.6	6.0	SE	3.00	16.0	90.9	101.5	101.5	29.865	0.00	0.000	0.540	89.7	70	78.6	104.7	30
06/06/01	12:30 p	92.6	93.9	91.6	58	75.7	7.0	SE	3.50	18.0	92.6	105.4	105.4	29.845	0.00	0.000	0.575	90.6	69	79.0	107.1	30
06/06/01	1:00 p	93.4	94.2	92.9	57	75.9	8.0	ESE	4.00	20.0	93.4	106.9	106.9	29.834	0.00	0.000	0.592	91.7	68	79.6	109.9	30
06/06/01	1:30 p	94.1	94.9	93.6	57	76.5	7.0	ESE	3.50	18.0	94.1	108.9	108.9	29.836	0.00	0.000	0.606	92.4	67	79.8	111.4	30
06/06/01	2:00 p	95.2	95.9	94.7	55	76.5	8.0	ESE	4.00	22.0	95.2	110.6	110.6	29.818	0.00	0.000	0.629	93.1	65	79.6	112.0	30
06/06/01	2:30 p	95.5	96.4	94.6	53	75.6	7.0	SSE	3.50	18.0	95.5	109.6	109.6	29.813	0.00	0.000	0.635	93.5	64	79.5	112.5	30
06/06/01	3:00 p	95.1	96.5	92.8	57	77.5	7.0	ESE	3.50	19.0	95.1	111.8	111.8	29.809	0.00	0.000	0.627	93.7	64	79.7	113.1	30
06/06/01	3:30 p	94.9	95.7	93.5	55	76.2	6.0	ESE	3.00	18.0	94.9	109.7	109.7	29.806	0.00	0.000	0.623	93.7	63	79.2	112.3	30
06/06/01	4:00 p	95.6	96.3	94.8	54	76.3	6.0	SE	3.00	18.0	95.6	110.8	110.8	29.798	0.00	0.000	0.637	95.1	62	80.0	116.0	30
06/06/01	4:30 p	93.4	95.8	91.2	60	77.4	5.0	SE	2.50	16.0	93.4	108.9	108.9	29.783	0.00	0.000	0.592	94.6	62	79.6	114.3	30
06/06/01	5:00 p	90.7	91.5	90.2	62	75.9	5.0	SE	2.50	13.0	90.7	102.8	102.8	29.773	0.00	0.000	0.535	93.1	63	78.6	110.4	30
06/06/01	5:30 p	90.1	91.0	88.9	64	76.3	6.0	SE	3.00	15.0	90.1	102.5	102.5	29.776	0.00	0.000	0.523	93.2	62	78.2	109.9	30
06/06/01	6:00 p	87.9	89.2	86.7	67	75.6	4.0	SSE	2.00	12.0	87.9	97.5	97.5	29.797	0.00	0.000	0.477	91.6	65	78.2	107.4	30
06/06/01	6:30 p	86.2	87.2	85.4	69	74.8	3.0	SSE	1.50	8.0	86.2	95.4	95.4	29.794	0.00	0.000	0.442	90.0	66	77.1	103.4	30
06/06/01	7:00 p	85.1	85.9	84.3	71	74.6	2.0	SSE	1.00	7.0	85.1	93.5	93.5	29.792	0.00	0.000	0.419	89.1	67	76.7	101.0	30
06/06/01	7:30 p	84.1	84.8	83.3	73	74.5	1.0	SE	0.50	6.0	84.1	92.2	92.2	29.796	0.00	0.000	0.398	88.3	68	76.4	99.1	30
06/06/01	8:00 p	82.9	83.7	82.2	76	74.6	2.0	SSE	1.00	8.0	82.9	90.2	90.2	29.797	0.00	0.000	0.373	87.6	69	76.2	98.0	30
06/06/01	8:30 p	82.1	82.7	81.5	78	74.6	2.0	SSE	1.00	8.0	82.1	88.6	88.6	29.807	0.00	0.000	0.356	87.0	70	76.0	97.5	30
06/06/01	9:00 p	81.5	82.0	80.9	79	74.4	1.0	SSE	0.50	6.0	81.5	87.4	87.4	29.825	0.00	0.000	0.344	86.4	71	75.9	96.6	30
06/06/01	9:30 p	81.0	81.5	80.4	81	74.6	1.0	SSE	0.50	5.0	81.0	86.8	86.8	29.836	0.00	0.000	0.333	85.9	73	76.2	96.1	30
06/06/01	10:00 p	80.4	80.9	80.0	82	74.4	1.0	SSE	0.50	5.0	80.4	85.8	85.8	29.844	0.00	0.000	0.321	85.4	73	75.8	94.9	30
06/06/01	10:30 p	80.2	80.6	79.6	83	74.6	1.0	SSE	0.50	4.0	80.2	85.6	85.6	29.838	0.00	0.000	0.317	85.1	74	75.9	94.5	30
06/06/01	11:00 p	79.7	80.3	79.2	83	74.1	0.0	SSE	0.00	4.0	79.7	84.6	84.6	29.837	0.00	0.000	0.306	84.7	75	75.9	94.0	30
06/06/01	11:30 p	79.3	79.8	78.8	83	73.7	0.0	SSE	0.00	2.0	79.3	83.9	83.9	29.833	0.00	0.000	0.298	84.2	76	75.8	93.4	30
06/07/01	12:00 a	78.8	79.4	78.3	85	73.9	0.0	SSE	0.00	2.0	78.8	83.4	83.4	29.831	0.00	0.000	0.288	83.8	76	75.4	92.5	30
06/07/01	12:30 a	78.3	78.9	77.7	85	73.4	0.0	SSE	0.00	4.0	78.3	82.6	82.6	29.827	0.00	0.000	0.277	83.3	77	75.3	91.5	30
06/07/01	1:00 a	77.9	78.3	77.5	85	73.0	0.0	SSW	0.00	2.0	77.9	81.9	81.9	29.827	0.00	0.000	0.269	83.0	77	75.0	90.7	30
06/07/01	1:30 a	77.7	78.1	77.2	86	73.2	0.0	SSW	0.00	1.0	77.7	81.8	81.8	29.820	0.00	0.000	0.265	82.6	78	75.0	90.0	30
06/07/01	2:00 a	77.2	77.8	76.7	86	72.7	0.0	---	0.00	0.0	77.2	81.0	81.0	29.813	0.00	0.000	0.254	82.3	76	74.0	88.6	30
06/07/01	2:30 a	76.9	77.3	76.3	86	72.4	0.0	---	0.00	0.0	76.9	80.5	80.5	29.809	0.00	0.000	0.248	82.0	76	73.7	87.8	30
06/07/01	3:00 a	76.4	76.9	75.9	87	72.2	0.0	---	0.00	0.0	76.4	79.9	79.9	29.802	0.00	0.000	0.238	81.7	74	72.6	86.6	30
06/07/01	3:30 a	76.0	76.5	75.5	87	71.8	0.0	---	0.00	0.0	76.0	79.3	79.3	29.802	0.00	0.000	0.229	81.4	75	72.7	86.2	30
06/07/01	4:00 a	75.6	76.1	75.0	88	71.8	0.0	---	0.00	0.0	75.6	78.9	78.9	29.804	0.00	0.000	0.221	81.1	74	72.0	85.4	30
06/07/01	4:30 a	75.1	75.6	74.6	88	71.3	0.0	---	0.00	0.0	75.1	78.4	78.4	29.803	0.00	0.000	0.210	80.8	74	71.7	84.8	30
06/07/01	5:00 a	74.8	75.2	74.3	88	71.0	0.0	---	0.00	0.0	74.8	77.9	77.9	29.807	0.00	0.000	0.204	80.4	74	71.3	84.1	30
06/07/01	5:30 a	74.5	74.9	74.0	88	70.7	0.0	---	0.00	0.0	74.5	77.3	77.3	29.816	0.00	0.000	0.198	80.2	74	71.2	83.8	30
06/07/01	6:00 a	74.2	74.5	73.8	89	70.7	0.0	---	0.00	0.0	74.2	76.8	76.8	29.822	0.00	0.000	0.192	79.9	74	70.9	83.3	30
06/07/01	6:30 a	74.8	75.6	74.1	89	71.3	0.0	---	0.00	0.0	74.8	77.9	77.9	29.827	0.00	0.000	0.204	79.7	74	70.7	83.0	30
06/07/01	7:00 a	76.1	77.1	75.0	90	73.0	0.0	SSW	0.00	3.0	76.1	79.6	79.6	29.830	0.00	0.000	0.231	79.8	75	71.2	83.3	30
06/07/01	7:30 a	77.4	78.6	76.4	88	73.6	1.0	SSW	0.50	7.0	77.4	81.5	81.5	29.832	0.00	0.000	0.258	80.3	76	72.0	84.3	30
06/07/01	8:00 a	78.8	79.6	78.0	84	73.6	2.0	S	1.00	8.0	78.8	83.2	83.2	29.832	0.00	0.000	0.288	81.2	80	74.4	87.0	30
06/07/01	8:30 a	80.4	82.1	79.2	77	72.5	2.0	SSW	1.00	7.0	80.4	84.7	84.7	29.827	0.00	0.000	0.321	82.3	80	75.5	89.7	30
06/07/01	9:00 a	82.1	83.3	81.1	74	73.0	2.0	S	1.00	6.0	82.1	87.5	87.5	29.820	0.00	0.000	0.356	83.5	80	76.7	93.1	30
06/07/01	9:30 a	84.0	86.4	82.4	65	71.0	2.0	ESE	1.00	10.0	84.0	89.2	89.2	29.810	0.00	0.000	0.396	84.6	77	76.6	94.6	30
06/07/01	10:00 a	86.2	87.4	85.2	71	75.7	3.0	SE	1.50	12.0	86.2	96.1	96.1	29.806	0.00	0.000	0.442	86.1	77	78.0	98.0	30
06/07/01	10:30 a	85.9	86.9	84.6	78	78.2	2.0	E	1.00	9.0	85.9	97.8	97.8	29.810	0.04	0.000	0.435	86.7	75	77.8	98.8	30
06/07/01	11:00 a	85.0	86.0	84.1	77	77.0	3.0	ESE	1.50	13.0	85.0	95.3	95.3	29.805	0.01	0.000	0.417	86.4	77	78.3	98.9	30
06/07/01	11:30 a	85.6	87.5	84.4	67	73.4	4.0	SE	2.00	13.0	85.6	93.2	93.2	29.800	0.00	0.000	0.429	86.7	76	78.2	99.3	30
06/07/01	12:00 p	88.7	90.2	87.0	63	74.5	6.0	ESE	3.00	17.0	88.7	97.9	97.9	29.787	0.00	0.000	0.494	88.1	74	78.8	101.3	30
06/07/01	12:30 p	91.1	92.2	90.1	61	75.8	7.0	ESE	3.50	19.0	91.1	103.2	103.2	29.780	0.00	0.000	0.544	89.9	72	79.7	106.9	30
06/07/01	1:00 p	92.6	93.6	91.4	57	75.1	7.0	ESE	3.50	20.0	92.6	104.8	104.8	29.766	0.00	0.000	0.575	91.2	69	79.6	109.0	30
06/07/01	1:30 p	93.6	94.3	92.6	56	75.5	6.0	ESE	3.00	18.0	93.6	106.8	106.8	29.761	0.00	0.000	0.596	92.3	67	79.8	111.0	30
06/07/01	2:00 p	94.7	95.7	93.6	53	74.9	6.0	ESE	3.00	21.0	94.7	107.5	107.5	29.746	0.00	0.000	0.619	93.0	65	79.5	111.7	30
06/07/01	2:30 p	95.8	96.6	95.0	54	76.5	6.0	ESE	3.00	18.0	95.8	111.4	111.4	29.749	0.00	0.000	0.642	93.4	65	79.9	113.0	30
06/07/01	3:00 p	96.4	96.9	96.0	54	77.0	7.0	SE	3.50	17.0	96.4	113.1	113.1	29.744	0.00	0.000	0.654	93.8	64	79.8	113.4	30
06/07/01	3:30 p	96.2	97.0	95.0	55	77.4	8.0	SE	4.00	20.0	96.2	113.5	113.5	29.725	0.00	0.000	0.650	94.1	64	80.1	114.4	30
06/07/01	4:00 p	92.9	95.4	90.4	63	78.4	7.0	SE	3.50	20.0	92.9	109.8	109.8	29.725	0.00	0.000	0.581	93.6	63	79.1	112.0	30
06/07/01	4:30 p	89.3	90.9	87.9	66	76.4	6.0	SSE	3.00	15.0	89.3	101.1	101.1	29.718	0.00	0.000	0.506	92.1	64	78.2	108.2	30
06/07/01	5:00 p	87.6	88.5	86.7	66	74.8	6.0	SE	3.00	18.0	87.6	96.7	96.7	29.717	0.00	0.000	0.471	90.4	66	77.5	104.6	30
06/07/01	5:30 p	86.3	87.2	85.3	71	75.8	6.0	SE	3.00	16.0	86.3	96.3	96.3	29.720	0.00	0.000	0.444	89.0	69	77.5	101.8	30
06/07/01	6:00 p	85.1	85.8	84.3	71	74.6	5.0	SSE	2.50	11.0	85.1	93.5	93.5	29.720	0.00	0.000	0.419	88.0	70	77.0	99.0	30
06/07/01	6:30 p	84.4	85.0	83.9	73	74.8	3.0	SE	1.50	10.0	84.4	92.8	92.8	29.726	0.00	0.000	0.404	87.2	72	77.1	98.7	30
06/07/01	7:00 p	83.9	84.4	83.3	74	74.7	1.0	S	0.50	6.0	83.9	92.1	92.1	29.745	0.00	0.000	0.394	86.7	74	77.4	98.4	30
06/07/01	7:30 p	82.8	83.9	80.8	75	74.1	2.0	WNW	1.00	13.0	82.8	89.6	89.6	29.775	0.00	0.000	0.371	86.2	72	76.1	96.5	30
06/07/01	8:00 p	79.9	81.2	79.1	78	72.4	2.0	NW	1.00	10.0	79.9	84.0	84.0	29.779	0.00	0.000	0.310	85.0	71	74.5	93.2	30
06/07/01	8:30 p	79.0	79.6	78.4	80	72.3	1.0	WSW	0.50	5.0	79.0	82.8	82.8	29.784	0.00	0.000	0.292	84.7	72	74.7	93.0	30
06/07/01	9:00 p	78.5	79.0	78.0	81	72.2	1.0	WSW	0.50	5.0	78.5	82.3	82.3	29.793	0.00	0.000	0.281	84.4	72	74.4	92.4	30
06/07/01	9:30 p	78.1	78.7	77.6	82	72.2	1.0	SSW	0.50	4.0	78.1	81.8	81.8	29.795	0.00	0.000	0.273	84.1	73	74.5	92.2	30
06/07/01	10:00 p	77.7	78.2	77.3	83	72.1	0.0	SW	0.00	3.0	77.7	81.4	81.4	29.799	0.00	0.000	0.265	83.8	74	74.6	91.8	30
06/07/01	10:30 p	77.6	78.0	77.1	83	72.0	0.0	---	0.00	1.0	77.6	81.2	81.2	29.806	0.00	0.000	0.262	83.4	74	74.2	90.8	30
06/07/01	11:00 p	77.3	77.7	76.9	83	71.7	0.0	---	0.00	0.0	77.3	80.8	80.8	29.807	0.00	0.000	0.256	82.9	74	73.8	89.5	30
06/07/01	11:30 p	77.0	77.5	76.5	83	71.4	0.0	SW	0.00	1.0	77.0	80.4	80.4	29.804	0.00	0.000	0.250	82.5	75	73.8	88.8	30
06/08/01	12:00 a	76.7	77.1	76.2	84	71.5	0.0	---	0.00	0.0	76.7	80.1	80.1	29.804	0.00	0.000	0.244	82.1	75	73.4	87.8	30
06/08/01	12:30 a	76.4	76.8	76.0	85	71.6	0.0	---	0.00	0.0	76.4	79.8	79.8	29.799	0.00	0.000	0.238	81.8	76	73.5	87.3	30
06/08/01	1:00 a	76.3	76.7	75.7	84	71.1	0.0	SW	0.00	2.0	76.3	79.5	79.5	29.786	0.00	0.000	0.235	81.5	76	73.2	86.7	30
06/08/01	1:30 a	75.8	76.4	75.3	85	71.0	0.0	---	0.00	0.0	75.8	79.0	79.0	29.774	0.00	0.000	0.225	81.2	76	72.9	86.1	30
06/08/01	2:00 a	75.4	76.0	75.0	85	70.6	0.0	---	0.00	0.0	75.4	78.5	78.5	29.770	0.00	0.000	0.217	80.9	75	72.2	85.2	30
06/08/01	2:30 a	75.1	75.7	74.5	86	70.6	0.0	---	0.00	0.0	75.1	78.2	78.2	29.768	0.00	0.000	0.210	80.6	75	71.9	84.7	30
06/08/01	3:00 a	74.7	75.2	74.2	87	70.6	0.0	---	0.00	0.0	74.7	77.6	77.6	29.765	0.00	0.000	0.202	80.4	74	71.3	84.1	30
06/08/01	3:30 a	74.4	74.8	73.9	87	70.3	0.0	---	0.00	0.0	74.4	77.0	77.0	29.765	0.00	0.000	0.196	80.1	74	71.1	83.6	30
06/08/01	4:00 a	74.1	74.5	73.7	88	70.3	0.0	---	0.00	0.0	74.1	76.5	76.5	29.767	0.00	0.000	0.190	79.9	74	70.9	83.3	30
06/08/01	4:30 a	74.1	74.4	73.7	89	70.6	0.0	---	0.00	0.0	74.1	76.6	76.6	29.770	0.00	0.000	0.190	79.7	74	70.7	83.0	30
06/08/01	5:00 a	74.1	74.4	73.7	89	70.6	0.0	---	0.00	0.0	74.1	76.6	76.6	29.772	0.00	0.000	0.190	79.5	74	70.5	82.6	30
06/08/01	5:30 a	74.1	74.6	73.8	89	70.6	0.0	---	0.00	0.0	74.1	76.6	76.6	29.776	0.00	0.000	0.190	79.4	74	70.4	82.5	30
06/08/01	6:00 a	74.3	74.7	74.0	89	70.8	0.0	---	0.00	0.0	74.3	76.9	76.9	29.783	0.00	0.000	0.194	79.3	75	70.7	82.5	30
06/08/01	6:30 a	74.6	75.2	74.1	89	71.1	0.0	---	0.00	0.0	74.6	77.5	77.5	29.790	0.00	0.000	0.200	79.3	75	70.7	82.5	30
06/08/01	7:00 a	75.1	75.7	74.6	88	71.3	0.0	SW	0.00	3.0	75.1	78.4	78.4	29.794	0.00	0.000	0.210	79.3	75	70.7	82.5	30
06/08/01	7:30 a	75.9	76.7	75.2	85	71.1	0.0	SW	0.00	1.0	75.9	79.1	79.1	29.802	0.00	0.000	0.227	79.6	77	71.8	83.3	30
06/08/01	8:00 a	76.8	77.5	76.0	83	71.2	0.0	SSW	0.00	4.0	76.8	80.1	80.1	29.809	0.00	0.000	0.246	79.9	77	72.0	83.8	30
06/08/01	8:30 a	78.7	81.2	77.0	79	71.6	2.0	SSW	1.00	7.0	78.7	82.2	82.2	29.804	0.00	0.000	0.285	80.7	77	72.8	85.3	30
06/08/01	9:00 a	81.6	82.5	80.8	77	73.7	3.0	SW	1.50	8.0	81.6	87.2	87.2	29.804	0.00	0.000	0.346	82.0	78	74.5	88.3	30
06/08/01	9:30 a	83.3	85.1	82.1	72	73.3	3.0	SSW	1.50	8.0	83.3	89.8	89.8	29.799	0.00	0.000	0.381	83.1	78	75.5	91.3	30
06/08/01	10:00 a	86.4	87.3	84.8	69	75.0	3.0	WSW	1.50	7.0	86.4	95.8	95.8	29.795	0.00	0.000	0.446	84.6	76	76.2	94.2	30
06/08/01	10:30 a	88.2	89.2	86.8	64	74.5	2.0	SW	1.00	8.0	88.2	97.0	97.0	29.791	0.00	0.000	0.483	86.0	75	77.1	97.0	30
06/08/01	11:00 a	89.2	90.7	88.3	62	74.5	2.0	WSW	1.00	9.0	89.2	98.8	98.8	29.779	0.00	0.000	0.504	87.4	73	77.7	99.4	30
06/08/01	11:30 a	90.6	92.7	89.4	58	73.8	2.0	NW	1.00	7.0	90.6	100.3	100.3	29.778	0.00	0.000	0.533	88.5	72	78.3	101.8	30
06/08/01	12:00 p	90.8	92.7	88.7	63	76.5	4.0	SE	2.00	10.0	90.8	103.7	103.7	29.778	0.00	0.000	0.538	89.6	69	78.1	103.8	30
06/08/01	12:30 p	86.7	88.9	85.5	71	76.2	5.0	SE	2.50	11.0	86.7	97.2	97.2	29.779	0.00	0.000	0.452	89.2	69	77.7	102.4	30
06/08/01	1:00 p	85.4	86.6	84.8	72	75.3	3.0	SE	1.50	13.0	85.4	94.5	94.5	29.772	0.00	0.000	0.425	88.5	68	76.6	99.7	30
06/08/01	1:30 p	86.4	88.7	84.9	68	74.6	2.0	SE	1.00	9.0	86.4	95.4	95.4	29.748	0.01	0.000	0.446	88.4	70	77.4	100.3	30
06/08/01	2:00 p	90.4	91.9	88.1	57	73.1	3.0	SE	1.50	8.0	90.4	99.3	99.3	29.731	0.00	0.000	0.529	89.4	69	77.9	103.1	30
06/08/01	2:30 p	93.3	94.5	91.7	58	76.3	3.0	ESE	1.50	11.0	93.3	107.3	107.3	29.726	0.00	0.000	0.590	91.3	67	78.8	107.9	30
06/08/01	3:00 p	92.6	94.9	89.2	63	78.2	2.0	ENE	1.00	6.0	92.6	108.9	108.9	29.723	0.00	0.000	0.575	92.0	66	79.0	109.3	30
06/08/01	3:30 p	87.5	89.6	85.2	68	75.6	2.0	ENE	1.00	19.0	87.5	97.4	97.4	29.712	0.00	0.000	0.469	91.1	64	77.2	105.2	30
06/08/01	4:00 p	84.3	85.5	83.8	70	73.4	1.0	N	0.50	6.0	84.3	91.5	91.5	29.708	0.00	0.000	0.402	89.6	66	76.7	102.1	30
06/08/01	4:30 p	84.4	85.3	83.8	73	74.8	1.0	ESE	0.50	6.0	84.4	92.8	92.8	29.702	0.00	0.000	0.404	89.0	67	76.6	100.7	30
06/08/01	5:00 p	85.6	86.3	84.9	72	75.5	1.0	ESE	0.50	4.0	85.6	95.0	95.0	29.715	0.00	0.000	0.429	89.1	69	77.6	102.1	30
06/08/01	5:30 p	85.8	86.4	85.2	73	76.1	2.0	SE	1.00	6.0	85.8	95.8	95.8	29.708	0.00	0.000	0.433	88.9	70	77.8	102.0	30
06/08/01	6:00 p	85.0	85.8	84.3	75	76.2	2.0	SSE	1.00	6.0	85.0	94.6	94.6	29.713	0.00	0.000	0.417	88.6	72	78.4	102.1	30
06/08/01	6:30 p	84.1	84.9	83.5	78	76.5	2.0	SSE	1.00	6.0	84.1	94.0	94.0	29.709	0.00	0.000	0.398	88.0	74	78.7	100.9	30
06/08/01	7:00 p	83.4	84.0	82.8	78	75.8	1.0	S	0.50	4.0	83.4	92.1	92.1	29.721	0.00	0.000	0.383	87.4	75	78.5	100.3	30
06/08/01	7:30 p	82.8	83.3	82.2	79	75.6	0.0	---	0.00	1.0	82.8	90.8	90.8	29.721	0.00	0.000	0.371	87.2	75	78.3	100.0	30
06/08/01	8:00 p	82.2	82.8	81.5	80	75.4	0.0	---	0.00	1.0	82.2	89.5	89.5	29.723	0.00	0.000	0.358	86.8	76	78.3	99.6	30
06/08/01	8:30 p	81.6	82.2	80.9	81	75.2	0.0	---	0.00	0.0	81.6	88.2	88.2	29.728	0.00	0.000	0.346	86.5	77	78.4	99.2	30
06/08/01	9:00 p	81.0	81.6	80.5	83	75.3	0.0	---	0.00	0.0	81.0	87.3	87.3	29.735	0.00	0.000	0.333	86.0	77	77.9	97.7	30
06/08/01	9:30 p	80.4	81.0	80.0	84	75.1	0.0	---	0.00	0.0	80.4	86.2	86.2	29.735	0.00	0.000	0.321	85.6	78	77.9	97.1	30
06/08/01	10:00 p	79.9	80.6	79.4	85	75.0	0.0	S	0.00	5.0	79.9	85.4	85.4	29.749	0.00	0.000	0.310	85.2	79	77.9	96.5	30
06/08/01	10:30 p	79.0	79.9	78.0	85	74.1	2.0	SSW	1.00	7.0	79.0	83.7	83.7	29.748	0.00	0.000	0.292	84.5	78	76.9	94.7	30
06/08/01	11:00 p	78.0	78.5	77.5	83	72.4	1.0	SSW	0.50	8.0	78.0	81.8	81.8	29.751	0.00	0.000	0.271	83.7	77	75.7	92.6	30
06/08/01	11:30 p	77.5	78.1	77.0	83	71.9	1.0	SSW	0.50	4.0	77.5	81.1	81.1	29.748	0.00	0.000	0.260	83.0	76	74.6	90.4	30
06/09/01	12:00 a	76.9	77.5	76.3	84	71.7	0.0	SSW	0.00	4.0	76.9	80.3	80.3	29.748	0.00	0.000	0.248	82.4	77	74.5	89.1	30
06/09/01	12:30 a	76.5	77.0	75.9	85	71.7	1.0	SW	0.50	5.0	76.5	79.9	79.9	29.733	0.00	0.000	0.240	82.0	77	74.1	88.1	30
06/09/01	1:00 a	76.0	76.5	75.5	86	71.5	1.0	SW	0.50	5.0	76.0	79.3	79.3	29.727	0.00	0.000	0.229	81.6	78	74.1	87.4	30
06/09/01	1:30 a	75.8	76.3	75.4	86	71.3	1.0	WSW	0.50	5.0	75.8	79.0	79.0	29.723	0.00	0.000	0.225	81.2	78	73.7	86.5	30
06/09/01	2:00 a	75.6	76.1	75.1	87	71.5	0.0	WSW	0.00	3.0	75.6	78.9	78.9	29.723	0.00	0.000	0.221	80.9	79	73.8	86.1	30
06/09/01	2:30 a	75.3	75.7	74.9	87	71.2	1.0	SW	0.50	4.0	75.3	78.5	78.5	29.724	0.00	0.000	0.215	80.7	78	73.2	85.5	30
06/09/01	3:00 a	75.0	75.5	74.6	88	71.2	1.0	SW	0.50	4.0	75.0	78.2	78.2	29.716	0.00	0.000	0.208	80.5	78	73.0	85.1	30
06/09/01	3:30 a	74.8	75.2	74.4	88	71.0	1.0	SW	0.50	6.0	74.8	77.9	77.9	29.717	0.00	0.000	0.204	80.2	78	72.7	84.5	30
06/09/01	4:00 a	74.6	75.0	74.1	88	70.8	1.0	SW	0.50	4.0	74.6	77.5	77.5	29.715	0.00	0.000	0.200	80.0	77	72.1	84.0	30
06/09/01	4:30 a	74.4	74.8	73.9	89	70.9	0.0	SW	0.00	2.0	74.4	77.1	77.1	29.727	0.00	0.000	0.196	79.8	77	71.9	83.6	30
06/09/01	5:00 a	74.2	74.6	73.8	89	70.7	0.0	---	0.00	0.0	74.2	76.8	76.8	29.738	0.00	0.000	0.192	79.6	77	71.8	83.3	30
06/09/01	5:30 a	74.0	74.5	73.5	89	70.6	0.0	---	0.00	0.0	74.0	76.4	76.4	29.745	0.00	0.000	0.188	79.3	76	71.1	82.6	30
06/09/01	6:00 a	73.8	74.2	73.4	90	70.7	0.0	---	0.00	0.0	73.8	76.2	76.2	29.747	0.00	0.000	0.183	79.1	77	71.3	82.5	30
06/09/01	6:30 a	74.1	74.8	73.5	90	71.0	0.0	---	0.00	1.0	74.1	76.6	76.6	29.751	0.00	0.000	0.190	79.2	79	72.1	83.0	30
06/09/01	7:00 a	74.9	75.7	74.2	91	72.1	0.0	SW	0.00	3.0	74.9	78.3	78.3	29.755	0.01	0.000	0.206	79.4	81	73.1	83.7	30
06/09/01	7:30 a	76.0	76.9	75.1	89	72.5	2.0	WNW	1.00	6.0	76.0	79.4	79.4	29.756	0.00	0.000	0.229	79.8	83	74.2	84.8	30
06/09/01	8:00 a	77.5	78.8	76.3	85	72.6	2.0	NW	1.00	7.0	77.5	81.3	81.3	29.759	0.00	0.000	0.260	80.5	85	75.6	86.7	30
06/09/01	8:30 a	79.3	80.6	78.1	78	71.8	2.0	NW	1.00	8.0	79.3	83.0	83.0	29.758	0.00	0.000	0.298	81.6	85	76.6	89.4	30
06/09/01	9:00 a	81.6	83.0	80.2	72	71.7	3.0	NW	1.50	11.0	81.6	86.0	86.0	29.760	0.00	0.000	0.346	83.1	81	76.7	92.3	30
06/09/01	9:30 a	83.6	85.1	82.3	65	70.6	2.0	N	1.00	7.0	83.6	88.3	88.3	29.756	0.00	0.000	0.387	84.5	77	76.5	94.4	30
06/09/01	10:00 a	85.7	86.8	84.5	65	72.6	2.0	N	1.00	7.0	85.7	92.7	92.7	29.757	0.00	0.000	0.431	85.9	76	77.5	97.1	30
06/09/01	10:30 a	87.6	88.6	86.2	63	73.4	2.0	NE	1.00	7.0	87.6	95.5	95.5	29.749	0.00	0.000	0.471	87.5	74	78.2	100.1	30
06/09/01	11:00 a	88.3	89.2	87.4	63	74.1	2.0	NE	1.00	10.0	88.3	96.8	96.8	29.739	0.00	0.000	0.485	89.2	72	79.0	104.3	30
06/09/01	11:30 a	88.1	89.3	87.4	61	73.0	3.0	E	1.50	9.0	88.1	95.5	95.5	29.737	0.00	0.000	0.481	90.2	70	79.1	106.4	30
06/09/01	12:00 p	89.7	90.3	88.9	60	74.0	3.0	ENE	1.50	9.0	89.7	99.0	99.0	29.729	0.00	0.000	0.515	91.2	68	79.2	108.3	30
06/09/01	12:30 p	88.8	90.3	88.1	64	75.0	3.0	ENE	1.50	9.0	88.8	98.6	98.6	29.726	0.00	0.000	0.496	91.9	66	78.9	109.0	30
06/09/01	1:00 p	88.5	89.3	87.6	60	72.8	4.0	NE	2.00	11.0	88.5	96.1	96.1	29.716	0.00	0.000	0.490	91.9	65	78.4	108.3	30
06/09/01	1:30 p	90.9	92.7	89.1	56	73.0	3.0	NE	1.50	9.0	90.9	100.0	100.0	29.709	0.00	0.000	0.540	92.6	64	78.6	109.7	30
06/09/01	2:00 p	92.3	92.8	91.9	56	74.3	3.0	ENE	1.50	9.0	92.3	103.4	103.4	29.698	0.00	0.000	0.569	93.7	63	79.2	112.3	30
06/09/01	2:30 p	94.3	95.6	92.6	56	76.2	4.0	NE	2.00	12.0	94.3	108.8	108.8	29.685	0.00	0.000	0.610	94.6	61	79.1	113.4	30
06/09/01	3:00 p	94.4	95.6	92.9	52	74.1	4.0	ENE	2.00	12.0	94.4	105.9	105.9	29.679	0.00	0.000	0.613	95.2	61	79.6	115.4	30
06/09/01	3:30 p	94.1	95.1	93.4	55	75.5	5.0	ENE	2.50	16.0	94.1	107.5	107.5	29.669	0.00	0.000	0.606	95.6	60	79.5	115.8	30
06/09/01	4:00 p	94.1	95.0	93.3	51	73.2	5.0	ESE	2.50	13.0	94.1	104.4	104.4	29.674	0.00	0.000	0.606	96.2	57	78.5	115.2	30
06/09/01	4:30 p	94.7	95.3	94.3	51	73.8	6.0	ESE	3.00	19.0	94.7	105.8	105.8	29.665	0.00	0.000	0.619	96.4	56	78.1	115.0	30
06/09/01	5:00 p	93.5	94.9	91.6	54	74.4	6.0	SE	3.00	15.0	93.5	105.2	105.2	29.662	0.00	0.000	0.594	96.2	55	77.4	113.5	30
06/09/01	5:30 p	91.5	92.1	90.8	55	73.1	5.0	SE	2.50	14.0	91.5	100.9	100.9	29.661	0.00	0.000	0.552	94.3	57	76.7	109.5	30
06/09/01	6:00 p	90.9	91.8	89.4	59	74.6	5.0	SSE	2.50	10.0	90.9	101.5	101.5	29.680	0.00	0.000	0.540	93.3	58	76.3	107.3	30
06/09/01	6:30 p	88.0	89.7	86.3	60	72.4	4.0	SSW	2.00	13.0	88.0	94.9	94.9	29.699	0.00	0.000	0.479	91.5	58	74.6	102.5	30
06/09/01	7:00 p	85.4	86.7	84.4	68	73.6	3.0	S	1.50	9.0	85.4	93.1	93.1	29.706	0.00	0.000	0.425	89.8	63	75.5	101.0	30
06/09/01	7:30 p	84.2	84.9	83.6	69	72.9	1.0	SE	0.50	8.0	84.2	91.0	91.0	29.704	0.00	0.000	0.400	88.7	65	75.4	98.8	30
06/09/01	8:00 p	83.2	84.1	82.3	71	72.8	2.0	S	1.00	7.0	83.2	89.2	89.2	29.704	0.00	0.000	0.379	87.8	66	75.0	97.0	30
06/09/01	8:30 p	82.1	82.9	81.1	73	72.6	3.0	SSW	1.50	10.0	82.1	87.3	87.3	29.727	0.00	0.000	0.356	87.0	67	74.7	96.4	30
06/09/01	9:00 p	81.0	81.5	80.4	74	71.9	2.0	SW	1.00	8.0	81.0	85.2	85.2	29.737	0.00	0.000	0.333	86.3	68	74.5	95.2	30
06/09/01	9:30 p	80.2	81.0	79.1	80	73.5	3.0	SSW	1.50	10.0	80.2	84.9	84.9	29.735	0.00	0.000	0.317	85.7	69	74.4	94.2	30
06/09/01	10:00 p	79.1	79.8	78.4	81	72.8	2.0	SW	1.00	6.0	79.1	83.2	83.2	29.768	0.00	0.000	0.294	85.0	71	74.5	93.2	30
06/09/01	10:30 p	78.7	79.1	78.2	81	72.4	0.0	NNW	0.00	7.0	78.7	82.5	82.5	29.752	0.00	0.000	0.285	84.6	71	74.2	92.4	30
06/09/01	11:00 p	78.6	79.2	78.0	81	72.3	0.0	SSE	0.00	3.0	78.6	82.4	82.4	29.752	0.00	0.000	0.283	84.3	71	73.9	91.9	30
06/09/01	11:30 p	78.3	78.7	77.7	80	71.6	0.0	SSW	0.00	4.0	78.3	81.8	81.8	29.754	0.00	0.000	0.277	84.0	71	73.6	91.3	30
06/10/01	12:00 a	77.7	78.2	77.2	81	71.4	1.0	S	0.50	5.0	77.7	81.1	81.1	29.762	0.00	0.000	0.265	83.6	72	73.6	90.6	30
06/10/01	12:30 a	77.4	77.9	76.8	81	71.1	0.0	---	0.00	0.0	77.4	80.7	80.7	29.756	0.00	0.000	0.258	83.1	72	73.1	89.3	30
06/10/01	1:00 a	76.8	77.3	76.3	83	71.2	0.0	---	0.00	0.0	76.8	80.1	80.1	29.743	0.00	0.000	0.246	82.7	73	73.2	88.7	30
06/10/01	1:30 a	76.1	76.9	75.5	84	70.9	0.0	---	0.00	0.0	76.1	79.3	79.3	29.742	0.00	0.000	0.231	82.2	73	72.7	87.5	30
06/10/01	2:00 a	75.6	76.1	75.2	84	70.4	0.0	---	0.00	0.0	75.6	78.6	78.6	29.729	0.00	0.000	0.221	81.8	74	72.7	86.8	30
06/10/01	2:30 a	75.3	75.9	74.8	85	70.5	0.0	---	0.00	0.0	75.3	78.4	78.4	29.731	0.00	0.000	0.215	81.5	73	72.0	86.0	30
06/10/01	3:00 a	74.8	75.4	74.3	86	70.3	0.0	---	0.00	0.0	74.8	77.7	77.7	29.729	0.00	0.000	0.204	81.2	72	71.3	85.2	30
06/10/01	3:30 a	74.5	75.0	74.2	86	70.0	0.0	---	0.00	0.0	74.5	77.2	77.2	29.730	0.00	0.000	0.198	80.9	71	70.6	84.4	30
06/10/01	4:00 a	74.3	74.8	73.8	87	70.2	0.0	---	0.00	0.0	74.3	76.8	76.8	29.739	0.00	0.000	0.194	80.6	71	70.3	83.9	30
06/10/01	4:30 a	73.8	74.4	73.5	87	69.7	0.0	---	0.00	0.0	73.8	76.1	76.1	29.738	0.00	0.000	0.183	80.2	71	69.9	83.2	30
06/10/01	5:00 a	73.5	74.1	73.0	88	69.7	0.0	---	0.00	0.0	73.5	75.8	75.8	29.735	0.00	0.000	0.177	79.9	71	69.7	82.7	30
06/10/01	5:30 a	73.2	73.7	72.8	88	69.4	0.0	---	0.00	0.0	73.2	75.5	75.5	29.742	0.00	0.000	0.171	79.6	71	69.4	82.3	30
06/10/01	6:00 a	73.0	73.4	72.7	88	69.2	0.0	---	0.00	0.0	73.0	75.3	75.3	29.747	0.00	0.000	0.167	79.4	71	69.2	82.0	30
06/10/01	6:30 a	73.3	73.8	72.7	88	69.5	0.0	---	0.00	0.0	73.3	75.6	75.6	29.753	0.00	0.000	0.173	79.2	71	69.0	81.7	30
06/10/01	7:00 a	74.2	75.2	73.4	89	70.7	0.0	---	0.00	0.0	74.2	76.8	76.8	29.759	0.00	0.000	0.192	79.2	72	69.4	81.9	30
06/10/01	7:30 a	75.5	76.3	74.7	87	71.4	0.0	SSW	0.00	2.0	75.5	78.7	78.7	29.763	0.00	0.000	0.219	79.5	74	70.5	82.6	30
06/10/01	8:00 a	76.6	77.5	75.8	84	71.4	0.0	SSW	0.00	2.0	76.6	79.9	79.9	29.761	0.00	0.000	0.242	80.1	75	71.5	83.8	30
06/10/01	8:30 a	78.3	79.8	77.0	80	71.6	0.0	NNW	0.00	3.0	78.3	81.8	81.8	29.754	0.00	0.000	0.277	81.2	77	73.3	86.3	30
06/10/01	9:00 a	80.9	82.4	79.4	70	70.2	0.0	NNW	0.00	4.0	80.9	84.2	84.2	29.757	0.00	0.000	0.331	82.6	79	75.4	90.3	30
06/10/01	9:30 a	84.1	86.2	82.1	67	72.0	1.0	SW	0.50	6.0	84.1	90.1	90.1	29.754	0.00	0.000	0.398	84.3	77	76.3	94.0	30
06/10/01	10:00 a	87.5	89.2	85.7	62	72.9	1.0	S	0.50	6.0	87.5	95.0	95.0	29.749	0.00	0.000	0.469	86.1	75	77.2	97.3	30
06/10/01	10:30 a	90.1	91.3	88.8	55	71.8	1.0	SSW	0.50	7.0	90.1	97.6	97.6	29.747	0.00	0.000	0.523	87.7	72	77.5	99.5	30
06/10/01	11:00 a	91.5	92.7	90.5	61	76.1	1.0	SW	0.50	6.0	91.5	104.3	104.3	29.747	0.00	0.000	0.552	89.1	69	77.6	102.1	30
06/10/01	11:30 a	91.7	92.9	90.8	64	77.8	2.0	ENE	1.00	10.0	91.7	107.0	107.0	29.739	0.00	0.000	0.556	90.2	70	79.1	106.4	30
06/10/01	12:00 p	91.0	92.2	89.8	59	74.7	3.0	NE	1.50	10.0	91.0	101.8	101.8	29.733	0.00	0.000	0.542	90.9	69	79.3	108.0	30
06/10/01	12:30 p	92.6	93.4	91.4	58	75.7	3.0	ENE	1.50	9.0	92.6	105.4	105.4	29.726	0.00	0.000	0.575	92.3	67	79.8	111.0	30
06/10/01	1:00 p	91.8	93.9	90.2	57	74.4	4.0	E	2.00	10.0	91.8	102.7	102.7	29.717	0.00	0.000	0.558	92.9	65	79.4	111.4	30
06/10/01	1:30 p	94.1	95.4	92.9	54	74.9	3.0	ENE	1.50	13.0	94.1	106.7	106.7	29.703	0.00	0.000	0.606	93.4	64	79.4	112.2	30
06/10/01	2:00 p	93.6	95.4	91.2	67	81.0	3.0	ESE	1.50	10.0	93.6	115.3	115.3	29.707	0.04	0.000	0.596	93.9	63	79.4	112.9	30
06/10/01	2:30 p	89.9	91.3	88.6	66	77.0	2.0	ENE	1.00	9.0	89.9	103.1	103.1	29.701	0.00	0.000	0.519	93.0	66	80.0	112.5	30
06/10/01	3:00 p	87.9	89.1	86.8	75	79.0	2.0	SE	1.00	8.0	87.9	101.2	101.2	29.699	0.04	0.000	0.477	91.6	67	79.1	108.8	30
06/10/01	3:30 p	89.4	91.7	87.6	63	75.1	3.0	ESE	1.50	11.0	89.4	99.8	99.8	29.698	0.00	0.000	0.508	90.9	69	79.3	108.0	30
06/10/01	4:00 p	91.0	92.3	89.5	62	76.2	3.0	ESE	1.50	12.0	91.0	103.6	103.6	29.692	0.00	0.000	0.542	91.8	66	78.8	108.7	30
06/10/01	4:30 p	92.6	94.2	90.4	56	74.6	4.0	SE	2.00	11.0	92.6	104.2	104.2	29.675	0.00	0.000	0.575	92.8	65	79.3	111.1	30
06/10/01	5:00 p	94.0	94.5	93.5	57	76.4	4.0	ESE	2.00	12.0	94.0	108.6	108.6	29.679	0.00	0.000	0.604	93.9	63	79.4	112.9	30
06/10/01	5:30 p	92.7	94.1	90.8	60	76.8	4.0	SE	2.00	11.0	92.7	106.9	106.9	29.700	0.00	0.000	0.577	93.6	62	78.6	111.1	30
06/10/01	6:00 p	89.5	91.2	87.8	63	75.2	4.0	ESE	2.00	16.0	89.5	100.1	100.1	29.682	0.00	0.000	0.510	92.2	62	77.3	107.0	30
06/10/01	6:30 p	85.1	88.4	80.6	79	77.8	3.0	N	1.50	12.0	85.1	96.3	96.3	29.780	0.03	0.000	0.419	90.6	64	76.7	103.8	30
06/10/01	7:00 p	78.3	80.4	77.0	84	73.1	2.0	N	1.00	12.0	78.3	82.4	82.4	29.780	0.03	0.000	0.277	88.2	66	75.4	97.8	30
06/10/01	7:30 p	77.2	77.8	76.5	84	72.0	1.0	N	0.50	6.0	77.2	80.8	80.8	29.772	0.02	0.000	0.254	86.9	67	74.6	96.1	30
06/10/01	8:00 p	76.6	77.1	76.2	83	71.0	1.0	N	0.50	6.0	76.6	79.8	79.8	29.774	0.01	0.000	0.242	85.8	67	73.6	93.7	30
06/10/01	8:30 p	76.3	76.7	75.9	85	71.5	0.0	NE	0.00	4.0	76.3	79.6	79.6	29.774	0.02	0.000	0.235	85.0	69	73.7	92.5	30
06/10/01	9:00 p	76.3	76.7	75.9	85	71.5	0.0	ENE	0.00	3.0	76.3	79.6	79.6	29.776	0.01	0.000	0.235	84.3	70	73.4	91.5	30
06/10/01	9:30 p	76.4	76.7	76.0	85	71.6	2.0	SE	1.00	5.0	76.4	79.8	79.8	29.777	0.03	0.000	0.238	83.9	70	73.1	90.7	30
06/10/01	10:00 p	76.4	76.8	76.0	87	72.2	2.0	SE	1.00	7.0	76.4	79.9	79.9	29.776	0.02	0.000	0.238	83.4	72	73.4	90.1	30
06/10/01	10:30 p	76.2	76.7	75.9	87	72.0	1.0	SE	0.50	5.0	76.2	79.6	79.6	29.785	0.02	0.000	0.233	83.0	74	73.9	89.8	30
06/10/01	11:00 p	76.2	76.6	75.7	88	72.4	0.0	SE	0.00	3.0	76.2	79.7	79.7	29.788	0.01	0.000	0.233	82.6	75	73.9	89.1	30
06/10/01	11:30 p	76.0	76.4	75.6	88	72.2	0.0	---	0.00	0.0	76.0	79.4	79.4	29.787	0.02	0.000	0.229	82.2	76	73.9	88.3	30
06/11/01	12:00 a	75.6	76.2	75.1	88	71.8	0.0	---	0.00	0.0	75.6	78.9	78.9	29.786	0.01	0.000	0.221	81.8	75	73.1	87.1	30
06/11/01	12:30 a	75.2	75.7	74.7	88	71.4	0.0	---	0.00	0.0	75.2	78.5	78.5	29.777	0.01	0.000	0.212	81.5	73	72.0	86.0	30
06/11/01	1:00 a	74.8	75.4	74.3	88	71.0	0.0	---	0.00	0.0	74.8	77.9	77.9	29.770	0.01	0.000	0.204	81.2	73	71.7	85.4	30
06/11/01	1:30 a	74.4	74.9	73.9	89	70.9	0.0	---	0.00	0.0	74.4	77.1	77.1	29.759	0.01	0.000	0.196	80.9	72	71.0	84.6	30
06/11/01	2:00 a	74.2	74.6	73.6	89	70.7	0.0	---	0.00	0.0	74.2	76.8	76.8	29.753	0.01	0.000	0.192	80.5	72	70.6	83.9	30
06/11/01	2:30 a	73.7	74.2	73.2	89	70.3	0.0	---	0.00	0.0	73.7	76.1	76.1	29.749	0.01	0.000	0.181	80.2	72	70.4	83.4	30
06/11/01	3:00 a	73.4	73.9	73.0	91	70.6	0.0	SE	0.00	2.0	73.4	75.9	75.9	29.746	0.01	0.000	0.175	79.8	72	70.0	82.8	30
06/11/01	3:30 a	73.1	73.7	72.7	90	70.0	0.0	---	0.00	1.0	73.1	75.6	75.6	29.745	0.01	0.000	0.169	79.5	73	70.1	82.5	30
06/11/01	4:00 a	72.9	73.4	72.5	90	69.8	0.0	---	0.00	1.0	72.9	75.4	75.4	29.745	0.01	0.000	0.165	79.3	72	69.5	82.0	30
06/11/01	4:30 a	72.7	73.1	72.3	91	69.9	0.0	---	0.00	1.0	72.7	75.2	75.2	29.749	0.01	0.000	0.160	78.9	73	69.5	81.6	30
06/11/01	5:00 a	72.4	72.9	71.9	90	69.3	0.0	---	0.00	0.0	72.4	74.7	74.7	29.756	0.01	0.000	0.154	78.7	73	69.3	81.3	30
06/11/01	5:30 a	72.2	72.6	71.8	91	69.4	0.0	---	0.00	0.0	72.2	74.6	74.6	29.763	0.01	0.000	0.150	78.4	73	69.0	80.9	30
06/11/01	6:00 a	72.2	72.5	71.7	91	69.4	0.0	---	0.00	0.0	72.2	74.6	74.6	29.782	0.01	0.000	0.150	78.2	73	68.8	80.6	30
06/11/01	6:30 a	72.5	73.1	71.9	92	70.0	0.0	---	0.00	0.0	72.5	75.0	75.0	29.784	0.00	0.000	0.156	78.1	74	69.1	80.6	30
06/11/01	7:00 a	73.4	74.2	72.7	92	70.9	0.0	SW	0.00	3.0	73.4	76.0	76.0	29.786	0.01	0.000	0.175	78.3	75	69.7	81.0	30
06/11/01	7:30 a	74.6	75.5	73.6	92	72.1	2.0	SW	1.00	5.0	74.6	77.8	77.8	29.793	0.01	0.000	0.200	78.6	76	70.4	81.6	30
06/11/01	8:00 a	75.9	77.0	75.0	91	73.1	1.0	SW	0.50	5.0	75.9	79.5	79.5	29.796	0.01	0.000	0.227	79.2	78	71.7	82.8	30
06/11/01	8:30 a	77.8	79.3	76.5	87	73.6	2.0	SW	1.00	8.0	77.8	82.1	82.1	29.796	0.00	0.000	0.267	80.4	83	74.8	86.0	30
06/11/01	9:00 a	80.4	82.0	78.9	82	74.4	2.0	SSW	1.00	7.0	80.4	85.8	85.8	29.790	0.00	0.000	0.321	81.8	84	76.5	89.6	30
06/11/01	9:30 a	83.1	84.7	81.6	75	74.4	1.0	SSW	0.50	5.0	83.1	90.4	90.4	29.787	0.00	0.000	0.377	83.4	84	78.1	94.0	30
06/11/01	10:00 a	85.6	87.4	84.2	69	74.3	1.0	WSW	0.50	4.0	85.6	94.0	94.0	29.782	0.00	0.000	0.429	85.0	80	78.1	96.4	30
06/11/01	10:30 a	88.5	90.1	86.9	64	74.8	2.0	SW	1.00	7.0	88.5	97.8	97.8	29.777	0.00	0.000	0.490	86.6	77	78.5	99.4	30
06/11/01	11:00 a	91.1	92.6	89.5	61	75.8	3.0	S	1.50	7.0	91.1	103.2	103.2	29.768	0.00	0.000	0.544	88.2	75	79.3	102.2	30
06/11/01	11:30 a	93.3	94.3	92.1	60	77.3	2.0	SSW	1.00	7.0	93.3	108.6	108.6	29.762	0.00	0.000	0.590	89.8	73	80.0	107.2	30
06/11/01	12:00 p	92.1	93.4	90.6	65	78.6	3.0	NE	1.50	13.0	92.1	108.9	108.9	29.747	0.00	0.000	0.565	91.0	73	81.1	111.6	30
06/11/01	12:30 p	92.7	93.6	91.8	65	79.2	5.0	E	2.50	15.0	92.7	110.8	110.8	29.747	0.00	0.000	0.577	91.9	72	81.6	114.1	30
06/11/01	1:00 p	91.0	92.3	90.3	66	78.1	4.0	ENE	2.00	13.0	91.0	106.3	106.3	29.740	0.00	0.000	0.542	92.5	69	80.8	113.2	30
06/11/01	1:30 p	91.6	92.8	90.7	64	77.7	4.0	ENE	2.00	11.0	91.6	106.7	106.7	29.733	0.00	0.000	0.554	93.0	69	81.3	114.9	30
06/11/01	2:00 p	91.9	92.8	90.8	65	78.4	4.0	ENE	2.00	13.0	91.9	108.3	108.3	29.722	0.00	0.000	0.560	93.7	67	81.1	115.7	30
06/11/01	2:30 p	91.1	92.3	89.4	64	77.2	3.0	ENE	1.50	12.0	91.1	105.2	105.2	29.712	0.00	0.000	0.544	93.4	66	80.3	113.8	30
06/11/01	3:00 p	89.8	90.7	88.8	66	76.9	4.0	ESE	2.00	12.0	89.8	102.7	102.7	29.710	0.00	0.000	0.517	92.8	66	79.8	111.9	30
06/11/01	3:30 p	88.1	89.2	86.9	72	77.9	3.0	ENE	1.50	13.0	88.1	100.3	100.3	29.709	0.01	0.000	0.481	91.8	66	78.8	108.7	30
06/11/01	4:00 p	87.2	88.1	86.5	72	77.1	3.0	SE	1.50	12.0	87.2	98.7	98.7	29.695	0.00	0.000	0.462	90.9	69	79.3	108.0	30
06/11/01	4:30 p	89.7	90.9	87.9	68	77.7	5.0	SE	2.50	15.0	89.7	103.6	103.6	29.683	0.00	0.000	0.515	90.9	70	79.8	108.7	30
06/11/01	5:00 p	91.2	91.7	90.5	67	78.7	6.0	SE	3.00	21.0	91.2	107.6	107.6	29.677	0.00	0.000	0.546	92.0	71	81.2	113.4	30
06/11/01	5:30 p	90.7	91.5	89.5	67	78.2	6.0	SE	3.00	14.0	90.7	106.1	106.1	29.673	0.00	0.000	0.535	91.9	69	80.3	111.2	30
06/11/01	6:00 p	88.3	89.4	87.3	67	75.9	4.0	SE	2.00	15.0	88.3	98.6	98.6	29.678	0.00	0.000	0.485	90.7	68	78.7	106.7	30
06/11/01	6:30 p	87.2	87.9	86.4	68	75.3	4.0	SE	2.00	17.0	87.2	97.0	97.0	29.699	0.00	0.000	0.462	90.2	67	77.8	104.6	30
06/11/01	7:00 p	85.9	86.7	85.0	72	75.8	2.0	SSE	1.00	9.0	85.9	95.7	95.7	29.708	0.00	0.000	0.435	89.4	70	78.3	103.7	30
06/11/01	7:30 p	82.3	85.5	81.0	70	71.5	2.0	N	1.00	12.0	82.3	86.9	86.9	29.718	0.00	0.000	0.360	88.3	64	74.6	97.2	30
06/11/01	8:00 p	81.3	81.8	80.5	71	71.0	1.0	NW	0.50	6.0	81.3	85.2	85.2	29.754	0.00	0.000	0.340	87.4	65	74.2	96.1	30
06/11/01	8:30 p	80.0	80.9	78.7	73	70.6	1.0	NW	0.50	5.0	80.0	83.2	83.2	29.750	0.00	0.000	0.313	86.8	65	73.6	95.2	30
06/11/01	9:00 p	78.6	79.1	78.1	75	70.0	2.0	NE	1.00	13.0	78.6	81.4	81.4	29.744	0.00	0.000	0.283	85.9	67	73.7	93.9	30
06/11/01	9:30 p	78.8	79.4	78.0	80	72.1	5.0	ENE	2.50	21.0	78.8	82.5	82.5	29.755	0.00	0.000	0.288	85.4	70	74.5	93.9	30
06/11/01	10:00 p	78.8	79.3	78.2	76	70.6	5.0	ESE	2.50	21.0	78.8	81.9	81.9	29.753	0.00	0.000	0.288	84.8	69	73.5	92.1	30
06/11/01	10:30 p	78.9	79.3	78.5	77	71.1	4.0	ESE	2.00	14.0	78.9	82.2	82.2	29.747	0.00	0.000	0.290	84.4	70	73.5	91.7	30
06/11/01	11:00 p	78.7	79.1	78.3	77	70.9	3.0	ESE	1.50	13.0	78.7	81.9	81.9	29.750	0.00	0.000	0.285	84.0	71	73.6	91.3	30
06/11/01	11:30 p	78.6	78.9	78.2	80	71.9	3.0	SE	1.50	10.0	78.6	82.2	82.2	29.738	0.00	0.000	0.283	83.6	72	73.6	90.6	30
06/12/01	12:00 a	78.3	78.8	77.8	79	71.2	2.0	SSE	1.00	8.0	78.3	81.7	81.7	29.734	0.00	0.000	0.277	83.3	72	73.3	89.8	30
06/12/01	12:30 a	77.8	78.4	77.3	79	70.8	1.0	S	0.50	5.0	77.8	81.0	81.0	29.736	0.00	0.000	0.267	82.8	72	72.8	88.6	30
06/12/01	1:00 a	77.3	77.9	76.8	79	70.3	0.0	S	0.00	5.0	77.3	80.3	80.3	29.737	0.00	0.000	0.256	82.4	72	72.5	87.7	30
06/12/01	1:30 a	76.9	77.3	76.3	81	70.6	0.0	S	0.00	3.0	76.9	80.0	80.0	29.735	0.00	0.000	0.248	82.0	73	72.5	87.0	30
06/12/01	2:00 a	76.5	77.0	76.1	83	70.9	0.0	S	0.00	2.0	76.5	79.7	79.7	29.724	0.00	0.000	0.240	81.6	74	72.5	86.4	30
06/12/01	2:30 a	76.3	76.7	75.9	86	71.8	0.0	S	0.00	2.0	76.3	79.7	79.7	29.716	0.00	0.000	0.235	81.4	76	73.1	86.5	30
06/12/01	3:00 a	76.0	76.5	75.5	88	72.2	0.0	S	0.00	3.0	76.0	79.4	79.4	29.720	0.00	0.000	0.229	81.1	77	73.2	86.1	30
06/12/01	3:30 a	75.7	76.2	75.3	89	72.2	1.0	S	0.50	4.0	75.7	79.1	79.1	29.716	0.00	0.000	0.223	80.9	79	73.8	86.1	30
06/12/01	4:00 a	75.5	75.9	75.1	88	71.7	0.0	S	0.00	4.0	75.5	78.8	78.8	29.724	0.00	0.000	0.219	80.7	79	73.6	85.7	30
06/12/01	4:30 a	75.3	75.7	74.8	87	71.2	0.0	SSW	0.00	3.0	75.3	78.5	78.5	29.727	0.00	0.000	0.215	80.4	79	73.3	85.1	30
06/12/01	5:00 a	74.8	75.4	74.2	87	70.7	1.0	SSW	0.50	6.0	74.8	77.8	77.8	29.731	0.00	0.000	0.204	80.1	78	72.6	84.3	30
06/12/01	5:30 a	74.3	74.8	73.8	88	70.5	1.0	SSW	0.50	7.0	74.3	76.9	76.9	29.742	0.00	0.000	0.194	79.7	78	72.2	83.6	30
06/12/01	6:00 a	74.0	74.5	73.6	89	70.6	1.0	SSW	0.50	5.0	74.0	76.4	76.4	29.740	0.00	0.000	0.188	79.4	78	71.9	83.1	30
06/12/01	6:30 a	74.2	74.8	73.6	90	71.1	2.0	SSW	1.00	8.0	74.2	76.8	76.8	29.757	0.00	0.000	0.192	79.3	79	72.2	83.1	30
06/12/01	7:00 a	75.2	76.2	74.3	90	72.1	2.0	SW	1.00	7.0	75.2	78.6	78.6	29.763	0.00	0.000	0.212	79.4	80	72.7	83.5	30
06/12/01	7:30 a	76.8	77.8	75.7	90	73.6	3.0	SSW	1.50	8.0	76.8	80.7	80.7	29.760	0.00	0.000	0.246	79.7	81	73.3	84.2	30
06/12/01	8:00 a	78.4	79.6	77.5	87	74.2	4.0	SW	2.00	12.0	78.4	83.1	83.1	29.768	0.00	0.000	0.279	80.5	85	75.6	86.7	30
06/12/01	8:30 a	80.5	82.0	79.2	82	74.5	4.0	SW	2.00	11.0	80.5	86.0	86.0	29.766	0.00	0.000	0.323	81.8	86	77.2	90.2	30
06/12/01	9:00 a	83.0	84.4	81.5	74	73.9	5.0	SW	2.50	13.0	83.0	89.8	89.8	29.772	0.00	0.000	0.375	83.2	85	78.2	93.7	30
06/12/01	9:30 a	85.4	86.9	83.8	71	74.9	5.0	SW	2.50	12.0	85.4	94.2	94.2	29.767	0.00	0.000	0.425	84.7	83	79.0	97.0	30
06/12/01	10:00 a	87.3	88.3	86.5	63	73.2	6.0	SW	3.00	13.0	87.3	95.2	95.2	29.763	0.00	0.000	0.465	86.1	78	78.4	98.4	30
06/12/01	10:30 a	89.1	90.4	87.9	60	73.4	5.0	SW	2.50	14.0	89.1	97.6	97.6	29.761	0.00	0.000	0.502	87.1	74	77.8	99.4	30
06/12/01	11:00 a	91.0	91.9	89.9	55	72.6	6.0	SW	3.00	14.0	91.0	99.7	99.7	29.750	0.00	0.000	0.542	88.4	71	77.8	100.9	30
06/12/01	11:30 a	92.1	93.2	91.2	54	73.1	5.0	SW	2.50	13.0	92.1	101.7	101.7	29.738	0.00	0.000	0.565	89.4	70	78.3	103.7	30
06/12/01	12:00 p	94.3	95.8	92.7	52	74.0	5.0	SSW	2.50	16.0	94.3	105.7	105.7	29.724	0.00	0.000	0.610	90.6	68	78.6	106.4	30
06/12/01	12:30 p	96.3	97.1	95.4	48	73.4	6.0	SW	3.00	12.0	96.3	107.6	107.6	29.706	0.00	0.000	0.652	92.0	66	79.0	109.3	30
06/12/01	1:00 p	97.6	98.4	96.8	46	73.3	6.0	SW	3.00	14.0	97.6	109.4	109.4	29.692	0.00	0.000	0.679	93.0	63	78.5	110.1	30
06/12/01	1:30 p	98.8	99.8	97.5	48	75.7	4.0	SSW	2.00	12.0	98.8	113.8	113.8	29.682	0.00	0.000	0.704	94.0	63	79.5	113.2	30
06/12/01	2:00 p	97.7	99.1	95.7	52	77.1	5.0	SSW	2.50	13.0	97.7	114.7	114.7	29.686	0.00	0.000	0.681	94.4	62	79.4	113.7	30
06/12/01	2:30 p	87.8	96.0	84.4	73	78.1	4.0	SW	2.00	20.0	87.8	100.1	100.1	29.704	0.05	0.000	0.475	92.5	63	78.1	108.6	30
06/12/01	3:00 p	84.2	84.7	83.7	76	75.8	1.0	SE	0.50	5.0	84.2	93.4	93.4	29.695	0.02	0.000	0.400	90.0	67	77.6	104.0	30
06/12/01	3:30 p	87.4	89.8	84.5	65	74.2	2.0	S	1.00	9.0	87.4	96.1	96.1	29.706	0.00	0.000	0.467	89.8	68	77.8	103.9	30
06/12/01	4:00 p	89.1	89.9	87.6	68	77.2	4.0	SSW	2.00	13.0	89.1	101.6	101.6	29.692	0.00	0.000	0.502	90.9	67	78.4	106.7	30
06/12/01	4:30 p	85.5	87.7	83.6	65	72.4	3.0	SW	1.50	11.0	85.5	92.3	92.3	29.710	0.00	0.000	0.427	90.0	64	76.2	102.2	30
06/12/01	5:00 p	82.2	83.9	80.7	73	72.7	2.0	WNW	1.00	9.0	82.2	87.5	87.5	29.701	0.00	0.000	0.358	87.8	64	74.1	96.2	30
06/12/01	5:30 p	80.8	81.3	80.4	73	71.3	1.0	S	0.50	5.0	80.8	84.6	84.6	29.709	0.00	0.000	0.329	86.8	66	74.1	95.5	30
06/12/01	6:00 p	80.8	81.2	80.1	73	71.3	1.0	SE	0.50	7.0	80.8	84.6	84.6	29.704	0.00	0.000	0.329	86.3	66	73.6	94.4	30
06/12/01	6:30 p	81.3	81.8	80.6	70	70.6	2.0	SE	1.00	6.0	81.3	85.0	85.0	29.708	0.00	0.000	0.340	86.0	67	73.8	94.2	30
06/12/01	7:00 p	81.6	82.0	81.1	77	73.7	3.0	S	1.50	10.0	81.6	87.2	87.2	29.710	0.00	0.000	0.346	85.7	70	74.8	94.6	30
06/12/01	7:30 p	80.9	81.5	80.2	76	72.6	3.0	S	1.50	9.0	80.9	85.4	85.4	29.710	0.00	0.000	0.331	85.4	71	74.9	94.2	30
06/12/01	8:00 p	80.2	80.7	79.6	75	71.6	3.0	S	1.50	7.0	80.2	84.0	84.0	29.710	0.00	0.000	0.317	84.9	70	74.0	92.7	30
06/12/01	8:30 p	79.5	80.1	79.0	77	71.7	2.0	SSW	1.00	7.0	79.5	83.1	83.1	29.715	0.00	0.000	0.302	84.5	70	73.6	91.9	30
06/12/01	9:00 p	78.9	79.5	78.5	78	71.5	2.0	SSW	1.00	7.0	78.9	82.3	82.3	29.729	0.00	0.000	0.290	84.0	71	73.6	91.3	30
06/12/01	9:30 p	78.6	79.1	78.2	78	71.2	1.0	SSW	0.50	5.0	78.6	81.9	81.9	29.739	0.00	0.000	0.283	83.6	71	73.2	90.3	30
06/12/01	10:00 p	78.2	78.7	77.7	79	71.2	1.0	SSW	0.50	6.0	78.2	81.5	81.5	29.746	0.00	0.000	0.275	83.2	72	73.2	89.6	30
06/12/01	10:30 p	77.8	78.3	77.3	79	70.8	2.0	SSW	1.00	6.0	77.8	81.0	81.0	29.746	0.00	0.000	0.267	82.9	72	72.9	88.9	30
06/12/01	11:00 p	77.4	77.9	76.9	79	70.4	2.0	SSW	1.00	6.0	77.4	80.4	80.4	29.738	0.00	0.000	0.258	82.5	71	72.1	87.6	30
06/12/01	11:30 p	77.0	77.5	76.6	78	69.6	1.0	SSW	0.50	5.0	77.0	79.8	79.8	29.741	0.00	0.000	0.250	82.2	72	72.3	87.2	30
06/13/01	12:00 a	76.7	77.2	76.2	78	69.3	2.0	SSW	1.00	6.0	76.7	79.5	79.5	29.740	0.00	0.000	0.244	81.8	72	71.9	86.4	30
06/13/01	12:30 a	76.3	76.7	75.8	80	69.7	2.0	SSW	1.00	5.0	76.3	79.2	79.2	29.738	0.00	0.000	0.235	81.4	72	71.5	85.6	30
06/13/01	1:00 a	76.0	76.4	75.5	80	69.4	1.0	SSW	0.50	5.0	76.0	78.9	78.9	29.734	0.00	0.000	0.229	81.2	73	71.7	85.4	30
06/13/01	1:30 a	75.8	76.2	75.4	81	69.6	1.0	SSW	0.50	4.0	75.8	78.7	78.7	29.726	0.00	0.000	0.225	80.9	72	71.0	84.6	30
06/13/01	2:00 a	75.6	76.1	75.1	82	69.7	0.0	SSW	0.00	3.0	75.6	78.5	78.5	29.726	0.00	0.000	0.221	80.7	72	70.8	84.3	30
06/13/01	2:30 a	75.4	75.8	74.9	83	69.9	0.0	SSW	0.00	2.0	75.4	78.3	78.3	29.734	0.00	0.000	0.217	80.4	72	70.5	83.8	30
06/13/01	3:00 a	75.1	75.5	74.6	84	69.9	0.0	SSW	0.00	1.0	75.1	78.0	78.0	29.737	0.00	0.000	0.210	80.2	72	70.4	83.4	30
06/13/01	3:30 a	74.8	75.3	74.3	85	70.0	0.0	---	0.00	0.0	74.8	77.6	77.6	29.736	0.00	0.000	0.204	80.0	72	70.2	83.1	30
06/13/01	4:00 a	74.5	75.0	74.1	86	70.0	0.0	---	0.00	0.0	74.5	77.2	77.2	29.745	0.00	0.000	0.198	79.8	73	70.4	82.9	30
06/13/01	4:30 a	74.3	74.7	73.9	86	69.8	0.0	SSW	0.00	2.0	74.3	76.8	76.8	29.752	0.00	0.000	0.194	79.5	73	70.1	82.5	30
06/13/01	5:00 a	74.2	74.5	73.7	88	70.4	1.0	SW	0.50	4.0	74.2	76.7	76.7	29.760	0.00	0.000	0.192	79.4	74	70.4	82.5	30
06/13/01	5:30 a	73.9	74.4	73.5	89	70.5	1.0	SW	0.50	4.0	73.9	76.3	76.3	29.773	0.00	0.000	0.185	79.2	75	70.6	82.3	30
06/13/01	6:00 a	73.9	74.3	73.5	90	70.8	1.0	SW	0.50	4.0	73.9	76.3	76.3	29.778	0.00	0.000	0.185	79.1	75	70.5	82.2	30
06/13/01	6:30 a	74.3	74.9	73.8	90	71.2	2.0	SW	1.00	6.0	74.3	77.0	77.0	29.791	0.00	0.000	0.194	79.1	76	70.9	82.3	30
06/13/01	7:00 a	75.3	76.3	74.3	90	72.2	2.0	SW	1.00	6.0	75.3	78.7	78.7	29.797	0.00	0.000	0.215	79.2	77	71.4	82.6	30
06/13/01	7:30 a	76.6	77.7	75.6	89	73.1	2.0	WSW	1.00	5.0	76.6	80.3	80.3	29.799	0.00	0.000	0.242	79.6	78	72.1	83.5	30
06/13/01	8:00 a	78.3	79.6	77.2	87	74.1	3.0	WSW	1.50	9.0	78.3	82.9	82.9	29.806	0.00	0.000	0.277	80.5	83	74.9	86.2	30
06/13/01	8:30 a	80.5	82.2	79.0	82	74.5	4.0	SW	2.00	9.0	80.5	86.0	86.0	29.793	0.00	0.000	0.323	82.1	84	76.8	90.4	30
06/13/01	9:00 a	82.7	83.8	81.7	76	74.4	3.0	SW	1.50	10.0	82.7	89.6	89.6	29.791	0.00	0.000	0.369	83.7	83	78.0	94.6	30
06/13/01	9:30 a	84.6	86.1	83.1	70	73.7	4.0	SW	2.00	12.0	84.6	92.1	92.1	29.796	0.00	0.000	0.408	84.9	81	78.4	96.6	30
06/13/01	10:00 a	87.3	88.5	85.8	67	75.0	4.0	SW	2.00	9.0	87.3	96.8	96.8	29.787	0.00	0.000	0.465	86.6	79	79.3	100.3	30
06/13/01	10:30 a	88.6	89.9	87.4	65	75.3	4.0	SW	2.00	9.0	88.6	98.5	98.5	29.781	0.00	0.000	0.492	88.2	76	79.7	102.8	30
06/13/01	11:00 a	90.6	92.0	88.8	61	75.3	3.0	SSW	1.50	8.0	90.6	101.9	101.9	29.777	0.00	0.000	0.533	89.5	73	79.7	106.1	30
06/13/01	11:30 a	92.4	93.5	91.4	57	75.0	3.0	WSW	1.50	9.0	92.4	104.3	104.3	29.772	0.00	0.000	0.571	91.1	71	80.4	110.2	30
06/13/01	12:00 p	94.1	95.7	92.7	53	74.4	3.0	WSW	1.50	10.0	94.1	105.9	105.9	29.765	0.00	0.000	0.606	92.5	68	80.4	112.5	30
06/13/01	12:30 p	96.4	98.0	95.2	47	72.9	3.0	SW	1.50	9.0	96.4	107.2	107.2	29.751	0.00	0.000	0.654	94.0	66	80.9	115.8	30
06/13/01	1:00 p	96.9	97.6	95.7	59	80.2	2.0	SW	1.00	8.0	96.9	119.3	119.3	29.742	0.00	0.000	0.665	95.1	64	81.0	117.8	30
06/13/01	1:30 p	93.9	96.3	92.1	58	76.9	4.0	ENE	2.00	13.0	93.9	109.0	109.0	29.733	0.00	0.000	0.602	95.4	64	81.3	118.9	30
06/13/01	2:00 p	92.9	93.7	92.1	59	76.5	5.0	ESE	2.50	15.0	92.9	106.8	106.8	29.727	0.00	0.000	0.581	95.0	64	80.9	117.5	30
06/13/01	2:30 p	92.4	94.0	91.6	62	77.5	5.0	SE	2.50	15.0	92.4	107.5	107.5	29.728	0.00	0.000	0.571	94.7	63	80.1	115.6	30
06/13/01	3:00 p	91.6	92.5	90.4	63	77.2	4.0	ESE	2.00	16.0	91.6	106.0	106.0	29.719	0.00	0.000	0.554	93.9	63	79.4	112.9	30
06/13/01	3:30 p	89.6	90.8	88.4	66	76.7	4.0	SE	2.00	12.0	89.6	102.1	102.1	29.711	0.00	0.000	0.512	93.1	64	79.1	111.2	30
06/13/01	4:00 p	88.0	89.0	87.2	63	73.8	3.0	SE	1.50	9.0	88.0	96.0	96.0	29.715	0.00	0.000	0.479	92.0	62	77.1	106.4	30
06/13/01	4:30 p	88.3	89.3	87.2	68	76.4	4.0	SSE	2.00	10.0	88.3	99.1	99.1	29.720	0.00	0.000	0.485	91.4	66	78.4	107.5	30
06/13/01	5:00 p	88.9	89.5	88.4	67	76.5	4.0	SE	2.00	13.0	88.9	100.4	100.4	29.709	0.00	0.000	0.498	91.6	67	79.1	108.8	30
06/13/01	5:30 p	89.0	89.7	88.3	66	76.2	5.0	SE	2.50	13.0	89.0	100.1	100.1	29.720	0.00	0.000	0.500	91.4	67	78.9	108.2	30
06/13/01	6:00 p	87.8	88.8	87.0	68	75.9	5.0	SSE	2.50	14.0	87.8	97.8	97.8	29.729	0.00	0.000	0.475	90.6	67	78.1	105.8	30
06/13/01	6:30 p	86.8	87.6	85.9	67	74.5	4.0	SSE	2.00	11.0	86.8	95.9	95.9	29.728	0.00	0.000	0.454	89.9	67	77.5	103.7	30
06/13/01	7:00 p	85.7	86.6	84.8	68	73.9	3.0	SSE	1.50	8.0	85.7	93.8	93.8	29.737	0.00	0.000	0.431	89.1	67	76.7	101.0	30
06/13/01	7:30 p	84.7	85.4	84.1	69	73.4	3.0	SSW	1.50	8.0	84.7	91.9	91.9	29.734	0.00	0.000	0.410	88.4	67	76.0	98.9	30
06/13/01	8:00 p	83.7	84.6	82.9	69	72.4	3.0	S	1.50	8.0	83.7	89.8	89.8	29.729	0.00	0.000	0.390	87.7	67	75.4	97.3	30
06/13/01	8:30 p	82.8	83.5	82.1	69	71.6	2.0	SSW	1.00	6.0	82.8	87.7	87.7	29.722	0.00	0.000	0.371	87.1	66	74.4	96.1	30
06/13/01	9:00 p	82.0	82.6	81.5	70	71.2	0.0	S	0.00	4.0	82.0	86.3	86.3	29.736	0.00	0.000	0.354	86.5	66	73.8	94.9	30
06/13/01	9:30 p	81.4	82.0	80.8	71	71.1	0.0	S	0.00	5.0	81.4	85.4	85.4	29.755	0.00	0.000	0.342	85.9	67	73.7	93.9	30
06/13/01	10:00 p	80.7	81.3	80.1	73	71.2	1.0	S	0.50	4.0	80.7	84.5	84.5	29.766	0.00	0.000	0.327	85.5	67	73.3	93.0	30
06/13/01	10:30 p	80.1	80.7	79.3	76	71.8	1.0	SSW	0.50	6.0	80.1	84.0	84.0	29.775	0.00	0.000	0.315	85.2	68	73.4	92.7	30
06/13/01	11:00 p	79.2	79.8	78.5	77	71.4	2.0	SSW	1.00	7.0	79.2	82.6	82.6	29.770	0.00	0.000	0.296	84.7	69	73.4	91.9	30
06/13/01	11:30 p	78.7	79.2	78.3	78	71.3	0.0	SSW	0.00	2.0	78.7	82.1	82.1	29.767	0.00	0.000	0.285	84.3	70	73.4	91.5	30
06/14/01	12:00 a	78.3	78.8	77.7	79	71.2	1.0	SSW	0.50	5.0	78.3	81.7	81.7	29.773	0.00	0.000	0.277	83.8	70	73.0	90.4	30
06/14/01	12:30 a	77.8	78.3	77.4	80	71.1	0.0	SW	0.00	4.0	77.8	81.1	81.1	29.772	0.00	0.000	0.267	83.4	71	73.0	89.7	30
06/14/01	1:00 a	77.5	78.0	77.1	81	71.2	0.0	W	0.00	2.0	77.5	80.8	80.8	29.766	0.00	0.000	0.260	83.0	72	73.0	89.1	30
06/14/01	1:30 a	77.1	77.7	76.6	82	71.2	0.0	---	0.00	1.0	77.1	80.4	80.4	29.763	0.00	0.000	0.252	82.6	73	73.1	88.5	30
06/14/01	2:00 a	76.6	77.2	76.2	83	71.0	0.0	---	0.00	0.0	76.6	79.8	79.8	29.759	0.00	0.000	0.242	82.3	73	72.8	87.7	30
06/14/01	2:30 a	76.3	76.9	75.8	82	70.4	0.0	W	0.00	2.0	76.3	79.4	79.4	29.752	0.00	0.000	0.235	81.8	73	72.3	86.6	30
06/14/01	3:00 a	75.8	76.4	75.2	82	69.9	0.0	---	0.00	1.0	75.8	78.8	78.8	29.760	0.00	0.000	0.225	81.4	73	71.9	85.8	30
06/14/01	3:30 a	75.2	75.9	74.5	84	70.0	1.0	SSW	0.50	4.0	75.2	78.1	78.1	29.766	0.00	0.000	0.212	81.0	74	71.9	85.2	30
06/14/01	4:00 a	74.6	75.1	74.1	83	69.1	1.0	SSW	0.50	4.0	74.6	77.1	77.1	29.770	0.00	0.000	0.200	80.6	74	71.5	84.5	30
06/14/01	4:30 a	74.3	74.7	73.9	82	68.4	0.0	SW	0.00	4.0	74.3	76.6	76.6	29.782	0.00	0.000	0.194	80.2	74	71.2	83.8	30
06/14/01	5:00 a	74.0	74.5	73.5	83	68.5	0.0	SW	0.00	3.0	74.0	76.1	76.1	29.789	0.00	0.000	0.188	79.8	74	70.8	83.1	30
06/14/01	5:30 a	73.6	74.1	73.3	82	67.8	0.0	SW	0.00	3.0	73.6	75.6	75.6	29.802	0.00	0.000	0.179	79.5	74	70.5	82.6	30
06/14/01	6:00 a	73.6	74.0	73.3	82	67.8	0.0	SW	0.00	1.0	73.6	75.6	75.6	29.814	0.00	0.000	0.179	79.2	74	70.2	82.2	30
06/14/01	6:30 a	74.1	74.7	73.4	82	68.3	0.0	---	0.00	0.0	74.1	76.2	76.2	29.828	0.00	0.000	0.190	79.0	75	70.4	82.0	30
06/14/01	7:00 a	74.7	75.4	74.0	80	68.1	0.0	SW	0.00	2.0	74.7	77.0	77.0	29.840	0.00	0.000	0.202	79.0	75	70.4	82.0	30
06/14/01	7:30 a	75.8	76.9	74.8	76	67.7	0.0	NNW	0.00	2.0	75.8	78.2	78.2	29.842	0.00	0.000	0.225	79.2	75	70.6	82.3	30
06/14/01	8:00 a	77.4	78.8	76.3	76	69.2	1.0	WSW	0.50	5.0	77.4	80.1	80.1	29.848	0.00	0.000	0.258	80.1	77	72.2	84.1	30
06/14/01	8:30 a	79.8	81.6	78.3	72	70.0	2.0	WSW	1.00	7.0	79.8	82.8	82.8	29.844	0.00	0.000	0.308	81.6	79	74.5	87.7	30
06/14/01	9:00 a	82.8	84.5	81.0	66	70.3	3.0	SW	1.50	8.0	82.8	86.8	86.8	29.846	0.00	0.000	0.371	83.4	77	75.4	91.8	30
06/14/01	9:30 a	86.0	87.5	84.2	58	69.5	3.0	SW	1.50	7.0	86.0	90.8	90.8	29.838	0.00	0.000	0.438	84.9	74	75.7	94.1	30
06/14/01	10:00 a	88.4	89.6	86.9	56	70.7	2.0	SW	1.00	6.0	88.4	94.4	94.4	29.840	0.00	0.000	0.488	86.4	72	76.3	96.9	30
06/14/01	10:30 a	90.6	92.0	89.1	53	71.1	2.0	SSW	1.00	7.0	90.6	97.8	97.8	29.839	0.00	0.000	0.533	87.9	69	76.5	98.4	30
06/14/01	11:00 a	93.0	94.4	91.4	49	71.0	2.0	SSE	1.00	7.0	93.0	100.7	100.7	29.832	0.00	0.000	0.583	89.4	68	77.4	102.6	30
06/14/01	11:30 a	95.0	95.9	93.9	49	72.8	3.0	SSW	1.50	7.0	95.0	105.1	105.1	29.829	0.00	0.000	0.625	90.8	66	77.9	105.7	30
06/14/01	12:00 p	96.1	96.9	95.4	50	74.5	2.0	ENE	1.00	11.0	96.1	108.3	108.3	29.823	0.00	0.000	0.648	92.2	64	78.3	108.5	30
06/14/01	12:30 p	95.8	97.0	95.1	49	73.6	3.0	ENE	1.50	9.0	95.8	107.0	107.0	29.815	0.00	0.000	0.642	93.5	63	79.0	111.7	30
06/14/01	1:00 p	97.2	98.2	96.1	51	76.1	4.0	ENE	2.00	12.0	97.2	112.2	112.2	29.799	0.00	0.000	0.671	94.5	62	79.5	114.0	30
06/14/01	1:30 p	97.6	99.2	95.8	48	74.6	5.0	ESE	2.50	12.0	97.6	110.8	110.8	29.792	0.00	0.000	0.679	95.3	62	80.2	116.7	30
06/14/01	2:00 p	98.1	99.1	96.7	50	76.3	5.0	ESE	2.50	15.0	98.1	113.5	113.5	29.777	0.00	0.000	0.690	96.0	61	80.4	118.1	30
06/14/01	2:30 p	98.1	99.1	96.5	53	78.0	4.0	ENE	2.00	12.0	98.1	117.1	117.1	29.763	0.00	0.000	0.690	96.5	60	80.3	118.8	30
06/14/01	3:00 p	97.6	98.5	96.7	54	78.1	7.0	ESE	3.50	18.0	97.6	116.8	116.8	29.754	0.00	0.000	0.679	96.8	60	80.6	119.9	30
06/14/01	3:30 p	98.3	99.5	97.0	51	77.1	6.0	ESE	3.00	18.0	98.3	115.3	115.3	29.742	0.00	0.000	0.694	96.9	60	80.7	120.3	30
06/14/01	4:00 p	98.4	99.2	97.6	49	75.9	6.0	SE	3.00	16.0	98.4	113.5	113.5	29.764	0.00	0.000	0.696	96.9	59	80.2	119.3	30
06/14/01	4:30 p	98.1	98.6	97.5	49	75.7	6.0	SE	3.00	16.0	98.1	112.7	112.7	29.763	0.00	0.000	0.690	96.9	58	79.7	118.4	30
06/14/01	5:00 p	97.5	98.6	96.1	47	73.9	4.0	ESE	2.00	12.0	97.5	109.8	109.8	29.770	0.00	0.000	0.677	96.5	54	77.1	113.4	30
06/14/01	5:30 p	95.8	97.5	93.0	52	75.3	4.0	SE	2.00	10.0	95.8	109.5	109.5	29.771	0.00	0.000	0.642	94.2	56	76.1	108.5	30
06/14/01	6:00 p	92.1	93.4	90.0	57	74.7	2.0	SE	1.00	7.0	92.1	103.5	103.5	29.791	0.00	0.000	0.565	92.7	57	75.2	105.1	30
06/14/01	6:30 p	89.8	90.3	89.3	57	72.5	1.0	NNW	0.50	3.0	89.8	97.9	97.9	29.780	0.00	0.000	0.517	91.7	59	75.3	103.6	30
06/14/01	7:00 p	88.9	89.6	88.2	60	73.2	1.0	ESE	0.50	6.0	88.9	97.1	97.1	29.772	0.00	0.000	0.498	90.7	61	75.4	102.2	30
06/14/01	7:30 p	87.4	88.4	86.5	66	74.6	3.0	SE	1.50	9.0	87.4	96.5	96.5	29.773	0.00	0.000	0.467	89.7	66	76.8	102.4	30
06/14/01	8:00 p	86.1	87.1	84.6	74	76.8	1.0	NE	0.50	6.0	86.1	96.9	96.9	29.786	0.00	0.000	0.440	89.4	69	77.9	103.1	30
06/14/01	8:30 p	84.1	84.8	83.5	76	75.7	1.0	E	0.50	5.0	84.1	93.2	93.2	29.789	0.00	0.000	0.398	88.7	69	77.2	100.8	30
06/14/01	9:00 p	83.3	84.1	82.6	80	76.5	1.0	E	0.50	7.0	83.3	92.5	92.5	29.798	0.00	0.000	0.381	88.2	71	77.6	100.2	30
06/14/01	9:30 p	82.6	83.1	82.2	80	75.8	1.0	E	0.50	6.0	82.6	90.6	90.6	29.816	0.00	0.000	0.367	87.7	72	77.5	99.5	30
06/14/01	10:00 p	82.6	82.9	82.3	80	75.8	0.0	---	0.00	0.0	82.6	90.6	90.6	29.823	0.00	0.000	0.367	87.3	73	77.6	99.3	30
06/14/01	10:30 p	82.1	82.7	81.6	82	76.1	0.0	---	0.00	0.0	82.1	89.8	89.8	29.825	0.00	0.000	0.356	86.7	73	77.0	98.0	30
06/14/01	11:00 p	81.6	82.0	81.2	82	75.6	0.0	E	0.00	2.0	81.6	88.5	88.5	29.812	0.00	0.000	0.346	86.3	74	77.0	97.4	30
06/14/01	11:30 p	81.2	81.6	80.7	84	75.9	0.0	E	0.00	2.0	81.2	88.1	88.1	29.806	0.00	0.000	0.337	85.9	75	77.1	96.8	30
06/15/01	12:00 a	80.7	81.3	80.2	83	75.1	0.0	E	0.00	1.0	80.7	86.6	86.6	29.809	0.00	0.000	0.327	85.6	76	77.2	96.4	30
06/15/01	12:30 a	80.2	80.8	79.6	84	74.9	0.0	---	0.00	0.0	80.2	85.8	85.8	29.796	0.00	0.000	0.317	85.2	76	76.8	95.4	30
06/15/01	1:00 a	79.8	80.2	79.4	85	74.9	0.0	E	0.00	2.0	79.8	85.2	85.2	29.789	0.00	0.000	0.308	84.8	77	76.8	94.9	30
06/15/01	1:30 a	79.4	79.9	78.8	85	74.5	0.0	---	0.00	0.0	79.4	84.5	84.5	29.791	0.00	0.000	0.300	84.4	77	76.4	94.2	30
06/15/01	2:00 a	78.8	79.4	78.4	85	73.9	0.0	---	0.00	0.0	78.8	83.4	83.4	29.786	0.00	0.000	0.288	84.0	77	76.0	93.4	30
06/15/01	2:30 a	78.4	79.0	77.9	85	73.5	0.0	---	0.00	0.0	78.4	82.7	82.7	29.784	0.00	0.000	0.279	83.7	77	75.7	92.6	30
06/15/01	3:00 a	77.9	78.5	77.4	86	73.4	0.0	---	0.00	0.0	77.9	82.1	82.1	29.775	0.00	0.000	0.269	83.3	78	75.7	91.9	30
06/15/01	3:30 a	77.4	78.0	76.9	85	72.5	0.0	---	0.00	0.0	77.4	81.2	81.2	29.768	0.00	0.000	0.258	82.8	77	74.8	90.2	30
06/15/01	4:00 a	76.9	77.5	76.4	86	72.4	0.0	---	0.00	0.0	76.9	80.5	80.5	29.782	0.00	0.000	0.248	82.4	76	74.1	88.8	30
06/15/01	4:30 a	76.5	77.0	76.0	86	72.0	0.0	---	0.00	0.0	76.5	80.0	80.0	29.785	0.00	0.000	0.240	82.2	75	73.5	88.0	30
06/15/01	5:00 a	76.0	76.5	75.6	87	71.8	0.0	---	0.00	0.0	76.0	79.3	79.3	29.789	0.00	0.000	0.229	81.9	75	73.2	87.3	30
06/15/01	5:30 a	75.8	76.2	75.2	87	71.7	0.0	---	0.00	0.0	75.8	79.1	79.1	29.809	0.00	0.000	0.225	81.6	74	72.5	86.4	30
06/15/01	6:00 a	75.5	75.8	75.1	88	71.7	0.0	---	0.00	0.0	75.5	78.8	78.8	29.822	0.00	0.000	0.219	81.3	74	72.2	85.8	30
06/15/01	6:30 a	75.9	76.6	75.2	89	72.4	0.0	---	0.00	0.0	75.9	79.3	79.3	29.828	0.00	0.000	0.227	81.2	74	72.1	85.6	30
06/15/01	7:00 a	77.0	77.8	76.1	89	73.5	0.0	E	0.00	2.0	77.0	80.9	80.9	29.840	0.00	0.000	0.250	81.2	74	72.1	85.6	30
06/15/01	7:30 a	78.4	79.3	77.4	86	73.9	1.0	SSW	0.50	4.0	78.4	82.9	82.9	29.849	0.00	0.000	0.279	81.5	75	72.8	86.4	30
06/15/01	8:00 a	79.7	80.5	78.7	83	74.1	1.0	SSW	0.50	4.0	79.7	84.6	84.6	29.859	0.00	0.000	0.306	82.1	78	74.6	88.6	30
06/15/01	8:30 a	81.1	82.4	80.2	76	72.8	1.0	WSW	0.50	5.0	81.1	85.8	85.8	29.865	0.00	0.000	0.335	83.3	80	76.5	92.5	30
06/15/01	9:00 a	83.7	85.1	82.0	70	72.9	2.0	SSW	1.00	8.0	83.7	90.1	90.1	29.863	0.00	0.000	0.390	84.7	80	77.8	95.8	30
06/15/01	9:30 a	86.5	88.0	85.0	65	73.3	2.0	SSW	1.00	7.0	86.5	94.5	94.5	29.855	0.00	0.000	0.448	86.4	77	78.3	98.9	30
06/15/01	10:00 a	89.0	90.7	87.7	60	73.3	2.0	SW	1.00	7.0	89.0	97.3	97.3	29.859	0.00	0.000	0.500	87.9	74	78.6	100.7	30
06/15/01	10:30 a	91.5	92.8	90.2	55	73.1	2.0	SW	1.00	10.0	91.5	100.9	100.9	29.861	0.00	0.000	0.552	89.4	71	78.8	104.4	30
06/15/01	11:00 a	92.2	93.6	91.2	64	78.3	2.0	ENE	1.00	9.0	92.2	108.5	108.5	29.851	0.00	0.000	0.567	90.9	70	79.8	108.7	30
06/15/01	11:30 a	92.4	93.4	91.2	61	77.0	3.0	ENE	1.50	13.0	92.4	106.8	106.8	29.842	0.00	0.000	0.571	91.9	70	80.7	112.0	30
06/15/01	12:00 p	92.2	93.6	91.2	60	76.3	3.0	NE	1.50	12.0	92.2	105.5	105.5	29.837	0.00	0.000	0.567	92.8	68	80.7	113.4	30
06/15/01	12:30 p	92.6	93.4	91.8	60	76.7	4.0	NE	2.00	11.0	92.6	106.6	106.6	29.837	0.00	0.000	0.575	93.5	67	80.9	115.0	30
06/15/01	1:00 p	93.8	95.0	92.8	56	75.7	4.0	E	2.00	17.0	93.8	107.4	107.4	29.824	0.00	0.000	0.600	94.3	66	81.2	116.9	30
06/15/01	1:30 p	95.5	96.6	94.5	55	76.8	5.0	ESE	2.50	15.0	95.5	111.4	111.4	29.825	0.00	0.000	0.635	95.2	64	81.1	118.2	30
06/15/01	2:00 p	93.4	96.6	90.1	51	72.6	7.0	S	3.50	19.0	93.4	102.8	102.8	29.828	0.00	0.000	0.592	95.0	59	78.4	113.0	30
06/15/01	2:30 p	87.5	89.5	86.3	67	75.2	4.0	SSW	2.00	13.0	87.5	97.0	97.0	29.792	0.01	0.000	0.469	92.4	60	76.5	106.0	30
06/15/01	3:00 p	87.9	90.9	85.9	63	73.7	3.0	SE	1.50	10.0	87.9	95.9	95.9	29.790	0.00	0.000	0.477	90.8	64	76.9	104.4	30
06/15/01	3:30 p	92.1	92.8	90.6	61	76.7	6.0	ESE	3.00	18.0	92.1	105.9	105.9	29.781	0.00	0.000	0.565	91.5	66	78.5	107.8	30
06/15/01	4:00 p	93.5	94.9	92.4	58	76.5	6.0	ESE	3.00	18.0	93.5	107.9	107.9	29.769	0.00	0.000	0.594	92.9	65	79.4	111.4	30
06/15/01	4:30 p	94.8	95.3	94.2	58	77.7	6.0	ESE	3.00	17.0	94.8	111.7	111.7	29.769	0.00	0.000	0.621	93.3	65	79.8	112.7	30
06/15/01	5:00 p	92.9	94.7	91.0	64	78.9	4.0	ESE	2.00	12.0	92.9	110.6	110.6	29.766	0.00	0.000	0.581	91.8	67	79.3	109.5	30
06/15/01	5:30 p	90.1	91.2	89.3	68	78.1	4.0	ESE	2.00	15.0	90.1	104.9	104.9	29.771	0.00	0.000	0.523	90.3	71	79.6	107.5	30
06/15/01	6:00 p	88.7	89.8	87.7	71	78.1	3.0	SE	1.50	12.0	88.7	101.9	101.9	29.799	0.00	0.000	0.494	89.5	71	78.8	104.7	30
06/15/01	6:30 p	87.1	88.1	84.4	59	71.0	3.0	SSE	1.50	22.0	87.1	93.4	93.4	29.846	0.00	0.000	0.460	89.6	67	77.2	102.7	30
06/15/01	7:00 p	80.6	84.7	78.3	68	69.1	6.0	WSW	3.00	21.0	80.6	83.4	83.4	29.840	0.00	0.000	0.325	87.6	59	71.5	94.0	30
06/15/01	7:30 p	77.7	78.7	77.0	69	66.7	5.0	SW	2.50	14.0	77.7	79.5	79.5	29.851	0.00	0.000	0.265	86.3	60	70.8	92.1	30
06/15/01	8:00 p	77.1	77.7	76.5	72	67.4	3.0	NW	1.50	12.0	77.1	79.3	79.3	29.862	0.00	0.000	0.252	85.5	61	70.5	90.8	30
06/15/01	8:30 p	76.7	77.1	76.3	72	67.0	1.0	SW	0.50	5.0	76.7	78.8	78.8	29.846	0.00	0.000	0.244	85.1	61	70.1	90.0	30
06/15/01	9:00 p	76.4	76.8	76.0	71	66.3	1.0	SW	0.50	4.0	76.4	78.4	78.4	29.820	0.00	0.000	0.238	84.2	62	69.8	88.7	30
06/15/01	9:30 p	76.3	76.7	75.9	71	66.2	1.0	SW	0.50	5.0	76.3	78.3	78.3	29.790	0.00	0.000	0.235	83.5	62	69.1	87.2	30
06/15/01	10:00 p	76.4	76.9	75.9	71	66.3	0.0	ESE	0.00	3.0	76.4	78.4	78.4	29.793	0.00	0.000	0.238	83.0	63	69.1	86.4	30
06/15/01	10:30 p	76.1	76.9	75.1	72	66.4	2.0	WSW	1.00	8.0	76.1	78.2	78.2	29.830	0.00	0.000	0.231	82.7	63	68.8	85.9	30
06/15/01	11:00 p	75.5	75.9	75.1	72	65.8	2.0	SW	1.00	7.0	75.5	77.4	77.4	29.844	0.00	0.000	0.219	82.2	63	68.3	85.1	30
06/15/01	11:30 p	75.6	75.9	75.0	71	65.5	1.0	SSW	0.50	6.0	75.6	77.5	77.5	29.847	0.00	0.000	0.221	82.0	63	68.2	84.8	30
06/16/01	12:00 a	75.5	75.9	75.1	72	65.8	0.0	SSW	0.00	4.0	75.5	77.4	77.4	29.825	0.00	0.000	0.219	81.8	63	68.0	84.5	30
06/16/01	12:30 a	75.3	75.8	74.8	72	65.6	0.0	SSW	0.00	2.0	75.3	77.2	77.2	29.828	0.00	0.000	0.215	81.5	63	67.7	84.0	30
06/16/01	1:00 a	75.2	75.6	74.8	73	65.9	0.0	---	0.00	0.0	75.2	77.2	77.2	29.819	0.00	0.000	0.212	81.3	64	68.0	83.8	30
06/16/01	1:30 a	74.9	75.4	74.6	75	66.4	0.0	---	0.00	0.0	74.9	77.0	77.0	29.817	0.00	0.000	0.206	81.1	63	67.3	83.3	30
06/16/01	2:00 a	74.8	75.2	74.3	76	66.7	0.0	---	0.00	0.0	74.8	76.9	76.9	29.809	0.00	0.000	0.204	80.9	64	67.6	83.2	30
06/16/01	2:30 a	74.3	74.9	73.7	78	67.0	0.0	---	0.00	0.0	74.3	76.4	76.4	29.808	0.00	0.000	0.194	80.6	64	67.3	82.7	30
06/16/01	3:00 a	73.6	74.3	72.9	79	66.7	0.0	SSW	0.00	2.0	73.6	75.5	75.5	29.807	0.00	0.000	0.179	80.2	64	66.9	82.2	30
06/16/01	3:30 a	73.1	73.6	72.7	79	66.2	0.0	SSW	0.00	2.0	73.1	74.9	74.9	29.812	0.00	0.000	0.169	79.7	65	66.9	81.6	30
06/16/01	4:00 a	73.0	73.4	72.6	81	66.8	0.0	SSW	0.00	3.0	73.0	74.9	74.9	29.811	0.00	0.000	0.167	79.4	66	67.0	81.3	30
06/16/01	4:30 a	72.8	73.1	72.3	83	67.3	0.0	SSW	0.00	2.0	72.8	74.7	74.7	29.814	0.00	0.000	0.163	79.1	67	67.2	81.1	30
06/16/01	5:00 a	72.5	72.9	72.0	84	67.4	0.0	SSW	0.00	1.0	72.5	74.4	74.4	29.830	0.00	0.000	0.156	78.8	67	66.9	80.7	30
06/16/01	5:30 a	72.2	72.6	71.8	86	67.8	0.0	---	0.00	0.0	72.2	74.1	74.1	29.837	0.00	0.000	0.150	78.6	67	66.7	80.4	30
06/16/01	6:00 a	72.0	72.4	71.6	85	67.2	0.0	---	0.00	0.0	72.0	73.8	73.8	29.845	0.00	0.000	0.146	78.4	67	66.5	80.2	30
06/16/01	6:30 a	72.2	72.8	71.6	83	66.7	0.0	SSW	0.00	2.0	72.2	73.9	73.9	29.855	0.00	0.000	0.150	78.3	67	66.4	80.0	30
06/16/01	7:00 a	72.9	73.7	72.2	82	67.1	0.0	NW	0.00	4.0	72.9	74.8	74.8	29.865	0.00	0.000	0.165	78.3	68	66.9	80.2	30
06/16/01	7:30 a	74.1	75.0	73.3	82	68.3	1.0	W	0.50	4.0	74.1	76.2	76.2	29.859	0.00	0.000	0.190	78.7	70	68.1	80.9	30
06/16/01	8:00 a	75.6	76.9	74.6	82	69.7	1.0	WNW	0.50	3.0	75.6	78.5	78.5	29.860	0.00	0.000	0.221	79.6	74	70.6	82.8	30
06/16/01	8:30 a	77.9	79.5	76.3	80	71.2	2.0	WSW	1.00	6.0	77.9	81.3	81.3	29.856	0.00	0.000	0.269	81.1	75	72.4	85.6	30
06/16/01	9:00 a	81.1	83.0	79.1	74	72.0	2.0	SW	1.00	7.0	81.1	85.4	85.4	29.846	0.00	0.000	0.335	82.9	75	74.2	89.8	30
06/16/01	9:30 a	84.2	86.4	82.5	64	70.7	3.0	SW	1.50	8.0	84.2	89.3	89.3	29.843	0.00	0.000	0.400	84.8	74	75.6	93.9	30
06/16/01	10:00 a	86.9	87.7	85.8	63	72.8	2.0	SW	1.00	7.0	86.9	94.6	94.6	29.841	0.00	0.000	0.456	86.4	71	75.9	96.6	30
06/16/01	10:30 a	88.3	89.6	86.6	59	72.2	2.0	SW	1.00	6.0	88.3	95.3	95.3	29.834	0.00	0.000	0.485	87.5	69	76.1	97.8	30
06/16/01	11:00 a	89.8	91.0	88.9	54	70.9	2.0	WSW	1.00	8.0	89.8	96.6	96.6	29.830	0.00	0.000	0.517	88.5	65	75.2	98.2	30
06/16/01	11:30 a	92.0	93.1	90.6	54	73.0	2.0	NW	1.00	8.0	92.0	101.5	101.5	29.821	0.00	0.000	0.563	89.9	63	75.6	101.3	30
06/16/01	12:00 p	94.0	95.0	92.8	49	71.9	3.0	NW	1.50	10.0	94.0	102.9	102.9	29.814	0.00	0.000	0.604	91.3	60	75.5	103.1	30
06/16/01	12:30 p	96.0	97.7	94.3	47	72.5	2.0	SW	1.00	8.0	96.0	106.3	106.3	29.802	0.00	0.000	0.646	92.6	60	76.7	106.6	30
06/16/01	1:00 p	93.9	97.6	91.1	55	75.3	3.0	NE	1.50	9.0	93.9	106.9	106.9	29.791	0.00	0.000	0.602	93.9	61	78.4	111.2	30
06/16/01	1:30 p	94.9	96.6	92.9	54	75.7	4.0	ENE	2.00	10.0	94.9	108.9	108.9	29.781	0.00	0.000	0.623	94.8	61	79.2	114.1	30
06/16/01	2:00 p	94.1	95.5	93.2	56	76.0	3.0	ENE	1.50	14.0	94.1	108.2	108.2	29.765	0.00	0.000	0.606	95.5	59	78.9	114.7	30
06/16/01	2:30 p	93.3	94.4	92.3	58	76.3	4.0	ENE	2.00	11.0	93.3	107.3	107.3	29.756	0.00	0.000	0.590	96.1	59	79.4	116.6	30
06/16/01	3:00 p	91.9	92.9	90.1	63	77.5	4.0	ENE	2.00	11.0	91.9	106.8	106.8	29.752	0.00	0.000	0.560	96.3	59	79.6	117.3	30
06/16/01	3:30 p	89.4	90.4	88.6	63	75.1	3.0	ENE	1.50	14.0	89.4	99.8	99.8	29.751	0.00	0.000	0.508	95.4	60	79.3	115.1	30
06/16/01	4:00 p	91.9	93.2	89.6	59	75.5	6.0	ESE	3.00	14.0	91.9	104.1	104.1	29.741	0.00	0.000	0.560	94.7	60	78.7	112.9	30
06/16/01	4:30 p	93.3	94.9	92.1	55	74.7	5.0	ESE	2.50	16.0	93.3	105.4	105.4	29.734	0.00	0.000	0.590	95.0	60	78.9	113.8	30
06/16/01	5:00 p	94.5	95.3	93.6	55	75.8	6.0	SE	3.00	15.0	94.5	108.6	108.6	29.736	0.00	0.000	0.615	95.7	59	79.1	115.3	30
06/16/01	5:30 p	93.7	94.4	93.0	54	74.5	5.0	SE	2.50	16.0	93.7	105.7	105.7	29.737	0.00	0.000	0.598	95.3	57	77.7	112.4	30
06/16/01	6:00 p	91.4	93.5	89.5	55	73.0	5.0	S	2.50	15.0	91.4	100.7	100.7	29.743	0.00	0.000	0.550	94.4	56	76.3	109.0	30
06/16/01	6:30 p	89.1	90.0	88.0	54	70.3	5.0	SSW	2.50	15.0	89.1	95.2	95.2	29.752	0.00	0.000	0.502	92.9	54	73.8	103.7	30
06/16/01	7:00 p	86.8	88.2	85.5	58	70.2	3.0	SSW	1.50	9.0	86.8	92.5	92.5	29.755	0.00	0.000	0.454	90.9	55	72.5	99.5	30
06/16/01	7:30 p	84.8	86.1	83.7	61	69.9	2.0	SW	1.00	6.0	84.8	89.4	89.4	29.777	0.00	0.000	0.413	89.3	57	72.1	96.8	30
06/16/01	8:00 p	82.7	84.1	81.6	64	69.3	3.0	SW	1.50	7.0	82.7	86.2	86.2	29.777	0.00	0.000	0.369	88.1	58	71.5	94.4	30
06/16/01	8:30 p	81.0	82.0	80.0	68	69.4	2.0	SW	1.00	7.0	81.0	84.0	84.0	29.787	0.00	0.000	0.333	87.3	59	71.2	93.6	30
06/16/01	9:00 p	79.7	80.5	78.9	70	69.0	1.0	SW	0.50	8.0	79.7	82.3	82.3	29.801	0.00	0.000	0.306	86.5	60	71.0	92.6	30
06/16/01	9:30 p	78.8	79.5	78.1	72	69.0	0.0	SW	0.00	4.0	78.8	81.3	81.3	29.812	0.00	0.000	0.288	85.6	61	70.6	91.0	30
06/16/01	10:00 p	78.2	78.7	77.8	74	69.2	0.0	WSW	0.00	2.0	78.2	80.8	80.8	29.814	0.00	0.000	0.275	84.9	63	70.9	90.2	30
06/16/01	10:30 p	77.5	78.1	77.1	74	68.6	0.0	WSW	0.00	3.0	77.5	79.9	79.9	29.801	0.00	0.000	0.260	84.4	63	70.4	89.3	30
06/16/01	11:00 p	76.5	77.4	75.7	77	68.7	1.0	NNW	0.50	6.0	76.5	79.1	79.1	29.814	0.00	0.000	0.240	83.8	64	70.3	88.5	30
06/16/01	11:30 p	76.1	76.5	75.8	77	68.4	0.0	---	0.00	0.0	76.1	78.7	78.7	29.821	0.00	0.000	0.231	83.3	65	70.3	87.6	30
06/17/01	12:00 a	75.9	76.3	75.5	77	68.2	0.0	---	0.00	0.0	75.9	78.5	78.5	29.809	0.00	0.000	0.227	82.7	66	70.2	86.7	30
06/17/01	12:30 a	75.3	75.8	74.8	78	68.0	0.0	---	0.00	0.0	75.3	77.7	77.7	29.801	0.00	0.000	0.215	82.2	66	69.7	85.8	30
06/17/01	1:00 a	74.9	75.4	74.4	79	67.9	0.0	---	0.00	0.0	74.9	77.3	77.3	29.794	0.00	0.000	0.206	81.7	67	69.7	85.1	30
06/17/01	1:30 a	74.5	74.9	74.1	80	67.9	0.0	---	0.00	0.0	74.5	76.8	76.8	29.782	0.00	0.000	0.198	81.2	67	69.2	84.2	30
06/17/01	2:00 a	74.4	74.7	74.1	79	67.5	0.0	---	0.00	0.0	74.4	76.6	76.6	29.776	0.00	0.000	0.196	80.8	68	69.2	83.7	30
06/17/01	2:30 a	74.3	74.7	74.0	79	67.4	0.0	---	0.00	0.0	74.3	76.4	76.4	29.774	0.00	0.000	0.194	80.6	68	69.1	83.4	30
06/17/01	3:00 a	74.1	74.5	73.7	80	67.5	0.0	---	0.00	0.0	74.1	76.1	76.1	29.771	0.00	0.000	0.190	80.2	69	69.1	82.9	30
06/17/01	3:30 a	73.7	74.3	73.2	80	67.1	0.0	---	0.00	0.0	73.7	75.6	75.6	29.767	0.00	0.000	0.181	79.9	69	68.8	82.4	30
06/17/01	4:00 a	73.2	73.7	72.8	81	67.0	0.0	---	0.00	0.0	73.2	75.1	75.1	29.768	0.00	0.000	0.171	79.5	69	68.4	81.9	30
06/17/01	4:30 a	72.8	73.3	72.2	81	66.6	0.0	---	0.00	0.0	72.8	74.6	74.6	29.770	0.00	0.000	0.163	79.0	70	68.4	81.3	30
06/17/01	5:00 a	72.4	72.8	71.8	82	66.6	0.0	---	0.00	0.0	72.4	74.1	74.1	29.778	0.00	0.000	0.154	78.6	71	68.4	80.9	30
06/17/01	5:30 a	72.0	72.4	71.6	83	66.6	0.0	---	0.00	0.0	72.0	73.6	73.6	29.786	0.00	0.000	0.146	78.3	71	68.1	80.5	30
06/17/01	6:00 a	71.9	72.3	71.5	84	66.8	0.0	---	0.00	0.0	71.9	73.6	73.6	29.790	0.00	0.000	0.144	78.1	70	67.5	80.1	30
06/17/01	6:30 a	72.3	72.9	71.7	84	67.2	0.0	NNW	0.00	2.0	72.3	74.1	74.1	29.804	0.00	0.000	0.152	78.0	70	67.4	80.0	30
06/17/01	7:00 a	73.1	74.1	72.4	84	68.0	0.0	SSW	0.00	2.0	73.1	75.2	75.2	29.815	0.00	0.000	0.169	78.2	71	68.0	80.4	30
06/17/01	7:30 a	74.6	75.6	73.7	82	68.7	1.0	W	0.50	4.0	74.6	77.1	77.1	29.818	0.00	0.000	0.200	78.5	72	68.7	80.9	30
06/17/01	8:00 a	76.1	77.1	75.2	80	69.5	1.0	WSW	0.50	5.0	76.1	79.0	79.0	29.818	0.00	0.000	0.231	79.2	73	69.8	82.0	30
06/17/01	8:30 a	77.8	79.3	76.5	76	69.6	1.0	NNW	0.50	4.0	77.8	80.5	80.5	29.821	0.00	0.000	0.267	80.4	75	71.7	84.3	30
06/17/01	9:00 a	80.6	82.6	78.9	71	70.3	1.0	NW	0.50	5.0	80.6	83.9	83.9	29.812	0.00	0.000	0.325	82.0	75	73.3	87.5	30
06/17/01	9:30 a	83.8	85.1	82.1	67	71.7	1.0	NNW	0.50	5.0	83.8	89.4	89.4	29.812	0.00	0.000	0.392	83.8	75	75.0	92.2	30
06/17/01	10:00 a	86.5	88.0	84.7	62	71.9	1.0	NNW	0.50	6.0	86.5	93.3	93.3	29.807	0.00	0.000	0.448	85.4	73	75.8	94.9	30
06/17/01	10:30 a	88.6	89.4	87.7	57	71.4	3.0	NE	1.50	10.0	88.6	95.2	95.2	29.810	0.00	0.000	0.492	87.1	70	76.1	97.6	30
06/17/01	11:00 a	89.1	89.8	88.5	48	66.9	3.0	NNE	1.50	9.0	89.1	93.1	93.1	29.808	0.00	0.000	0.502	88.8	61	73.6	97.3	30
06/17/01	11:30 a	89.4	89.8	88.8	47	66.5	4.0	NE	2.00	10.0	89.4	93.2	93.2	29.802	0.00	0.000	0.508	90.5	58	73.7	100.1	30
06/17/01	12:00 p	90.3	91.7	89.2	45	66.1	4.0	ENE	2.00	13.0	90.3	93.8	93.8	29.788	0.00	0.000	0.527	91.6	55	73.1	101.1	30
06/17/01	12:30 p	91.7	92.7	91.1	46	68.0	3.0	NE	1.50	12.0	91.7	96.8	96.8	29.787	0.00	0.000	0.556	92.7	55	74.2	103.8	30
06/17/01	1:00 p	92.0	93.0	91.4	49	70.1	4.0	ENE	2.00	12.0	92.0	98.7	98.7	29.773	0.00	0.000	0.563	93.8	54	74.6	105.9	30
06/17/01	1:30 p	92.9	93.7	92.0	52	72.7	4.0	NE	2.00	12.0	92.9	102.3	102.3	29.758	0.00	0.000	0.581	94.6	55	75.9	108.9	30
06/17/01	2:00 p	94.3	95.5	92.5	48	71.6	5.0	E	2.50	15.0	94.3	103.0	103.0	29.742	0.00	0.000	0.610	95.4	55	76.7	111.2	30
06/17/01	2:30 p	93.7	95.0	92.9	54	74.5	5.0	ENE	2.50	13.0	93.7	105.7	105.7	29.731	0.00	0.000	0.598	95.8	56	77.6	113.1	30
06/17/01	3:00 p	93.8	94.5	93.0	52	73.5	5.0	ENE	2.50	14.0	93.8	104.4	104.4	29.731	0.00	0.000	0.600	96.1	55	77.3	113.2	30
06/17/01	3:30 p	94.3	95.1	93.1	53	74.5	6.0	ENE	3.00	18.0	94.3	106.5	106.5	29.717	0.00	0.000	0.610	96.1	55	77.3	113.2	30
06/17/01	4:00 p	95.5	96.6	94.2	48	72.7	6.0	ESE	3.00	17.0	95.5	105.7	105.7	29.710	0.00	0.000	0.635	96.2	55	77.4	113.5	30
06/17/01	4:30 p	96.1	96.7	95.6	48	73.2	6.0	ESE	3.00	17.0	96.1	107.1	107.1	29.708	0.00	0.000	0.648	96.1	55	77.3	113.2	30
06/17/01	5:00 p	96.0	96.5	95.1	50	74.4	5.0	SE	2.50	15.0	96.0	108.1	108.1	29.703	0.00	0.000	0.646	96.2	54	76.9	112.5	30
06/17/01	5:30 p	94.6	95.8	93.6	53	74.8	5.0	SE	2.50	15.0	94.6	107.2	107.2	29.713	0.00	0.000	0.617	95.6	55	76.9	111.7	30
06/17/01	6:00 p	93.1	94.2	92.2	54	74.0	4.0	SE	2.00	13.0	93.1	104.2	104.2	29.725	0.00	0.000	0.585	95.2	55	76.5	110.6	30
06/17/01	6:30 p	91.5	92.7	89.8	57	74.1	4.0	SE	2.00	13.0	91.5	102.0	102.0	29.731	0.00	0.000	0.552	94.3	55	75.6	108.0	30
06/17/01	7:00 p	88.5	90.0	87.3	59	72.3	3.0	SE	1.50	10.0	88.5	95.7	95.7	29.754	0.00	0.000	0.490	92.6	56	74.6	104.2	30
06/17/01	7:30 p	86.5	87.6	85.4	64	72.9	2.0	SE	1.00	7.0	86.5	94.1	94.1	29.760	0.00	0.000	0.448	91.2	57	73.8	101.2	30
06/17/01	8:00 p	84.6	85.7	83.5	62	70.1	3.0	SE	1.50	13.0	84.6	89.4	89.4	29.799	0.00	0.000	0.408	90.0	58	73.2	98.8	30
06/17/01	8:30 p	82.6	84.0	81.7	52	63.2	2.0	NW	1.00	10.0	82.6	83.9	83.9	29.814	0.00	0.000	0.367	88.8	52	68.9	93.9	30
06/17/01	9:00 p	80.9	82.0	79.8	56	63.7	2.0	NW	1.00	8.0	80.9	81.9	81.9	29.810	0.00	0.000	0.331	87.7	51	67.3	91.3	30
06/17/01	9:30 p	79.2	80.1	78.1	66	66.9	1.0	NNW	0.50	6.0	79.2	81.1	81.1	29.800	0.00	0.000	0.296	86.8	55	68.7	91.4	30
06/17/01	10:00 p	77.8	78.4	77.3	70	67.2	0.0	N	0.00	4.0	77.8	79.8	79.8	29.809	0.00	0.000	0.267	85.9	57	68.9	90.2	30
06/17/01	10:30 p	77.8	78.2	77.5	70	67.2	0.0	W	0.00	3.0	77.8	79.8	79.8	29.811	0.00	0.000	0.267	85.3	59	69.3	89.7	30
06/17/01	11:00 p	77.3	78.0	76.6	73	68.0	0.0	W	0.00	1.0	77.3	79.6	79.6	29.802	0.00	0.000	0.256	84.6	60	69.2	88.7	30
06/17/01	11:30 p	76.7	77.2	76.2	74	67.8	0.0	---	0.00	1.0	76.7	79.0	79.0	29.788	0.00	0.000	0.244	84.0	61	69.1	88.0	30
06/18/01	12:00 a	75.7	76.7	74.9	77	68.0	1.0	WSW	0.50	7.0	75.7	78.2	78.2	29.798	0.00	0.000	0.223	83.4	62	69.0	87.0	30
06/18/01	12:30 a	75.0	75.5	74.5	78	67.7	0.0	WNW	0.00	3.0	75.0	77.3	77.3	29.799	0.00	0.000	0.208	82.7	63	68.8	85.9	30
06/18/01	1:00 a	74.4	75.1	73.8	81	68.2	0.0	NNW	0.00	4.0	74.4	76.7	76.7	29.797	0.00	0.000	0.196	82.1	64	68.7	85.2	30
06/18/01	1:30 a	74.0	74.4	73.6	81	67.8	0.0	NW	0.00	4.0	74.0	76.0	76.0	29.788	0.00	0.000	0.188	81.9	63	68.1	84.6	30
06/18/01	2:00 a	74.0	74.4	73.6	82	68.2	0.0	---	0.00	0.0	74.0	76.1	76.1	29.786	0.00	0.000	0.188	81.6	63	67.8	84.2	30
06/18/01	2:30 a	73.8	74.1	73.4	82	68.0	0.0	---	0.00	0.0	73.8	75.8	75.8	29.782	0.00	0.000	0.183	81.4	63	67.6	83.8	30
06/18/01	3:00 a	73.4	73.9	72.9	82	67.6	0.0	---	0.00	0.0	73.4	75.4	75.4	29.784	0.00	0.000	0.175	81.0	63	67.2	83.2	30
06/18/01	3:30 a	73.0	73.4	72.6	83	67.5	0.0	---	0.00	0.0	73.0	75.0	75.0	29.784	0.00	0.000	0.167	80.6	63	66.8	82.6	30
06/18/01	4:00 a	72.8	73.1	72.4	83	67.3	0.0	---	0.00	0.0	72.8	74.7	74.7	29.779	0.00	0.000	0.163	80.3	62	66.1	82.0	30
06/18/01	4:30 a	72.5	72.9	72.1	84	67.4	0.0	---	0.00	0.0	72.5	74.4	74.4	29.786	0.00	0.000	0.156	80.0	63	66.3	81.7	30
06/18/01	5:00 a	72.2	72.7	71.7	85	67.4	0.0	---	0.00	0.0	72.2	74.1	74.1	29.790	0.00	0.000	0.150	79.7	63	66.0	81.3	30
06/18/01	5:30 a	71.9	72.3	71.5	85	67.1	0.0	---	0.00	0.0	71.9	73.7	73.7	29.796	0.00	0.000	0.144	79.3	64	66.1	81.0	30
06/18/01	6:00 a	71.7	72.1	71.3	85	66.9	0.0	---	0.00	0.0	71.7	73.5	73.5	29.811	0.00	0.000	0.140	79.1	64	65.9	80.7	30
06/18/01	6:30 a	72.1	72.8	71.6	85	67.3	0.0	---	0.00	0.0	72.1	73.9	73.9	29.823	0.00	0.000	0.148	78.9	65	66.1	80.6	30
06/18/01	7:00 a	73.0	73.8	72.2	83	67.5	0.0	NNW	0.00	2.0	73.0	75.0	75.0	29.830	0.00	0.000	0.167	78.9	66	66.6	80.7	30
06/18/01	7:30 a	74.2	75.1	73.3	84	69.1	0.0	NNW	0.00	2.0	74.2	76.5	76.5	29.837	0.00	0.000	0.192	79.1	67	67.2	81.1	30
06/18/01	8:00 a	75.9	77.1	74.8	83	70.4	1.0	NNW	0.50	3.0	75.9	79.0	79.0	29.839	0.00	0.000	0.227	79.7	68	68.2	82.0	30
06/18/01	8:30 a	77.8	79.2	76.6	77	70.0	0.0	SW	0.00	4.0	77.8	80.7	80.7	29.841	0.00	0.000	0.267	80.9	70	70.2	84.2	30
06/18/01	9:00 a	80.4	82.3	78.8	72	70.5	2.0	SW	1.00	5.0	80.4	83.8	83.8	29.844	0.00	0.000	0.321	82.5	72	72.6	87.9	30
06/18/01	9:30 a	83.8	85.6	82.1	67	71.7	2.0	SSW	1.00	6.0	83.8	89.4	89.4	29.841	0.00	0.000	0.392	84.2	72	74.2	92.0	30
06/18/01	10:00 a	86.8	88.5	85.2	63	72.7	2.0	SW	1.00	7.0	86.8	94.4	94.4	29.842	0.00	0.000	0.454	85.8	70	74.9	94.8	30
06/18/01	10:30 a	88.6	89.5	87.8	66	75.8	2.0	NE	1.00	7.0	88.6	99.0	99.0	29.840	0.00	0.000	0.492	87.4	70	76.4	98.1	30
06/18/01	11:00 a	89.0	89.8	88.1	64	75.2	3.0	ENE	1.50	9.0	89.0	99.1	99.1	29.834	0.00	0.000	0.500	88.9	69	77.4	101.4	30
06/18/01	11:30 a	91.0	92.0	89.7	59	74.7	3.0	E	1.50	12.0	91.0	101.8	101.8	29.827	0.00	0.000	0.542	90.1	67	77.7	104.3	30
06/18/01	12:00 p	92.1	93.0	91.4	55	73.6	3.0	ENE	1.50	10.0	92.1	102.3	102.3	29.820	0.00	0.000	0.565	91.3	64	77.4	105.8	30
06/18/01	12:30 p	93.4	94.3	92.8	54	74.3	5.0	E	2.50	15.0	93.4	104.9	104.9	29.811	0.00	0.000	0.592	92.4	62	77.5	107.5	30
06/18/01	1:00 p	94.0	94.7	93.5	49	71.9	5.0	E	2.50	17.0	94.0	102.9	102.9	29.800	0.00	0.000	0.604	93.4	60	77.4	108.9	30
06/18/01	1:30 p	94.5	95.8	93.7	47	71.2	6.0	E	3.00	17.0	94.5	102.9	102.9	29.793	0.00	0.000	0.615	94.0	57	76.4	108.6	30
06/18/01	2:00 p	92.0	94.6	90.3	57	74.6	5.0	ESE	2.50	12.0	92.0	103.2	103.2	29.791	0.00	0.000	0.563	94.0	58	77.0	109.3	30
06/18/01	2:30 p	89.6	90.8	88.7	60	73.9	3.0	ESE	1.50	12.0	89.6	98.8	98.8	29.786	0.00	0.000	0.512	92.5	58	75.6	105.1	30
06/18/01	3:00 p	88.7	89.2	88.2	59	72.5	3.0	ESE	1.50	11.0	88.7	96.2	96.2	29.776	0.00	0.000	0.494	91.5	59	75.1	103.1	30
06/18/01	3:30 p	88.9	89.4	88.1	59	72.7	4.0	ESE	2.00	16.0	88.9	96.7	96.7	29.773	0.00	0.000	0.498	91.1	60	75.3	102.6	30
06/18/01	4:00 p	88.3	88.8	87.7	59	72.2	4.0	ESE	2.00	12.0	88.3	95.3	95.3	29.783	0.00	0.000	0.485	90.8	59	74.5	101.3	30
06/18/01	4:30 p	87.7	88.3	87.1	62	73.1	3.0	ESE	1.50	8.0	87.7	95.3	95.3	29.785	0.00	0.000	0.473	90.3	60	74.5	100.6	30
06/18/01	5:00 p	87.3	87.7	86.9	63	73.2	3.0	ESE	1.50	10.0	87.3	95.2	95.2	29.787	0.00	0.000	0.465	89.9	61	74.6	100.1	30
06/18/01	5:30 p	87.2	87.5	86.8	64	73.5	4.0	SE	2.00	9.0	87.2	95.4	95.4	29.781	0.00	0.000	0.462	89.7	62	74.9	100.2	30
06/18/01	6:00 p	87.3	88.0	86.7	64	73.6	4.0	SE	2.00	15.0	87.3	95.6	95.6	29.788	0.00	0.000	0.465	89.8	63	75.5	101.0	30
06/18/01	6:30 p	87.6	88.0	87.0	65	74.4	4.0	SE	2.00	10.0	87.6	96.3	96.3	29.787	0.00	0.000	0.471	89.8	64	76.0	101.6	30
06/18/01	7:00 p	86.1	87.4	84.8	69	74.7	3.0	ESE	1.50	9.0	86.1	95.1	95.1	29.793	0.00	0.000	0.440	89.1	65	75.8	99.9	30
06/18/01	7:30 p	84.6	85.3	83.8	70	73.7	1.0	SE	0.50	7.0	84.6	92.1	92.1	29.818	0.00	0.000	0.408	88.3	66	75.5	98.1	30
06/18/01	8:00 p	83.7	84.3	82.9	72	73.7	0.0	---	0.00	1.0	83.7	90.9	90.9	29.832	0.00	0.000	0.390	87.6	67	75.3	97.2	30
06/18/01	8:30 p	82.2	83.2	81.4	74	73.1	0.0	---	0.00	0.0	82.2	87.8	87.8	29.837	0.00	0.000	0.358	86.8	69	75.4	96.7	30
06/18/01	9:00 p	81.3	82.0	80.7	76	73.0	0.0	---	0.00	0.0	81.3	86.3	86.3	29.845	0.00	0.000	0.340	86.1	70	75.2	95.5	30
06/18/01	9:30 p	80.5	81.1	79.8	78	73.0	0.0	---	0.00	0.0	80.5	85.1	85.1	29.862	0.00	0.000	0.323	85.5	71	75.0	94.4	30
06/18/01	10:00 p	79.8	80.4	79.3	79	72.7	0.0	---	0.00	0.0	79.8	84.0	84.0	29.870	0.00	0.000	0.308	85.0	72	75.0	93.6	30
06/18/01	10:30 p	79.4	79.8	78.9	80	72.7	0.0	---	0.00	0.0	79.4	83.5	83.5	29.876	0.00	0.000	0.300	84.6	73	75.0	93.1	30
06/18/01	11:00 p	79.1	79.5	78.6	82	73.1	0.0	---	0.00	0.0	79.1	83.3	83.3	29.875	0.00	0.000	0.294	84.2	74	75.0	92.7	30
06/18/01	11:30 p	78.3	79.1	77.7	83	72.7	0.0	SE	0.00	2.0	78.3	82.3	82.3	29.875	0.00	0.000	0.277	83.8	75	75.0	92.2	30
06/19/01	12:00 a	78.1	78.5	77.6	83	72.5	0.0	SE	0.00	3.0	78.1	82.0	82.0	29.877	0.00	0.000	0.273	83.5	75	74.7	91.4	30
06/19/01	12:30 a	77.8	78.4	77.3	84	72.6	1.0	NW	0.50	5.0	77.8	81.7	81.7	29.871	0.00	0.000	0.267	83.3	75	74.5	90.9	30
06/19/01	1:00 a	77.5	77.9	77.0	84	72.3	1.0	NNW	0.50	4.0	77.5	81.2	81.2	29.858	0.00	0.000	0.260	83.1	75	74.4	90.4	30
06/19/01	1:30 a	77.0	77.6	76.6	84	71.8	0.0	NNW	0.00	2.0	77.0	80.5	80.5	29.848	0.00	0.000	0.250	82.8	74	73.7	89.3	30
06/19/01	2:00 a	76.8	77.1	76.4	85	71.9	0.0	NNW	0.00	2.0	76.8	80.3	80.3	29.839	0.00	0.000	0.246	82.4	75	73.7	88.5	30
06/19/01	2:30 a	76.6	77.0	76.3	87	72.4	0.0	NNW	0.00	4.0	76.6	80.2	80.2	29.838	0.00	0.000	0.242	82.0	76	73.7	87.8	30
06/19/01	3:00 a	76.6	77.0	76.2	87	72.4	1.0	N	0.50	6.0	76.6	80.2	80.2	29.835	0.00	0.000	0.242	81.7	77	73.8	87.4	30
06/19/01	3:30 a	76.7	77.1	76.3	87	72.5	0.0	N	0.00	3.0	76.7	80.3	80.3	29.830	0.00	0.000	0.244	81.5	77	73.6	86.9	30
06/19/01	4:00 a	76.7	77.1	76.3	87	72.5	0.0	N	0.00	3.0	76.7	80.3	80.3	29.830	0.00	0.000	0.244	81.3	78	73.8	86.7	30
06/19/01	4:30 a	76.5	77.0	76.1	88	72.7	0.0	N	0.00	1.0	76.5	80.1	80.1	29.834	0.00	0.000	0.240	81.2	79	74.1	86.7	30
06/19/01	5:00 a	76.1	76.6	75.6	87	71.9	0.0	N	0.00	1.0	76.1	79.5	79.5	29.844	0.00	0.000	0.231	81.0	79	73.9	86.3	30
06/19/01	5:30 a	75.6	76.2	75.1	89	72.1	0.0	N	0.00	1.0	75.6	79.0	79.0	29.858	0.00	0.000	0.221	80.7	79	73.6	85.7	30
06/19/01	6:00 a	75.7	76.2	75.2	89	72.2	0.0	---	0.00	0.0	75.7	79.1	79.1	29.864	0.00	0.000	0.223	80.5	80	73.8	85.5	30
06/19/01	6:30 a	76.5	77.3	75.6	91	73.7	0.0	NE	0.00	1.0	76.5	80.3	80.3	29.878	0.00	0.000	0.240	80.6	82	74.6	86.2	30
06/19/01	7:00 a	77.2	78.0	76.6	91	74.4	0.0	---	0.00	0.0	77.2	81.5	81.5	29.884	0.00	0.000	0.254	80.8	84	75.5	87.1	30
06/19/01	7:30 a	78.3	79.3	77.3	89	74.8	0.0	NE	0.00	2.0	78.3	83.2	83.2	29.887	0.00	0.000	0.277	81.2	84	75.9	88.1	30
06/19/01	8:00 a	80.3	81.8	78.9	79	73.2	1.0	NE	0.50	8.0	80.3	84.9	84.9	29.891	0.00	0.000	0.319	82.0	84	76.7	90.1	30
06/19/01	8:30 a	82.1	83.1	81.0	74	73.0	3.0	NE	1.50	10.0	82.1	87.5	87.5	29.906	0.00	0.000	0.356	83.4	82	77.3	93.4	30
06/19/01	9:00 a	83.5	84.6	82.5	72	73.5	3.0	NE	1.50	8.0	83.5	90.4	90.4	29.910	0.00	0.000	0.385	85.0	80	78.1	96.4	30
06/19/01	9:30 a	85.4	86.6	83.9	69	74.1	3.0	ENE	1.50	9.0	85.4	93.5	93.5	29.908	0.00	0.000	0.425	86.5	77	78.4	99.2	30
06/19/01	10:00 a	86.7	87.9	85.9	67	74.4	3.0	ENE	1.50	8.0	86.7	95.7	95.7	29.910	0.00	0.000	0.452	88.1	75	79.2	101.8	30
06/19/01	10:30 a	87.7	88.5	86.9	65	74.5	3.0	NE	1.50	9.0	87.7	96.4	96.4	29.912	0.00	0.000	0.473	89.4	73	79.6	105.7	30
06/19/01	11:00 a	88.7	89.7	87.8	63	74.5	3.0	NE	1.50	10.0	88.7	97.9	97.9	29.912	0.00	0.000	0.494	90.6	71	79.9	108.5	30
06/19/01	11:30 a	88.9	89.7	88.1	64	75.1	4.0	NE	2.00	12.0	88.9	98.9	98.9	29.903	0.00	0.000	0.498	91.5	69	79.9	109.9	30
06/19/01	12:00 p	89.6	90.3	88.8	66	76.7	4.0	ENE	2.00	13.0	89.6	102.1	102.1	29.907	0.00	0.000	0.512	92.3	68	80.2	111.8	30
06/19/01	12:30 p	91.0	93.2	88.9	60	75.2	4.0	NE	2.00	12.0	91.0	102.3	102.3	29.894	0.00	0.000	0.542	93.1	67	80.5	113.6	30
06/19/01	1:00 p	91.4	93.6	90.2	62	76.5	5.0	ESE	2.50	15.0	91.4	104.7	104.7	29.893	0.00	0.000	0.550	94.1	65	80.5	115.3	30
06/19/01	1:30 p	90.6	92.1	89.3	63	76.3	4.0	E	2.00	13.0	90.6	103.2	103.2	29.889	0.00	0.000	0.533	93.8	63	79.3	112.6	30
06/19/01	2:00 p	89.0	89.9	88.2	65	75.7	4.0	ESE	2.00	12.0	89.0	99.6	99.6	29.878	0.00	0.000	0.500	92.9	63	78.4	109.8	30
06/19/01	2:30 p	88.0	88.8	87.3	66	75.2	3.0	ESE	1.50	11.0	88.0	97.2	97.2	29.870	0.00	0.000	0.479	91.9	63	77.5	106.8	30
06/19/01	3:00 p	87.3	87.9	86.5	66	74.5	3.0	ESE	1.50	9.0	87.3	96.4	96.4	29.862	0.00	0.000	0.465	91.2	63	76.8	104.8	30
06/19/01	3:30 p	86.7	87.2	86.0	66	74.0	4.0	ESE	2.00	13.0	86.7	95.3	95.3	29.853	0.00	0.000	0.452	90.7	63	76.4	103.5	30
06/19/01	4:00 p	86.1	87.2	85.4	69	74.7	3.0	E	1.50	10.0	86.1	95.1	95.1	29.850	0.00	0.000	0.440	90.3	65	76.9	103.6	30
06/19/01	4:30 p	85.2	86.0	84.7	70	74.3	1.0	ENE	0.50	6.0	85.2	93.4	93.4	29.859	0.00	0.000	0.421	89.9	66	77.0	103.1	30
06/19/01	5:00 p	85.5	86.3	84.7	68	73.7	1.0	E	0.50	6.0	85.5	93.4	93.4	29.847	0.00	0.000	0.427	89.6	66	76.7	102.1	30
06/19/01	5:30 p	85.7	86.1	85.1	68	73.9	2.0	ESE	1.00	8.0	85.7	93.8	93.8	29.837	0.00	0.000	0.431	89.5	65	76.2	101.2	30
06/19/01	6:00 p	85.6	86.1	85.1	68	73.8	2.0	ESE	1.00	8.0	85.6	93.6	93.6	29.851	0.00	0.000	0.429	89.5	66	76.6	101.8	30
06/19/01	6:30 p	85.5	86.1	85.0	70	74.6	2.0	ESE	1.00	6.0	85.5	94.1	94.1	29.860	0.00	0.000	0.427	89.3	67	76.9	101.7	30
06/19/01	7:00 p	84.9	86.0	83.7	72	74.9	2.0	ESE	1.00	7.0	84.9	93.4	93.4	29.859	0.00	0.000	0.415	88.8	67	76.4	100.1	30
06/19/01	7:30 p	82.9	84.0	81.9	75	74.2	0.0	ENE	0.00	3.0	82.9	89.8	89.8	29.865	0.00	0.000	0.373	87.9	68	76.0	98.0	30
06/19/01	8:00 p	81.7	82.2	81.1	77	73.8	1.0	ENE	0.50	5.0	81.7	87.4	87.4	29.875	0.00	0.000	0.348	87.0	69	75.6	97.1	30
06/19/01	8:30 p	81.0	81.7	80.3	79	73.9	0.0	E	0.00	2.0	81.0	86.3	86.3	29.873	0.00	0.000	0.333	86.3	70	75.4	96.0	30
06/19/01	9:00 p	80.4	80.8	80.0	79	73.3	1.0	E	0.50	8.0	80.4	85.1	85.1	29.879	0.00	0.000	0.321	85.7	70	74.8	94.6	30
06/19/01	9:30 p	80.3	80.6	79.8	80	73.6	0.0	E	0.00	2.0	80.3	85.1	85.1	29.892	0.00	0.000	0.319	85.3	71	74.8	94.0	30
06/19/01	10:00 p	79.9	80.4	79.6	81	73.5	0.0	E	0.00	3.0	79.9	84.5	84.5	29.902	0.00	0.000	0.310	84.9	72	74.9	93.4	30
06/19/01	10:30 p	79.7	80.1	79.4	82	73.7	1.0	E	0.50	4.0	79.7	84.4	84.4	29.911	0.00	0.000	0.306	84.6	73	75.0	93.1	30
06/19/01	11:00 p	79.7	80.1	79.2	82	73.7	0.0	ENE	0.00	4.0	79.7	84.4	84.4	29.911	0.00	0.000	0.306	84.4	74	75.2	93.1	30
06/19/01	11:30 p	79.8	80.2	79.3	83	74.2	1.0	ENE	0.50	6.0	79.8	84.8	84.8	29.905	0.00	0.000	0.308	84.2	75	75.4	93.1	30
06/20/01	12:00 a	79.8	80.2	79.4	83	74.2	1.0	ENE	0.50	5.0	79.8	84.8	84.8	29.907	0.00	0.000	0.308	84.0	76	75.6	93.1	30
06/20/01	12:30 a	79.5	80.0	79.0	84	74.2	0.0	NNE	0.00	3.0	79.5	84.4	84.4	29.896	0.00	0.000	0.302	83.8	77	75.8	92.9	30
06/20/01	1:00 a	79.1	79.8	77.1	77	71.3	3.0	ENE	1.50	26.0	79.1	82.5	82.5	29.912	0.03	0.000	0.294	83.6	74	74.4	91.3	30
06/20/01	1:30 a	75.8	77.5	74.8	85	71.0	1.0	SE	0.50	11.0	75.8	79.0	79.0	29.892	0.29	0.000	0.225	82.5	73	73.0	88.2	30
06/20/01	2:00 a	74.9	75.5	74.4	86	70.4	0.0	SE	0.00	1.0	74.9	77.9	77.9	29.887	0.07	0.000	0.206	81.8	75	73.1	87.1	30
06/20/01	2:30 a	74.6	75.1	74.1	88	70.8	0.0	---	0.00	1.0	74.6	77.5	77.5	29.880	0.00	0.000	0.200	81.4	76	73.1	86.5	30
06/20/01	3:00 a	74.5	75.1	74.0	89	71.0	0.0	---	0.00	1.0	74.5	77.3	77.3	29.875	0.00	0.000	0.198	81.1	77	73.2	86.1	30
06/20/01	3:30 a	74.5	74.9	74.1	90	71.4	0.0	---	0.00	0.0	74.5	77.4	77.4	29.869	0.00	0.000	0.198	80.8	78	73.3	85.7	30
06/20/01	4:00 a	74.5	75.0	74.1	91	71.7	0.0	SE	0.00	3.0	74.5	77.5	77.5	29.882	0.00	0.000	0.198	80.6	79	73.5	85.5	30
06/20/01	4:30 a	74.5	75.0	74.0	91	71.7	0.0	---	0.00	0.0	74.5	77.5	77.5	29.883	0.00	0.000	0.198	80.3	80	73.6	85.1	30
06/20/01	5:00 a	74.3	74.8	73.8	91	71.5	0.0	---	0.00	0.0	74.3	77.1	77.1	29.888	0.00	0.000	0.194	80.1	80	73.4	84.7	30
06/20/01	5:30 a	74.1	74.6	73.6	92	71.6	0.0	---	0.00	0.0	74.1	76.8	76.8	29.892	0.00	0.000	0.190	79.8	80	73.1	84.2	30
06/20/01	6:00 a	73.8	74.3	73.5	92	71.3	0.0	---	0.00	1.0	73.8	76.4	76.4	29.910	0.00	0.000	0.183	79.6	81	73.3	84.0	30
06/20/01	6:30 a	74.2	74.8	73.6	92	71.7	0.0	---	0.00	0.0	74.2	77.0	77.0	29.928	0.00	0.000	0.192	79.4	82	73.4	83.9	30
06/20/01	7:00 a	74.8	75.5	74.1	92	72.3	0.0	WNW	0.00	2.0	74.8	78.1	78.1	29.934	0.00	0.000	0.204	79.4	83	73.8	84.1	30
06/20/01	7:30 a	75.2	75.7	74.7	93	73.0	0.0	---	0.00	0.0	75.2	78.8	78.8	29.942	0.00	0.000	0.212	79.6	85	74.7	84.8	30
06/20/01	8:00 a	75.3	75.9	74.8	94	73.5	0.0	---	0.00	0.0	75.3	79.0	79.0	29.949	0.00	0.000	0.215	79.6	85	74.7	84.8	30
06/20/01	8:30 a	75.5	76.1	75.0	86	71.0	0.0	N	0.00	8.0	75.5	78.7	78.7	29.953	0.00	0.000	0.219	79.7	83	74.1	84.6	30
06/20/01	9:00 a	75.4	75.9	74.9	90	72.3	0.0	N	0.00	2.0	75.4	78.8	78.8	29.954	0.00	0.000	0.217	79.5	83	73.9	84.3	30
06/20/01	9:30 a	75.9	76.8	75.1	92	73.4	0.0	N	0.00	2.0	75.9	79.6	79.6	29.948	0.00	0.000	0.227	79.7	85	74.8	85.0	30
06/20/01	10:00 a	78.5	81.2	76.1	81	72.2	1.0	N	0.50	8.0	78.5	82.3	82.3	29.949	0.00	0.000	0.281	80.6	87	76.4	87.4	30
06/20/01	10:30 a	83.0	84.5	80.7	75	74.3	2.0	NE	1.00	8.0	83.0	90.1	90.1	29.944	0.00	0.000	0.375	82.9	87	78.6	93.5	30
06/20/01	11:00 a	84.8	85.4	84.0	74	75.6	3.0	NE	1.50	10.0	84.8	93.9	93.9	29.942	0.00	0.000	0.413	85.0	84	79.6	98.0	30
06/20/01	11:30 a	85.5	86.3	84.7	71	75.0	3.0	ENE	1.50	11.0	85.5	94.4	94.4	29.938	0.00	0.000	0.427	86.3	80	79.4	99.8	30
06/20/01	12:00 p	86.3	88.3	85.2	65	73.1	3.0	NE	1.50	8.0	86.3	94.1	94.1	29.920	0.00	0.000	0.444	87.4	77	79.3	101.4	30
06/20/01	12:30 p	88.7	89.7	87.6	63	74.5	4.0	NE	2.00	10.0	88.7	97.9	97.9	29.909	0.00	0.000	0.494	89.1	74	79.7	105.2	30
06/20/01	1:00 p	87.5	89.4	86.3	65	74.3	2.0	NE	1.00	8.0	87.5	96.2	96.2	29.903	0.00	0.000	0.469	90.0	71	79.3	106.5	30
06/20/01	1:30 p	87.0	88.5	86.0	65	73.8	3.0	ENE	1.50	9.0	87.0	95.6	95.6	29.903	0.00	0.000	0.458	89.6	70	78.5	104.4	30
06/20/01	2:00 p	87.9	88.6	87.2	64	74.2	3.0	ENE	1.50	10.0	87.9	96.3	96.3	29.881	0.00	0.000	0.477	89.9	68	77.9	104.3	30
06/20/01	2:30 p	87.0	87.9	86.2	69	75.6	3.0	NE	1.50	9.0	87.0	97.1	97.1	29.873	0.00	0.000	0.458	89.9	68	77.9	104.3	30
06/20/01	3:00 p	86.3	86.8	85.7	70	75.4	3.0	ENE	1.50	11.0	86.3	96.0	96.0	29.866	0.00	0.000	0.444	89.7	69	78.2	104.2	30
06/20/01	3:30 p	85.8	86.6	85.2	71	75.3	2.0	ENE	1.00	7.0	85.8	95.2	95.2	29.869	0.00	0.000	0.433	89.5	69	78.0	103.5	30
06/20/01	4:00 p	85.4	86.1	84.9	70	74.5	2.0	NE	1.00	8.0	85.4	93.9	93.9	29.861	0.00	0.000	0.425	89.3	70	78.2	103.4	30
06/20/01	4:30 p	85.4	86.1	84.8	71	74.9	2.0	NE	1.00	7.0	85.4	94.2	94.2	29.858	0.00	0.000	0.425	89.3	69	77.8	102.8	30
06/20/01	5:00 p	86.4	87.8	85.0	68	74.6	2.0	NE	1.00	8.0	86.4	95.4	95.4	29.847	0.00	0.000	0.446	89.6	69	78.1	103.8	30
06/20/01	5:30 p	87.9	89.0	87.1	67	75.6	3.0	ENE	1.50	9.0	87.9	97.5	97.5	29.848	0.00	0.000	0.477	90.7	67	78.2	106.1	30
06/20/01	6:00 p	87.6	88.5	86.7	68	75.7	3.0	ENE	1.50	11.0	87.6	97.6	97.6	29.855	0.00	0.000	0.471	90.9	67	78.4	106.7	30
06/20/01	6:30 p	86.2	87.0	85.3	70	75.3	2.0	E	1.00	8.0	86.2	95.7	95.7	29.863	0.00	0.000	0.442	90.0	67	77.6	104.0	30
06/20/01	7:00 p	84.5	85.8	83.5	75	75.7	1.0	NE	0.50	8.0	84.5	93.6	93.6	29.864	0.00	0.000	0.406	89.0	69	77.5	101.8	30
06/20/01	7:30 p	83.2	83.9	82.4	76	74.8	1.0	ESE	0.50	6.0	83.2	90.9	90.9	29.873	0.00	0.000	0.379	88.0	70	77.0	99.0	30
06/20/01	8:00 p	82.2	82.9	81.5	78	74.7	1.0	E	0.50	5.0	82.2	88.9	88.9	29.871	0.00	0.000	0.358	87.1	71	76.5	98.1	30
06/20/01	8:30 p	81.5	82.1	81.1	79	74.4	0.0	ENE	0.00	5.0	81.5	87.4	87.4	29.882	0.00	0.000	0.344	86.3	72	76.2	96.7	30
06/20/01	9:00 p	81.4	81.8	80.7	79	74.3	0.0	E	0.00	1.0	81.4	87.2	87.2	29.886	0.00	0.000	0.342	85.7	73	76.0	95.6	30
06/20/01	9:30 p	80.5	81.2	79.9	81	74.1	0.0	E	0.00	2.0	80.5	85.7	85.7	29.896	0.00	0.000	0.323	85.1	73	75.5	94.2	30
06/20/01	10:00 p	79.9	80.4	79.5	81	73.5	0.0	E	0.00	4.0	79.9	84.5	84.5	29.899	0.00	0.000	0.310	84.6	72	74.6	92.8	30
06/20/01	10:30 p	79.7	80.2	79.2	83	74.1	0.0	E	0.00	4.0	79.7	84.6	84.6	29.896	0.00	0.000	0.306	84.3	74	75.1	92.9	30
06/20/01	11:00 p	79.4	79.9	78.9	83	73.8	0.0	E	0.00	2.0	79.4	84.1	84.1	29.896	0.00	0.000	0.300	84.1	75	75.3	92.9	30
06/20/01	11:30 p	79.2	79.6	78.6	83	73.6	0.0	E	0.00	1.0	79.2	83.7	83.7	29.901	0.00	0.000	0.296	83.8	76	75.4	92.5	30
06/21/01	12:00 a	78.5	79.4	77.8	84	73.3	0.0	---	0.00	0.0	78.5	82.7	82.7	29.894	0.00	0.000	0.281	83.4	76	75.0	91.5	30
06/21/01	12:30 a	77.8	78.5	77.2	86	73.3	0.0	---	0.00	0.0	77.8	81.9	81.9	29.891	0.00	0.000	0.267	83.0	77	75.0	90.7	30
06/21/01	1:00 a	77.2	77.9	76.5	87	73.0	0.0	---	0.00	0.0	77.2	81.1	81.1	29.886	0.00	0.000	0.254	82.6	77	74.7	89.7	30
06/21/01	1:30 a	76.6	77.2	76.0	87	72.4	0.0	---	0.00	0.0	76.6	80.2	80.2	29.882	0.00	0.000	0.242	82.3	75	73.6	88.3	30
06/21/01	2:00 a	76.1	76.7	75.6	87	71.9	0.0	---	0.00	0.0	76.1	79.5	79.5	29.873	0.00	0.000	0.231	81.9	74	72.8	87.1	30
06/21/01	2:30 a	75.7	76.2	75.1	88	71.9	0.0	---	0.00	0.0	75.7	79.0	79.0	29.873	0.00	0.000	0.223	81.6	74	72.5	86.4	30
06/21/01	3:00 a	75.3	75.8	74.8	88	71.5	0.0	---	0.00	0.0	75.3	78.6	78.6	29.873	0.00	0.000	0.215	81.3	74	72.2	85.8	30
06/21/01	3:30 a	75.0	75.4	74.6	89	71.5	0.0	---	0.00	0.0	75.0	78.3	78.3	29.873	0.00	0.000	0.208	81.0	74	71.9	85.2	30
06/21/01	4:00 a	74.9	75.3	74.4	89	71.4	0.0	---	0.00	0.0	74.9	78.1	78.1	29.873	0.00	0.000	0.206	80.8	74	71.7	84.8	30
06/21/01	4:30 a	74.6	75.1	74.2	90	71.5	0.0	---	0.00	0.0	74.6	77.6	77.6	29.871	0.00	0.000	0.200	80.6	73	71.1	84.3	30
06/21/01	5:00 a	74.4	74.8	73.9	90	71.3	0.0	---	0.00	0.0	74.4	77.2	77.2	29.876	0.00	0.000	0.196	80.3	74	71.3	84.0	30
06/21/01	5:30 a	74.1	74.6	73.7	90	71.0	0.0	---	0.00	0.0	74.1	76.6	76.6	29.880	0.00	0.000	0.190	80.1	73	70.7	83.4	30
06/21/01	6:00 a	74.0	74.4	73.6	90	70.9	0.0	---	0.00	0.0	74.0	76.4	76.4	29.880	0.00	0.000	0.188	79.8	74	70.8	83.1	30
06/21/01	6:30 a	74.3	75.0	73.6	91	71.5	0.0	---	0.00	0.0	74.3	77.1	77.1	29.880	0.00	0.000	0.194	79.7	74	70.7	83.0	30
06/21/01	7:00 a	75.3	76.2	74.5	92	72.8	0.0	NW	0.00	4.0	75.3	78.9	78.9	29.890	0.00	0.000	0.215	79.8	76	71.6	83.5	30
06/21/01	7:30 a	76.5	77.4	75.6	89	73.0	1.0	NW	0.50	4.0	76.5	80.2	80.2	29.896	0.00	0.000	0.240	80.0	77	72.1	84.0	30
06/21/01	8:00 a	77.9	79.0	76.9	84	72.7	1.0	NW	0.50	4.0	77.9	81.8	81.8	29.896	0.00	0.000	0.269	80.7	78	73.2	85.5	30
06/21/01	8:30 a	79.3	80.3	78.4	80	72.6	0.0	NW	0.00	3.0	79.3	83.3	83.3	29.898	0.00	0.000	0.298	81.8	80	75.0	88.4	30
06/21/01	9:00 a	81.6	83.5	79.8	73	72.1	1.0	NNE	0.50	6.0	81.6	86.2	86.2	29.892	0.00	0.000	0.346	83.3	81	76.9	92.8	30
06/21/01	9:30 a	84.7	85.9	82.8	71	74.3	2.0	ENE	1.00	9.0	84.7	92.6	92.6	29.893	0.00	0.000	0.410	85.2	79	77.9	96.5	30
06/21/01	10:00 a	86.7	87.6	85.6	68	74.9	3.0	NE	1.50	9.0	86.7	96.1	96.1	29.887	0.00	0.000	0.452	87.0	77	78.9	100.6	30
06/21/01	10:30 a	87.7	88.5	87.0	68	75.8	3.0	ENE	1.50	14.0	87.7	97.7	97.7	29.893	0.00	0.000	0.473	88.3	75	79.4	102.6	30
06/21/01	11:00 a	89.1	89.8	88.2	67	76.7	3.0	ENE	1.50	11.0	89.1	101.0	101.0	29.889	0.00	0.000	0.502	89.6	74	80.2	107.2	30
06/21/01	11:30 a	87.6	89.6	85.8	73	77.9	2.0	NNE	1.00	8.0	87.6	99.8	99.8	29.885	0.00	0.000	0.471	90.3	71	79.6	107.5	30
06/21/01	12:00 p	85.4	86.5	84.5	74	76.2	1.0	NE	0.50	8.0	85.4	95.2	95.2	29.883	0.00	0.000	0.425	89.5	72	79.3	105.4	30
06/21/01	12:30 p	83.9	84.9	82.8	78	76.3	1.0	E	0.50	8.0	83.9	93.5	93.5	29.875	0.00	0.000	0.394	88.1	72	77.9	100.3	30
06/21/01	1:00 p	82.6	83.2	82.0	82	76.5	0.0	SW	0.00	3.0	82.6	91.2	91.2	29.875	0.00	0.000	0.367	87.0	74	77.7	99.2	30
06/21/01	1:30 p	82.9	83.6	82.4	77	74.9	1.0	SE	0.50	4.0	82.9	90.5	90.5	29.864	0.01	0.000	0.373	86.6	76	78.1	99.0	30
06/21/01	2:00 p	83.4	84.5	82.8	75	74.6	2.0	E	1.00	11.0	83.4	91.1	91.1	29.855	0.00	0.000	0.383	86.6	74	77.3	98.2	30
06/21/01	2:30 p	86.3	88.6	84.3	68	74.5	4.0	ENE	2.00	15.0	86.3	95.2	95.2	29.837	0.00	0.000	0.444	87.4	74	78.1	99.9	30
06/21/01	3:00 p	88.0	88.7	87.3	66	75.2	4.0	NE	2.00	13.0	88.0	97.2	97.2	29.839	0.00	0.000	0.479	89.2	72	79.0	104.3	30
06/21/01	3:30 p	89.9	91.3	87.8	62	75.1	5.0	ESE	2.50	17.0	89.9	100.7	100.7	29.830	0.00	0.000	0.519	90.0	69	78.5	105.2	30
06/21/01	4:00 p	91.7	92.6	90.6	63	77.3	4.0	ESE	2.00	15.0	91.7	106.3	106.3	29.817	0.00	0.000	0.556	91.1	67	78.6	107.3	30
06/21/01	4:30 p	91.6	92.3	90.8	61	76.2	5.0	ESE	2.50	18.0	91.6	104.6	104.6	29.813	0.00	0.000	0.554	91.7	66	78.7	108.4	30
06/21/01	5:00 p	90.7	91.6	90.0	62	75.9	6.0	ESE	3.00	15.0	90.7	102.8	102.8	29.808	0.00	0.000	0.535	92.2	65	78.7	109.2	30
06/21/01	5:30 p	89.0	90.4	87.7	64	75.2	4.0	SE	2.00	15.0	89.0	99.1	99.1	29.817	0.00	0.000	0.500	91.1	65	77.7	105.9	30
06/21/01	6:00 p	87.5	88.3	86.7	67	75.2	2.0	SE	1.00	8.0	87.5	97.0	97.0	29.819	0.00	0.000	0.469	89.9	65	76.6	102.5	30
06/21/01	6:30 p	86.0	87.1	85.0	71	75.5	2.0	ESE	1.00	7.0	86.0	95.6	95.6	29.836	0.00	0.000	0.438	89.1	68	77.2	101.6	30
06/21/01	7:00 p	84.8	85.6	83.9	73	75.2	1.0	SE	0.50	6.0	84.8	93.5	93.5	29.846	0.00	0.000	0.413	88.4	69	76.9	99.8	30
06/21/01	7:30 p	83.6	84.4	82.9	75	74.8	1.0	ESE	0.50	5.0	83.6	91.7	91.7	29.852	0.00	0.000	0.387	87.6	70	76.6	98.4	30
06/21/01	8:00 p	82.9	83.4	82.1	77	74.9	0.0	SE	0.00	3.0	82.9	90.5	90.5	29.860	0.00	0.000	0.373	87.1	71	76.5	98.1	30
06/21/01	8:30 p	82.0	82.6	81.3	78	74.5	0.0	---	0.00	1.0	82.0	88.3	88.3	29.858	0.00	0.000	0.354	86.6	73	76.9	97.8	30
06/21/01	9:00 p	81.1	81.9	80.1	77	73.2	1.0	NW	0.50	8.0	81.1	86.1	86.1	29.872	0.00	0.000	0.335	86.0	73	76.3	96.3	30
06/21/01	9:30 p	79.0	80.5	78.2	77	71.2	1.0	NW	0.50	8.0	79.0	82.3	82.3	29.862	0.00	0.000	0.292	85.3	70	74.4	93.6	30
06/21/01	10:00 p	77.9	78.7	77.2	78	70.5	1.0	SW	0.50	5.0	77.9	81.0	81.0	29.845	0.00	0.000	0.269	84.5	69	73.2	91.6	30
06/21/01	10:30 p	77.1	77.9	76.6	80	70.5	1.0	SW	0.50	5.0	77.1	80.1	80.1	29.832	0.00	0.000	0.252	83.8	70	73.0	90.4	30
06/21/01	11:00 p	76.9	77.4	76.5	82	71.0	0.0	SSW	0.00	4.0	76.9	80.1	80.1	29.819	0.00	0.000	0.248	83.3	71	72.9	89.5	30
06/21/01	11:30 p	76.6	77.2	76.2	83	71.0	0.0	---	0.00	1.0	76.6	79.8	79.8	29.818	0.00	0.000	0.242	82.8	72	72.8	88.6	30
06/22/01	12:00 a	76.5	76.7	76.1	83	70.9	0.0	---	0.00	0.0	76.5	79.7	79.7	29.823	0.00	0.000	0.240	82.5	73	73.0	88.2	30
06/22/01	12:30 a	76.1	76.6	75.5	84	70.9	0.0	SSW	0.00	3.0	76.1	79.3	79.3	29.821	0.00	0.000	0.231	82.4	73	72.9	88.0	30
06/22/01	1:00 a	75.6	76.2	75.0	85	70.8	0.0	---	0.00	0.0	75.6	78.7	78.7	29.821	0.00	0.000	0.221	82.1	74	73.0	87.5	30
06/22/01	1:30 a	75.0	75.7	74.5	85	70.2	0.0	SSW	0.00	4.0	75.0	78.0	78.0	29.820	0.00	0.000	0.208	81.5	74	72.4	86.2	30
06/22/01	2:00 a	74.7	75.2	74.2	85	69.9	0.0	---	0.00	0.0	74.7	77.5	77.5	29.823	0.00	0.000	0.202	81.1	74	72.0	85.4	30
06/22/01	2:30 a	74.3	74.9	73.8	86	69.8	0.0	---	0.00	0.0	74.3	76.8	76.8	29.815	0.00	0.000	0.194	80.7	73	71.2	84.5	30
06/22/01	3:00 a	73.8	74.3	73.3	86	69.3	0.0	---	0.00	0.0	73.8	76.0	76.0	29.811	0.00	0.000	0.183	80.5	72	70.6	83.9	30
06/22/01	3:30 a	73.4	74.0	72.9	86	69.0	0.0	---	0.00	0.0	73.4	75.6	75.6	29.821	0.00	0.000	0.175	80.2	72	70.4	83.4	30
06/22/01	4:00 a	73.0	73.5	72.6	88	69.2	0.0	---	0.00	0.0	73.0	75.3	75.3	29.820	0.00	0.000	0.167	79.8	71	69.6	82.6	30
06/22/01	4:30 a	72.9	73.3	72.4	88	69.1	0.0	---	0.00	0.0	72.9	75.2	75.2	29.819	0.00	0.000	0.165	79.5	71	69.3	82.2	30
06/22/01	5:00 a	72.7	73.0	72.2	88	68.9	0.0	---	0.00	0.0	72.7	74.9	74.9	29.821	0.00	0.000	0.160	79.3	71	69.1	81.9	30
06/22/01	5:30 a	72.3	72.9	71.9	89	68.9	0.0	---	0.00	0.0	72.3	74.5	74.5	29.821	0.00	0.000	0.152	79.0	71	68.8	81.4	30
06/22/01	6:00 a	72.3	72.6	71.9	89	68.9	0.0	---	0.00	0.0	72.3	74.5	74.5	29.829	0.00	0.000	0.152	78.8	71	68.6	81.2	30
06/22/01	6:30 a	72.8	73.7	72.0	89	69.4	0.0	---	0.00	0.0	72.8	75.2	75.2	29.837	0.00	0.000	0.163	78.6	72	68.8	81.0	30
06/22/01	7:00 a	73.9	74.8	73.0	88	70.1	0.0	SSW	0.00	1.0	73.9	76.2	76.2	29.846	0.00	0.000	0.185	78.7	72	68.9	81.2	30
06/22/01	7:30 a	75.3	76.5	74.3	88	71.5	1.0	SSW	0.50	5.0	75.3	78.6	78.6	29.846	0.00	0.000	0.215	78.9	73	69.5	81.6	30
06/22/01	8:00 a	77.0	78.1	75.9	86	72.5	1.0	SSW	0.50	6.0	77.0	80.7	80.7	29.849	0.00	0.000	0.250	79.7	79	72.6	83.8	30
06/22/01	8:30 a	79.0	80.4	77.6	82	73.0	3.0	S	1.50	8.0	79.0	83.2	83.2	29.840	0.00	0.000	0.292	81.2	82	75.2	87.5	30
06/22/01	9:00 a	81.6	83.7	79.9	74	72.5	3.0	SSW	1.50	8.0	81.6	86.4	86.4	29.833	0.00	0.000	0.346	82.8	82	76.7	91.7	30
06/22/01	9:30 a	84.3	85.4	83.0	72	74.3	3.0	SW	1.50	8.0	84.3	92.2	92.2	29.837	0.00	0.000	0.402	84.5	80	77.6	95.4	30
06/22/01	10:00 a	87.0	89.0	85.1	65	73.8	3.0	SW	1.50	10.0	87.0	95.6	95.6	29.833	0.00	0.000	0.458	85.7	77	77.7	97.0	30
06/22/01	10:30 a	89.3	90.1	88.3	60	73.6	3.0	SW	1.50	11.0	89.3	98.1	98.1	29.823	0.00	0.000	0.506	87.3	75	78.4	100.1	30
06/22/01	11:00 a	90.8	92.2	89.6	55	72.4	3.0	SW	1.50	8.0	90.8	99.2	99.2	29.819	0.00	0.000	0.538	88.7	71	78.1	101.9	30
06/22/01	11:30 a	92.9	94.1	91.4	49	70.9	3.0	SW	1.50	8.0	92.9	100.5	100.5	29.818	0.00	0.000	0.581	89.9	69	78.4	104.9	30
06/22/01	12:00 p	94.9	96.6	93.5	53	75.1	2.0	SW	1.00	9.0	94.9	108.0	108.0	29.808	0.00	0.000	0.623	91.3	66	78.3	107.2	30
06/22/01	12:30 p	94.7	96.9	92.6	63	80.1	3.0	SE	1.50	13.0	94.7	115.6	115.6	29.791	0.00	0.000	0.619	92.5	67	79.9	111.7	30
06/22/01	1:00 p	90.9	92.8	89.7	64	77.0	2.0	ENE	1.00	10.0	90.9	104.7	104.7	29.774	0.00	0.000	0.540	92.1	66	79.1	109.7	30
06/22/01	1:30 p	89.2	90.8	87.2	62	74.5	3.0	SW	1.50	9.0	89.2	98.8	98.8	29.782	0.00	0.000	0.504	91.7	64	77.8	107.0	30
06/22/01	2:00 p	84.8	87.3	82.0	74	75.6	4.0	SW	2.00	17.0	84.8	93.9	93.9	29.822	0.02	0.000	0.413	90.1	65	76.7	103.1	30
06/22/01	2:30 p	77.3	82.4	75.1	85	72.4	6.0	NW	3.00	19.0	77.3	81.1	81.1	29.823	0.46	0.000	0.256	87.0	66	74.3	96.0	30
06/22/01	3:00 p	74.9	75.7	74.3	87	70.8	2.0	N	1.00	7.0	74.9	78.0	78.0	29.806	0.02	0.000	0.206	85.0	68	73.3	92.2	30
06/22/01	3:30 p	75.3	76.7	74.3	86	70.8	0.0	N	0.00	4.0	75.3	78.4	78.4	29.814	0.01	0.000	0.215	84.2	70	73.3	91.3	30
06/22/01	4:00 p	78.3	79.4	76.0	79	71.2	0.0	N	0.00	5.0	78.3	81.7	81.7	29.791	0.00	0.000	0.277	84.4	72	74.4	92.4	30
06/22/01	4:30 p	79.1	79.6	78.6	81	72.8	0.0	NE	0.00	4.0	79.1	83.2	83.2	29.792	0.00	0.000	0.294	84.8	72	74.8	93.2	30
06/22/01	5:00 p	79.0	79.5	78.5	82	73.0	1.0	SE	0.50	6.0	79.0	83.2	83.2	29.796	0.00	0.000	0.292	84.8	72	74.8	93.2	30
06/22/01	5:30 p	79.0	79.5	78.5	82	73.0	1.0	ESE	0.50	7.0	79.0	83.2	83.2	29.791	0.00	0.000	0.292	84.5	72	74.5	92.6	30
06/22/01	6:00 p	80.2	81.1	78.6	77	72.3	2.0	ESE	1.00	7.0	80.2	84.3	84.3	29.793	0.00	0.000	0.317	85.2	71	74.7	93.7	30
06/22/01	6:30 p	80.3	81.1	79.8	80	73.6	1.0	SE	0.50	6.0	80.3	85.1	85.1	29.795	0.00	0.000	0.319	85.1	72	75.1	93.8	30
06/22/01	7:00 p	79.7	80.4	78.9	81	73.3	0.0	SE	0.00	3.0	79.7	84.2	84.2	29.798	0.00	0.000	0.306	84.6	73	75.0	93.1	30
06/22/01	7:30 p	78.6	79.5	77.9	84	73.4	0.0	SE	0.00	3.0	78.6	82.9	82.9	29.795	0.00	0.000	0.283	83.9	74	74.7	92.1	30
06/22/01	8:00 p	77.7	78.4	77.0	86	73.2	1.0	SSW	0.50	5.0	77.7	81.8	81.8	29.793	0.00	0.000	0.265	83.3	74	74.1	90.5	30
06/22/01	8:30 p	77.1	77.5	76.5	85	72.2	1.0	S	0.50	4.0	77.1	80.8	80.8	29.798	0.00	0.000	0.252	82.8	74	73.7	89.3	30
06/22/01	9:00 p	76.7	77.2	76.2	84	71.5	0.0	S	0.00	3.0	76.7	80.1	80.1	29.809	0.00	0.000	0.244	82.4	74	73.3	88.3	30
06/22/01	9:30 p	76.4	76.9	75.8	84	71.2	0.0	S	0.00	3.0	76.4	79.7	79.7	29.811	0.00	0.000	0.238	82.0	74	72.9	87.3	30
06/22/01	10:00 p	76.1	76.5	75.6	85	71.3	0.0	---	0.00	0.0	76.1	79.3	79.3	29.816	0.00	0.000	0.231	81.5	75	72.8	86.4	30
06/22/01	10:30 p	75.9	76.3	75.5	83	70.4	0.0	SW	0.00	3.0	75.9	79.0	79.0	29.825	0.00	0.000	0.227	81.2	75	72.5	85.8	30
06/22/01	11:00 p	75.7	76.1	75.1	84	70.5	0.0	---	0.00	0.0	75.7	78.8	78.8	29.823	0.00	0.000	0.223	81.1	74	72.0	85.4	30
06/22/01	11:30 p	75.3	75.7	74.7	85	70.5	0.0	SW	0.00	2.0	75.3	78.4	78.4	29.813	0.00	0.000	0.215	80.8	73	71.3	84.6	30
06/23/01	12:00 a	74.9	75.4	74.3	85	70.1	0.0	SW	0.00	3.0	74.9	77.8	77.8	29.805	0.00	0.000	0.206	80.6	73	71.1	84.3	30
06/23/01	12:30 a	74.4	74.9	73.6	86	69.9	1.0	SSW	0.50	7.0	74.4	77.0	77.0	29.792	0.00	0.000	0.196	80.2	73	70.8	83.6	30
06/23/01	1:00 a	73.8	74.2	73.3	85	69.0	1.0	SSW	0.50	5.0	73.8	76.0	76.0	29.784	0.00	0.000	0.183	79.9	72	70.1	82.9	30
06/23/01	1:30 a	73.5	74.0	73.0	83	68.0	2.0	S	1.00	8.0	73.5	75.6	75.6	29.776	0.00	0.000	0.177	79.6	72	69.8	82.5	30
06/23/01	2:00 a	73.3	73.7	72.8	83	67.8	1.0	SSW	0.50	7.0	73.3	75.3	75.3	29.772	0.00	0.000	0.173	79.3	72	69.5	82.0	30
06/23/01	2:30 a	73.0	73.6	72.5	85	68.2	0.0	S	0.00	2.0	73.0	75.1	75.1	29.772	0.00	0.000	0.167	79.0	72	69.2	81.6	30
06/23/01	3:00 a	72.5	73.2	71.9	86	68.1	0.0	---	0.00	0.0	72.5	74.5	74.5	29.786	0.00	0.000	0.156	78.6	72	68.8	81.0	30
06/23/01	3:30 a	71.9	72.6	71.3	88	68.2	0.0	---	0.00	0.0	71.9	73.9	73.9	29.798	0.00	0.000	0.144	78.3	72	68.5	80.6	30
06/23/01	4:00 a	71.4	72.0	70.9	89	68.0	0.0	---	0.00	0.0	71.4	73.5	73.5	29.807	0.00	0.000	0.133	78.0	72	68.2	80.2	30
06/23/01	4:30 a	71.1	71.6	70.6	88	67.4	0.0	---	0.00	0.0	71.1	73.1	73.1	29.809	0.00	0.000	0.127	77.7	72	68.0	79.9	30
06/23/01	5:00 a	70.9	71.3	70.5	90	67.8	0.0	---	0.00	0.0	70.9	73.1	73.1	29.810	0.00	0.000	0.123	77.4	72	67.7	79.6	30
06/23/01	5:30 a	70.7	71.1	70.3	90	67.6	0.0	---	0.00	0.0	70.7	72.8	72.8	29.817	0.00	0.000	0.119	77.2	73	67.9	79.5	30
06/23/01	6:00 a	70.6	71.0	70.2	91	67.8	0.0	---	0.00	0.0	70.6	72.8	72.8	29.828	0.00	0.000	0.117	77.0	72	67.3	79.1	30
06/23/01	6:30 a	71.1	71.8	70.4	91	68.3	0.0	S	0.00	1.0	71.1	73.4	73.4	29.833	0.00	0.000	0.127	76.9	73	67.6	79.2	30
06/23/01	7:00 a	72.0	73.0	71.1	91	69.2	0.0	S	0.00	4.0	72.0	74.3	74.3	29.837	0.00	0.000	0.146	77.0	73	67.7	79.3	30
06/23/01	7:30 a	73.2	74.2	72.3	90	70.1	1.0	S	0.50	5.0	73.2	75.7	75.7	29.844	0.00	0.000	0.171	77.3	74	68.4	79.7	30
06/23/01	8:00 a	74.8	76.0	73.6	87	70.7	2.0	SW	1.00	6.0	74.8	77.8	77.8	29.838	0.00	0.000	0.204	78.1	79	71.1	81.4	30
06/23/01	8:30 a	76.8	78.5	75.4	83	71.2	2.0	SW	1.00	8.0	76.8	80.1	80.1	29.829	0.00	0.000	0.246	79.5	82	73.5	84.1	30
06/23/01	9:00 a	79.8	81.6	78.1	75	71.2	3.0	SW	1.50	9.0	79.8	83.3	83.3	29.819	0.00	0.000	0.308	81.1	82	75.1	87.3	30
06/23/01	9:30 a	82.8	84.6	80.8	70	72.0	3.0	SW	1.50	11.0	82.8	88.0	88.0	29.821	0.00	0.000	0.371	82.7	81	76.3	91.1	30
06/23/01	10:00 a	85.2	86.5	84.3	66	72.6	3.0	WSW	1.50	10.0	85.2	91.9	91.9	29.817	0.00	0.000	0.421	84.2	77	76.2	93.8	30
06/23/01	10:30 a	86.9	88.1	85.9	65	73.7	3.0	WSW	1.50	10.0	86.9	95.4	95.4	29.811	0.00	0.000	0.456	85.4	74	76.2	95.2	30
06/23/01	11:00 a	88.9	90.1	87.7	63	74.7	3.0	SW	1.50	9.0	88.9	98.4	98.4	29.795	0.00	0.000	0.498	86.7	72	76.6	97.6	30
06/23/01	11:30 a	89.7	90.6	88.7	64	75.9	3.0	SW	1.50	9.0	89.7	101.3	101.3	29.790	0.00	0.000	0.515	87.9	70	76.9	98.9	30
06/23/01	12:00 p	80.1	89.1	74.1	85	75.2	10.0	NW	5.00	32.0	78.5	85.8	84.2	29.828	0.93	0.000	0.315	86.5	68	74.7	95.6	30
06/23/01	12:30 p	74.0	74.7	73.5	86	69.5	2.0	NW	1.00	11.0	74.0	76.2	76.2	29.825	0.21	0.000	0.188	83.6	70	72.8	89.9	30
06/23/01	1:00 p	74.3	74.7	73.9	86	69.8	0.0	WSW	0.00	4.0	74.3	76.8	76.8	29.837	0.01	0.000	0.194	82.4	71	72.0	87.4	30
06/23/01	1:30 p	74.8	75.4	74.1	85	70.0	0.0	SW	0.00	3.0	74.8	77.6	77.6	29.830	0.00	0.000	0.204	81.7	73	72.2	86.4	30
06/23/01	2:00 p	75.5	76.2	74.8	86	71.0	0.0	SW	0.00	2.0	75.5	78.7	78.7	29.839	0.01	0.000	0.219	81.5	74	72.4	86.2	30
06/23/01	2:30 p	75.9	76.3	75.4	87	71.8	1.0	S	0.50	4.0	75.9	79.2	79.2	29.830	0.00	0.000	0.227	81.5	76	73.2	86.7	30
06/23/01	3:00 p	76.1	76.5	75.7	87	71.9	1.0	S	0.50	5.0	76.1	79.5	79.5	29.823	0.00	0.000	0.231	81.3	76	73.0	86.3	30
06/23/01	3:30 p	76.2	76.5	75.6	88	72.4	2.0	S	1.00	6.0	76.2	79.7	79.7	29.828	0.00	0.000	0.233	81.1	77	73.2	86.1	30
06/23/01	4:00 p	76.0	76.4	75.5	86	71.5	1.0	SSW	0.50	6.0	76.0	79.3	79.3	29.826	0.00	0.000	0.229	80.9	78	73.4	85.9	30
06/23/01	4:30 p	76.2	76.8	75.7	86	71.7	0.0	SSW	0.00	1.0	76.2	79.5	79.5	29.825	0.00	0.000	0.233	80.8	78	73.3	85.7	30
06/23/01	5:00 p	76.9	77.5	76.2	83	71.3	0.0	SSW	0.00	3.0	76.9	80.2	80.2	29.800	0.00	0.000	0.248	81.2	78	73.7	86.5	30
06/23/01	5:30 p	77.2	77.6	76.7	84	72.0	0.0	SSW	0.00	3.0	77.2	80.8	80.8	29.788	0.00	0.000	0.254	81.4	78	73.9	87.0	30
06/23/01	6:00 p	76.8	77.5	76.2	85	71.9	2.0	SSW	1.00	6.0	76.8	80.3	80.3	29.789	0.00	0.000	0.246	81.5	78	74.0	87.2	30
06/23/01	6:30 p	76.3	76.9	75.7	86	71.8	2.0	S	1.00	8.0	76.3	79.7	79.7	29.788	0.00	0.000	0.235	81.3	78	73.8	86.7	30
06/23/01	7:00 p	75.6	76.3	74.9	87	71.5	2.0	S	1.00	7.0	75.6	78.9	78.9	29.800	0.00	0.000	0.221	81.0	77	73.1	85.8	30
06/23/01	7:30 p	74.6	75.4	74.0	88	70.8	2.0	SSW	1.00	9.0	74.6	77.5	77.5	29.815	0.00	0.000	0.200	80.6	78	73.1	85.3	30
06/23/01	8:00 p	74.2	74.7	73.7	89	70.7	0.0	SW	0.00	5.0	74.2	76.8	76.8	29.825	0.00	0.000	0.192	80.2	78	72.7	84.5	30
06/23/01	8:30 p	73.9	74.4	73.4	89	70.5	0.0	---	0.00	0.0	73.9	76.3	76.3	29.825	0.00	0.000	0.185	80.2	77	72.3	84.3	30
06/23/01	9:00 p	73.7	74.1	73.2	89	70.3	0.0	SW	0.00	3.0	73.7	76.1	76.1	29.837	0.00	0.000	0.181	80.0	77	72.1	84.0	30
06/23/01	9:30 p	73.4	73.9	73.0	90	70.3	0.0	SSW	0.00	4.0	73.4	75.9	75.9	29.842	0.00	0.000	0.175	79.8	76	71.6	83.5	30
06/23/01	10:00 p	73.2	73.7	72.7	91	70.4	0.0	---	0.00	0.0	73.2	75.8	75.8	29.848	0.00	0.000	0.171	79.5	76	71.3	83.0	30
06/23/01	10:30 p	72.8	73.4	72.2	91	70.0	0.0	---	0.00	0.0	72.8	75.3	75.3	29.848	0.00	0.000	0.163	79.1	76	70.9	82.3	30
06/23/01	11:00 p	72.3	72.9	71.7	92	69.8	0.0	---	0.00	0.0	72.3	74.8	74.8	29.855	0.00	0.000	0.152	78.6	76	70.4	81.6	30
06/23/01	11:30 p	72.0	72.5	71.5	93	69.9	1.0	SSW	0.50	5.0	72.0	74.6	74.6	29.853	0.00	0.000	0.146	78.2	77	70.4	81.2	30
06/24/01	12:00 a	71.7	72.1	71.3	94	69.9	1.0	SSW	0.50	7.0	71.7	74.4	74.4	29.845	0.00	0.000	0.140	77.9	77	70.1	80.8	30
06/24/01	12:30 a	71.6	72.0	71.2	94	69.8	1.0	SSW	0.50	4.0	71.6	74.2	74.2	29.832	0.00	0.000	0.137	77.7	78	70.3	80.7	30
06/24/01	1:00 a	71.6	72.0	71.1	94	69.8	0.0	SSW	0.00	3.0	71.6	74.2	74.2	29.834	0.00	0.000	0.137	77.5	78	70.1	80.4	30
06/24/01	1:30 a	71.5	71.8	71.0	93	69.4	0.0	---	0.00	2.0	71.5	74.0	74.0	29.828	0.00	0.000	0.135	77.3	78	69.9	80.2	30
06/24/01	2:00 a	71.3	71.7	70.9	93	69.2	0.0	---	0.00	0.0	71.3	73.8	73.8	29.823	0.00	0.000	0.131	77.1	77	69.3	79.8	30
06/24/01	2:30 a	71.4	71.7	70.9	94	69.6	0.0	SSW	0.00	2.0	71.4	74.0	74.0	29.815	0.00	0.000	0.133	77.0	77	69.2	79.7	30
06/24/01	3:00 a	71.4	71.7	70.9	94	69.6	0.0	SSW	0.00	2.0	71.4	74.0	74.0	29.814	0.00	0.000	0.133	76.9	78	69.5	79.7	30
06/24/01	3:30 a	71.1	71.6	70.5	93	69.0	0.0	SSW	0.00	2.0	71.1	73.6	73.6	29.817	0.00	0.000	0.127	76.6	78	69.2	79.4	30
06/24/01	4:00 a	70.8	71.3	70.3	94	69.0	0.0	---	0.00	0.0	70.8	73.4	73.4	29.823	0.00	0.000	0.121	76.4	78	69.0	79.1	30
06/24/01	4:30 a	70.6	71.0	70.1	94	68.8	0.0	SSW	0.00	3.0	70.6	73.1	73.1	29.816	0.00	0.000	0.117	76.2	79	69.2	79.0	30
06/24/01	5:00 a	70.4	70.9	69.9	94	68.6	0.0	SSW	0.00	4.0	70.4	72.9	72.9	29.825	0.00	0.000	0.113	76.0	79	69.0	78.8	30
06/24/01	5:30 a	70.3	70.7	69.8	94	68.5	0.0	SSW	0.00	1.0	70.3	72.8	72.8	29.832	0.00	0.000	0.110	75.9	79	68.9	78.7	30
06/24/01	6:00 a	70.2	70.7	69.8	95	68.7	0.0	SW	0.00	4.0	70.2	72.7	72.7	29.845	0.00	0.000	0.108	75.8	79	68.8	78.5	30
06/24/01	6:30 a	70.7	71.4	69.9	94	68.9	0.0	SSW	0.00	3.0	70.7	73.2	73.2	29.844	0.01	0.000	0.119	75.9	79	68.9	78.7	30
06/24/01	7:00 a	71.2	71.7	70.6	95	69.7	1.0	SSW	0.50	4.0	71.2	73.9	73.9	29.849	0.00	0.000	0.129	76.0	80	69.4	78.9	30
06/24/01	7:30 a	71.8	72.8	71.1	95	70.3	2.0	SSW	1.00	5.0	71.8	74.6	74.6	29.855	0.00	0.000	0.142	76.2	80	69.6	79.1	30
06/24/01	8:00 a	73.4	74.4	72.1	93	71.3	2.0	SSW	1.00	6.0	73.4	76.1	76.1	29.860	0.00	0.000	0.175	76.8	83	71.2	80.1	30
06/24/01	8:30 a	75.1	76.7	73.8	89	71.6	2.0	SW	1.00	6.0	75.1	78.4	78.4	29.864	0.00	0.000	0.210	78.0	86	73.5	82.2	30
06/24/01	9:00 a	77.8	79.5	76.0	85	72.9	2.0	W	1.00	6.0	77.8	81.8	81.8	29.856	0.00	0.000	0.267	79.5	88	75.6	85.3	30
06/24/01	9:30 a	81.0	82.6	79.1	74	71.9	3.0	SW	1.50	9.0	81.0	85.2	85.2	29.853	0.00	0.000	0.333	81.1	87	76.9	88.6	30
06/24/01	10:00 a	83.1	84.3	82.0	73	73.5	2.0	WSW	1.00	5.0	83.1	89.7	89.7	29.847	0.00	0.000	0.377	82.5	84	77.2	91.5	30
06/24/01	10:30 a	84.8	85.8	83.7	67	72.6	2.0	SW	1.00	6.0	84.8	91.4	91.4	29.839	0.00	0.000	0.413	83.7	81	77.2	94.0	30
06/24/01	11:00 a	86.9	88.3	85.4	69	75.5	2.0	NW	1.00	9.0	86.9	96.9	96.9	29.832	0.00	0.000	0.456	85.0	78	77.4	95.7	30
06/24/01	11:30 a	86.5	88.1	85.4	71	76.0	2.0	NE	1.00	9.0	86.5	96.8	96.8	29.825	0.00	0.000	0.448	86.2	77	78.1	98.3	30
06/24/01	12:00 p	85.1	86.7	83.9	71	74.6	3.0	NE	1.50	10.0	85.1	93.5	93.5	29.809	0.00	0.000	0.419	86.8	77	78.7	100.0	30
06/24/01	12:30 p	86.2	87.0	85.3	74	76.9	4.0	SE	2.00	15.0	86.2	97.2	97.2	29.802	0.00	0.000	0.442	87.3	76	78.8	100.7	30
06/24/01	1:00 p	87.7	90.0	85.3	66	74.9	5.0	ESE	2.50	18.0	87.7	96.9	96.9	29.784	0.00	0.000	0.473	87.6	76	79.1	101.2	30
06/24/01	1:30 p	89.6	90.9	86.5	72	79.4	8.0	ESE	4.00	28.0	89.6	105.8	105.8	29.777	0.00	0.000	0.512	88.9	73	79.1	103.8	30
06/24/01	2:00 p	79.3	86.8	74.4	88	75.4	6.0	N	3.00	24.0	79.3	84.9	84.9	29.852	0.44	0.000	0.298	87.5	67	75.2	97.0	30
06/24/01	2:30 p	73.3	74.7	72.5	90	70.2	4.0	N	2.00	18.0	73.3	75.8	75.8	29.857	0.40	0.000	0.173	84.0	69	72.7	90.6	30
06/24/01	3:00 p	73.5	73.9	73.0	88	69.7	1.0	SW	0.50	4.0	73.5	75.8	75.8	29.828	0.24	0.000	0.177	82.4	72	72.5	87.7	30
06/24/01	3:30 p	73.3	73.7	72.7	87	69.2	0.0	---	0.00	1.0	73.3	75.6	75.6	29.842	0.14	0.000	0.173	81.4	72	71.5	85.6	30
06/24/01	4:00 p	72.8	73.3	72.3	89	69.4	0.0	NW	0.00	3.0	72.8	75.2	75.2	29.845	0.11	0.000	0.163	80.7	74	71.6	84.7	30
06/24/01	4:30 p	73.1	73.6	72.3	91	70.3	0.0	NW	0.00	3.0	73.1	75.7	75.7	29.823	0.09	0.000	0.169	80.2	76	71.9	84.1	30
06/24/01	5:00 p	72.9	73.6	72.2	91	70.1	1.0	NE	0.50	6.0	72.9	75.4	75.4	29.829	0.08	0.000	0.165	79.9	76	71.7	83.6	30
06/24/01	5:30 p	73.7	74.3	73.0	89	70.3	1.0	E	0.50	5.0	73.7	76.1	76.1	29.839	0.06	0.000	0.181	80.1	76	71.8	84.0	30
06/24/01	6:00 p	74.1	74.6	73.7	90	71.0	0.0	E	0.00	5.0	74.1	76.6	76.6	29.821	0.05	0.000	0.190	80.2	76	71.9	84.1	30
06/24/01	6:30 p	74.4	74.9	73.9	89	70.9	0.0	ESE	0.00	4.0	74.4	77.1	77.1	29.837	0.03	0.000	0.196	80.1	76	71.8	84.0	30
06/24/01	7:00 p	74.6	75.1	74.2	88	70.8	0.0	---	0.00	0.0	74.6	77.5	77.5	29.837	0.01	0.000	0.200	80.1	77	72.2	84.1	30
06/24/01	7:30 p	74.5	75.2	73.8	91	71.7	1.0	SSW	0.50	7.0	74.5	77.5	77.5	29.842	0.00	0.000	0.198	80.1	77	72.2	84.1	30
06/24/01	8:00 p	73.8	74.4	73.1	91	71.0	1.0	SW	0.50	4.0	73.8	76.3	76.3	29.842	0.00	0.000	0.183	79.8	77	71.9	83.6	30
06/24/01	8:30 p	73.1	73.7	72.6	92	70.6	1.0	SSW	0.50	6.0	73.1	75.7	75.7	29.836	0.00	0.000	0.169	79.4	77	71.6	83.0	30
06/24/01	9:00 p	72.7	73.2	72.1	92	70.2	0.0	SSW	0.00	3.0	72.7	75.3	75.3	29.846	0.00	0.000	0.160	79.0	77	71.2	82.3	30
06/24/01	9:30 p	72.3	72.8	71.7	92	69.8	0.0	SSW	0.00	3.0	72.3	74.8	74.8	29.860	0.00	0.000	0.152	78.7	77	70.9	81.9	30
06/24/01	10:00 p	71.8	72.4	71.2	93	69.7	0.0	SSW	0.00	2.0	71.8	74.3	74.3	29.866	0.00	0.000	0.142	78.2	77	70.4	81.2	30
06/24/01	10:30 p	71.4	71.9	70.9	93	69.3	0.0	SSW	0.00	2.0	71.4	73.9	73.9	29.863	0.00	0.000	0.133	77.8	77	70.0	80.7	30
06/24/01	11:00 p	71.1	71.6	70.5	93	69.0	0.0	SSW	0.00	3.0	71.1	73.6	73.6	29.863	0.00	0.000	0.127	77.4	77	69.6	80.2	30
06/24/01	11:30 p	70.8	71.3	70.4	94	69.0	0.0	SSW	0.00	3.0	70.8	73.4	73.4	29.864	0.00	0.000	0.121	77.2	77	69.4	79.9	30
06/25/01	12:00 a	70.6	71.2	70.2	94	68.8	0.0	SSW	0.00	4.0	70.6	73.1	73.1	29.863	0.00	0.000	0.117	76.8	78	69.4	79.6	30
06/25/01	12:30 a	70.5	70.9	70.1	94	68.7	0.0	SSW	0.00	1.0	70.5	73.0	73.0	29.863	0.00	0.000	0.115	76.6	77	68.8	79.3	30
06/25/01	1:00 a	70.3	70.8	69.8	94	68.5	0.0	SSW	0.00	1.0	70.3	72.8	72.8	29.860	0.00	0.000	0.110	76.4	77	68.7	79.0	30
06/25/01	1:30 a	70.0	70.6	69.5	94	68.2	0.0	SSW	0.00	1.0	70.0	72.4	72.4	29.858	0.00	0.000	0.104	76.1	77	68.4	78.7	30
06/25/01	2:00 a	69.8	70.2	69.3	94	68.0	0.0	---	0.00	1.0	69.8	72.2	72.2	29.856	0.00	0.000	0.100	75.8	77	68.1	78.3	30
06/25/01	2:30 a	69.5	70.1	69.1	94	67.7	0.0	---	0.00	1.0	69.5	71.8	71.8	29.850	0.00	0.000	0.094	75.5	77	67.8	77.9	30
06/25/01	3:00 a	69.2	69.7	68.7	94	67.4	0.0	---	0.00	1.0	69.2	71.5	71.5	29.855	0.00	0.000	0.087	75.3	77	67.6	77.7	30
06/25/01	3:30 a	69.1	69.5	68.6	94	67.3	0.0	SSW	0.00	2.0	69.1	71.4	71.4	29.860	0.00	0.000	0.085	75.0	78	67.7	77.3	30
06/25/01	4:00 a	68.9	69.3	68.4	94	67.1	0.0	SSW	0.00	1.0	68.9	71.1	71.1	29.860	0.01	0.000	0.081	74.8	78	67.5	77.1	30
06/25/01	4:30 a	68.7	69.2	68.2	95	67.2	0.0	SSW	0.00	1.0	68.7	70.9	70.9	29.862	0.00	0.000	0.077	74.6	79	67.7	76.8	30
06/25/01	5:00 a	68.7	69.0	68.1	95	67.2	0.0	SSW	0.00	1.0	68.7	70.9	70.9	29.867	0.00	0.000	0.077	74.4	78	67.1	76.5	30
06/25/01	5:30 a	68.4	68.9	67.8	94	66.6	0.0	---	0.00	0.0	68.4	70.4	70.4	29.888	0.00	0.000	0.071	74.2	79	67.3	76.3	30
06/25/01	6:00 a	68.2	68.6	67.8	95	66.7	0.0	---	0.00	0.0	68.2	70.2	70.2	29.892	0.00	0.000	0.067	74.1	78	66.8	76.1	30
06/25/01	6:30 a	68.5	69.3	67.8	95	67.0	0.0	---	0.00	1.0	68.5	70.6	70.6	29.902	0.00	0.000	0.073	74.0	78	66.7	76.0	30
06/25/01	7:00 a	69.5	70.4	68.6	96	68.3	0.0	SSW	0.00	2.0	69.5	72.1	72.1	29.915	0.00	0.000	0.094	74.0	80	67.4	76.0	30
06/25/01	7:30 a	70.6	71.7	69.9	95	69.1	0.0	SSW	0.00	3.0	70.6	73.2	73.2	29.915	0.00	0.000	0.117	74.4	81	68.2	76.7	30
06/25/01	8:00 a	72.2	73.4	71.0	92	69.7	0.0	WSW	0.00	4.0	72.2	74.7	74.7	29.923	0.00	0.000	0.150	75.1	84	69.9	78.0	30
06/25/01	8:30 a	74.1	75.6	72.6	89	70.6	1.0	WSW	0.50	4.0	74.1	76.6	76.6	29.916	0.00	0.000	0.190	76.3	87	72.1	79.8	30
06/25/01	9:00 a	76.7	78.0	75.0	81	70.4	2.0	NW	1.00	6.0	76.7	79.8	79.8	29.909	0.00	0.000	0.244	77.7	87	73.5	81.9	30
06/25/01	9:30 a	78.8	80.1	77.6	75	70.2	1.0	NW	0.50	5.0	78.8	81.7	81.7	29.910	0.00	0.000	0.288	79.1	87	74.9	84.3	30
06/25/01	10:00 a	81.0	82.3	79.4	65	68.1	1.0	NW	0.50	3.0	81.0	83.5	83.5	29.910	0.00	0.000	0.333	80.7	82	74.7	86.4	30
06/25/01	10:30 a	83.4	85.2	81.7	63	69.5	0.0	NW	0.00	4.0	83.4	87.3	87.3	29.910	0.00	0.000	0.383	82.4	79	75.2	89.7	30
06/25/01	11:00 a	85.9	87.7	84.5	65	72.8	1.0	S	0.50	6.0	85.9	93.2	93.2	29.904	0.00	0.000	0.435	84.1	77	76.1	93.6	30
06/25/01	11:30 a	87.4	88.1	86.8	61	72.3	2.0	ENE	1.00	10.0	87.4	94.5	94.5	29.901	0.00	0.000	0.467	85.5	74	76.3	95.5	30
06/25/01	12:00 p	87.6	88.5	87.0	58	71.0	3.0	ESE	1.50	10.0	87.6	93.7	93.7	29.897	0.00	0.000	0.471	86.5	72	76.4	97.2	30
06/25/01	12:30 p	87.5	88.1	86.5	56	69.9	3.0	ENE	1.50	10.0	87.5	92.8	92.8	29.888	0.00	0.000	0.469	87.4	68	75.5	97.3	30
06/25/01	1:00 p	88.7	90.4	87.3	50	67.7	3.0	ESE	1.50	14.0	88.7	93.0	93.0	29.883	0.00	0.000	0.494	88.2	67	75.9	98.3	30
06/25/01	1:30 p	90.5	91.8	89.9	49	68.7	5.0	ESE	2.50	15.0	90.5	95.7	95.7	29.871	0.00	0.000	0.531	89.0	65	75.7	99.6	30
06/25/01	2:00 p	91.9	93.0	90.9	48	69.4	4.0	ESE	2.00	15.0	91.9	98.0	98.0	29.864	0.00	0.000	0.560	89.6	64	75.8	101.0	30
06/25/01	2:30 p	92.8	93.9	91.5	48	70.2	5.0	ESE	2.50	15.0	92.8	99.8	99.8	29.860	0.00	0.000	0.579	90.4	62	75.6	102.0	30
06/25/01	3:00 p	92.2	93.1	91.6	49	70.3	4.0	E	2.00	12.0	92.2	99.1	99.1	29.850	0.00	0.000	0.567	90.9	61	75.6	102.7	30
06/25/01	3:30 p	92.5	93.1	91.7	51	71.7	5.0	ESE	2.50	16.0	92.5	100.8	100.8	29.849	0.00	0.000	0.573	91.5	60	75.7	103.6	30
06/25/01	4:00 p	91.2	92.5	89.7	57	73.8	5.0	ESE	2.50	17.0	91.2	101.2	101.2	29.834	0.00	0.000	0.546	91.6	60	75.7	103.9	30
06/25/01	4:30 p	89.1	90.1	88.2	56	71.4	4.0	SE	2.00	13.0	89.1	96.0	96.0	29.842	0.00	0.000	0.502	90.7	60	74.9	101.5	30
06/25/01	5:00 p	87.3	88.6	86.0	63	73.2	4.0	ESE	2.00	13.0	87.3	95.2	95.2	29.844	0.00	0.000	0.465	89.4	61	74.2	98.8	30
06/25/01	5:30 p	85.7	86.5	84.9	62	71.2	3.0	SE	1.50	9.0	85.7	91.6	91.6	29.857	0.00	0.000	0.431	88.3	61	73.1	96.0	30
06/25/01	6:00 p	84.7	85.4	84.0	64	71.2	2.0	SSE	1.00	7.0	84.7	90.2	90.2	29.849	0.00	0.000	0.410	87.4	62	72.8	94.9	30
06/25/01	6:30 p	84.0	84.5	83.3	66	71.4	1.0	SSE	0.50	7.0	84.0	89.5	89.5	29.833	0.00	0.000	0.396	86.7	63	72.6	94.2	30
06/25/01	7:00 p	83.7	84.2	83.1	66	71.1	2.0	SE	1.00	8.0	83.7	88.8	88.8	29.847	0.00	0.000	0.390	86.3	65	73.1	94.1	30
06/25/01	7:30 p	83.3	84.0	82.7	69	72.1	2.0	S	1.00	6.0	83.3	88.8	88.8	29.859	0.00	0.000	0.381	86.0	67	73.8	94.2	30
06/25/01	8:00 p	82.5	83.3	81.9	71	72.1	1.0	SSE	0.50	5.0	82.5	87.6	87.6	29.860	0.00	0.000	0.365	85.6	68	73.8	93.6	30
06/25/01	8:30 p	81.6	82.3	80.8	73	72.1	0.0	SSE	0.00	3.0	81.6	86.2	86.2	29.868	0.00	0.000	0.346	85.0	68	73.3	92.2	30
06/25/01	9:00 p	80.7	81.3	79.9	75	72.0	0.0	SSE	0.00	2.0	80.7	84.9	84.9	29.881	0.00	0.000	0.327	84.7	69	73.4	91.9	30
06/25/01	9:30 p	79.9	80.4	79.3	78	72.4	0.0	SSE	0.00	3.0	79.9	84.0	84.0	29.897	0.00	0.000	0.310	84.2	70	73.3	91.3	30
06/25/01	10:00 p	79.3	79.9	78.9	79	72.2	1.0	SSE	0.50	3.0	79.3	83.1	83.1	29.910	0.00	0.000	0.298	83.7	71	73.3	90.5	30
06/25/01	10:30 p	78.9	79.5	78.3	81	72.6	1.0	SSE	0.50	6.0	78.9	82.8	82.8	29.913	0.00	0.000	0.290	83.3	72	73.3	89.8	30
06/25/01	11:00 p	78.3	78.8	77.8	83	72.7	0.0	S	0.00	4.0	78.3	82.3	82.3	29.908	0.00	0.000	0.277	82.9	73	73.4	89.2	30
06/25/01	11:30 p	77.8	78.4	77.2	83	72.2	0.0	---	0.00	0.0	77.8	81.5	81.5	29.917	0.00	0.000	0.267	82.5	74	73.4	88.5	30
06/26/01	12:00 a	77.3	77.8	76.7	84	72.1	0.0	S	0.00	2.0	77.3	80.9	80.9	29.924	0.00	0.000	0.256	82.0	75	73.3	87.5	30
06/26/01	12:30 a	76.8	77.4	76.3	85	71.9	0.0	---	0.00	1.0	76.8	80.3	80.3	29.931	0.00	0.000	0.246	81.6	76	73.3	86.9	30
06/26/01	1:00 a	76.4	77.0	75.8	86	71.9	0.0	---	0.00	0.0	76.4	79.8	79.8	29.923	0.00	0.000	0.238	81.3	77	73.4	86.5	30
06/26/01	1:30 a	75.8	76.4	75.2	86	71.3	0.0	---	0.00	0.0	75.8	79.0	79.0	29.920	0.00	0.000	0.225	80.9	77	73.0	85.7	30
06/26/01	2:00 a	75.3	76.0	74.8	87	71.2	0.0	---	0.00	0.0	75.3	78.5	78.5	29.913	0.00	0.000	0.215	80.5	77	72.6	84.9	30
06/26/01	2:30 a	74.8	75.4	74.3	88	71.0	0.0	---	0.00	0.0	74.8	77.9	77.9	29.912	0.00	0.000	0.204	80.1	77	72.2	84.1	30
06/26/01	3:00 a	74.5	75.0	73.9	88	70.7	0.0	---	0.00	0.0	74.5	77.3	77.3	29.908	0.00	0.000	0.198	79.9	76	71.7	83.6	30
06/26/01	3:30 a	74.1	74.6	73.6	89	70.6	0.0	---	0.00	0.0	74.1	76.6	76.6	29.920	0.00	0.000	0.190	79.6	75	71.0	83.0	30
06/26/01	4:00 a	73.8	74.3	73.3	89	70.4	0.0	---	0.00	0.0	73.8	76.2	76.2	29.920	0.00	0.000	0.183	79.3	75	70.7	82.5	30
06/26/01	4:30 a	73.4	73.9	72.9	89	70.0	0.0	---	0.00	0.0	73.4	75.8	75.8	29.925	0.00	0.000	0.175	79.0	74	70.0	81.9	30
06/26/01	5:00 a	73.1	73.6	72.6	89	69.7	0.0	---	0.00	0.0	73.1	75.5	75.5	29.938	0.00	0.000	0.169	78.7	75	70.1	81.6	30
06/26/01	5:30 a	72.9	73.3	72.4	90	69.8	0.0	---	0.00	0.0	72.9	75.4	75.4	29.946	0.00	0.000	0.165	78.5	74	69.5	81.2	30
06/26/01	6:00 a	72.7	73.1	72.3	91	69.9	0.0	---	0.00	0.0	72.7	75.2	75.2	29.956	0.00	0.000	0.160	78.3	74	69.3	80.9	30
06/26/01	6:30 a	72.9	73.4	72.5	91	70.1	0.0	---	0.00	0.0	72.9	75.4	75.4	29.966	0.01	0.000	0.165	78.1	75	69.5	80.7	30
06/26/01	7:00 a	73.8	75.1	72.7	92	71.3	0.0	S	0.00	2.0	73.8	76.4	76.4	29.980	0.00	0.000	0.183	78.1	76	69.9	80.9	30
06/26/01	7:30 a	75.9	77.1	74.4	90	72.8	0.0	N	0.00	2.0	75.9	79.4	79.4	29.988	0.00	0.000	0.227	78.4	76	70.2	81.3	30
06/26/01	8:00 a	77.8	79.0	76.8	87	73.6	0.0	N	0.00	3.0	77.8	82.1	82.1	29.993	0.00	0.000	0.267	79.2	80	72.5	83.1	30
06/26/01	8:30 a	79.6	80.6	78.5	85	74.7	1.0	N	0.50	6.0	79.6	84.8	84.8	30.003	0.00	0.000	0.304	80.5	84	75.2	86.5	30
06/26/01	9:00 a	81.5	82.8	80.3	81	75.1	2.0	ENE	1.00	9.0	81.5	88.0	88.0	30.005	0.00	0.000	0.344	82.1	85	77.1	90.7	30
06/26/01	9:30 a	83.5	84.7	82.3	80	76.7	2.0	NE	1.00	7.0	83.5	93.1	93.1	29.993	0.00	0.000	0.385	83.7	86	79.1	95.6	30
06/26/01	10:00 a	85.2	86.2	84.1	77	77.2	3.0	NE	1.50	14.0	85.2	95.8	95.8	29.996	0.00	0.000	0.421	85.3	84	79.9	98.8	30
06/26/01	10:30 a	87.0	88.4	85.8	66	74.3	3.0	ESE	1.50	19.0	87.0	96.0	96.0	29.975	0.00	0.000	0.458	86.6	79	79.3	100.3	30
06/26/01	11:00 a	87.8	88.5	87.0	63	73.6	3.0	NE	1.50	11.0	87.8	95.8	95.8	29.977	0.00	0.000	0.475	87.5	76	79.0	101.1	30
06/26/01	11:30 a	87.5	88.4	86.7	61	72.4	3.0	NE	1.50	9.0	87.5	94.6	94.6	29.976	0.00	0.000	0.469	88.4	73	78.6	102.0	30
06/26/01	12:00 p	88.5	89.1	87.8	64	74.8	4.0	NE	2.00	14.0	88.5	97.8	97.8	29.977	0.00	0.000	0.490	89.4	71	78.8	104.4	30
06/26/01	12:30 p	89.8	90.5	88.7	62	75.0	5.0	ENE	2.50	13.0	89.8	100.4	100.4	29.970	0.00	0.000	0.517	90.5	69	78.9	106.8	30
06/26/01	1:00 p	91.9	93.1	90.1	59	75.5	5.0	ESE	2.50	16.0	91.9	104.1	104.1	29.963	0.00	0.000	0.560	91.3	68	79.3	108.6	30
06/26/01	1:30 p	92.1	92.9	91.0	57	74.7	3.0	ENE	1.50	11.0	92.1	103.5	103.5	29.948	0.00	0.000	0.565	92.1	67	79.6	110.4	30
06/26/01	2:00 p	92.9	94.1	92.0	56	74.9	5.0	NE	2.50	12.0	92.9	105.0	105.0	29.947	0.00	0.000	0.581	92.8	66	79.8	111.9	30
06/26/01	2:30 p	93.5	94.1	92.5	58	76.5	5.0	E	2.50	16.0	93.5	107.9	107.9	29.940	0.00	0.000	0.594	93.2	65	79.7	112.3	30
06/26/01	3:00 p	93.6	94.8	92.9	58	76.6	5.0	E	2.50	19.0	93.6	108.2	108.2	29.946	0.00	0.000	0.596	93.7	65	80.2	113.9	30
06/26/01	3:30 p	91.6	94.8	89.6	68	79.5	5.0	ESE	2.50	16.0	91.6	109.5	109.5	29.954	0.00	0.000	0.554	93.8	66	80.7	115.1	30
06/26/01	4:00 p	87.9	90.1	85.0	63	73.7	7.0	ESE	3.50	25.0	87.9	95.9	95.9	29.968	0.00	0.000	0.477	92.3	61	76.9	106.5	30
06/26/01	4:30 p	83.8	85.2	82.8	65	70.8	6.0	ESE	3.00	17.0	83.8	88.7	88.7	29.956	0.00	0.000	0.392	89.7	61	74.5	99.6	30
06/26/01	5:00 p	83.1	83.4	82.5	68	71.4	4.0	ESE	2.00	14.0	83.1	88.0	88.0	29.947	0.00	0.000	0.377	88.2	62	73.5	96.2	30
06/26/01	5:30 p	82.7	83.1	82.2	71	72.3	2.0	SE	1.00	8.0	82.7	88.1	88.1	29.940	0.00	0.000	0.369	87.4	65	74.2	96.1	30
06/26/01	6:00 p	82.5	82.9	82.0	71	72.1	1.0	SE	0.50	4.0	82.5	87.6	87.6	29.949	0.00	0.000	0.365	86.9	66	74.2	95.8	30
06/26/01	6:30 p	82.1	82.6	81.5	73	72.6	0.0	SSE	0.00	2.0	82.1	87.3	87.3	29.945	0.00	0.000	0.356	86.4	67	74.1	95.0	30
06/26/01	7:00 p	81.6	82.1	81.0	75	72.9	1.0	SE	0.50	10.0	81.6	86.7	86.7	29.957	0.00	0.000	0.346	85.9	68	74.1	94.3	30
06/26/01	7:30 p	81.1	81.5	80.7	78	73.6	1.0	ESE	0.50	8.0	81.1	86.3	86.3	29.966	0.00	0.000	0.335	85.5	70	74.6	94.1	30
06/26/01	8:00 p	80.8	81.2	80.3	80	74.0	0.0	ESE	0.00	3.0	80.8	86.1	86.1	29.962	0.00	0.000	0.329	85.2	71	74.7	93.7	30
06/26/01	8:30 p	80.5	80.9	80.1	81	74.1	0.0	ESE	0.00	3.0	80.5	85.7	85.7	29.950	0.00	0.000	0.323	84.9	72	74.9	93.4	30
06/26/01	9:00 p	80.3	80.7	79.9	82	74.3	0.0	ESE	0.00	3.0	80.3	85.6	85.6	29.961	0.00	0.000	0.319	84.6	73	75.0	93.1	30
06/26/01	9:30 p	79.9	80.6	79.3	83	74.3	0.0	---	0.00	0.0	79.9	85.0	85.0	29.985	0.00	0.000	0.310	84.3	75	75.5	93.3	30
06/26/01	10:00 p	79.6	80.0	79.2	86	75.0	1.0	SE	0.50	7.0	79.6	85.1	85.1	29.994	0.00	0.000	0.304	83.9	76	75.5	92.8	30
06/26/01	10:30 p	79.9	80.4	79.3	77	72.0	4.0	ESE	2.00	14.0	79.9	83.8	83.8	30.000	0.00	0.000	0.310	83.8	75	75.0	92.2	30
06/26/01	11:00 p	80.1	80.5	79.7	78	72.6	3.0	SE	1.50	12.0	80.1	84.3	84.3	29.995	0.00	0.000	0.315	83.6	74	74.4	91.3	30
06/26/01	11:30 p	80.1	80.5	79.7	79	73.0	3.0	ESE	1.50	9.0	80.1	84.5	84.5	30.000	0.00	0.000	0.315	83.4	75	74.6	91.1	30
06/27/01	12:00 a	79.9	80.3	79.4	82	73.9	2.0	ESE	1.00	8.0	79.9	84.8	84.8	29.994	0.00	0.000	0.310	83.3	76	74.9	91.2	30
06/27/01	12:30 a	79.7	80.1	79.3	84	74.4	2.0	SE	1.00	9.0	79.7	84.8	84.8	29.985	0.00	0.000	0.306	83.1	78	75.5	91.3	30
06/27/01	1:00 a	79.6	80.0	79.1	86	75.0	0.0	SE	0.00	2.0	79.6	85.1	85.1	29.977	0.00	0.000	0.304	83.0	79	75.8	91.4	30
06/27/01	1:30 a	79.3	79.8	78.9	87	75.1	0.0	ESE	0.00	6.0	79.3	84.7	84.7	29.975	0.00	0.000	0.298	82.8	80	76.0	91.1	30
06/27/01	2:00 a	79.3	79.8	78.9	88	75.4	2.0	ESE	1.00	11.0	79.3	84.9	84.9	29.966	0.00	0.000	0.298	82.7	81	76.3	91.1	30
06/27/01	2:30 a	79.4	79.8	79.0	86	74.8	2.0	SE	1.00	7.0	79.4	84.7	84.7	29.962	0.00	0.000	0.300	82.6	82	76.5	91.2	30
06/27/01	3:00 a	79.3	79.8	78.9	86	74.7	1.0	SE	0.50	7.0	79.3	84.5	84.5	29.952	0.00	0.000	0.298	82.5	82	76.4	90.9	30
06/27/01	3:30 a	79.1	79.6	78.5	83	73.5	1.0	ESE	0.50	5.0	79.1	83.5	83.5	29.960	0.00	0.000	0.294	82.3	81	75.9	90.0	30
06/27/01	4:00 a	78.7	79.3	78.1	83	73.1	1.0	SE	0.50	5.0	78.7	82.9	82.9	29.966	0.00	0.000	0.285	82.1	80	75.3	89.2	30
06/27/01	4:30 a	78.3	78.9	77.6	85	73.4	0.0	SE	0.00	1.0	78.3	82.6	82.6	29.981	0.00	0.000	0.277	81.7	80	74.9	88.2	30
06/27/01	5:00 a	77.8	78.3	77.3	87	73.6	0.0	SE	0.00	5.0	77.8	82.1	82.1	29.992	0.00	0.000	0.267	81.5	80	74.7	87.7	30
06/27/01	5:30 a	78.2	78.7	77.6	87	74.0	2.0	ESE	1.00	7.0	78.2	82.7	82.7	29.996	0.00	0.000	0.275	81.4	80	74.6	87.5	30
06/27/01	6:00 a	78.3	78.7	77.9	85	73.4	2.0	ESE	1.00	6.0	78.3	82.6	82.6	29.996	0.00	0.000	0.277	81.4	80	74.6	87.5	30
06/27/01	6:30 a	78.3	78.7	77.9	84	73.1	0.0	E	0.00	4.0	78.3	82.4	82.4	29.993	0.00	0.000	0.277	81.4	80	74.6	87.5	30
06/27/01	7:00 a	78.4	78.8	77.9	86	73.9	0.0	E	0.00	1.0	78.4	82.9	82.9	29.988	0.00	0.000	0.279	81.3	80	74.5	87.2	30
06/27/01	7:30 a	79.2	80.2	78.2	81	72.9	1.0	E	0.50	7.0	79.2	83.3	83.3	30.004	0.00	0.000	0.296	81.4	80	74.6	87.5	30
06/27/01	8:00 a	80.7	81.5	79.6	77	72.8	3.0	ENE	1.50	11.0	80.7	85.3	85.3	30.003	0.00	0.000	0.327	82.1	81	75.7	89.5	30
06/27/01	8:30 a	81.8	82.8	80.9	77	73.9	2.0	ENE	1.00	10.0	81.8	87.6	87.6	30.007	0.00	0.000	0.350	83.2	81	76.8	92.5	30
06/27/01	9:00 a	82.7	83.3	82.1	78	75.1	2.0	ENE	1.00	8.0	82.7	90.2	90.2	30.014	0.00	0.000	0.369	84.1	81	77.6	95.0	30
06/27/01	9:30 a	83.7	84.5	82.9	77	75.7	3.0	NE	1.50	10.0	83.7	92.6	92.6	30.017	0.00	0.000	0.390	84.9	81	78.4	96.6	30
06/27/01	10:00 a	83.1	83.8	82.5	80	76.3	2.0	NE	1.00	14.0	83.1	92.0	92.0	30.024	0.00	0.000	0.377	85.4	80	78.5	97.4	30
06/27/01	10:30 a	79.9	83.2	78.0	85	75.0	4.0	SSE	2.00	28.0	79.9	85.4	85.4	30.023	0.51	0.000	0.310	84.4	77	76.4	94.2	30
06/27/01	11:00 a	78.2	78.8	77.8	86	73.7	0.0	SSE	0.00	1.0	78.2	82.6	82.6	30.028	0.19	0.000	0.275	83.0	80	76.2	91.7	30
06/27/01	11:30 a	78.1	79.0	77.3	87	73.9	2.0	E	1.00	17.0	78.1	82.6	82.6	30.013	0.05	0.000	0.273	82.7	79	75.5	90.6	30
06/27/01	12:00 p	79.2	80.7	77.8	79	72.1	2.0	NE	1.00	6.0	79.2	83.0	83.0	30.000	0.00	0.000	0.296	82.9	81	76.5	91.7	30
06/27/01	12:30 p	81.0	82.0	80.0	75	72.3	2.0	NE	1.00	7.0	81.0	85.4	85.4	29.995	0.00	0.000	0.333	83.9	78	76.3	93.5	30
06/27/01	1:00 p	82.9	84.3	81.5	72	72.9	2.0	NE	1.00	8.0	82.9	88.9	88.9	29.991	0.00	0.000	0.373	85.1	78	77.5	95.9	30
06/27/01	1:30 p	84.0	84.8	83.3	75	75.2	2.0	NE	1.00	11.0	84.0	92.7	92.7	29.991	0.01	0.000	0.396	86.7	76	78.2	99.3	30
06/27/01	2:00 p	83.6	84.0	83.2	77	75.6	1.0	N	0.50	7.0	83.6	92.3	92.3	29.986	0.00	0.000	0.387	87.1	76	78.6	100.3	30
06/27/01	2:30 p	82.0	83.9	79.3	85	77.0	3.0	NE	1.50	12.0	82.0	90.4	90.4	29.981	0.05	0.000	0.354	86.5	76	78.0	98.7	30
06/27/01	3:00 p	77.9	79.6	76.5	90	74.7	4.0	N	2.00	14.0	77.9	82.6	82.6	29.978	0.13	0.000	0.269	84.8	77	76.8	94.9	30
06/27/01	3:30 p	76.7	77.1	76.3	91	73.9	2.0	NE	1.00	9.0	76.7	80.6	80.6	29.970	0.09	0.000	0.244	83.6	79	76.4	93.0	30
06/27/01	4:00 p	76.6	77.2	76.1	90	73.4	2.0	N	1.00	10.0	76.6	80.4	80.4	29.970	0.06	0.000	0.242	83.0	79	75.8	91.4	30
06/27/01	4:30 p	76.6	77.7	75.9	91	73.8	2.0	NNE	1.00	9.0	76.6	80.5	80.5	29.953	0.03	0.000	0.242	82.6	81	76.2	90.9	30
06/27/01	5:00 p	77.2	78.0	76.4	90	74.0	4.0	NE	2.00	12.0	77.2	81.4	81.4	29.975	0.03	0.000	0.254	82.6	81	76.2	90.9	30
06/27/01	5:30 p	76.2	77.1	75.5	91	73.4	2.0	NE	1.00	9.0	76.2	79.9	79.9	29.988	0.06	0.000	0.233	82.1	81	75.7	89.5	30
06/27/01	6:00 p	75.7	76.3	75.0	91	72.9	2.0	E	1.00	13.0	75.7	79.3	79.3	30.005	0.05	0.000	0.223	81.6	80	74.8	87.9	30
06/27/01	6:30 p	75.4	75.9	74.8	88	71.6	3.0	ESE	1.50	15.0	75.4	78.7	78.7	30.005	0.05	0.000	0.217	81.1	80	74.3	86.7	30
06/27/01	7:00 p	75.0	75.6	74.5	89	71.5	2.0	E	1.00	9.0	75.0	78.3	78.3	29.996	0.03	0.000	0.208	80.7	80	74.0	85.9	30
06/27/01	7:30 p	75.0	75.5	74.4	92	72.5	3.0	E	1.50	14.0	75.0	78.5	78.5	29.994	0.03	0.000	0.208	80.5	81	74.1	85.7	30
06/27/01	8:00 p	75.2	75.8	74.4	86	70.7	6.0	ESE	3.00	20.0	75.2	78.3	78.3	29.980	0.03	0.000	0.212	80.4	81	74.0	85.5	30
06/27/01	8:30 p	74.3	75.1	73.5	87	70.2	4.0	SE	2.00	17.0	74.3	76.8	76.8	29.977	0.02	0.000	0.194	79.9	79	72.8	84.2	30
06/27/01	9:00 p	73.9	74.4	73.5	89	70.5	3.0	SE	1.50	12.0	73.9	76.3	76.3	29.975	0.01	0.000	0.185	79.7	79	72.6	83.8	30
06/27/01	9:30 p	74.3	74.9	73.8	91	71.5	4.0	SE	2.00	16.0	74.3	77.1	77.1	29.968	0.02	0.000	0.194	79.8	80	73.1	84.2	30
06/27/01	10:00 p	74.9	75.5	74.3	92	72.4	2.0	SE	1.00	12.0	74.9	78.3	78.3	29.955	0.00	0.000	0.206	79.8	81	73.4	84.4	30
06/27/01	10:30 p	75.3	75.9	74.7	93	73.1	3.0	SE	1.50	13.0	75.3	78.9	78.9	29.958	0.01	0.000	0.215	79.8	82	73.8	84.6	30
06/27/01	11:00 p	75.8	76.3	75.2	93	73.6	3.0	SE	1.50	14.0	75.8	79.6	79.6	29.959	0.00	0.000	0.225	79.9	82	73.9	84.8	30
06/27/01	11:30 p	76.2	76.6	75.6	93	74.0	2.0	ESE	1.00	9.0	76.2	80.1	80.1	29.959	0.00	0.000	0.233	80.0	83	74.4	85.2	30
06/28/01	12:00 a	76.2	76.7	75.8	94	74.3	0.0	SE	0.00	4.0	76.2	80.2	80.2	29.966	0.00	0.000	0.233	80.0	84	74.7	85.4	30
06/28/01	12:30 a	76.0	76.5	75.5	94	74.1	0.0	SE	0.00	3.0	76.0	79.9	79.9	29.967	0.00	0.000	0.229	79.9	83	74.3	85.0	30
06/28/01	1:00 a	75.7	76.2	75.0	94	73.8	0.0	SE	0.00	2.0	75.7	79.5	79.5	29.959	0.00	0.000	0.223	79.7	82	73.7	84.4	30
06/28/01	1:30 a	75.3	75.7	74.7	95	73.8	0.0	---	0.00	1.0	75.3	79.1	79.1	29.952	0.00	0.000	0.215	79.5	82	73.5	84.1	30
06/28/01	2:00 a	75.1	75.4	74.6	95	73.6	0.0	---	0.00	0.0	75.1	78.8	78.8	29.950	0.00	0.000	0.210	79.4	82	73.4	83.9	30
06/28/01	2:30 a	75.0	75.4	74.6	96	73.8	0.0	---	0.00	0.0	75.0	78.7	78.7	29.949	0.00	0.000	0.208	79.2	82	73.2	83.5	30
06/28/01	3:00 a	75.0	75.5	74.5	97	74.1	0.0	SE	0.00	1.0	75.0	78.7	78.7	29.942	0.01	0.000	0.208	79.2	84	73.9	83.9	30
06/28/01	3:30 a	75.2	75.7	74.7	94	73.4	0.0	ENE	0.00	5.0	75.2	78.9	78.9	29.940	0.00	0.000	0.212	79.2	83	73.6	83.7	30
06/28/01	4:00 a	75.1	75.6	74.5	93	72.9	2.0	ENE	1.00	17.0	75.1	78.7	78.7	29.954	0.01	0.000	0.210	79.2	84	73.9	83.9	30
06/28/01	4:30 a	74.4	75.0	73.7	94	72.6	1.0	SSE	0.50	6.0	74.4	77.6	77.6	29.943	0.02	0.000	0.196	79.0	83	73.4	83.3	30
06/28/01	5:00 a	73.9	74.4	73.3	94	72.1	0.0	SSE	0.00	1.0	73.9	76.8	76.8	29.943	0.02	0.000	0.185	78.7	83	73.1	82.9	30
06/28/01	5:30 a	73.5	74.0	73.1	95	72.0	0.0	SSE	0.00	2.0	73.5	76.4	76.4	29.954	0.02	0.000	0.177	78.6	82	72.6	82.6	30
06/28/01	6:00 a	73.5	74.0	73.1	94	71.7	1.0	SSE	0.50	5.0	73.5	76.3	76.3	29.949	0.02	0.000	0.177	78.5	82	72.5	82.4	30
06/28/01	6:30 a	73.4	73.9	73.0	94	71.6	1.0	S	0.50	5.0	73.4	76.2	76.2	29.959	0.01	0.000	0.175	78.4	82	72.4	82.3	30
06/28/01	7:00 a	73.3	73.7	72.9	94	71.5	1.0	S	0.50	5.0	73.3	76.1	76.1	29.965	0.01	0.000	0.173	78.2	83	72.6	82.1	30
06/28/01	7:30 a	73.3	73.7	72.8	94	71.5	2.0	SSW	1.00	8.0	73.3	76.1	76.1	29.971	0.02	0.000	0.173	78.1	83	72.5	82.0	30
06/28/01	8:00 a	72.9	73.4	72.3	95	71.4	2.0	SSW	1.00	7.0	72.9	75.7	75.7	29.984	0.01	0.000	0.165	77.9	83	72.3	81.7	30
06/28/01	8:30 a	72.5	73.1	72.0	95	71.0	3.0	SSW	1.50	8.0	72.5	75.3	75.3	29.986	0.02	0.000	0.156	77.8	84	72.6	81.7	30
06/28/01	9:00 a	72.4	73.0	72.0	95	70.9	1.0	S	0.50	6.0	72.4	75.2	75.2	29.977	0.06	0.000	0.154	77.6	84	72.4	81.4	30
06/28/01	9:30 a	72.7	73.2	72.2	95	71.2	1.0	SSE	0.50	4.0	72.7	75.5	75.5	29.974	0.06	0.000	0.160	77.6	84	72.4	81.4	30
06/28/01	10:00 a	73.0	73.6	72.4	94	71.2	1.0	SSE	0.50	5.0	73.0	75.7	75.7	29.979	0.05	0.000	0.167	77.6	84	72.4	81.4	30
06/28/01	10:30 a	73.4	73.9	72.9	94	71.6	2.0	SSW	1.00	6.0	73.4	76.2	76.2	29.980	0.04	0.000	0.175	77.7	85	72.8	81.6	30
06/28/01	11:00 a	74.0	74.6	73.2	93	71.8	1.0	SSW	0.50	5.0	74.0	76.8	76.8	29.972	0.04	0.000	0.188	77.9	85	73.0	81.9	30
06/28/01	11:30 a	74.9	75.9	74.0	90	71.8	0.0	SSW	0.00	2.0	74.9	78.2	78.2	29.970	0.03	0.000	0.206	78.4	84	73.2	82.6	30
06/28/01	12:00 p	75.8	76.7	75.1	89	72.3	0.0	SSW	0.00	1.0	75.8	79.2	79.2	29.963	0.03	0.000	0.225	78.8	84	73.6	83.2	30
06/28/01	12:30 p	77.0	78.1	76.1	85	72.1	0.0	SSW	0.00	3.0	77.0	80.6	80.6	29.951	0.03	0.000	0.250	79.4	84	74.1	84.3	30
06/28/01	1:00 p	78.8	80.8	77.5	83	73.2	0.0	SSW	0.00	5.0	78.8	83.0	83.0	29.940	0.03	0.000	0.288	80.4	84	75.1	86.2	30
06/28/01	1:30 p	80.6	81.4	79.9	79	73.5	1.0	E	0.50	5.0	80.6	85.5	85.5	29.933	0.03	0.000	0.325	81.8	83	76.1	89.3	30
06/28/01	2:00 p	80.7	81.3	80.1	80	74.0	2.0	E	1.00	7.0	80.7	85.9	85.9	29.929	0.02	0.000	0.327	82.7	82	76.6	91.4	30
06/28/01	2:30 p	80.4	80.9	80.1	79	73.3	2.0	ENE	1.00	7.0	80.4	85.1	85.1	29.920	0.02	0.000	0.321	83.2	81	76.8	92.5	30
06/28/01	3:00 p	80.8	81.3	80.3	78	73.3	1.0	NE	0.50	5.0	80.8	85.7	85.7	29.916	0.02	0.000	0.329	83.5	80	76.7	93.1	30
06/28/01	3:30 p	80.5	81.1	80.1	79	73.4	1.0	NE	0.50	7.0	80.5	85.3	85.3	29.911	0.02	0.000	0.323	83.7	79	76.5	93.3	30
06/28/01	4:00 p	80.4	80.7	79.8	79	73.3	2.0	ENE	1.00	9.0	80.4	85.1	85.1	29.901	0.02	0.000	0.321	83.8	79	76.6	93.6	30
06/28/01	4:30 p	80.3	81.0	79.6	77	72.4	2.0	ENE	1.00	8.0	80.3	84.5	84.5	29.887	0.01	0.000	0.319	83.7	78	76.1	93.0	30
06/28/01	5:00 p	80.2	81.0	79.4	80	73.5	2.0	ENE	1.00	7.0	80.2	84.9	84.9	29.895	0.02	0.000	0.317	83.8	78	76.2	93.2	30
06/28/01	5:30 p	79.4	80.2	78.6	82	73.4	2.0	NE	1.00	7.0	79.4	83.9	83.9	29.892	0.01	0.000	0.300	83.5	78	75.9	92.4	30
06/28/01	6:00 p	78.7	79.3	78.3	84	73.5	1.0	NNE	0.50	6.0	78.7	83.1	83.1	29.884	0.01	0.000	0.285	83.2	79	76.0	91.9	30
06/28/01	6:30 p	78.3	78.8	77.8	85	73.4	1.0	NE	0.50	5.0	78.3	82.6	82.6	29.891	0.01	0.000	0.277	83.0	80	76.2	91.7	30
06/28/01	7:00 p	77.9	78.5	77.5	86	73.4	2.0	NE	1.00	6.0	77.9	82.1	82.1	29.889	0.00	0.000	0.269	82.8	80	76.0	91.1	30
06/28/01	7:30 p	77.7	78.1	77.3	87	73.5	1.0	E	0.50	6.0	77.7	81.9	81.9	29.894	0.01	0.000	0.265	82.5	81	76.1	90.6	30
06/28/01	8:00 p	77.6	78.0	77.2	88	73.8	1.0	ENE	0.50	6.0	77.6	81.8	81.8	29.892	0.00	0.000	0.262	82.3	81	75.9	90.0	30
06/28/01	8:30 p	77.6	78.0	77.2	90	74.4	1.0	NE	0.50	4.0	77.6	82.1	82.1	29.894	0.01	0.000	0.262	82.1	82	76.1	89.8	30
06/28/01	9:00 p	77.6	78.0	77.2	90	74.4	1.0	ENE	0.50	5.0	77.6	82.1	82.1	29.892	0.00	0.000	0.262	82.1	83	76.4	90.1	30
06/28/01	9:30 p	77.8	78.2	77.4	90	74.6	1.0	ENE	0.50	5.0	77.8	82.4	82.4	29.889	0.00	0.000	0.267	81.7	84	76.4	89.3	30
06/28/01	10:00 p	77.8	78.1	77.4	91	75.0	0.0	ENE	0.00	3.0	77.8	82.6	82.6	29.889	0.00	0.000	0.267	81.4	84	76.1	88.6	30
06/28/01	10:30 p	77.7	78.2	77.3	92	75.2	0.0	ENE	0.00	3.0	77.7	82.5	82.5	29.891	0.00	0.000	0.265	81.2	83	75.5	87.8	30
06/28/01	11:00 p	77.5	78.0	76.9	92	75.0	0.0	ENE	0.00	2.0	77.5	82.1	82.1	29.894	0.00	0.000	0.260	81.0	83	75.3	87.3	30
06/28/01	11:30 p	77.2	77.6	76.8	91	74.4	0.0	ENE	0.00	3.0	77.2	81.5	81.5	29.891	0.00	0.000	0.254	80.8	82	74.8	86.6	30
06/29/01	12:00 a	77.0	77.5	76.5	93	74.8	0.0	ENE	0.00	3.0	77.0	81.3	81.3	29.889	0.00	0.000	0.250	80.6	83	75.0	86.4	30
06/29/01	12:30 a	76.6	77.2	76.2	88	72.8	1.0	SE	0.50	12.0	76.6	80.3	80.3	29.882	0.00	0.000	0.242	80.3	83	74.7	85.8	30
06/29/01	1:00 a	76.4	77.0	75.9	86	71.9	0.0	SE	0.00	3.0	76.4	79.8	79.8	29.869	0.00	0.000	0.238	80.1	82	74.1	85.1	30
06/29/01	1:30 a	75.8	76.4	75.1	89	72.3	0.0	---	0.00	0.0	75.8	79.2	79.2	29.861	0.00	0.000	0.225	79.8	81	73.4	84.4	30
06/29/01	2:00 a	75.0	75.7	74.3	90	71.9	0.0	---	0.00	0.0	75.0	78.4	78.4	29.860	0.00	0.000	0.208	79.4	81	73.1	83.7	30
06/29/01	2:30 a	74.4	74.9	73.8	92	71.9	0.0	---	0.00	0.0	74.4	77.4	77.4	29.859	0.00	0.000	0.196	79.1	82	73.1	83.3	30
06/29/01	3:00 a	74.0	74.4	73.6	92	71.5	0.0	---	0.00	0.0	74.0	76.6	76.6	29.853	0.00	0.000	0.188	78.8	81	72.5	82.7	30
06/29/01	3:30 a	73.9	74.3	73.5	93	71.7	0.0	---	0.00	0.0	73.9	76.7	76.7	29.864	0.00	0.000	0.185	78.6	81	72.3	82.4	30
06/29/01	4:00 a	73.8	74.1	73.3	94	72.0	0.0	---	0.00	0.0	73.8	76.7	76.7	29.861	0.00	0.000	0.183	78.4	81	72.1	82.1	30
06/29/01	4:30 a	73.5	74.0	73.1	94	71.7	0.0	---	0.00	0.0	73.5	76.3	76.3	29.862	0.00	0.000	0.177	78.2	81	71.9	81.8	30
06/29/01	5:00 a	73.4	73.8	73.0	94	71.6	0.0	---	0.00	0.0	73.4	76.2	76.2	29.873	0.00	0.000	0.175	78.0	81	71.7	81.5	30
06/29/01	5:30 a	73.3	73.7	72.9	95	71.8	0.0	---	0.00	0.0	73.3	76.2	76.2	29.880	0.00	0.000	0.173	77.9	81	71.6	81.4	30
06/29/01	6:00 a	73.3	73.7	72.9	95	71.8	0.0	---	0.00	0.0	73.3	76.2	76.2	29.875	0.00	0.000	0.173	77.8	81	71.5	81.3	30
06/29/01	6:30 a	73.6	74.4	73.0	96	72.4	0.0	---	0.00	0.0	73.6	76.7	76.7	29.883	0.00	0.000	0.179	77.7	82	71.8	81.2	30
06/29/01	7:00 a	74.9	76.0	73.9	96	73.7	0.0	SE	0.00	4.0	74.9	78.6	78.6	29.887	0.00	0.000	0.206	77.8	83	72.2	81.5	30
06/29/01	7:30 a	76.7	77.9	75.5	91	73.9	1.0	SE	0.50	7.0	76.7	80.6	80.6	29.893	0.00	0.000	0.244	78.3	85	73.4	82.6	30
06/29/01	8:00 a	78.2	79.1	77.3	85	73.3	2.0	SE	1.00	8.0	78.2	82.4	82.4	29.890	0.00	0.000	0.275	79.2	88	75.3	84.7	30
06/29/01	8:30 a	79.5	80.5	78.5	79	72.4	3.0	SE	1.50	10.0	79.5	83.5	83.5	29.886	0.00	0.000	0.302	80.4	87	76.2	87.0	30
06/29/01	9:00 a	81.4	83.0	79.8	76	73.1	4.0	ESE	2.00	12.0	81.4	86.5	86.5	29.888	0.00	0.000	0.342	81.8	86	77.2	90.2	30
06/29/01	9:30 a	84.0	85.2	82.4	72	74.0	4.0	ESE	2.00	12.0	84.0	91.6	91.6	29.881	0.00	0.000	0.396	83.5	85	78.5	94.6	30
06/29/01	10:00 a	85.5	86.3	84.8	70	74.6	4.0	ENE	2.00	14.0	85.5	94.1	94.1	29.880	0.01	0.000	0.427	84.9	81	78.4	96.6	30
06/29/01	10:30 a	87.0	88.2	85.8	67	74.7	4.0	SE	2.00	11.0	87.0	96.4	96.4	29.878	0.00	0.000	0.458	86.2	79	78.9	99.1	30
06/29/01	11:00 a	88.7	90.1	87.5	68	76.8	5.0	ESE	2.50	14.0	88.7	100.3	100.3	29.875	0.00	0.000	0.494	87.4	78	79.7	101.9	30
06/29/01	11:30 a	90.3	90.9	89.7	67	77.8	4.0	ESE	2.00	16.0	90.3	104.9	104.9	29.873	0.00	0.000	0.527	88.6	77	80.5	105.2	30
06/29/01	12:00 p	90.1	90.8	89.3	69	78.6	4.0	ESE	2.00	16.0	90.1	105.5	105.5	29.863	0.00	0.000	0.523	89.6	76	81.0	108.6	30
06/29/01	12:30 p	89.7	90.4	88.7	66	76.8	5.0	ENE	2.50	16.0	89.7	102.4	102.4	29.856	0.00	0.000	0.515	90.2	75	81.2	110.2	30
06/29/01	1:00 p	91.1	92.2	89.6	63	76.7	4.0	ESE	2.00	17.0	91.1	104.6	104.6	29.843	0.00	0.000	0.544	91.1	73	81.2	112.0	30
06/29/01	1:30 p	92.3	92.9	91.4	61	76.9	5.0	ESE	2.50	16.0	92.3	106.5	106.5	29.839	0.00	0.000	0.569	92.0	70	80.8	112.3	30
06/29/01	2:00 p	92.6	93.2	92.0	60	76.7	6.0	ESE	3.00	18.0	92.6	106.6	106.6	29.825	0.00	0.000	0.575	92.5	68	80.4	112.5	30
06/29/01	2:30 p	93.4	94.0	92.9	56	75.4	6.0	ESE	3.00	18.0	93.4	106.3	106.3	29.805	0.00	0.000	0.592	93.2	66	80.1	113.2	30
06/29/01	3:00 p	94.1	95.1	93.1	58	77.1	7.0	ESE	3.50	18.0	94.1	109.6	109.6	29.804	0.00	0.000	0.606	93.5	66	80.4	114.2	30
06/29/01	3:30 p	93.7	94.4	93.2	56	75.6	7.0	ESE	3.50	18.0	93.7	107.1	107.1	29.801	0.00	0.000	0.598	93.6	64	79.6	112.8	30
06/29/01	4:00 p	93.5	94.3	92.7	58	76.5	6.0	ESE	3.00	17.0	93.5	107.9	107.9	29.807	0.00	0.000	0.594	93.4	64	79.4	112.2	30
06/29/01	4:30 p	92.6	93.7	90.8	63	78.2	6.0	ESE	3.00	16.0	92.6	108.9	108.9	29.793	0.00	0.000	0.575	93.3	64	79.3	111.8	30
06/29/01	5:00 p	89.0	91.2	87.5	68	77.1	4.0	E	2.00	14.0	89.0	101.2	101.2	29.796	0.00	0.000	0.500	92.1	65	78.6	108.9	30
06/29/01	5:30 p	87.2	87.9	86.3	68	75.3	4.0	ESE	2.00	15.0	87.2	97.0	97.0	29.800	0.00	0.000	0.462	90.8	66	77.9	105.7	30
06/29/01	6:00 p	86.2	86.7	85.4	69	74.8	3.0	ESE	1.50	10.0	86.2	95.4	95.4	29.800	0.00	0.000	0.442	89.9	66	77.0	103.1	30
06/29/01	6:30 p	85.3	85.9	84.5	72	75.2	2.0	ESE	1.00	10.0	85.3	94.3	94.3	29.808	0.00	0.000	0.423	89.3	68	77.3	102.2	30
06/29/01	7:00 p	84.3	85.1	83.7	74	75.1	1.0	E	0.50	8.0	84.3	92.9	92.9	29.809	0.00	0.000	0.402	88.5	70	77.5	100.7	30
06/29/01	7:30 p	83.6	84.2	83.0	76	75.2	2.0	ESE	1.00	8.0	83.6	92.0	92.0	29.819	0.00	0.000	0.387	87.7	70	76.7	98.5	30
06/29/01	8:00 p	82.9	83.6	82.2	77	74.9	2.0	ESE	1.00	11.0	82.9	90.5	90.5	29.828	0.00	0.000	0.373	87.2	72	77.1	98.7	30
06/29/01	8:30 p	82.3	82.9	81.7	80	75.5	1.0	ESE	0.50	6.0	82.3	89.7	89.7	29.839	0.00	0.000	0.360	86.6	73	76.9	97.8	30
06/29/01	9:00 p	81.9	82.4	81.3	80	75.1	2.0	ESE	1.00	10.0	81.9	88.7	88.7	29.843	0.00	0.000	0.352	86.2	74	76.9	97.2	30
06/29/01	9:30 p	81.5	82.0	81.0	80	74.7	3.0	ESE	1.50	10.0	81.5	87.7	87.7	29.847	0.00	0.000	0.344	85.6	75	76.8	96.0	30
06/29/01	10:00 p	81.3	81.7	80.8	81	74.9	2.0	ESE	1.00	7.0	81.3	87.5	87.5	29.845	0.00	0.000	0.340	85.3	75	76.5	95.3	30
06/29/01	10:30 p	81.0	81.5	80.6	81	74.6	3.0	ESE	1.50	9.0	81.0	86.8	86.8	29.851	0.00	0.000	0.333	85.0	76	76.6	95.0	30
06/29/01	11:00 p	80.8	81.2	80.3	81	74.4	3.0	ESE	1.50	10.0	80.8	86.4	86.4	29.849	0.00	0.000	0.329	84.8	76	76.4	94.6	30
06/29/01	11:30 p	80.6	81.0	80.1	81	74.2	3.0	ESE	1.50	9.0	80.6	85.9	85.9	29.847	0.00	0.000	0.325	84.6	76	76.2	94.2	30
06/30/01	12:00 a	80.4	80.8	79.9	82	74.4	3.0	ESE	1.50	12.0	80.4	85.8	85.8	29.846	0.00	0.000	0.321	84.3	77	76.3	94.0	30
06/30/01	12:30 a	80.2	80.7	79.6	82	74.2	2.0	SE	1.00	8.0	80.2	85.4	85.4	29.845	0.00	0.000	0.317	84.1	77	76.1	93.6	30
06/30/01	1:00 a	79.9	80.4	79.4	83	74.3	2.0	ESE	1.00	10.0	79.9	85.0	85.0	29.840	0.00	0.000	0.310	83.8	78	76.2	93.2	30
06/30/01	1:30 a	79.7	80.2	79.2	83	74.1	2.0	SE	1.00	7.0	79.7	84.6	84.6	29.830	0.00	0.000	0.306	83.6	78	76.0	92.7	30
06/30/01	2:00 a	79.6	80.0	79.2	84	74.3	1.0	ESE	0.50	6.0	79.6	84.6	84.6	29.828	0.00	0.000	0.304	83.4	79	76.2	92.5	30
06/30/01	2:30 a	79.5	80.0	79.0	90	76.3	1.0	SE	0.50	7.0	79.5	85.8	85.8	29.824	0.05	0.000	0.302	83.3	81	76.9	92.8	30
06/30/01	3:00 a	79.1	79.6	78.4	91	76.2	0.0	SE	0.00	3.0	79.1	85.1	85.1	29.825	0.03	0.000	0.294	83.2	83	77.5	93.1	30
06/30/01	3:30 a	78.5	79.1	78.0	91	75.7	0.0	---	0.00	1.0	78.5	83.9	83.9	29.823	0.00	0.000	0.281	82.9	84	77.6	92.5	30
06/30/01	4:00 a	78.0	78.7	77.5	91	75.2	0.0	SE	0.00	1.0	78.0	82.9	82.9	29.823	0.00	0.000	0.271	82.6	84	77.3	91.7	30
06/30/01	4:30 a	77.7	78.3	77.2	92	75.2	0.0	---	0.00	0.0	77.7	82.5	82.5	29.822	0.00	0.000	0.265	82.3	84	77.0	90.9	30
06/30/01	5:00 a	77.5	78.0	77.0	93	75.3	0.0	---	0.00	0.0	77.5	82.2	82.2	29.828	0.00	0.000	0.260	82.0	84	76.7	90.1	30
06/30/01	5:30 a	77.4	77.9	77.0	93	75.2	0.0	SE	0.00	2.0	77.4	82.0	82.0	29.834	0.00	0.000	0.258	81.9	83	76.2	89.5	30
06/30/01	6:00 a	77.4	77.8	76.9	89	73.9	1.0	ESE	0.50	9.0	77.4	81.6	81.6	29.845	0.00	0.000	0.258	81.8	83	76.1	89.3	30
06/30/01	6:30 a	77.1	77.7	76.7	86	72.6	3.0	E	1.50	14.0	77.1	80.8	80.8	29.854	0.00	0.000	0.252	81.6	82	75.6	88.5	30
06/30/01	7:00 a	77.2	77.7	76.9	86	72.7	1.0	ESE	0.50	6.0	77.2	81.0	81.0	29.856	0.00	0.000	0.254	81.5	82	75.5	88.3	30
06/30/01	7:30 a	77.4	77.9	76.9	86	72.9	1.0	ESE	0.50	5.0	77.4	81.3	81.3	29.864	0.00	0.000	0.258	81.4	82	75.4	88.0	30
06/30/01	8:00 a	77.6	78.4	77.0	88	73.8	1.0	ESE	0.50	4.0	77.6	81.8	81.8	29.869	0.00	0.000	0.262	81.5	83	75.8	88.5	30
06/30/01	8:30 a	78.8	80.6	77.7	84	73.6	2.0	ESE	1.00	8.0	78.8	83.2	83.2	29.874	0.00	0.000	0.288	81.9	84	76.6	89.8	30
06/30/01	9:00 a	81.4	82.4	79.9	80	74.6	4.0	ESE	2.00	12.0	81.4	87.5	87.5	29.868	0.00	0.000	0.342	83.4	84	78.1	94.0	30
06/30/01	9:30 a	82.5	83.9	81.5	76	74.2	3.0	SE	1.50	9.0	82.5	89.1	89.1	29.867	0.00	0.000	0.365	84.6	84	79.2	97.1	30
06/30/01	10:00 a	85.1	86.9	83.6	72	75.1	4.0	ESE	2.00	18.0	85.1	93.8	93.8	29.866	0.00	0.000	0.419	86.0	80	79.1	98.8	30
06/30/01	10:30 a	86.7	87.9	86.1	71	76.2	5.0	ESE	2.50	17.0	86.7	97.2	97.2	29.860	0.00	0.000	0.452	87.5	78	79.8	102.2	30
06/30/01	11:00 a	88.9	90.0	87.3	64	75.1	6.0	ESE	3.00	20.0	88.9	98.9	98.9	29.855	0.00	0.000	0.498	88.7	76	80.2	105.0	30
06/30/01	11:30 a	90.0	90.6	89.2	66	77.1	5.0	ESE	2.50	18.0	90.0	103.4	103.4	29.849	0.00	0.000	0.521	90.3	73	80.5	109.1	30
06/30/01	12:00 p	91.0	92.1	89.6	65	77.6	6.0	ESE	3.00	17.0	91.0	105.6	105.6	29.839	0.00	0.000	0.542	91.2	72	80.9	111.5	30
06/30/01	12:30 p	91.4	92.2	90.3	61	76.1	5.0	ESE	2.50	21.0	91.4	104.0	104.0	29.827	0.00	0.000	0.550	92.1	70	80.9	112.6	30
06/30/01	1:00 p	92.8	93.3	91.6	60	76.9	7.0	ESE	3.50	19.0	92.8	107.1	107.1	29.817	0.00	0.000	0.579	92.9	67	80.3	113.0	30
06/30/01	1:30 p	93.4	94.1	92.5	59	76.9	7.0	ESE	3.50	24.0	93.4	108.2	108.2	29.804	0.00	0.000	0.592	93.5	66	80.4	114.2	30
06/30/01	2:00 p	93.6	94.8	92.2	59	77.1	6.0	ESE	3.00	19.0	93.6	108.8	108.8	29.795	0.00	0.000	0.596	94.0	66	80.9	115.8	30
06/30/01	2:30 p	93.6	94.8	92.2	58	76.6	7.0	ESE	3.50	24.0	93.6	108.2	108.2	29.782	0.00	0.000	0.596	94.2	65	80.6	115.6	30
06/30/01	3:00 p	94.8	95.4	94.3	57	77.2	8.0	ESE	4.00	20.0	94.8	110.9	110.9	29.766	0.00	0.000	0.621	94.4	63	79.9	114.6	30
06/30/01	3:30 p	93.3	94.5	92.4	61	77.8	7.0	ESE	3.50	25.0	93.3	109.4	109.4	29.763	0.00	0.000	0.590	94.1	64	80.1	114.4	30
06/30/01	4:00 p	91.3	92.8	89.9	63	76.9	6.0	ESE	3.00	19.0	91.3	105.1	105.1	29.764	0.00	0.000	0.548	93.5	63	79.0	111.7	30
06/30/01	4:30 p	90.1	90.7	89.3	64	76.3	6.0	ESE	3.00	20.0	90.1	102.5	102.5	29.753	0.00	0.000	0.523	92.5	64	78.5	109.4	30
06/30/01	5:00 p	88.9	89.9	88.1	67	76.5	6.0	ESE	3.00	16.0	88.9	100.4	100.4	29.759	0.00	0.000	0.498	91.6	66	78.6	108.1	30
06/30/01	5:30 p	87.8	88.7	86.8	68	75.9	6.0	ESE	3.00	17.0	87.8	97.8	97.8	29.764	0.00	0.000	0.475	90.9	66	78.0	106.0	30
06/30/01	6:00 p	86.8	87.4	86.1	70	75.8	4.0	SE	2.00	17.0	86.8	97.1	97.1	29.770	0.00	0.000	0.454	90.2	67	77.8	104.6	30
06/30/01	6:30 p	85.9	86.8	85.0	71	75.4	5.0	ESE	2.50	15.0	85.9	95.4	95.4	29.781	0.00	0.000	0.435	89.5	68	77.5	102.9	30
06/30/01	7:00 p	84.9	85.6	84.1	73	75.3	4.0	SE	2.00	13.0	84.9	93.7	93.7	29.790	0.00	0.000	0.415	88.6	69	77.1	100.5	30
06/30/01	7:30 p	84.0	84.6	83.3	76	75.6	3.0	ESE	1.50	10.0	84.0	93.1	93.1	29.800	0.00	0.000	0.396	88.0	71	77.4	99.5	30
06/30/01	8:00 p	83.3	83.9	82.8	77	75.3	3.0	SE	1.50	10.0	83.3	91.5	91.5	29.809	0.00	0.000	0.381	87.5	73	77.8	99.6	30
06/30/01	8:30 p	82.8	83.4	82.2	78	75.2	2.0	ESE	1.00	8.0	82.8	90.5	90.5	29.819	0.00	0.000	0.371	87.0	73	77.3	98.8	30
06/30/01	9:00 p	82.3	82.8	81.7	78	74.7	2.0	ESE	1.00	6.0	82.3	89.2	89.2	29.832	0.00	0.000	0.360	86.6	74	77.3	98.2	30
06/30/01	9:30 p	81.7	82.3	81.1	78	74.2	2.0	ESE	1.00	8.0	81.7	87.7	87.7	29.840	0.00	0.000	0.348	86.0	73	76.3	96.3	30
06/30/01	10:00 p	81.3	81.8	80.8	81	74.9	1.0	SE	0.50	4.0	81.3	87.5	87.5	29.847	0.00	0.000	0.340	85.6	74	76.4	95.7	30
06/30/01	10:30 p	81.1	81.5	80.7	82	75.1	0.0	SE	0.00	4.0	81.1	87.3	87.3	29.843	0.00	0.000	0.335	85.4	75	76.6	95.6	30
06/30/01	11:00 p	80.6	81.2	79.9	84	75.3	0.0	---	0.00	0.0	80.6	86.7	86.7	29.849	0.00	0.000	0.325	85.0	76	76.6	95.0	30
06/30/01	11:30 p	79.9	80.6	79.3	85	75.0	0.0	---	0.00	0.0	79.9	85.4	85.4	29.844	0.00	0.000	0.310	84.6	77	76.6	94.6	30
07/01/01	12:00 a	79.3	80.0	78.7	86	74.7	0.0	---	0.00	0.0	79.3	84.5	84.5	29.845	0.00	0.000	0.298	84.2	78	76.6	94.2	30
07/01/01	12:30 a	78.9	79.4	78.4	86	74.4	0.0	---	0.00	0.0	78.9	83.7	83.7	29.834	0.00	0.000	0.290	83.8	78	76.2	93.2	30
07/01/01	1:00 a	78.5	79.0	78.0	87	74.3	0.0	SE	0.00	10.0	78.5	83.2	83.2	29.828	0.00	0.000	0.281	83.5	79	76.3	92.8	30
07/01/01	1:30 a	78.5	78.9	78.0	85	73.6	1.0	SE	0.50	5.0	78.5	82.9	82.9	29.821	0.00	0.000	0.281	83.2	79	76.0	91.9	30
07/01/01	2:00 a	78.4	78.9	77.9	87	74.2	0.0	SE	0.00	2.0	78.4	83.1	83.1	29.812	0.00	0.000	0.279	83.0	79	75.8	91.4	30
07/01/01	2:30 a	78.2	78.7	77.7	87	74.0	0.0	SE	0.00	2.0	78.2	82.7	82.7	29.807	0.00	0.000	0.275	82.7	80	75.9	90.9	30
07/01/01	3:00 a	77.8	78.4	77.4	89	74.3	0.0	SE	0.00	1.0	77.8	82.3	82.3	29.802	0.00	0.000	0.267	82.5	81	76.1	90.6	30
07/01/01	3:30 a	77.6	78.2	77.2	89	74.1	0.0	---	0.00	0.0	77.6	82.0	82.0	29.803	0.00	0.000	0.262	82.2	80	75.4	89.5	30
07/01/01	4:00 a	77.4	77.8	77.0	90	74.2	0.0	SE	0.00	2.0	77.4	81.7	81.7	29.806	0.00	0.000	0.258	82.0	79	74.8	88.6	30
07/01/01	4:30 a	77.4	77.8	77.0	90	74.2	0.0	SE	0.00	3.0	77.4	81.7	81.7	29.807	0.00	0.000	0.258	81.8	79	74.6	88.2	30
07/01/01	5:00 a	77.3	77.7	76.8	91	74.5	0.0	---	0.00	0.0	77.3	81.6	81.6	29.805	0.00	0.000	0.256	81.6	79	74.5	87.7	30
07/01/01	5:30 a	77.3	77.7	76.9	89	73.8	0.0	---	0.00	0.0	77.3	81.4	81.4	29.819	0.00	0.000	0.256	81.5	79	74.4	87.4	30
07/01/01	6:00 a	77.2	77.7	76.7	90	74.0	0.0	---	0.00	0.0	77.2	81.4	81.4	29.824	0.00	0.000	0.254	81.3	79	74.2	87.0	30
07/01/01	6:30 a	77.4	77.9	76.8	88	73.6	0.0	---	0.00	0.0	77.4	81.5	81.5	29.833	0.00	0.000	0.258	81.2	79	74.1	86.7	30
07/01/01	7:00 a	77.9	78.7	77.3	87	73.7	0.0	---	0.00	0.0	77.9	82.2	82.2	29.843	0.00	0.000	0.269	81.3	79	74.2	87.0	30
07/01/01	7:30 a	78.7	79.5	78.0	84	73.5	0.0	SE	0.00	3.0	78.7	83.1	83.1	29.849	0.00	0.000	0.285	81.5	79	74.4	87.4	30
07/01/01	8:00 a	79.8	81.0	78.8	82	73.8	1.0	SE	0.50	6.0	79.8	84.6	84.6	29.851	0.00	0.000	0.308	82.0	80	75.2	88.9	30
07/01/01	8:30 a	81.4	82.5	80.3	76	73.1	3.0	SE	1.50	10.0	81.4	86.5	86.5	29.849	0.00	0.000	0.342	83.0	81	76.6	92.0	30
07/01/01	9:00 a	83.2	84.3	82.1	72	73.2	4.0	SE	2.00	12.0	83.2	89.6	89.6	29.845	0.00	0.000	0.379	84.3	80	77.5	95.1	30
07/01/01	9:30 a	84.9	86.1	83.7	69	73.6	3.0	SE	1.50	10.0	84.9	92.3	92.3	29.848	0.00	0.000	0.415	85.5	78	77.9	96.9	30
07/01/01	10:00 a	85.7	86.3	85.2	71	75.2	3.0	SE	1.50	10.0	85.7	94.9	94.9	29.849	0.00	0.000	0.431	86.4	76	77.9	98.5	30
07/01/01	10:30 a	87.2	88.8	85.6	67	74.9	4.0	ESE	2.00	11.0	87.2	96.6	96.6	29.841	0.00	0.000	0.462	87.3	77	79.2	101.2	30
07/01/01	11:00 a	89.5	90.5	88.1	63	75.2	5.0	ESE	2.50	17.0	89.5	100.1	100.1	29.836	0.00	0.000	0.510	88.9	74	79.5	104.5	30
07/01/01	11:30 a	90.5	91.3	89.8	59	74.2	5.0	ESE	2.50	17.0	90.5	100.6	100.6	29.830	0.00	0.000	0.531	90.4	70	79.3	107.1	30
07/01/01	12:00 p	91.4	92.4	90.5	60	75.6	6.0	ESE	3.00	20.0	91.4	103.3	103.3	29.824	0.00	0.000	0.550	91.5	69	79.9	109.9	30
07/01/01	12:30 p	92.9	94.5	91.6	59	76.5	5.0	ESE	2.50	16.0	92.9	106.8	106.8	29.813	0.00	0.000	0.581	92.7	68	80.6	113.1	30
07/01/01	1:00 p	94.2	95.1	93.4	56	76.1	5.0	ESE	2.50	20.0	94.2	108.5	108.5	29.801	0.00	0.000	0.608	93.7	65	80.2	113.9	30
07/01/01	1:30 p	95.4	96.4	94.2	52	75.0	6.0	ESE	3.00	20.0	95.4	108.5	108.5	29.788	0.00	0.000	0.633	94.5	64	80.4	115.8	30
07/01/01	2:00 p	95.9	96.9	94.8	53	76.0	6.0	ESE	3.00	26.0	95.9	110.7	110.7	29.776	0.00	0.000	0.644	95.1	63	80.5	116.9	30
07/01/01	2:30 p	96.2	97.5	94.4	55	77.4	6.0	ESE	3.00	20.0	96.2	113.5	113.5	29.773	0.00	0.000	0.650	95.6	61	80.0	116.7	30
07/01/01	3:00 p	95.6	96.5	94.5	51	74.6	6.0	ESE	3.00	19.0	95.6	108.1	108.1	29.760	0.00	0.000	0.637	95.9	61	80.3	117.8	30
07/01/01	3:30 p	95.8	96.4	95.2	50	74.2	7.0	ESE	3.50	21.0	95.8	107.6	107.6	29.755	0.00	0.000	0.642	95.8	57	78.1	114.0	30
07/01/01	4:00 p	95.8	96.3	95.2	49	73.6	6.0	ESE	3.00	17.0	95.8	107.0	107.0	29.745	0.00	0.000	0.642	95.6	57	77.9	113.4	30
07/01/01	4:30 p	95.4	96.1	94.9	51	74.4	6.0	ESE	3.00	17.0	95.4	107.6	107.6	29.753	0.00	0.000	0.633	95.6	56	77.4	112.5	30
07/01/01	5:00 p	95.4	96.6	94.0	55	76.7	6.0	ESE	3.00	19.0	95.4	111.2	111.2	29.755	0.00	0.000	0.633	94.0	59	77.5	110.0	30
07/01/01	5:30 p	93.7	94.7	92.2	58	76.7	5.0	ESE	2.50	17.0	93.7	108.4	108.4	29.764	0.00	0.000	0.598	92.6	62	77.7	108.1	30
07/01/01	6:00 p	91.4	92.4	90.5	60	75.6	5.0	ESE	2.50	15.0	91.4	103.3	103.3	29.758	0.00	0.000	0.550	91.5	63	77.1	105.7	30
07/01/01	6:30 p	90.1	91.1	89.2	63	75.8	5.0	ESE	2.50	13.0	90.1	101.9	101.9	29.759	0.00	0.000	0.523	90.4	64	76.6	103.3	30
07/01/01	7:00 p	88.1	89.3	86.6	67	75.8	5.0	ESE	2.50	12.0	88.1	98.0	98.0	29.771	0.00	0.000	0.481	90.1	64	76.3	102.5	30
07/01/01	7:30 p	86.0	87.2	85.0	70	75.1	2.0	SE	1.00	8.0	86.0	95.3	95.3	29.782	0.00	0.000	0.438	89.6	65	76.3	101.5	30
07/01/01	8:00 p	84.6	85.4	83.7	70	73.7	1.0	ESE	0.50	6.0	84.6	92.1	92.1	29.783	0.00	0.000	0.408	88.8	66	76.0	99.6	30
07/01/01	8:30 p	83.6	84.3	83.0	72	73.6	2.0	ESE	1.00	9.0	83.6	90.6	90.6	29.793	0.00	0.000	0.387	88.0	66	75.2	97.2	30
07/01/01	9:00 p	83.0	83.6	82.4	73	73.4	2.0	SE	1.00	8.0	83.0	89.4	89.4	29.808	0.00	0.000	0.375	87.4	68	75.5	97.3	30
07/01/01	9:30 p	82.5	83.1	82.0	76	74.2	2.0	SE	1.00	7.0	82.5	89.1	89.1	29.820	0.00	0.000	0.365	86.9	69	75.5	96.9	30
07/01/01	10:00 p	82.1	82.5	81.5	78	74.6	1.0	ESE	0.50	7.0	82.1	88.6	88.6	29.830	0.00	0.000	0.356	86.4	71	75.9	96.6	30
07/01/01	10:30 p	81.7	82.2	81.2	78	74.2	1.0	ESE	0.50	3.0	81.7	87.7	87.7	29.828	0.00	0.000	0.348	86.0	71	75.5	95.6	30
07/01/01	11:00 p	81.2	81.8	80.5	80	74.4	0.0	ESE	0.00	2.0	81.2	87.0	87.0	29.823	0.00	0.000	0.337	85.7	72	75.6	95.3	30
07/01/01	11:30 p	80.8	81.2	80.1	81	74.4	0.0	ESE	0.00	2.0	80.8	86.4	86.4	29.814	0.00	0.000	0.329	85.3	73	75.7	94.6	30
07/02/01	12:00 a	80.3	80.8	79.9	81	73.9	1.0	ESE	0.50	4.0	80.3	85.3	85.3	29.813	0.00	0.000	0.319	84.9	73	75.3	93.7	30
07/02/01	12:30 a	80.1	80.5	79.6	81	73.7	0.0	ESE	0.00	3.0	80.1	84.9	84.9	29.812	0.00	0.000	0.315	84.6	74	75.4	93.5	30
07/02/01	1:00 a	79.7	80.1	79.2	82	73.7	1.0	ESE	0.50	5.0	79.7	84.4	84.4	29.803	0.00	0.000	0.306	84.3	74	75.1	92.9	30
07/02/01	1:30 a	79.6	80.0	79.2	83	74.0	2.0	SE	1.00	7.0	79.6	84.4	84.4	29.800	0.00	0.000	0.304	84.1	75	75.3	92.9	30
07/02/01	2:00 a	79.7	80.1	79.3	83	74.1	1.0	SE	0.50	7.0	79.7	84.6	84.6	29.791	0.00	0.000	0.306	83.9	76	75.5	92.8	30
07/02/01	2:30 a	79.6	80.1	79.2	83	74.0	1.0	SE	0.50	4.0	79.6	84.4	84.4	29.790	0.00	0.000	0.304	83.7	77	75.7	92.6	30
07/02/01	3:00 a	79.4	79.9	78.8	84	74.1	0.0	---	0.00	0.0	79.4	84.3	84.3	29.793	0.00	0.000	0.300	83.5	77	75.5	92.1	30
07/02/01	3:30 a	78.8	79.5	78.1	85	73.9	0.0	---	0.00	0.0	78.8	83.4	83.4	29.798	0.00	0.000	0.288	83.2	78	75.6	91.6	30
07/02/01	4:00 a	78.0	78.6	77.4	86	73.5	0.0	---	0.00	0.0	78.0	82.2	82.2	29.803	0.00	0.000	0.271	82.8	78	75.2	90.5	30
07/02/01	4:30 a	77.4	78.0	76.8	86	72.9	0.0	---	0.00	0.0	77.4	81.3	81.3	29.819	0.00	0.000	0.258	82.4	78	74.8	89.4	30
07/02/01	5:00 a	76.9	77.5	76.3	87	72.7	0.0	---	0.00	0.0	76.9	80.6	80.6	29.826	0.00	0.000	0.248	82.1	78	74.6	88.6	30
07/02/01	5:30 a	76.5	77.0	75.9	88	72.7	0.0	---	0.00	0.0	76.5	80.1	80.1	29.830	0.00	0.000	0.240	81.8	77	73.9	87.6	30
07/02/01	6:00 a	76.1	76.6	75.7	88	72.3	0.0	---	0.00	0.0	76.1	79.5	79.5	29.845	0.00	0.000	0.231	81.5	76	73.2	86.7	30
07/02/01	6:30 a	76.4	77.2	75.7	88	72.6	0.0	---	0.00	0.0	76.4	80.0	80.0	29.857	0.00	0.000	0.238	81.4	81	75.0	87.7	30
07/02/01	7:00 a	77.3	78.1	76.5	88	73.5	0.0	---	0.00	0.0	77.3	81.3	81.3	29.867	0.00	0.000	0.256	81.4	81	75.0	87.7	30
07/02/01	7:30 a	78.9	80.3	77.6	83	73.3	0.0	---	0.00	0.0	78.9	83.2	83.2	29.871	0.00	0.000	0.290	81.7	80	74.9	88.2	30
07/02/01	8:00 a	80.6	81.4	79.5	77	72.7	1.0	ENE	0.50	7.0	80.6	85.1	85.1	29.866	0.00	0.000	0.325	82.7	81	76.3	91.1	30
07/02/01	8:30 a	81.8	82.9	80.8	73	72.3	2.0	E	1.00	9.0	81.8	86.6	86.6	29.860	0.00	0.000	0.350	84.2	78	76.6	94.2	30
07/02/01	9:00 a	83.8	85.0	82.4	71	73.4	3.0	ENE	1.50	10.0	83.8	90.8	90.8	29.849	0.00	0.000	0.392	85.8	77	77.8	97.2	30
07/02/01	9:30 a	85.7	87.1	84.5	68	73.9	3.0	ENE	1.50	10.0	85.7	93.8	93.8	29.845	0.00	0.000	0.431	87.3	75	78.4	100.1	30
07/02/01	10:00 a	88.0	88.9	86.8	64	74.3	4.0	ESE	2.00	15.0	88.0	96.4	96.4	29.847	0.00	0.000	0.479	88.0	71	77.4	99.5	30
07/02/01	10:30 a	89.1	89.9	88.3	64	75.3	4.0	ENE	2.00	12.0	89.1	99.4	99.4	29.854	0.00	0.000	0.502	89.0	71	78.4	102.9	30
07/02/01	11:00 a	89.5	90.5	88.8	62	74.8	4.0	ENE	2.00	13.0	89.5	99.6	99.6	29.860	0.00	0.000	0.510	91.0	69	79.4	108.3	30
07/02/01	11:30 a	91.3	92.0	90.3	61	76.0	5.0	ESE	2.50	14.0	91.3	103.8	103.8	29.858	0.00	0.000	0.548	92.3	67	79.8	111.0	30
07/02/01	12:00 p	92.7	93.8	91.4	59	76.3	5.0	ESE	2.50	16.0	92.7	106.3	106.3	29.857	0.00	0.000	0.577	93.5	67	80.9	115.0	30
07/02/01	12:30 p	93.7	94.6	93.0	56	75.6	5.0	ESE	2.50	14.0	93.7	107.1	107.1	29.849	0.00	0.000	0.598	94.7	65	81.1	117.3	30
07/02/01	1:00 p	94.6	95.2	93.9	57	77.0	5.0	ESE	2.50	15.0	94.6	110.4	110.4	29.840	0.00	0.000	0.617	95.5	64	81.4	119.3	30
07/02/01	1:30 p	95.4	96.1	94.7	55	76.7	6.0	ESE	3.00	18.0	95.4	111.2	111.2	29.831	0.00	0.000	0.633	96.1	63	81.5	120.5	30
07/02/01	2:00 p	96.2	97.1	95.2	55	77.4	6.0	ESE	3.00	19.0	96.2	113.5	113.5	29.821	0.00	0.000	0.650	96.3	61	80.7	119.2	30
07/02/01	2:30 p	96.7	97.5	95.6	55	77.9	6.0	E	3.00	19.0	96.7	115.1	115.1	29.820	0.00	0.000	0.660	96.7	60	80.5	119.5	30
07/02/01	3:00 p	95.6	96.2	95.0	57	77.9	6.0	ESE	3.00	17.0	95.6	113.4	113.4	29.813	0.00	0.000	0.637	97.0	61	81.3	121.7	30
07/02/01	3:30 p	95.9	97.6	94.9	52	75.4	6.0	ESE	3.00	17.0	95.9	109.8	109.8	29.803	0.00	0.000	0.644	97.0	59	80.3	119.7	30
07/02/01	4:00 p	96.2	97.7	94.9	53	76.3	6.0	ESE	3.00	16.0	96.2	111.6	111.6	29.801	0.00	0.000	0.650	96.9	58	79.7	118.4	30
07/02/01	4:30 p	96.0	96.7	95.0	53	76.1	7.0	ESE	3.50	20.0	96.0	111.0	111.0	29.789	0.00	0.000	0.646	96.8	57	79.1	117.2	30
07/02/01	5:00 p	95.7	96.6	95.0	54	76.4	6.0	ESE	3.00	19.0	95.7	111.1	111.1	29.796	0.01	0.000	0.640	97.0	57	79.2	117.8	30
07/02/01	5:30 p	93.8	95.5	92.5	59	77.3	5.0	ESE	2.50	16.0	93.8	109.4	109.4	29.794	0.00	0.000	0.600	96.2	58	79.0	116.1	30
07/02/01	6:00 p	90.6	92.9	89.1	66	77.7	5.0	E	2.50	18.0	90.6	105.1	105.1	29.801	0.00	0.000	0.533	94.7	61	79.2	113.8	30
07/02/01	6:30 p	88.6	89.6	88.0	66	75.8	4.0	ESE	2.00	13.0	88.6	99.0	99.0	29.819	0.00	0.000	0.492	93.3	61	77.8	109.4	30
07/02/01	7:00 p	87.3	88.4	86.1	70	76.3	4.0	ESE	2.00	15.0	87.3	98.0	98.0	29.830	0.00	0.000	0.465	92.1	63	77.7	107.4	30
07/02/01	7:30 p	85.7	86.6	84.8	70	74.8	3.0	ESE	1.50	13.0	85.7	94.6	94.6	29.835	0.00	0.000	0.431	90.9	64	77.0	104.7	30
07/02/01	8:00 p	84.4	85.2	83.7	72	74.4	3.0	E	1.50	11.0	84.4	92.4	92.4	29.846	0.00	0.000	0.404	89.9	64	76.1	101.9	30
07/02/01	8:30 p	83.7	84.3	83.1	75	74.9	2.0	E	1.00	12.0	83.7	91.9	91.9	29.856	0.00	0.000	0.390	89.2	66	76.4	100.8	30
07/02/01	9:00 p	83.1	83.7	82.6	76	74.7	3.0	ESE	1.50	10.0	83.1	90.7	90.7	29.860	0.00	0.000	0.377	88.6	68	76.7	100.0	30
07/02/01	9:30 p	82.8	83.2	82.4	76	74.5	2.0	E	1.00	11.0	82.8	89.9	89.9	29.874	0.00	0.000	0.371	88.2	68	76.3	98.7	30
07/02/01	10:00 p	82.6	83.0	82.3	76	74.3	2.0	ESE	1.00	11.0	82.6	89.4	89.4	29.887	0.00	0.000	0.367	87.8	69	76.4	98.3	30
07/02/01	10:30 p	82.4	83.0	81.9	75	73.7	3.0	ESE	1.50	11.0	82.4	88.5	88.5	29.892	0.00	0.000	0.363	87.4	69	76.0	97.7	30
07/02/01	11:00 p	82.2	82.6	81.8	76	73.9	3.0	ESE	1.50	14.0	82.2	88.3	88.3	29.897	0.00	0.000	0.358	87.0	69	75.6	97.1	30
07/02/01	11:30 p	82.0	82.4	81.6	77	74.1	3.0	ESE	1.50	13.0	82.0	88.1	88.1	29.896	0.00	0.000	0.354	86.6	70	75.6	96.6	30
07/03/01	12:00 a	81.9	82.4	81.5	76	73.6	4.0	ESE	2.00	13.0	81.9	87.6	87.6	29.895	0.00	0.000	0.352	86.4	71	75.9	96.6	30
07/03/01	12:30 a	81.7	82.2	81.3	77	73.8	3.0	ESE	1.50	13.0	81.7	87.4	87.4	29.890	0.00	0.000	0.348	86.1	71	75.6	95.9	30
07/03/01	1:00 a	81.5	82.0	81.1	78	74.0	2.0	ESE	1.00	10.0	81.5	87.2	87.2	29.885	0.00	0.000	0.344	85.7	72	75.6	95.3	30
07/03/01	1:30 a	81.5	81.9	81.1	77	73.6	3.0	SE	1.50	12.0	81.5	86.9	86.9	29.870	0.00	0.000	0.344	85.6	73	75.9	95.4	30
07/03/01	2:00 a	81.3	81.8	80.8	78	73.8	3.0	ESE	1.50	11.0	81.3	86.7	86.7	29.865	0.00	0.000	0.340	85.4	73	75.8	94.9	30
07/03/01	2:30 a	81.0	81.5	80.5	80	74.2	3.0	ESE	1.50	8.0	81.0	86.5	86.5	29.861	0.00	0.000	0.333	85.1	73	75.5	94.2	30
07/03/01	3:00 a	80.8	81.2	80.4	81	74.4	2.0	ESE	1.00	11.0	80.8	86.4	86.4	29.858	0.00	0.000	0.329	84.9	74	75.7	94.1	30
07/03/01	3:30 a	80.8	81.2	80.3	79	73.7	3.0	ESE	1.50	8.0	80.8	85.9	85.9	29.860	0.00	0.000	0.329	84.7	74	75.5	93.7	30
07/03/01	4:00 a	80.5	81.0	80.0	81	74.1	2.0	ESE	1.00	10.0	80.5	85.7	85.7	29.862	0.00	0.000	0.323	84.5	75	75.7	93.6	30
07/03/01	4:30 a	80.3	80.8	79.8	80	73.6	1.0	E	0.50	7.0	80.3	85.1	85.1	29.860	0.00	0.000	0.319	84.3	75	75.5	93.3	30
07/03/01	5:00 a	80.0	80.5	79.5	81	73.6	1.0	ESE	0.50	4.0	80.0	84.7	84.7	29.865	0.00	0.000	0.313	84.0	75	75.2	92.7	30
07/03/01	5:30 a	79.5	80.1	78.9	83	73.9	0.0	ESE	0.00	2.0	79.5	84.3	84.3	29.867	0.00	0.000	0.302	83.7	76	75.3	92.3	30
07/03/01	6:00 a	78.8	79.4	78.3	83	73.2	0.0	ESE	0.00	3.0	78.8	83.0	83.0	29.873	0.00	0.000	0.288	83.4	76	75.0	91.5	30
07/03/01	6:30 a	78.9	79.3	78.4	83	73.3	0.0	ESE	0.00	1.0	78.9	83.2	83.2	29.881	0.00	0.000	0.290	83.2	77	75.2	91.3	30
07/03/01	7:00 a	79.6	80.8	78.6	81	73.3	1.0	ESE	0.50	5.0	79.6	84.0	84.0	29.894	0.00	0.000	0.304	83.2	78	75.6	91.6	30
07/03/01	7:30 a	81.2	82.0	80.4	79	74.1	2.0	ESE	1.00	11.0	81.2	86.7	86.7	29.902	0.00	0.000	0.337	83.6	78	76.0	92.7	30
07/03/01	8:00 a	82.1	82.9	81.3	77	74.2	3.0	ESE	1.50	11.0	82.1	88.3	88.3	29.906	0.00	0.000	0.356	84.4	79	77.2	94.9	30
07/03/01	8:30 a	83.1	84.2	82.1	74	73.9	3.0	E	1.50	13.0	83.1	90.0	90.0	29.912	0.00	0.000	0.377	85.7	79	78.4	97.7	30
07/03/01	9:00 a	84.6	85.4	83.6	73	75.0	4.0	ENE	2.00	11.0	84.6	93.1	93.1	29.911	0.00	0.000	0.408	87.2	77	79.1	101.0	30
07/03/01	9:30 a	85.8	87.2	84.8	70	74.9	4.0	ENE	2.00	12.0	85.8	94.8	94.8	29.917	0.00	0.000	0.433	88.4	75	79.5	103.0	30
07/03/01	10:00 a	87.3	88.2	86.3	70	76.3	4.0	ENE	2.00	14.0	87.3	98.0	98.0	29.915	0.00	0.000	0.465	89.4	74	80.0	106.4	30
07/03/01	10:30 a	87.9	88.5	87.3	69	76.5	4.0	ENE	2.00	11.0	87.9	98.4	98.4	29.923	0.00	0.000	0.477	90.4	72	80.1	108.6	30
07/03/01	11:00 a	88.3	89.1	87.2	69	76.8	4.0	ENE	2.00	18.0	88.3	99.5	99.5	29.921	0.00	0.000	0.485	91.2	71	80.5	110.6	30
07/03/01	11:30 a	89.2	90.7	88.3	66	76.4	4.0	NE	2.00	17.0	89.2	100.8	100.8	29.916	0.00	0.000	0.504	92.3	70	81.1	113.3	30
07/03/01	12:00 p	90.5	91.1	89.9	65	77.1	4.0	NE	2.00	14.0	90.5	104.2	104.2	29.905	0.00	0.000	0.531	93.4	69	81.7	116.3	30
07/03/01	12:30 p	92.5	94.3	90.6	60	76.6	6.0	ESE	3.00	19.0	92.5	106.3	106.3	29.894	0.00	0.000	0.573	94.3	67	81.7	117.8	30
07/03/01	1:00 p	93.5	94.9	92.7	56	75.4	5.0	ENE	2.50	16.0	93.5	106.6	106.6	29.888	0.00	0.000	0.594	95.3	65	81.7	119.5	30
07/03/01	1:30 p	94.8	95.9	93.8	60	78.7	4.0	ENE	2.00	12.0	94.8	113.2	113.2	29.875	0.00	0.000	0.621	96.2	64	82.0	121.8	30
07/03/01	2:00 p	93.5	94.6	92.1	62	78.5	4.0	NE	2.00	16.0	93.5	110.8	110.8	29.875	0.00	0.000	0.594	96.8	63	82.1	123.0	30
07/03/01	2:30 p	94.0	95.1	93.0	59	77.5	5.0	ENE	2.50	16.0	94.0	110.0	110.0	29.860	0.00	0.000	0.604	97.0	62	81.8	122.7	30
07/03/01	3:00 p	94.9	95.9	94.3	59	78.3	5.0	ENE	2.50	14.0	94.9	112.7	112.7	29.856	0.00	0.000	0.623	97.3	61	81.6	122.8	30
07/03/01	3:30 p	94.2	95.2	93.3	57	76.6	5.0	ESE	2.50	21.0	94.2	109.2	109.2	29.847	0.00	0.000	0.608	97.4	60	81.2	122.1	30
07/03/01	4:00 p	94.4	95.3	93.5	59	77.9	6.0	E	3.00	16.0	94.4	111.2	111.2	29.838	0.00	0.000	0.613	97.5	60	81.3	122.4	30
07/03/01	4:30 p	93.6	94.5	92.8	60	77.6	6.0	E	3.00	18.0	93.6	109.5	109.5	29.825	0.00	0.000	0.596	97.2	60	81.0	121.3	30
07/03/01	5:00 p	92.5	93.9	90.7	66	79.5	6.0	E	3.00	24.0	92.5	110.9	110.9	29.833	0.00	0.000	0.573	97.0	60	80.8	120.6	30
07/03/01	5:30 p	90.5	91.3	89.5	63	76.2	6.0	ESE	3.00	21.0	90.5	102.9	102.9	29.828	0.00	0.000	0.531	95.7	61	80.1	117.1	30
07/03/01	6:00 p	90.3	91.4	89.0	67	77.8	6.0	E	3.00	20.0	90.3	104.9	104.9	29.826	0.00	0.000	0.527	94.9	62	79.8	115.3	30
07/03/01	6:30 p	89.2	89.7	88.5	68	77.3	5.0	ESE	2.50	14.0	89.2	101.9	101.9	29.841	0.00	0.000	0.504	93.9	64	79.9	113.7	30
07/03/01	7:00 p	88.6	89.3	87.6	71	78.0	4.0	ESE	2.00	13.0	88.6	101.6	101.6	29.848	0.00	0.000	0.492	92.8	66	79.8	111.9	30
07/03/01	7:30 p	87.0	88.0	86.2	70	76.0	3.0	ESE	1.50	12.0	87.0	97.5	97.5	29.850	0.00	0.000	0.458	91.6	66	78.6	108.1	30
07/03/01	8:00 p	85.9	86.9	85.0	72	75.8	2.0	ESE	1.00	8.0	85.9	95.7	95.7	29.850	0.00	0.000	0.435	90.5	66	77.6	104.8	30
07/03/01	8:30 p	84.9	85.4	84.2	75	76.1	1.0	E	0.50	4.0	84.9	94.4	94.4	29.867	0.00	0.000	0.415	89.7	68	77.7	103.6	30
07/03/01	9:00 p	84.2	84.8	83.6	75	75.4	1.0	SE	0.50	6.0	84.2	93.1	93.1	29.877	0.00	0.000	0.400	89.2	68	77.3	101.9	30
07/03/01	9:30 p	83.7	84.2	83.1	76	75.3	1.0	SE	0.50	5.0	83.7	92.3	92.3	29.881	0.00	0.000	0.390	88.7	69	77.2	100.8	30
07/03/01	10:00 p	83.2	83.7	82.6	77	75.2	1.0	SE	0.50	4.0	83.2	91.3	91.3	29.888	0.00	0.000	0.379	88.1	70	77.1	99.3	30
07/03/01	10:30 p	82.8	83.2	82.2	79	75.6	1.0	SSE	0.50	5.0	82.8	90.8	90.8	29.897	0.00	0.000	0.371	87.8	71	77.2	99.2	30
07/03/01	11:00 p	82.5	83.0	82.1	80	75.7	1.0	SSE	0.50	6.0	82.5	90.3	90.3	29.913	0.00	0.000	0.365	87.5	71	76.9	98.7	30
07/03/01	11:30 p	82.3	82.7	81.8	81	75.9	1.0	SE	0.50	7.0	82.3	90.0	90.0	29.915	0.00	0.000	0.360	87.2	73	77.5	99.1	30
07/04/01	12:00 a	82.0	82.5	81.5	82	76.0	0.0	SE	0.00	4.0	82.0	89.5	89.5	29.906	0.00	0.000	0.354	86.9	74	77.6	98.9	30
07/04/01	12:30 a	81.7	82.2	81.2	83	76.0	0.0	SE	0.00	3.0	81.7	89.0	89.0	29.909	0.00	0.000	0.348	86.5	75	77.6	98.3	30
07/04/01	1:00 a	81.4	82.0	81.0	84	76.1	0.0	---	0.00	0.0	81.4	88.6	88.6	29.906	0.00	0.000	0.342	86.2	76	77.7	97.9	30
07/04/01	1:30 a	81.2	81.8	80.6	84	75.9	0.0	---	0.00	0.0	81.2	88.1	88.1	29.889	0.00	0.000	0.337	86.0	76	77.5	97.4	30
07/04/01	2:00 a	80.9	81.3	80.4	86	76.3	0.0	SE	0.00	3.0	80.9	87.9	87.9	29.884	0.00	0.000	0.331	85.7	77	77.7	97.0	30
07/04/01	2:30 a	80.9	81.4	80.4	85	76.0	0.0	E	0.00	7.0	80.9	87.6	87.6	29.888	0.00	0.000	0.331	85.5	77	77.5	96.5	30
07/04/01	3:00 a	80.9	81.3	80.5	83	75.2	1.0	ESE	0.50	13.0	80.9	87.1	87.1	29.877	0.00	0.000	0.331	85.3	78	77.7	96.4	30
07/04/01	3:30 a	80.4	81.3	79.4	82	74.4	3.0	S	1.50	10.0	80.4	85.8	85.8	29.878	0.00	0.000	0.321	85.0	76	76.6	95.0	30
07/04/01	4:00 a	79.3	79.9	78.7	81	73.0	0.0	SSW	0.00	6.0	79.3	83.5	83.5	29.877	0.00	0.000	0.298	84.5	74	75.3	93.3	30
07/04/01	4:30 a	78.9	79.4	78.4	82	72.9	1.0	SSW	0.50	5.0	78.9	83.0	83.0	29.870	0.00	0.000	0.290	84.0	75	75.2	92.7	30
07/04/01	5:00 a	78.5	79.1	77.8	84	73.3	0.0	SSW	0.00	1.0	78.5	82.7	82.7	29.863	0.00	0.000	0.281	83.7	75	74.9	91.9	30
07/04/01	5:30 a	77.9	78.5	77.3	85	73.0	0.0	---	0.00	0.0	77.9	81.9	81.9	29.863	0.00	0.000	0.269	83.4	76	75.0	91.5	30
07/04/01	6:00 a	77.5	78.0	76.9	86	73.0	0.0	SSW	0.00	2.0	77.5	81.5	81.5	29.865	0.00	0.000	0.260	82.9	77	74.9	90.5	30
07/04/01	6:30 a	77.8	78.6	77.0	85	72.9	0.0	ESE	0.00	1.0	77.8	81.8	81.8	29.869	0.00	0.000	0.267	82.9	76	74.6	90.2	30
07/04/01	7:00 a	78.7	79.6	77.8	84	73.5	0.0	---	0.00	0.0	78.7	83.1	83.1	29.880	0.00	0.000	0.285	83.1	77	75.1	91.0	30
07/04/01	7:30 a	80.2	81.4	79.0	82	74.2	0.0	ENE	0.00	2.0	80.2	85.4	85.4	29.886	0.00	0.000	0.317	83.5	79	76.3	92.8	30
07/04/01	8:00 a	82.0	83.1	80.7	79	74.8	1.0	ENE	0.50	5.0	82.0	88.6	88.6	29.898	0.00	0.000	0.354	84.5	79	77.3	95.1	30
07/04/01	8:30 a	83.5	84.7	82.5	76	75.1	1.0	ENE	0.50	5.0	83.5	91.7	91.7	29.909	0.00	0.000	0.385	85.6	79	78.3	97.5	30
07/04/01	9:00 a	84.5	85.1	83.5	82	78.4	2.0	ENE	1.00	12.0	84.5	96.2	96.2	29.925	0.01	0.000	0.406	86.8	79	79.5	101.0	30
07/04/01	9:30 a	82.2	83.6	81.1	78	74.7	2.0	WSW	1.00	7.0	82.2	88.9	88.9	29.922	0.06	0.000	0.358	86.5	77	78.4	99.2	30
07/04/01	10:00 a	80.7	81.5	79.9	85	75.8	1.0	W	0.50	5.0	80.7	87.1	87.1	29.917	0.02	0.000	0.327	85.8	77	77.8	97.2	30
07/04/01	10:30 a	82.6	84.5	80.8	75	73.9	1.0	SSW	0.50	9.0	82.6	89.1	89.1	29.913	0.02	0.000	0.367	86.4	78	78.7	99.3	30
07/04/01	11:00 a	84.7	86.1	84.0	76	76.3	2.0	S	1.00	8.0	84.7	94.4	94.4	29.912	0.02	0.000	0.410	87.6	77	79.5	101.8	30
07/04/01	11:30 a	87.7	89.8	85.4	64	74.0	1.0	SW	0.50	8.0	87.7	96.1	96.1	29.908	0.01	0.000	0.473	88.8	75	79.8	104.7	30
07/04/01	12:00 p	90.9	92.2	89.6	65	77.5	3.0	SSW	1.50	9.0	90.9	105.3	105.3	29.900	0.02	0.000	0.540	90.8	72	80.5	110.1	30
07/04/01	12:30 p	92.0	93.9	90.4	62	77.1	4.0	ESE	2.00	17.0	92.0	106.4	106.4	29.881	0.01	0.000	0.563	92.9	71	82.1	116.7	30
07/04/01	1:00 p	94.0	94.5	93.2	60	78.0	4.0	E	2.00	12.0	94.0	110.7	110.7	29.866	0.02	0.000	0.604	94.5	69	82.7	120.4	30
07/04/01	1:30 p	93.6	94.9	92.1	61	78.1	3.0	ENE	1.50	10.0	93.6	110.3	110.3	29.853	0.01	0.000	0.596	95.7	67	83.0	123.1	30
07/04/01	2:00 p	93.0	94.5	92.1	63	78.5	4.0	ENE	2.00	10.0	93.0	110.1	110.1	29.841	0.01	0.000	0.583	96.2	65	82.5	122.9	30
07/04/01	2:30 p	92.3	92.8	91.6	63	77.9	6.0	ESE	3.00	14.0	92.3	108.0	108.0	29.841	0.00	0.000	0.569	96.2	64	82.0	121.8	30
07/04/01	3:00 p	91.3	92.6	90.1	66	78.3	4.0	E	2.00	11.0	91.3	107.2	107.2	29.821	0.01	0.000	0.548	95.7	63	81.1	119.0	30
07/04/01	3:30 p	89.6	90.7	88.9	68	77.6	4.0	ESE	2.00	12.0	89.6	103.2	103.2	29.807	0.00	0.000	0.512	94.7	64	80.6	116.5	30
07/04/01	4:00 p	90.0	90.5	89.1	66	77.1	4.0	ESE	2.00	13.0	90.0	103.4	103.4	29.820	0.00	0.000	0.521	94.3	65	80.7	116.0	30
07/04/01	4:30 p	89.2	89.8	88.6	65	75.9	4.0	ESE	2.00	10.0	89.2	100.2	100.2	29.838	0.00	0.000	0.504	93.9	64	79.9	113.7	30
07/04/01	5:00 p	88.3	89.9	87.4	68	76.4	2.0	ENE	1.00	7.0	88.3	99.1	99.1	29.846	0.00	0.000	0.485	93.2	64	79.2	111.5	30
07/04/01	5:30 p	87.7	88.1	87.3	67	75.4	2.0	SSE	1.00	9.0	87.7	97.3	97.3	29.852	0.00	0.000	0.473	92.2	65	78.7	109.2	30
07/04/01	6:00 p	86.0	88.0	84.3	65	72.9	4.0	SSW	2.00	11.0	86.0	93.4	93.4	29.849	0.00	0.000	0.438	90.9	61	75.6	102.7	30
07/04/01	6:30 p	83.0	84.7	82.0	68	71.3	4.0	SSW	2.00	12.0	83.0	87.8	87.8	29.850	0.00	0.000	0.375	89.3	62	74.6	99.1	30
07/04/01	7:00 p	81.8	82.6	81.0	70	71.1	2.0	SW	1.00	9.0	81.8	85.9	85.9	29.847	0.00	0.000	0.350	88.1	62	73.4	95.9	30
07/04/01	7:30 p	80.6	81.4	79.9	72	70.7	2.0	SW	1.00	6.0	80.6	84.1	84.1	29.857	0.00	0.000	0.325	87.2	64	73.5	95.4	30
07/04/01	8:00 p	79.5	80.5	78.6	76	71.3	2.0	SW	1.00	7.0	79.5	83.0	83.0	29.861	0.00	0.000	0.302	86.3	64	72.7	93.7	30
07/04/01	8:30 p	78.3	79.2	77.8	79	71.2	1.0	SW	0.50	5.0	78.3	81.7	81.7	29.856	0.00	0.000	0.277	85.5	66	72.8	92.6	30
07/04/01	9:00 p	77.9	78.5	77.4	79	70.9	0.0	SW	0.00	3.0	77.9	81.1	81.1	29.862	0.00	0.000	0.269	84.9	67	72.7	91.6	30
07/04/01	9:30 p	77.5	78.0	77.0	80	70.8	0.0	SW	0.00	3.0	77.5	80.7	80.7	29.868	0.00	0.000	0.260	84.3	68	72.6	90.8	30
07/04/01	10:00 p	77.0	77.5	76.4	82	71.1	0.0	SW	0.00	3.0	77.0	80.2	80.2	29.872	0.00	0.000	0.250	83.8	69	72.5	90.1	30
07/04/01	10:30 p	76.5	77.0	76.1	83	70.9	0.0	---	0.00	0.0	76.5	79.7	79.7	29.874	0.00	0.000	0.240	83.3	70	72.5	89.2	30
07/04/01	11:00 p	76.2	76.7	75.7	84	71.0	0.0	---	0.00	0.0	76.2	79.4	79.4	29.877	0.00	0.000	0.233	82.9	70	72.1	88.2	30
07/04/01	11:30 p	75.9	76.3	75.4	84	70.7	0.0	---	0.00	0.0	75.9	79.0	79.0	29.870	0.00	0.000	0.227	82.5	71	72.1	87.6	30
07/05/01	12:00 a	75.5	76.0	75.0	86	71.0	0.0	---	0.00	0.0	75.5	78.7	78.7	29.878	0.00	0.000	0.219	82.2	72	72.3	87.2	30
07/05/01	12:30 a	75.3	75.7	74.8	86	70.8	0.0	---	0.00	0.0	75.3	78.4	78.4	29.881	0.00	0.000	0.215	81.9	73	72.4	86.8	30
07/05/01	1:00 a	74.9	75.3	74.3	87	70.8	0.0	SW	0.00	4.0	74.9	78.0	78.0	29.883	0.00	0.000	0.206	81.5	73	72.0	86.0	30
07/05/01	1:30 a	74.6	74.9	74.2	87	70.5	0.0	---	0.00	1.0	74.6	77.4	77.4	29.879	0.00	0.000	0.200	81.1	74	72.0	85.4	30
07/05/01	2:00 a	74.4	74.8	73.9	87	70.3	0.0	---	0.00	0.0	74.4	77.0	77.0	29.874	0.00	0.000	0.196	80.8	75	72.1	85.0	30
07/05/01	2:30 a	74.1	74.6	73.6	88	70.3	0.0	---	0.00	0.0	74.1	76.5	76.5	29.870	0.00	0.000	0.190	80.4	75	71.7	84.3	30
07/05/01	3:00 a	73.8	74.2	73.4	89	70.4	0.0	---	0.00	0.0	73.8	76.2	76.2	29.865	0.00	0.000	0.183	80.1	76	71.8	84.0	30
07/05/01	3:30 a	73.8	74.2	73.4	89	70.4	0.0	---	0.00	0.0	73.8	76.2	76.2	29.865	0.00	0.000	0.183	79.8	76	71.6	83.5	30
07/05/01	4:00 a	73.7	74.1	73.3	90	70.6	0.0	---	0.00	0.0	73.7	76.1	76.1	29.869	0.00	0.000	0.181	79.6	76	71.4	83.1	30
07/05/01	4:30 a	73.6	74.0	73.2	90	70.5	0.0	---	0.00	0.0	73.6	76.0	76.0	29.870	0.00	0.000	0.179	79.5	75	70.9	82.8	30
07/05/01	5:00 a	73.4	73.8	72.9	90	70.3	0.0	---	0.00	0.0	73.4	75.9	75.9	29.875	0.00	0.000	0.175	79.3	75	70.7	82.5	30
07/05/01	5:30 a	73.3	73.6	72.8	90	70.2	0.0	SW	0.00	1.0	73.3	75.8	75.8	29.877	0.00	0.000	0.173	79.2	74	70.2	82.2	30
07/05/01	6:00 a	73.1	73.6	72.8	90	70.0	0.0	---	0.00	0.0	73.1	75.6	75.6	29.874	0.00	0.000	0.169	79.0	76	70.8	82.2	30
07/05/01	6:30 a	73.6	74.2	72.9	89	70.2	0.0	---	0.00	0.0	73.6	76.0	76.0	29.876	0.00	0.000	0.179	79.0	76	70.8	82.2	30
07/05/01	7:00 a	74.3	74.9	73.7	88	70.5	0.0	---	0.00	0.0	74.3	76.9	76.9	29.887	0.00	0.000	0.194	79.1	76	70.9	82.3	30
07/05/01	7:30 a	75.0	75.9	74.3	87	70.9	0.0	S	0.00	2.0	75.0	78.2	78.2	29.892	0.00	0.000	0.208	79.2	76	71.0	82.5	30
07/05/01	8:00 a	76.3	77.5	75.2	81	70.0	1.0	SSW	0.50	4.0	76.3	79.3	79.3	29.897	0.00	0.000	0.235	79.9	79	72.8	84.2	30
07/05/01	8:30 a	78.3	79.9	76.8	79	71.2	2.0	SSW	1.00	6.0	78.3	81.7	81.7	29.890	0.00	0.000	0.277	81.4	80	74.6	87.5	30
07/05/01	9:00 a	81.0	82.7	79.1	73	71.5	2.0	S	1.00	7.0	81.0	85.0	85.0	29.884	0.01	0.000	0.333	83.1	78	75.5	91.3	30
07/05/01	9:30 a	83.8	85.7	82.2	68	72.1	2.0	SSW	1.00	5.0	83.8	89.7	89.7	29.875	0.00	0.000	0.392	84.7	76	76.3	94.4	30
07/05/01	10:00 a	86.5	88.0	85.0	64	72.9	2.0	SSW	1.00	6.0	86.5	94.1	94.1	29.873	0.00	0.000	0.448	86.3	73	76.6	97.1	30
07/05/01	10:30 a	89.2	90.3	87.4	61	74.0	3.0	SSW	1.50	10.0	89.2	98.3	98.3	29.872	0.00	0.000	0.504	88.1	71	77.5	99.8	30
07/05/01	11:00 a	90.6	92.6	89.4	56	72.8	2.0	SW	1.00	6.0	90.6	99.3	99.3	29.864	0.00	0.000	0.533	89.4	69	77.9	103.1	30
07/05/01	11:30 a	91.7	93.1	90.4	54	72.7	2.0	NW	1.00	6.0	91.7	100.8	100.8	29.856	0.00	0.000	0.556	90.5	66	77.6	104.8	30
07/05/01	12:00 p	93.6	94.8	92.6	53	73.9	2.0	SW	1.00	7.0	93.6	104.7	104.7	29.846	0.00	0.000	0.596	91.8	65	78.4	108.0	30
07/05/01	12:30 p	94.6	96.0	93.4	57	77.0	2.0	SSW	1.00	8.0	94.6	110.4	110.4	29.833	0.00	0.000	0.617	93.6	64	79.6	112.8	30
07/05/01	1:00 p	96.0	97.1	94.3	55	77.2	3.0	ESE	1.50	14.0	96.0	112.9	112.9	29.824	0.00	0.000	0.646	95.2	65	81.6	119.1	30
07/05/01	1:30 p	95.0	96.6	93.6	55	76.3	5.0	ESE	2.50	16.0	95.0	110.0	110.0	29.809	0.00	0.000	0.625	96.0	62	80.9	119.1	30
07/05/01	2:00 p	95.4	96.8	94.2	54	76.1	5.0	ESE	2.50	16.0	95.4	110.3	110.3	29.790	0.00	0.000	0.633	96.0	61	80.4	118.1	30
07/05/01	2:30 p	97.8	98.5	96.7	52	77.2	6.0	ESE	3.00	14.0	97.8	115.0	115.0	29.771	0.00	0.000	0.683	96.7	61	81.0	120.6	30
07/05/01	3:00 p	97.2	98.4	95.2	53	77.2	6.0	ESE	3.00	17.0	97.2	114.4	114.4	29.767	0.00	0.000	0.671	97.3	59	80.6	120.8	30
07/05/01	3:30 p	97.0	98.1	95.8	54	77.6	5.0	ESE	2.50	16.0	97.0	114.9	114.9	29.760	0.00	0.000	0.667	97.4	59	80.7	121.1	30
07/05/01	4:00 p	94.1	95.8	92.6	55	75.5	4.0	ESE	2.00	14.0	94.1	107.5	107.5	29.769	0.00	0.000	0.606	96.8	59	80.1	119.0	30
07/05/01	4:30 p	93.3	96.3	91.1	59	76.8	5.0	ESE	2.50	13.0	93.3	108.0	108.0	29.773	0.00	0.000	0.590	96.0	58	78.8	115.4	30
07/05/01	5:00 p	89.7	91.6	86.4	62	74.9	4.0	NW	2.00	14.0	89.7	100.2	100.2	29.792	0.00	0.000	0.515	93.8	59	77.3	109.4	30
07/05/01	5:30 p	84.9	86.6	83.4	64	71.4	2.0	NW	1.00	9.0	84.9	90.6	90.6	29.803	0.00	0.000	0.415	91.0	58	74.2	101.3	30
07/05/01	6:00 p	81.8	83.8	79.5	82	75.8	6.0	NW	3.00	16.0	81.8	89.0	89.0	29.826	0.01	0.000	0.350	89.3	63	75.0	99.6	30
07/05/01	6:30 p	78.3	79.5	77.6	85	73.4	0.0	NNW	0.00	10.0	78.3	82.6	82.6	29.833	0.02	0.000	0.277	88.0	65	74.8	96.8	30
07/05/01	7:00 p	78.0	78.7	77.2	86	73.5	0.0	N	0.00	5.0	78.0	82.2	82.2	29.823	0.01	0.000	0.271	87.1	67	74.8	96.5	30
07/05/01	7:30 p	77.5	78.1	77.2	87	73.3	0.0	---	0.00	0.0	77.5	81.6	81.6	29.799	0.02	0.000	0.260	86.4	69	75.0	95.8	30
07/05/01	8:00 p	78.1	78.5	77.7	88	74.3	0.0	---	0.00	0.0	78.1	82.7	82.7	29.791	0.02	0.000	0.273	86.0	70	75.1	95.3	30
07/05/01	8:30 p	78.3	78.7	78.0	87	74.1	0.0	---	0.00	0.0	78.3	82.9	82.9	29.796	0.01	0.000	0.277	85.6	71	75.1	94.7	30
07/05/01	9:00 p	78.3	78.7	77.9	88	74.5	0.0	---	0.00	0.0	78.3	83.1	83.1	29.804	0.02	0.000	0.277	85.2	73	75.6	94.4	30
07/05/01	9:30 p	77.7	78.4	77.1	88	73.9	0.0	---	0.00	0.0	77.7	82.0	82.0	29.819	0.03	0.000	0.265	84.8	73	75.2	93.5	30
07/05/01	10:00 p	77.5	77.8	77.1	87	73.3	0.0	---	0.00	0.0	77.5	81.6	81.6	29.827	0.02	0.000	0.260	84.3	73	74.7	92.6	30
07/05/01	10:30 p	77.3	77.7	76.8	88	73.5	0.0	---	0.00	0.0	77.3	81.3	81.3	29.834	0.01	0.000	0.256	83.9	74	74.7	92.1	30
07/05/01	11:00 p	76.8	77.4	76.3	87	72.6	0.0	---	0.00	0.0	76.8	80.5	80.5	29.835	0.02	0.000	0.246	83.4	74	74.2	90.8	30
07/05/01	11:30 p	76.5	77.0	75.9	88	72.7	0.0	---	0.00	0.0	76.5	80.1	80.1	29.832	0.02	0.000	0.240	82.9	75	74.2	89.8	30
07/06/01	12:00 a	76.1	76.6	75.6	88	72.3	0.0	---	0.00	0.0	76.1	79.5	79.5	29.833	0.02	0.000	0.231	82.5	75	73.8	88.8	30
07/06/01	12:30 a	75.8	76.3	75.4	89	72.3	0.0	---	0.00	0.0	75.8	79.2	79.2	29.825	0.01	0.000	0.225	82.1	76	73.8	88.0	30
07/06/01	1:00 a	75.6	76.0	75.2	90	72.5	0.0	---	0.00	0.0	75.6	79.1	79.1	29.819	0.01	0.000	0.221	81.7	77	73.8	87.4	30
07/06/01	1:30 a	75.4	75.8	75.0	91	72.6	0.0	---	0.00	0.0	75.4	78.9	78.9	29.815	0.01	0.000	0.217	81.5	78	74.0	87.2	30
07/06/01	2:00 a	75.4	75.8	75.0	91	72.6	0.0	---	0.00	0.0	75.4	78.9	78.9	29.812	0.01	0.000	0.217	81.2	79	74.1	86.7	30
07/06/01	2:30 a	75.4	75.9	75.1	91	72.6	0.0	---	0.00	0.0	75.4	78.9	78.9	29.807	0.01	0.000	0.217	81.0	80	74.2	86.5	30
07/06/01	3:00 a	75.4	75.9	74.9	91	72.6	0.0	---	0.00	0.0	75.4	78.9	78.9	29.809	0.01	0.000	0.217	80.8	80	74.0	86.1	30
07/06/01	3:30 a	75.1	75.6	74.6	92	72.6	0.0	---	0.00	0.0	75.1	78.6	78.6	29.798	0.01	0.000	0.210	80.6	80	73.9	85.7	30
07/06/01	4:00 a	75.0	75.4	74.4	93	72.8	0.0	---	0.00	0.0	75.0	78.6	78.6	29.799	0.01	0.000	0.208	80.4	81	74.0	85.5	30
07/06/01	4:30 a	74.8	75.2	74.3	93	72.6	0.0	---	0.00	0.0	74.8	78.2	78.2	29.805	0.01	0.000	0.204	80.2	82	74.2	85.4	30
07/06/01	5:00 a	74.7	75.2	74.3	93	72.5	0.0	---	0.00	0.0	74.7	78.0	78.0	29.808	0.00	0.000	0.202	80.0	82	74.0	84.9	30
07/06/01	5:30 a	74.7	75.2	74.3	93	72.5	0.0	---	0.00	0.0	74.7	78.0	78.0	29.817	0.01	0.000	0.202	79.8	82	73.8	84.6	30
07/06/01	6:00 a	74.7	75.1	74.3	93	72.5	0.0	---	0.00	0.0	74.7	78.0	78.0	29.821	0.01	0.000	0.202	79.8	82	73.8	84.6	30
07/06/01	6:30 a	74.7	75.5	74.3	92	72.2	0.0	---	0.00	0.0	74.7	78.0	78.0	29.831	0.00	0.000	0.202	79.7	82	73.7	84.4	30
07/06/01	7:00 a	75.5	76.2	74.7	94	73.7	0.0	---	0.00	0.0	75.5	79.3	79.3	29.839	0.01	0.000	0.219	79.9	83	74.3	85.0	30
07/06/01	7:30 a	76.4	77.5	75.4	94	74.5	0.0	---	0.00	0.0	76.4	80.5	80.5	29.846	0.00	0.000	0.238	80.3	85	75.4	86.3	30
07/06/01	8:00 a	77.9	79.0	76.8	91	75.1	0.0	---	0.00	0.0	77.9	82.7	82.7	29.849	0.00	0.000	0.269	81.0	88	77.1	88.6	30
07/06/01	8:30 a	79.5	80.8	78.3	87	75.3	0.0	---	0.00	0.0	79.5	85.1	85.1	29.842	0.01	0.000	0.302	82.2	89	78.6	92.3	30
07/06/01	9:00 a	81.6	83.2	80.3	82	75.6	0.0	---	0.00	0.0	81.6	88.5	88.5	29.837	0.00	0.000	0.346	83.7	87	79.4	95.9	30
07/06/01	9:30 a	83.8	85.1	82.8	76	75.4	0.0	---	0.00	0.0	83.8	92.5	92.5	29.834	0.00	0.000	0.392	85.1	83	79.4	97.9	30
07/06/01	10:00 a	86.3	87.2	84.5	70	75.4	0.0	---	0.00	0.0	86.3	96.0	96.0	29.832	0.00	0.000	0.444	86.6	81	80.1	101.4	30
07/06/01	10:30 a	86.5	87.0	85.8	73	76.8	0.0	---	0.00	0.0	86.5	97.5	97.5	29.837	0.00	0.000	0.448	87.4	78	79.7	101.9	30
07/06/01	11:00 a	87.9	88.9	86.1	66	75.1	0.0	---	0.00	0.0	87.9	97.1	97.1	29.839	0.00	0.000	0.477	88.0	76	79.5	102.0	30
07/06/01	11:30 a	88.9	90.4	87.9	65	75.6	0.0	---	0.00	0.0	88.9	99.3	99.3	29.836	0.00	0.000	0.498	89.2	75	80.2	106.3	30
07/06/01	12:00 p	89.8	91.2	88.6	65	76.5	0.0	---	0.00	0.0	89.8	102.2	102.2	29.829	0.00	0.000	0.517	90.6	74	81.2	111.0	30
07/06/01	12:30 p	90.2	91.9	88.6	71	79.5	0.0	---	0.00	0.0	90.2	107.2	107.2	29.822	0.00	0.000	0.525	91.9	73	82.0	115.2	30
07/06/01	1:00 p	90.0	91.2	89.0	69	78.5	0.0	---	0.00	1.0	90.0	105.2	105.2	29.819	0.00	0.000	0.521	92.3	72	82.0	115.7	30
07/06/01	1:30 p	88.3	89.8	86.8	75	79.4	0.0	---	0.00	0.0	88.3	102.6	102.6	29.813	0.00	0.000	0.485	92.5	71	81.7	115.3	30
07/06/01	2:00 p	86.4	87.4	85.2	79	79.1	0.0	---	0.00	0.0	86.4	99.7	99.7	29.807	0.01	0.000	0.446	91.5	72	81.2	112.6	30
07/06/01	2:30 p	85.9	87.9	84.6	78	78.2	0.0	---	0.00	0.0	85.9	97.8	97.8	29.791	0.01	0.000	0.435	90.0	73	80.2	108.0	30
07/06/01	3:00 p	86.1	87.3	85.1	81	79.6	0.0	---	0.00	0.0	86.1	99.6	99.6	29.792	0.01	0.000	0.440	89.9	75	80.9	109.0	30
07/06/01	3:30 p	84.8	85.6	83.9	80	77.9	0.0	---	0.00	0.0	84.8	96.0	96.0	29.785	0.01	0.000	0.413	89.4	75	80.4	107.1	30
07/06/01	4:00 p	83.0	84.2	81.8	81	76.6	0.0	---	0.00	0.0	83.0	92.0	92.0	29.778	0.00	0.000	0.375	88.6	73	78.8	102.7	30
07/06/01	4:30 p	81.8	82.5	81.2	80	75.0	0.0	---	0.00	0.0	81.8	88.4	88.4	29.795	0.01	0.000	0.350	87.8	73	78.1	100.1	30
07/06/01	5:00 p	82.0	82.5	81.5	81	75.6	0.0	---	0.00	0.0	82.0	89.2	89.2	29.794	0.00	0.000	0.354	87.5	74	78.2	100.1	30
07/06/01	5:30 p	82.0	82.5	81.5	82	76.0	0.0	---	0.00	0.0	82.0	89.5	89.5	29.791	0.00	0.000	0.354	87.2	75	78.3	100.0	30
07/06/01	6:00 p	82.1	82.6	81.4	82	76.1	1.0	SE	0.50	7.0	82.1	89.8	89.8	29.811	0.00	0.000	0.356	87.0	75	78.1	99.6	30
07/06/01	6:30 p	81.3	82.0	80.7	84	76.0	0.0	NW	0.00	4.0	81.3	88.3	88.3	29.810	0.00	0.000	0.340	86.6	75	77.7	98.6	30
07/06/01	7:00 p	80.6	81.1	80.1	85	75.7	0.0	NW	0.00	1.0	80.6	86.9	86.9	29.813	0.01	0.000	0.325	86.1	76	77.6	97.6	30
07/06/01	7:30 p	80.1	80.6	79.4	85	75.2	0.0	NW	0.00	2.0	80.1	85.8	85.8	29.809	0.00	0.000	0.315	85.5	76	77.1	96.2	30
07/06/01	8:00 p	79.5	80.0	78.7	86	74.9	0.0	NW	0.00	3.0	79.5	84.9	84.9	29.819	0.00	0.000	0.302	84.9	76	76.5	94.8	30
07/06/01	8:30 p	78.8	79.3	78.3	87	74.6	0.0	---	0.00	0.0	78.8	83.8	83.8	29.817	0.00	0.000	0.288	84.4	77	76.4	94.2	30
07/06/01	9:00 p	78.4	79.1	77.9	88	74.5	0.0	NW	0.00	1.0	78.4	83.2	83.2	29.839	0.00	0.000	0.279	84.0	78	76.4	93.8	30
07/06/01	9:30 p	78.2	78.6	77.7	87	74.0	0.0	---	0.00	0.0	78.2	82.7	82.7	29.851	0.00	0.000	0.275	83.6	78	76.0	92.7	30
07/06/01	10:00 p	77.7	78.4	77.1	88	73.9	0.0	NW	0.00	2.0	77.7	82.0	82.0	29.860	0.00	0.000	0.265	83.2	78	75.6	91.6	30
07/06/01	10:30 p	77.2	77.8	76.8	88	73.4	0.0	---	0.00	0.0	77.2	81.2	81.2	29.871	0.01	0.000	0.254	82.8	79	75.6	90.8	30
07/06/01	11:00 p	77.1	77.5	76.6	89	73.6	0.0	---	0.00	0.0	77.1	81.1	81.1	29.874	0.00	0.000	0.252	82.4	80	75.6	90.0	30
07/06/01	11:30 p	76.8	77.3	76.1	91	74.0	0.0	---	0.00	0.0	76.8	80.8	80.8	29.873	0.00	0.000	0.246	82.1	80	75.3	89.2	30
07/07/01	12:00 a	76.4	76.9	75.8	90	73.2	0.0	---	0.00	0.0	76.4	80.1	80.1	29.869	0.00	0.000	0.238	81.8	80	75.0	88.4	30
07/07/01	12:30 a	76.0	76.6	75.5	91	73.2	0.0	---	0.00	0.0	76.0	79.6	79.6	29.865	0.00	0.000	0.229	81.5	81	75.1	88.0	30
07/07/01	1:00 a	75.7	76.2	75.2	91	72.9	0.0	---	0.00	0.0	75.7	79.3	79.3	29.858	0.00	0.000	0.223	81.1	81	74.7	87.0	30
07/07/01	1:30 a	75.4	76.0	74.9	91	72.6	0.0	---	0.00	0.0	75.4	78.9	78.9	29.846	0.00	0.000	0.217	80.8	81	74.4	86.4	30
07/07/01	2:00 a	75.2	75.7	74.6	91	72.4	0.0	---	0.00	0.0	75.2	78.7	78.7	29.837	0.00	0.000	0.212	80.5	82	74.5	86.0	30
07/07/01	2:30 a	74.9	75.4	74.3	91	72.1	0.0	---	0.00	0.0	74.9	78.3	78.3	29.832	0.00	0.000	0.206	80.2	82	74.2	85.4	30
07/07/01	3:00 a	74.7	75.2	74.1	92	72.2	0.0	---	0.00	0.0	74.7	78.0	78.0	29.826	0.00	0.000	0.202	79.9	82	73.9	84.8	30
07/07/01	3:30 a	74.3	74.8	73.8	92	71.8	0.0	---	0.00	0.0	74.3	77.2	77.2	29.819	0.00	0.000	0.194	79.6	82	73.6	84.2	30
07/07/01	4:00 a	74.2	74.7	73.7	92	71.7	0.0	---	0.00	0.0	74.2	77.0	77.0	29.824	0.00	0.000	0.192	79.3	82	73.3	83.7	30
07/07/01	4:30 a	73.9	74.4	73.4	92	71.4	0.0	---	0.00	0.0	73.9	76.5	76.5	29.831	0.00	0.000	0.185	79.0	83	73.4	83.3	30
07/07/01	5:00 a	73.6	74.2	73.2	92	71.1	0.0	---	0.00	0.0	73.6	76.2	76.2	29.841	0.00	0.000	0.179	78.7	83	73.1	82.9	30
07/07/01	5:30 a	73.5	74.0	73.0	92	71.0	0.0	---	0.00	0.0	73.5	76.1	76.1	29.844	0.00	0.000	0.177	78.6	82	72.6	82.6	30
07/07/01	6:00 a	73.3	73.8	72.9	93	71.2	0.0	---	0.00	0.0	73.3	76.0	76.0	29.849	0.00	0.000	0.173	78.6	81	72.3	82.4	30
07/07/01	6:30 a	73.5	74.3	72.8	92	71.0	0.0	---	0.00	0.0	73.5	76.1	76.1	29.857	0.00	0.000	0.177	78.7	81	72.4	82.5	30
07/07/01	7:00 a	74.5	75.5	73.6	93	72.3	0.0	---	0.00	0.0	74.5	77.7	77.7	29.869	0.00	0.000	0.198	79.1	83	73.5	83.5	30
07/07/01	7:30 a	76.0	77.2	74.7	93	73.8	0.0	---	0.00	0.0	76.0	79.8	79.8	29.873	0.00	0.000	0.229	79.7	86	75.1	85.3	30
07/07/01	8:00 a	77.7	78.9	76.5	88	73.9	0.0	WNW	0.00	3.0	77.7	82.0	82.0	29.874	0.00	0.000	0.265	80.8	88	76.9	88.2	30
07/07/01	8:30 a	79.3	80.6	78.2	84	74.0	0.0	NW	0.00	4.0	79.3	84.1	84.1	29.878	0.00	0.000	0.298	81.9	88	78.0	91.1	30
07/07/01	9:00 a	81.3	82.7	79.8	81	74.9	1.0	SSW	0.50	4.0	81.3	87.5	87.5	29.865	0.00	0.000	0.340	83.4	87	79.1	95.0	30
07/07/01	9:30 a	83.9	85.3	82.5	71	73.5	1.0	NNW	0.50	4.0	83.9	91.0	91.0	29.862	0.00	0.000	0.394	84.9	84	79.5	97.8	30
07/07/01	10:00 a	85.9	87.3	84.8	70	75.0	1.0	ESE	0.50	9.0	85.9	95.1	95.1	29.862	0.00	0.000	0.435	86.3	82	80.2	100.9	30
07/07/01	10:30 a	87.2	88.2	86.3	70	76.2	2.0	NE	1.00	8.0	87.2	97.8	97.8	29.867	0.01	0.000	0.462	87.6	79	80.3	102.9	30
07/07/01	11:00 a	88.4	89.1	87.7	68	76.5	3.0	ENE	1.50	9.0	88.4	99.4	99.4	29.867	0.00	0.000	0.488	88.9	78	81.1	107.3	30
07/07/01	11:30 a	89.2	90.0	88.2	65	75.9	3.0	E	1.50	10.0	89.2	100.2	100.2	29.853	0.00	0.000	0.504	90.1	74	80.7	109.1	30
07/07/01	12:00 p	90.5	91.2	89.4	62	75.7	3.0	ENE	1.50	9.0	90.5	102.3	102.3	29.851	0.00	0.000	0.531	91.7	71	81.0	112.3	30
07/07/01	12:30 p	90.8	91.4	90.2	61	75.5	3.0	ENE	1.50	12.0	90.8	102.4	102.4	29.842	0.00	0.000	0.538	92.8	68	80.7	113.4	30
07/07/01	1:00 p	92.1	92.7	91.1	57	74.7	3.0	NE	1.50	9.0	92.1	103.5	103.5	29.829	0.00	0.000	0.565	93.9	67	81.3	116.4	30
07/07/01	1:30 p	93.2	94.3	92.1	54	74.1	3.0	ENE	1.50	10.0	93.2	104.4	104.4	29.820	0.00	0.000	0.587	94.6	65	81.0	117.0	30
07/07/01	2:00 p	94.2	95.3	93.2	57	76.6	4.0	ENE	2.00	13.0	94.2	109.2	109.2	29.814	0.00	0.000	0.608	95.1	62	80.0	116.0	30
07/07/01	2:30 p	93.1	93.9	92.2	58	76.1	4.0	NE	2.00	13.0	93.1	106.7	106.7	29.801	0.00	0.000	0.585	95.3	62	80.2	116.7	30
07/07/01	3:00 p	93.5	94.5	92.5	57	76.0	3.0	ENE	1.50	11.0	93.5	107.2	107.2	29.807	0.00	0.000	0.594	95.6	62	80.5	117.7	30
07/07/01	3:30 p	93.5	94.2	92.8	57	76.0	3.0	NE	1.50	11.0	93.5	107.2	107.2	29.803	0.00	0.000	0.594	95.8	62	80.7	118.4	30
07/07/01	4:00 p	93.8	95.4	92.5	59	77.3	4.0	E	2.00	13.0	93.8	109.4	109.4	29.792	0.00	0.000	0.600	96.3	60	80.1	118.2	30
07/07/01	4:30 p	91.6	92.7	91.0	62	76.7	4.0	ENE	2.00	12.0	91.6	105.3	105.3	29.798	0.00	0.000	0.554	95.7	62	80.6	118.1	30
07/07/01	5:00 p	92.0	93.3	91.1	59	75.6	4.0	ESE	2.00	14.0	92.0	104.3	104.3	29.788	0.00	0.000	0.563	96.0	60	79.9	117.1	30
07/07/01	5:30 p	92.1	92.9	91.1	61	76.7	3.0	ENE	1.50	12.0	92.1	105.9	105.9	29.786	0.00	0.000	0.565	95.8	61	80.2	117.4	30
07/07/01	6:00 p	91.4	93.1	90.0	65	78.0	4.0	ESE	2.00	12.0	91.4	106.8	106.8	29.780	0.00	0.000	0.550	95.0	62	79.9	115.6	30
07/07/01	6:30 p	89.2	90.6	88.2	68	77.3	2.0	ESE	1.00	9.0	89.2	101.9	101.9	29.787	0.00	0.000	0.504	93.6	64	79.6	112.8	30
07/07/01	7:00 p	87.9	88.8	87.1	69	76.5	1.0	ESE	0.50	7.0	87.9	98.4	98.4	29.800	0.00	0.000	0.477	92.0	65	78.5	108.6	30
07/07/01	7:30 p	86.6	87.6	85.7	71	76.1	0.0	E	0.00	2.0	86.6	97.0	97.0	29.796	0.00	0.000	0.450	90.9	67	78.4	106.7	30
07/07/01	8:00 p	85.5	86.3	84.8	72	75.4	0.0	E	0.00	1.0	85.5	94.8	94.8	29.800	0.00	0.000	0.427	89.8	68	77.8	103.9	30
07/07/01	8:30 p	84.6	85.5	83.8	74	75.4	0.0	E	0.00	1.0	84.6	93.5	93.5	29.800	0.00	0.000	0.408	88.8	70	77.7	101.6	30
07/07/01	9:00 p	83.5	84.4	82.6	77	75.5	0.0	E	0.00	1.0	83.5	92.1	92.1	29.807	0.00	0.000	0.385	88.0	71	77.4	99.5	30
07/07/01	9:30 p	82.7	83.3	82.2	78	75.1	1.0	SE	0.50	4.0	82.7	90.2	90.2	29.808	0.00	0.000	0.369	87.4	73	77.7	99.4	30
07/07/01	10:00 p	82.2	82.8	81.6	81	75.8	0.0	SE	0.00	3.0	82.2	89.8	89.8	29.817	0.00	0.000	0.358	86.8	73	77.1	98.3	30
07/07/01	10:30 p	81.6	82.3	81.1	82	75.6	0.0	SE	0.00	2.0	81.6	88.5	88.5	29.824	0.00	0.000	0.346	86.4	74	77.1	97.7	30
07/07/01	11:00 p	81.0	81.7	80.4	83	75.3	0.0	SE	0.00	3.0	81.0	87.3	87.3	29.826	0.00	0.000	0.333	86.0	75	77.1	97.0	30
07/07/01	11:30 p	80.3	81.0	79.8	84	75.0	0.0	---	0.00	0.0	80.3	86.0	86.0	29.817	0.00	0.000	0.319	85.5	75	76.7	95.8	30
07/08/01	12:00 a	79.9	80.4	79.3	84	74.6	0.0	---	0.00	0.0	79.9	85.2	85.2	29.826	0.00	0.000	0.310	85.1	75	76.3	94.8	30
07/08/01	12:30 a	79.2	79.9	78.7	85	74.3	0.0	---	0.00	0.0	79.2	84.1	84.1	29.831	0.00	0.000	0.296	84.7	76	76.3	94.4	30
07/08/01	1:00 a	78.5	79.2	77.8	86	74.0	0.0	---	0.00	0.0	78.5	83.1	83.1	29.829	0.00	0.000	0.281	84.3	76	75.9	93.6	30
07/08/01	1:30 a	78.0	78.5	77.5	86	73.5	0.0	---	0.00	0.0	78.0	82.2	82.2	29.821	0.00	0.000	0.271	83.9	76	75.5	92.8	30
07/08/01	2:00 a	77.6	78.2	77.1	87	73.4	0.0	---	0.00	0.0	77.6	81.7	81.7	29.810	0.00	0.000	0.262	83.5	77	75.5	92.1	30
07/08/01	2:30 a	77.3	77.8	76.8	88	73.5	0.0	---	0.00	0.0	77.3	81.3	81.3	29.806	0.00	0.000	0.256	83.0	77	75.0	90.7	30
07/08/01	3:00 a	77.1	77.5	76.5	89	73.6	0.0	---	0.00	0.0	77.1	81.1	81.1	29.803	0.00	0.000	0.252	82.7	78	75.1	90.2	30
07/08/01	3:30 a	76.7	77.3	76.3	89	73.2	0.0	---	0.00	0.0	76.7	80.5	80.5	29.812	0.00	0.000	0.244	82.4	77	74.5	89.1	30
07/08/01	4:00 a	76.4	76.9	76.0	88	72.6	0.0	---	0.00	0.0	76.4	80.0	80.0	29.809	0.00	0.000	0.238	82.2	75	73.5	88.0	30
07/08/01	4:30 a	76.2	76.7	75.7	89	72.7	0.0	---	0.00	0.0	76.2	79.7	79.7	29.810	0.00	0.000	0.233	81.8	75	73.1	87.1	30
07/08/01	5:00 a	75.8	76.4	75.3	88	72.0	0.0	---	0.00	0.0	75.8	79.2	79.2	29.815	0.00	0.000	0.225	81.5	75	72.8	86.4	30
07/08/01	5:30 a	75.5	76.0	75.0	89	72.0	0.0	---	0.00	0.0	75.5	78.9	78.9	29.819	0.00	0.000	0.219	81.2	75	72.5	85.8	30
07/08/01	6:00 a	75.2	75.6	74.8	89	71.7	0.0	---	0.00	0.0	75.2	78.5	78.5	29.822	0.00	0.000	0.212	81.0	74	71.9	85.2	30
07/08/01	6:30 a	75.5	76.3	74.8	90	72.4	0.0	---	0.00	0.0	75.5	78.9	78.9	29.822	0.00	0.000	0.219	80.8	75	72.1	85.0	30
07/08/01	7:00 a	76.4	77.2	75.6	90	73.2	0.0	SE	0.00	3.0	76.4	80.1	80.1	29.822	0.00	0.000	0.238	80.9	75	72.2	85.2	30
07/08/01	7:30 a	77.4	78.2	76.6	86	72.9	0.0	SE	0.00	3.0	77.4	81.3	81.3	29.828	0.00	0.000	0.258	81.2	78	73.7	86.5	30
07/08/01	8:00 a	78.5	79.4	77.6	83	72.9	1.0	SW	0.50	5.0	78.5	82.6	82.6	29.829	0.00	0.000	0.281	82.0	80	75.2	88.9	30
07/08/01	8:30 a	79.8	80.9	78.7	80	73.1	1.0	SW	0.50	6.0	79.8	84.2	84.2	29.826	0.00	0.000	0.308	83.0	81	76.6	92.0	30
07/08/01	9:00 a	81.9	83.6	80.6	76	73.6	2.0	WSW	1.00	7.0	81.9	87.6	87.6	29.817	0.00	0.000	0.352	84.2	82	78.1	95.6	30
07/08/01	9:30 a	84.7	86.3	83.2	71	74.3	2.0	NW	1.00	6.0	84.7	92.6	92.6	29.824	0.00	0.000	0.410	85.7	80	78.8	98.1	30
07/08/01	10:00 a	87.2	88.8	85.7	69	75.8	2.0	NW	1.00	7.0	87.2	97.4	97.4	29.822	0.00	0.000	0.462	87.2	78	79.5	101.5	30
07/08/01	10:30 a	89.1	89.8	88.6	64	75.3	2.0	WNW	1.00	6.0	89.1	99.4	99.4	29.808	0.00	0.000	0.502	88.6	76	80.1	104.5	30
07/08/01	11:00 a	91.2	92.3	89.6	62	76.4	2.0	SW	1.00	7.0	91.2	104.2	104.2	29.804	0.00	0.000	0.546	90.1	73	80.3	108.3	30
07/08/01	11:30 a	91.8	92.5	91.2	58	74.9	2.0	NW	1.00	8.0	91.8	103.3	103.3	29.794	0.00	0.000	0.558	91.3	70	80.1	110.0	30
07/08/01	12:00 p	93.1	94.2	92.1	59	76.6	2.0	NW	1.00	7.0	93.1	107.4	107.4	29.793	0.00	0.000	0.585	92.8	68	80.7	113.4	30
07/08/01	12:30 p	94.1	95.2	92.6	59	77.6	3.0	ESE	1.50	12.0	94.1	110.3	110.3	29.783	0.00	0.000	0.606	93.9	68	81.7	117.3	30
07/08/01	1:00 p	93.0	95.1	91.7	63	78.5	4.0	ESE	2.00	14.0	93.0	110.1	110.1	29.778	0.00	0.000	0.583	94.5	67	81.8	118.6	30
07/08/01	1:30 p	87.0	91.9	82.1	73	77.3	4.0	N	2.00	12.0	87.0	98.8	98.8	29.785	0.00	0.000	0.458	93.8	63	79.3	112.6	30
07/08/01	2:00 p	81.2	82.4	80.3	81	74.8	2.0	S	1.00	6.0	81.2	87.2	87.2	29.778	0.00	0.000	0.337	90.7	65	77.3	104.8	30
07/08/01	2:30 p	84.4	87.6	81.6	76	76.0	3.0	SE	1.50	8.0	84.4	93.8	93.8	29.753	0.01	0.000	0.404	89.9	70	78.8	105.5	30
07/08/01	3:00 p	89.6	91.2	87.1	70	78.5	4.0	SE	2.00	10.0	89.6	104.4	104.4	29.737	0.01	0.000	0.512	91.5	71	80.8	111.6	30
07/08/01	3:30 p	92.5	93.8	90.3	63	78.1	4.0	ESE	2.00	15.0	92.5	108.6	108.6	29.732	0.00	0.000	0.573	93.2	70	82.0	116.4	30
07/08/01	4:00 p	93.2	93.9	92.1	63	78.7	5.0	ESE	2.50	14.0	93.2	110.7	110.7	29.729	0.01	0.000	0.587	94.0	66	80.9	115.8	30
07/08/01	4:30 p	90.1	92.4	85.6	63	75.8	4.0	SE	2.00	23.0	90.1	101.9	101.9	29.765	0.01	0.000	0.523	93.1	60	77.2	108.0	30
07/08/01	5:00 p	81.7	85.6	80.3	78	74.2	5.0	NW	2.50	21.0	81.7	87.7	87.7	29.749	0.00	0.000	0.348	89.2	63	75.0	99.3	30
07/08/01	5:30 p	80.6	81.0	80.3	82	74.6	1.0	SSW	0.50	5.0	80.6	86.2	86.2	29.743	0.01	0.000	0.325	88.3	68	76.4	99.1	30
07/08/01	6:00 p	81.2	81.6	80.7	81	74.8	0.0	SSE	0.00	3.0	81.2	87.2	87.2	29.738	0.00	0.000	0.337	87.8	70	76.8	98.7	30
07/08/01	6:30 p	80.3	81.5	78.6	81	73.9	5.0	SSW	2.50	23.0	80.3	85.3	85.3	29.776	0.01	0.000	0.319	87.1	69	75.7	97.3	30
07/08/01	7:00 p	76.9	78.8	75.9	81	70.6	7.0	SW	3.50	17.0	76.9	80.0	80.0	29.765	0.00	0.000	0.248	85.3	67	73.1	92.5	30
07/08/01	7:30 p	75.6	76.0	75.3	84	70.4	4.0	SW	2.00	12.0	75.6	78.6	78.6	29.778	0.01	0.000	0.221	83.9	68	72.2	90.0	30
07/08/01	8:00 p	74.3	75.3	73.4	87	70.2	5.0	NW	2.50	14.0	74.3	76.8	76.8	29.781	0.00	0.000	0.194	83.3	70	72.5	89.2	30
07/08/01	8:30 p	73.6	73.9	73.3	87	69.5	2.0	NW	1.00	9.0	73.6	75.9	75.9	29.771	0.00	0.000	0.179	82.7	70	71.9	87.8	30
07/08/01	9:00 p	73.9	74.3	73.4	88	70.1	0.0	NW	0.00	1.0	73.9	76.2	76.2	29.782	0.01	0.000	0.185	82.2	71	71.9	87.0	30
07/08/01	9:30 p	74.3	74.6	74.0	88	70.5	0.0	SW	0.00	3.0	74.3	76.9	76.9	29.791	0.00	0.000	0.194	82.0	72	72.1	86.8	30
07/08/01	10:00 p	74.3	74.6	74.0	87	70.2	1.0	S	0.50	4.0	74.3	76.8	76.8	29.780	0.00	0.000	0.194	81.8	72	71.9	86.4	30
07/08/01	10:30 p	74.2	74.4	74.0	88	70.4	0.0	SSW	0.00	3.0	74.2	76.7	76.7	29.747	0.01	0.000	0.192	81.6	71	71.3	85.8	30
07/08/01	11:00 p	73.9	74.3	73.5	88	70.1	0.0	WSW	0.00	3.0	73.9	76.2	76.2	29.721	0.00	0.000	0.185	81.2	72	71.3	85.2	30
07/08/01	11:30 p	73.5	73.8	73.3	89	70.1	1.0	S	0.50	5.0	73.5	75.9	75.9	29.746	0.00	0.000	0.177	80.9	71	70.6	84.4	30
07/09/01	12:00 a	73.6	73.8	73.4	89	70.2	0.0	S	0.00	3.0	73.6	76.0	76.0	29.766	0.01	0.000	0.179	80.7	72	70.8	84.3	30
07/09/01	12:30 a	73.4	73.7	73.2	90	70.3	0.0	---	0.00	0.0	73.4	75.9	75.9	29.760	0.00	0.000	0.175	80.4	72	70.5	83.8	30
07/09/01	1:00 a	73.2	73.5	72.9	90	70.1	0.0	---	0.00	1.0	73.2	75.7	75.7	29.757	0.00	0.000	0.171	80.1	72	70.3	83.2	30
07/09/01	1:30 a	73.1	73.3	72.8	90	70.0	0.0	S	0.00	4.0	73.1	75.6	75.6	29.746	0.00	0.000	0.169	79.9	72	70.1	82.9	30
07/09/01	2:00 a	72.8	73.1	72.5	91	70.0	0.0	---	0.00	1.0	72.8	75.3	75.3	29.748	0.01	0.000	0.163	79.6	73	70.2	82.6	30
07/09/01	2:30 a	72.7	72.9	72.5	91	69.9	0.0	---	0.00	0.0	72.7	75.2	75.2	29.734	0.00	0.000	0.160	79.4	72	69.6	82.2	30
07/09/01	3:00 a	72.6	72.9	72.3	91	69.8	1.0	SW	0.50	5.0	72.6	75.1	75.1	29.722	0.00	0.000	0.158	79.2	74	70.2	82.2	30
07/09/01	3:30 a	72.6	72.9	72.4	92	70.1	0.0	WSW	0.00	3.0	72.6	75.1	75.1	29.735	0.00	0.000	0.158	79.0	73	69.6	81.7	30
07/09/01	4:00 a	72.9	73.2	72.7	92	70.4	0.0	---	0.00	0.0	72.9	75.5	75.5	29.739	0.00	0.000	0.165	78.9	74	69.9	81.7	30
07/09/01	4:30 a	73.1	73.3	72.9	92	70.6	0.0	---	0.00	1.0	73.1	75.7	75.7	29.742	0.01	0.000	0.169	78.9	74	69.9	81.7	30
07/09/01	5:00 a	73.1	73.3	72.9	91	70.3	0.0	WSW	0.00	2.0	73.1	75.7	75.7	29.739	0.00	0.000	0.169	78.9	74	69.9	81.7	30
07/09/01	5:30 a	73.1	73.3	72.9	92	70.6	0.0	WSW	0.00	2.0	73.1	75.7	75.7	29.736	0.00	0.000	0.169	78.9	74	69.9	81.7	30
07/09/01	6:00 a	73.1	73.2	72.9	91	70.3	0.0	WSW	0.00	2.0	73.1	75.7	75.7	29.736	0.00	0.000	0.169	78.9	74	69.9	81.7	30
07/09/01	6:30 a	73.4	73.7	72.9	91	70.6	0.0	WSW	0.00	2.0	73.4	75.9	75.9	29.736	0.00	0.000	0.175	79.0	74	70.0	81.9	30
07/09/01	7:00 a	73.8	74.2	73.4	91	71.0	0.0	WSW	0.00	3.0	73.8	76.3	76.3	29.738	0.01	0.000	0.183	79.1	74	70.1	82.0	30
07/09/01	7:30 a	74.8	75.7	74.1	91	72.0	1.0	WSW	0.50	4.0	74.8	78.1	78.1	29.745	0.00	0.000	0.204	79.3	75	70.7	82.5	30
07/09/01	8:00 a	76.3	77.1	75.5	88	72.5	1.0	WSW	0.50	5.0	76.3	79.8	79.8	29.753	0.00	0.000	0.235	79.9	77	72.0	83.8	30
07/09/01	8:30 a	77.5	78.0	76.9	88	73.7	1.0	WSW	0.50	6.0	77.5	81.7	81.7	29.750	0.00	0.000	0.260	80.6	78	73.1	85.3	30
07/09/01	9:00 a	78.5	78.9	77.9	86	74.0	1.0	WSW	0.50	5.0	78.5	83.1	83.1	29.744	0.00	0.000	0.281	81.3	79	74.2	87.0	30
07/09/01	9:30 a	78.9	79.0	78.7	88	75.0	0.0	WSW	0.00	3.0	78.9	84.1	84.1	29.748	0.01	0.000	0.290	82.0	80	75.2	88.9	30
07/09/01	10:00 a	79.3	79.8	78.8	86	74.7	0.0	WSW	0.00	3.0	79.3	84.5	84.5	29.753	0.00	0.000	0.298	82.5	80	75.7	90.3	30
07/09/01	10:30 a	81.0	82.0	79.7	83	75.3	2.0	W	1.00	6.0	81.0	87.3	87.3	29.740	0.00	0.000	0.333	83.2	81	76.8	92.5	30
07/09/01	11:00 a	82.4	82.8	81.9	82	76.3	2.0	SW	1.00	7.0	82.4	90.6	90.6	29.742	0.00	0.000	0.363	84.3	82	78.2	95.8	30
07/09/01	11:30 a	84.3	85.9	82.7	78	76.7	2.0	SW	1.00	6.0	84.3	94.4	94.4	29.718	0.01	0.000	0.402	85.2	82	79.1	97.7	30
07/09/01	12:00 p	86.4	86.8	85.8	75	77.5	3.0	WSW	1.50	8.0	86.4	98.0	98.0	29.716	0.00	0.000	0.446	86.9	81	80.4	102.4	30
07/09/01	12:30 p	86.2	86.6	84.7	71	75.7	3.0	WSW	1.50	22.0	86.2	96.1	96.1	29.732	0.00	0.000	0.442	87.6	79	80.3	102.9	30
07/09/01	1:00 p	79.0	84.7	75.6	88	75.1	8.0	NW	4.00	22.0	78.6	84.3	83.9	29.761	0.00	0.000	0.292	85.9	73	76.2	96.1	30
07/09/01	1:30 p	75.8	76.4	75.2	90	72.7	1.0	NW	0.50	12.0	75.8	79.3	79.3	29.751	0.00	0.000	0.225	83.8	75	75.0	92.2	30
07/09/01	2:00 p	77.4	78.8	76.2	86	72.9	1.0	SW	0.50	8.0	77.4	81.3	81.3	29.743	0.01	0.000	0.258	83.3	78	75.7	91.9	30
07/09/01	2:30 p	79.5	79.9	78.7	83	73.9	3.0	WSW	1.50	9.0	79.5	84.3	84.3	29.743	0.00	0.000	0.302	83.7	78	76.1	93.0	30
07/09/01	3:00 p	79.0	79.6	78.6	84	73.7	2.0	WSW	1.00	9.0	79.0	83.5	83.5	29.726	0.00	0.000	0.292	83.7	78	76.1	93.0	30
07/09/01	3:30 p	78.5	78.8	78.2	88	74.6	2.0	NW	1.00	9.0	78.5	83.4	83.4	29.713	0.01	0.000	0.281	83.6	79	76.4	93.0	30
07/09/01	4:00 p	78.6	78.7	78.4	87	74.4	1.0	WSW	0.50	6.0	78.6	83.4	83.4	29.708	0.00	0.000	0.283	83.3	80	76.5	92.5	30
07/09/01	4:30 p	78.4	78.7	78.1	87	74.2	1.0	WSW	0.50	5.0	78.4	83.1	83.1	29.695	0.01	0.000	0.279	83.1	79	75.9	91.7	30
07/09/01	5:00 p	78.1	78.4	77.9	88	74.3	1.0	SW	0.50	5.0	78.1	82.7	82.7	29.690	0.00	0.000	0.273	82.7	80	75.9	90.9	30
07/09/01	5:30 p	77.8	78.1	77.5	90	74.6	0.0	SW	0.00	3.0	77.8	82.4	82.4	29.692	0.00	0.000	0.267	82.4	81	76.0	90.3	30
07/09/01	6:00 p	77.5	77.7	77.3	89	74.0	2.0	SW	1.00	9.0	77.5	81.8	81.8	29.695	0.01	0.000	0.260	82.3	81	75.9	90.0	30
07/09/01	6:30 p	77.2	77.5	76.8	89	73.7	3.0	SSW	1.50	9.0	77.2	81.3	81.3	29.703	0.00	0.000	0.254	82.3	81	75.9	90.0	30
07/09/01	7:00 p	76.8	77.1	76.6	89	73.3	1.0	SSW	0.50	7.0	76.8	80.6	80.6	29.701	0.52	0.000	0.246	82.4	81	76.0	90.3	30
07/09/01	7:30 p	76.5	76.9	76.0	89	73.0	2.0	SSW	1.00	8.0	76.5	80.2	80.2	29.694	0.00	0.000	0.240	82.2	80	75.4	89.5	30
07/09/01	8:00 p	75.8	76.2	75.4	91	73.0	3.0	SSW	1.50	8.0	75.8	79.4	79.4	29.691	0.00	0.000	0.225	81.8	80	75.0	88.4	30
07/09/01	8:30 p	75.4	75.6	75.1	91	72.6	2.0	SW	1.00	7.0	75.4	78.9	78.9	29.686	0.00	0.000	0.217	81.4	81	75.0	87.7	30
07/09/01	9:00 p	75.1	75.4	74.9	91	72.3	2.0	SW	1.00	9.0	75.1	78.6	78.6	29.685	0.00	0.000	0.210	81.1	81	74.7	87.0	30
07/09/01	9:30 p	75.0	75.2	74.7	91	72.2	2.0	SW	1.00	7.0	75.0	78.5	78.5	29.691	0.00	0.000	0.208	80.9	81	74.5	86.6	30
07/09/01	10:00 p	74.8	75.0	74.6	92	72.3	2.0	WSW	1.00	6.0	74.8	78.1	78.1	29.697	0.00	0.000	0.204	80.7	80	74.0	85.9	30
07/09/01	10:30 p	74.7	74.8	74.4	91	71.9	2.0	SW	1.00	8.0	74.7	77.9	77.9	29.695	0.00	0.000	0.202	80.5	80	73.8	85.5	30
07/09/01	11:00 p	74.4	74.7	74.2	90	71.3	2.0	SW	1.00	6.0	74.4	77.2	77.2	29.694	0.00	0.000	0.196	80.5	80	73.8	85.5	30
07/09/01	11:30 p	74.2	74.5	74.1	91	71.4	2.0	SW	1.00	8.0	74.2	76.9	76.9	29.687	0.00	0.000	0.192	80.6	79	73.5	85.5	30
07/10/01	12:00 a	74.2	74.4	74.1	91	71.4	2.0	SW	1.00	6.0	74.2	76.9	76.9	29.694	0.00	0.000	0.192	80.4	80	73.7	85.3	30
07/10/01	12:30 a	74.1	74.3	73.8	92	71.6	3.0	SW	1.50	7.0	74.1	76.8	76.8	29.694	0.00	0.000	0.190	79.9	80	73.2	84.3	30
07/10/01	1:00 a	73.9	74.1	73.7	92	71.4	2.0	SW	1.00	7.0	73.9	76.5	76.5	29.688	0.00	0.000	0.185	79.5	81	73.2	83.9	30
07/10/01	1:30 a	73.8	74.0	73.6	93	71.6	2.0	SW	1.00	8.0	73.8	76.5	76.5	29.685	0.00	0.000	0.183	79.2	81	72.9	83.3	30
07/10/01	2:00 a	73.8	74.0	73.6	94	72.0	2.0	SW	1.00	8.0	73.8	76.7	76.7	29.688	0.00	0.000	0.183	79.0	82	73.0	83.2	30
07/10/01	2:30 a	73.7	73.9	73.5	94	71.9	2.0	SW	1.00	6.0	73.7	76.5	76.5	29.683	0.00	0.000	0.181	78.8	82	72.8	82.9	30
07/10/01	3:00 a	73.6	73.8	73.4	94	71.8	2.0	SW	1.00	6.0	73.6	76.4	76.4	29.683	0.00	0.000	0.179	78.7	82	72.7	82.7	30
07/10/01	3:30 a	73.5	73.7	73.3	94	71.7	2.0	SW	1.00	7.0	73.5	76.3	76.3	29.683	0.00	0.000	0.177	78.5	82	72.5	82.4	30
07/10/01	4:00 a	73.5	73.6	73.3	94	71.7	2.0	SW	1.00	7.0	73.5	76.3	76.3	29.676	0.00	0.000	0.177	78.4	83	72.8	82.4	30
07/10/01	4:30 a	73.6	73.8	73.4	94	71.8	1.0	SW	0.50	5.0	73.6	76.4	76.4	29.678	0.00	0.000	0.179	78.3	82	72.3	82.1	30
07/10/01	5:00 a	73.7	73.8	73.5	94	71.9	2.0	SW	1.00	5.0	73.7	76.5	76.5	29.683	0.00	0.000	0.181	78.2	83	72.6	82.1	30
07/10/01	5:30 a	73.6	73.8	73.4	94	71.8	1.0	SW	0.50	5.0	73.6	76.4	76.4	29.687	0.00	0.000	0.179	78.2	83	72.6	82.1	30
07/10/01	6:00 a	73.5	73.7	73.3	94	71.7	2.0	SW	1.00	6.0	73.5	76.3	76.3	29.691	0.00	0.000	0.177	78.1	83	72.5	82.0	30
07/10/01	6:30 a	73.5	73.8	73.3	94	71.7	3.0	SW	1.50	8.0	73.5	76.3	76.3	29.694	0.00	0.000	0.177	78.3	83	72.7	82.3	30
07/10/01	7:00 a	74.1	74.7	73.5	93	71.9	3.0	SW	1.50	9.0	74.1	76.9	76.9	29.689	0.00	0.000	0.190	78.4	84	73.2	82.6	30
07/10/01	7:30 a	75.1	75.6	74.6	93	72.9	2.0	WSW	1.00	6.0	75.1	78.7	78.7	29.690	0.00	0.000	0.210	78.8	85	73.9	83.4	30
07/10/01	8:00 a	76.2	76.9	75.4	93	74.0	2.0	SW	1.00	6.0	76.2	80.1	80.1	29.699	0.00	0.000	0.233	79.2	85	74.3	84.1	30
07/10/01	8:30 a	77.8	78.9	76.8	89	74.3	2.0	SW	1.00	7.0	77.8	82.3	82.3	29.696	0.00	0.000	0.267	80.0	87	75.8	86.1	30
07/10/01	9:00 a	80.2	81.7	78.8	84	74.9	3.0	WSW	1.50	9.0	80.2	85.8	85.8	29.694	0.00	0.000	0.317	81.3	88	77.4	89.5	30
07/10/01	9:30 a	82.7	84.0	81.7	81	76.3	3.0	WSW	1.50	10.0	82.7	91.1	91.1	29.689	0.00	0.000	0.369	83.0	89	79.4	94.5	30
07/10/01	10:00 a	84.8	85.6	83.9	77	76.8	4.0	WSW	2.00	11.0	84.8	94.9	94.9	29.684	0.00	0.000	0.413	84.5	88	80.6	98.6	30
07/10/01	10:30 a	86.3	87.1	85.5	74	77.0	4.0	WNW	2.00	10.0	86.3	97.4	97.4	29.677	0.00	0.000	0.444	85.7	85	80.7	100.4	30
07/10/01	11:00 a	87.5	88.0	87.0	72	77.4	4.0	NW	2.00	11.0	87.5	99.1	99.1	29.672	0.00	0.000	0.469	86.8	82	80.6	102.7	30
07/10/01	11:30 a	88.4	89.0	87.8	71	77.8	3.0	NW	1.50	9.0	88.4	100.9	100.9	29.669	0.00	0.000	0.488	87.5	81	80.9	104.0	30
07/10/01	12:00 p	89.5	90.0	89.0	66	76.6	3.0	WSW	1.50	9.0	89.5	101.8	101.8	29.657	0.00	0.000	0.510	88.6	79	81.2	106.6	30
07/10/01	12:30 p	90.7	91.3	89.7	63	76.4	4.0	SW	2.00	9.0	90.7	103.5	103.5	29.649	0.00	0.000	0.535	89.6	76	81.0	108.6	30
07/10/01	1:00 p	91.4	92.2	91.0	60	75.6	3.0	SW	1.50	8.0	91.4	103.3	103.3	29.634	0.00	0.000	0.550	90.4	73	80.6	109.4	30
07/10/01	1:30 p	92.0	92.3	91.7	62	77.1	2.0	WSW	1.00	7.0	92.0	106.4	106.4	29.622	0.00	0.000	0.563	91.5	72	81.2	112.6	30
07/10/01	2:00 p	91.9	92.1	91.7	62	77.0	2.0	SW	1.00	7.0	91.9	106.1	106.1	29.622	0.00	0.000	0.560	92.0	71	81.2	113.4	30
07/10/01	2:30 p	91.8	92.0	91.6	61	76.4	2.0	SSW	1.00	7.0	91.8	105.1	105.1	29.604	0.00	0.000	0.558	92.3	70	81.1	113.3	30
07/10/01	3:00 p	91.9	92.9	91.6	61	76.5	2.0	SSW	1.00	8.0	91.9	105.4	105.4	29.602	0.00	0.000	0.560	92.4	69	80.7	112.9	30
07/10/01	3:30 p	91.9	93.0	89.2	59	75.5	3.0	S	1.50	15.0	91.9	104.1	104.1	29.622	0.00	0.000	0.560	92.7	68	80.6	113.1	30
07/10/01	4:00 p	84.2	88.8	81.1	79	77.0	5.0	NW	2.50	16.0	84.2	94.5	94.5	29.640	0.04	0.000	0.400	91.2	66	78.2	106.9	30
07/10/01	4:30 p	80.3	81.2	79.5	83	74.7	1.0	NW	0.50	5.0	80.3	85.8	85.8	29.639	0.21	0.000	0.319	88.7	68	76.8	100.3	30
07/10/01	5:00 p	79.1	79.8	78.6	85	74.2	1.0	NW	0.50	7.0	79.1	83.9	83.9	29.646	0.02	0.000	0.294	87.1	70	76.1	97.6	30
07/10/01	5:30 p	78.1	78.7	77.5	88	74.3	2.0	SW	1.00	10.0	78.1	82.7	82.7	29.679	0.00	0.000	0.273	86.0	72	75.9	96.0	30
07/10/01	6:00 p	77.4	77.7	76.9	89	73.9	4.0	SW	2.00	15.0	77.4	81.6	81.6	29.690	0.00	0.000	0.258	85.1	74	75.9	94.5	30
07/10/01	6:30 p	76.6	77.1	76.2	90	73.4	4.0	SSW	2.00	10.0	76.6	80.4	80.4	29.692	0.00	0.000	0.242	84.3	75	75.5	93.3	30
07/10/01	7:00 p	76.1	76.4	75.7	91	73.3	4.0	SSW	2.00	11.0	76.1	79.8	79.8	29.694	0.00	0.000	0.231	83.7	76	75.3	92.3	30
07/10/01	7:30 p	75.6	75.9	75.2	91	72.8	4.0	SW	2.00	13.0	75.6	79.1	79.1	29.701	0.01	0.000	0.221	83.0	77	75.0	90.7	30
07/10/01	8:00 p	75.3	75.5	75.0	91	72.5	2.0	SW	1.00	8.0	75.3	78.8	78.8	29.697	0.00	0.000	0.215	82.4	78	74.8	89.4	30
07/10/01	8:30 p	75.2	75.5	74.9	91	72.4	2.0	WSW	1.00	7.0	75.2	78.7	78.7	29.683	0.00	0.000	0.212	82.2	78	74.7	88.9	30
07/10/01	9:00 p	75.0	75.2	74.8	91	72.2	2.0	SW	1.00	8.0	75.0	78.5	78.5	29.673	0.00	0.000	0.208	82.0	77	74.1	88.1	30
07/10/01	9:30 p	74.9	75.2	74.5	91	72.1	2.0	WSW	1.00	7.0	74.9	78.3	78.3	29.674	0.00	0.000	0.206	81.7	77	73.8	87.4	30
07/10/01	10:00 p	74.5	74.8	74.2	92	72.0	1.0	WSW	0.50	6.0	74.5	77.6	77.6	29.667	0.00	0.000	0.198	81.3	77	73.4	86.5	30
07/10/01	10:30 p	74.3	74.6	73.9	92	71.8	1.0	WSW	0.50	5.0	74.3	77.2	77.2	29.658	0.00	0.000	0.194	81.0	78	73.5	86.1	30
07/10/01	11:00 p	74.1	74.3	73.9	91	71.3	1.0	SW	0.50	6.0	74.1	76.7	76.7	29.655	0.00	0.000	0.190	80.8	77	72.9	85.5	30
07/10/01	11:30 p	74.0	74.3	73.7	92	71.5	2.0	SSW	1.00	6.0	74.0	76.6	76.6	29.666	0.00	0.000	0.188	80.5	77	72.6	84.9	30
07/11/01	12:00 a	73.8	74.1	73.5	92	71.3	1.0	SW	0.50	6.0	73.8	76.4	76.4	29.674	0.00	0.000	0.183	80.2	78	72.7	84.5	30
07/11/01	12:30 a	73.6	73.9	73.4	93	71.4	2.0	SW	1.00	7.0	73.6	76.3	76.3	29.669	0.00	0.000	0.179	80.0	79	72.9	84.3	30
07/11/01	1:00 a	73.5	73.7	73.2	93	71.4	2.0	SW	1.00	6.0	73.5	76.2	76.2	29.672	0.00	0.000	0.177	79.7	79	72.6	83.8	30
07/11/01	1:30 a	73.4	73.5	73.2	93	71.3	2.0	SW	1.00	7.0	73.4	76.1	76.1	29.672	0.00	0.000	0.175	79.5	79	72.4	83.5	30
07/11/01	2:00 a	73.3	73.5	73.0	93	71.2	1.0	SW	0.50	7.0	73.3	76.0	76.0	29.663	0.00	0.000	0.173	79.3	79	72.2	83.1	30
07/11/01	2:30 a	73.0	73.3	72.6	93	70.9	2.0	SW	1.00	8.0	73.0	75.7	75.7	29.664	0.00	0.000	0.167	79.0	80	72.3	82.8	30
07/11/01	3:00 a	72.7	72.9	72.4	93	70.6	2.0	SW	1.00	5.0	72.7	75.3	75.3	29.660	0.00	0.000	0.160	78.7	80	72.0	82.4	30
07/11/01	3:30 a	72.5	72.7	72.3	93	70.4	2.0	SW	1.00	5.0	72.5	75.1	75.1	29.665	0.00	0.000	0.156	78.5	80	71.8	82.1	30
07/11/01	4:00 a	72.4	72.7	72.2	94	70.6	1.0	WSW	0.50	4.0	72.4	75.1	75.1	29.673	0.00	0.000	0.154	78.3	80	71.6	81.8	30
07/11/01	4:30 a	72.4	72.6	72.1	94	70.6	1.0	SW	0.50	4.0	72.4	75.1	75.1	29.680	0.00	0.000	0.154	78.1	80	71.4	81.5	30
07/11/01	5:00 a	72.3	72.5	72.0	94	70.5	0.0	SW	0.00	3.0	72.3	75.0	75.0	29.683	0.00	0.000	0.152	77.9	80	71.2	81.3	30
07/11/01	5:30 a	72.1	72.4	72.0	94	70.3	1.0	SW	0.50	3.0	72.1	74.8	74.8	29.698	0.00	0.000	0.148	77.8	80	71.1	81.1	30
07/11/01	6:00 a	72.2	72.4	71.9	94	70.4	1.0	SW	0.50	5.0	72.2	74.9	74.9	29.699	0.00	0.000	0.150	77.8	80	71.1	81.1	30
07/11/01	6:30 a	72.3	72.5	72.0	94	70.5	1.0	SW	0.50	3.0	72.3	75.0	75.0	29.701	0.00	0.000	0.152	77.7	80	71.0	81.0	30
07/11/01	7:00 a	72.8	73.3	72.2	94	71.0	1.0	SW	0.50	5.0	72.8	75.5	75.5	29.703	0.01	0.000	0.163	78.0	81	71.7	81.5	30
07/11/01	7:30 a	73.6	74.1	73.1	94	71.8	2.0	WSW	1.00	7.0	73.6	76.4	76.4	29.703	0.00	0.000	0.179	78.3	83	72.7	82.3	30
07/11/01	8:00 a	75.0	76.2	74.0	93	72.8	2.0	WSW	1.00	7.0	75.0	78.6	78.6	29.703	0.00	0.000	0.208	78.9	86	74.4	83.7	30
07/11/01	8:30 a	77.3	78.7	76.0	90	74.1	2.0	WSW	1.00	8.0	77.3	81.5	81.5	29.703	0.00	0.000	0.256	79.9	88	76.0	86.1	30
07/11/01	9:00 a	80.0	81.4	78.5	84	74.7	3.0	SW	1.50	10.0	80.0	85.4	85.4	29.694	0.00	0.000	0.313	81.4	89	77.8	90.1	30
07/11/01	9:30 a	82.6	83.9	81.2	78	75.0	3.0	WSW	1.50	8.0	82.6	90.0	90.0	29.689	0.00	0.000	0.367	83.0	87	78.7	93.8	30
07/11/01	10:00 a	85.1	86.2	83.9	73	75.5	4.0	WSW	2.00	11.0	85.1	94.2	94.2	29.680	0.00	0.000	0.419	84.5	85	79.5	97.3	30
07/11/01	10:30 a	87.1	87.9	86.2	69	75.7	3.0	WSW	1.50	12.0	87.1	97.3	97.3	29.676	0.00	0.000	0.460	85.8	82	79.7	99.2	30
07/11/01	11:00 a	89.0	90.2	87.7	65	75.7	4.0	SW	2.00	11.0	89.0	99.6	99.6	29.667	0.00	0.000	0.500	87.3	79	80.0	102.3	30
07/11/01	11:30 a	90.9	91.7	90.0	63	76.6	4.0	WSW	2.00	10.0	90.9	104.0	104.0	29.661	0.00	0.000	0.540	88.5	76	80.0	104.1	30
07/11/01	12:00 p	92.5	93.6	91.5	60	76.6	3.0	WNW	1.50	13.0	92.5	106.3	106.3	29.648	0.00	0.000	0.573	90.1	74	80.7	109.1	30
07/11/01	12:30 p	92.3	94.6	86.4	73	82.4	6.0	WNW	3.00	20.0	92.3	116.9	116.9	29.674	0.00	0.000	0.569	91.3	70	80.1	110.0	30
07/11/01	1:00 p	82.2	85.9	80.3	83	76.5	5.0	NW	2.50	16.0	82.2	90.3	90.3	29.657	0.05	0.000	0.358	89.6	70	78.5	104.4	30
07/11/01	1:30 p	79.9	80.7	79.3	86	75.3	3.0	NW	1.50	12.0	79.9	85.6	85.6	29.666	0.00	0.000	0.310	87.6	72	77.5	99.3	30
07/11/01	2:00 p	79.1	79.3	78.9	83	73.5	4.0	WSW	2.00	11.0	79.1	83.5	83.5	29.671	0.00	0.000	0.294	86.1	74	76.8	96.9	30
07/11/01	2:30 p	78.7	79.0	78.2	83	73.1	2.0	SW	1.00	8.0	78.7	82.9	82.9	29.661	0.01	0.000	0.285	85.0	74	75.8	94.3	30
07/11/01	3:00 p	78.1	78.5	77.8	86	73.6	1.0	SSW	0.50	6.0	78.1	82.4	82.4	29.671	0.00	0.000	0.273	84.1	75	75.3	92.9	30
07/11/01	3:30 p	77.5	78.0	76.7	88	73.7	3.0	S	1.50	11.0	77.5	81.7	81.7	29.687	0.00	0.000	0.260	83.7	75	74.9	91.9	30
07/11/01	4:00 p	76.0	77.0	75.3	90	72.9	5.0	SSW	2.50	11.0	76.0	79.5	79.5	29.680	0.04	0.000	0.229	82.9	76	74.6	90.2	30
07/11/01	4:30 p	75.3	75.6	75.0	91	72.5	4.0	SSW	2.00	10.0	75.3	78.8	78.8	29.674	0.02	0.000	0.215	82.3	77	74.4	88.9	30
07/11/01	5:00 p	75.8	76.5	75.2	92	73.3	3.0	SSW	1.50	10.0	75.8	79.5	79.5	29.663	0.00	0.000	0.225	82.1	79	74.9	88.9	30
07/11/01	5:30 p	76.6	77.0	76.2	92	74.1	3.0	SSW	1.50	8.0	76.6	80.6	80.6	29.659	0.00	0.000	0.242	82.1	81	75.7	89.5	30
07/11/01	6:00 p	77.0	77.4	76.7	92	74.5	3.0	SSW	1.50	10.0	77.0	81.2	81.2	29.662	0.00	0.000	0.250	82.1	82	76.1	89.8	30
07/11/01	6:30 p	77.5	77.7	77.0	91	74.7	3.0	SSW	1.50	10.0	77.5	82.0	82.0	29.664	0.00	0.000	0.260	82.2	83	76.5	90.3	30
07/11/01	7:00 p	77.6	77.8	77.4	91	74.8	3.0	SW	1.50	9.0	77.6	82.2	82.2	29.669	0.00	0.000	0.262	82.1	84	76.8	90.4	30
07/11/01	7:30 p	77.2	77.6	76.9	92	74.7	4.0	SW	2.00	10.0	77.2	81.6	81.6	29.668	0.00	0.000	0.254	81.9	84	76.6	89.8	30
07/11/01	8:00 p	76.8	77.1	76.5	93	74.6	3.0	SSW	1.50	9.0	76.8	81.0	81.0	29.683	0.00	0.000	0.246	81.5	84	76.2	88.8	30
07/11/01	8:30 p	76.6	76.8	76.3	93	74.4	2.0	SW	1.00	8.0	76.6	80.7	80.7	29.692	0.00	0.000	0.242	81.2	85	76.3	88.3	30
07/11/01	9:00 p	76.3	76.6	76.1	93	74.1	2.0	SW	1.00	7.0	76.3	80.3	80.3	29.703	0.00	0.000	0.235	81.1	85	76.2	88.1	30
07/11/01	9:30 p	76.2	76.4	76.0	93	74.0	3.0	SW	1.50	8.0	76.2	80.1	80.1	29.714	0.00	0.000	0.233	81.2	85	76.3	88.3	30
07/11/01	10:00 p	76.0	76.3	75.7	91	73.2	4.0	SW	2.00	7.0	76.0	79.6	79.6	29.726	0.00	0.000	0.229	81.2	83	75.5	87.8	30
07/11/01	10:30 p	75.8	76.0	75.6	91	73.0	3.0	SW	1.50	8.0	75.8	79.4	79.4	29.728	0.00	0.000	0.225	80.9	83	75.2	87.1	30
07/11/01	11:00 p	75.7	75.8	75.5	91	72.9	3.0	SW	1.50	8.0	75.7	79.3	79.3	29.725	0.00	0.000	0.223	80.9	83	75.2	87.1	30
07/11/01	11:30 p	75.5	75.7	75.2	91	72.7	3.0	SW	1.50	7.0	75.5	79.0	79.0	29.720	0.00	0.000	0.219	80.9	82	74.9	86.8	30
07/12/01	12:00 a	75.2	75.4	74.9	92	72.7	2.0	SSW	1.00	8.0	75.2	78.8	78.8	29.724	0.00	0.000	0.212	80.7	82	74.7	86.4	30
07/12/01	12:30 a	74.9	75.2	74.7	94	73.1	2.0	SW	1.00	7.0	74.9	78.5	78.5	29.715	0.00	0.000	0.206	80.5	82	74.5	86.0	30
07/12/01	1:00 a	74.7	74.9	74.4	94	72.9	2.0	SW	1.00	7.0	74.7	78.1	78.1	29.719	0.00	0.000	0.202	80.4	83	74.8	86.0	30
07/12/01	1:30 a	74.6	74.7	74.4	95	73.1	1.0	SW	0.50	5.0	74.6	78.0	78.0	29.719	0.00	0.000	0.200	80.2	83	74.6	85.6	30
07/12/01	2:00 a	74.5	74.7	74.3	95	73.0	2.0	SW	1.00	6.0	74.5	77.8	77.8	29.721	0.00	0.000	0.198	80.1	84	74.8	85.6	30
07/12/01	2:30 a	74.5	74.7	74.3	95	73.0	1.0	SW	0.50	7.0	74.5	77.8	77.8	29.724	0.00	0.000	0.198	79.9	84	74.6	85.2	30
07/12/01	3:00 a	74.5	74.7	74.3	95	73.0	1.0	SW	0.50	5.0	74.5	77.8	77.8	29.718	0.00	0.000	0.198	79.9	84	74.6	85.2	30
07/12/01	3:30 a	74.5	74.7	74.3	96	73.3	1.0	SW	0.50	5.0	74.5	77.9	77.9	29.728	0.00	0.000	0.198	79.8	84	74.5	85.0	30
07/12/01	4:00 a	74.5	74.6	74.3	96	73.3	2.0	SW	1.00	6.0	74.5	77.9	77.9	29.726	0.00	0.000	0.198	79.7	85	74.8	85.0	30
07/12/01	4:30 a	74.4	74.6	74.3	96	73.2	1.0	SW	0.50	4.0	74.4	77.8	77.8	29.737	0.00	0.000	0.196	79.6	84	74.3	84.6	30
07/12/01	5:00 a	74.3	74.6	74.1	96	73.1	1.0	SW	0.50	5.0	74.3	77.6	77.6	29.739	0.00	0.000	0.194	79.5	85	74.6	84.6	30
07/12/01	5:30 a	74.2	74.4	74.1	96	73.0	1.0	SW	0.50	6.0	74.2	77.4	77.4	29.744	0.00	0.000	0.192	79.4	85	74.5	84.5	30
07/12/01	6:00 a	74.2	74.4	74.0	96	73.0	1.0	SSW	0.50	5.0	74.2	77.4	77.4	29.758	0.00	0.000	0.192	79.4	84	74.1	84.3	30
07/12/01	6:30 a	74.2	74.5	74.0	95	72.7	1.0	SSW	0.50	6.0	74.2	77.3	77.3	29.765	0.00	0.000	0.192	79.3	84	74.0	84.1	30
07/12/01	7:00 a	74.5	74.8	74.2	96	73.3	2.0	SSW	1.00	5.0	74.5	77.9	77.9	29.771	0.00	0.000	0.198	79.5	84	74.2	84.4	30
07/12/01	7:30 a	75.1	75.6	74.6	95	73.6	2.0	SSW	1.00	6.0	75.1	78.8	78.8	29.774	0.00	0.000	0.210	79.8	85	74.9	85.2	30
07/12/01	8:00 a	76.1	76.7	75.5	95	74.6	3.0	SW	1.50	9.0	76.1	80.1	80.1	29.776	0.00	0.000	0.231	80.0	87	75.8	86.1	30
07/12/01	8:30 a	77.6	78.8	76.5	91	74.8	4.0	SW	2.00	10.0	77.6	82.2	82.2	29.771	0.00	0.000	0.262	80.5	89	77.0	87.7	30
07/12/01	9:00 a	80.4	82.1	78.6	86	75.8	5.0	SW	2.50	11.0	80.4	86.7	86.7	29.761	0.00	0.000	0.321	82.0	93	79.8	93.2	30
07/12/01	9:30 a	83.5	84.7	81.9	79	76.3	5.0	SW	2.50	16.0	83.5	92.8	92.8	29.754	0.00	0.000	0.385	84.1	90	80.8	98.3	30
07/12/01	10:00 a	85.7	86.7	84.6	75	76.9	4.0	SW	2.00	13.0	85.7	96.3	96.3	29.749	0.00	0.000	0.431	85.7	86	81.0	101.0	30
07/12/01	10:30 a	88.0	89.2	86.5	68	76.1	4.0	SW	2.00	14.0	88.0	98.1	98.1	29.737	0.00	0.000	0.479	87.3	80	80.4	102.8	30
07/12/01	11:00 a	89.8	90.5	88.9	68	77.8	4.0	SW	2.00	11.0	89.8	103.9	103.9	29.737	0.00	0.000	0.517	88.6	79	81.2	106.6	30
07/12/01	11:30 a	90.3	91.3	89.4	69	78.7	3.0	SW	1.50	9.0	90.3	106.1	106.1	29.732	0.00	0.000	0.527	89.7	79	82.3	111.3	30
07/12/01	12:00 p	87.8	90.8	86.6	81	81.2	4.0	SSW	2.00	16.0	87.8	104.7	104.7	29.739	0.01	0.000	0.475	89.8	78	82.0	110.9	30
07/12/01	12:30 p	88.4	89.2	86.7	69	76.9	6.0	SSW	3.00	18.0	88.4	99.8	99.8	29.753	0.01	0.000	0.488	89.4	77	81.2	108.6	30
07/12/01	1:00 p	86.4	88.5	83.7	83	80.6	7.0	SW	3.50	19.0	86.4	101.8	101.8	29.747	0.08	0.000	0.446	89.7	76	81.1	109.0	30
07/12/01	1:30 p	82.6	83.9	81.7	85	77.6	5.0	SW	2.50	13.0	82.6	92.0	92.0	29.742	0.00	0.000	0.367	88.1	77	80.0	103.0	30
07/12/01	2:00 p	81.2	81.9	80.6	84	75.9	2.0	SW	1.00	7.0	81.2	88.1	88.1	29.748	0.00	0.000	0.337	86.7	78	79.0	100.2	30
07/12/01	2:30 p	80.3	80.9	80.0	86	75.7	3.0	SW	1.50	9.0	80.3	86.5	86.5	29.727	0.01	0.000	0.319	85.8	78	78.1	97.6	30
07/12/01	3:00 p	80.6	81.1	80.0	87	76.4	2.0	SW	1.00	7.0	80.6	87.4	87.4	29.735	0.00	0.000	0.325	85.4	80	78.5	97.4	30
07/12/01	3:30 p	81.4	81.9	80.9	85	76.5	3.0	SW	1.50	11.0	81.4	88.8	88.8	29.727	0.00	0.000	0.342	85.4	82	79.3	98.2	30
07/12/01	4:00 p	82.1	82.2	81.8	80	75.3	3.0	SW	1.50	12.0	82.1	89.2	89.2	29.730	0.00	0.000	0.356	85.4	81	78.9	97.8	30
07/12/01	4:30 p	81.9	82.2	81.6	80	75.1	2.0	SW	1.00	8.0	81.9	88.7	88.7	29.727	0.00	0.000	0.352	85.4	79	78.1	97.0	30
07/12/01	5:00 p	81.5	81.8	81.2	81	75.1	1.0	SW	0.50	6.0	81.5	88.0	88.0	29.724	0.00	0.000	0.344	85.2	79	77.9	96.5	30
07/12/01	5:30 p	81.1	81.3	81.0	82	75.1	2.0	SW	1.00	8.0	81.1	87.3	87.3	29.727	0.00	0.000	0.335	84.9	79	77.7	95.9	30
07/12/01	6:00 p	81.1	81.2	81.0	83	75.4	1.0	SW	0.50	6.0	81.1	87.5	87.5	29.726	0.00	0.000	0.335	84.8	80	77.9	96.0	30
07/12/01	6:30 p	81.0	81.2	80.8	84	75.7	2.0	SW	1.00	8.0	81.0	87.5	87.5	29.734	0.00	0.000	0.333	84.8	81	78.3	96.4	30
07/12/01	7:00 p	80.7	81.0	80.3	87	76.5	1.0	WSW	0.50	5.0	80.7	87.7	87.7	29.739	0.00	0.000	0.327	84.5	82	78.4	96.2	30
07/12/01	7:30 p	80.1	80.5	79.7	88	76.2	1.0	SW	0.50	5.0	80.1	86.6	86.6	29.741	0.00	0.000	0.315	84.1	83	78.4	95.7	30
07/12/01	8:00 p	79.5	79.9	79.1	88	75.6	2.0	SW	1.00	8.0	79.5	85.3	85.3	29.737	0.00	0.000	0.302	83.7	83	78.0	94.6	30
07/12/01	8:30 p	79.1	79.3	78.7	88	75.2	2.0	SW	1.00	7.0	79.1	84.5	84.5	29.732	0.00	0.000	0.294	83.2	83	77.5	93.1	30
07/12/01	9:00 p	78.7	79.0	78.4	89	75.2	2.0	SW	1.00	8.0	78.7	83.9	83.9	29.735	0.00	0.000	0.285	82.9	84	77.6	92.5	30
07/12/01	9:30 p	78.3	78.6	78.1	90	75.1	1.0	SW	0.50	6.0	78.3	83.4	83.4	29.742	0.00	0.000	0.277	82.8	85	77.8	92.6	30
07/12/01	10:00 p	78.1	78.4	77.9	90	74.9	1.0	SSW	0.50	6.0	78.1	83.0	83.0	29.751	0.00	0.000	0.273	82.6	85	77.6	92.0	30
07/12/01	10:30 p	77.9	78.2	77.7	90	74.7	2.0	SW	1.00	7.0	77.9	82.6	82.6	29.760	0.00	0.000	0.269	82.4	86	77.8	91.8	30
07/12/01	11:00 p	77.7	78.0	77.4	91	74.9	1.0	SW	0.50	4.0	77.7	82.4	82.4	29.760	0.00	0.000	0.265	82.1	85	77.1	90.7	30
07/12/01	11:30 p	77.3	77.6	77.0	92	74.8	2.0	SW	1.00	7.0	77.3	81.8	81.8	29.760	0.00	0.000	0.256	81.7	86	77.1	89.9	30
07/13/01	12:00 a	77.0	77.2	76.8	92	74.5	1.0	SSW	0.50	5.0	77.0	81.2	81.2	29.759	0.00	0.000	0.250	81.5	86	76.9	89.4	30
07/13/01	12:30 a	76.8	77.1	76.6	93	74.6	1.0	SW	0.50	6.0	76.8	81.0	81.0	29.750	0.00	0.000	0.246	81.4	85	76.5	88.8	30
07/13/01	1:00 a	76.7	76.9	76.5	93	74.5	2.0	SW	1.00	7.0	76.7	80.8	80.8	29.749	0.00	0.000	0.244	81.2	86	76.6	88.6	30
07/13/01	1:30 a	76.5	76.7	76.3	93	74.3	2.0	SW	1.00	6.0	76.5	80.6	80.6	29.739	0.00	0.000	0.240	81.0	86	76.4	88.1	30
07/13/01	2:00 a	76.3	76.6	76.1	94	74.4	2.0	SW	1.00	6.0	76.3	80.4	80.4	29.731	0.00	0.000	0.235	80.8	86	76.2	87.6	30
07/13/01	2:30 a	76.2	76.4	75.9	94	74.3	2.0	SW	1.00	8.0	76.2	80.2	80.2	29.724	0.00	0.000	0.233	80.6	86	76.0	87.2	30
07/13/01	3:00 a	76.0	76.2	75.7	94	74.1	2.0	SSW	1.00	7.0	76.0	79.9	79.9	29.721	0.00	0.000	0.229	80.5	86	75.9	87.0	30
07/13/01	3:30 a	75.8	76.0	75.5	94	73.9	2.0	SW	1.00	7.0	75.8	79.6	79.6	29.711	0.00	0.000	0.225	80.3	86	75.7	86.5	30
07/13/01	4:00 a	75.6	75.8	75.5	95	74.1	2.0	SW	1.00	6.0	75.6	79.5	79.5	29.711	0.00	0.000	0.221	80.2	86	75.6	86.3	30
07/13/01	4:30 a	75.6	75.7	75.4	95	74.1	2.0	SSW	1.00	6.0	75.6	79.5	79.5	29.712	0.00	0.000	0.221	80.1	86	75.5	86.1	30
07/13/01	5:00 a	75.5	75.7	75.3	95	74.0	2.0	SSW	1.00	7.0	75.5	79.3	79.3	29.712	0.00	0.000	0.219	79.9	86	75.3	85.6	30
07/13/01	5:30 a	75.4	75.6	75.2	95	73.9	2.0	SW	1.00	6.0	75.4	79.2	79.2	29.716	0.00	0.000	0.217	79.8	87	75.6	85.7	30
07/13/01	6:00 a	75.4	75.5	75.2	95	73.9	3.0	SW	1.50	8.0	75.4	79.2	79.2	29.719	0.00	0.000	0.217	79.7	88	75.8	85.7	30
07/13/01	6:30 a	75.6	76.1	75.3	95	74.1	3.0	SW	1.50	8.0	75.6	79.5	79.5	29.725	0.00	0.000	0.221	79.7	87	75.5	85.5	30
07/13/01	7:00 a	76.5	77.0	75.8	93	74.3	3.0	SW	1.50	8.0	76.5	80.6	80.6	29.737	0.00	0.000	0.240	79.8	88	75.9	85.9	30
07/13/01	7:30 a	77.4	78.0	76.8	92	74.9	3.0	WSW	1.50	10.0	77.4	81.9	81.9	29.738	0.00	0.000	0.258	80.2	89	76.7	87.0	30
07/13/01	8:00 a	78.7	79.3	77.9	89	75.2	3.0	SW	1.50	11.0	78.7	83.9	83.9	29.736	0.00	0.000	0.285	80.8	91	77.9	89.0	30
07/13/01	8:30 a	80.3	81.2	79.2	84	75.0	5.0	SW	2.50	13.0	80.3	86.0	86.0	29.733	0.00	0.000	0.319	81.8	91	78.9	91.9	30
07/13/01	9:00 a	82.3	83.5	81.2	82	76.3	5.0	SW	2.50	16.0	82.3	90.3	90.3	29.733	0.00	0.000	0.360	83.2	91	80.3	95.9	30
07/13/01	9:30 a	84.4	85.5	83.4	77	76.4	6.0	WSW	3.00	14.0	84.4	94.2	94.2	29.725	0.00	0.000	0.404	84.8	89	81.2	99.8	30
07/13/01	10:00 a	86.5	87.8	85.4	73	76.8	6.0	SW	3.00	14.0	86.5	97.5	97.5	29.718	0.00	0.000	0.448	86.4	84	81.0	102.3	30
07/13/01	10:30 a	88.5	89.0	87.7	68	76.6	6.0	WSW	3.00	15.0	88.5	99.7	99.7	29.711	0.00	0.000	0.490	88.1	80	81.1	104.9	30
07/13/01	11:00 a	89.4	90.0	88.9	69	77.9	5.0	SW	2.50	14.0	89.4	103.1	103.1	29.704	0.00	0.000	0.508	88.9	78	81.1	107.3	30
07/13/01	11:30 a	88.6	90.4	86.5	80	81.6	4.0	WSW	2.00	14.0	88.6	107.3	107.3	29.701	0.05	0.000	0.492	89.2	78	81.4	108.5	30
07/13/01	12:00 p	85.1	87.4	82.6	81	78.6	5.0	NW	2.50	18.0	85.1	97.0	97.0	29.710	0.00	0.000	0.419	88.4	77	80.3	104.4	30
07/13/01	12:30 p	81.3	83.0	80.6	84	76.0	3.0	WSW	1.50	12.0	81.3	88.3	88.3	29.699	0.00	0.000	0.340	87.0	77	78.9	100.6	30
07/13/01	1:00 p	80.8	81.0	80.5	83	75.2	2.0	WSW	1.00	8.0	80.8	86.9	86.9	29.704	0.00	0.000	0.329	86.1	78	78.4	98.4	30
07/13/01	1:30 p	81.9	83.0	80.7	81	75.5	3.0	SW	1.50	11.0	81.9	89.0	89.0	29.690	0.01	0.000	0.352	85.9	80	79.0	98.6	30
07/13/01	2:00 p	83.2	83.4	82.8	81	76.8	4.0	SW	2.00	11.0	83.2	92.5	92.5	29.689	0.00	0.000	0.379	86.2	80	79.3	99.5	30
07/13/01	2:30 p	83.0	83.3	82.9	80	76.2	4.0	SW	2.00	13.0	83.0	91.7	91.7	29.674	0.00	0.000	0.375	86.6	79	79.3	100.3	30
07/13/01	3:00 p	83.9	84.3	83.1	77	75.9	5.0	SW	2.50	12.0	83.9	93.2	93.2	29.672	0.00	0.000	0.394	87.1	79	79.8	101.8	30
07/13/01	3:30 p	85.0	85.9	84.2	74	75.8	5.0	SW	2.50	17.0	85.0	94.3	94.3	29.667	0.00	0.000	0.417	87.8	78	80.1	102.8	30
07/13/01	4:00 p	85.0	85.8	84.6	73	75.4	4.0	WSW	2.00	15.0	85.0	93.9	93.9	29.663	0.00	0.000	0.417	88.3	76	79.8	103.3	30
07/13/01	4:30 p	85.1	85.4	84.8	73	75.5	5.0	SW	2.50	14.0	85.1	94.2	94.2	29.649	0.00	0.000	0.419	88.2	75	79.3	102.2	30
07/13/01	5:00 p	84.9	85.4	84.3	74	75.7	6.0	SW	3.00	16.0	84.9	94.1	94.1	29.645	0.00	0.000	0.415	88.3	75	79.4	102.6	30
07/13/01	5:30 p	84.2	84.4	84.0	76	75.8	4.0	SW	2.00	11.0	84.2	93.4	93.4	29.634	0.00	0.000	0.400	87.9	75	79.0	101.2	30
07/13/01	6:00 p	83.9	84.3	83.4	76	75.5	5.0	SW	2.50	14.0	83.9	92.8	92.8	29.628	0.00	0.000	0.394	87.6	74	78.3	100.2	30
07/13/01	6:30 p	82.9	83.4	82.4	79	75.7	4.0	SW	2.00	12.0	82.9	91.1	91.1	29.635	0.00	0.000	0.373	87.0	74	77.7	99.2	30
07/13/01	7:00 p	82.0	82.5	81.5	81	75.6	3.0	SW	1.50	9.0	82.0	89.2	89.2	29.643	0.00	0.000	0.354	86.4	75	77.5	98.0	30
07/13/01	7:30 p	81.1	81.7	80.6	83	75.4	3.0	SW	1.50	9.0	81.1	87.5	87.5	29.648	0.00	0.000	0.335	85.7	77	77.7	97.0	30
07/13/01	8:00 p	80.4	80.8	80.0	85	75.5	3.0	SW	1.50	9.0	80.4	86.5	86.5	29.637	0.00	0.000	0.321	85.1	78	77.5	95.9	30
07/13/01	8:30 p	79.7	80.2	79.3	87	75.5	3.0	SW	1.50	10.0	79.7	85.5	85.5	29.646	0.00	0.000	0.306	84.6	80	77.7	95.6	30
07/13/01	9:00 p	79.0	79.4	78.6	89	75.5	3.0	SW	1.50	11.0	79.0	84.5	84.5	29.651	0.00	0.000	0.292	84.1	80	77.3	94.7	30
07/13/01	9:30 p	78.4	78.7	78.0	90	75.2	4.0	SW	2.00	13.0	78.4	83.6	83.6	29.656	0.00	0.000	0.279	83.5	82	77.4	93.7	30
07/13/01	10:00 p	78.0	78.3	77.7	91	75.2	4.0	SW	2.00	9.0	78.0	82.9	82.9	29.660	0.00	0.000	0.271	83.1	82	77.0	92.5	30
07/13/01	10:30 p	77.6	77.9	77.3	90	74.4	4.0	SW	2.00	11.0	77.6	82.1	82.1	29.659	0.00	0.000	0.262	82.7	83	77.0	91.7	30
07/13/01	11:00 p	77.4	77.6	77.1	91	74.6	3.0	SW	1.50	9.0	77.4	81.8	81.8	29.660	0.00	0.000	0.258	82.4	83	76.7	90.9	30
07/13/01	11:30 p	77.2	77.4	77.0	91	74.4	3.0	SW	1.50	8.0	77.2	81.5	81.5	29.658	0.00	0.000	0.254	82.1	83	76.4	90.1	30
07/14/01	12:00 a	77.1	77.3	76.8	91	74.3	2.0	SW	1.00	9.0	77.1	81.3	81.3	29.659	0.00	0.000	0.252	81.9	84	76.6	89.8	30
07/14/01	12:30 a	76.9	77.1	76.7	92	74.4	3.0	SW	1.50	8.0	76.9	81.1	81.1	29.645	0.00	0.000	0.248	81.6	84	76.3	89.1	30
07/14/01	1:00 a	76.8	77.0	76.6	93	74.6	2.0	SW	1.00	7.0	76.8	81.0	81.0	29.638	0.00	0.000	0.246	81.4	84	76.1	88.6	30
07/14/01	1:30 a	76.7	76.9	76.5	94	74.8	3.0	SW	1.50	8.0	76.7	80.9	80.9	29.628	0.00	0.000	0.244	81.3	85	76.4	88.6	30
07/14/01	2:00 a	76.6	76.8	76.4	94	74.7	2.0	SW	1.00	7.0	76.6	80.8	80.8	29.625	0.00	0.000	0.242	81.2	85	76.3	88.3	30
07/14/01	2:30 a	76.6	76.8	76.4	94	74.7	2.0	SW	1.00	6.0	76.6	80.8	80.8	29.627	0.00	0.000	0.242	81.1	85	76.2	88.1	30
07/14/01	3:00 a	76.5	76.7	76.3	95	75.0	1.0	SW	0.50	4.0	76.5	80.8	80.8	29.612	0.00	0.000	0.240	80.9	85	76.0	87.6	30
07/14/01	3:30 a	76.4	76.7	76.2	94	74.5	1.0	SW	0.50	5.0	76.4	80.5	80.5	29.604	0.00	0.000	0.238	80.8	85	75.9	87.4	30
07/14/01	4:00 a	76.3	76.5	76.0	95	74.8	2.0	SW	1.00	7.0	76.3	80.5	80.5	29.594	0.00	0.000	0.235	80.7	86	76.1	87.4	30
07/14/01	4:30 a	76.1	76.3	75.8	94	74.2	3.0	SW	1.50	10.0	76.1	80.1	80.1	29.587	0.00	0.000	0.231	80.5	86	75.9	87.0	30
07/14/01	5:00 a	76.0	76.2	75.8	93	73.8	2.0	SW	1.00	8.0	76.0	79.8	79.8	29.592	0.00	0.000	0.229	80.3	86	75.7	86.5	30
07/14/01	5:30 a	75.9	76.2	75.7	93	73.7	1.0	SW	0.50	7.0	75.9	79.7	79.7	29.599	0.00	0.000	0.227	80.2	86	75.6	86.3	30
07/14/01	6:00 a	75.8	76.0	75.6	93	73.6	1.0	SW	0.50	5.0	75.8	79.6	79.6	29.609	0.00	0.000	0.225	80.0	86	75.4	85.8	30
07/14/01	6:30 a	75.9	76.2	75.7	93	73.7	2.0	SW	1.00	7.0	75.9	79.7	79.7	29.616	0.00	0.000	0.227	80.0	86	75.4	85.8	30
07/14/01	7:00 a	76.3	76.6	76.0	93	74.1	1.0	WSW	0.50	6.0	76.3	80.3	80.3	29.621	0.00	0.000	0.235	80.3	87	76.1	86.8	30
07/14/01	7:30 a	76.8	77.3	76.3	92	74.3	2.0	WSW	1.00	8.0	76.8	80.9	80.9	29.623	0.00	0.000	0.246	80.4	88	76.5	87.2	30
07/14/01	8:00 a	77.9	78.5	77.2	90	74.7	3.0	SW	1.50	8.0	77.9	82.6	82.6	29.627	0.00	0.000	0.269	80.8	88	76.9	88.2	30
07/14/01	8:30 a	79.3	80.3	78.4	87	75.1	3.0	WSW	1.50	8.0	79.3	84.7	84.7	29.629	0.00	0.000	0.298	81.6	88	77.7	90.3	30
07/14/01	9:00 a	81.2	82.1	80.2	83	75.5	2.0	WNW	1.00	7.0	81.2	87.8	87.8	29.620	0.00	0.000	0.337	82.7	89	79.1	93.6	30
07/14/01	9:30 a	83.0	84.1	81.9	80	76.2	3.0	WNW	1.50	8.0	83.0	91.7	91.7	29.611	0.00	0.000	0.375	84.1	88	80.2	97.5	30
07/14/01	10:00 a	85.4	86.9	84.0	76	77.0	2.0	NW	1.00	9.0	85.4	95.9	95.9	29.603	0.00	0.000	0.425	85.7	87	81.4	101.6	30
07/14/01	10:30 a	86.9	87.3	86.6	76	78.4	2.0	NW	1.00	8.0	86.9	99.8	99.8	29.601	0.00	0.000	0.456	87.3	85	82.2	106.3	30
07/14/01	11:00 a	87.0	87.8	85.9	76	78.5	1.0	N	0.50	6.0	87.0	100.1	100.1	29.599	0.00	0.000	0.458	88.2	83	82.4	107.9	30
07/14/01	11:30 a	86.6	87.4	85.2	77	78.5	3.0	N	1.50	8.0	86.6	99.4	99.4	29.584	0.00	0.000	0.450	88.8	80	81.8	108.2	30
07/14/01	12:00 p	84.1	85.3	83.1	86	79.5	1.0	N	0.50	4.0	84.1	96.7	96.7	29.601	0.17	0.000	0.398	88.6	80	81.6	107.3	30
07/14/01	12:30 p	82.1	83.2	81.2	88	78.2	0.0	NW	0.00	5.0	82.1	91.7	91.7	29.592	0.08	0.000	0.356	87.1	81	80.6	103.0	30
07/14/01	1:00 p	80.7	81.5	79.5	89	77.2	1.0	SSW	0.50	3.0	80.7	88.2	88.2	29.593	0.03	0.000	0.327	85.9	81	79.4	99.0	30
07/14/01	1:30 p	79.2	79.9	78.8	91	76.3	1.0	SSW	0.50	4.0	79.2	85.3	85.3	29.588	0.00	0.000	0.296	85.0	82	78.9	97.2	30
07/14/01	2:00 p	79.0	79.3	78.8	91	76.1	0.0	SSW	0.00	3.0	79.0	84.9	84.9	29.599	0.02	0.000	0.292	84.4	83	78.7	96.3	30
07/14/01	2:30 p	79.0	79.4	78.7	91	76.1	0.0	SSW	0.00	3.0	79.0	84.9	84.9	29.585	0.01	0.000	0.292	84.0	84	78.6	95.8	30
07/14/01	3:00 p	79.0	79.4	78.5	92	76.5	1.0	SSW	0.50	6.0	79.0	85.1	85.1	29.575	0.00	0.000	0.292	83.8	85	78.8	95.5	30
07/14/01	3:30 p	78.5	78.9	78.0	91	75.7	2.0	SSW	1.00	7.0	78.5	83.9	83.9	29.565	0.00	0.000	0.281	82.6	87	78.3	92.7	30
07/14/01	4:00 p	78.0	78.2	77.7	92	75.5	0.0	SW	0.00	5.0	78.0	83.0	83.0	29.562	0.00	0.000	0.271	81.9	88	78.0	91.1	30
07/14/01	4:30 p	78.3	78.8	77.8	90	75.1	0.0	S	0.00	4.0	78.3	83.4	83.4	29.563	0.00	0.000	0.277	81.8	90	78.6	91.5	30
07/14/01	5:00 p	78.9	79.1	78.6	88	75.0	1.0	SW	0.50	4.0	78.9	84.1	84.1	29.559	0.00	0.000	0.290	81.8	89	78.2	91.2	30
07/14/01	5:30 p	78.7	79.1	78.5	87	74.5	1.0	SW	0.50	5.0	78.7	83.6	83.6	29.578	0.00	0.000	0.285	81.7	87	77.5	90.3	30
07/14/01	6:00 p	78.6	78.9	78.4	88	74.7	0.0	WSW	0.00	4.0	78.6	83.6	83.6	29.577	0.00	0.000	0.283	81.8	88	77.9	90.9	30
07/14/01	6:30 p	78.1	78.7	77.6	89	74.6	1.0	WNW	0.50	4.0	78.1	82.8	82.8	29.576	0.00	0.000	0.273	81.8	87	77.5	90.5	30
07/14/01	7:00 p	77.5	77.9	77.1	90	74.3	0.0	SW	0.00	3.0	77.5	81.9	81.9	29.597	0.00	0.000	0.260	81.3	88	77.4	89.5	30
07/14/01	7:30 p	76.9	77.3	76.2	92	74.4	0.0	NNW	0.00	2.0	76.9	81.1	81.1	29.578	0.00	0.000	0.248	81.0	88	77.1	88.6	30
07/14/01	8:00 p	76.5	77.0	75.9	93	74.3	0.0	---	0.00	0.0	76.5	80.6	80.6	29.594	0.00	0.000	0.240	81.2	87	77.0	88.9	30
07/14/01	8:30 p	76.5	76.9	75.9	93	74.3	0.0	NW	0.00	3.0	76.5	80.6	80.6	29.595	0.00	0.000	0.240	81.2	87	77.0	88.9	30
07/14/01	9:00 p	76.4	76.8	75.8	94	74.5	0.0	W	0.00	2.0	76.4	80.5	80.5	29.609	0.00	0.000	0.238	81.0	86	76.4	88.1	30
07/14/01	9:30 p	76.4	76.9	75.9	94	74.5	0.0	W	0.00	2.0	76.4	80.5	80.5	29.613	0.00	0.000	0.238	81.0	87	76.8	88.4	30
07/14/01	10:00 p	76.3	76.9	75.8	95	74.8	1.0	NE	0.50	9.0	76.3	80.5	80.5	29.615	0.00	0.000	0.235	80.8	88	76.9	88.2	30
07/14/01	10:30 p	76.4	77.2	75.8	95	74.9	3.0	NE	1.50	15.0	76.4	80.6	80.6	29.614	0.01	0.000	0.238	80.6	89	77.1	88.0	30
07/14/01	11:00 p	76.9	77.7	76.1	93	74.7	2.0	NE	1.00	11.0	76.9	81.2	81.2	29.604	0.00	0.000	0.248	80.5	89	77.0	87.7	30
07/14/01	11:30 p	77.6	78.1	77.0	90	74.4	2.0	E	1.00	10.0	77.6	82.1	82.1	29.604	0.00	0.000	0.262	80.6	89	77.1	88.0	30
07/15/01	12:00 a	77.7	78.2	77.2	91	74.9	1.0	ESE	0.50	7.0	77.7	82.4	82.4	29.606	0.00	0.000	0.265	80.6	88	76.7	87.7	30
07/15/01	12:30 a	77.9	78.5	77.3	92	75.4	1.0	E	0.50	5.0	77.9	82.9	82.9	29.602	0.00	0.000	0.269	80.6	88	76.7	87.7	30
07/15/01	1:00 a	78.1	78.6	77.7	93	75.9	0.0	E	0.00	3.0	78.1	83.4	83.4	29.594	0.00	0.000	0.273	80.7	88	76.8	87.9	30
07/15/01	1:30 a	78.3	78.8	77.8	90	75.1	1.0	ENE	0.50	8.0	78.3	83.4	83.4	29.590	0.00	0.000	0.277	80.8	88	76.9	88.2	30
07/15/01	2:00 a	78.4	79.0	77.9	89	74.9	1.0	SE	0.50	6.0	78.4	83.4	83.4	29.588	0.00	0.000	0.279	80.8	88	76.9	88.2	30
07/15/01	2:30 a	78.5	79.1	77.7	91	75.7	2.0	SE	1.00	12.0	78.5	83.9	83.9	29.583	0.00	0.000	0.281	80.8	89	77.3	88.4	30
07/15/01	3:00 a	77.7	78.4	77.1	93	75.5	1.0	SE	0.50	6.0	77.7	82.6	82.6	29.582	0.00	0.000	0.265	80.7	88	76.8	87.9	30
07/15/01	3:30 a	77.5	77.9	77.0	94	75.6	0.0	ESE	0.00	1.0	77.5	82.3	82.3	29.585	0.00	0.000	0.260	80.6	89	77.1	88.0	30
07/15/01	4:00 a	77.5	77.8	77.0	93	75.3	1.0	ESE	0.50	8.0	77.5	82.2	82.2	29.589	0.00	0.000	0.260	80.6	88	76.7	87.7	30
07/15/01	4:30 a	77.4	77.8	77.0	93	75.2	3.0	ESE	1.50	10.0	77.4	82.0	82.0	29.597	0.00	0.000	0.258	80.5	89	77.0	87.7	30
07/15/01	5:00 a	77.1	77.8	76.2	94	75.2	3.0	ESE	1.50	12.0	77.1	81.6	81.6	29.606	0.27	0.000	0.252	80.5	90	77.3	88.0	30
07/15/01	5:30 a	76.5	77.1	76.0	94	74.6	2.0	ESE	1.00	8.0	76.5	80.7	80.7	29.604	0.01	0.000	0.240	80.3	90	77.1	87.5	30
07/15/01	6:00 a	76.4	76.8	75.9	96	75.2	1.0	ESE	0.50	10.0	76.4	80.7	80.7	29.599	0.01	0.000	0.238	80.2	90	77.0	87.3	30
07/15/01	6:30 a	76.3	76.9	75.9	97	75.4	0.0	---	0.00	1.0	76.3	80.6	80.6	29.599	0.00	0.000	0.235	80.2	89	76.7	87.0	30
07/15/01	7:00 a	76.7	77.3	76.0	97	75.8	0.0	NW	0.00	3.0	76.7	81.3	81.3	29.613	0.00	0.000	0.244	80.2	90	77.0	87.3	30
07/15/01	7:30 a	76.8	77.3	76.1	96	75.6	1.0	ESE	0.50	9.0	76.8	81.3	81.3	29.612	0.10	0.000	0.246	80.2	91	77.3	87.5	30
07/15/01	8:00 a	76.5	77.0	75.8	96	75.3	3.0	ENE	1.50	13.0	76.5	80.8	80.8	29.620	0.16	0.000	0.240	80.1	92	77.6	87.6	30
07/15/01	8:30 a	76.0	76.6	75.4	96	74.8	6.0	ENE	3.00	20.0	76.0	80.1	80.1	29.629	0.01	0.000	0.229	79.9	92	77.4	87.1	30
07/15/01	9:00 a	75.2	76.1	74.4	97	74.3	6.0	NE	3.00	21.0	75.2	79.0	79.0	29.622	0.09	0.000	0.212	79.5	92	77.0	86.2	30
07/15/01	9:30 a	74.4	75.1	73.6	100	74.4	8.0	NE	4.00	23.0	73.9	78.1	77.6	29.638	0.53	0.000	0.196	78.9	93	76.7	85.1	30
07/15/01	10:00 a	73.9	74.7	73.2	100	73.9	5.0	NE	2.50	17.0	73.9	77.5	77.5	29.665	0.39	0.000	0.185	78.7	92	76.2	84.5	30
07/15/01	10:30 a	74.5	74.9	73.9	100	74.5	1.0	N	0.50	10.0	74.5	78.2	78.2	29.670	0.17	0.000	0.198	78.7	93	76.5	84.7	30
07/15/01	11:00 a	75.0	75.7	74.3	100	75.0	1.0	N	0.50	8.0	75.0	78.8	78.8	29.673	0.00	0.000	0.208	78.8	93	76.6	84.9	30
07/15/01	11:30 a	75.4	76.0	74.9	100	75.4	1.0	N	0.50	8.0	75.4	79.4	79.4	29.665	0.04	0.000	0.217	79.0	93	76.8	85.4	30
07/15/01	12:00 p	75.6	76.1	74.9	100	75.6	2.0	NNE	1.00	9.0	75.6	79.7	79.7	29.667	0.02	0.000	0.221	79.2	93	77.0	85.8	30
07/15/01	12:30 p	75.2	75.8	74.6	100	75.2	1.0	N	0.50	6.0	75.2	79.1	79.1	29.657	0.07	0.000	0.212	79.2	93	77.0	85.8	30
07/15/01	1:00 p	75.9	76.8	75.0	100	75.9	0.0	NNE	0.00	3.0	75.9	80.2	80.2	29.654	0.01	0.000	0.227	79.3	93	77.1	86.0	30
07/15/01	1:30 p	76.5	77.3	75.9	95	75.0	3.0	NE	1.50	13.0	76.5	80.8	80.8	29.647	0.00	0.000	0.240	79.5	93	77.3	86.5	30
07/15/01	2:00 p	77.0	77.5	76.5	94	75.1	3.0	NE	1.50	12.0	77.0	81.4	81.4	29.643	0.01	0.000	0.250	79.5	93	77.3	86.5	30
07/15/01	2:30 p	76.8	77.4	75.9	93	74.6	3.0	NE	1.50	13.0	76.8	81.0	81.0	29.648	0.01	0.000	0.246	79.5	93	77.3	86.5	30
07/15/01	3:00 p	76.2	76.7	75.7	97	75.3	3.0	ENE	1.50	15.0	76.2	80.5	80.5	29.648	0.10	0.000	0.233	79.4	93	77.2	86.2	30
07/15/01	3:30 p	76.6	77.2	75.9	95	75.1	3.0	NE	1.50	13.0	76.6	80.9	80.9	29.645	0.03	0.000	0.242	79.5	94	77.6	86.7	30
07/15/01	4:00 p	76.9	77.4	76.4	93	74.7	3.0	NE	1.50	12.0	76.9	81.2	81.2	29.654	0.00	0.000	0.248	79.6	94	77.7	86.9	30
07/15/01	4:30 p	77.5	78.0	76.6	90	74.3	3.0	NE	1.50	17.0	77.5	81.9	81.9	29.652	0.00	0.000	0.260	79.8	93	77.6	87.1	30
07/15/01	5:00 p	77.8	78.3	77.2	84	72.6	3.0	NE	1.50	14.0	77.8	81.7	81.7	29.649	0.00	0.000	0.267	79.8	91	76.9	86.6	30
07/15/01	5:30 p	77.9	78.4	77.5	85	73.0	3.0	NE	1.50	10.0	77.9	81.9	81.9	29.661	0.00	0.000	0.269	79.9	90	76.7	86.6	30
07/15/01	6:00 p	78.3	79.0	77.5	85	73.4	3.0	NE	1.50	12.0	78.3	82.6	82.6	29.657	0.00	0.000	0.277	80.0	90	76.8	86.8	30
07/15/01	6:30 p	78.6	79.1	78.2	86	74.1	2.0	NE	1.00	10.0	78.6	83.2	83.2	29.661	0.00	0.000	0.283	80.6	90	77.4	88.2	30
07/15/01	7:00 p	78.6	79.1	78.1	86	74.1	3.0	NE	1.50	13.0	78.6	83.2	83.2	29.656	0.00	0.000	0.283	81.0	89	77.4	88.9	30
07/15/01	7:30 p	78.3	78.9	77.8	89	74.8	3.0	NE	1.50	14.0	78.3	83.2	83.2	29.663	0.00	0.000	0.277	81.1	89	77.5	89.2	30
07/15/01	8:00 p	78.0	78.5	77.4	86	73.5	4.0	NE	2.00	12.0	78.0	82.2	82.2	29.659	0.00	0.000	0.271	80.9	89	77.4	88.7	30
07/15/01	8:30 p	77.7	78.3	77.3	90	74.5	2.0	NE	1.00	9.0	77.7	82.3	82.3	29.670	0.00	0.000	0.265	80.5	89	77.0	87.7	30
07/15/01	9:00 p	77.5	78.0	77.0	91	74.7	1.0	N	0.50	8.0	77.5	82.0	82.0	29.662	0.00	0.000	0.260	80.3	90	77.1	87.5	30
07/15/01	9:30 p	77.4	77.8	76.9	93	75.2	2.0	NNE	1.00	10.0	77.4	82.0	82.0	29.665	0.00	0.000	0.258	80.1	91	77.2	87.3	30
07/15/01	10:00 p	77.5	78.0	76.9	90	74.3	2.0	NE	1.00	11.0	77.5	81.9	81.9	29.665	0.00	0.000	0.260	80.0	91	77.1	87.1	30
07/15/01	10:30 p	77.8	78.3	77.3	88	74.0	3.0	ENE	1.50	12.0	77.8	82.2	82.2	29.670	0.00	0.000	0.267	79.8	91	76.9	86.6	30
07/15/01	11:00 p	77.7	78.2	77.3	90	74.5	1.0	ENE	0.50	9.0	77.7	82.3	82.3	29.682	0.00	0.000	0.265	79.7	91	76.8	86.4	30
07/15/01	11:30 p	77.8	78.2	77.3	90	74.6	1.0	NE	0.50	5.0	77.8	82.4	82.4	29.679	0.00	0.000	0.267	79.7	91	76.8	86.4	30
07/16/01	12:00 a	77.7	78.2	77.3	91	74.9	1.0	NE	0.50	7.0	77.7	82.4	82.4	29.678	0.00	0.000	0.265	79.8	91	76.9	86.6	30
07/16/01	12:30 a	77.7	78.2	77.3	92	75.2	1.0	ENE	0.50	6.0	77.7	82.5	82.5	29.675	0.00	0.000	0.265	79.7	91	76.8	86.4	30
07/16/01	1:00 a	77.8	78.2	77.3	94	75.9	0.0	ENE	0.00	3.0	77.8	82.9	82.9	29.671	0.00	0.000	0.267	79.8	91	76.9	86.6	30
07/16/01	1:30 a	77.5	78.1	77.1	94	75.6	0.0	NNE	0.00	2.0	77.5	82.3	82.3	29.667	0.00	0.000	0.260	79.8	91	76.9	86.6	30
07/16/01	2:00 a	77.5	77.9	77.0	94	75.6	0.0	NE	0.00	6.0	77.5	82.3	82.3	29.663	0.00	0.000	0.260	79.7	92	77.2	86.7	30
07/16/01	2:30 a	77.5	78.0	77.1	95	76.0	0.0	---	0.00	1.0	77.5	82.4	82.4	29.662	0.00	0.000	0.260	79.8	92	77.3	86.9	30
07/16/01	3:00 a	77.6	78.2	77.2	95	76.1	0.0	NE	0.00	7.0	77.6	82.6	82.6	29.662	0.00	0.000	0.262	79.8	92	77.3	86.9	30
07/16/01	3:30 a	78.0	78.5	77.4	90	74.8	3.0	ENE	1.50	15.0	78.0	82.8	82.8	29.661	0.00	0.000	0.271	79.8	93	77.6	87.1	30
07/16/01	4:00 a	77.9	78.5	77.5	89	74.4	2.0	ENE	1.00	10.0	77.9	82.5	82.5	29.666	0.00	0.000	0.269	79.7	93	77.5	86.9	30
07/16/01	4:30 a	77.9	78.4	77.5	87	73.7	2.0	E	1.00	8.0	77.9	82.2	82.2	29.678	0.00	0.000	0.269	79.6	92	77.1	86.4	30
07/16/01	5:00 a	78.0	78.5	77.6	85	73.1	2.0	ENE	1.00	7.0	78.0	82.1	82.1	29.684	0.00	0.000	0.271	79.6	91	76.7	86.2	30
07/16/01	5:30 a	78.0	78.4	77.4	87	73.8	1.0	E	0.50	8.0	78.0	82.4	82.4	29.690	0.00	0.000	0.271	79.6	91	76.7	86.2	30
07/16/01	6:00 a	77.6	78.1	77.2	89	74.1	1.0	ENE	0.50	4.0	77.6	82.0	82.0	29.692	0.01	0.000	0.262	79.6	90	76.4	86.0	30
07/16/01	6:30 a	77.9	78.6	77.3	88	74.1	1.0	ENE	0.50	6.0	77.9	82.4	82.4	29.700	0.00	0.000	0.269	79.6	91	76.7	86.2	30
07/16/01	7:00 a	78.4	79.3	77.7	87	74.2	1.0	ENE	0.50	8.0	78.4	83.1	83.1	29.709	0.00	0.000	0.279	79.8	91	76.9	86.6	30
07/16/01	7:30 a	79.5	80.5	78.6	85	74.6	2.0	ESE	1.00	9.0	79.5	84.6	84.6	29.723	0.00	0.000	0.302	80.3	92	77.8	88.1	30
07/16/01	8:00 a	80.2	80.9	79.7	83	74.6	4.0	ESE	2.00	13.0	80.2	85.6	85.6	29.732	0.00	0.000	0.317	80.9	91	78.0	89.3	30
07/16/01	8:30 a	80.8	81.6	80.1	82	74.8	4.0	E	2.00	14.0	80.8	86.6	86.6	29.740	0.00	0.000	0.329	81.5	91	78.6	91.0	30
07/16/01	9:00 a	81.7	82.2	80.8	80	74.9	3.0	ESE	1.50	13.0	81.7	88.2	88.2	29.743	0.00	0.000	0.348	82.1	90	78.9	92.4	30
07/16/01	9:30 a	83.0	84.2	81.5	76	74.6	5.0	ENE	2.50	15.0	83.0	90.4	90.4	29.742	0.00	0.000	0.375	82.8	89	79.2	93.9	30
07/16/01	10:00 a	84.6	86.0	83.5	71	74.2	5.0	ESE	2.50	19.0	84.6	92.4	92.4	29.746	0.00	0.000	0.408	84.3	87	80.0	97.6	30
07/16/01	10:30 a	85.8	86.7	84.9	72	75.7	4.0	ESE	2.00	17.0	85.8	95.5	95.5	29.744	0.00	0.000	0.433	85.4	86	80.7	100.1	30
07/16/01	11:00 a	87.3	88.8	85.9	67	75.0	4.0	ESE	2.00	13.0	87.3	96.8	96.8	29.743	0.00	0.000	0.465	86.5	84	81.1	102.7	30
07/16/01	11:30 a	88.4	89.1	87.9	68	76.5	3.0	ESE	1.50	11.0	88.4	99.4	99.4	29.736	0.00	0.000	0.488	87.8	82	81.6	105.5	30
07/16/01	12:00 p	89.4	90.0	88.6	68	77.4	3.0	ENE	1.50	11.0	89.4	102.6	102.6	29.729	0.00	0.000	0.508	89.1	79	81.7	108.9	30
07/16/01	12:30 p	89.4	90.1	88.8	66	76.5	3.0	NE	1.50	10.0	89.4	101.4	101.4	29.722	0.00	0.000	0.508	90.0	78	82.2	111.7	30
07/16/01	1:00 p	90.1	91.4	89.2	65	76.7	3.0	NE	1.50	9.0	90.1	103.1	103.1	29.721	0.00	0.000	0.523	90.8	76	82.2	113.5	30
07/16/01	1:30 p	90.7	91.6	89.9	65	77.3	3.0	ENE	1.50	11.0	90.7	104.8	104.8	29.711	0.00	0.000	0.535	91.6	74	82.1	115.0	30
07/16/01	2:00 p	92.1	92.9	91.0	63	77.7	3.0	NE	1.50	11.0	92.1	107.4	107.4	29.707	0.00	0.000	0.565	92.3	73	82.4	116.9	30
07/16/01	2:30 p	92.9	93.5	92.1	63	78.4	3.0	NE	1.50	10.0	92.9	109.8	109.8	29.701	0.00	0.000	0.581	93.2	72	82.8	119.4	30
07/16/01	3:00 p	93.0	94.0	92.2	64	79.0	3.0	ENE	1.50	8.0	93.0	110.9	110.9	29.686	0.00	0.000	0.583	93.7	71	82.9	119.9	30
07/16/01	3:30 p	92.7	93.7	91.8	63	78.3	3.0	ENE	1.50	8.0	92.7	109.2	109.2	29.689	0.00	0.000	0.577	94.0	70	82.7	119.4	30
07/16/01	4:00 p	91.7	92.4	90.9	67	79.2	4.0	NE	2.00	10.0	91.7	109.1	109.1	29.684	0.00	0.000	0.556	94.2	70	82.9	120.2	30
07/16/01	4:30 p	90.8	91.4	90.1	68	78.8	3.0	ENE	1.50	15.0	90.8	107.0	107.0	29.679	0.00	0.000	0.538	94.2	69	82.5	119.3	30
07/16/01	5:00 p	89.4	90.5	88.6	69	77.9	4.0	NE	2.00	12.0	89.4	103.1	103.1	29.688	0.00	0.000	0.508	94.6	67	81.9	118.9	30
07/16/01	5:30 p	88.0	89.1	86.7	69	76.5	4.0	NE	2.00	12.0	88.0	98.6	98.6	29.686	0.00	0.000	0.479	94.3	65	80.7	116.0	30
07/16/01	6:00 p	86.7	87.4	85.7	71	76.2	3.0	ENE	1.50	12.0	86.7	97.2	97.2	29.699	0.00	0.000	0.452	93.0	66	80.0	112.5	30
07/16/01	6:30 p	85.6	86.2	85.0	74	76.4	3.0	NE	1.50	9.0	85.6	95.7	95.7	29.709	0.00	0.000	0.429	91.6	68	79.5	109.5	30
07/16/01	7:00 p	84.7	85.6	83.7	78	77.1	3.0	NE	1.50	9.0	84.7	95.1	95.1	29.706	0.00	0.000	0.410	90.2	71	79.5	107.2	30
07/16/01	7:30 p	83.5	84.3	82.9	81	77.1	1.0	ENE	0.50	7.0	83.5	93.4	93.4	29.714	0.00	0.000	0.385	89.1	73	79.3	104.6	30
07/16/01	8:00 p	83.1	83.6	82.5	81	76.7	1.0	E	0.50	6.0	83.1	92.3	92.3	29.711	0.00	0.000	0.377	88.2	74	78.9	101.7	30
07/16/01	8:30 p	82.3	83.2	81.7	81	75.9	1.0	ENE	0.50	7.0	82.3	90.0	90.0	29.718	0.00	0.000	0.360	87.5	76	79.0	101.1	30
07/16/01	9:00 p	82.0	82.5	81.5	84	76.7	1.0	E	0.50	8.0	82.0	90.1	90.1	29.729	0.00	0.000	0.354	86.9	76	78.4	99.8	30
07/16/01	9:30 p	81.6	82.1	81.1	84	76.3	1.0	E	0.50	7.0	81.6	89.1	89.1	29.738	0.00	0.000	0.346	86.5	78	78.8	99.6	30
07/16/01	10:00 p	81.3	81.8	80.8	85	76.4	0.0	ESE	0.00	6.0	81.3	88.6	88.6	29.742	0.00	0.000	0.340	86.1	79	78.8	98.8	30
07/16/01	10:30 p	80.9	81.4	80.4	86	76.3	0.0	E	0.00	1.0	80.9	87.9	87.9	29.741	0.00	0.000	0.331	85.7	79	78.4	97.7	30
07/16/01	11:00 p	80.6	81.1	80.1	86	76.0	0.0	NNE	0.00	3.0	80.6	87.2	87.2	29.748	0.00	0.000	0.325	85.3	80	78.4	97.1	30
07/16/01	11:30 p	80.4	80.9	79.9	87	76.2	0.0	ENE	0.00	2.0	80.4	87.0	87.0	29.760	0.00	0.000	0.321	85.0	80	78.1	96.4	30
07/17/01	12:00 a	80.1	80.6	79.7	88	76.2	0.0	---	0.00	0.0	80.1	86.6	86.6	29.754	0.00	0.000	0.315	84.6	81	78.1	96.0	30
07/17/01	12:30 a	79.4	80.2	78.7	90	76.2	0.0	ENE	0.00	1.0	79.4	85.5	85.5	29.739	0.00	0.000	0.300	84.2	82	78.1	95.6	30
07/17/01	1:00 a	79.1	79.5	78.6	89	75.6	0.0	---	0.00	1.0	79.1	84.7	84.7	29.736	0.00	0.000	0.294	83.9	82	77.8	94.9	30
07/17/01	1:30 a	79.0	79.5	78.5	90	75.8	0.0	---	0.00	0.0	79.0	84.7	84.7	29.734	0.00	0.000	0.292	83.6	83	77.9	94.3	30
07/17/01	2:00 a	78.7	79.3	78.1	91	75.8	0.0	---	0.00	0.0	78.7	84.3	84.3	29.723	0.00	0.000	0.285	83.3	83	77.6	93.4	30
07/17/01	2:30 a	78.3	78.9	77.9	91	75.5	0.0	---	0.00	0.0	78.3	83.5	83.5	29.718	0.00	0.000	0.277	83.0	84	77.7	92.8	30
07/17/01	3:00 a	78.1	78.6	77.6	91	75.3	0.0	---	0.00	0.0	78.1	83.1	83.1	29.714	0.00	0.000	0.273	82.7	84	77.4	92.0	30
07/17/01	3:30 a	77.7	78.3	77.1	92	75.2	0.0	---	0.00	0.0	77.7	82.5	82.5	29.711	0.00	0.000	0.265	82.4	84	77.1	91.2	30
07/17/01	4:00 a	77.4	77.9	76.8	92	74.9	0.0	---	0.00	0.0	77.4	81.9	81.9	29.720	0.00	0.000	0.258	82.1	85	77.1	90.7	30
07/17/01	4:30 a	77.1	77.6	76.5	92	74.6	0.0	---	0.00	0.0	77.1	81.4	81.4	29.728	0.00	0.000	0.252	81.8	85	76.8	89.9	30
07/17/01	5:00 a	76.8	77.3	76.3	93	74.6	0.0	---	0.00	0.0	76.8	81.0	81.0	29.744	0.00	0.000	0.246	81.5	86	76.9	89.4	30
07/17/01	5:30 a	76.8	77.3	76.3	92	74.3	0.0	---	0.00	0.0	76.8	80.9	80.9	29.759	0.00	0.000	0.246	81.3	86	76.7	88.9	30
07/17/01	6:00 a	76.5	77.0	76.0	93	74.3	0.0	---	0.00	0.0	76.5	80.6	80.6	29.761	0.00	0.000	0.240	81.1	86	76.5	88.3	30
07/17/01	6:30 a	76.8	77.5	76.1	94	74.9	0.0	---	0.00	0.0	76.8	81.1	81.1	29.773	0.00	0.000	0.246	80.9	87	76.7	88.1	30
07/17/01	7:00 a	77.4	78.2	76.7	94	75.5	0.0	---	0.00	0.0	77.4	82.2	82.2	29.780	0.00	0.000	0.258	81.0	88	77.1	88.6	30
07/17/01	7:30 a	78.4	79.3	77.5	93	76.2	0.0	---	0.00	0.0	78.4	84.0	84.0	29.789	0.00	0.000	0.279	81.2	89	77.6	89.5	30
07/17/01	8:00 a	79.4	80.3	78.5	88	75.5	0.0	SW	0.00	3.0	79.4	85.1	85.1	29.792	0.00	0.000	0.300	81.8	89	78.2	91.2	30
07/17/01	8:30 a	80.8	82.2	79.6	81	74.4	2.0	SW	1.00	7.0	80.8	86.4	86.4	29.796	0.00	0.000	0.329	82.9	89	79.3	94.2	30
07/17/01	9:00 a	82.7	83.9	81.5	79	75.5	2.0	SW	1.00	7.0	82.7	90.6	90.6	29.797	0.00	0.000	0.369	84.1	88	80.2	97.5	30
07/17/01	9:30 a	84.9	86.4	83.4	74	75.7	2.0	WSW	1.00	7.0	84.9	94.1	94.1	29.800	0.00	0.000	0.415	85.3	86	80.6	99.8	30
07/17/01	10:00 a	86.8	88.7	85.4	69	75.4	3.0	SW	1.50	7.0	86.8	96.7	96.7	29.803	0.00	0.000	0.454	86.4	84	81.0	102.3	30
07/17/01	10:30 a	89.2	90.7	88.0	63	75.0	2.0	SW	1.00	8.0	89.2	99.3	99.3	29.801	0.00	0.000	0.504	87.7	82	81.5	105.3	30
07/17/01	11:00 a	90.7	91.5	89.9	63	76.4	3.0	WSW	1.50	8.0	90.7	103.5	103.5	29.796	0.00	0.000	0.535	89.1	79	81.7	108.9	30
07/17/01	11:30 a	91.3	92.3	90.6	58	74.4	2.0	NW	1.00	10.0	91.3	102.0	102.0	29.784	0.00	0.000	0.548	90.0	76	81.4	110.2	30
07/17/01	12:00 p	93.4	94.8	92.1	54	74.3	3.0	WSW	1.50	8.0	93.4	104.9	104.9	29.780	0.00	0.000	0.592	90.9	74	81.5	112.1	30
07/17/01	12:30 p	94.4	95.3	93.8	54	75.2	3.0	SW	1.50	9.0	94.4	107.5	107.5	29.778	0.00	0.000	0.613	92.0	72	81.7	114.5	30
07/17/01	1:00 p	94.1	95.3	92.4	58	77.1	1.0	SW	0.50	7.0	94.1	109.6	109.6	29.771	0.00	0.000	0.606	92.5	70	81.3	114.0	30
07/17/01	1:30 p	88.6	92.7	84.4	75	79.7	3.0	N	1.50	12.0	88.6	103.9	103.9	29.790	0.00	0.000	0.492	91.8	69	80.2	110.9	30
07/17/01	2:00 p	81.7	84.7	80.1	83	76.0	3.0	NE	1.50	12.0	81.7	89.0	89.0	29.808	0.00	0.000	0.348	89.6	69	78.1	103.8	30
07/17/01	2:30 p	79.6	80.7	78.8	85	74.7	3.0	NW	1.50	12.0	79.6	84.8	84.8	29.792	0.38	0.000	0.304	87.8	72	77.6	99.6	30
07/17/01	3:00 p	78.2	79.4	77.5	87	74.0	1.0	N	0.50	4.0	78.2	82.7	82.7	29.766	0.07	0.000	0.275	86.2	73	76.5	96.8	30
07/17/01	3:30 p	78.3	78.9	77.7	89	74.8	0.0	SW	0.00	2.0	78.3	83.2	83.2	29.771	0.00	0.000	0.277	85.4	75	76.6	95.6	30
07/17/01	4:00 p	78.6	78.9	78.0	89	75.1	0.0	ENE	0.00	3.0	78.6	83.8	83.8	29.798	0.00	0.000	0.283	85.0	77	77.0	95.3	30
07/17/01	4:30 p	79.2	79.8	78.6	87	75.0	0.0	---	0.00	0.0	79.2	84.5	84.5	29.808	0.00	0.000	0.296	84.9	78	77.3	95.5	30
07/17/01	5:00 p	79.7	80.2	79.2	87	75.5	0.0	S	0.00	4.0	79.7	85.5	85.5	29.804	0.01	0.000	0.306	84.8	79	77.6	95.7	30
07/17/01	5:30 p	80.1	80.6	79.5	87	75.9	0.0	---	0.00	0.0	80.1	86.3	86.3	29.807	0.00	0.000	0.315	84.7	80	77.8	95.8	30
07/17/01	6:00 p	79.9	80.5	79.5	86	75.3	0.0	---	0.00	0.0	79.9	85.6	85.6	29.801	0.00	0.000	0.310	84.5	80	77.6	95.4	30
07/17/01	6:30 p	79.4	80.1	78.5	88	75.5	1.0	SSW	0.50	7.0	79.4	85.1	85.1	29.795	0.00	0.000	0.300	84.3	79	77.1	94.7	30
07/17/01	7:00 p	78.7	79.2	78.1	90	75.5	0.0	---	0.00	0.0	78.7	84.1	84.1	29.770	0.00	0.000	0.285	83.7	80	76.9	93.7	30
07/17/01	7:30 p	78.2	78.8	77.4	90	75.0	0.0	---	0.00	0.0	78.2	83.2	83.2	29.776	0.00	0.000	0.275	83.3	81	76.9	92.8	30
07/17/01	8:00 p	77.5	78.0	76.9	91	74.7	0.0	---	0.00	0.0	77.5	82.0	82.0	29.779	0.00	0.000	0.260	82.8	82	76.7	91.7	30
07/17/01	8:30 p	77.0	77.6	76.5	92	74.5	0.0	---	0.00	0.0	77.0	81.2	81.2	29.801	0.00	0.000	0.250	82.3	82	76.3	90.3	30
07/17/01	9:00 p	76.6	77.2	76.2	91	73.8	0.0	---	0.00	0.0	76.6	80.5	80.5	29.813	0.00	0.000	0.242	82.0	82	76.0	89.5	30
07/17/01	9:30 p	76.4	77.0	75.7	92	73.9	0.0	---	0.00	0.0	76.4	80.3	80.3	29.827	0.00	0.000	0.238	81.6	83	75.9	88.8	30
07/17/01	10:00 p	76.1	76.5	75.5	92	73.6	0.0	---	0.00	0.0	76.1	79.8	79.8	29.831	0.00	0.000	0.231	81.3	83	75.6	88.0	30
07/17/01	10:30 p	75.8	76.4	75.3	94	73.9	0.0	SSW	0.00	3.0	75.8	79.6	79.6	29.838	0.00	0.000	0.225	81.1	82	75.1	87.3	30
07/17/01	11:00 p	75.7	76.2	75.1	93	73.5	0.0	---	0.00	0.0	75.7	79.4	79.4	29.833	0.00	0.000	0.223	80.9	81	74.5	86.6	30
07/17/01	11:30 p	75.5	75.9	75.0	92	73.0	0.0	---	0.00	0.0	75.5	79.1	79.1	29.820	0.00	0.000	0.219	80.6	81	74.2	85.9	30
07/18/01	12:00 a	75.2	75.7	74.6	91	72.4	0.0	---	0.00	0.0	75.2	78.7	78.7	29.817	0.00	0.000	0.212	80.4	80	73.7	85.3	30
07/18/01	12:30 a	74.8	75.4	74.3	91	72.0	0.0	---	0.00	0.0	74.8	78.1	78.1	29.818	0.00	0.000	0.204	80.0	80	73.3	84.5	30
07/18/01	1:00 a	74.5	75.0	74.0	91	71.7	0.0	---	0.00	0.0	74.5	77.5	77.5	29.815	0.00	0.000	0.198	79.7	80	73.0	84.0	30
07/18/01	1:30 a	74.2	74.6	73.7	92	71.7	0.0	---	0.00	0.0	74.2	77.0	77.0	29.813	0.00	0.000	0.192	79.4	81	73.1	83.7	30
07/18/01	2:00 a	73.9	74.3	73.4	92	71.4	0.0	---	0.00	0.0	73.9	76.5	76.5	29.809	0.00	0.000	0.185	79.2	80	72.5	83.1	30
07/18/01	2:30 a	73.5	74.1	73.1	93	71.4	0.0	---	0.00	0.0	73.5	76.2	76.2	29.813	0.00	0.000	0.177	79.0	80	72.3	82.8	30
07/18/01	3:00 a	73.5	73.9	73.0	93	71.4	0.0	---	0.00	0.0	73.5	76.2	76.2	29.813	0.00	0.000	0.177	78.8	80	72.1	82.5	30
07/18/01	3:30 a	73.3	73.8	72.9	93	71.2	0.0	---	0.00	0.0	73.3	76.0	76.0	29.804	0.00	0.000	0.173	78.6	80	71.9	82.2	30
07/18/01	4:00 a	73.3	73.8	72.9	94	71.5	0.0	---	0.00	0.0	73.3	76.1	76.1	29.801	0.00	0.000	0.173	78.4	81	72.1	82.1	30
07/18/01	4:30 a	73.2	73.7	72.7	94	71.4	0.0	SSW	0.00	4.0	73.2	76.0	76.0	29.801	0.00	0.000	0.171	78.3	81	72.0	82.0	30
07/18/01	5:00 a	73.1	73.5	72.6	94	71.3	0.0	---	0.00	0.0	73.1	75.9	75.9	29.801	0.00	0.000	0.169	78.1	81	71.8	81.7	30
07/18/01	5:30 a	72.9	73.4	72.4	94	71.1	0.0	---	0.00	0.0	72.9	75.6	75.6	29.805	0.00	0.000	0.165	77.9	81	71.6	81.4	30
07/18/01	6:00 a	72.8	73.2	72.3	94	71.0	0.0	---	0.00	0.0	72.8	75.5	75.5	29.813	0.00	0.000	0.163	77.7	81	71.4	81.1	30
07/18/01	6:30 a	73.0	73.6	72.3	95	71.5	0.0	---	0.00	0.0	73.0	75.8	75.8	29.822	0.00	0.000	0.167	77.6	81	71.3	81.0	30
07/18/01	7:00 a	73.6	74.3	72.9	95	72.1	0.0	SSW	0.00	4.0	73.6	76.5	76.5	29.827	0.00	0.000	0.179	77.7	82	71.8	81.2	30
07/18/01	7:30 a	74.4	75.3	73.6	94	72.6	0.0	SSW	0.00	2.0	74.4	77.6	77.6	29.831	0.00	0.000	0.196	77.9	83	72.3	81.7	30
07/18/01	8:00 a	75.8	76.7	74.6	94	73.9	0.0	SSW	0.00	6.0	75.8	79.6	79.6	29.833	0.00	0.000	0.225	78.5	84	73.3	82.7	30
07/18/01	8:30 a	77.7	79.3	76.4	90	74.5	1.0	SSW	0.50	7.0	77.7	82.3	82.3	29.831	0.00	0.000	0.265	79.5	88	75.6	85.3	30
07/18/01	9:00 a	80.2	81.6	78.8	85	75.3	1.0	SSW	0.50	5.0	80.2	86.0	86.0	29.829	0.00	0.000	0.317	80.8	89	77.3	88.4	30
07/18/01	9:30 a	82.6	84.5	81.0	80	75.8	1.0	WSW	0.50	6.0	82.6	90.6	90.6	29.817	0.01	0.000	0.367	82.2	90	79.0	92.6	30
07/18/01	10:00 a	85.3	86.5	83.9	74	76.1	2.0	WSW	1.00	7.0	85.3	95.0	95.0	29.821	0.00	0.000	0.423	83.9	88	80.0	96.9	30
07/18/01	10:30 a	86.7	87.9	85.7	73	77.0	2.0	NW	1.00	6.0	86.7	98.0	98.0	29.825	0.00	0.000	0.452	85.2	84	79.8	98.5	30
07/18/01	11:00 a	88.7	89.9	87.4	69	77.2	1.0	SW	0.50	5.0	88.7	100.8	100.8	29.819	0.00	0.000	0.494	86.5	81	80.0	101.0	30
07/18/01	11:30 a	89.5	90.0	88.7	67	77.1	1.0	WSW	0.50	4.0	89.5	102.3	102.3	29.817	0.00	0.000	0.510	87.7	78	80.0	102.6	30
07/18/01	12:00 p	90.2	91.0	89.2	72	79.9	1.0	W	0.50	8.0	90.2	107.9	107.9	29.807	0.00	0.000	0.525	88.4	79	81.1	105.7	30
07/18/01	12:30 p	88.6	89.6	86.8	79	81.2	2.0	NE	1.00	10.0	88.6	106.6	106.6	29.799	0.01	0.000	0.492	89.3	80	82.3	110.4	30
07/18/01	1:00 p	87.5	88.9	86.4	66	74.7	2.0	ENE	1.00	8.0	87.5	96.6	96.6	29.785	0.00	0.000	0.469	89.2	80	82.2	110.0	30
07/18/01	1:30 p	89.1	90.2	87.9	76	80.5	5.0	ESE	2.50	19.0	89.1	106.6	106.6	29.779	0.00	0.000	0.502	89.6	77	81.4	109.4	30
07/18/01	2:00 p	88.6	89.5	87.9	75	79.7	5.0	ESE	2.50	16.0	88.6	103.9	103.9	29.777	0.00	0.000	0.492	89.9	77	81.7	110.6	30
07/18/01	2:30 p	87.4	88.3	86.2	76	78.9	4.0	SE	2.00	12.0	87.4	100.9	100.9	29.790	0.00	0.000	0.467	89.4	78	81.6	109.3	30
07/18/01	3:00 p	83.7	86.4	81.9	81	77.2	4.0	SSW	2.00	13.0	83.7	94.0	94.0	29.787	0.00	0.000	0.390	88.0	76	79.5	102.0	30
07/18/01	3:30 p	82.5	83.4	81.8	81	76.1	3.0	SSE	1.50	10.0	82.5	90.6	90.6	29.746	0.00	0.000	0.365	86.7	77	78.6	99.7	30
07/18/01	4:00 p	85.0	86.8	83.0	70	74.1	3.0	S	1.50	10.0	85.0	92.9	92.9	29.775	0.00	0.000	0.417	86.8	77	78.7	100.0	30
07/18/01	4:30 p	85.7	86.5	85.1	74	76.5	1.0	SSE	0.50	5.0	85.7	95.9	95.9	29.784	0.00	0.000	0.431	87.3	76	78.8	100.7	30
07/18/01	5:00 p	85.8	86.6	85.1	74	76.5	0.0	SSE	0.00	3.0	85.8	96.2	96.2	29.781	0.00	0.000	0.433	87.6	76	79.1	101.2	30
07/18/01	5:30 p	85.0	85.7	84.5	74	75.8	1.0	S	0.50	7.0	85.0	94.3	94.3	29.769	0.00	0.000	0.417	87.5	75	78.6	100.5	30
07/18/01	6:00 p	84.4	85.4	83.0	77	76.4	1.0	SW	0.50	7.0	84.4	94.2	94.2	29.774	0.00	0.000	0.404	87.2	75	78.3	100.0	30
07/18/01	6:30 p	82.4	83.5	81.5	80	75.6	1.0	NW	0.50	6.0	82.4	90.0	90.0	29.792	0.01	0.000	0.363	86.0	76	77.5	97.4	30
07/18/01	7:00 p	81.3	82.1	80.6	81	74.9	1.0	NW	0.50	3.0	81.3	87.5	87.5	29.790	0.00	0.000	0.340	85.2	77	77.2	95.8	30
07/18/01	7:30 p	80.6	81.3	80.0	81	74.2	0.0	---	0.00	0.0	80.6	85.9	85.9	29.787	0.00	0.000	0.325	84.7	78	77.1	95.1	30
07/18/01	8:00 p	79.8	80.6	79.0	84	74.5	0.0	---	0.00	0.0	79.8	85.0	85.0	29.803	0.00	0.000	0.308	84.1	78	76.5	94.0	30
07/18/01	8:30 p	78.8	79.6	78.2	85	73.9	0.0	---	0.00	0.0	78.8	83.4	83.4	29.820	0.00	0.000	0.288	83.5	79	76.3	92.8	30
07/18/01	9:00 p	78.2	78.9	77.7	87	74.0	0.0	---	0.00	0.0	78.2	82.7	82.7	29.828	0.00	0.000	0.275	83.0	80	76.2	91.7	30
07/18/01	9:30 p	77.8	78.3	77.2	88	74.0	0.0	---	0.00	0.0	77.8	82.2	82.2	29.826	0.00	0.000	0.267	82.6	80	75.8	90.6	30
07/18/01	10:00 p	77.2	77.9	76.7	90	74.0	0.0	---	0.00	0.0	77.2	81.4	81.4	29.835	0.00	0.000	0.254	82.2	81	75.8	89.8	30
07/18/01	10:30 p	76.9	77.4	76.4	90	73.7	0.0	---	0.00	0.0	76.9	80.9	80.9	29.837	0.00	0.000	0.248	81.9	82	75.9	89.3	30
07/18/01	11:00 p	76.7	77.1	76.2	91	73.9	0.0	---	0.00	0.0	76.7	80.6	80.6	29.837	0.00	0.000	0.244	81.6	82	75.6	88.5	30
07/18/01	11:30 p	76.5	77.0	76.0	90	73.3	0.0	---	0.00	0.0	76.5	80.3	80.3	29.838	0.00	0.000	0.240	81.4	82	75.4	88.0	30
07/19/01	12:00 a	76.2	76.8	75.7	91	73.4	0.0	---	0.00	0.0	76.2	79.9	79.9	29.835	0.00	0.000	0.233	81.0	83	75.3	87.3	30
07/19/01	12:30 a	75.7	76.4	75.2	92	73.2	0.0	---	0.00	0.0	75.7	79.3	79.3	29.838	0.00	0.000	0.223	80.7	84	75.4	86.9	30
07/19/01	1:00 a	75.4	75.9	74.9	93	73.2	0.0	---	0.00	0.0	75.4	79.1	79.1	29.831	0.00	0.000	0.217	80.4	84	75.1	86.2	30
07/19/01	1:30 a	75.4	75.8	74.9	92	72.9	0.0	---	0.00	0.0	75.4	79.0	79.0	29.817	0.00	0.000	0.217	80.2	84	74.9	85.8	30
07/19/01	2:00 a	75.1	75.7	74.6	93	72.9	0.0	---	0.00	0.0	75.1	78.7	78.7	29.813	0.00	0.000	0.210	79.9	85	75.0	85.4	30
07/19/01	2:30 a	74.7	75.3	74.3	93	72.5	0.0	---	0.00	0.0	74.7	78.0	78.0	29.812	0.00	0.000	0.202	79.6	85	74.7	84.8	30
07/19/01	3:00 a	74.6	75.2	74.3	94	72.8	0.0	SSW	0.00	1.0	74.6	77.9	77.9	29.810	0.00	0.000	0.200	79.3	86	74.7	84.5	30
07/19/01	3:30 a	74.6	75.1	74.1	94	72.8	0.0	---	0.00	0.0	74.6	77.9	77.9	29.809	0.00	0.000	0.200	79.1	87	74.9	84.3	30
07/19/01	4:00 a	74.5	75.0	74.1	94	72.7	0.0	---	0.00	0.0	74.5	77.8	77.8	29.805	0.00	0.000	0.198	79.0	87	74.8	84.1	30
07/19/01	4:30 a	74.6	75.0	74.0	94	72.8	0.0	---	0.00	0.0	74.6	77.9	77.9	29.803	0.00	0.000	0.200	78.8	86	74.3	83.6	30
07/19/01	5:00 a	74.4	74.9	73.9	94	72.6	0.0	---	0.00	0.0	74.4	77.6	77.6	29.805	0.00	0.000	0.196	78.7	85	73.8	83.2	30
07/19/01	5:30 a	74.2	74.7	73.7	94	72.4	0.0	---	0.00	0.0	74.2	77.2	77.2	29.810	0.00	0.000	0.192	78.6	85	73.7	83.1	30
07/19/01	6:00 a	74.1	74.4	73.6	95	72.6	0.0	---	0.00	0.0	74.1	77.2	77.2	29.817	0.00	0.000	0.190	78.5	84	73.3	82.7	30
07/19/01	6:30 a	74.2	74.8	73.6	95	72.7	0.0	---	0.00	0.0	74.2	77.3	77.3	29.826	0.00	0.000	0.192	78.4	85	73.5	82.7	30
07/19/01	7:00 a	74.8	75.6	74.1	96	73.6	0.0	---	0.00	0.0	74.8	78.4	78.4	29.834	0.00	0.000	0.204	78.5	85	73.6	82.9	30
07/19/01	7:30 a	75.9	77.0	75.1	96	74.7	0.0	---	0.00	0.0	75.9	79.9	79.9	29.840	0.00	0.000	0.227	78.7	86	74.2	83.4	30
07/19/01	8:00 a	77.4	78.4	76.3	94	75.5	0.0	SSW	0.00	5.0	77.4	82.2	82.2	29.842	0.00	0.000	0.258	79.4	87	75.2	84.9	30
07/19/01	8:30 a	79.1	80.4	77.8	87	74.9	2.0	SW	1.00	6.0	79.1	84.3	84.3	29.849	0.00	0.000	0.294	80.4	89	76.9	87.5	30
07/19/01	9:00 a	81.4	82.9	80.1	82	75.4	1.0	WSW	0.50	5.0	81.4	88.0	88.0	29.852	0.00	0.000	0.342	81.7	90	78.5	91.2	30
07/19/01	9:30 a	83.5	84.8	82.0	76	75.1	2.0	SW	1.00	5.0	83.5	91.7	91.7	29.847	0.00	0.000	0.385	83.0	90	79.8	94.8	30
07/19/01	10:00 a	85.4	86.7	83.8	73	75.8	2.0	SW	1.00	5.0	85.4	94.9	94.9	29.847	0.00	0.000	0.425	84.3	87	80.0	97.6	30
07/19/01	10:30 a	87.6	89.1	86.1	68	75.7	2.0	WSW	1.00	8.0	87.6	97.6	97.6	29.839	0.00	0.000	0.471	85.6	84	80.2	99.6	30
07/19/01	11:00 a	89.6	90.6	88.3	67	77.2	2.0	WSW	1.00	7.0	89.6	102.7	102.7	29.830	0.00	0.000	0.512	87.1	82	80.9	103.7	30
07/19/01	11:30 a	90.5	91.6	89.2	63	76.2	1.0	NW	0.50	4.0	90.5	102.9	102.9	29.821	0.00	0.000	0.531	88.3	80	81.3	105.8	30
07/19/01	12:00 p	91.5	93.1	90.4	57	74.1	1.0	W	0.50	5.0	91.5	102.0	102.0	29.808	0.00	0.000	0.552	89.3	78	81.5	108.9	30
07/19/01	12:30 p	93.3	94.6	90.6	67	80.7	1.0	NE	0.50	7.0	93.3	114.3	114.3	29.797	0.00	0.000	0.590	90.4	76	81.8	111.9	30
07/19/01	1:00 p	91.3	92.9	90.1	66	78.3	2.0	ENE	1.00	13.0	91.3	107.2	107.2	29.785	0.00	0.000	0.548	91.2	76	82.6	115.3	30
07/19/01	1:30 p	91.7	92.4	91.0	65	78.3	3.0	NE	1.50	13.0	91.7	107.7	107.7	29.771	0.00	0.000	0.556	91.7	74	82.2	115.4	30
07/19/01	2:00 p	93.9	94.8	92.5	60	77.9	4.0	ESE	2.00	13.0	93.9	110.4	110.4	29.762	0.00	0.000	0.602	92.5	74	83.0	119.0	30
07/19/01	2:30 p	94.3	95.1	93.5	62	79.3	4.0	ESE	2.00	16.0	94.3	113.4	113.4	29.748	0.00	0.000	0.610	93.2	72	82.8	119.4	30
07/19/01	3:00 p	94.0	95.5	93.0	61	78.5	4.0	E	2.00	16.0	94.0	111.5	111.5	29.739	0.00	0.000	0.604	93.6	72	83.2	121.1	30
07/19/01	3:30 p	94.5	95.2	93.7	61	79.0	5.0	ESE	2.50	14.0	94.5	113.1	113.1	29.735	0.00	0.000	0.615	94.0	70	82.7	119.4	30
07/19/01	4:00 p	93.9	94.9	92.7	61	78.4	5.0	ESE	2.50	17.0	93.9	111.2	111.2	29.730	0.00	0.000	0.602	94.3	69	82.6	119.7	30
07/19/01	4:30 p	91.7	93.0	90.8	62	76.8	5.0	ESE	2.50	13.0	91.7	105.6	105.6	29.732	0.00	0.000	0.556	93.9	68	81.7	117.3	30
07/19/01	5:00 p	91.4	92.7	89.6	64	77.5	4.0	ESE	2.00	15.0	91.4	106.1	106.1	29.715	0.00	0.000	0.550	93.3	66	80.2	113.5	30
07/19/01	5:30 p	89.1	90.1	88.5	66	76.3	2.0	ESE	1.00	12.0	89.1	100.5	100.5	29.739	0.00	0.000	0.502	92.0	66	79.0	109.3	30
07/19/01	6:00 p	88.2	89.0	87.4	68	76.3	2.0	SE	1.00	8.0	88.2	98.7	98.7	29.741	0.00	0.000	0.483	90.9	68	78.9	107.3	30
07/19/01	6:30 p	87.0	87.8	86.1	71	76.5	2.0	S	1.00	6.0	87.0	97.9	97.9	29.762	0.00	0.000	0.458	90.0	69	78.5	105.2	30
07/19/01	7:00 p	85.5	86.8	84.0	74	76.3	1.0	NW	0.50	8.0	85.5	95.5	95.5	29.767	0.00	0.000	0.427	89.2	69	77.7	102.4	30
07/19/01	7:30 p	83.2	84.4	82.2	75	74.4	0.0	NW	0.00	6.0	83.2	90.6	90.6	29.760	0.00	0.000	0.379	88.3	69	76.8	99.5	30
07/19/01	8:00 p	81.7	82.8	80.7	76	73.4	0.0	SW	0.00	4.0	81.7	87.1	87.1	29.769	0.00	0.000	0.348	87.2	69	75.8	97.4	30
07/19/01	8:30 p	80.5	81.4	79.7	78	73.0	0.0	NW	0.00	4.0	80.5	85.1	85.1	29.771	0.00	0.000	0.323	86.3	69	74.9	95.6	30
07/19/01	9:00 p	79.3	79.9	78.7	78	71.8	1.0	SW	0.50	4.0	79.3	83.0	83.0	29.772	0.00	0.000	0.298	85.7	69	74.4	94.2	30
07/19/01	9:30 p	78.5	78.8	78.2	77	70.7	0.0	SSW	0.00	2.0	78.5	81.6	81.6	29.783	0.00	0.000	0.281	85.1	69	73.8	92.8	30
07/19/01	10:00 p	78.0	78.4	77.8	79	71.0	0.0	W	0.00	2.0	78.0	81.2	81.2	29.788	0.00	0.000	0.271	84.5	70	73.6	91.9	30
07/19/01	10:30 p	77.8	78.1	77.4	81	71.5	0.0	---	0.00	0.0	77.8	81.3	81.3	29.792	0.00	0.000	0.267	84.0	71	73.6	91.3	30
07/19/01	11:00 p	77.5	77.6	77.4	81	71.2	0.0	---	0.00	0.0	77.5	80.8	80.8	29.804	0.00	0.000	0.260	83.5	72	73.5	90.4	30
07/19/01	11:30 p	77.4	77.6	77.0	81	71.1	0.0	S	0.00	4.0	77.4	80.7	80.7	29.785	0.00	0.000	0.258	83.1	72	73.1	89.3	30
07/20/01	12:00 a	76.9	77.2	76.7	82	71.0	1.0	SW	0.50	5.0	76.9	80.1	80.1	29.790	0.00	0.000	0.248	82.7	73	73.2	88.7	30
07/20/01	12:30 a	76.8	77.0	76.6	83	71.2	0.0	WSW	0.00	3.0	76.8	80.1	80.1	29.783	0.00	0.000	0.246	82.4	73	72.9	88.0	30
07/20/01	1:00 a	76.5	76.9	76.2	85	71.7	1.0	SSW	0.50	6.0	76.5	79.9	79.9	29.783	0.00	0.000	0.240	82.2	74	73.1	87.8	30
07/20/01	1:30 a	76.3	76.5	76.2	85	71.5	0.0	SSW	0.00	2.0	76.3	79.6	79.6	29.774	0.00	0.000	0.235	82.0	74	72.9	87.3	30
07/20/01	2:00 a	76.2	76.4	75.9	86	71.7	0.0	---	0.00	0.0	76.2	79.5	79.5	29.768	0.00	0.000	0.233	81.7	74	72.6	86.6	30
07/20/01	2:30 a	75.9	76.1	75.6	87	71.8	0.0	---	0.00	0.0	75.9	79.2	79.2	29.756	0.00	0.000	0.227	81.4	74	72.3	86.0	30
07/20/01	3:00 a	75.6	75.8	75.4	88	71.8	0.0	---	0.00	0.0	75.6	78.9	78.9	29.751	0.00	0.000	0.221	81.2	73	71.7	85.4	30
07/20/01	3:30 a	75.4	75.7	75.2	89	71.9	0.0	---	0.00	0.0	75.4	78.8	78.8	29.742	0.00	0.000	0.217	80.9	74	71.8	85.0	30
07/20/01	4:00 a	75.3	75.5	75.1	89	71.8	0.0	---	0.00	0.0	75.3	78.7	78.7	29.746	0.00	0.000	0.215	80.7	74	71.6	84.7	30
07/20/01	4:30 a	75.1	75.4	75.0	89	71.6	0.0	---	0.00	0.0	75.1	78.4	78.4	29.742	0.00	0.000	0.210	80.4	74	71.3	84.1	30
07/20/01	5:00 a	75.0	75.2	74.8	90	71.9	0.0	---	0.00	0.0	75.0	78.4	78.4	29.749	0.00	0.000	0.208	80.2	75	71.6	84.0	30
07/20/01	5:30 a	74.9	75.1	74.7	91	72.1	0.0	---	0.00	0.0	74.9	78.3	78.3	29.765	0.00	0.000	0.206	80.0	75	71.4	83.6	30
07/20/01	6:00 a	74.8	75.0	74.7	91	72.0	0.0	---	0.00	0.0	74.8	78.1	78.1	29.763	0.00	0.000	0.204	79.8	75	71.2	83.3	30
07/20/01	6:30 a	74.9	75.2	74.7	92	72.4	0.0	---	0.00	0.0	74.9	78.3	78.3	29.765	0.00	0.000	0.206	79.7	75	71.1	83.1	30
07/20/01	7:00 a	75.5	76.2	75.0	92	73.0	0.0	---	0.00	0.0	75.5	79.1	79.1	29.784	0.00	0.000	0.219	79.8	77	71.9	83.6	30
07/20/01	7:30 a	76.6	77.2	76.0	91	73.8	0.0	SSW	0.00	2.0	76.6	80.5	80.5	29.793	0.00	0.000	0.242	80.1	79	73.0	84.5	30
07/20/01	8:00 a	77.9	78.7	77.1	87	73.7	0.0	NW	0.00	4.0	77.9	82.2	82.2	29.794	0.00	0.000	0.269	80.6	79	73.5	85.5	30
07/20/01	8:30 a	79.7	80.9	78.7	83	74.1	1.0	NW	0.50	5.0	79.7	84.6	84.6	29.798	0.00	0.000	0.306	81.4	81	75.0	87.7	30
07/20/01	9:00 a	82.0	83.3	80.8	81	75.6	1.0	WNW	0.50	6.0	82.0	89.2	89.2	29.795	0.00	0.000	0.354	82.7	82	76.6	91.4	30
07/20/01	9:30 a	84.3	85.6	83.1	76	75.9	1.0	WNW	0.50	6.0	84.3	93.6	93.6	29.792	0.00	0.000	0.402	84.2	83	78.5	95.9	30
07/20/01	10:00 a	86.5	87.6	85.4	72	76.4	1.0	WNW	0.50	6.0	86.5	97.2	97.2	29.783	0.00	0.000	0.448	85.5	80	78.6	97.6	30
07/20/01	10:30 a	88.3	89.1	87.6	70	77.3	2.0	NW	1.00	7.0	88.3	100.0	100.0	29.783	0.00	0.000	0.485	86.8	78	79.1	100.5	30
07/20/01	11:00 a	89.2	90.1	88.6	67	76.8	2.0	NW	1.00	7.0	89.2	101.3	101.3	29.772	0.00	0.000	0.504	87.8	77	79.7	102.2	30
07/20/01	11:30 a	89.6	90.1	89.0	67	77.2	2.0	NW	1.00	6.0	89.6	102.7	102.7	29.767	0.00	0.000	0.512	88.6	75	79.7	103.9	30
07/20/01	12:00 p	90.5	91.0	89.6	69	78.9	2.0	ENE	1.00	6.0	90.5	106.8	106.8	29.755	0.00	0.000	0.531	89.5	75	80.5	107.4	30
07/20/01	12:30 p	90.7	91.5	90.1	69	79.1	1.0	ESE	0.50	10.0	90.7	107.4	107.4	29.741	0.00	0.000	0.535	90.3	75	81.3	110.6	30
07/20/01	1:00 p	91.5	92.0	90.7	66	78.5	3.0	ESE	1.50	10.0	91.5	107.8	107.8	29.734	0.00	0.000	0.552	90.9	74	81.5	112.1	30
07/20/01	1:30 p	92.5	93.4	91.9	66	79.5	4.0	ESE	2.00	12.0	92.5	110.9	110.9	29.720	0.00	0.000	0.573	91.7	73	81.8	114.4	30
07/20/01	2:00 p	90.8	92.3	89.4	67	78.3	5.0	SE	2.50	15.0	90.8	106.4	106.4	29.707	0.00	0.000	0.538	91.7	71	81.0	112.3	30
07/20/01	2:30 p	88.5	89.5	87.5	74	79.1	3.0	SE	1.50	11.0	88.5	102.9	102.9	29.694	0.05	0.000	0.490	90.8	71	80.1	109.2	30
07/20/01	3:00 p	85.8	87.5	84.0	78	78.1	1.0	SE	0.50	6.0	85.8	97.6	97.6	29.692	0.09	0.000	0.433	89.6	74	80.2	107.2	30
07/20/01	3:30 p	83.2	84.1	81.8	79	76.0	1.0	WSW	0.50	5.0	83.2	91.9	91.9	29.694	0.01	0.000	0.379	88.3	74	79.0	102.1	30
07/20/01	4:00 p	80.5	81.9	79.5	83	74.9	0.0	WNW	0.00	4.0	80.5	86.2	86.2	29.692	0.02	0.000	0.323	86.8	72	76.7	97.9	30
07/20/01	4:30 p	78.8	79.9	77.4	85	73.9	3.0	NW	1.50	22.0	78.8	83.4	83.4	29.717	0.10	0.000	0.288	85.7	73	76.0	95.6	30
07/20/01	5:00 p	76.5	77.6	75.6	88	72.7	3.0	SW	1.50	11.0	76.5	80.1	80.1	29.731	0.33	0.000	0.240	84.6	74	75.4	93.5	30
07/20/01	5:30 p	75.1	75.9	74.4	89	71.6	1.0	N	0.50	7.0	75.1	78.4	78.4	29.717	0.05	0.000	0.210	83.5	74	74.3	91.1	30
07/20/01	6:00 p	74.9	75.3	74.5	90	71.8	1.0	SE	0.50	6.0	74.9	78.2	78.2	29.712	0.09	0.000	0.206	82.9	75	74.2	89.8	30
07/20/01	6:30 p	75.3	75.6	75.0	89	71.8	0.0	SE	0.00	2.0	75.3	78.7	78.7	29.718	0.04	0.000	0.215	82.4	76	74.1	88.8	30
07/20/01	7:00 p	75.3	75.7	75.0	91	72.5	0.0	SE	0.00	4.0	75.3	78.8	78.8	29.723	0.03	0.000	0.215	81.9	77	74.0	87.8	30
07/20/01	7:30 p	75.5	75.7	75.2	90	72.4	0.0	SE	0.00	2.0	75.5	78.9	78.9	29.707	0.02	0.000	0.219	81.8	78	74.3	87.9	30
07/20/01	8:00 p	75.4	75.7	75.1	92	72.9	0.0	SE	0.00	3.0	75.4	79.0	79.0	29.719	0.00	0.000	0.217	81.8	79	74.6	88.2	30
07/20/01	8:30 p	75.6	75.8	75.2	91	72.8	0.0	---	0.00	0.0	75.6	79.1	79.1	29.728	0.00	0.000	0.221	82.1	78	74.6	88.6	30
07/20/01	9:00 p	75.4	75.6	75.1	91	72.6	0.0	---	0.00	0.0	75.4	78.9	78.9	29.735	0.00	0.000	0.217	82.0	77	74.1	88.1	30
07/20/01	9:30 p	75.3	75.5	75.1	91	72.5	0.0	---	0.00	0.0	75.3	78.8	78.8	29.735	0.00	0.000	0.215	81.7	77	73.8	87.4	30
07/20/01	10:00 p	75.3	75.5	75.0	91	72.5	0.0	---	0.00	0.0	75.3	78.8	78.8	29.739	0.00	0.000	0.215	81.3	77	73.4	86.5	30
07/20/01	10:30 p	75.2	75.5	74.9	92	72.7	0.0	---	0.00	0.0	75.2	78.8	78.8	29.737	0.00	0.000	0.212	81.0	77	73.1	85.8	30
07/20/01	11:00 p	75.1	75.3	74.9	91	72.3	0.0	---	0.00	0.0	75.1	78.6	78.6	29.736	0.00	0.000	0.210	80.8	77	72.9	85.5	30
07/20/01	11:30 p	75.0	75.3	74.6	92	72.5	0.0	SE	0.00	3.0	75.0	78.5	78.5	29.730	0.00	0.000	0.208	80.6	77	72.7	85.1	30
07/21/01	12:00 a	74.6	75.0	74.3	92	72.1	0.0	SE	0.00	1.0	74.6	77.8	77.8	29.714	0.00	0.000	0.200	80.2	78	72.7	84.5	30
07/21/01	12:30 a	74.5	74.7	74.2	92	72.0	1.0	SSW	0.50	5.0	74.5	77.6	77.6	29.703	0.00	0.000	0.198	80.0	78	72.5	84.1	30
07/21/01	1:00 a	74.3	74.5	74.1	93	72.1	0.0	SSW	0.00	4.0	74.3	77.3	77.3	29.696	0.00	0.000	0.194	79.8	79	72.7	84.0	30
07/21/01	1:30 a	74.3	74.5	74.1	93	72.1	2.0	SSW	1.00	6.0	74.3	77.3	77.3	29.696	0.00	0.000	0.194	79.6	80	72.9	83.8	30
07/21/01	2:00 a	74.5	74.6	74.3	94	72.7	1.0	SSW	0.50	6.0	74.5	77.8	77.8	29.691	0.00	0.000	0.198	79.6	80	72.9	83.8	30
07/21/01	2:30 a	74.5	74.7	74.3	94	72.7	0.0	SSW	0.00	5.0	74.5	77.8	77.8	29.677	0.00	0.000	0.198	79.5	80	72.8	83.7	30
07/21/01	3:00 a	74.7	74.9	74.4	94	72.9	1.0	SSW	0.50	5.0	74.7	78.1	78.1	29.664	0.00	0.000	0.202	79.4	80	72.7	83.5	30
07/21/01	3:30 a	74.8	75.0	74.6	95	73.3	0.0	SSW	0.00	5.0	74.8	78.4	78.4	29.649	0.00	0.000	0.204	79.4	81	73.1	83.7	30
07/21/01	4:00 a	74.8	75.0	74.6	96	73.6	0.0	---	0.00	0.0	74.8	78.4	78.4	29.646	0.00	0.000	0.204	79.3	81	73.0	83.5	30
07/21/01	4:30 a	74.7	74.9	74.5	96	73.5	0.0	---	0.00	0.0	74.7	78.2	78.2	29.642	0.00	0.000	0.202	79.2	81	72.9	83.3	30
07/21/01	5:00 a	74.7	74.9	74.5	97	73.8	0.0	---	0.00	0.0	74.7	78.3	78.3	29.647	0.00	0.000	0.202	79.1	82	73.1	83.3	30
07/21/01	5:30 a	74.7	74.9	74.5	97	73.8	0.0	---	0.00	0.0	74.7	78.3	78.3	29.661	0.00	0.000	0.202	78.9	82	72.9	83.0	30
07/21/01	6:00 a	74.8	75.1	74.6	98	74.2	0.0	---	0.00	0.0	74.8	78.5	78.5	29.666	0.00	0.000	0.204	79.0	82	73.0	83.2	30
07/21/01	6:30 a	75.0	75.3	74.7	98	74.4	0.0	---	0.00	0.0	75.0	78.8	78.8	29.669	0.00	0.000	0.208	79.2	83	73.6	83.7	30
07/21/01	7:00 a	75.4	75.9	75.0	98	74.8	0.0	---	0.00	0.0	75.4	79.3	79.3	29.675	0.00	0.000	0.217	79.3	83	73.7	83.9	30
07/21/01	7:30 a	76.1	76.7	75.6	96	74.9	0.0	---	0.00	0.0	76.1	80.2	80.2	29.673	0.00	0.000	0.231	79.6	84	74.3	84.6	30
07/21/01	8:00 a	77.1	77.6	76.6	94	75.2	0.0	SSW	0.00	6.0	77.1	81.6	81.6	29.673	0.00	0.000	0.252	80.1	85	75.2	85.8	30
07/21/01	8:30 a	77.8	78.1	77.5	94	75.9	1.0	SW	0.50	5.0	77.8	82.9	82.9	29.675	0.00	0.000	0.267	80.4	86	75.8	86.7	30
07/21/01	9:00 a	78.6	79.1	77.9	92	76.1	2.0	SW	1.00	8.0	78.6	84.3	84.3	29.674	0.00	0.000	0.283	80.9	86	76.3	87.9	30
07/21/01	9:30 a	79.5	80.1	78.9	90	76.3	2.0	SW	1.00	7.0	79.5	85.8	85.8	29.674	0.00	0.000	0.302	81.6	87	77.4	90.0	30
07/21/01	10:00 a	80.2	80.5	80.0	87	76.0	2.0	WSW	1.00	7.0	80.2	86.5	86.5	29.664	0.00	0.000	0.317	82.2	88	78.3	92.0	30
07/21/01	10:30 a	81.1	82.0	80.3	82	75.1	1.0	NW	0.50	6.0	81.1	87.3	87.3	29.659	0.00	0.000	0.335	82.7	87	78.4	93.0	30
07/21/01	11:00 a	82.8	83.4	81.9	78	75.2	2.0	WSW	1.00	7.0	82.8	90.5	90.5	29.660	0.00	0.000	0.371	83.6	85	78.6	94.9	30
07/21/01	11:30 a	84.2	85.7	83.3	77	76.2	1.0	SW	0.50	6.0	84.2	93.8	93.8	29.651	0.00	0.000	0.400	84.5	83	78.8	96.5	30
07/21/01	12:00 p	86.8	88.8	85.6	72	76.7	2.0	SW	1.00	8.0	86.8	97.9	97.9	29.643	0.00	0.000	0.454	85.8	83	80.0	99.7	30
07/21/01	12:30 p	87.2	88.8	85.6	75	78.3	4.0	S	2.00	15.0	87.2	100.0	100.0	29.634	0.00	0.000	0.462	86.8	80	79.9	101.4	30
07/21/01	1:00 p	84.4	85.9	82.9	77	76.4	3.0	SSE	1.50	13.0	84.4	94.2	94.2	29.634	0.00	0.000	0.404	86.0	77	77.9	97.7	30
07/21/01	1:30 p	82.3	83.0	81.3	82	76.3	2.0	SSW	1.00	9.0	82.3	90.3	90.3	29.648	0.00	0.000	0.360	84.9	78	77.3	95.5	30
07/21/01	2:00 p	78.9	81.4	76.7	88	75.0	7.0	SW	3.50	20.0	78.9	84.1	84.1	29.658	0.57	0.000	0.290	84.1	78	76.5	94.0	30
07/21/01	2:30 p	76.3	76.9	75.9	89	72.8	2.0	SW	1.00	10.0	76.3	79.9	79.9	29.635	0.03	0.000	0.235	82.6	79	75.4	90.3	30
07/21/01	3:00 p	76.5	76.8	76.1	90	73.3	1.0	SW	0.50	5.0	76.5	80.3	80.3	29.640	0.00	0.000	0.240	81.9	81	75.5	89.0	30
07/21/01	3:30 p	76.5	76.8	76.3	91	73.7	1.0	SW	0.50	6.0	76.5	80.3	80.3	29.639	0.01	0.000	0.240	81.7	82	75.7	88.8	30
07/21/01	4:00 p	76.4	76.8	76.0	92	73.9	1.0	SW	0.50	6.0	76.4	80.3	80.3	29.645	0.02	0.000	0.238	81.3	83	75.6	88.0	30
07/21/01	4:30 p	76.1	76.4	75.8	93	73.9	0.0	SW	0.00	4.0	76.1	79.9	79.9	29.643	0.10	0.000	0.231	81.0	84	75.7	87.5	30
07/21/01	5:00 p	75.7	76.2	75.3	93	73.5	1.0	SW	0.50	5.0	75.7	79.4	79.4	29.636	0.05	0.000	0.223	80.6	84	75.3	86.7	30
07/21/01	5:30 p	75.4	75.7	75.1	94	73.6	1.0	SW	0.50	5.0	75.4	79.1	79.1	29.631	0.04	0.000	0.217	80.3	85	75.4	86.3	30
07/21/01	6:00 p	75.1	75.4	74.7	93	72.9	2.0	SW	1.00	8.0	75.1	78.7	78.7	29.631	0.03	0.000	0.210	80.0	85	75.1	85.6	30
07/21/01	6:30 p	74.4	75.0	74.0	93	72.2	2.0	SW	1.00	7.0	74.4	77.5	77.5	29.638	0.01	0.000	0.196	79.7	84	74.4	84.8	30
07/21/01	7:00 p	74.1	74.4	73.9	93	71.9	1.0	SW	0.50	4.0	74.1	76.9	76.9	29.634	0.01	0.000	0.190	79.4	83	73.8	84.1	30
07/21/01	7:30 p	74.1	74.4	73.7	93	71.9	1.0	SSW	0.50	5.0	74.1	76.9	76.9	29.630	0.00	0.000	0.190	79.5	83	73.9	84.3	30
07/21/01	8:00 p	73.8	74.1	73.6	94	72.0	0.0	SSW	0.00	3.0	73.8	76.7	76.7	29.636	0.00	0.000	0.183	79.3	82	73.3	83.7	30
07/21/01	8:30 p	74.0	74.3	73.6	95	72.5	1.0	S	0.50	5.0	74.0	77.0	77.0	29.634	0.00	0.000	0.188	79.2	83	73.6	83.7	30
07/21/01	9:00 p	74.2	74.5	73.9	95	72.7	2.0	S	1.00	8.0	74.2	77.3	77.3	29.642	0.00	0.000	0.192	79.1	84	73.8	83.7	30
07/21/01	9:30 p	74.3	74.6	74.1	95	72.8	1.0	S	0.50	7.0	74.3	77.5	77.5	29.645	0.00	0.000	0.194	79.1	84	73.8	83.7	30
07/21/01	10:00 p	74.3	74.6	74.1	95	72.8	1.0	S	0.50	6.0	74.3	77.5	77.5	29.655	0.00	0.000	0.194	79.1	84	73.8	83.7	30
07/21/01	10:30 p	74.3	74.5	74.1	95	72.8	0.0	SSW	0.00	2.0	74.3	77.5	77.5	29.657	0.00	0.000	0.194	79.0	84	73.7	83.5	30
07/21/01	11:00 p	74.3	74.5	74.1	95	72.8	0.0	SSW	0.00	3.0	74.3	77.5	77.5	29.653	0.00	0.000	0.194	79.0	84	73.7	83.5	30
07/21/01	11:30 p	74.2	74.4	74.1	95	72.7	1.0	SSW	0.50	7.0	74.2	77.3	77.3	29.649	0.00	0.000	0.192	78.8	85	73.9	83.4	30
07/22/01	12:00 a	74.3	74.5	74.1	96	73.1	2.0	SSW	1.00	7.0	74.3	77.6	77.6	29.656	0.00	0.000	0.194	78.8	85	73.9	83.4	30
07/22/01	12:30 a	74.4	74.5	74.2	96	73.2	1.0	SSW	0.50	6.0	74.4	77.8	77.8	29.658	0.00	0.000	0.196	78.7	85	73.8	83.2	30
07/22/01	1:00 a	74.4	74.6	74.2	96	73.2	1.0	S	0.50	7.0	74.4	77.8	77.8	29.642	0.00	0.000	0.196	78.6	86	74.1	83.2	30
07/22/01	1:30 a	74.3	74.6	74.0	96	73.1	1.0	SSW	0.50	5.0	74.3	77.6	77.6	29.620	0.00	0.000	0.194	78.5	86	74.0	83.1	30
07/22/01	2:00 a	74.2	74.3	74.0	96	73.0	0.0	---	0.00	0.0	74.2	77.4	77.4	29.611	0.00	0.000	0.192	78.4	85	73.5	82.7	30
07/22/01	2:30 a	74.1	74.3	73.8	96	72.9	0.0	S	0.00	5.0	74.1	77.3	77.3	29.613	0.00	0.000	0.190	78.3	85	73.4	82.6	30
07/22/01	3:00 a	74.0	74.2	73.8	96	72.8	2.0	S	1.00	9.0	74.0	77.1	77.1	29.605	0.00	0.000	0.188	78.2	86	73.7	82.6	30
07/22/01	3:30 a	73.8	74.0	73.6	96	72.6	2.0	SSW	1.00	8.0	73.8	76.9	76.9	29.599	0.00	0.000	0.183	78.1	86	73.6	82.4	30
07/22/01	4:00 a	73.7	73.9	73.5	96	72.5	3.0	SSW	1.50	9.0	73.7	76.8	76.8	29.602	0.00	0.000	0.181	78.0	87	73.8	82.4	30
07/22/01	4:30 a	73.6	73.8	73.4	96	72.4	1.0	SW	0.50	7.0	73.6	76.7	76.7	29.600	0.00	0.000	0.179	77.8	87	73.6	82.1	30
07/22/01	5:00 a	73.6	73.7	73.4	96	72.4	0.0	WSW	0.00	2.0	73.6	76.7	76.7	29.605	0.00	0.000	0.179	77.7	87	73.5	81.9	30
07/22/01	5:30 a	73.6	73.8	73.4	97	72.7	0.0	SSW	0.00	5.0	73.6	76.8	76.8	29.606	0.00	0.000	0.179	77.7	86	73.2	81.8	30
07/22/01	6:00 a	73.6	73.9	73.4	97	72.7	0.0	S	0.00	4.0	73.6	76.8	76.8	29.607	0.01	0.000	0.179	77.7	87	73.5	81.9	30
07/22/01	6:30 a	73.8	74.1	73.5	97	72.9	0.0	---	0.00	0.0	73.8	77.0	77.0	29.621	0.00	0.000	0.183	77.7	87	73.5	81.9	30
07/22/01	7:00 a	74.1	74.4	73.8	97	73.2	0.0	---	0.00	0.0	74.1	77.4	77.4	29.617	0.00	0.000	0.190	77.7	87	73.5	81.9	30
07/22/01	7:30 a	74.6	75.0	74.2	95	73.1	0.0	---	0.00	0.0	74.6	78.0	78.0	29.630	0.00	0.000	0.200	77.9	87	73.7	82.2	30
07/22/01	8:00 a	75.1	75.4	74.8	95	73.6	1.0	SW	0.50	8.0	75.1	78.8	78.8	29.635	0.00	0.000	0.210	78.1	88	74.3	82.7	30
07/22/01	8:30 a	75.7	76.1	75.3	93	73.5	2.0	S	1.00	9.0	75.7	79.4	79.4	29.644	0.00	0.000	0.223	78.4	88	74.5	83.2	30
07/22/01	9:00 a	76.4	76.9	75.9	91	73.6	3.0	SSW	1.50	10.0	76.4	80.2	80.2	29.644	0.00	0.000	0.238	78.8	89	75.3	84.1	30
07/22/01	9:30 a	77.9	79.1	76.8	86	73.4	4.0	SSW	2.00	9.0	77.9	82.1	82.1	29.645	0.00	0.000	0.269	79.5	91	76.6	86.0	30
07/22/01	10:00 a	80.4	81.2	79.0	83	74.8	2.0	SSW	1.00	9.0	80.4	86.0	86.0	29.646	0.00	0.000	0.321	81.0	90	77.8	89.2	30
07/22/01	10:30 a	82.3	83.2	81.2	78	74.7	3.0	S	1.50	14.0	82.3	89.2	89.2	29.637	0.00	0.000	0.360	82.4	89	78.8	92.8	30
07/22/01	11:00 a	84.2	85.4	83.1	72	74.2	6.0	SSW	3.00	13.0	84.2	92.0	92.0	29.626	0.00	0.000	0.400	83.8	86	79.2	95.9	30
07/22/01	11:30 a	86.0	86.9	85.2	69	74.6	5.0	S	2.50	13.0	86.0	94.9	94.9	29.617	0.00	0.000	0.438	85.3	82	79.2	98.0	30
07/22/01	12:00 p	88.1	89.2	86.9	66	75.3	6.0	SSW	3.00	15.0	88.1	97.5	97.5	29.607	0.00	0.000	0.481	86.8	80	79.9	101.4	30
07/22/01	12:30 p	88.9	89.4	88.2	67	76.5	5.0	SSW	2.50	15.0	88.9	100.4	100.4	29.595	0.00	0.000	0.498	88.4	78	80.7	105.0	30
07/22/01	1:00 p	90.2	91.4	88.9	63	75.9	5.0	SW	2.50	12.0	90.2	102.1	102.1	29.589	0.00	0.000	0.525	89.5	76	80.9	108.2	30
07/22/01	1:30 p	91.8	92.6	90.3	63	77.4	5.0	SSW	2.50	12.0	91.8	106.6	106.6	29.579	0.00	0.000	0.558	90.6	74	81.2	111.0	30
07/22/01	2:00 p	90.6	91.8	89.9	62	75.8	6.0	SW	3.00	13.0	90.6	102.6	102.6	29.566	0.00	0.000	0.533	91.0	72	80.7	110.8	30
07/22/01	2:30 p	88.3	91.6	86.5	77	80.2	4.0	SW	2.00	17.0	88.3	103.9	103.9	29.559	0.01	0.000	0.485	90.8	73	80.9	110.9	30
07/22/01	3:00 p	85.0	87.4	81.9	83	79.3	2.0	SW	1.00	14.0	85.0	97.6	97.6	29.563	0.10	0.000	0.417	89.2	74	79.8	105.6	30
07/22/01	3:30 p	79.7	81.9	78.1	86	75.1	2.0	NW	1.00	13.0	79.7	85.3	85.3	29.576	0.42	0.000	0.306	86.9	74	77.6	98.9	30
07/22/01	4:00 p	78.2	78.4	77.9	90	75.0	1.0	SW	0.50	7.0	78.2	83.2	83.2	29.573	0.03	0.000	0.275	85.3	76	76.9	95.7	30
07/22/01	4:30 p	78.1	78.3	77.8	91	75.3	1.0	SW	0.50	7.0	78.1	83.1	83.1	29.566	0.00	0.000	0.273	84.4	78	76.8	94.5	30
07/22/01	5:00 p	78.3	78.7	77.9	91	75.5	0.0	WSW	0.00	4.0	78.3	83.5	83.5	29.566	0.00	0.000	0.277	84.1	80	77.3	94.7	30
07/22/01	5:30 p	78.6	78.9	78.4	90	75.4	1.0	SSW	0.50	5.0	78.6	83.9	83.9	29.568	0.00	0.000	0.283	83.9	81	77.4	94.5	30
07/22/01	6:00 p	78.9	79.1	78.6	89	75.4	1.0	SW	0.50	5.0	78.9	84.3	84.3	29.571	0.00	0.000	0.290	83.7	81	77.2	94.0	30
07/22/01	6:30 p	78.9	79.1	78.7	89	75.4	1.0	SSW	0.50	6.0	78.9	84.3	84.3	29.582	0.00	0.000	0.290	83.5	81	77.1	93.4	30
07/22/01	7:00 p	78.5	78.9	78.2	88	74.6	1.0	SSW	0.50	4.0	78.5	83.4	83.4	29.597	0.00	0.000	0.281	83.1	81	76.7	92.3	30
07/22/01	7:30 p	78.1	78.4	77.8	86	73.6	2.0	SW	1.00	9.0	78.1	82.4	82.4	29.596	0.00	0.000	0.273	82.7	80	75.9	90.9	30
07/22/01	8:00 p	77.6	78.0	77.3	86	73.1	3.0	SSW	1.50	11.0	77.6	81.6	81.6	29.602	0.00	0.000	0.262	82.2	80	75.4	89.5	30
07/22/01	8:30 p	77.2	77.4	76.9	87	73.0	3.0	SSW	1.50	9.0	77.2	81.1	81.1	29.620	0.00	0.000	0.254	81.7	80	74.9	88.2	30
07/22/01	9:00 p	76.9	77.1	76.6	86	72.4	4.0	SSW	2.00	10.0	76.9	80.5	80.5	29.623	0.00	0.000	0.248	81.3	80	74.5	87.2	30
07/22/01	9:30 p	76.6	76.9	76.3	88	72.8	2.0	SSW	1.00	9.0	76.6	80.3	80.3	29.630	0.00	0.000	0.242	81.1	81	74.7	87.0	30
07/22/01	10:00 p	76.3	76.5	76.1	89	72.8	2.0	SSW	1.00	9.0	76.3	79.9	79.9	29.633	0.00	0.000	0.235	80.9	81	74.5	86.6	30
07/22/01	10:30 p	76.1	76.3	75.9	90	73.0	2.0	S	1.00	9.0	76.1	79.6	79.6	29.640	0.00	0.000	0.231	80.8	82	74.8	86.6	30
07/22/01	11:00 p	75.9	76.1	75.8	89	72.4	3.0	S	1.50	8.0	75.9	79.3	79.3	29.651	0.00	0.000	0.227	80.6	81	74.2	85.9	30
07/22/01	11:30 p	75.8	76.1	75.6	88	72.0	3.0	SSW	1.50	11.0	75.8	79.2	79.2	29.646	0.00	0.000	0.225	80.4	82	74.4	85.8	30
07/23/01	12:00 a	75.7	75.9	75.4	90	72.6	4.0	S	2.00	13.0	75.7	79.2	79.2	29.653	0.00	0.000	0.223	80.1	82	74.1	85.1	30
07/23/01	12:30 a	75.4	75.6	75.1	90	72.3	3.0	SSW	1.50	9.0	75.4	78.8	78.8	29.653	0.00	0.000	0.217	79.9	82	73.9	84.8	30
07/23/01	1:00 a	75.0	75.4	74.7	88	71.2	4.0	SSW	2.00	13.0	75.0	78.2	78.2	29.645	0.00	0.000	0.208	79.8	82	73.8	84.6	30
07/23/01	1:30 a	74.6	74.9	74.3	89	71.1	2.0	SSW	1.00	10.0	74.6	77.5	77.5	29.645	0.00	0.000	0.200	79.5	82	73.5	84.1	30
07/23/01	2:00 a	74.3	74.6	74.0	91	71.5	1.0	SSW	0.50	8.0	74.3	77.1	77.1	29.637	0.00	0.000	0.194	79.2	82	73.2	83.5	30
07/23/01	2:30 a	74.1	74.3	73.9	91	71.3	3.0	SSW	1.50	10.0	74.1	76.7	76.7	29.649	0.00	0.000	0.190	79.0	82	73.0	83.2	30
07/23/01	3:00 a	73.9	74.3	73.4	94	72.1	5.0	SW	2.50	13.0	73.9	76.8	76.8	29.664	0.07	0.000	0.185	78.9	84	73.7	83.4	30
07/23/01	3:30 a	73.3	73.8	72.9	94	71.5	5.0	SW	2.50	13.0	73.3	76.1	76.1	29.661	0.03	0.000	0.173	78.7	84	73.5	83.1	30
07/23/01	4:00 a	72.8	73.2	72.4	94	71.0	4.0	SW	2.00	13.0	72.8	75.5	75.5	29.656	0.02	0.000	0.163	78.3	84	73.1	82.4	30
07/23/01	4:30 a	72.6	72.9	72.4	94	70.8	4.0	SW	2.00	10.0	72.6	75.3	75.3	29.662	0.02	0.000	0.158	78.0	84	72.8	82.0	30
07/23/01	5:00 a	72.6	72.8	72.3	95	71.1	3.0	SSW	1.50	9.0	72.6	75.4	75.4	29.660	0.02	0.000	0.158	77.9	85	73.0	81.9	30
07/23/01	5:30 a	72.6	72.9	72.3	95	71.1	2.0	SW	1.00	8.0	72.6	75.4	75.4	29.667	0.01	0.000	0.158	77.8	85	72.9	81.8	30
07/23/01	6:00 a	72.7	73.0	72.4	96	71.5	3.0	SW	1.50	10.0	72.7	75.7	75.7	29.678	0.00	0.000	0.160	77.6	86	73.1	81.6	30
07/23/01	6:30 a	72.9	73.3	72.5	96	71.7	3.0	SW	1.50	12.0	72.9	75.9	75.9	29.690	0.00	0.000	0.165	77.5	86	73.0	81.5	30
07/23/01	7:00 a	73.3	73.8	73.0	96	72.1	2.0	SSW	1.00	9.0	73.3	76.3	76.3	29.702	0.00	0.000	0.173	77.6	87	73.4	81.7	30
07/23/01	7:30 a	73.9	74.2	73.5	95	72.4	3.0	SW	1.50	12.0	73.9	76.9	76.9	29.711	0.01	0.000	0.185	77.8	88	74.0	82.2	30
07/23/01	8:00 a	74.2	74.8	73.7	95	72.7	2.0	SSW	1.00	9.0	74.2	77.3	77.3	29.715	0.00	0.000	0.192	77.9	88	74.1	82.4	30
07/23/01	8:30 a	75.5	76.6	74.4	91	72.7	5.0	SSW	2.50	13.0	75.5	79.0	79.0	29.708	0.00	0.000	0.219	78.3	89	74.8	83.2	30
07/23/01	9:00 a	77.1	77.5	76.4	88	73.3	5.0	SSW	2.50	14.0	77.1	81.0	81.0	29.722	0.00	0.000	0.252	79.1	89	75.6	84.7	30
07/23/01	9:30 a	77.7	78.3	77.2	84	72.5	8.0	SSW	4.00	19.0	77.2	81.5	81.0	29.722	0.00	0.000	0.265	79.5	87	75.3	85.1	30
07/23/01	10:00 a	78.3	78.9	78.1	81	72.0	7.0	SW	3.50	18.0	78.3	82.0	82.0	29.718	0.00	0.000	0.277	80.1	86	75.5	86.1	30
07/23/01	10:30 a	79.6	80.9	78.8	76	71.4	9.0	SW	4.50	21.0	78.5	83.1	82.0	29.728	0.00	0.000	0.304	81.1	85	76.2	88.1	30
07/23/01	11:00 a	81.4	82.1	80.7	74	72.3	8.0	SW	4.00	18.0	81.0	86.0	85.6	29.736	0.00	0.000	0.342	82.2	82	76.2	90.1	30
07/23/01	11:30 a	81.0	82.1	79.9	76	72.7	8.0	SSW	4.00	22.0	80.6	85.6	85.2	29.750	0.00	0.000	0.333	82.5	79	75.3	90.0	30
07/23/01	12:00 p	79.8	79.9	79.5	75	71.2	6.0	SSW	3.00	17.0	79.8	83.3	83.3	29.752	0.00	0.000	0.308	82.1	79	74.9	88.9	30
07/23/01	12:30 p	79.7	79.9	79.4	77	71.8	6.0	SW	3.00	16.0	79.7	83.5	83.5	29.756	0.00	0.000	0.306	82.0	79	74.8	88.6	30
07/23/01	1:00 p	79.3	79.6	78.7	83	73.7	6.0	SSW	3.00	18.0	79.3	83.9	83.9	29.760	0.00	0.000	0.298	81.9	78	74.4	88.1	30
07/23/01	1:30 p	79.3	79.7	78.9	83	73.7	6.0	SW	3.00	20.0	79.3	83.9	83.9	29.761	0.00	0.000	0.298	81.8	81	75.4	88.7	30
07/23/01	2:00 p	78.4	79.2	77.8	85	73.5	5.0	SW	2.50	14.0	78.4	82.7	82.7	29.759	0.01	0.000	0.279	81.5	82	75.5	88.3	30
07/23/01	2:30 p	77.7	78.0	77.4	83	72.1	4.0	SW	2.00	13.0	77.7	81.4	81.4	29.770	0.00	0.000	0.265	81.1	80	74.3	86.7	30
07/23/01	3:00 p	77.4	77.8	77.1	84	72.2	5.0	SSW	2.50	12.0	77.4	81.1	81.1	29.763	0.00	0.000	0.258	80.8	82	74.8	86.6	30
07/23/01	3:30 p	78.0	78.4	77.6	82	72.1	4.0	S	2.00	14.0	78.0	81.7	81.7	29.770	0.00	0.000	0.271	80.9	82	74.9	86.8	30
07/23/01	4:00 p	77.9	78.4	77.3	83	72.3	6.0	S	3.00	16.0	77.9	81.7	81.7	29.783	0.00	0.000	0.269	80.9	80	74.1	86.3	30
07/23/01	4:30 p	76.8	77.5	76.1	89	73.3	5.0	S	2.50	15.0	76.8	80.6	80.6	29.785	0.01	0.000	0.246	80.5	82	74.5	86.0	30
07/23/01	5:00 p	75.7	76.5	75.2	90	72.6	5.0	S	2.50	16.0	75.7	79.2	79.2	29.781	0.00	0.000	0.223	80.1	83	74.5	85.4	30
07/23/01	5:30 p	75.3	75.5	75.1	89	71.8	4.0	S	2.00	14.0	75.3	78.7	78.7	29.762	0.00	0.000	0.215	79.8	83	74.2	84.8	30
07/23/01	6:00 p	75.4	75.6	75.2	87	71.3	5.0	S	2.50	15.0	75.4	78.6	78.6	29.752	0.00	0.000	0.217	79.7	83	74.1	84.6	30
07/23/01	6:30 p	74.8	75.4	74.3	87	70.7	4.0	S	2.00	13.0	74.8	77.8	77.8	29.773	0.00	0.000	0.204	79.3	82	73.3	83.7	30
07/23/01	7:00 p	74.0	74.4	73.6	90	70.9	4.0	SSE	2.00	15.0	74.0	76.4	76.4	29.774	0.00	0.000	0.188	78.8	82	72.8	82.9	30
07/23/01	7:30 p	73.6	73.9	73.4	91	70.8	2.0	S	1.00	9.0	73.6	76.1	76.1	29.767	0.00	0.000	0.179	78.5	83	72.9	82.6	30
07/23/01	8:00 p	73.5	73.7	73.2	92	71.0	0.0	SW	0.00	4.0	73.5	76.1	76.1	29.780	0.00	0.000	0.177	78.3	84	73.1	82.4	30
07/23/01	8:30 p	73.4	73.6	73.2	92	70.9	0.0	SW	0.00	5.0	73.4	76.0	76.0	29.790	0.00	0.000	0.175	78.0	84	72.8	82.0	30
07/23/01	9:00 p	73.4	73.6	73.2	93	71.3	0.0	SW	0.00	3.0	73.4	76.1	76.1	29.795	0.00	0.000	0.175	77.9	85	73.0	81.9	30
07/23/01	9:30 p	73.5	73.7	73.3	93	71.4	0.0	S	0.00	4.0	73.5	76.2	76.2	29.809	0.00	0.000	0.177	77.8	86	73.3	81.9	30
07/23/01	10:00 p	73.4	73.6	73.3	92	70.9	0.0	S	0.00	4.0	73.4	76.0	76.0	29.816	0.00	0.000	0.175	77.7	86	73.2	81.8	30
07/23/01	10:30 p	73.5	73.6	73.3	92	71.0	0.0	SSW	0.00	3.0	73.5	76.1	76.1	29.835	0.00	0.000	0.177	77.6	86	73.1	81.6	30
07/23/01	11:00 p	73.3	73.5	73.1	92	70.8	0.0	SSW	0.00	3.0	73.3	75.9	75.9	29.840	0.00	0.000	0.173	77.5	86	73.0	81.5	30
07/23/01	11:30 p	73.1	73.4	72.9	93	71.0	1.0	SW	0.50	7.0	73.1	75.8	75.8	29.859	0.02	0.000	0.169	77.4	86	72.9	81.3	30
07/24/01	12:00 a	73.1	73.4	72.9	94	71.3	0.0	SSE	0.00	4.0	73.1	75.9	75.9	29.849	0.00	0.000	0.169	77.3	86	72.8	81.1	30
07/24/01	12:30 a	73.0	73.3	72.8	94	71.2	2.0	S	1.00	7.0	73.0	75.7	75.7	29.856	0.00	0.000	0.167	77.3	86	72.8	81.1	30
07/24/01	1:00 a	72.9	73.2	72.6	93	70.8	1.0	S	0.50	6.0	72.9	75.6	75.6	29.836	0.00	0.000	0.165	77.2	86	72.7	81.0	30
07/24/01	1:30 a	72.7	73.0	72.4	92	70.2	1.0	S	0.50	6.0	72.7	75.3	75.3	29.826	0.00	0.000	0.160	77.2	85	72.3	80.9	30
07/24/01	2:00 a	72.5	72.7	72.3	91	69.7	2.0	S	1.00	9.0	72.5	74.9	74.9	29.815	0.00	0.000	0.156	77.0	85	72.1	80.6	30
07/24/01	2:30 a	72.3	72.6	72.0	91	69.5	2.0	SSW	1.00	8.0	72.3	74.7	74.7	29.796	0.00	0.000	0.152	76.8	84	71.6	80.2	30
07/24/01	3:00 a	72.1	72.3	71.9	91	69.3	2.0	S	1.00	8.0	72.1	74.4	74.4	29.800	0.00	0.000	0.148	76.7	84	71.5	80.1	30
07/24/01	3:30 a	71.9	72.2	71.7	91	69.1	1.0	S	0.50	6.0	71.9	74.2	74.2	29.794	0.00	0.000	0.144	76.5	84	71.3	79.8	30
07/24/01	4:00 a	71.6	71.9	71.3	91	68.8	0.0	SSE	0.00	4.0	71.6	73.9	73.9	29.797	0.00	0.000	0.137	76.3	84	71.1	79.5	30
07/24/01	4:30 a	71.4	71.6	71.1	91	68.6	0.0	S	0.00	3.0	71.4	73.7	73.7	29.797	0.00	0.000	0.133	76.1	84	70.9	79.3	30
07/24/01	5:00 a	71.1	71.4	70.8	91	68.3	0.0	S	0.00	4.0	71.1	73.4	73.4	29.804	0.00	0.000	0.127	75.9	83	70.4	79.0	30
07/24/01	5:30 a	71.0	71.2	70.7	92	68.6	0.0	S	0.00	3.0	71.0	73.4	73.4	29.811	0.00	0.000	0.125	75.6	84	70.4	78.6	30
07/24/01	6:00 a	70.5	70.9	70.3	93	68.4	0.0	S	0.00	2.0	70.5	72.9	72.9	29.829	0.00	0.000	0.115	75.4	83	69.9	78.3	30
07/24/01	6:30 a	70.7	71.0	70.3	94	68.9	1.0	S	0.50	4.0	70.7	73.2	73.2	29.834	0.00	0.000	0.119	75.3	84	70.1	78.3	30
07/24/01	7:00 a	71.8	73.0	70.8	93	69.7	2.0	SE	1.00	8.0	71.8	74.3	74.3	29.836	0.00	0.000	0.142	75.4	85	70.6	78.5	30
07/24/01	7:30 a	73.8	74.9	72.8	91	71.0	2.0	SE	1.00	8.0	73.8	76.3	76.3	29.841	0.00	0.000	0.183	75.9	86	71.4	79.1	30
07/24/01	8:00 a	75.7	76.8	74.6	90	72.6	2.0	ESE	1.00	9.0	75.7	79.2	79.2	29.839	0.00	0.000	0.223	76.6	90	73.4	80.4	30
07/24/01	8:30 a	77.7	78.8	76.7	85	72.8	3.0	SE	1.50	10.0	77.7	81.6	81.6	29.831	0.00	0.000	0.265	77.6	91	74.8	82.2	30
07/24/01	9:00 a	79.7	81.0	78.6	81	73.3	3.0	SSE	1.50	10.0	79.7	84.2	84.2	29.829	0.00	0.000	0.306	79.0	92	76.5	85.1	30
07/24/01	9:30 a	82.3	83.6	81.0	75	73.6	4.0	SSE	2.00	14.0	82.3	88.3	88.3	29.827	0.00	0.000	0.360	80.5	90	77.3	88.0	30
07/24/01	10:00 a	84.9	85.9	83.6	72	74.9	5.0	SE	2.50	15.0	84.9	93.4	93.4	29.824	0.00	0.000	0.415	82.3	89	78.7	92.6	30
07/24/01	10:30 a	85.8	86.7	85.3	67	73.6	5.0	SE	2.50	13.0	85.8	93.7	93.7	29.827	0.00	0.000	0.433	83.6	84	78.2	94.6	30
07/24/01	11:00 a	87.5	88.9	86.6	65	74.3	5.0	SE	2.50	17.0	87.5	96.2	96.2	29.832	0.00	0.000	0.469	84.6	81	78.1	96.0	30
07/24/01	11:30 a	89.5	89.9	88.9	64	75.7	6.0	SE	3.00	19.0	89.5	100.7	100.7	29.823	0.00	0.000	0.510	86.1	80	79.2	99.1	30
07/24/01	12:00 p	89.7	90.1	89.3	66	76.8	7.0	SE	3.50	22.0	89.7	102.4	102.4	29.824	0.00	0.000	0.515	87.4	79	80.1	102.5	30
07/24/01	12:30 p	89.4	89.7	89.2	68	77.4	8.0	SE	4.00	17.0	89.4	102.6	102.6	29.825	0.00	0.000	0.508	88.1	77	80.0	103.0	30
07/24/01	1:00 p	89.3	89.5	89.1	68	77.3	8.0	SE	4.00	24.0	89.3	102.2	102.2	29.820	0.00	0.000	0.506	88.6	76	80.1	104.5	30
07/24/01	1:30 p	89.4	89.7	89.1	68	77.4	8.0	SE	4.00	25.0	89.4	102.6	102.6	29.813	0.00	0.000	0.508	88.9	76	80.3	105.8	30
07/24/01	2:00 p	89.8	91.8	89.0	65	76.5	7.0	SE	3.50	20.0	89.8	102.2	102.2	29.803	0.00	0.000	0.517	89.2	76	80.6	107.0	30
07/24/01	2:30 p	90.8	91.8	90.2	67	78.3	7.0	SE	3.50	18.0	90.8	106.4	106.4	29.793	0.00	0.000	0.538	89.9	76	81.3	109.8	30
07/24/01	3:00 p	89.9	90.4	89.4	69	78.4	6.0	SE	3.00	19.0	89.9	104.9	104.9	29.787	0.00	0.000	0.519	90.0	75	81.0	109.4	30
07/24/01	3:30 p	89.2	89.6	88.9	68	77.3	6.0	SE	3.00	15.0	89.2	101.9	101.9	29.786	0.00	0.000	0.504	89.7	75	80.7	108.2	30
07/24/01	4:00 p	89.5	90.2	89.1	69	78.0	5.0	SE	2.50	13.0	89.5	103.5	103.5	29.777	0.00	0.000	0.510	89.7	75	80.7	108.2	30
07/24/01	4:30 p	90.4	90.9	89.9	66	77.5	5.0	SSE	2.50	14.0	90.4	104.6	104.6	29.772	0.00	0.000	0.529	90.5	73	80.7	109.8	30
07/24/01	5:00 p	90.9	91.4	90.3	68	78.9	5.0	SE	2.50	14.0	90.9	107.3	107.3	29.765	0.00	0.000	0.540	91.9	70	80.7	112.0	30
07/24/01	5:30 p	90.2	90.6	89.4	69	78.6	5.0	SE	2.50	13.0	90.2	105.8	105.8	29.763	0.00	0.000	0.525	92.3	70	81.1	113.3	30
07/24/01	6:00 p	88.5	89.4	87.8	72	78.3	5.0	ESE	2.50	16.0	88.5	101.8	101.8	29.759	0.00	0.000	0.490	91.0	72	80.7	110.8	30
07/24/01	6:30 p	87.0	87.9	86.4	74	77.7	3.0	SE	1.50	11.0	87.0	99.2	99.2	29.768	0.00	0.000	0.458	89.6	73	79.8	106.5	30
07/24/01	7:00 p	85.6	86.5	84.8	76	77.2	3.0	SE	1.50	10.0	85.6	96.4	96.4	29.774	0.00	0.000	0.429	88.4	74	79.1	102.5	30
07/24/01	7:30 p	84.1	84.9	83.4	78	76.5	2.0	SE	1.00	8.0	84.1	94.0	94.0	29.780	0.00	0.000	0.398	87.3	75	78.4	100.1	30
07/24/01	8:00 p	82.8	83.5	82.2	81	76.4	1.0	SSE	0.50	4.0	82.8	91.4	91.4	29.794	0.00	0.000	0.371	86.3	76	77.8	98.2	30
07/24/01	8:30 p	81.9	82.4	81.4	82	75.9	0.0	SE	0.00	3.0	81.9	89.3	89.3	29.800	0.00	0.000	0.352	85.4	77	77.4	96.3	30
07/24/01	9:00 p	81.1	81.6	80.7	84	75.8	0.0	SE	0.00	3.0	81.1	87.8	87.8	29.807	0.00	0.000	0.335	84.8	79	77.6	95.7	30
07/24/01	9:30 p	80.5	80.9	80.1	85	75.6	0.0	SE	0.00	3.0	80.5	86.7	86.7	29.821	0.00	0.000	0.323	84.3	80	77.5	95.1	30
07/24/01	10:00 p	80.0	80.3	79.6	86	75.4	0.0	SE	0.00	2.0	80.0	85.8	85.8	29.832	0.00	0.000	0.313	83.8	81	77.3	94.3	30
07/24/01	10:30 p	79.5	79.8	79.2	88	75.6	0.0	SE	0.00	2.0	79.5	85.3	85.3	29.834	0.00	0.000	0.302	83.4	82	77.3	93.4	30
07/24/01	11:00 p	79.2	79.5	78.9	88	75.3	0.0	SE	0.00	2.0	79.2	84.7	84.7	29.836	0.00	0.000	0.296	83.1	82	77.0	92.5	30
07/24/01	11:30 p	78.9	79.2	78.7	89	75.4	0.0	SE	0.00	2.0	78.9	84.3	84.3	29.832	0.00	0.000	0.290	82.9	83	77.2	92.3	30
07/25/01	12:00 a	78.8	79.0	78.6	90	75.6	0.0	SE	0.00	3.0	78.8	84.3	84.3	29.829	0.00	0.000	0.288	82.6	84	77.3	91.7	30
07/25/01	12:30 a	78.7	78.9	78.4	90	75.5	0.0	SE	0.00	2.0	78.7	84.1	84.1	29.827	0.00	0.000	0.285	82.4	85	77.4	91.5	30
07/25/01	1:00 a	78.5	78.7	78.2	91	75.7	0.0	SE	0.00	2.0	78.5	83.9	83.9	29.823	0.00	0.000	0.281	82.2	85	77.2	90.9	30
07/25/01	1:30 a	78.2	78.5	77.9	91	75.4	0.0	---	0.00	0.0	78.2	83.3	83.3	29.818	0.00	0.000	0.275	82.0	84	76.7	90.1	30
07/25/01	2:00 a	77.8	78.2	77.5	91	75.0	0.0	---	0.00	0.0	77.8	82.6	82.6	29.807	0.00	0.000	0.267	81.7	83	76.0	89.0	30
07/25/01	2:30 a	77.3	77.8	77.0	92	74.8	0.0	---	0.00	0.0	77.3	81.8	81.8	29.798	0.00	0.000	0.256	81.4	82	75.4	88.0	30
07/25/01	3:00 a	76.9	77.3	76.6	92	74.4	0.0	---	0.00	0.0	76.9	81.1	81.1	29.800	0.00	0.000	0.248	81.0	82	75.0	87.0	30
07/25/01	3:30 a	76.7	77.0	76.4	92	74.2	0.0	---	0.00	0.0	76.7	80.7	80.7	29.797	0.00	0.000	0.244	80.7	82	74.7	86.4	30
07/25/01	4:00 a	76.4	76.7	76.0	93	74.2	0.0	---	0.00	0.0	76.4	80.4	80.4	29.800	0.00	0.000	0.238	80.5	83	74.9	86.2	30
07/25/01	4:30 a	76.0	76.3	75.7	93	73.8	0.0	---	0.00	0.0	76.0	79.8	79.8	29.811	0.00	0.000	0.229	80.2	82	74.2	85.4	30
07/25/01	5:00 a	75.8	76.1	75.5	93	73.6	0.0	---	0.00	0.0	75.8	79.6	79.6	29.816	0.00	0.000	0.225	80.0	82	74.0	84.9	30
07/25/01	5:30 a	75.5	75.8	75.3	93	73.3	0.0	---	0.00	0.0	75.5	79.2	79.2	29.817	0.00	0.000	0.219	79.8	82	73.8	84.6	30
07/25/01	6:00 a	75.5	76.0	75.2	95	74.0	0.0	ESE	0.00	5.0	75.5	79.3	79.3	29.812	0.00	0.000	0.219	79.6	82	73.6	84.2	30
07/25/01	6:30 a	75.9	76.3	75.6	90	72.8	1.0	SE	0.50	5.0	75.9	79.4	79.4	29.818	0.00	0.000	0.227	79.7	84	74.4	84.8	30
07/25/01	7:00 a	76.5	77.3	75.9	92	74.0	0.0	ESE	0.00	5.0	76.5	80.4	80.4	29.827	0.00	0.000	0.240	79.8	84	74.5	85.0	30
07/25/01	7:30 a	77.7	78.0	77.2	91	74.9	1.0	E	0.50	5.0	77.7	82.4	82.4	29.835	0.00	0.000	0.265	79.9	85	75.0	85.4	30
07/25/01	8:00 a	78.6	79.6	77.8	89	75.1	2.0	SE	1.00	9.0	78.6	83.8	83.8	29.836	0.00	0.000	0.283	80.6	87	76.4	87.4	30
07/25/01	8:30 a	80.7	81.9	79.5	83	75.1	4.0	SE	2.00	13.0	80.7	86.6	86.6	29.837	0.00	0.000	0.327	81.9	89	78.3	91.5	30
07/25/01	9:00 a	83.2	84.6	81.7	78	75.6	5.0	ESE	2.50	16.0	83.2	91.6	91.6	29.841	0.00	0.000	0.379	83.6	87	79.3	95.6	30
07/25/01	9:30 a	85.7	86.7	84.4	74	76.5	6.0	SE	3.00	18.0	85.7	95.9	95.9	29.832	0.00	0.000	0.431	85.4	85	80.4	99.5	30
07/25/01	10:00 a	87.6	88.4	86.6	71	77.0	6.0	SE	3.00	19.0	87.6	98.9	98.9	29.833	0.00	0.000	0.471	87.1	83	81.3	104.4	30
07/25/01	10:30 a	88.7	89.3	88.2	69	77.2	7.0	ESE	3.50	21.0	88.7	100.8	100.8	29.831	0.00	0.000	0.494	88.5	79	81.1	106.1	30
07/25/01	11:00 a	90.0	90.7	89.2	67	77.6	6.0	ESE	3.00	20.0	90.0	104.0	104.0	29.836	0.00	0.000	0.521	89.3	78	81.5	108.9	30
07/25/01	11:30 a	91.4	92.2	90.5	63	77.0	6.0	SE	3.00	16.0	91.4	105.4	105.4	29.829	0.00	0.000	0.550	90.2	76	81.6	111.0	30
07/25/01	12:00 p	92.6	93.3	92.1	62	77.7	7.0	SE	3.50	19.0	92.6	108.1	108.1	29.832	0.00	0.000	0.575	91.2	74	81.7	113.4	30
07/25/01	12:30 p	93.4	94.0	92.8	61	77.9	7.0	SE	3.50	23.0	93.4	109.7	109.7	29.820	0.00	0.000	0.592	91.9	72	81.6	114.1	30
07/25/01	1:00 p	94.5	94.9	93.8	60	78.5	6.0	ESE	3.00	20.0	94.5	112.3	112.3	29.810	0.00	0.000	0.615	92.7	72	82.3	117.3	30
07/25/01	1:30 p	95.2	95.5	94.5	60	79.1	7.0	ESE	3.50	19.0	95.2	114.5	114.5	29.799	0.00	0.000	0.629	93.4	70	82.1	117.2	30
07/25/01	2:00 p	95.4	96.0	94.8	58	78.3	7.0	ESE	3.50	18.0	95.4	113.5	113.5	29.790	0.00	0.000	0.633	93.9	70	82.6	119.0	30
07/25/01	2:30 p	95.8	96.4	95.3	57	78.1	6.0	SE	3.00	23.0	95.8	114.0	114.0	29.788	0.00	0.000	0.642	94.3	69	82.6	119.7	30
07/25/01	3:00 p	96.0	96.4	95.6	59	79.4	7.0	SE	3.50	19.0	96.0	116.3	116.3	29.783	0.00	0.000	0.646	94.6	68	82.4	119.9	30
07/25/01	3:30 p	95.6	95.9	95.2	59	79.0	7.0	ESE	3.50	23.0	95.6	115.0	115.0	29.774	0.00	0.000	0.637	94.9	66	81.8	119.0	30
07/25/01	4:00 p	95.4	95.7	95.2	58	78.3	7.0	SE	3.50	20.0	95.4	113.5	113.5	29.775	0.00	0.000	0.633	95.5	65	81.9	120.3	30
07/25/01	4:30 p	95.3	95.8	94.9	57	77.7	7.0	ESE	3.50	21.0	95.3	112.4	112.4	29.768	0.00	0.000	0.631	96.1	63	81.5	120.5	30
07/25/01	5:00 p	94.7	95.3	94.0	59	78.1	6.0	SE	3.00	18.0	94.7	112.1	112.1	29.772	0.00	0.000	0.619	96.6	61	80.9	120.2	30
07/25/01	5:30 p	92.7	94.1	91.6	64	78.7	7.0	SE	3.50	22.0	92.7	110.0	110.0	29.765	0.00	0.000	0.577	96.4	62	81.2	120.5	30
07/25/01	6:00 p	90.7	91.7	89.8	66	77.8	6.0	SE	3.00	19.0	90.7	105.4	105.4	29.770	0.00	0.000	0.535	94.7	64	80.6	116.5	30
07/25/01	6:30 p	89.0	89.9	87.9	70	77.9	4.0	ESE	2.00	15.0	89.0	102.3	102.3	29.786	0.00	0.000	0.500	92.6	67	80.0	112.0	30
07/25/01	7:00 p	87.2	88.0	86.5	73	77.5	2.0	ESE	1.00	10.0	87.2	99.1	99.1	29.803	0.00	0.000	0.462	90.7	69	79.1	107.4	30
07/25/01	7:30 p	86.1	86.7	85.5	74	76.8	1.0	SE	0.50	9.0	86.1	96.9	96.9	29.794	0.00	0.000	0.440	89.6	71	78.9	105.1	30
07/25/01	8:00 p	85.1	85.6	84.4	77	77.1	0.0	ESE	0.00	4.0	85.1	95.6	95.6	29.808	0.00	0.000	0.419	88.7	72	78.5	102.5	30
07/25/01	8:30 p	84.1	84.6	83.5	79	76.9	0.0	ESE	0.00	2.0	84.1	94.3	94.3	29.825	0.00	0.000	0.398	87.9	73	78.2	100.3	30
07/25/01	9:00 p	83.1	83.6	82.4	81	76.7	0.0	---	0.00	0.0	83.1	92.3	92.3	29.830	0.00	0.000	0.377	87.2	74	77.9	99.5	30
07/25/01	9:30 p	82.2	82.6	81.7	83	76.5	0.0	---	0.00	0.0	82.2	90.3	90.3	29.841	0.00	0.000	0.358	86.6	75	77.7	98.6	30
07/25/01	10:00 p	81.6	82.0	81.4	84	76.3	0.0	---	0.00	0.0	81.6	89.1	89.1	29.841	0.00	0.000	0.346	86.1	76	77.6	97.6	30
07/25/01	10:30 p	81.3	81.6	81.0	85	76.4	0.0	---	0.00	1.0	81.3	88.6	88.6	29.836	0.00	0.000	0.340	85.7	77	77.7	97.0	30
07/25/01	11:00 p	80.8	81.2	80.5	86	76.2	0.0	---	0.00	0.0	80.8	87.6	87.6	29.836	0.00	0.000	0.329	85.3	78	77.7	96.4	30
07/25/01	11:30 p	80.5	80.7	80.1	86	75.9	0.0	---	0.00	0.0	80.5	87.0	87.0	29.836	0.00	0.000	0.323	84.9	79	77.7	95.9	30
07/26/01	12:00 a	80.1	80.4	79.8	88	76.2	0.0	---	0.00	0.0	80.1	86.6	86.6	29.839	0.00	0.000	0.315	84.6	80	77.7	95.6	30
07/26/01	12:30 a	79.8	80.1	79.6	88	75.9	0.0	---	0.00	0.0	79.8	85.9	85.9	29.832	0.00	0.000	0.308	84.3	81	77.8	95.4	30
07/26/01	1:00 a	79.6	79.9	79.4	89	76.1	0.0	---	0.00	0.0	79.6	85.7	85.7	29.818	0.00	0.000	0.304	84.0	81	77.5	94.8	30
07/26/01	1:30 a	79.5	79.8	79.2	89	76.0	0.0	ESE	0.00	1.0	79.5	85.5	85.5	29.811	0.00	0.000	0.302	83.7	82	77.6	94.3	30
07/26/01	2:00 a	79.3	79.6	79.2	90	76.1	0.0	ESE	0.00	3.0	79.3	85.3	85.3	29.815	0.00	0.000	0.298	83.5	82	77.4	93.7	30
07/26/01	2:30 a	79.4	79.6	79.2	90	76.2	0.0	ESE	0.00	2.0	79.4	85.5	85.5	29.808	0.00	0.000	0.300	83.3	84	78.0	93.7	30
07/26/01	3:00 a	79.3	79.5	79.1	90	76.1	0.0	ESE	0.00	4.0	79.3	85.3	85.3	29.817	0.00	0.000	0.298	83.2	84	77.9	93.4	30
07/26/01	3:30 a	79.3	79.5	79.1	91	76.4	1.0	ESE	0.50	4.0	79.3	85.6	85.6	29.808	0.00	0.000	0.298	83.0	85	78.0	93.1	30
07/26/01	4:00 a	79.4	79.5	79.1	90	76.2	0.0	ESE	0.00	3.0	79.4	85.5	85.5	29.800	0.00	0.000	0.300	83.0	86	78.4	93.4	30
07/26/01	4:30 a	79.2	79.5	79.0	90	76.0	0.0	ESE	0.00	2.0	79.2	85.1	85.1	29.811	0.00	0.000	0.296	82.8	86	78.2	92.9	30
07/26/01	5:00 a	79.1	79.4	78.8	90	75.9	0.0	ESE	0.00	3.0	79.1	84.9	84.9	29.795	0.00	0.000	0.294	82.7	86	78.1	92.6	30
07/26/01	5:30 a	78.9	79.2	78.6	91	76.0	0.0	ESE	0.00	1.0	78.9	84.7	84.7	29.803	0.00	0.000	0.290	82.5	86	77.9	92.1	30
07/26/01	6:00 a	78.6	78.9	78.3	89	75.1	1.0	ESE	0.50	6.0	78.6	83.8	83.8	29.805	0.00	0.000	0.283	82.3	85	77.3	91.2	30
07/26/01	6:30 a	78.4	78.7	78.2	87	74.2	2.0	SSE	1.00	8.0	78.4	83.1	83.1	29.819	0.00	0.000	0.279	82.1	84	76.8	90.4	30
07/26/01	7:00 a	78.8	79.1	78.5	86	74.3	2.0	SE	1.00	7.0	78.8	83.6	83.6	29.823	0.00	0.000	0.288	82.0	84	76.7	90.1	30
07/26/01	7:30 a	79.3	79.8	78.9	84	74.0	2.0	SE	1.00	6.0	79.3	84.1	84.1	29.834	0.00	0.000	0.298	82.0	84	76.7	90.1	30
07/26/01	8:00 a	80.3	81.1	79.6	84	75.0	2.0	SE	1.00	10.0	80.3	86.0	86.0	29.836	0.00	0.000	0.319	82.4	84	77.1	91.2	30
07/26/01	8:30 a	82.5	84.1	80.9	80	75.7	4.0	ESE	2.00	14.0	82.5	90.3	90.3	29.830	0.00	0.000	0.365	83.6	87	79.3	95.6	30
07/26/01	9:00 a	85.4	86.3	83.9	76	77.0	5.0	SE	2.50	14.0	85.4	95.9	95.9	29.830	0.00	0.000	0.425	85.2	86	80.5	99.5	30
07/26/01	9:30 a	86.9	88.0	86.2	73	77.2	6.0	SE	3.00	19.0	86.9	98.5	98.5	29.839	0.00	0.000	0.456	86.7	84	81.3	103.5	30
07/26/01	10:00 a	88.4	88.8	87.9	69	76.9	6.0	SE	3.00	17.0	88.4	99.8	99.8	29.843	0.00	0.000	0.488	87.8	81	81.2	104.7	30
07/26/01	10:30 a	89.0	89.6	88.4	67	76.6	6.0	SE	3.00	15.0	89.0	100.7	100.7	29.848	0.00	0.000	0.500	88.5	78	80.8	105.5	30
07/26/01	11:00 a	90.3	91.0	89.6	66	77.4	6.0	SE	3.00	16.0	90.3	104.3	104.3	29.841	0.00	0.000	0.527	89.5	77	81.3	109.0	30
07/26/01	11:30 a	91.3	92.0	90.8	64	77.4	7.0	SE	3.50	21.0	91.3	105.8	105.8	29.839	0.00	0.000	0.548	90.0	75	81.0	109.4	30
07/26/01	12:00 p	92.4	92.7	91.9	63	78.0	6.0	SE	3.00	16.0	92.4	108.3	108.3	29.837	0.00	0.000	0.571	91.1	73	81.2	112.0	30
07/26/01	12:30 p	93.6	94.3	92.5	61	78.1	7.0	ESE	3.50	21.0	93.6	110.3	110.3	29.824	0.00	0.000	0.596	91.9	72	81.6	114.1	30
07/26/01	1:00 p	94.4	95.1	93.8	59	77.9	7.0	ESE	3.50	20.0	94.4	111.2	111.2	29.815	0.00	0.000	0.613	93.1	70	81.9	116.1	30
07/26/01	1:30 p	94.9	95.4	94.4	58	77.8	6.0	SE	3.00	16.0	94.9	112.0	112.0	29.804	0.00	0.000	0.623	93.7	67	81.1	115.7	30
07/26/01	2:00 p	96.3	97.1	94.9	53	76.4	6.0	SE	3.00	17.0	96.3	111.8	111.8	29.806	0.00	0.000	0.652	94.0	68	81.8	117.6	30
07/26/01	2:30 p	95.8	96.7	95.4	58	78.6	6.0	SE	3.00	21.0	95.8	114.8	114.8	29.796	0.00	0.000	0.642	94.5	67	81.8	118.6	30
07/26/01	3:00 p	96.5	96.9	95.7	56	78.2	7.0	ESE	3.50	18.0	96.5	115.3	115.3	29.789	0.00	0.000	0.656	94.8	66	81.7	118.7	30
07/26/01	3:30 p	96.1	96.8	95.3	56	77.9	7.0	SE	3.50	19.0	96.1	114.1	114.1	29.777	0.00	0.000	0.648	95.1	65	81.5	118.8	30
07/26/01	4:00 p	95.8	96.3	95.4	57	78.1	5.0	SE	2.50	15.0	95.8	114.0	114.0	29.779	0.00	0.000	0.642	94.9	65	81.3	118.1	30
07/26/01	4:30 p	96.3	96.6	96.1	57	78.6	6.0	SE	3.00	18.0	96.3	115.6	115.6	29.777	0.00	0.000	0.652	95.2	65	81.6	119.1	30
07/26/01	5:00 p	95.2	96.0	94.7	58	78.1	6.0	ESE	3.00	18.0	95.2	112.9	112.9	29.776	0.00	0.000	0.629	95.7	64	81.6	120.0	30
07/26/01	5:30 p	94.1	94.8	93.1	61	78.6	5.0	SE	2.50	19.0	94.1	111.9	111.9	29.777	0.00	0.000	0.606	95.9	63	81.3	119.7	30
07/26/01	6:00 p	91.5	93.1	89.8	66	78.5	5.0	ESE	2.50	13.0	91.5	107.8	107.8	29.786	0.00	0.000	0.552	94.3	64	80.2	115.1	30
07/26/01	6:30 p	88.9	89.9	88.0	70	77.8	3.0	SE	1.50	10.0	88.9	102.0	102.0	29.796	0.00	0.000	0.498	92.5	67	79.9	111.7	30
07/26/01	7:00 p	87.5	88.2	86.8	73	77.8	1.0	SE	0.50	9.0	87.5	99.6	99.6	29.801	0.00	0.000	0.469	91.1	69	79.5	108.6	30
07/26/01	7:30 p	86.3	87.0	85.6	74	77.0	0.0	SE	0.00	3.0	86.3	97.4	97.4	29.810	0.00	0.000	0.444	90.1	69	78.6	105.5	30
07/26/01	8:00 p	85.1	85.7	84.5	77	77.1	0.0	SE	0.00	2.0	85.1	95.6	95.6	29.821	0.00	0.000	0.419	89.2	71	78.6	103.7	30
07/26/01	8:30 p	84.1	84.7	83.7	79	76.9	0.0	SE	0.00	3.0	84.1	94.3	94.3	29.832	0.00	0.000	0.398	88.5	72	78.3	101.8	30
07/26/01	9:00 p	83.5	83.9	83.1	81	77.1	1.0	SE	0.50	4.0	83.5	93.4	93.4	29.835	0.00	0.000	0.385	87.9	74	78.6	100.7	30
07/26/01	9:30 p	83.0	83.2	82.7	82	76.9	0.0	SE	0.00	3.0	83.0	92.3	92.3	29.846	0.00	0.000	0.375	87.4	75	78.5	100.3	30
07/26/01	10:00 p	82.6	82.9	82.3	84	77.3	0.0	SE	0.00	4.0	82.6	91.7	91.7	29.850	0.00	0.000	0.367	87.0	76	78.5	100.1	30
07/26/01	10:30 p	82.2	82.5	81.8	85	77.2	0.0	SE	0.00	4.0	82.2	90.9	90.9	29.853	0.00	0.000	0.358	86.6	77	78.5	99.4	30
07/26/01	11:00 p	81.7	82.0	81.5	85	76.7	1.0	SE	0.50	5.0	81.7	89.6	89.6	29.859	0.00	0.000	0.348	86.2	78	78.5	98.7	30
07/26/01	11:30 p	81.5	81.7	81.2	87	77.3	1.0	SE	0.50	5.0	81.5	89.7	89.7	29.863	0.00	0.000	0.344	85.8	78	78.1	97.6	30
07/27/01	12:00 a	81.3	81.5	81.0	87	77.1	1.0	ESE	0.50	6.0	81.3	89.2	89.2	29.867	0.00	0.000	0.340	85.5	80	78.6	97.6	30
07/27/01	12:30 a	81.2	81.4	81.0	88	77.3	1.0	ESE	0.50	6.0	81.2	89.2	89.2	29.852	0.00	0.000	0.337	85.3	81	78.8	97.5	30
07/27/01	1:00 a	81.0	81.3	80.8	88	77.1	1.0	ESE	0.50	5.0	81.0	88.6	88.6	29.844	0.00	0.000	0.333	85.1	81	78.6	97.0	30
07/27/01	1:30 a	80.8	81.0	80.5	88	76.9	0.0	ESE	0.00	3.0	80.8	88.2	88.2	29.830	0.00	0.000	0.329	84.8	82	78.7	96.8	30
07/27/01	2:00 a	80.2	80.7	79.8	88	76.3	0.0	---	0.00	0.0	80.2	86.8	86.8	29.825	0.00	0.000	0.317	84.5	82	78.4	96.2	30
07/27/01	2:30 a	79.4	80.0	79.1	89	75.9	0.0	ESE	0.00	3.0	79.4	85.3	85.3	29.831	0.00	0.000	0.300	84.0	82	77.9	95.1	30
07/27/01	3:00 a	79.2	79.4	79.0	89	75.7	1.0	ESE	0.50	5.0	79.2	84.9	84.9	29.828	0.00	0.000	0.296	83.7	82	77.6	94.3	30
07/27/01	3:30 a	79.3	79.4	79.0	89	75.8	0.0	ESE	0.00	3.0	79.3	85.1	85.1	29.828	0.00	0.000	0.298	83.5	83	77.8	94.0	30
07/27/01	4:00 a	79.1	79.4	78.9	90	75.9	0.0	ESE	0.00	2.0	79.1	84.9	84.9	29.830	0.00	0.000	0.294	83.3	83	77.6	93.4	30
07/27/01	4:30 a	79.0	79.3	78.7	90	75.8	0.0	---	0.00	0.0	79.0	84.7	84.7	29.832	0.00	0.000	0.292	83.0	84	77.7	92.8	30
07/27/01	5:00 a	78.7	79.0	78.4	90	75.5	0.0	---	0.00	0.0	78.7	84.1	84.1	29.841	0.00	0.000	0.285	82.9	84	77.6	92.5	30
07/27/01	5:30 a	78.4	78.7	78.1	90	75.2	0.0	---	0.00	0.0	78.4	83.6	83.6	29.850	0.00	0.000	0.279	82.6	84	77.3	91.7	30
07/27/01	6:00 a	78.1	78.5	77.7	90	74.9	0.0	---	0.00	0.0	78.1	83.0	83.0	29.864	0.00	0.000	0.273	82.3	84	77.0	90.9	30
07/27/01	6:30 a	77.8	78.1	77.5	91	75.0	0.0	---	0.00	0.0	77.8	82.6	82.6	29.866	0.00	0.000	0.267	82.0	84	76.7	90.1	30
07/27/01	7:00 a	78.3	78.8	77.8	91	75.5	0.0	ESE	0.00	2.0	78.3	83.5	83.5	29.870	0.00	0.000	0.277	82.0	86	77.4	90.7	30
07/27/01	7:30 a	79.1	79.7	78.6	90	75.9	0.0	ESE	0.00	5.0	79.1	84.9	84.9	29.869	0.00	0.000	0.294	82.2	86	77.6	91.3	30
07/27/01	8:00 a	80.5	81.5	79.5	85	75.6	1.0	ESE	0.50	8.0	80.5	86.7	86.7	29.874	0.00	0.000	0.323	82.7	87	78.4	93.0	30
07/27/01	8:30 a	82.6	83.8	81.4	81	76.2	3.0	SSE	1.50	10.0	82.6	90.9	90.9	29.885	0.00	0.000	0.367	83.6	87	79.3	95.6	30
07/27/01	9:00 a	84.1	84.6	83.6	79	76.9	3.0	SE	1.50	11.0	84.1	94.3	94.3	29.887	0.00	0.000	0.398	84.7	86	80.0	98.2	30
07/27/01	9:30 a	85.5	86.5	84.4	75	76.7	3.0	ESE	1.50	11.0	85.5	95.8	95.8	29.899	0.00	0.000	0.427	85.6	85	80.6	100.1	30
07/27/01	10:00 a	87.4	88.5	86.4	70	76.4	5.0	SE	2.50	13.0	87.4	98.1	98.1	29.898	0.00	0.000	0.467	86.8	83	81.0	103.3	30
07/27/01	10:30 a	89.4	90.0	88.5	68	77.4	6.0	SE	3.00	19.0	89.4	102.6	102.6	29.898	0.00	0.000	0.508	88.2	80	81.2	105.4	30
07/27/01	11:00 a	90.9	91.6	89.8	66	78.0	5.0	SE	2.50	20.0	90.9	106.0	106.0	29.894	0.00	0.000	0.540	89.4	78	81.6	109.3	30
07/27/01	11:30 a	92.4	93.4	91.4	60	76.5	6.0	ESE	3.00	19.0	92.4	106.0	106.0	29.885	0.00	0.000	0.571	90.5	75	81.5	111.4	30
07/27/01	12:00 p	93.7	94.2	93.3	62	78.7	7.0	SE	3.50	20.0	93.7	111.5	111.5	29.875	0.00	0.000	0.598	91.8	74	82.3	115.9	30
07/27/01	12:30 p	94.3	95.0	94.0	59	77.8	8.0	ESE	4.00	19.0	94.3	110.9	110.9	29.873	0.00	0.000	0.610	92.8	72	82.4	117.7	30
07/27/01	1:00 p	95.4	96.0	95.0	58	78.3	8.0	ESE	4.00	20.0	95.4	113.5	113.5	29.872	0.00	0.000	0.633	93.6	70	82.3	117.9	30
07/27/01	1:30 p	93.6	96.4	90.0	63	79.1	6.0	S	3.00	16.0	93.6	112.0	112.0	29.908	0.00	0.000	0.596	93.7	67	81.1	115.7	30
07/27/01	2:00 p	88.1	89.9	86.9	58	71.5	3.0	NW	1.50	13.0	88.1	94.4	94.4	29.889	0.00	0.000	0.481	92.0	65	78.5	108.6	30
07/27/01	2:30 p	89.8	92.0	88.6	55	71.5	3.0	NW	1.50	10.0	89.8	97.0	97.0	29.870	0.00	0.000	0.517	91.9	63	77.5	106.8	30
07/27/01	3:00 p	93.1	95.3	92.0	52	72.9	1.0	SSW	0.50	5.0	93.1	102.8	102.8	29.846	0.00	0.000	0.585	93.2	63	78.7	110.7	30
07/27/01	3:30 p	95.2	96.0	94.2	53	75.4	2.0	ESE	1.00	8.0	95.2	108.8	108.8	29.838	0.00	0.000	0.629	94.5	62	79.5	114.0	30
07/27/01	4:00 p	94.7	95.6	93.4	56	76.6	2.0	NE	1.00	10.0	94.7	109.9	109.9	29.839	0.00	0.000	0.619	95.3	60	79.2	114.8	30
07/27/01	4:30 p	93.8	95.0	92.9	54	74.6	2.0	SE	1.00	11.0	93.8	105.9	105.9	29.830	0.00	0.000	0.600	95.4	60	79.3	115.1	30
07/27/01	5:00 p	94.4	95.0	93.8	56	76.3	4.0	ESE	2.00	13.0	94.4	109.0	109.0	29.824	0.00	0.000	0.613	96.0	59	79.4	116.3	30
07/27/01	5:30 p	92.7	94.5	91.3	62	77.8	5.0	ESE	2.50	15.0	92.7	108.4	108.4	29.820	0.00	0.000	0.577	95.6	60	79.5	115.8	30
07/27/01	6:00 p	90.4	91.4	89.5	65	77.0	4.0	ESE	2.00	14.0	90.4	103.9	103.9	29.816	0.00	0.000	0.529	94.2	62	79.2	113.0	30
07/27/01	6:30 p	89.0	89.8	88.4	67	76.6	4.0	ESE	2.00	13.0	89.0	100.7	100.7	29.830	0.00	0.000	0.500	93.1	63	78.6	110.4	30
07/27/01	7:00 p	88.0	88.8	86.9	70	77.0	1.0	ESE	0.50	6.0	88.0	99.0	99.0	29.842	0.00	0.000	0.479	91.9	65	78.4	108.3	30
07/27/01	7:30 p	86.2	87.0	85.3	73	76.5	1.0	ESE	0.50	7.0	86.2	96.8	96.8	29.855	0.00	0.000	0.442	90.7	67	78.2	106.1	30
07/27/01	8:00 p	84.8	85.5	84.1	76	76.4	0.0	ESE	0.00	1.0	84.8	94.6	94.6	29.866	0.00	0.000	0.413	89.7	68	77.7	103.6	30
07/27/01	8:30 p	83.7	84.3	83.1	78	76.1	0.0	ESE	0.00	2.0	83.7	93.0	93.0	29.874	0.00	0.000	0.390	88.8	70	77.7	101.6	30
07/27/01	9:00 p	82.8	83.3	82.2	79	75.6	0.0	ESE	0.00	4.0	82.8	90.8	90.8	29.882	0.00	0.000	0.371	88.1	70	77.1	99.3	30
07/27/01	9:30 p	82.0	82.4	81.7	81	75.6	0.0	ESE	0.00	2.0	82.0	89.2	89.2	29.882	0.00	0.000	0.354	87.4	71	76.8	98.5	30
07/27/01	10:00 p	81.5	81.8	81.3	81	75.1	0.0	ESE	0.00	2.0	81.5	88.0	88.0	29.896	0.00	0.000	0.344	87.0	72	76.9	98.3	30
07/27/01	10:30 p	81.2	81.5	80.8	82	75.2	0.0	ESE	0.00	2.0	81.2	87.5	87.5	29.901	0.00	0.000	0.337	86.5	73	76.8	97.5	30
07/27/01	11:00 p	80.6	81.0	80.2	82	74.6	0.0	ESE	0.00	1.0	80.6	86.2	86.2	29.900	0.00	0.000	0.325	85.9	73	76.2	96.1	30
07/27/01	11:30 p	80.0	80.5	79.5	83	74.4	0.0	---	0.00	0.0	80.0	85.2	85.2	29.905	0.00	0.000	0.313	85.3	74	76.1	95.0	30
07/28/01	12:00 a	79.4	79.8	79.0	84	74.1	0.0	---	0.00	0.0	79.4	84.3	84.3	29.907	0.00	0.000	0.300	84.8	75	76.0	94.2	30
07/28/01	12:30 a	78.9	79.3	78.6	85	74.0	0.0	---	0.00	0.0	78.9	83.5	83.5	29.903	0.00	0.000	0.290	84.4	75	75.6	93.5	30
07/28/01	1:00 a	78.4	78.8	78.0	85	73.5	0.0	---	0.00	0.0	78.4	82.7	82.7	29.892	0.00	0.000	0.279	83.9	76	75.5	92.8	30
07/28/01	1:30 a	78.0	78.2	77.6	86	73.5	0.0	---	0.00	0.0	78.0	82.2	82.2	29.890	0.00	0.000	0.271	83.5	76	75.1	91.7	30
07/28/01	2:00 a	77.6	77.9	77.4	87	73.4	0.0	---	0.00	0.0	77.6	81.7	81.7	29.886	0.00	0.000	0.262	83.2	76	74.8	90.9	30
07/28/01	2:30 a	77.3	77.6	77.1	88	73.5	0.0	---	0.00	0.0	77.3	81.3	81.3	29.883	0.00	0.000	0.256	83.0	75	74.3	90.1	30
07/28/01	3:00 a	77.2	77.5	77.0	88	73.4	0.0	---	0.00	0.0	77.2	81.2	81.2	29.887	0.00	0.000	0.254	82.7	75	74.0	89.3	30
07/28/01	3:30 a	77.0	77.3	76.8	89	73.5	0.0	---	0.00	0.0	77.0	80.9	80.9	29.886	0.00	0.000	0.250	82.5	76	74.2	89.1	30
07/28/01	4:00 a	76.8	77.0	76.5	89	73.3	0.0	---	0.00	0.0	76.8	80.6	80.6	29.887	0.00	0.000	0.246	82.2	76	73.9	88.3	30
07/28/01	4:30 a	76.5	76.8	76.3	90	73.3	0.0	---	0.00	0.0	76.5	80.3	80.3	29.888	0.00	0.000	0.240	82.0	75	73.3	87.5	30
07/28/01	5:00 a	76.3	76.6	76.0	89	72.8	0.0	---	0.00	0.0	76.3	79.9	79.9	29.894	0.00	0.000	0.235	81.7	75	73.0	86.9	30
07/28/01	5:30 a	76.0	76.3	75.7	90	72.9	0.0	---	0.00	0.0	76.0	79.5	79.5	29.906	0.00	0.000	0.229	81.4	75	72.7	86.2	30
07/28/01	6:00 a	75.9	76.1	75.7	91	73.1	0.0	---	0.00	0.0	75.9	79.5	79.5	29.908	0.00	0.000	0.227	81.2	75	72.5	85.8	30
07/28/01	6:30 a	76.1	76.6	75.8	91	73.3	0.0	---	0.00	0.0	76.1	79.8	79.8	29.911	0.00	0.000	0.231	81.0	76	72.7	85.6	30
07/28/01	7:00 a	76.8	77.4	76.3	93	74.6	0.0	---	0.00	0.0	76.8	81.0	81.0	29.917	0.00	0.000	0.246	81.0	79	73.9	86.3	30
07/28/01	7:30 a	78.5	79.8	77.2	89	75.0	0.0	ESE	0.00	2.0	78.5	83.6	83.6	29.922	0.00	0.000	0.281	81.6	83	75.9	88.8	30
07/28/01	8:00 a	80.5	81.1	79.7	85	75.6	0.0	NE	0.00	5.0	80.5	86.7	86.7	29.922	0.00	0.000	0.323	82.4	86	77.8	91.8	30
07/28/01	8:30 a	81.8	82.7	81.1	80	75.0	1.0	ENE	0.50	7.0	81.8	88.4	88.4	29.927	0.00	0.000	0.350	83.6	86	79.0	95.3	30
07/28/01	9:00 a	83.5	84.2	82.5	79	76.3	2.0	NE	1.00	9.0	83.5	92.8	92.8	29.920	0.00	0.000	0.385	85.1	84	79.7	98.3	30
07/28/01	9:30 a	85.0	86.0	84.2	76	76.6	2.0	NE	1.00	10.0	85.0	95.0	95.0	29.930	0.00	0.000	0.417	86.6	82	80.4	102.0	30
07/28/01	10:00 a	86.6	87.4	85.9	72	76.5	2.0	NE	1.00	9.0	86.6	97.4	97.4	29.930	0.00	0.000	0.450	88.1	79	80.8	104.3	30
07/28/01	10:30 a	88.0	89.2	87.3	69	76.5	3.0	ENE	1.50	11.0	88.0	98.6	98.6	29.935	0.00	0.000	0.479	89.4	77	81.2	108.6	30
07/28/01	11:00 a	89.6	90.9	88.6	66	76.7	3.0	E	1.50	11.0	89.6	102.1	102.1	29.931	0.00	0.000	0.512	90.7	76	82.1	113.1	30
07/28/01	11:30 a	90.3	90.8	89.6	66	77.4	3.0	NE	1.50	11.0	90.3	104.3	104.3	29.931	0.00	0.000	0.527	92.0	73	82.1	115.6	30
07/28/01	12:00 p	91.4	92.1	90.6	63	77.0	3.0	ESE	1.50	10.0	91.4	105.4	105.4	29.921	0.00	0.000	0.550	93.1	71	82.3	117.5	30
07/28/01	12:30 p	92.7	93.6	91.8	58	75.8	4.0	ESE	2.00	14.0	92.7	105.7	105.7	29.912	0.00	0.000	0.577	94.0	68	81.8	117.6	30
07/28/01	1:00 p	94.0	94.7	93.0	58	77.0	5.0	ESE	2.50	17.0	94.0	109.3	109.3	29.901	0.00	0.000	0.604	94.8	66	81.7	118.7	30
07/28/01	1:30 p	94.2	95.1	93.1	58	77.2	3.0	ENE	1.50	14.0	94.2	109.9	109.9	29.896	0.00	0.000	0.608	95.5	64	81.4	119.3	30
07/28/01	2:00 p	95.3	96.4	94.5	56	77.1	4.0	E	2.00	15.0	95.3	111.7	111.7	29.880	0.00	0.000	0.631	96.1	63	81.5	120.5	30
07/28/01	2:30 p	95.7	96.5	95.1	57	78.0	4.0	ENE	2.00	13.0	95.7	113.7	113.7	29.876	0.00	0.000	0.640	96.5	62	81.3	120.9	30
07/28/01	3:00 p	95.5	96.4	94.2	55	76.8	3.0	ENE	1.50	11.0	95.5	111.4	111.4	29.873	0.00	0.000	0.635	96.8	61	81.1	120.9	30
07/28/01	3:30 p	94.3	95.4	93.0	58	77.2	3.0	NE	1.50	10.0	94.3	110.2	110.2	29.862	0.00	0.000	0.610	96.9	61	81.2	121.3	30
07/28/01	4:00 p	93.7	94.5	93.1	59	77.2	4.0	ENE	2.00	12.0	93.7	109.1	109.1	29.855	0.00	0.000	0.598	96.7	59	80.0	118.7	30
07/28/01	4:30 p	93.8	94.5	93.3	57	76.3	4.0	ESE	2.00	13.0	93.8	108.0	108.0	29.846	0.00	0.000	0.600	96.7	60	80.5	119.5	30
07/28/01	5:00 p	94.4	95.1	93.5	56	76.3	5.0	ESE	2.50	15.0	94.4	109.0	109.0	29.837	0.00	0.000	0.613	97.1	57	79.3	118.2	30
07/28/01	5:30 p	93.1	93.8	92.0	53	73.4	4.0	ESE	2.00	14.0	93.1	103.5	103.5	29.842	0.00	0.000	0.585	96.8	55	78.0	115.4	30
07/28/01	6:00 p	90.9	92.1	90.1	57	73.6	4.0	ESE	2.00	17.0	90.9	100.5	100.5	29.841	0.00	0.000	0.540	95.4	55	76.7	111.2	30
07/28/01	6:30 p	89.7	90.2	89.1	60	74.0	4.0	E	2.00	14.0	89.7	99.0	99.0	29.844	0.00	0.000	0.515	93.9	57	76.4	108.3	30
07/28/01	7:00 p	87.8	89.1	86.5	65	74.6	2.0	E	1.00	11.0	87.8	96.6	96.6	29.853	0.00	0.000	0.475	92.6	58	75.7	105.4	30
07/28/01	7:30 p	85.5	86.6	84.6	69	74.2	2.0	E	1.00	9.0	85.5	93.7	93.7	29.852	0.00	0.000	0.427	91.2	61	75.9	103.5	30
07/28/01	8:00 p	84.0	84.6	83.5	70	73.2	1.0	ENE	0.50	6.0	84.0	90.9	90.9	29.857	0.00	0.000	0.396	90.0	61	74.7	100.4	30
07/28/01	8:30 p	83.1	83.6	82.7	71	72.7	1.0	ESE	0.50	6.0	83.1	89.0	89.0	29.868	0.00	0.000	0.377	89.0	62	74.3	98.2	30
07/28/01	9:00 p	82.4	82.9	82.1	72	72.5	0.0	ESE	0.00	2.0	82.4	87.7	87.7	29.882	0.00	0.000	0.363	88.3	63	74.1	96.8	30
07/28/01	9:30 p	81.8	82.2	81.5	72	71.9	0.0	ESE	0.00	2.0	81.8	86.4	86.4	29.889	0.00	0.000	0.350	87.6	64	73.9	95.9	30
07/28/01	10:00 p	81.3	81.6	80.9	72	71.4	0.0	ESE	0.00	2.0	81.3	85.4	85.4	29.890	0.00	0.000	0.340	87.0	64	73.3	95.2	30
07/28/01	10:30 p	80.7	81.1	80.4	76	72.4	0.0	ESE	0.00	4.0	80.7	85.1	85.1	29.897	0.00	0.000	0.327	86.3	65	73.1	94.1	30
07/28/01	11:00 p	80.4	80.6	80.2	80	73.7	0.0	ESE	0.00	3.0	80.4	85.3	85.3	29.898	0.00	0.000	0.321	85.9	68	74.1	94.3	30
07/28/01	11:30 p	80.2	80.4	79.8	82	74.2	0.0	ESE	0.00	2.0	80.2	85.4	85.4	29.892	0.00	0.000	0.317	85.5	70	74.6	94.1	30
07/29/01	12:00 a	79.9	80.1	79.6	82	73.9	0.0	ESE	0.00	2.0	79.9	84.8	84.8	29.888	0.00	0.000	0.310	85.2	71	74.7	93.7	30
07/29/01	12:30 a	79.6	79.9	79.3	82	73.6	0.0	ESE	0.00	2.0	79.6	84.2	84.2	29.882	0.00	0.000	0.304	84.8	72	74.8	93.2	30
07/29/01	1:00 a	78.9	79.5	78.2	84	73.7	0.0	---	0.00	0.0	78.9	83.4	83.4	29.875	0.00	0.000	0.290	84.4	73	74.8	92.8	30
07/29/01	1:30 a	77.9	78.5	77.3	85	73.0	0.0	---	0.00	0.0	77.9	81.9	81.9	29.869	0.00	0.000	0.269	83.9	73	74.3	91.7	30
07/29/01	2:00 a	77.2	77.6	76.8	85	72.3	0.0	---	0.00	0.0	77.2	80.9	80.9	29.860	0.00	0.000	0.254	83.4	74	74.2	90.8	30
07/29/01	2:30 a	76.7	77.0	76.3	85	71.8	0.0	---	0.00	0.0	76.7	80.2	80.2	29.862	0.00	0.000	0.244	83.0	73	73.4	89.4	30
07/29/01	3:00 a	76.3	76.6	76.0	86	71.8	0.0	---	0.00	0.0	76.3	79.7	79.7	29.857	0.00	0.000	0.235	82.6	73	73.1	88.5	30
07/29/01	3:30 a	76.0	76.4	75.8	87	71.8	0.0	---	0.00	0.0	76.0	79.3	79.3	29.855	0.00	0.000	0.229	82.4	72	72.5	87.7	30
07/29/01	4:00 a	75.9	76.1	75.6	88	72.1	0.0	---	0.00	0.0	75.9	79.3	79.3	29.851	0.00	0.000	0.227	82.1	72	72.2	87.0	30
07/29/01	4:30 a	75.6	75.9	75.3	88	71.8	0.0	---	0.00	0.0	75.6	78.9	78.9	29.852	0.00	0.000	0.221	81.8	72	71.9	86.4	30
07/29/01	5:00 a	75.4	75.7	75.1	88	71.6	0.0	---	0.00	0.0	75.4	78.7	78.7	29.863	0.00	0.000	0.217	81.4	72	71.5	85.6	30
07/29/01	5:30 a	75.3	75.5	75.1	89	71.8	0.0	---	0.00	0.0	75.3	78.7	78.7	29.867	0.00	0.000	0.215	81.3	72	71.4	85.4	30
07/29/01	6:00 a	75.2	75.5	75.0	89	71.7	0.0	---	0.00	0.0	75.2	78.5	78.5	29.871	0.00	0.000	0.212	81.1	72	71.2	85.0	30
07/29/01	6:30 a	75.3	75.9	75.0	90	72.2	0.0	---	0.00	0.0	75.3	78.7	78.7	29.876	0.00	0.000	0.215	80.8	73	71.3	84.6	30
07/29/01	7:00 a	76.1	76.6	75.5	92	73.6	1.0	NW	0.50	5.0	76.1	79.8	79.8	29.889	0.00	0.000	0.231	80.8	74	71.7	84.8	30
07/29/01	7:30 a	76.8	77.1	76.4	92	74.3	1.0	NW	0.50	4.0	76.8	80.9	80.9	29.903	0.00	0.000	0.246	81.0	75	72.3	85.4	30
07/29/01	8:00 a	77.8	79.0	77.0	91	75.0	1.0	NW	0.50	4.0	77.8	82.6	82.6	29.899	0.00	0.000	0.267	81.3	75	72.6	86.0	30
07/29/01	8:30 a	80.2	81.7	78.7	82	74.2	0.0	NE	0.00	4.0	80.2	85.4	85.4	29.889	0.00	0.000	0.317	82.3	79	75.1	89.4	30
07/29/01	9:00 a	83.2	84.4	81.5	79	76.0	1.0	NE	0.50	6.0	83.2	91.9	91.9	29.896	0.00	0.000	0.379	84.0	81	77.5	94.8	30
07/29/01	9:30 a	85.4	86.3	84.0	74	76.2	1.0	N	0.50	5.0	85.4	95.2	95.2	29.883	0.00	0.000	0.425	86.3	80	79.4	99.8	30
07/29/01	10:00 a	86.3	86.8	85.9	74	77.0	2.0	ENE	1.00	9.0	86.3	97.4	97.4	29.880	0.00	0.000	0.444	88.0	77	79.9	102.6	30
07/29/01	10:30 a	87.1	87.5	86.3	80	80.2	1.0	SSE	0.50	5.0	87.1	102.3	102.3	29.884	0.04	0.000	0.460	88.7	76	80.2	105.0	30
07/29/01	11:00 a	84.5	86.6	83.6	83	78.8	1.0	NE	0.50	7.0	84.5	96.5	96.5	29.878	0.06	0.000	0.406	87.9	77	79.8	102.4	30
07/29/01	11:30 a	85.6	87.0	84.0	77	77.6	1.0	ENE	0.50	8.0	85.6	96.8	96.8	29.874	0.01	0.000	0.429	88.1	78	80.4	103.7	30
07/29/01	12:00 p	86.5	87.8	85.4	73	76.8	2.0	NE	1.00	7.0	86.5	97.5	97.5	29.863	0.00	0.000	0.448	89.4	77	81.2	108.6	30
07/29/01	12:30 p	89.0	90.1	87.6	70	77.9	2.0	ENE	1.00	9.0	89.0	102.3	102.3	29.854	0.00	0.000	0.500	91.0	75	82.0	113.4	30
07/29/01	1:00 p	90.5	91.7	89.8	67	78.0	3.0	NE	1.50	15.0	90.5	105.5	105.5	29.838	0.00	0.000	0.531	92.6	73	82.7	118.2	30
07/29/01	1:30 p	91.5	91.9	91.1	66	78.5	3.0	NE	1.50	13.0	91.5	107.8	107.8	29.830	0.00	0.000	0.552	93.7	71	82.9	119.9	30
07/29/01	2:00 p	92.2	93.0	91.5	66	79.2	2.0	NE	1.00	9.0	92.2	110.0	110.0	29.819	0.00	0.000	0.567	94.5	69	82.7	120.4	30
07/29/01	2:30 p	92.9	93.5	92.4	63	78.4	4.0	ENE	2.00	11.0	92.9	109.8	109.8	29.813	0.00	0.000	0.581	94.9	67	82.2	120.0	30
07/29/01	3:00 p	92.9	93.6	92.5	61	77.5	3.0	NE	1.50	9.0	92.9	108.2	108.2	29.799	0.00	0.000	0.581	95.2	66	82.0	120.2	30
07/29/01	3:30 p	92.9	93.5	92.4	62	78.0	3.0	ENE	1.50	9.0	92.9	109.0	109.0	29.790	0.00	0.000	0.581	95.5	65	81.9	120.3	30
07/29/01	4:00 p	92.6	93.1	92.0	64	78.6	3.0	ENE	1.50	11.0	92.6	109.7	109.7	29.791	0.00	0.000	0.575	95.6	65	81.9	120.6	30
07/29/01	4:30 p	91.9	93.2	91.2	62	77.0	3.0	ESE	1.50	10.0	91.9	106.1	106.1	29.787	0.00	0.000	0.560	95.1	64	81.0	117.8	30
07/29/01	5:00 p	92.1	93.4	91.1	63	77.7	3.0	ESE	1.50	11.0	92.1	107.4	107.4	29.786	0.00	0.000	0.565	95.4	62	80.3	117.0	30
07/29/01	5:30 p	91.1	91.6	90.0	67	78.6	3.0	ESE	1.50	12.0	91.1	107.3	107.3	29.786	0.00	0.000	0.544	95.1	64	81.0	117.8	30
07/29/01	6:00 p	89.4	90.3	88.7	68	77.4	2.0	ESE	1.00	10.0	89.4	102.6	102.6	29.778	0.00	0.000	0.508	94.2	63	79.7	113.9	30
07/29/01	6:30 p	89.0	89.2	88.6	68	77.1	3.0	SE	1.50	11.0	89.0	101.2	101.2	29.786	0.00	0.000	0.500	93.2	65	79.7	112.3	30
07/29/01	7:00 p	88.1	89.0	87.1	73	78.3	2.0	SE	1.00	9.0	88.1	100.8	100.8	29.792	0.00	0.000	0.481	92.0	66	79.0	109.3	30
07/29/01	7:30 p	86.2	87.2	85.4	76	77.7	2.0	SE	1.00	8.0	86.2	97.9	97.9	29.792	0.00	0.000	0.442	90.9	68	78.9	107.3	30
07/29/01	8:00 p	84.9	85.4	84.5	77	76.9	1.0	SE	0.50	4.0	84.9	95.1	95.1	29.805	0.00	0.000	0.415	90.0	69	78.5	105.2	30
07/29/01	8:30 p	84.1	84.5	83.6	78	76.5	0.0	SSE	0.00	3.0	84.1	94.0	94.0	29.808	0.00	0.000	0.398	89.1	70	78.0	102.6	30
07/29/01	9:00 p	83.3	83.8	82.8	80	76.5	1.0	SSE	0.50	7.0	83.3	92.5	92.5	29.806	0.00	0.000	0.381	88.4	71	77.8	100.9	30
07/29/01	9:30 p	82.7	83.1	82.4	82	76.6	0.0	SSE	0.00	3.0	82.7	91.4	91.4	29.820	0.00	0.000	0.369	87.8	72	77.6	99.6	30
07/29/01	10:00 p	82.2	82.6	82.0	82	76.2	0.0	SSE	0.00	3.0	82.2	90.1	90.1	29.824	0.00	0.000	0.358	87.3	73	77.6	99.3	30
07/29/01	10:30 p	81.7	82.1	81.4	83	76.0	0.0	SSE	0.00	2.0	81.7	89.0	89.0	29.827	0.00	0.000	0.348	86.9	74	77.6	98.9	30
07/29/01	11:00 p	81.4	81.6	81.1	83	75.7	0.0	SSE	0.00	2.0	81.4	88.3	88.3	29.827	0.00	0.000	0.342	86.5	74	77.2	97.9	30
07/29/01	11:30 p	81.0	81.3	80.7	84	75.7	0.0	S	0.00	3.0	81.0	87.5	87.5	29.827	0.00	0.000	0.333	86.1	74	76.8	96.9	30
07/30/01	12:00 a	80.6	80.9	80.3	84	75.3	0.0	SSW	0.00	2.0	80.6	86.7	86.7	29.827	0.00	0.000	0.325	85.7	75	76.9	96.3	30
07/30/01	12:30 a	80.3	80.5	80.1	84	75.0	0.0	SSW	0.00	2.0	80.3	86.0	86.0	29.823	0.00	0.000	0.319	85.4	76	77.0	95.9	30
07/30/01	1:00 a	80.0	80.3	79.6	85	75.1	0.0	SSW	0.00	2.0	80.0	85.6	85.6	29.809	0.00	0.000	0.313	85.1	76	76.7	95.2	30
07/30/01	1:30 a	79.5	79.9	79.2	87	75.3	0.0	SSW	0.00	3.0	79.5	85.1	85.1	29.792	0.00	0.000	0.302	84.7	77	76.7	94.7	30
07/30/01	2:00 a	79.1	79.4	78.7	88	75.2	1.0	SSW	0.50	3.0	79.1	84.5	84.5	29.782	0.00	0.000	0.294	84.4	77	76.4	94.2	30
07/30/01	2:30 a	78.7	78.9	78.5	88	74.8	0.0	SSW	0.00	3.0	78.7	83.8	83.8	29.782	0.00	0.000	0.285	84.1	78	76.5	94.0	30
07/30/01	3:00 a	78.4	78.8	78.0	89	74.9	0.0	SSW	0.00	4.0	78.4	83.4	83.4	29.778	0.00	0.000	0.279	83.8	78	76.2	93.2	30
07/30/01	3:30 a	78.1	78.4	77.9	89	74.6	0.0	SSW	0.00	2.0	78.1	82.8	82.8	29.784	0.00	0.000	0.273	83.5	79	76.3	92.8	30
07/30/01	4:00 a	77.7	78.2	77.4	90	74.5	0.0	---	0.00	0.0	77.7	82.3	82.3	29.784	0.00	0.000	0.265	83.2	80	76.4	92.3	30
07/30/01	4:30 a	77.5	77.8	77.2	89	74.0	0.0	---	0.00	0.0	77.5	81.8	81.8	29.786	0.00	0.000	0.260	82.9	80	76.1	91.4	30
07/30/01	5:00 a	77.3	77.5	76.9	90	74.1	0.0	---	0.00	0.0	77.3	81.5	81.5	29.795	0.00	0.000	0.256	82.6	80	75.8	90.6	30
07/30/01	5:30 a	77.0	77.2	76.7	91	74.2	0.0	---	0.00	0.0	77.0	81.1	81.1	29.805	0.00	0.000	0.250	82.4	80	75.6	90.0	30
07/30/01	6:00 a	76.9	77.1	76.7	91	74.1	0.0	---	0.00	0.0	76.9	80.9	80.9	29.814	0.00	0.000	0.248	82.1	81	75.7	89.5	30
07/30/01	6:30 a	77.0	77.3	76.7	91	74.2	0.0	---	0.00	0.0	77.0	81.1	81.1	29.823	0.00	0.000	0.250	82.0	82	76.0	89.5	30
07/30/01	7:00 a	77.6	78.1	77.1	91	74.8	0.0	---	0.00	0.0	77.6	82.2	82.2	29.832	0.00	0.000	0.262	82.0	83	76.3	89.8	30
07/30/01	7:30 a	78.4	78.9	77.9	90	75.2	0.0	WNW	0.00	3.0	78.4	83.6	83.6	29.837	0.00	0.000	0.279	82.1	84	76.8	90.4	30
07/30/01	8:00 a	79.3	80.0	78.7	86	74.7	0.0	SSE	0.00	2.0	79.3	84.5	84.5	29.841	0.00	0.000	0.298	82.5	83	76.8	91.2	30
07/30/01	8:30 a	81.1	82.2	79.9	82	75.1	0.0	SW	0.00	3.0	81.1	87.3	87.3	29.846	0.00	0.000	0.335	83.6	84	78.2	94.6	30
07/30/01	9:00 a	83.5	84.8	82.1	77	75.5	0.0	NW	0.00	4.0	83.5	92.1	92.1	29.839	0.00	0.000	0.385	85.0	84	79.6	98.0	30
07/30/01	9:30 a	86.3	88.0	84.7	72	76.2	1.0	WSW	0.50	5.0	86.3	96.7	96.7	29.838	0.00	0.000	0.444	86.4	82	80.2	101.2	30
07/30/01	10:00 a	89.0	89.4	88.0	69	77.5	0.0	S	0.00	4.0	89.0	101.8	101.8	29.836	0.00	0.000	0.500	87.9	80	81.0	104.2	30
07/30/01	10:30 a	89.2	89.8	88.7	72	79.0	0.0	NW	0.00	6.0	89.2	104.3	104.3	29.831	0.00	0.000	0.504	88.9	78	81.1	107.3	30
07/30/01	11:00 a	89.6	90.3	89.1	70	78.5	2.0	ENE	1.00	8.0	89.6	104.4	104.4	29.830	0.00	0.000	0.512	89.8	77	81.6	110.2	30
07/30/01	11:30 a	91.0	91.7	89.8	64	77.1	2.0	ENE	1.00	10.0	91.0	104.9	104.9	29.822	0.00	0.000	0.542	90.8	75	81.8	112.6	30
07/30/01	12:00 p	92.3	93.1	91.7	60	76.4	3.0	ENE	1.50	10.0	92.3	105.7	105.7	29.813	0.00	0.000	0.569	92.1	72	81.8	114.9	30
07/30/01	12:30 p	93.2	93.6	92.9	60	77.2	3.0	NE	1.50	11.0	93.2	108.3	108.3	29.804	0.00	0.000	0.587	93.1	70	81.9	116.1	30
07/30/01	1:00 p	93.7	94.3	93.0	59	77.2	3.0	ENE	1.50	10.0	93.7	109.1	109.1	29.796	0.00	0.000	0.598	93.9	68	81.7	117.3	30
07/30/01	1:30 p	94.4	94.9	93.9	60	78.4	3.0	ENE	1.50	9.0	94.4	111.9	111.9	29.787	0.00	0.000	0.613	94.6	67	81.9	118.9	30
07/30/01	2:00 p	95.8	96.3	94.6	58	78.6	3.0	ESE	1.50	11.0	95.8	114.8	114.8	29.766	0.00	0.000	0.642	95.4	66	82.2	120.9	30
07/30/01	2:30 p	96.2	97.6	95.2	55	77.4	5.0	ESE	2.50	14.0	96.2	113.5	113.5	29.758	0.00	0.000	0.650	95.9	65	82.2	121.7	30
07/30/01	3:00 p	96.1	97.7	94.8	54	76.8	4.0	ESE	2.00	17.0	96.1	112.2	112.2	29.747	0.00	0.000	0.648	96.2	64	82.0	121.8	30
07/30/01	3:30 p	96.6	97.0	96.0	53	76.7	4.0	ESE	2.00	16.0	96.6	112.7	112.7	29.738	0.00	0.000	0.658	96.4	61	80.7	119.5	30
07/30/01	4:00 p	96.7	97.7	95.9	52	76.2	3.0	SE	1.50	12.0	96.7	111.9	111.9	29.732	0.00	0.000	0.660	96.9	60	80.7	120.3	30
07/30/01	4:30 p	97.3	97.9	96.6	54	77.9	3.0	ESE	1.50	11.0	97.3	115.8	115.8	29.711	0.00	0.000	0.673	97.3	59	80.6	120.8	30
07/30/01	5:00 p	96.9	97.2	96.4	55	78.1	3.0	ESE	1.50	12.0	96.9	115.7	115.7	29.715	0.00	0.000	0.665	97.8	59	81.0	122.6	30
07/30/01	5:30 p	96.0	96.6	95.0	56	77.8	4.0	ESE	2.00	12.0	96.0	113.7	113.7	29.714	0.00	0.000	0.646	97.6	58	80.3	120.9	30
07/30/01	6:00 p	93.6	95.1	92.4	60	77.6	3.0	ESE	1.50	12.0	93.6	109.5	109.5	29.711	0.00	0.000	0.596	96.5	59	79.8	118.0	30
07/30/01	6:30 p	91.8	92.5	90.9	61	76.4	3.0	ESE	1.50	10.0	91.8	105.1	105.1	29.715	0.00	0.000	0.558	95.2	59	78.6	113.7	30
07/30/01	7:00 p	90.2	91.0	89.2	63	75.9	2.0	ESE	1.00	7.0	90.2	102.1	102.1	29.722	0.00	0.000	0.525	94.0	60	78.0	110.7	30
07/30/01	7:30 p	88.2	89.3	87.3	65	74.9	1.0	SSE	0.50	5.0	88.2	97.4	97.4	29.740	0.00	0.000	0.483	92.6	61	77.2	107.4	30
07/30/01	8:00 p	86.6	87.4	85.7	67	74.3	1.0	SSE	0.50	4.0	86.6	95.5	95.5	29.745	0.00	0.000	0.450	91.3	62	76.5	104.4	30
07/30/01	8:30 p	85.2	85.8	84.8	70	74.3	1.0	SE	0.50	4.0	85.2	93.4	93.4	29.754	0.00	0.000	0.421	90.3	63	76.0	102.4	30
07/30/01	9:00 p	84.5	84.9	84.0	74	75.3	1.0	SSE	0.50	7.0	84.5	93.3	93.3	29.768	0.00	0.000	0.406	89.5	66	76.6	101.8	30
07/30/01	9:30 p	83.9	84.2	83.5	76	75.5	0.0	SSE	0.00	5.0	83.9	92.8	92.8	29.769	0.00	0.000	0.394	89.0	67	76.6	100.7	30
07/30/01	10:00 p	83.4	83.7	83.2	77	75.4	0.0	SSE	0.00	1.0	83.4	91.8	91.8	29.784	0.00	0.000	0.383	88.6	68	76.7	100.0	30
07/30/01	10:30 p	82.9	83.3	82.4	79	75.7	0.0	SSE	0.00	1.0	82.9	91.1	91.1	29.793	0.00	0.000	0.373	88.1	69	76.6	98.9	30
07/30/01	11:00 p	82.3	82.6	82.0	79	75.1	0.0	SSE	0.00	3.0	82.3	89.4	89.4	29.793	0.00	0.000	0.360	87.6	70	76.6	98.4	30
07/30/01	11:30 p	81.9	82.2	81.6	79	74.7	0.0	SSE	0.00	3.0	81.9	88.4	88.4	29.794	0.00	0.000	0.352	87.1	71	76.5	98.1	30
07/31/01	12:00 a	81.6	81.8	81.4	80	74.8	0.0	SSE	0.00	3.0	81.6	87.9	87.9	29.789	0.00	0.000	0.346	86.7	71	76.2	97.2	30
07/31/01	12:30 a	81.3	81.6	81.0	81	74.9	0.0	SSE	0.00	2.0	81.3	87.5	87.5	29.781	0.00	0.000	0.340	86.3	72	76.2	96.7	30
07/31/01	1:00 a	80.9	81.2	80.6	83	75.2	0.0	SSE	0.00	3.0	80.9	87.1	87.1	29.787	0.00	0.000	0.331	86.0	73	76.3	96.3	30
07/31/01	1:30 a	80.5	80.8	80.3	84	75.2	0.0	SSE	0.00	3.0	80.5	86.5	86.5	29.777	0.00	0.000	0.323	85.6	74	76.4	95.7	30
07/31/01	2:00 a	80.3	80.5	80.0	84	75.0	1.0	S	0.50	4.0	80.3	86.0	86.0	29.776	0.00	0.000	0.319	85.4	75	76.6	95.6	30
07/31/01	2:30 a	80.2	80.4	80.0	84	74.9	1.0	S	0.50	6.0	80.2	85.8	85.8	29.772	0.00	0.000	0.317	85.2	75	76.4	95.1	30
07/31/01	3:00 a	80.2	80.4	79.9	85	75.3	1.0	SSW	0.50	5.0	80.2	86.0	86.0	29.773	0.00	0.000	0.317	85.0	76	76.6	95.0	30
07/31/01	3:30 a	79.9	80.2	79.6	86	75.3	0.0	SW	0.00	5.0	79.9	85.6	85.6	29.771	0.00	0.000	0.310	84.8	77	76.8	94.9	30
07/31/01	4:00 a	79.6	79.9	79.2	87	75.4	1.0	SSW	0.50	4.0	79.6	85.3	85.3	29.768	0.00	0.000	0.304	84.5	77	76.5	94.4	30
07/31/01	4:30 a	79.2	79.4	79.0	88	75.3	0.0	SSW	0.00	3.0	79.2	84.7	84.7	29.791	0.00	0.000	0.296	84.2	78	76.6	94.2	30
07/31/01	5:00 a	79.0	79.3	78.7	88	75.1	0.0	SSW	0.00	2.0	79.0	84.3	84.3	29.791	0.00	0.000	0.292	84.0	79	76.8	94.1	30
07/31/01	5:30 a	78.8	79.0	78.5	89	75.3	0.0	SSW	0.00	1.0	78.8	84.1	84.1	29.805	0.00	0.000	0.288	83.7	80	76.9	93.7	30
07/31/01	6:00 a	78.6	78.8	78.3	89	75.1	0.0	---	0.00	0.0	78.6	83.8	83.8	29.805	0.00	0.000	0.283	83.5	80	76.7	93.1	30
07/31/01	6:30 a	78.3	78.7	78.1	90	75.1	0.0	SSW	0.00	2.0	78.3	83.4	83.4	29.816	0.00	0.000	0.277	83.3	81	76.9	92.8	30
07/31/01	7:00 a	78.5	79.0	78.2	90	75.3	0.0	SSW	0.00	1.0	78.5	83.8	83.8	29.829	0.00	0.000	0.281	83.3	82	77.2	93.1	30
07/31/01	7:30 a	79.4	79.9	78.8	89	75.9	0.0	SSW	0.00	1.0	79.4	85.3	85.3	29.836	0.00	0.000	0.300	83.4	82	77.3	93.4	30
07/31/01	8:00 a	80.3	80.9	79.7	88	76.4	0.0	---	0.00	0.0	80.3	87.0	87.0	29.850	0.00	0.000	0.319	83.7	83	78.0	94.6	30
07/31/01	8:30 a	81.4	82.0	80.7	86	76.8	0.0	---	0.00	0.0	81.4	89.1	89.1	29.864	0.00	0.000	0.342	84.1	83	78.4	95.7	30
07/31/01	9:00 a	82.3	82.9	81.8	84	77.0	0.0	---	0.00	0.0	82.3	90.9	90.9	29.863	0.00	0.000	0.360	84.6	84	79.2	97.1	30
07/31/01	9:30 a	83.5	84.3	82.7	80	76.7	0.0	---	0.00	0.0	83.5	93.1	93.1	29.868	0.00	0.000	0.385	85.2	82	79.1	97.7	30
07/31/01	10:00 a	84.8	85.2	84.1	78	77.2	0.0	NW	0.00	4.0	84.8	95.3	95.3	29.869	0.00	0.000	0.413	86.0	81	79.5	99.3	30
07/31/01	10:30 a	85.4	85.7	85.0	81	78.9	1.0	NNW	0.50	6.0	85.4	97.8	97.8	29.871	0.00	0.000	0.425	86.8	80	79.9	101.4	30
07/31/01	11:00 a	85.4	85.6	85.2	80	78.5	1.0	NE	0.50	6.0	85.4	97.4	97.4	29.866	0.00	0.000	0.425	87.5	80	80.6	103.3	30
07/31/01	11:30 a	85.7	86.2	85.3	78	78.0	2.0	N	1.00	8.0	85.7	97.4	97.4	29.865	0.00	0.000	0.431	88.0	79	80.7	103.8	30
07/31/01	12:00 p	85.5	86.1	84.8	81	79.0	2.0	NE	1.00	10.0	85.5	98.0	98.0	29.864	0.00	0.000	0.427	88.5	79	81.1	106.1	30
07/31/01	12:30 p	85.1	85.6	84.8	81	78.6	3.0	NE	1.50	15.0	85.1	97.0	97.0	29.846	0.00	0.000	0.419	88.6	78	80.9	105.9	30
07/31/01	1:00 p	84.4	85.0	83.9	82	78.3	3.0	NE	1.50	11.0	84.4	96.0	96.0	29.841	0.00	0.000	0.404	88.6	78	80.9	105.9	30
07/31/01	1:30 p	84.0	84.3	83.7	82	77.9	2.0	NE	1.00	9.0	84.0	95.1	95.1	29.841	0.00	0.000	0.396	88.4	78	80.7	105.0	30
07/31/01	2:00 p	84.0	84.2	83.7	82	77.9	1.0	NE	0.50	8.0	84.0	95.1	95.1	29.823	0.00	0.000	0.396	88.2	78	80.5	104.1	30
07/31/01	2:30 p	84.9	85.4	84.0	79	77.7	2.0	NE	1.00	8.0	84.9	95.9	95.9	29.815	0.00	0.000	0.415	88.4	77	80.3	104.4	30
07/31/01	3:00 p	85.7	86.4	85.1	77	77.7	2.0	ENE	1.00	10.0	85.7	97.0	97.0	29.802	0.00	0.000	0.431	88.9	77	80.7	106.5	30
07/31/01	3:30 p	87.4	88.5	86.2	71	76.8	2.0	NE	1.00	7.0	87.4	98.5	98.5	29.799	0.00	0.000	0.467	89.5	75	80.5	107.4	30
07/31/01	4:00 p	89.3	90.3	88.3	68	77.3	2.0	NE	1.00	8.0	89.3	102.2	102.2	29.803	0.00	0.000	0.506	90.6	74	81.2	111.0	30
07/31/01	4:30 p	89.1	89.8	88.1	73	79.3	2.0	ENE	1.00	8.0	89.1	104.6	104.6	29.812	0.00	0.000	0.502	91.4	72	81.1	112.3	30
07/31/01	5:00 p	87.6	88.1	87.1	75	78.7	2.0	NE	1.00	10.0	87.6	100.7	100.7	29.816	0.00	0.000	0.471	91.5	72	81.2	112.6	30
07/31/01	5:30 p	87.0	87.3	86.8	76	78.5	2.0	NE	1.00	11.0	87.0	100.1	100.1	29.810	0.00	0.000	0.458	91.6	72	81.3	113.0	30
07/31/01	6:00 p	86.2	86.8	85.5	78	78.5	3.0	NE	1.50	14.0	86.2	98.7	98.7	29.808	0.00	0.000	0.442	91.2	72	80.9	111.5	30
07/31/01	6:30 p	85.0	85.6	84.2	80	78.1	4.0	ENE	2.00	15.0	85.0	96.4	96.4	29.800	0.00	0.000	0.417	90.1	73	80.3	108.3	30
07/31/01	7:00 p	83.6	84.2	83.0	81	77.1	2.0	ENE	1.00	10.0	83.6	93.7	93.7	29.821	0.00	0.000	0.387	89.0	74	79.6	104.9	30
07/31/01	7:30 p	82.7	83.1	82.4	81	76.3	2.0	E	1.00	11.0	82.7	91.1	91.1	29.832	0.00	0.000	0.369	87.9	74	78.6	100.7	30
07/31/01	8:00 p	82.2	82.6	81.9	81	75.8	1.0	E	0.50	13.0	82.2	89.8	89.8	29.832	0.00	0.000	0.358	87.2	75	78.3	100.0	30
07/31/01	8:30 p	81.9	82.1	81.6	82	75.9	2.0	E	1.00	10.0	81.9	89.3	89.3	29.834	0.00	0.000	0.352	86.6	76	78.1	99.0	30
07/31/01	9:00 p	81.6	81.7	81.4	82	75.6	1.0	E	0.50	11.0	81.6	88.5	88.5	29.860	0.00	0.000	0.346	86.1	76	77.6	97.6	30
07/31/01	9:30 p	81.4	81.6	81.2	80	74.6	3.0	ESE	1.50	15.0	81.4	87.5	87.5	29.871	0.00	0.000	0.342	85.8	76	77.4	96.9	30
07/31/01	10:00 p	80.9	81.3	80.6	81	74.5	2.0	ESE	1.00	14.0	80.9	86.6	86.6	29.879	0.00	0.000	0.331	85.5	75	76.7	95.8	30
07/31/01	10:30 p	80.6	80.8	80.4	84	75.3	0.0	E	0.00	8.0	80.6	86.7	86.7	29.887	0.00	0.000	0.325	85.1	77	77.1	95.6	30
07/31/01	11:00 p	80.4	80.7	80.1	78	72.9	3.0	ESE	1.50	15.0	80.4	84.9	84.9	29.871	0.00	0.000	0.321	84.8	75	76.0	94.2	30
07/31/01	11:30 p	79.9	80.3	79.7	82	73.9	1.0	ESE	0.50	8.0	79.9	84.8	84.8	29.874	0.00	0.000	0.310	84.5	75	75.7	93.6	30
08/01/01	12:00 a	79.5	79.8	79.2	82	73.5	0.0	ESE	0.00	2.0	79.5	84.1	84.1	29.859	0.00	0.000	0.302	84.1	76	75.7	93.2	30
08/01/01	12:30 a	79.1	79.4	78.7	83	73.5	0.0	E	0.00	1.0	79.1	83.5	83.5	29.848	0.00	0.000	0.294	83.8	76	75.4	92.5	30
08/01/01	1:00 a	78.5	78.9	78.1	84	73.3	0.0	E	0.00	1.0	78.5	82.7	82.7	29.851	0.00	0.000	0.281	83.4	77	75.4	91.8	30
08/01/01	1:30 a	78.2	78.5	78.0	85	73.3	1.0	E	0.50	7.0	78.2	82.4	82.4	29.848	0.00	0.000	0.275	83.1	78	75.5	91.3	30
08/01/01	2:00 a	78.4	78.6	78.3	84	73.2	0.0	E	0.00	3.0	78.4	82.6	82.6	29.841	0.00	0.000	0.279	83.0	78	75.4	91.1	30
08/01/01	2:30 a	78.4	78.6	78.2	85	73.5	0.0	E	0.00	3.0	78.4	82.7	82.7	29.828	0.00	0.000	0.279	82.8	78	75.2	90.5	30
08/01/01	3:00 a	78.4	78.6	78.2	85	73.5	0.0	E	0.00	4.0	78.4	82.7	82.7	29.821	0.00	0.000	0.279	82.7	79	75.5	90.6	30
08/01/01	3:30 a	78.5	78.8	78.3	86	74.0	1.0	ESE	0.50	7.0	78.5	83.1	83.1	29.828	0.00	0.000	0.281	82.6	80	75.8	90.6	30
08/01/01	4:00 a	78.7	78.9	78.5	87	74.5	1.0	ESE	0.50	7.0	78.7	83.6	83.6	29.830	0.00	0.000	0.285	82.5	81	76.1	90.6	30
08/01/01	4:30 a	78.7	78.9	78.5	89	75.2	0.0	ESE	0.00	4.0	78.7	83.9	83.9	29.844	0.00	0.000	0.285	82.4	82	76.3	90.6	30
08/01/01	5:00 a	78.6	78.9	78.5	91	75.8	0.0	ESE	0.00	4.0	78.6	84.1	84.1	29.841	0.00	0.000	0.283	82.4	83	76.7	90.9	30
08/01/01	5:30 a	78.9	79.3	78.6	90	75.7	1.0	ESE	0.50	6.0	78.9	84.5	84.5	29.849	0.00	0.000	0.290	82.3	84	77.0	90.9	30
08/01/01	6:00 a	79.4	79.8	79.1	88	75.5	3.0	ESE	1.50	15.0	79.4	85.1	85.1	29.859	0.00	0.000	0.300	82.4	85	77.4	91.5	30
08/01/01	6:30 a	79.7	80.0	79.3	77	71.8	4.0	ESE	2.00	18.0	79.7	83.5	83.5	29.872	0.00	0.000	0.306	82.4	81	76.0	90.3	30
08/01/01	7:00 a	79.0	79.5	78.5	81	72.7	5.0	SE	2.50	16.0	79.0	83.0	83.0	29.882	0.00	0.000	0.292	82.1	79	74.9	88.9	30
08/01/01	7:30 a	78.8	79.3	78.5	82	72.8	1.0	SE	0.50	8.0	78.8	82.9	82.9	29.882	0.00	0.000	0.288	82.1	80	75.3	89.2	30
08/01/01	8:00 a	79.9	80.7	79.1	78	72.4	1.0	ESE	0.50	7.0	79.9	84.0	84.0	29.886	0.00	0.000	0.310	82.4	80	75.6	90.0	30
08/01/01	8:30 a	81.3	81.9	80.5	76	73.0	1.0	SE	0.50	6.0	81.3	86.3	86.3	29.894	0.00	0.000	0.340	83.1	79	75.9	91.7	30
08/01/01	9:00 a	82.4	83.2	81.7	74	73.3	2.0	ESE	1.00	9.0	82.4	88.3	88.3	29.901	0.00	0.000	0.363	83.9	79	76.7	93.9	30
08/01/01	9:30 a	84.1	84.9	83.0	69	72.8	3.0	ESE	1.50	16.0	84.1	90.8	90.8	29.898	0.00	0.000	0.398	84.7	77	76.7	94.7	30
08/01/01	10:00 a	84.5	85.0	84.1	68	72.8	4.0	S	2.00	12.0	84.5	91.2	91.2	29.896	0.00	0.000	0.406	85.5	76	77.1	96.2	30
08/01/01	10:30 a	84.8	85.1	84.6	64	71.3	2.0	S	1.00	11.0	84.8	90.4	90.4	29.887	0.00	0.000	0.413	85.9	73	76.2	96.1	30
08/01/01	11:00 a	85.1	85.4	84.7	61	70.1	0.0	WNW	0.00	4.0	85.1	90.0	90.0	29.886	0.00	0.000	0.419	86.3	70	75.4	96.0	30
08/01/01	11:30 a	85.6	86.2	85.0	63	71.6	1.0	ENE	0.50	8.0	85.6	91.8	91.8	29.884	0.00	0.000	0.429	86.7	69	75.3	96.5	30
08/01/01	12:00 p	86.6	87.9	85.7	60	71.1	3.0	NE	1.50	10.0	86.6	92.8	92.8	29.884	0.00	0.000	0.450	87.6	68	75.7	97.6	30
08/01/01	12:30 p	87.2	87.6	86.7	64	73.5	3.0	ENE	1.50	12.0	87.2	95.4	95.4	29.912	0.00	0.000	0.462	88.5	68	76.6	99.7	30
08/01/01	1:00 p	80.9	86.9	76.9	79	73.8	11.0	S	5.50	33.0	79.1	86.1	84.3	29.951	0.11	0.000	0.331	86.9	66	74.2	95.8	30
08/01/01	1:30 p	75.1	77.0	74.2	80	68.5	4.0	S	2.00	20.0	75.1	77.6	77.6	29.926	0.09	0.000	0.210	83.8	65	70.8	88.7	30
08/01/01	2:00 p	74.9	76.0	74.0	81	68.7	1.0	S	0.50	6.0	74.9	77.4	77.4	29.920	0.01	0.000	0.206	82.8	68	71.2	87.4	30
08/01/01	2:30 p	76.9	77.6	75.9	77	69.1	1.0	SE	0.50	6.0	76.9	79.6	79.6	29.897	0.01	0.000	0.248	82.9	69	71.7	87.9	30
08/01/01	3:00 p	78.4	79.4	77.4	69	67.4	1.0	SSE	0.50	6.0	78.4	80.4	80.4	29.890	0.00	0.000	0.279	83.1	69	71.9	88.3	30
08/01/01	3:30 p	79.2	79.5	78.7	72	69.4	1.0	ENE	0.50	6.0	79.2	81.9	81.9	29.885	0.00	0.000	0.296	83.5	68	71.8	89.0	30
08/01/01	4:00 p	79.3	79.5	79.1	79	72.2	1.0	NE	0.50	9.0	79.3	83.1	83.1	29.882	0.00	0.000	0.298	84.1	70	73.3	91.1	30
08/01/01	4:30 p	79.5	80.0	79.1	73	70.1	2.0	NE	1.00	11.0	79.5	82.5	82.5	29.877	0.00	0.000	0.302	84.5	68	72.8	91.2	30
08/01/01	5:00 p	78.8	79.7	78.3	72	69.0	2.0	NNE	1.00	14.0	78.8	81.3	81.3	29.865	0.00	0.000	0.288	84.3	68	72.6	90.8	30
08/01/01	5:30 p	79.8	80.0	79.6	72	70.0	2.0	NE	1.00	11.0	79.8	82.8	82.8	29.854	0.00	0.000	0.308	84.9	68	73.2	92.0	30
08/01/01	6:00 p	79.7	79.9	79.5	68	68.2	2.0	NE	1.00	11.0	79.7	82.0	82.0	29.864	0.00	0.000	0.306	84.6	67	72.4	91.0	30
08/01/01	6:30 p	79.4	79.7	79.1	66	67.0	2.0	ENE	1.00	12.0	79.4	81.3	81.3	29.873	0.00	0.000	0.300	84.1	64	70.6	89.1	30
08/01/01	7:00 p	79.0	79.4	77.7	78	71.6	6.0	ESE	3.00	34.0	79.0	82.5	82.5	29.915	0.00	0.000	0.292	83.4	67	71.3	88.5	30
08/01/01	7:30 p	76.4	77.9	75.2	79	69.4	7.0	SE	3.50	23.0	76.4	79.2	79.2	29.929	0.00	0.000	0.238	82.4	69	71.2	86.9	30
08/01/01	8:00 p	74.8	75.5	73.8	84	69.6	3.0	SE	1.50	18.0	74.8	77.6	77.6	29.924	0.03	0.000	0.204	81.5	69	70.3	85.2	30
08/01/01	8:30 p	73.7	74.1	73.4	86	69.2	0.0	E	0.00	1.0	73.7	75.9	75.9	29.935	0.01	0.000	0.181	81.0	71	70.7	84.6	30
08/01/01	9:00 p	73.6	73.9	73.1	88	69.8	0.0	---	0.00	0.0	73.6	75.9	75.9	29.909	0.00	0.000	0.179	80.9	71	70.6	84.4	30
08/01/01	9:30 p	73.7	74.6	73.0	80	67.1	1.0	E	0.50	10.0	73.7	75.6	75.6	29.905	0.00	0.000	0.181	80.5	71	70.2	83.7	30
08/01/01	10:00 p	75.2	75.8	74.5	80	68.6	1.0	E	0.50	10.0	75.2	77.8	77.8	29.898	0.00	0.000	0.212	80.4	72	70.5	83.8	30
08/01/01	10:30 p	76.3	76.9	75.6	79	69.3	3.0	ENE	1.50	12.0	76.3	79.1	79.1	29.898	0.00	0.000	0.235	80.3	73	70.9	83.8	30
08/01/01	11:00 p	77.3	77.5	76.8	79	70.3	4.0	ENE	2.00	21.0	77.3	80.3	80.3	29.893	0.00	0.000	0.256	80.3	75	71.6	84.1	30
08/01/01	11:30 p	77.3	77.5	77.0	83	71.7	4.0	ENE	2.00	17.0	77.3	80.8	80.8	29.885	0.01	0.000	0.256	80.3	78	72.8	84.7	30
08/02/01	12:00 a	77.0	77.2	76.7	77	69.2	7.0	ESE	3.50	21.0	77.0	79.7	79.7	29.885	0.00	0.000	0.250	80.3	77	72.4	84.5	30
08/02/01	12:30 a	76.7	76.9	76.6	79	69.7	6.0	SE	3.00	21.0	76.7	79.6	79.6	29.884	0.00	0.000	0.244	80.1	74	71.1	83.6	30
08/02/01	1:00 a	76.0	76.9	75.3	87	71.8	5.0	SE	2.50	20.0	76.0	79.3	79.3	29.866	0.00	0.000	0.229	79.8	77	71.9	83.6	30
08/02/01	1:30 a	75.6	76.0	75.3	84	70.4	5.0	SE	2.50	16.0	75.6	78.6	78.6	29.864	0.00	0.000	0.221	79.8	78	72.3	83.8	30
08/02/01	2:00 a	75.9	76.1	75.7	85	71.1	5.0	SE	2.50	19.0	75.9	79.1	79.1	29.860	0.00	0.000	0.227	79.7	79	72.6	83.8	30
08/02/01	2:30 a	75.9	76.0	75.7	82	70.0	4.0	ESE	2.00	18.0	75.9	78.9	78.9	29.850	0.00	0.000	0.227	79.7	78	72.2	83.6	30
08/02/01	3:00 a	75.9	76.1	75.7	83	70.4	4.0	ESE	2.00	17.0	75.9	79.0	79.0	29.851	0.00	0.000	0.227	79.5	78	72.0	83.3	30
08/02/01	3:30 a	75.9	76.1	75.7	84	70.7	5.0	ESE	2.50	16.0	75.9	79.0	79.0	29.846	0.00	0.000	0.227	79.5	79	72.4	83.5	30
08/02/01	4:00 a	75.7	76.0	75.5	86	71.2	4.0	ESE	2.00	18.0	75.7	78.9	78.9	29.839	0.00	0.000	0.223	79.4	79	72.3	83.3	30
08/02/01	4:30 a	75.6	75.8	75.4	86	71.1	2.0	ESE	1.00	12.0	75.6	78.8	78.8	29.839	0.00	0.000	0.221	79.4	79	72.3	83.3	30
08/02/01	5:00 a	75.8	76.1	75.5	87	71.7	2.0	ESE	1.00	12.0	75.8	79.1	79.1	29.840	0.00	0.000	0.225	79.4	80	72.7	83.5	30
08/02/01	5:30 a	75.9	76.1	75.8	88	72.1	2.0	ESE	1.00	12.0	75.9	79.3	79.3	29.852	0.00	0.000	0.227	79.4	80	72.7	83.5	30
08/02/01	6:00 a	76.0	76.3	75.8	86	71.5	1.0	ESE	0.50	8.0	76.0	79.3	79.3	29.857	0.00	0.000	0.229	79.4	80	72.7	83.5	30
08/02/01	6:30 a	76.4	76.8	76.1	86	71.9	1.0	ESE	0.50	7.0	76.4	79.8	79.8	29.862	0.00	0.000	0.238	79.5	80	72.8	83.7	30
08/02/01	7:00 a	77.0	77.5	76.6	83	71.4	1.0	E	0.50	11.0	77.0	80.4	80.4	29.861	0.00	0.000	0.250	79.6	80	72.9	83.8	30
08/02/01	7:30 a	77.8	78.2	77.3	84	72.6	2.0	ENE	1.00	13.0	77.8	81.7	81.7	29.869	0.00	0.000	0.267	79.7	81	73.3	84.2	30
08/02/01	8:00 a	78.2	78.4	77.9	83	72.6	1.0	NE	0.50	12.0	78.2	82.1	82.1	29.858	0.00	0.000	0.275	79.9	81	73.5	84.5	30
08/02/01	8:30 a	78.6	78.9	78.2	83	73.0	1.0	E	0.50	9.0	78.6	82.7	82.7	29.860	0.00	0.000	0.283	80.2	82	74.2	85.4	30
08/02/01	9:00 a	78.4	78.9	77.8	84	73.2	2.0	E	1.00	12.0	78.4	82.6	82.6	29.877	0.02	0.000	0.279	80.4	82	74.4	85.8	30
08/02/01	9:30 a	77.6	78.0	77.2	86	73.1	1.0	ENE	0.50	9.0	77.6	81.6	81.6	29.893	0.01	0.000	0.262	80.3	82	74.3	85.6	30
08/02/01	10:00 a	77.1	77.6	76.6	89	73.6	1.0	NE	0.50	8.0	77.1	81.1	81.1	29.901	0.07	0.000	0.252	80.2	83	74.6	85.6	30
08/02/01	10:30 a	76.5	77.0	75.4	88	72.7	3.0	NE	1.50	15.0	76.5	80.1	80.1	29.947	0.34	0.000	0.240	80.1	84	74.8	85.6	30
08/02/01	11:00 a	74.3	75.7	73.6	90	71.2	0.0	ENE	0.00	6.0	74.3	77.0	77.0	29.942	0.29	0.000	0.194	79.6	82	73.6	84.2	30
08/02/01	11:30 a	73.2	74.0	72.6	93	71.1	4.0	SSE	2.00	19.0	73.2	75.9	75.9	29.958	0.62	0.000	0.171	79.1	82	73.1	83.3	30
08/02/01	12:00 p	72.4	73.1	71.9	93	70.3	7.0	SE	3.50	24.0	72.4	75.0	75.0	29.948	0.42	0.000	0.154	78.5	81	72.2	82.3	30
08/02/01	12:30 p	72.5	72.9	72.0	91	69.7	3.0	ESE	1.50	14.0	72.5	74.9	74.9	29.948	0.11	0.000	0.156	78.2	82	72.3	82.0	30
08/02/01	1:00 p	73.1	73.5	72.5	93	71.0	3.0	ESE	1.50	10.0	73.1	75.8	75.8	29.945	0.10	0.000	0.169	78.3	83	72.7	82.3	30
08/02/01	1:30 p	73.4	73.8	72.9	90	70.3	3.0	ENE	1.50	14.0	73.4	75.9	75.9	29.925	0.10	0.000	0.175	78.4	83	72.8	82.4	30
08/02/01	2:00 p	73.3	73.9	72.9	87	69.2	1.0	ESE	0.50	8.0	73.3	75.6	75.6	29.911	0.00	0.000	0.173	78.4	82	72.4	82.3	30
08/02/01	2:30 p	74.4	75.1	73.7	89	70.9	1.0	E	0.50	8.0	74.4	77.1	77.1	29.899	0.00	0.000	0.196	78.7	82	72.7	82.7	30
08/02/01	3:00 p	75.2	75.4	74.9	88	71.4	2.0	ENE	1.00	12.0	75.2	78.5	78.5	29.885	0.00	0.000	0.212	78.9	83	73.3	83.2	30
08/02/01	3:30 p	75.1	75.4	74.8	88	71.3	2.0	NE	1.00	11.0	75.1	78.4	78.4	29.879	0.00	0.000	0.210	78.9	83	73.3	83.2	30
08/02/01	4:00 p	75.0	75.1	74.8	86	70.5	1.0	E	0.50	8.0	75.0	78.1	78.1	29.887	0.01	0.000	0.208	78.7	83	73.1	82.9	30
08/02/01	4:30 p	75.1	75.4	74.8	87	71.0	2.0	ENE	1.00	12.0	75.1	78.3	78.3	29.886	0.00	0.000	0.210	78.7	83	73.1	82.9	30
08/02/01	5:00 p	75.2	75.4	75.0	86	70.7	3.0	ENE	1.50	17.0	75.2	78.3	78.3	29.885	0.00	0.000	0.212	78.7	83	73.1	82.9	30
08/02/01	5:30 p	75.2	75.5	75.0	90	72.1	3.0	E	1.50	14.0	75.2	78.6	78.6	29.885	0.00	0.000	0.212	78.6	85	73.7	83.1	30
08/02/01	6:00 p	75.4	75.7	75.2	89	71.9	4.0	ENE	2.00	17.0	75.4	78.8	78.8	29.887	0.00	0.000	0.217	78.5	86	74.0	83.1	30
08/02/01	6:30 p	75.7	76.0	75.5	88	71.9	5.0	ENE	2.50	18.0	75.7	79.0	79.0	29.887	0.00	0.000	0.223	78.6	86	74.1	83.2	30
08/02/01	7:00 p	75.8	76.0	75.6	87	71.7	4.0	ENE	2.00	16.0	75.8	79.1	79.1	29.877	0.00	0.000	0.225	78.5	85	73.6	82.9	30
08/02/01	7:30 p	75.9	76.4	75.6	86	71.4	5.0	ENE	2.50	15.0	75.9	79.1	79.1	29.867	0.01	0.000	0.227	78.3	86	73.8	82.7	30
08/02/01	8:00 p	76.6	76.8	76.2	88	72.8	5.0	ENE	2.50	20.0	76.6	80.3	80.3	29.872	0.00	0.000	0.242	78.4	86	73.9	82.9	30
08/02/01	8:30 p	76.5	76.8	76.4	87	72.3	4.0	E	2.00	16.0	76.5	80.0	80.0	29.879	0.00	0.000	0.240	78.5	86	74.0	83.1	30
08/02/01	9:00 p	76.6	76.8	76.4	86	72.1	4.0	ESE	2.00	18.0	76.6	80.1	80.1	29.879	0.00	0.000	0.242	78.6	86	74.1	83.2	30
08/02/01	9:30 p	76.5	76.7	76.3	85	71.7	4.0	ESE	2.00	16.0	76.5	79.9	79.9	29.872	0.00	0.000	0.240	78.6	86	74.1	83.2	30
08/02/01	10:00 p	76.4	76.6	76.2	88	72.6	3.0	ESE	1.50	12.0	76.4	80.0	80.0	29.866	0.00	0.000	0.238	78.6	85	73.7	83.1	30
08/02/01	10:30 p	76.3	76.5	76.2	87	72.1	2.0	ESE	1.00	12.0	76.3	79.8	79.8	29.867	0.00	0.000	0.235	78.6	85	73.7	83.1	30
08/02/01	11:00 p	76.3	76.5	76.1	88	72.5	1.0	ESE	0.50	11.0	76.3	79.8	79.8	29.867	0.00	0.000	0.235	78.6	85	73.7	83.1	30
08/02/01	11:30 p	76.5	76.8	76.2	87	72.3	3.0	ESE	1.50	13.0	76.5	80.0	80.0	29.862	0.00	0.000	0.240	78.7	85	73.8	83.2	30
08/03/01	12:00 a	76.6	76.8	76.5	87	72.4	2.0	SE	1.00	10.0	76.6	80.2	80.2	29.853	0.00	0.000	0.242	78.8	85	73.9	83.4	30
08/03/01	12:30 a	76.6	76.8	76.5	88	72.8	1.0	SE	0.50	8.0	76.6	80.3	80.3	29.842	0.00	0.000	0.242	78.8	85	73.9	83.4	30
08/03/01	1:00 a	76.7	76.9	76.5	89	73.2	1.0	SE	0.50	8.0	76.7	80.5	80.5	29.831	0.00	0.000	0.244	78.9	86	74.4	83.7	30
08/03/01	1:30 a	76.8	77.1	76.6	88	73.0	1.0	SE	0.50	8.0	76.8	80.5	80.5	29.816	0.00	0.000	0.246	78.9	86	74.4	83.7	30
08/03/01	2:00 a	77.0	77.2	76.8	90	73.8	1.0	SE	0.50	8.0	77.0	81.0	81.0	29.810	0.00	0.000	0.250	79.0	86	74.5	83.9	30
08/03/01	2:30 a	77.1	77.3	76.9	90	73.9	1.0	SE	0.50	8.0	77.1	81.2	81.2	29.807	0.00	0.000	0.252	79.1	86	74.5	84.1	30
08/03/01	3:00 a	77.3	77.5	77.1	90	74.1	1.0	SE	0.50	8.0	77.3	81.5	81.5	29.812	0.00	0.000	0.256	79.2	86	74.6	84.3	30
08/03/01	3:30 a	77.3	77.5	77.1	90	74.1	0.0	ESE	0.00	5.0	77.3	81.5	81.5	29.809	0.00	0.000	0.256	79.3	86	74.7	84.5	30
08/03/01	4:00 a	77.1	77.4	76.8	93	74.9	0.0	ESE	0.00	1.0	77.1	81.5	81.5	29.802	0.00	0.000	0.252	79.3	86	74.7	84.5	30
08/03/01	4:30 a	76.7	77.0	76.3	94	74.8	0.0	---	0.00	0.0	76.7	80.9	80.9	29.791	0.00	0.000	0.244	79.2	87	75.0	84.5	30
08/03/01	5:00 a	76.4	76.6	76.0	95	74.9	0.0	---	0.00	0.0	76.4	80.6	80.6	29.790	0.00	0.000	0.238	79.1	86	74.5	84.1	30
08/03/01	5:30 a	76.1	76.4	75.9	96	74.9	0.0	---	0.00	0.0	76.1	80.2	80.2	29.791	0.00	0.000	0.231	79.1	86	74.5	84.1	30
08/03/01	6:00 a	76.0	76.2	75.8	96	74.8	0.0	---	0.00	0.0	76.0	80.1	80.1	29.795	0.00	0.000	0.229	79.0	87	74.8	84.1	30
08/03/01	6:30 a	75.9	76.1	75.7	96	74.7	0.0	---	0.00	0.0	75.9	79.9	79.9	29.796	0.00	0.000	0.227	79.0	87	74.8	84.1	30
08/03/01	7:00 a	75.9	76.2	75.7	97	75.0	0.0	---	0.00	0.0	75.9	80.0	80.0	29.802	0.00	0.000	0.227	79.0	87	74.8	84.1	30
08/03/01	7:30 a	76.2	76.6	75.8	97	75.3	0.0	---	0.00	0.0	76.2	80.5	80.5	29.807	0.00	0.000	0.233	79.1	88	75.2	84.5	30
08/03/01	8:00 a	76.7	77.0	76.3	96	75.5	0.0	---	0.00	1.0	76.7	81.2	81.2	29.816	0.00	0.000	0.244	79.3	88	75.4	84.9	30
08/03/01	8:30 a	77.2	77.7	76.8	94	75.3	0.0	---	0.00	1.0	77.2	81.8	81.8	29.815	0.00	0.000	0.254	79.5	87	75.3	85.1	30
08/03/01	9:00 a	78.3	78.9	77.6	86	73.8	0.0	ESE	0.00	2.0	78.3	82.7	82.7	29.821	0.00	0.000	0.277	79.9	86	75.3	85.6	30
08/03/01	9:30 a	79.2	79.5	78.7	85	74.3	0.0	ENE	0.00	3.0	79.2	84.1	84.1	29.828	0.00	0.000	0.296	80.4	86	75.8	86.7	30
08/03/01	10:00 a	79.0	79.4	78.4	83	73.4	1.0	NE	0.50	7.0	79.0	83.3	83.3	29.833	0.01	0.000	0.292	80.8	86	76.2	87.6	30
08/03/01	10:30 a	78.6	79.2	78.2	83	73.0	1.0	NE	0.50	6.0	78.6	82.7	82.7	29.836	0.00	0.000	0.283	81.0	85	76.1	87.8	30
08/03/01	11:00 a	80.1	80.8	79.0	80	73.4	1.0	NE	0.50	9.0	80.1	84.7	84.7	29.829	0.00	0.000	0.315	81.9	85	76.9	90.1	30
08/03/01	11:30 a	80.7	81.6	80.2	81	74.3	2.0	NE	1.00	9.0	80.7	86.1	86.1	29.820	0.00	0.000	0.327	82.9	84	77.6	92.5	30
08/03/01	12:00 p	81.3	81.8	80.8	83	75.6	3.0	ENE	1.50	12.0	81.3	88.0	88.0	29.812	0.00	0.000	0.340	83.7	83	78.0	94.6	30
08/03/01	12:30 p	79.6	80.8	78.9	84	74.3	3.0	ENE	1.50	15.0	79.6	84.6	84.6	29.805	0.00	0.000	0.304	83.6	82	77.5	94.0	30
08/03/01	1:00 p	78.5	78.9	78.0	86	74.0	2.0	ENE	1.00	12.0	78.5	83.1	83.1	29.795	0.01	0.000	0.281	82.7	81	76.3	91.1	30
08/03/01	1:30 p	77.4	78.1	76.8	90	74.2	1.0	E	0.50	8.0	77.4	81.7	81.7	29.803	0.04	0.000	0.258	81.9	82	75.9	89.3	30
08/03/01	2:00 p	76.6	77.1	76.1	92	74.1	1.0	ESE	0.50	8.0	76.6	80.6	80.6	29.801	0.07	0.000	0.242	81.4	83	75.7	88.3	30
08/03/01	2:30 p	76.1	76.5	75.7	93	73.9	0.0	ENE	0.00	5.0	76.1	79.9	79.9	29.798	0.07	0.000	0.231	80.9	84	75.6	87.3	30
08/03/01	3:00 p	75.7	76.0	75.3	94	73.8	1.0	E	0.50	13.0	75.7	79.5	79.5	29.795	0.11	0.000	0.223	80.6	85	75.7	86.9	30
08/03/01	3:30 p	75.3	75.6	75.0	94	73.5	1.0	ESE	0.50	5.0	75.3	79.0	79.0	29.794	0.07	0.000	0.215	80.3	85	75.4	86.3	30
08/03/01	4:00 p	75.4	75.6	75.1	94	73.6	2.0	E	1.00	8.0	75.4	79.1	79.1	29.779	0.04	0.000	0.217	80.1	87	75.9	86.3	30
08/03/01	4:30 p	75.6	75.9	75.1	94	73.8	2.0	ESE	1.00	10.0	75.6	79.4	79.4	29.773	0.01	0.000	0.221	80.0	87	75.8	86.1	30
08/03/01	5:00 p	75.7	76.0	75.4	94	73.8	1.0	E	0.50	12.0	75.7	79.5	79.5	29.780	0.01	0.000	0.223	80.0	88	76.1	86.3	30
08/03/01	5:30 p	75.4	75.8	74.9	94	73.6	2.0	E	1.00	9.0	75.4	79.1	79.1	29.766	0.01	0.000	0.217	79.9	87	75.7	85.9	30
08/03/01	6:00 p	75.4	75.8	74.9	94	73.6	2.0	SE	1.00	8.0	75.4	79.1	79.1	29.759	0.00	0.000	0.217	79.7	88	75.8	85.7	30
08/03/01	6:30 p	75.5	75.8	75.3	94	73.7	1.0	SE	0.50	5.0	75.5	79.3	79.3	29.752	0.00	0.000	0.219	79.7	88	75.8	85.7	30
08/03/01	7:00 p	75.7	76.0	75.4	94	73.8	1.0	ESE	0.50	8.0	75.7	79.5	79.5	29.749	0.00	0.000	0.223	79.6	88	75.7	85.5	30
08/03/01	7:30 p	75.4	75.8	75.0	94	73.6	1.0	SSE	0.50	6.0	75.4	79.1	79.1	29.759	0.00	0.000	0.217	79.5	88	75.6	85.3	30
08/03/01	8:00 p	74.9	75.3	74.6	95	73.4	1.0	SSE	0.50	4.0	74.9	78.5	78.5	29.763	0.00	0.000	0.206	79.1	88	75.2	84.5	30
08/03/01	8:30 p	74.7	75.0	74.4	95	73.2	1.0	SE	0.50	5.0	74.7	78.2	78.2	29.763	0.00	0.000	0.202	78.9	89	75.4	84.3	30
08/03/01	9:00 p	74.5	74.8	74.3	95	73.0	0.0	SSE	0.00	3.0	74.5	77.8	77.8	29.768	0.00	0.000	0.198	78.7	89	75.2	83.9	30
08/03/01	9:30 p	74.4	74.6	74.1	96	73.2	0.0	---	0.00	1.0	74.4	77.8	77.8	29.773	0.00	0.000	0.196	78.4	89	74.9	83.4	30
08/03/01	10:00 p	74.3	74.5	74.1	95	72.8	0.0	SSE	0.00	2.0	74.3	77.5	77.5	29.778	0.00	0.000	0.194	78.3	90	75.1	83.4	30
08/03/01	10:30 p	74.3	74.4	74.0	96	73.1	0.0	---	0.00	0.0	74.3	77.6	77.6	29.773	0.00	0.000	0.194	78.2	90	75.0	83.2	30
08/03/01	11:00 p	74.3	74.5	74.0	97	73.4	0.0	SSE	0.00	2.0	74.3	77.7	77.7	29.769	0.00	0.000	0.194	78.0	91	75.2	82.9	30
08/03/01	11:30 p	74.3	74.6	74.0	97	73.4	1.0	E	0.50	5.0	74.3	77.7	77.7	29.772	0.00	0.000	0.194	78.0	90	74.8	82.8	30
08/04/01	12:00 a	74.4	74.6	74.2	96	73.2	1.0	SE	0.50	5.0	74.4	77.8	77.8	29.764	0.00	0.000	0.196	78.1	89	74.6	82.8	30
08/04/01	12:30 a	74.3	74.5	74.0	95	72.8	0.0	SSE	0.00	1.0	74.3	77.5	77.5	29.761	0.00	0.000	0.194	78.0	88	74.2	82.5	30
08/04/01	1:00 a	74.0	74.3	73.6	95	72.5	0.0	---	0.00	0.0	74.0	77.0	77.0	29.750	0.00	0.000	0.188	77.8	88	74.0	82.2	30
08/04/01	1:30 a	73.5	73.9	73.1	95	72.0	0.0	---	0.00	0.0	73.5	76.4	76.4	29.743	0.00	0.000	0.177	77.6	87	73.4	81.7	30
08/04/01	2:00 a	73.0	73.4	72.6	95	71.5	0.0	---	0.00	0.0	73.0	75.8	75.8	29.736	0.00	0.000	0.167	77.4	87	73.2	81.4	30
08/04/01	2:30 a	72.6	73.0	72.3	96	71.4	0.0	---	0.00	0.0	72.6	75.6	75.6	29.731	0.00	0.000	0.158	77.2	86	72.7	81.0	30
08/04/01	3:00 a	72.5	72.7	72.2	96	71.3	0.0	SSE	0.00	1.0	72.5	75.5	75.5	29.730	0.00	0.000	0.156	77.0	86	72.5	80.7	30
08/04/01	3:30 a	72.3	72.6	72.0	97	71.4	0.0	---	0.00	0.0	72.3	75.4	75.4	29.727	0.00	0.000	0.152	76.8	86	72.3	80.4	30
08/04/01	4:00 a	72.1	72.4	71.8	96	70.9	0.0	---	0.00	0.0	72.1	75.1	75.1	29.725	0.00	0.000	0.148	76.7	86	72.2	80.3	30
08/04/01	4:30 a	72.0	72.3	71.7	97	71.1	0.0	---	0.00	0.0	72.0	75.1	75.1	29.724	0.00	0.000	0.146	76.5	85	71.7	79.9	30
08/04/01	5:00 a	71.9	72.2	71.6	97	71.0	0.0	---	0.00	0.0	71.9	75.0	75.0	29.731	0.00	0.000	0.144	76.4	85	71.6	79.8	30
08/04/01	5:30 a	71.9	72.3	71.6	98	71.3	0.0	---	0.00	0.0	71.9	75.2	75.2	29.736	0.00	0.000	0.144	76.3	85	71.5	79.6	30
08/04/01	6:00 a	72.1	72.5	71.9	98	71.5	0.0	---	0.00	0.0	72.1	75.4	75.4	29.735	0.00	0.000	0.148	76.3	86	71.8	79.7	30
08/04/01	6:30 a	72.5	73.0	72.1	99	72.2	0.0	---	0.00	0.0	72.5	75.9	75.9	29.743	0.00	0.000	0.156	76.5	86	72.0	80.0	30
08/04/01	7:00 a	73.2	73.7	72.6	99	72.9	0.0	---	0.00	0.0	73.2	76.6	76.6	29.752	0.00	0.000	0.171	76.8	87	72.6	80.5	30
08/04/01	7:30 a	73.8	74.4	73.4	99	73.5	0.0	---	0.00	0.0	73.8	77.3	77.3	29.756	0.00	0.000	0.183	77.2	89	73.7	81.3	30
08/04/01	8:00 a	75.1	76.2	74.2	98	74.5	1.0	SSE	0.50	6.0	75.1	78.9	78.9	29.758	0.00	0.000	0.210	78.0	92	75.5	83.0	30
08/04/01	9:30 a	77.6	79.6	75.9	89	74.1	2.0	SSE	1.00	8.0	77.6	82.0	82.0	29.746	0.00	0.000	0.262	79.3	94	77.4	86.3	30
08/04/01	10:00 a	80.5	82.4	78.9	83	74.9	2.0	S	1.00	9.0	80.5	86.2	86.2	29.743	0.00	0.000	0.323	81.1	92	78.6	90.1	30
08/04/01	10:30 a	83.2	84.2	81.7	78	75.6	2.0	SSW	1.00	9.0	83.2	91.6	91.6	29.746	0.00	0.000	0.379	82.9	89	79.3	94.2	30
08/04/01	11:00 a	84.6	85.8	83.5	73	75.0	1.0	SSW	0.50	7.0	84.6	93.1	93.1	29.733	0.00	0.000	0.408	84.1	85	79.1	96.3	30
08/04/01	11:30 a	86.5	88.0	85.1	67	74.2	2.0	SSE	1.00	8.0	86.5	95.3	95.3	29.726	0.00	0.000	0.448	85.4	82	79.3	98.2	30
08/04/01	12:00 p	88.3	89.3	87.3	66	75.5	2.0	S	1.00	9.0	88.3	98.1	98.1	29.728	0.00	0.000	0.485	87.1	79	79.8	101.8	30
08/04/01	12:30 p	88.4	89.6	87.2	71	77.8	2.0	SE	1.00	10.0	88.4	100.9	100.9	29.717	0.00	0.000	0.488	88.0	79	80.7	103.8	30
08/04/01	1:00 p	86.2	87.7	85.2	76	77.7	2.0	ESE	1.00	13.0	86.2	97.9	97.9	29.708	0.00	0.000	0.442	88.1	78	80.4	103.7	30
08/04/01	1:30 p	86.5	88.0	84.9	73	76.8	4.0	SE	2.00	13.0	86.5	97.5	97.5	29.711	0.00	0.000	0.448	87.9	79	80.6	103.6	30
08/04/01	2:00 p	87.2	88.2	86.5	70	76.2	3.0	SE	1.50	15.0	87.2	97.8	97.8	29.691	0.00	0.000	0.462	88.5	77	80.4	104.8	30
08/04/01	2:30 p	88.4	89.3	87.1	69	76.9	3.0	SSE	1.50	13.0	88.4	99.8	99.8	29.698	0.00	0.000	0.488	89.4	76	80.8	107.8	30
08/04/01	3:00 p	89.2	90.7	87.9	65	75.9	4.0	S	2.00	13.0	89.2	100.2	100.2	29.675	0.00	0.000	0.504	90.1	75	81.1	109.8	30
08/04/01	3:30 p	90.3	91.2	89.0	68	78.3	2.0	SE	1.00	8.0	90.3	105.5	105.5	29.668	0.00	0.000	0.527	91.1	72	80.8	111.1	30
08/04/01	4:00 p	88.1	89.5	86.5	69	76.6	1.0	SE	0.50	8.0	88.1	98.9	98.9	29.661	0.00	0.000	0.481	90.8	71	80.1	109.2	30
08/04/01	4:30 p	86.0	87.0	84.7	76	77.5	1.0	ESE	0.50	6.0	86.0	97.4	97.4	29.671	0.00	0.000	0.438	89.6	73	79.8	106.5	30
08/04/01	5:00 p	82.9	84.8	81.2	78	75.3	1.0	WNW	0.50	7.0	82.9	90.8	90.8	29.680	0.00	0.000	0.373	88.6	71	78.0	101.6	30
08/04/01	5:30 p	80.8	81.7	80.0	83	75.2	0.0	NW	0.00	1.0	80.8	86.9	86.9	29.690	0.01	0.000	0.329	87.5	72	77.4	99.1	30
08/04/01	6:00 p	79.7	80.6	78.4	88	75.8	1.0	NW	0.50	7.0	79.7	85.7	85.7	29.710	0.03	0.000	0.306	86.5	74	77.2	97.9	30
08/04/01	6:30 p	77.8	79.0	76.9	91	75.0	2.0	NW	1.00	10.0	77.8	82.6	82.6	29.704	0.17	0.000	0.267	85.5	75	76.7	95.8	30
08/04/01	7:00 p	76.7	77.3	76.0	92	74.2	2.0	NW	1.00	8.0	76.7	80.7	80.7	29.715	0.01	0.000	0.244	84.8	76	76.4	94.6	30
08/04/01	7:30 p	76.5	77.0	75.9	92	74.0	0.0	NNW	0.00	2.0	76.5	80.4	80.4	29.725	0.01	0.000	0.240	84.3	77	76.3	94.0	30
08/04/01	8:00 p	76.7	77.1	76.3	92	74.2	0.0	NNW	0.00	1.0	76.7	80.7	80.7	29.728	0.00	0.000	0.244	83.8	78	76.2	93.2	30
08/04/01	8:30 p	76.6	77.1	75.9	92	74.1	0.0	NNW	0.00	1.0	76.6	80.6	80.6	29.735	0.02	0.000	0.242	83.3	79	76.1	92.2	30
08/04/01	9:00 p	76.1	76.7	75.7	93	73.9	0.0	NNW	0.00	1.0	76.1	79.9	79.9	29.749	0.01	0.000	0.231	82.9	79	75.7	91.1	30
08/04/01	9:30 p	76.0	76.5	75.5	93	73.8	0.0	SSE	0.00	4.0	76.0	79.8	79.8	29.759	0.03	0.000	0.229	82.3	80	75.5	89.7	30
08/04/01	10:00 p	75.8	76.4	75.2	93	73.6	0.0	SSE	0.00	3.0	75.8	79.6	79.6	29.763	0.00	0.000	0.225	81.8	81	75.4	88.7	30
08/04/01	10:30 p	75.4	76.0	74.9	93	73.2	1.0	SSE	0.50	5.0	75.4	79.1	79.1	29.762	0.01	0.000	0.217	81.5	81	75.1	88.0	30
08/04/01	11:00 p	75.1	75.7	74.6	93	72.9	1.0	S	0.50	6.0	75.1	78.7	78.7	29.767	0.00	0.000	0.210	81.2	82	75.2	87.5	30
08/04/01	11:30 p	74.9	75.4	74.3	94	73.1	0.0	S	0.00	3.0	74.9	78.5	78.5	29.765	0.00	0.000	0.206	80.9	82	74.9	86.8	30
08/05/01	12:00 a	74.6	75.2	74.1	94	72.8	1.0	S	0.50	7.0	74.6	77.9	77.9	29.769	0.00	0.000	0.200	80.7	82	74.7	86.4	30
08/05/01	12:30 a	74.5	75.0	74.0	93	72.3	0.0	SSE	0.00	4.0	74.5	77.7	77.7	29.763	0.00	0.000	0.198	80.7	81	74.3	86.1	30
08/05/01	1:00 a	74.3	74.8	73.9	93	72.1	0.0	SE	0.00	3.0	74.3	77.3	77.3	29.766	0.00	0.000	0.194	80.5	81	74.1	85.7	30
08/05/01	1:30 a	74.3	74.7	73.7	94	72.5	0.0	SE	0.00	1.0	74.3	77.4	77.4	29.772	0.00	0.000	0.194	80.2	81	73.8	85.1	30
08/05/01	2:00 a	74.0	74.6	73.5	94	72.2	0.0	S	0.00	4.0	74.0	76.9	76.9	29.773	0.00	0.000	0.188	79.9	81	73.5	84.5	30
08/05/01	2:30 a	73.8	74.3	73.4	95	72.3	1.0	S	0.50	5.0	73.8	76.8	76.8	29.775	0.01	0.000	0.183	79.7	81	73.3	84.2	30
08/05/01	3:00 a	73.8	74.3	73.4	94	72.0	0.0	S	0.00	4.0	73.8	76.7	76.7	29.764	0.00	0.000	0.183	79.5	82	73.5	84.1	30
08/05/01	3:30 a	74.0	74.3	73.4	94	72.2	0.0	S	0.00	1.0	74.0	76.9	76.9	29.761	0.00	0.000	0.188	79.3	81	73.0	83.5	30
08/05/01	4:00 a	74.0	74.4	73.5	95	72.5	0.0	S	0.00	2.0	74.0	77.0	77.0	29.754	0.00	0.000	0.188	79.1	81	72.8	83.2	30
08/05/01	4:30 a	73.9	74.3	73.4	95	72.4	0.0	S	0.00	2.0	73.9	76.9	76.9	29.759	0.00	0.000	0.185	79.0	82	73.0	83.2	30
08/05/01	5:00 a	73.8	74.2	73.3	95	72.3	0.0	S	0.00	1.0	73.8	76.8	76.8	29.761	0.00	0.000	0.183	78.8	82	72.8	82.9	30
08/05/01	5:30 a	73.6	74.1	73.1	96	72.4	1.0	S	0.50	4.0	73.6	76.7	76.7	29.772	0.00	0.000	0.179	78.6	82	72.6	82.6	30
08/05/01	6:00 a	73.6	74.1	73.1	96	72.4	0.0	S	0.00	2.0	73.6	76.7	76.7	29.773	0.00	0.000	0.179	78.4	82	72.4	82.3	30
08/05/01	6:30 a	73.6	74.1	73.2	96	72.4	0.0	S	0.00	1.0	73.6	76.7	76.7	29.786	0.00	0.000	0.179	78.4	82	72.4	82.3	30
08/05/01	7:00 a	73.7	74.2	73.3	96	72.5	0.0	---	0.00	1.0	73.7	76.8	76.8	29.791	0.00	0.000	0.181	78.3	82	72.3	82.1	30
08/05/01	7:30 a	73.8	74.3	73.4	96	72.6	0.0	S	0.00	1.0	73.8	76.9	76.9	29.800	0.00	0.000	0.183	78.3	83	72.7	82.3	30
08/05/01	8:00 a	74.1	74.5	73.5	95	72.6	0.0	SE	0.00	3.0	74.1	77.2	77.2	29.810	0.00	0.000	0.190	78.3	83	72.7	82.3	30
08/05/01	8:30 a	74.4	75.0	73.8	94	72.6	0.0	SE	0.00	1.0	74.4	77.6	77.6	29.820	0.00	0.000	0.196	78.4	84	73.2	82.6	30
08/05/01	9:00 a	75.2	76.1	74.3	93	73.0	0.0	SE	0.00	3.0	75.2	78.8	78.8	29.828	0.00	0.000	0.212	78.6	84	73.4	82.9	30
08/05/01	9:30 a	76.5	77.6	75.5	93	74.3	1.0	S	0.50	5.0	76.5	80.6	80.6	29.834	0.00	0.000	0.240	79.1	85	74.2	83.9	30
08/05/01	10:00 a	78.1	79.3	76.9	91	75.3	1.0	SSE	0.50	7.0	78.1	83.1	83.1	29.833	0.00	0.000	0.273	80.3	88	76.4	87.0	30
08/05/01	10:30 a	79.9	81.2	78.6	88	76.0	2.0	S	1.00	9.0	79.9	86.1	86.1	29.825	0.00	0.000	0.310	81.7	89	78.1	90.9	30
08/05/01	11:00 a	81.9	83.0	80.9	83	76.2	2.0	S	1.00	10.0	81.9	89.5	89.5	29.831	0.00	0.000	0.352	83.2	89	79.6	95.1	30
08/05/01	11:30 a	83.6	85.2	82.3	78	76.0	3.0	S	1.50	9.0	83.6	92.7	92.7	29.827	0.00	0.000	0.387	84.7	87	80.4	98.6	30
08/05/01	12:00 p	85.9	87.7	84.6	74	76.6	2.0	SSE	1.00	9.0	85.9	96.4	96.4	29.830	0.00	0.000	0.435	86.0	85	81.0	101.2	30
08/05/01	12:30 p	88.6	90.1	87.3	69	77.1	2.0	S	1.00	12.0	88.6	100.5	100.5	29.827	0.00	0.000	0.492	87.8	82	81.6	105.5	30
08/05/01	1:00 p	90.6	91.2	89.6	73	80.8	2.0	SE	1.00	14.0	90.6	110.2	110.2	29.820	0.00	0.000	0.533	89.6	82	83.4	114.1	30
08/05/01	1:30 p	90.6	91.7	89.0	78	82.8	3.0	ESE	1.50	17.0	90.6	114.5	114.5	29.812	0.04	0.000	0.533	90.6	79	83.2	115.4	30
08/05/01	2:00 p	88.3	89.3	87.0	77	80.2	2.0	SE	1.00	13.0	88.3	103.9	103.9	29.811	0.00	0.000	0.485	90.2	78	82.4	112.6	30
08/05/01	2:30 p	89.0	89.9	87.5	71	78.4	3.0	ESE	1.50	13.0	89.0	102.9	102.9	29.804	0.00	0.000	0.500	89.6	78	81.8	110.1	30
08/05/01	3:00 p	88.9	89.8	88.2	75	79.9	4.0	ESE	2.00	17.0	88.9	105.1	105.1	29.793	0.00	0.000	0.498	90.3	77	82.1	112.3	30
08/05/01	3:30 p	89.0	90.2	87.3	75	80.0	5.0	SE	2.50	15.0	89.0	105.5	105.5	29.794	0.00	0.000	0.500	90.4	76	81.8	111.9	30
08/05/01	4:00 p	86.2	87.9	83.9	71	75.7	4.0	SSE	2.00	15.0	86.2	96.1	96.1	29.793	0.02	0.000	0.442	89.6	74	80.2	107.2	30
08/05/01	4:30 p	83.3	84.6	82.5	83	77.6	2.0	ESE	1.00	11.0	83.3	93.4	93.4	29.779	0.01	0.000	0.381	88.0	76	79.5	102.0	30
08/05/01	5:00 p	84.2	85.0	83.2	82	78.1	4.0	SE	2.00	13.0	84.2	95.6	95.6	29.793	0.00	0.000	0.400	87.8	78	80.1	102.8	30
08/05/01	5:30 p	81.7	83.7	78.9	82	75.7	4.0	S	2.00	22.0	81.7	88.8	88.8	29.788	0.12	0.000	0.348	86.8	74	77.5	98.7	30
08/05/01	6:00 p	77.9	79.3	77.1	88	74.1	1.0	NW	0.50	8.0	77.9	82.4	82.4	29.821	0.02	0.000	0.269	84.9	76	76.5	94.8	30
08/05/01	6:30 p	77.9	78.5	77.2	91	75.1	0.0	WSW	0.00	5.0	77.9	82.7	82.7	29.837	0.00	0.000	0.269	84.3	79	77.1	94.7	30
08/05/01	7:00 p	78.4	78.8	77.8	91	75.6	0.0	SW	0.00	1.0	78.4	83.7	83.7	29.846	0.00	0.000	0.279	84.3	80	77.5	95.1	30
08/05/01	8:00 p	78.3	78.9	77.8	91	75.5	0.0	---	0.00	1.0	78.3	83.5	83.5	29.844	0.00	0.000	0.277	84.1	82	78.0	95.3	30
08/05/01	8:30 p	78.0	78.8	77.4	91	75.2	1.0	S	0.50	5.0	78.0	82.9	82.9	29.852	0.01	0.000	0.271	83.8	82	77.7	94.6	30
08/05/01	9:00 p	77.6	78.2	77.0	89	74.1	0.0	S	0.00	3.0	77.6	82.0	82.0	29.850	0.00	0.000	0.262	83.3	81	76.9	92.8	30
08/05/01	9:30 p	77.0	77.8	76.1	88	73.2	1.0	S	0.50	5.0	77.0	80.8	80.8	29.866	0.00	0.000	0.250	82.8	80	76.0	91.1	30
08/05/01	10:00 p	76.1	76.9	75.5	89	72.6	1.0	SSE	0.50	5.0	76.1	79.6	79.6	29.877	0.00	0.000	0.231	82.4	80	75.6	90.0	30
08/05/01	10:30 p	75.8	76.3	75.4	89	72.3	0.0	SSE	0.00	2.0	75.8	79.2	79.2	29.871	0.00	0.000	0.225	81.8	80	75.0	88.4	30
08/05/01	11:00 p	75.6	76.1	75.0	90	72.5	0.0	SSE	0.00	1.0	75.6	79.1	79.1	29.886	0.00	0.000	0.221	81.4	80	74.6	87.5	30
08/05/01	11:30 p	75.3	75.7	74.8	91	72.5	0.0	SSE	0.00	2.0	75.3	78.8	78.8	29.907	0.00	0.000	0.215	81.1	80	74.3	86.7	30
08/06/01	12:00 a	75.2	75.6	74.7	91	72.4	0.0	SSE	0.00	1.0	75.2	78.7	78.7	29.912	0.00	0.000	0.212	80.8	80	74.0	86.1	30
08/06/01	12:30 a	75.1	75.6	74.7	92	72.6	0.0	SSE	0.00	2.0	75.1	78.6	78.6	29.910	0.00	0.000	0.210	80.6	81	74.2	85.9	30
08/06/01	1:00 a	74.9	75.5	74.4	91	72.1	0.0	SSE	0.00	2.0	74.9	78.3	78.3	29.907	0.00	0.000	0.206	80.3	81	73.9	85.3	30
08/06/01	1:30 a	74.8	75.2	74.2	92	72.3	0.0	---	0.00	1.0	74.8	78.1	78.1	29.907	0.00	0.000	0.204	80.0	81	73.6	84.7	30
08/06/01	2:00 a	74.4	75.0	73.8	93	72.2	0.0	SSE	0.00	2.0	74.4	77.5	77.5	29.899	0.00	0.000	0.196	79.7	81	73.3	84.2	30
08/06/01	2:30 a	74.0	74.5	73.7	93	71.8	0.0	SSE	0.00	3.0	74.0	76.8	76.8	29.897	0.00	0.000	0.188	79.5	81	73.2	83.9	30
08/06/01	3:00 a	73.9	74.3	73.5	94	72.1	0.0	SSE	0.00	2.0	73.9	76.8	76.8	29.886	0.00	0.000	0.185	79.2	81	72.9	83.3	30
08/06/01	3:30 a	73.9	74.3	73.4	93	71.7	0.0	---	0.00	1.0	73.9	76.7	76.7	29.877	0.00	0.000	0.185	79.0	81	72.7	83.0	30
08/06/01	4:00 a	73.6	74.2	73.2	93	71.4	0.0	SSE	0.00	2.0	73.6	76.3	76.3	29.868	0.00	0.000	0.179	78.8	81	72.5	82.7	30
08/06/01	4:30 a	73.4	73.9	72.9	94	71.6	0.0	SSE	0.00	2.0	73.4	76.2	76.2	29.870	0.00	0.000	0.175	78.6	81	72.3	82.4	30
08/06/01	5:00 a	73.3	73.8	72.9	94	71.5	0.0	SSE	0.00	1.0	73.3	76.1	76.1	29.865	0.00	0.000	0.173	78.4	81	72.1	82.1	30
08/06/01	5:30 a	73.2	73.7	72.8	95	71.7	0.0	SSE	0.00	2.0	73.2	76.0	76.0	29.859	0.00	0.000	0.171	78.2	81	71.9	81.8	30
08/06/01	6:00 a	73.5	74.0	73.0	95	72.0	1.0	SSE	0.50	5.0	73.5	76.4	76.4	29.869	0.00	0.000	0.177	78.0	82	72.1	81.7	30
08/06/01	6:30 a	73.5	74.0	73.2	95	72.0	0.0	SSE	0.00	2.0	73.5	76.4	76.4	29.873	0.00	0.000	0.177	78.0	82	72.1	81.7	30
08/06/01	7:00 a	73.6	74.0	73.1	95	72.1	0.0	SSE	0.00	1.0	73.6	76.5	76.5	29.891	0.00	0.000	0.179	77.9	83	72.3	81.7	30
08/06/01	7:30 a	73.5	73.9	73.0	95	72.0	0.0	---	0.00	0.0	73.5	76.4	76.4	29.907	0.00	0.000	0.177	77.8	83	72.2	81.5	30
08/06/01	8:00 a	73.7	74.3	73.2	96	72.5	0.0	---	0.00	1.0	73.7	76.8	76.8	29.921	0.00	0.000	0.181	77.8	84	72.6	81.7	30
08/06/01	8:30 a	74.7	75.7	73.8	95	73.2	0.0	SSE	0.00	1.0	74.7	78.2	78.2	29.928	0.00	0.000	0.202	78.0	84	72.8	82.0	30
08/06/01	9:00 a	76.2	77.4	75.0	93	74.0	0.0	SSE	0.00	2.0	76.2	80.1	80.1	29.935	0.00	0.000	0.233	78.7	85	73.8	83.2	30
08/06/01	9:30 a	78.2	79.9	76.7	89	74.7	0.0	SSE	0.00	2.0	78.2	83.0	83.0	29.944	0.00	0.000	0.275	79.6	88	75.7	85.5	30
08/06/01	10:00 a	81.0	82.6	79.2	84	75.7	1.0	SSE	0.50	6.0	81.0	87.5	87.5	29.942	0.00	0.000	0.333	80.8	89	77.3	88.4	30
08/06/01	10:30 a	83.5	84.6	82.0	83	77.8	1.0	SSE	0.50	6.0	83.5	94.0	94.0	29.938	0.00	0.000	0.385	82.2	90	79.0	92.6	30
08/06/01	11:00 a	84.7	85.6	84.1	80	77.8	1.0	ESE	0.50	6.0	84.7	95.8	95.8	29.938	0.00	0.000	0.410	83.6	89	80.0	96.4	30
08/06/01	11:30 a	85.3	85.9	84.4	80	78.4	0.0	NE	0.00	7.0	85.3	97.1	97.1	29.936	0.00	0.000	0.423	84.7	87	80.4	98.6	30
08/06/01	12:00 p	86.3	87.9	85.0	75	77.4	3.0	ESE	1.50	14.0	86.3	97.8	97.8	29.930	0.00	0.000	0.444	85.4	87	81.1	100.6	30
08/06/01	12:30 p	87.9	88.6	87.3	76	79.4	3.0	NE	1.50	16.0	87.9	101.8	101.8	29.930	0.00	0.000	0.477	86.8	85	81.7	104.6	30
08/06/01	1:00 p	88.3	89.8	87.1	74	79.0	2.0	E	1.00	13.0	88.3	102.1	102.1	29.925	0.00	0.000	0.485	87.5	85	82.4	106.9	30
08/06/01	1:30 p	88.3	89.6	87.3	75	79.4	3.0	E	1.50	11.0	88.3	102.6	102.6	29.926	0.00	0.000	0.485	88.2	83	82.4	107.9	30
08/06/01	2:00 p	88.7	89.3	88.0	75	79.8	3.0	ESE	1.50	13.0	88.7	104.3	104.3	29.928	0.00	0.000	0.494	88.9	81	82.3	109.6	30
08/06/01	2:30 p	88.0	88.7	87.1	77	79.9	2.0	ESE	1.00	11.0	88.0	102.6	102.6	29.929	0.00	0.000	0.479	89.0	80	82.0	109.2	30
08/06/01	3:00 p	87.0	87.9	85.8	76	78.5	0.0	WSW	0.00	3.0	87.0	100.1	100.1	29.908	0.00	0.000	0.458	88.4	79	81.1	105.7	30
08/06/01	3:30 p	86.5	87.2	85.8	77	78.4	1.0	ESE	0.50	7.0	86.5	99.2	99.2	29.926	0.00	0.000	0.448	88.1	79	80.8	104.3	30
08/06/01	4:00 p	86.0	86.5	85.3	73	76.3	0.0	SW	0.00	5.0	86.0	96.3	96.3	29.917	0.00	0.000	0.438	87.8	77	79.7	102.2	30
08/06/01	4:30 p	84.4	85.7	83.7	78	76.8	1.0	SW	0.50	6.0	84.4	94.5	94.5	29.935	0.00	0.000	0.404	87.5	77	79.4	101.6	30
08/06/01	5:00 p	83.1	84.3	80.8	83	77.4	0.0	SSE	0.00	4.0	83.1	92.8	92.8	29.920	0.06	0.000	0.377	86.6	77	78.5	99.4	30
08/06/01	5:30 p	81.2	81.7	80.8	86	76.6	0.0	---	0.00	0.0	81.2	88.6	88.6	29.898	0.01	0.000	0.337	85.6	80	78.7	97.8	30
08/06/01	6:00 p	81.2	81.7	80.6	88	77.3	0.0	---	0.00	1.0	81.2	89.2	89.2	29.894	0.00	0.000	0.337	85.2	81	78.7	97.3	30
08/06/01	6:30 p	81.5	82.2	80.8	86	76.9	0.0	---	0.00	0.0	81.5	89.4	89.4	29.898	0.00	0.000	0.344	85.2	83	79.4	98.1	30
08/06/01	7:00 p	81.8	82.3	81.1	87	77.5	0.0	---	0.00	0.0	81.8	90.5	90.5	29.901	0.00	0.000	0.350	85.3	84	79.9	98.8	30
08/06/01	7:30 p	81.1	81.8	80.4	87	76.9	0.0	SSW	0.00	1.0	81.1	88.6	88.6	29.912	0.00	0.000	0.335	85.2	83	79.4	98.1	30
08/06/01	8:00 p	80.2	80.9	79.5	88	76.3	0.0	---	0.00	0.0	80.2	86.8	86.8	29.921	0.00	0.000	0.317	84.7	83	79.0	97.0	30
08/06/01	8:30 p	79.4	80.1	78.7	89	75.9	0.0	---	0.00	0.0	79.4	85.3	85.3	29.925	0.00	0.000	0.300	84.2	83	78.5	95.9	30
08/06/01	9:00 p	78.8	79.4	78.2	90	75.6	0.0	---	0.00	0.0	78.8	84.3	84.3	29.935	0.00	0.000	0.288	83.8	83	78.1	94.9	30
08/06/01	9:30 p	78.3	78.9	77.4	91	75.5	1.0	WNW	0.50	8.0	78.3	83.5	83.5	29.958	0.00	0.000	0.277	83.4	85	78.4	94.3	30
08/06/01	10:00 p	77.4	78.0	76.9	89	73.9	1.0	NW	0.50	5.0	77.4	81.6	81.6	29.964	0.00	0.000	0.258	83.0	83	77.3	92.5	30
08/06/01	10:30 p	76.8	77.5	76.2	89	73.3	0.0	W	0.00	2.0	76.8	80.6	80.6	29.969	0.00	0.000	0.246	82.4	82	76.3	90.6	30
08/06/01	11:00 p	76.2	76.9	75.6	91	73.4	0.0	---	0.00	0.0	76.2	79.9	79.9	29.960	0.00	0.000	0.233	81.7	82	75.7	88.8	30
08/06/01	11:30 p	75.6	76.3	75.1	92	73.1	0.0	---	0.00	0.0	75.6	79.2	79.2	29.957	0.00	0.000	0.221	81.2	83	75.5	87.8	30
08/07/01	12:00 a	75.4	75.9	75.0	92	72.9	0.0	---	0.00	0.0	75.4	79.0	79.0	29.956	0.00	0.000	0.217	80.8	84	75.5	87.1	30
08/07/01	12:30 a	75.2	75.7	74.7	93	73.0	0.0	---	0.00	0.0	75.2	78.8	78.8	29.952	0.00	0.000	0.212	80.5	84	75.2	86.5	30
08/07/01	1:00 a	75.1	75.6	74.6	93	72.9	0.0	---	0.00	0.0	75.1	78.7	78.7	29.948	0.00	0.000	0.210	80.2	85	75.3	86.0	30
08/07/01	1:30 a	75.1	75.5	74.6	94	73.3	0.0	---	0.00	0.0	75.1	78.8	78.8	29.950	0.00	0.000	0.210	80.0	86	75.4	85.8	30
08/07/01	2:00 a	75.1	75.5	74.6	94	73.3	0.0	---	0.00	0.0	75.1	78.8	78.8	29.944	0.00	0.000	0.210	79.8	86	75.2	85.5	30
08/07/01	2:30 a	75.0	75.5	74.5	94	73.2	0.0	---	0.00	0.0	75.0	78.6	78.6	29.942	0.00	0.000	0.208	79.7	87	75.5	85.5	30
08/07/01	3:00 a	74.9	75.4	74.4	94	73.1	0.0	---	0.00	0.0	74.9	78.5	78.5	29.941	0.00	0.000	0.206	79.5	87	75.3	85.1	30
08/07/01	3:30 a	74.8	75.2	74.3	95	73.3	0.0	---	0.00	0.0	74.8	78.4	78.4	29.935	0.00	0.000	0.204	79.3	88	75.4	84.9	30
08/07/01	4:00 a	74.7	75.2	74.3	95	73.2	0.0	---	0.00	0.0	74.7	78.2	78.2	29.933	0.00	0.000	0.202	79.2	88	75.3	84.7	30
08/07/01	4:30 a	74.8	75.2	74.3	95	73.3	0.0	---	0.00	0.0	74.8	78.4	78.4	29.926	0.00	0.000	0.204	79.0	89	75.5	84.5	30
08/07/01	5:00 a	74.7	75.1	74.2	95	73.2	0.0	---	0.00	0.0	74.7	78.2	78.2	29.924	0.00	0.000	0.202	78.9	89	75.4	84.3	30
08/07/01	5:30 a	74.6	75.1	74.1	95	73.1	0.0	---	0.00	0.0	74.6	78.0	78.0	29.921	0.00	0.000	0.200	78.7	89	75.2	83.9	30
08/07/01	6:00 a	74.5	74.9	74.0	96	73.3	0.0	---	0.00	0.0	74.5	77.9	77.9	29.923	0.00	0.000	0.198	78.6	90	75.4	83.9	30
08/07/01	6:30 a	74.4	74.9	73.9	96	73.2	0.0	---	0.00	0.0	74.4	77.8	77.8	29.935	0.00	0.000	0.196	78.5	89	75.0	83.6	30
08/07/01	7:00 a	74.4	74.9	74.0	96	73.2	0.0	---	0.00	0.0	74.4	77.8	77.8	29.945	0.00	0.000	0.196	78.4	88	74.5	83.2	30
08/07/01	7:30 a	74.5	75.0	74.0	96	73.3	0.0	---	0.00	0.0	74.5	77.9	77.9	29.946	0.00	0.000	0.198	78.4	88	74.5	83.2	30
08/07/01	8:00 a	75.0	75.8	74.3	98	74.4	0.0	---	0.00	0.0	75.0	78.8	78.8	29.953	0.00	0.000	0.208	78.4	88	74.5	83.2	30
08/07/01	8:30 a	76.4	77.5	75.3	98	75.8	0.0	NNE	0.00	2.0	76.4	80.9	80.9	29.960	0.00	0.000	0.238	78.7	88	74.8	83.8	30
08/07/01	9:00 a	77.7	78.6	76.9	95	76.2	0.0	NE	0.00	3.0	77.7	82.8	82.8	29.962	0.00	0.000	0.265	79.3	89	75.8	85.1	30
08/07/01	9:30 a	78.6	79.4	77.8	92	76.1	0.0	NNE	0.00	3.0	78.6	84.3	84.3	29.958	0.00	0.000	0.283	79.7	89	76.2	85.9	30
08/07/01	10:00 a	79.6	80.5	78.7	90	76.4	0.0	NNE	0.00	2.0	79.6	86.0	86.0	29.960	0.00	0.000	0.304	80.3	88	76.4	87.0	30
08/07/01	10:30 a	81.0	82.0	79.9	88	77.1	0.0	---	0.00	0.0	81.0	88.6	88.6	29.958	0.00	0.000	0.333	81.0	88	77.1	88.6	30
08/07/01	11:00 a	82.6	83.6	81.5	83	76.9	0.0	NNE	0.00	4.0	82.6	91.4	91.4	29.958	0.00	0.000	0.367	82.1	87	77.8	91.3	30
08/07/01	11:30 a	85.1	86.5	82.8	77	77.1	1.0	ENE	0.50	5.0	85.1	95.6	95.6	29.960	0.00	0.000	0.419	83.5	86	78.9	95.0	30
08/07/01	12:00 p	87.0	88.5	85.6	75	78.1	1.0	E	0.50	6.0	87.0	99.6	99.6	29.953	0.00	0.000	0.458	85.4	86	80.7	100.1	30
08/07/01	12:30 p	89.1	90.1	88.0	72	78.9	1.0	NE	0.50	7.0	89.1	103.9	103.9	29.941	0.00	0.000	0.502	87.2	86	82.5	107.0	30
08/07/01	1:00 p	90.4	91.0	89.4	71	79.7	1.0	NE	0.50	6.0	90.4	107.9	107.9	29.935	0.00	0.000	0.529	88.9	82	82.7	110.5	30
08/07/01	1:30 p	90.7	91.4	90.1	70	79.6	1.0	NE	0.50	11.0	90.7	108.0	108.0	29.923	0.00	0.000	0.535	90.0	81	83.4	114.7	30
08/07/01	2:00 p	90.3	91.7	89.3	71	79.6	2.0	NE	1.00	11.0	90.3	107.5	107.5	29.908	0.00	0.000	0.527	90.9	79	83.5	116.8	30
08/07/01	2:30 p	90.6	91.4	90.1	71	79.9	1.0	NE	0.50	8.0	90.6	108.5	108.5	29.911	0.00	0.000	0.533	91.5	78	83.7	118.8	30
08/07/01	3:00 p	91.0	92.2	89.9	70	79.8	1.0	NE	0.50	8.0	91.0	109.0	109.0	29.894	0.00	0.000	0.542	92.1	77	83.8	120.7	30
08/07/01	3:30 p	91.3	92.1	90.7	71	80.6	1.0	NE	0.50	8.0	91.3	110.9	110.9	29.885	0.00	0.000	0.548	92.5	76	83.8	121.5	30
08/07/01	4:00 p	89.6	90.9	88.6	75	80.6	1.0	NE	0.50	7.0	89.6	107.8	107.8	29.875	0.00	0.000	0.512	92.6	76	83.9	122.0	30
08/07/01	4:30 p	89.8	90.9	89.0	73	80.0	1.0	NE	0.50	9.0	89.8	107.2	107.2	29.865	0.00	0.000	0.517	92.1	76	83.4	119.5	30
08/07/01	5:00 p	91.3	92.2	89.8	66	78.3	1.0	ENE	0.50	8.0	91.3	107.2	107.2	29.848	0.00	0.000	0.548	92.5	74	83.0	119.0	30
08/07/01	5:30 p	91.5	93.0	90.1	71	80.8	2.0	NE	1.00	10.0	91.5	111.6	111.6	29.847	0.00	0.000	0.552	93.2	73	83.2	120.8	30
08/07/01	6:00 p	90.1	90.7	89.3	68	78.1	1.0	ENE	0.50	7.0	90.1	104.9	104.9	29.841	0.00	0.000	0.523	93.0	72	82.6	118.5	30
08/07/01	6:30 p	89.2	90.6	87.9	72	79.0	1.0	NE	0.50	6.0	89.2	104.3	104.3	29.834	0.00	0.000	0.504	92.7	71	81.9	116.0	30
08/07/01	7:00 p	87.9	88.7	87.0	72	77.7	0.0	ENE	0.00	5.0	87.9	99.8	99.8	29.833	0.00	0.000	0.477	92.1	70	80.9	112.6	30
08/07/01	7:30 p	86.9	87.5	86.1	73	77.2	0.0	ENE	0.00	4.0	86.9	98.5	98.5	29.838	0.00	0.000	0.456	91.0	70	79.8	109.0	30
08/07/01	8:00 p	85.9	86.5	85.2	76	77.5	0.0	NE	0.00	1.0	85.9	97.1	97.1	29.847	0.00	0.000	0.435	90.1	71	79.4	106.9	30
08/07/01	8:30 p	85.2	85.5	84.8	78	77.6	0.0	---	0.00	0.0	85.2	96.2	96.2	29.850	0.00	0.000	0.421	89.0	73	79.2	104.2	30
08/07/01	9:00 p	84.1	84.8	83.5	80	77.3	0.0	---	0.00	0.0	84.1	94.7	94.7	29.852	0.00	0.000	0.398	87.9	75	79.0	101.2	30
08/07/01	9:30 p	83.1	83.8	82.2	81	76.7	0.0	---	0.00	0.0	83.1	92.3	92.3	29.866	0.00	0.000	0.377	87.0	76	78.5	100.1	30
08/07/01	10:00 p	81.8	82.7	80.9	83	76.1	0.0	---	0.00	0.0	81.8	89.3	89.3	29.877	0.00	0.000	0.350	86.0	77	77.9	97.7	30
08/07/01	10:30 p	80.7	81.4	79.9	86	76.1	0.0	---	0.00	0.0	80.7	87.4	87.4	29.884	0.00	0.000	0.327	85.4	78	77.8	96.6	30
08/07/01	11:00 p	79.8	80.5	79.2	87	75.6	0.0	---	0.00	0.0	79.8	85.7	85.7	29.894	0.00	0.000	0.308	85.0	78	77.4	95.7	30
08/07/01	11:30 p	79.3	79.8	78.4	88	75.4	0.0	---	0.00	0.0	79.3	84.9	84.9	29.894	0.00	0.000	0.298	84.5	79	77.3	95.1	30
08/08/01	12:00 a	78.6	79.1	78.2	89	75.1	0.0	---	0.00	0.0	78.6	83.8	83.8	29.898	0.00	0.000	0.283	84.1	80	77.3	94.7	30
08/08/01	12:30 a	78.2	78.8	77.8	89	74.7	0.0	---	0.00	0.0	78.2	83.0	83.0	29.893	0.00	0.000	0.275	83.7	80	76.9	93.7	30
08/08/01	1:00 a	77.9	78.5	77.5	89	74.4	0.0	---	0.00	0.0	77.9	82.5	82.5	29.896	0.00	0.000	0.269	83.3	81	76.9	92.8	30
08/08/01	1:30 a	77.5	78.1	77.1	90	74.3	0.0	---	0.00	0.0	77.5	81.9	81.9	29.891	0.00	0.000	0.260	82.9	81	76.5	91.7	30
08/08/01	2:00 a	77.2	77.7	76.9	91	74.4	0.0	---	0.00	0.0	77.2	81.5	81.5	29.887	0.00	0.000	0.254	82.7	80	75.9	90.9	30
08/08/01	2:30 a	77.0	77.6	76.5	91	74.2	0.0	---	0.00	0.0	77.0	81.1	81.1	29.880	0.00	0.000	0.250	82.4	79	75.2	89.7	30
08/08/01	3:00 a	76.6	77.2	76.1	91	73.8	0.0	---	0.00	0.0	76.6	80.5	80.5	29.875	0.00	0.000	0.242	82.1	79	74.9	88.9	30
08/08/01	3:30 a	76.3	76.8	76.1	92	73.8	0.0	---	0.00	0.0	76.3	80.2	80.2	29.870	0.00	0.000	0.235	81.8	79	74.6	88.2	30
08/08/01	4:00 a	76.1	76.5	75.7	91	73.3	0.0	---	0.00	0.0	76.1	79.8	79.8	29.866	0.00	0.000	0.231	81.6	78	74.1	87.4	30
08/08/01	4:30 a	75.9	76.4	75.6	92	73.4	0.0	---	0.00	0.0	75.9	79.6	79.6	29.864	0.00	0.000	0.227	81.3	78	73.8	86.7	30
08/08/01	5:00 a	75.6	76.2	75.2	92	73.1	0.0	---	0.00	0.0	75.6	79.2	79.2	29.869	0.00	0.000	0.221	81.0	78	73.5	86.1	30
08/08/01	5:30 a	75.4	75.9	75.0	92	72.9	0.0	---	0.00	0.0	75.4	79.0	79.0	29.867	0.00	0.000	0.217	80.7	78	73.2	85.5	30
08/08/01	6:00 a	75.0	75.5	74.7	93	72.8	0.0	---	0.00	0.0	75.0	78.6	78.6	29.864	0.00	0.000	0.208	80.5	78	73.0	85.1	30
08/08/01	6:30 a	74.9	75.4	74.5	93	72.7	0.0	---	0.00	0.0	74.9	78.4	78.4	29.869	0.00	0.000	0.206	80.2	78	72.7	84.5	30
08/08/01	7:00 a	74.6	75.0	74.3	93	72.4	0.0	---	0.00	0.0	74.6	77.9	77.9	29.876	0.00	0.000	0.200	80.1	78	72.6	84.3	30
08/08/01	7:30 a	74.7	75.3	74.3	93	72.5	0.0	---	0.00	0.0	74.7	78.0	78.0	29.884	0.00	0.000	0.202	80.0	79	72.9	84.3	30
08/08/01	8:00 a	75.4	76.3	74.8	95	73.9	0.0	---	0.00	1.0	75.4	79.2	79.2	29.891	0.00	0.000	0.217	79.9	79	72.8	84.2	30
08/08/01	8:30 a	76.5	77.3	75.7	95	75.0	0.0	NE	0.00	2.0	76.5	80.8	80.8	29.902	0.00	0.000	0.240	80.1	81	73.7	84.9	30
08/08/01	9:00 a	77.7	78.7	76.8	93	75.5	0.0	NW	0.00	2.0	77.7	82.6	82.6	29.905	0.00	0.000	0.265	80.6	82	74.6	86.2	30
08/08/01	9:30 a	79.8	81.5	78.2	85	74.9	0.0	NW	0.00	2.0	79.8	85.2	85.2	29.901	0.00	0.000	0.308	81.6	82	75.6	88.5	30
08/08/01	10:00 a	82.5	84.0	81.0	76	74.2	0.0	NNW	0.00	2.0	82.5	89.1	89.1	29.898	0.00	0.000	0.365	82.9	83	77.2	92.3	30
08/08/01	10:30 a	85.0	86.4	83.7	70	74.1	0.0	NW	0.00	3.0	85.0	92.9	92.9	29.899	0.00	0.000	0.417	84.4	82	78.3	96.0	30
08/08/01	11:00 a	87.4	88.3	85.9	67	75.1	1.0	NW	0.50	5.0	87.4	96.9	96.9	29.897	0.00	0.000	0.467	85.9	80	79.0	98.6	30
08/08/01	11:30 a	88.4	89.4	87.6	64	74.7	1.0	N	0.50	7.0	88.4	97.5	97.5	29.894	0.00	0.000	0.488	87.5	77	79.4	101.6	30
08/08/01	12:00 p	89.9	90.8	88.9	64	76.1	1.0	ENE	0.50	6.0	89.9	101.9	101.9	29.886	0.00	0.000	0.519	88.8	76	80.3	105.4	30
08/08/01	12:30 p	90.7	91.7	89.9	62	75.9	1.0	NE	0.50	7.0	90.7	102.8	102.8	29.878	0.00	0.000	0.535	89.9	74	80.5	108.3	30
08/08/01	1:00 p	91.7	93.3	90.8	59	75.3	1.0	NE	0.50	9.0	91.7	103.6	103.6	29.866	0.00	0.000	0.556	90.9	72	80.6	110.4	30
08/08/01	1:30 p	93.2	93.7	92.6	56	75.2	1.0	N	0.50	6.0	93.2	105.8	105.8	29.853	0.00	0.000	0.587	91.9	69	80.3	111.2	30
08/08/01	2:00 p	93.5	94.6	92.7	56	75.4	1.0	NE	0.50	9.0	93.5	106.6	106.6	29.841	0.00	0.000	0.594	92.8	68	80.7	113.4	30
08/08/01	2:30 p	95.3	96.3	94.5	53	75.5	1.0	ENE	0.50	10.0	95.3	109.1	109.1	29.831	0.00	0.000	0.631	93.6	66	80.5	114.5	30
08/08/01	3:00 p	95.6	96.2	95.0	55	76.9	2.0	NE	1.00	10.0	95.6	111.7	111.7	29.819	0.00	0.000	0.637	94.3	65	80.7	116.0	30
08/08/01	3:30 p	95.1	96.0	94.3	55	76.4	1.0	NE	0.50	9.0	95.1	110.3	110.3	29.802	0.00	0.000	0.627	94.7	64	80.6	116.5	30
08/08/01	4:00 p	94.6	96.0	93.9	56	76.5	2.0	NE	1.00	11.0	94.6	109.6	109.6	29.790	0.00	0.000	0.617	95.1	63	80.5	116.9	30
08/08/01	4:30 p	94.5	95.2	93.8	54	75.3	1.0	ENE	0.50	10.0	94.5	107.8	107.8	29.780	0.00	0.000	0.615	95.4	62	80.3	117.0	30
08/08/01	5:00 p	93.6	94.5	92.8	58	76.6	2.0	NE	1.00	9.0	93.6	108.2	108.2	29.775	0.00	0.000	0.596	95.8	60	79.7	116.4	30
08/08/01	5:30 p	93.7	94.7	92.9	58	76.7	2.0	ESE	1.00	10.0	93.7	108.4	108.4	29.765	0.00	0.000	0.598	96.1	60	80.0	117.4	30
08/08/01	6:00 p	93.2	93.9	92.7	57	75.7	2.0	NE	1.00	12.0	93.2	106.4	106.4	29.763	0.00	0.000	0.587	96.1	60	80.0	117.4	30
08/08/01	6:30 p	92.7	93.7	91.6	59	76.3	1.0	ESE	0.50	8.0	92.7	106.3	106.3	29.764	0.00	0.000	0.577	95.7	60	79.6	116.1	30
08/08/01	7:00 p	91.5	92.2	90.3	61	76.1	1.0	ESE	0.50	8.0	91.5	104.3	104.3	29.765	0.00	0.000	0.552	95.0	59	78.4	113.0	30
08/08/01	7:30 p	90.0	90.7	89.2	63	75.7	1.0	ESE	0.50	7.0	90.0	101.6	101.6	29.757	0.00	0.000	0.521	93.7	60	77.7	109.8	30
08/08/01	8:00 p	88.1	89.7	87.0	68	76.2	0.0	ESE	0.00	8.0	88.1	98.4	98.4	29.763	0.00	0.000	0.481	92.5	62	77.6	107.8	30
08/08/01	8:30 p	86.2	87.3	85.3	72	76.1	0.0	---	0.00	0.0	86.2	96.5	96.5	29.771	0.00	0.000	0.442	91.3	64	77.4	105.8	30
08/08/01	9:00 p	85.0	85.7	84.2	73	75.4	0.0	---	0.00	1.0	85.0	93.9	93.9	29.776	0.00	0.000	0.417	90.3	65	76.9	103.6	30
08/08/01	9:30 p	83.9	84.7	83.2	75	75.1	0.0	---	0.00	0.0	83.9	92.4	92.4	29.790	0.00	0.000	0.394	89.4	67	77.0	102.0	30
08/08/01	10:00 p	83.1	83.7	82.4	78	75.5	0.0	---	0.00	0.0	83.1	91.3	91.3	29.802	0.00	0.000	0.377	88.6	68	76.7	100.0	30
08/08/01	10:30 p	82.2	82.9	81.5	81	75.8	0.0	---	0.00	0.0	82.2	89.8	89.8	29.818	0.00	0.000	0.358	88.0	69	76.5	98.6	30
08/08/01	11:00 p	81.4	82.0	80.8	82	75.4	0.0	---	0.00	0.0	81.4	88.0	88.0	29.827	0.00	0.000	0.342	87.4	70	76.4	98.1	30
08/08/01	11:30 p	80.8	81.3	80.4	83	75.2	0.0	---	0.00	0.0	80.8	86.9	86.9	29.834	0.00	0.000	0.329	86.8	72	76.7	97.9	30
08/09/01	12:00 a	80.4	80.9	79.7	84	75.1	0.0	---	0.00	0.0	80.4	86.2	86.2	29.839	0.00	0.000	0.321	86.2	73	76.5	96.8	30
08/09/01	12:30 a	79.6	80.3	79.2	86	75.0	0.0	---	0.00	0.0	79.6	85.1	85.1	29.847	0.00	0.000	0.304	85.6	74	76.4	95.7	30
08/09/01	1:00 a	79.4	79.8	79.0	86	74.8	0.0	---	0.00	0.0	79.4	84.7	84.7	29.846	0.00	0.000	0.300	85.2	75	76.4	95.1	30
08/09/01	1:30 a	79.1	79.6	78.5	87	74.9	0.0	---	0.00	0.0	79.1	84.3	84.3	29.840	0.00	0.000	0.294	84.7	76	76.3	94.4	30
08/09/01	2:00 a	78.7	79.2	78.1	87	74.5	0.0	---	0.00	0.0	78.7	83.6	83.6	29.836	0.00	0.000	0.285	84.3	77	76.3	94.0	30
08/09/01	2:30 a	78.2	78.7	77.7	88	74.4	0.0	---	0.00	0.0	78.2	82.9	82.9	29.825	0.00	0.000	0.275	83.9	77	75.9	93.2	30
08/09/01	3:00 a	77.9	78.4	77.6	88	74.1	0.0	---	0.00	0.0	77.9	82.4	82.4	29.822	0.00	0.000	0.269	83.6	75	74.8	91.7	30
08/09/01	3:30 a	77.9	78.3	77.4	89	74.4	0.0	---	0.00	1.0	77.9	82.5	82.5	29.827	0.00	0.000	0.269	83.4	76	75.0	91.5	30
08/09/01	4:00 a	77.7	78.1	77.3	89	74.2	0.0	ESE	0.00	1.0	77.7	82.1	82.1	29.826	0.00	0.000	0.265	83.2	76	74.8	90.9	30
08/09/01	4:30 a	77.4	78.0	76.9	91	74.6	0.0	---	0.00	1.0	77.4	81.8	81.8	29.827	0.00	0.000	0.258	82.8	75	74.1	89.6	30
08/09/01	5:00 a	77.2	77.5	76.8	90	74.0	0.0	---	0.00	0.0	77.2	81.4	81.4	29.830	0.00	0.000	0.254	82.7	75	74.0	89.3	30
08/09/01	5:30 a	77.0	77.4	76.5	91	74.2	0.0	---	0.00	0.0	77.0	81.1	81.1	29.827	0.00	0.000	0.250	82.5	75	73.8	88.8	30
08/09/01	6:00 a	76.6	77.1	76.2	91	73.8	0.0	---	0.00	0.0	76.6	80.5	80.5	29.828	0.00	0.000	0.242	82.1	74	73.0	87.5	30
08/09/01	6:30 a	76.4	76.8	76.0	91	73.6	0.0	---	0.00	0.0	76.4	80.2	80.2	29.827	0.00	0.000	0.238	81.9	74	72.8	87.1	30
08/09/01	7:00 a	76.2	76.6	75.7	92	73.7	0.0	---	0.00	0.0	76.2	80.0	80.0	29.828	0.00	0.000	0.233	81.7	75	73.0	86.9	30
08/09/01	7:30 a	76.1	76.6	75.7	91	73.3	0.0	---	0.00	0.0	76.1	79.8	79.8	29.837	0.00	0.000	0.231	81.5	75	72.8	86.4	30
08/09/01	8:00 a	76.8	77.4	76.1	93	74.6	0.0	---	0.00	0.0	76.8	81.0	81.0	29.833	0.00	0.000	0.246	81.4	75	72.7	86.2	30
08/09/01	8:30 a	77.6	78.4	76.9	92	75.1	0.0	ESE	0.00	1.0	77.6	82.3	82.3	29.836	0.00	0.000	0.262	81.5	76	73.2	86.7	30
08/09/01	9:00 a	78.8	79.7	78.0	89	75.3	0.0	ESE	0.00	3.0	78.8	84.1	84.1	29.842	0.00	0.000	0.288	81.9	77	74.0	87.8	30
08/09/01	9:30 a	80.9	82.6	79.1	82	74.9	0.0	WSW	0.00	1.0	80.9	86.8	86.8	29.850	0.00	0.000	0.331	83.0	78	75.4	91.1	30
08/09/01	10:00 a	83.2	84.8	82.2	76	74.8	0.0	SW	0.00	2.0	83.2	90.9	90.9	29.853	0.00	0.000	0.379	84.1	79	76.9	94.3	30
08/09/01	10:30 a	84.7	85.3	84.2	75	75.9	0.0	NNW	0.00	2.0	84.7	94.0	94.0	29.848	0.00	0.000	0.410	85.2	79	77.9	96.5	30
08/09/01	11:00 a	86.3	87.7	84.8	72	76.2	0.0	E	0.00	4.0	86.3	96.7	96.7	29.852	0.00	0.000	0.444	86.5	78	78.8	99.6	30
08/09/01	11:30 a	88.5	89.6	87.4	66	75.7	1.0	NE	0.50	6.0	88.5	98.7	98.7	29.850	0.00	0.000	0.490	88.0	76	79.5	102.0	30
08/09/01	12:00 p	90.0	90.8	89.0	65	76.6	1.0	NE	0.50	7.0	90.0	102.8	102.8	29.852	0.00	0.000	0.521	89.4	74	80.0	106.4	30
08/09/01	12:30 p	91.5	92.7	90.4	62	76.6	1.0	E	0.50	5.0	91.5	105.0	105.0	29.846	0.00	0.000	0.552	90.5	71	79.8	108.2	30
08/09/01	1:00 p	92.8	93.3	92.3	55	74.3	1.0	ENE	0.50	8.0	92.8	104.1	104.1	29.842	0.00	0.000	0.579	91.6	68	79.5	109.5	30
08/09/01	1:30 p	93.7	94.9	92.8	56	75.6	2.0	E	1.00	11.0	93.7	107.1	107.1	29.826	0.00	0.000	0.598	92.6	67	80.0	112.0	30
08/09/01	2:00 p	94.9	95.6	94.0	54	75.7	2.0	NE	1.00	9.0	94.9	108.9	108.9	29.818	0.00	0.000	0.623	93.6	65	80.1	113.6	30
08/09/01	2:30 p	94.8	95.5	93.8	55	76.1	2.0	ENE	1.00	9.0	94.8	109.4	109.4	29.800	0.00	0.000	0.621	94.3	64	80.2	115.1	30
08/09/01	3:00 p	94.3	95.3	93.7	55	75.6	3.0	NE	1.50	11.0	94.3	108.0	108.0	29.789	0.00	0.000	0.610	94.9	63	80.3	116.2	30
08/09/01	3:30 p	95.7	96.4	94.6	55	76.9	3.0	ESE	1.50	15.0	95.7	112.0	112.0	29.787	0.00	0.000	0.640	95.4	62	80.3	117.0	30
08/09/01	4:00 p	92.5	94.7	90.8	61	77.1	2.0	ESE	1.00	12.0	92.5	107.1	107.1	29.775	0.00	0.000	0.573	95.1	61	79.5	115.1	30
08/09/01	4:30 p	91.7	93.7	90.3	57	74.3	3.0	ESE	1.50	14.0	91.7	102.5	102.5	29.776	0.00	0.000	0.556	94.1	62	79.1	112.7	30
08/09/01	5:00 p	93.0	94.4	91.4	60	77.1	2.0	ESE	1.00	11.0	93.0	107.7	107.7	29.775	0.00	0.000	0.583	94.3	61	78.8	112.5	30
08/09/01	5:30 p	91.1	92.0	90.0	62	76.3	1.0	SE	0.50	9.0	91.1	103.9	103.9	29.780	0.00	0.000	0.544	93.8	61	78.3	110.9	30
08/09/01	6:00 p	89.6	90.5	88.0	65	76.3	0.0	NE	0.00	6.0	89.6	101.5	101.5	29.782	0.00	0.000	0.512	92.9	61	77.5	108.2	30
08/09/01	6:30 p	88.4	88.8	87.9	64	74.7	0.0	ESE	0.00	6.0	88.4	97.5	97.5	29.777	0.00	0.000	0.488	91.9	62	77.0	106.1	30
08/09/01	7:00 p	88.1	88.7	87.3	66	75.3	0.0	SE	0.00	5.0	88.1	97.5	97.5	29.775	0.00	0.000	0.481	91.1	63	76.7	104.6	30
08/09/01	7:30 p	87.1	87.9	86.2	68	75.3	0.0	---	0.00	0.0	87.1	96.9	96.9	29.781	0.00	0.000	0.460	90.4	65	77.0	103.9	30
08/09/01	8:00 p	86.4	86.9	85.8	70	75.5	0.0	---	0.00	0.0	86.4	96.2	96.2	29.788	0.00	0.000	0.446	89.8	66	76.9	102.7	30
08/09/01	8:30 p	85.4	86.3	84.5	74	76.2	0.0	---	0.00	0.0	85.4	95.2	95.2	29.794	0.00	0.000	0.425	89.1	68	77.2	101.6	30
08/09/01	9:00 p	83.9	84.9	83.2	77	75.9	0.0	---	0.00	0.0	83.9	93.2	93.2	29.789	0.00	0.000	0.394	88.3	69	76.8	99.5	30
08/09/01	9:30 p	82.8	83.5	82.1	79	75.6	0.0	---	0.00	0.0	82.8	90.8	90.8	29.800	0.00	0.000	0.371	87.6	70	76.6	98.4	30
08/09/01	10:00 p	82.1	82.6	81.5	80	75.3	0.0	---	0.00	0.0	82.1	89.2	89.2	29.809	0.00	0.000	0.356	87.2	71	76.6	98.2	30
08/09/01	10:30 p	81.4	82.1	80.8	82	75.4	0.0	---	0.00	0.0	81.4	88.0	88.0	29.813	0.00	0.000	0.342	86.7	72	76.6	97.6	30
08/09/01	11:00 p	80.9	81.4	80.4	82	74.9	0.0	---	0.00	0.0	80.9	86.8	86.8	29.824	0.00	0.000	0.331	86.2	73	76.5	96.8	30
08/09/01	11:30 p	80.5	81.0	79.9	83	74.9	0.0	---	0.00	0.0	80.5	86.2	86.2	29.831	0.00	0.000	0.323	85.8	74	76.5	96.2	30
08/10/01	12:00 a	79.9	80.5	79.4	85	75.0	0.0	---	0.00	0.0	79.9	85.4	85.4	29.830	0.00	0.000	0.310	85.3	75	76.5	95.3	30
08/10/01	12:30 a	79.5	80.0	78.9	88	75.6	0.0	SE	0.00	1.0	79.5	85.3	85.3	29.830	0.00	0.000	0.302	85.0	76	76.6	95.0	30
08/10/01	1:00 a	79.1	79.6	78.6	87	74.9	0.0	---	0.00	0.0	79.1	84.3	84.3	29.828	0.00	0.000	0.294	84.7	76	76.3	94.4	30
08/10/01	1:30 a	78.8	79.3	78.2	87	74.6	0.0	---	0.00	1.0	78.8	83.8	83.8	29.826	0.00	0.000	0.288	84.3	77	76.3	94.0	30
08/10/01	2:00 a	78.4	78.9	77.9	88	74.5	0.0	---	0.00	0.0	78.4	83.2	83.2	29.817	0.00	0.000	0.279	83.8	77	75.8	92.9	30
08/10/01	2:30 a	77.9	78.5	77.4	88	74.1	0.0	---	0.00	0.0	77.9	82.4	82.4	29.813	0.00	0.000	0.269	83.4	77	75.4	91.8	30
08/10/01	3:00 a	77.6	78.1	77.2	89	74.1	0.0	---	0.00	0.0	77.6	82.0	82.0	29.803	0.00	0.000	0.262	83.1	78	75.5	91.3	30
08/10/01	3:30 a	77.3	77.9	76.9	89	73.8	0.0	---	0.00	0.0	77.3	81.4	81.4	29.796	0.00	0.000	0.256	82.8	78	75.2	90.5	30
08/10/01	4:00 a	77.2	77.6	76.7	90	74.0	0.0	---	0.00	0.0	77.2	81.4	81.4	29.800	0.00	0.000	0.254	82.4	79	75.2	89.7	30
08/10/01	4:30 a	77.0	77.5	76.5	90	73.8	0.0	---	0.00	0.0	77.0	81.0	81.0	29.800	0.00	0.000	0.250	82.2	79	75.0	89.2	30
08/10/01	5:00 a	76.9	77.3	76.5	91	74.1	0.0	---	0.00	0.0	76.9	80.9	80.9	29.802	0.00	0.000	0.248	82.0	80	75.2	88.9	30
08/10/01	5:30 a	77.0	77.4	76.5	91	74.2	0.0	SE	0.00	1.0	77.0	81.1	81.1	29.807	0.00	0.000	0.250	81.8	80	75.0	88.4	30
08/10/01	6:00 a	77.0	77.4	76.6	91	74.2	0.0	---	0.00	1.0	77.0	81.1	81.1	29.806	0.00	0.000	0.250	81.6	81	75.2	88.2	30
08/10/01	6:30 a	76.8	77.4	76.3	91	74.0	0.0	---	0.00	0.0	76.8	80.8	80.8	29.814	0.00	0.000	0.246	81.5	81	75.1	88.0	30
08/10/01	7:00 a	76.6	77.1	76.1	92	74.1	0.0	---	0.00	0.0	76.6	80.6	80.6	29.823	0.00	0.000	0.242	81.3	82	75.3	87.8	30
08/10/01	7:30 a	76.6	77.3	76.1	92	74.1	0.0	---	0.00	0.0	76.6	80.6	80.6	29.832	0.00	0.000	0.242	81.1	83	75.4	87.5	30
08/10/01	8:00 a	77.6	78.7	76.6	91	74.8	0.0	SE	0.00	1.0	77.6	82.2	82.2	29.840	0.00	0.000	0.262	81.3	84	76.0	88.3	30
08/10/01	8:30 a	79.1	80.2	77.9	89	75.6	0.0	SE	0.00	3.0	79.1	84.7	84.7	29.842	0.00	0.000	0.294	81.8	84	76.5	89.6	30
08/10/01	9:00 a	80.5	81.6	79.6	84	75.2	0.0	SSW	0.00	4.0	80.5	86.5	86.5	29.854	0.00	0.000	0.323	82.6	85	77.6	92.0	30
08/10/01	9:30 a	82.0	83.3	81.0	81	75.6	0.0	SW	0.00	5.0	82.0	89.2	89.2	29.850	0.00	0.000	0.354	83.6	86	79.0	95.3	30
08/10/01	10:00 a	84.5	85.5	82.9	77	76.5	0.0	SW	0.00	4.0	84.5	94.4	94.4	29.842	0.00	0.000	0.406	84.9	84	79.5	97.8	30
08/10/01	10:30 a	85.7	86.9	84.7	75	76.9	1.0	NW	0.50	6.0	85.7	96.3	96.3	29.834	0.00	0.000	0.431	86.0	83	80.2	100.2	30
08/10/01	11:00 a	87.2	88.5	86.1	72	77.1	0.0	NW	0.00	5.0	87.2	98.7	98.7	29.836	0.00	0.000	0.462	87.1	81	80.6	103.0	30
08/10/01	11:30 a	89.0	89.9	87.9	72	78.8	1.0	NW	0.50	7.0	89.0	103.6	103.6	29.834	0.00	0.000	0.500	88.3	79	81.0	105.2	30
08/10/01	12:00 p	88.1	89.0	87.2	72	77.9	0.0	NNE	0.00	1.0	88.1	100.3	100.3	29.831	0.00	0.000	0.481	89.0	78	81.2	107.7	30
08/10/01	12:30 p	86.9	87.8	86.3	77	78.8	0.0	ENE	0.00	2.0	86.9	100.3	100.3	29.822	0.00	0.000	0.456	89.0	77	80.8	107.0	30
08/10/01	1:00 p	86.5	87.2	85.4	80	79.6	0.0	E	0.00	4.0	86.5	100.4	100.4	29.825	0.00	0.000	0.448	88.7	76	80.2	105.0	30
08/10/01	1:30 p	85.0	85.9	84.1	85	80.0	0.0	S	0.00	4.0	85.0	98.4	98.4	29.815	0.01	0.000	0.417	87.9	79	80.6	103.6	30
08/10/01	2:00 p	84.4	85.4	83.8	84	79.0	0.0	SE	0.00	5.0	84.4	96.7	96.7	29.807	0.00	0.000	0.404	87.4	80	80.5	103.0	30
08/10/01	2:30 p	87.5	89.8	84.8	72	77.4	2.0	ESE	1.00	13.0	87.5	99.1	99.1	29.795	0.00	0.000	0.469	88.0	79	80.7	103.8	30
08/10/01	3:00 p	90.7	92.2	89.5	67	78.2	3.0	ESE	1.50	13.0	90.7	106.1	106.1	29.781	0.00	0.000	0.535	89.9	77	81.7	110.6	30
08/10/01	3:30 p	92.0	93.1	91.1	66	79.0	4.0	ESE	2.00	14.0	92.0	109.3	109.3	29.779	0.00	0.000	0.563	91.5	75	82.4	115.6	30
08/10/01	4:00 p	90.1	92.3	88.5	72	79.8	3.0	ESE	1.50	13.0	90.1	107.6	107.6	29.763	0.00	0.000	0.523	91.8	72	81.5	113.8	30
08/10/01	4:30 p	87.7	88.9	86.7	75	78.8	2.0	ESE	1.00	13.0	87.7	100.9	100.9	29.766	0.00	0.000	0.473	90.9	72	80.6	110.4	30
08/10/01	5:00 p	86.3	87.2	85.3	78	78.6	1.0	SE	0.50	8.0	86.3	99.0	99.0	29.766	0.00	0.000	0.444	89.9	73	80.1	107.6	30
08/10/01	5:30 p	85.3	85.9	84.5	80	78.4	0.0	S	0.00	5.0	85.3	97.1	97.1	29.766	0.00	0.000	0.423	89.1	74	79.7	105.2	30
08/10/01	6:00 p	84.5	85.1	83.8	81	78.0	0.0	S	0.00	5.0	84.5	95.8	95.8	29.768	0.00	0.000	0.406	88.6	75	79.7	103.9	30
08/10/01	6:30 p	84.0	84.5	83.6	81	77.5	0.0	SSE	0.00	4.0	84.0	94.8	94.8	29.769	0.00	0.000	0.396	88.2	76	79.7	102.8	30
08/10/01	7:00 p	83.8	84.2	83.2	78	76.2	0.0	S	0.00	5.0	83.8	93.2	93.2	29.768	0.00	0.000	0.392	87.6	75	78.7	100.7	30
08/10/01	7:30 p	83.4	83.9	82.9	79	76.2	0.0	S	0.00	2.0	83.4	92.5	92.5	29.768	0.00	0.000	0.383	87.2	75	78.3	100.0	30
08/10/01	8:00 p	82.9	83.6	82.0	82	76.8	0.0	NNW	0.00	1.0	82.9	92.0	92.0	29.772	0.00	0.000	0.373	86.9	76	78.4	99.8	30
08/10/01	8:30 p	81.6	82.3	81.1	84	76.3	0.0	---	0.00	0.0	81.6	89.1	89.1	29.786	0.00	0.000	0.346	86.2	77	78.1	98.3	30
08/10/01	9:00 p	81.1	81.5	80.5	86	76.5	0.0	---	0.00	1.0	81.1	88.3	88.3	29.802	0.00	0.000	0.335	85.5	78	77.9	96.9	30
08/10/01	9:30 p	80.4	80.8	79.9	86	75.8	0.0	---	0.00	1.0	80.4	86.7	86.7	29.814	0.00	0.000	0.321	85.1	78	77.5	95.9	30
08/10/01	10:00 p	79.6	80.3	79.1	87	75.4	0.0	NNW	0.00	2.0	79.6	85.3	85.3	29.834	0.00	0.000	0.304	84.6	79	77.4	95.3	30
08/10/01	10:30 p	79.2	79.7	78.5	87	75.0	0.0	NNW	0.00	3.0	79.2	84.5	84.5	29.847	0.00	0.000	0.296	84.3	79	77.1	94.7	30
08/10/01	11:00 p	78.8	79.2	78.2	88	74.9	0.0	---	0.00	0.0	78.8	83.9	83.9	29.846	0.00	0.000	0.288	84.0	79	76.8	94.1	30
08/10/01	11:30 p	78.3	79.0	77.6	88	74.5	0.0	NW	0.00	4.0	78.3	83.1	83.1	29.845	0.00	0.000	0.277	83.8	79	76.6	93.6	30
08/11/01	12:00 a	77.7	78.3	77.2	86	73.2	0.0	NW	0.00	4.0	77.7	81.8	81.8	29.840	0.00	0.000	0.265	83.4	78	75.8	92.1	30
08/11/01	12:30 a	77.4	77.8	77.0	86	72.9	0.0	NW	0.00	2.0	77.4	81.3	81.3	29.837	0.00	0.000	0.258	83.0	78	75.4	91.1	30
08/11/01	1:00 a	77.0	77.5	76.4	87	72.8	0.0	---	0.00	0.0	77.0	80.8	80.8	29.825	0.00	0.000	0.250	82.6	78	75.0	90.0	30
08/11/01	1:30 a	76.4	77.0	75.9	88	72.6	0.0	---	0.00	0.0	76.4	80.0	80.0	29.817	0.00	0.000	0.238	82.1	78	74.6	88.6	30
08/11/01	2:00 a	76.0	76.6	75.6	88	72.2	0.0	---	0.00	0.0	76.0	79.4	79.4	29.807	0.00	0.000	0.229	81.7	78	74.2	87.7	30
08/11/01	2:30 a	75.5	76.1	74.9	89	72.0	0.0	---	0.00	1.0	75.5	78.9	78.9	29.810	0.00	0.000	0.219	81.2	79	74.1	86.7	30
08/11/01	3:00 a	75.1	75.6	74.6	89	71.6	0.0	---	0.00	0.0	75.1	78.4	78.4	29.814	0.00	0.000	0.210	80.8	79	73.7	85.9	30
08/11/01	3:30 a	74.9	75.2	74.4	90	71.8	0.0	---	0.00	0.0	74.9	78.2	78.2	29.814	0.00	0.000	0.206	80.5	80	73.8	85.5	30
08/11/01	4:00 a	74.7	75.1	74.3	90	71.6	0.0	---	0.00	0.0	74.7	77.8	77.8	29.821	0.00	0.000	0.202	80.2	80	73.5	84.9	30
08/11/01	4:30 a	74.5	74.9	74.0	91	71.7	0.0	---	0.00	0.0	74.5	77.5	77.5	29.825	0.00	0.000	0.198	79.9	80	73.2	84.3	30
08/11/01	5:00 a	74.4	74.8	73.9	91	71.6	0.0	---	0.00	0.0	74.4	77.3	77.3	29.821	0.00	0.000	0.196	79.8	79	72.7	84.0	30
08/11/01	5:30 a	74.3	74.7	73.8	92	71.8	0.0	---	0.00	0.0	74.3	77.2	77.2	29.821	0.00	0.000	0.194	79.7	78	72.2	83.6	30
08/11/01	6:00 a	74.1	74.4	73.7	92	71.6	0.0	---	0.00	0.0	74.1	76.8	76.8	29.818	0.00	0.000	0.190	79.5	79	72.4	83.5	30
08/11/01	6:30 a	74.0	74.3	73.5	92	71.5	0.0	---	0.00	0.0	74.0	76.6	76.6	29.835	0.00	0.000	0.188	79.4	78	71.9	83.1	30
08/11/01	7:00 a	73.9	74.2	73.4	92	71.4	0.0	---	0.00	0.0	73.9	76.5	76.5	29.839	0.00	0.000	0.185	79.2	78	71.7	82.8	30
08/11/01	7:30 a	73.9	74.2	73.4	93	71.7	0.0	---	0.00	0.0	73.9	76.7	76.7	29.851	0.00	0.000	0.185	79.1	79	72.0	82.8	30
08/11/01	8:00 a	74.4	75.0	73.8	93	72.2	0.0	---	0.00	0.0	74.4	77.5	77.5	29.862	0.00	0.000	0.196	79.2	81	72.9	83.3	30
08/11/01	8:30 a	75.2	76.2	74.5	95	73.7	0.0	---	0.00	0.0	75.2	79.0	79.0	29.869	0.01	0.000	0.212	79.5	83	73.9	84.3	30
08/11/01	9:00 a	77.2	78.9	75.4	91	74.4	0.0	NW	0.00	2.0	77.2	81.5	81.5	29.870	0.00	0.000	0.254	80.3	86	75.7	86.5	30
08/11/01	9:30 a	80.2	82.1	78.2	85	75.3	0.0	E	0.00	4.0	80.2	86.0	86.0	29.869	0.00	0.000	0.317	81.8	88	77.9	90.9	30
08/11/01	10:00 a	83.3	84.7	81.5	81	76.9	1.0	S	0.50	6.0	83.3	92.8	92.8	29.871	0.00	0.000	0.381	83.5	88	79.6	95.7	30
08/11/01	10:30 a	85.2	86.2	84.1	80	78.3	1.0	SSE	0.50	7.0	85.2	96.9	96.9	29.875	0.00	0.000	0.421	84.9	86	80.2	98.7	30
08/11/01	11:00 a	86.2	88.1	84.7	73	76.5	1.0	ESE	0.50	7.0	86.2	96.8	96.8	29.878	0.00	0.000	0.442	86.0	84	80.6	100.7	30
08/11/01	11:30 a	87.8	88.9	86.8	76	79.3	1.0	ESE	0.50	8.0	87.8	101.6	101.6	29.871	0.00	0.000	0.475	87.6	82	81.4	105.0	30
08/11/01	12:00 p	86.5	87.5	85.1	79	79.2	1.0	ESE	0.50	13.0	86.5	100.0	100.0	29.867	0.13	0.000	0.448	88.1	81	81.5	105.7	30
08/11/01	12:30 p	84.8	85.7	84.2	80	77.9	0.0	NNE	0.00	2.0	84.8	96.0	96.0	29.861	0.00	0.000	0.413	87.5	81	80.9	104.0	30
08/11/01	1:00 p	86.5	87.6	85.3	74	77.2	1.0	NE	0.50	8.0	86.5	97.9	97.9	29.861	0.00	0.000	0.448	88.3	81	81.7	106.7	30
08/11/01	1:30 p	83.7	86.1	82.3	84	78.3	0.0	WNW	0.00	6.0	83.7	94.9	94.9	29.846	0.03	0.000	0.390	88.1	78	80.4	103.7	30
08/11/01	2:00 p	81.9	82.8	81.1	85	76.9	0.0	SSW	0.00	2.0	81.9	90.1	90.1	29.843	0.00	0.000	0.352	86.7	79	79.4	100.7	30
08/11/01	2:30 p	81.2	82.0	80.7	87	77.0	0.0	NNW	0.00	1.0	81.2	88.9	88.9	29.838	0.00	0.000	0.337	85.8	80	78.9	98.3	30
08/11/01	3:00 p	83.0	84.3	81.4	79	75.8	1.0	ESE	0.50	8.0	83.0	91.4	91.4	29.815	0.00	0.000	0.375	86.1	81	79.6	99.6	30
08/11/01	3:30 p	86.4	88.6	83.8	67	74.1	3.0	ESE	1.50	14.0	86.4	95.0	95.0	29.813	0.00	0.000	0.446	87.0	80	80.1	102.1	30
08/11/01	4:00 p	89.1	90.1	87.9	69	77.6	3.0	ESE	1.50	13.0	89.1	102.1	102.1	29.805	0.00	0.000	0.502	88.7	77	80.6	105.7	30
08/11/01	4:30 p	87.1	88.3	86.1	74	77.8	2.0	ESE	1.00	10.0	87.1	99.4	99.4	29.815	0.00	0.000	0.460	89.3	76	80.7	107.4	30
08/11/01	5:00 p	85.7	86.7	84.7	74	76.5	1.0	SE	0.50	10.0	85.7	95.9	95.9	29.805	0.00	0.000	0.431	88.6	74	79.2	103.3	30
08/11/01	5:30 p	84.4	85.3	83.5	76	76.0	1.0	SE	0.50	8.0	84.4	93.8	93.8	29.802	0.00	0.000	0.404	87.8	74	78.5	100.6	30
08/11/01	6:00 p	83.4	84.1	82.7	79	76.2	0.0	SE	0.00	5.0	83.4	92.5	92.5	29.827	0.00	0.000	0.383	87.1	75	78.2	99.8	30
08/11/01	6:30 p	82.0	83.3	80.8	80	75.2	0.0	SW	0.00	4.0	82.0	88.9	88.9	29.818	0.01	0.000	0.354	86.4	75	77.5	98.0	30
08/11/01	7:00 p	80.6	81.4	79.8	83	75.0	0.0	---	0.00	0.0	80.6	86.4	86.4	29.807	0.00	0.000	0.325	85.5	75	76.7	95.8	30
08/11/01	7:30 p	79.6	80.5	78.9	85	74.7	0.0	---	0.00	1.0	79.6	84.8	84.8	29.823	0.00	0.000	0.304	84.9	76	76.5	94.8	30
08/11/01	8:00 p	79.2	79.8	78.5	87	75.0	0.0	---	0.00	0.0	79.2	84.5	84.5	29.826	0.00	0.000	0.296	84.5	77	76.5	94.4	30
08/11/01	8:30 p	78.6	79.2	78.0	88	74.7	0.0	SW	0.00	1.0	78.6	83.6	83.6	29.831	0.00	0.000	0.283	84.1	78	76.5	94.0	30
08/11/01	9:00 p	78.1	78.6	77.6	88	74.3	0.0	SE	0.00	5.0	78.1	82.7	82.7	29.836	0.00	0.000	0.273	83.5	78	75.9	92.4	30
08/11/01	9:30 p	78.2	78.8	77.7	90	75.0	0.0	SE	0.00	5.0	78.2	83.2	83.2	29.851	0.00	0.000	0.275	83.1	80	76.3	92.0	30
08/11/01	10:00 p	78.5	79.0	78.0	90	75.3	0.0	SE	0.00	4.0	78.5	83.8	83.8	29.865	0.00	0.000	0.281	83.0	81	76.6	92.0	30
08/11/01	10:30 p	78.4	79.0	77.7	91	75.6	0.0	---	0.00	1.0	78.4	83.7	83.7	29.872	0.00	0.000	0.279	82.8	82	76.7	91.7	30
08/11/01	11:00 p	78.0	78.5	77.4	92	75.5	0.0	---	0.00	0.0	78.0	83.0	83.0	29.882	0.00	0.000	0.271	82.6	82	76.5	91.2	30
08/11/01	11:30 p	77.5	78.0	77.0	93	75.3	0.0	---	0.00	0.0	77.5	82.2	82.2	29.886	0.00	0.000	0.260	82.4	83	76.7	90.9	30
08/12/01	12:00 a	77.2	77.7	76.6	93	75.0	0.0	---	0.00	0.0	77.2	81.7	81.7	29.893	0.00	0.000	0.254	82.1	84	76.8	90.4	30
08/12/01	12:30 a	77.0	77.4	76.5	93	74.8	0.0	---	0.00	0.0	77.0	81.3	81.3	29.896	0.00	0.000	0.250	81.9	83	76.2	89.5	30
08/12/01	1:00 a	76.8	77.2	76.2	93	74.6	0.0	---	0.00	0.0	76.8	81.0	81.0	29.899	0.00	0.000	0.246	81.6	82	75.6	88.5	30
08/12/01	1:30 a	76.5	77.0	76.0	93	74.3	0.0	---	0.00	0.0	76.5	80.6	80.6	29.890	0.00	0.000	0.240	81.5	81	75.1	88.0	30
08/12/01	2:00 a	76.4	76.8	75.9	94	74.5	0.0	---	0.00	0.0	76.4	80.5	80.5	29.892	0.00	0.000	0.238	81.3	81	74.9	87.5	30
08/12/01	2:30 a	76.2	76.6	75.8	94	74.3	0.0	---	0.00	0.0	76.2	80.2	80.2	29.891	0.00	0.000	0.233	81.0	81	74.6	86.8	30
08/12/01	3:00 a	76.1	76.5	75.6	94	74.2	0.0	---	0.00	0.0	76.1	80.1	80.1	29.883	0.00	0.000	0.231	80.9	80	74.1	86.3	30
08/12/01	3:30 a	76.0	76.5	75.5	94	74.1	0.0	---	0.00	0.0	76.0	79.9	79.9	29.871	0.00	0.000	0.229	80.7	81	74.3	86.1	30
08/12/01	4:00 a	75.9	76.3	75.4	95	74.4	0.0	---	0.00	0.0	75.9	79.9	79.9	29.874	0.00	0.000	0.227	80.5	80	73.8	85.5	30
08/12/01	4:30 a	75.7	76.2	75.1	95	74.2	0.0	---	0.00	0.0	75.7	79.6	79.6	29.869	0.00	0.000	0.223	80.3	80	73.6	85.1	30
08/12/01	5:00 a	75.5	76.0	75.1	95	74.0	0.0	---	0.00	1.0	75.5	79.3	79.3	29.872	0.00	0.000	0.219	80.1	81	73.7	84.9	30
08/12/01	5:30 a	75.3	75.9	74.8	95	73.8	0.0	---	0.00	0.0	75.3	79.1	79.1	29.878	0.00	0.000	0.215	79.9	81	73.5	84.5	30
08/12/01	6:00 a	75.1	75.6	74.6	95	73.6	0.0	---	0.00	0.0	75.1	78.8	78.8	29.885	0.00	0.000	0.210	79.8	81	73.4	84.4	30
08/12/01	6:30 a	74.9	75.4	74.3	95	73.4	0.0	---	0.00	0.0	74.9	78.5	78.5	29.894	0.00	0.000	0.206	79.6	81	73.3	84.0	30
08/12/01	7:00 a	74.6	75.1	74.2	96	73.4	0.0	---	0.00	0.0	74.6	78.1	78.1	29.908	0.00	0.000	0.200	79.4	81	73.1	83.7	30
08/12/01	7:30 a	74.6	75.0	74.2	95	73.1	0.0	---	0.00	0.0	74.6	78.0	78.0	29.915	0.00	0.000	0.200	79.3	81	73.0	83.5	30
08/12/01	8:00 a	75.2	76.1	74.5	97	74.3	0.0	---	0.00	0.0	75.2	79.0	79.0	29.918	0.00	0.000	0.212	79.3	82	73.3	83.7	30
08/12/01	8:30 a	76.7	77.8	75.5	99	76.4	0.0	---	0.00	0.0	76.7	81.5	81.5	29.924	0.00	0.000	0.244	79.5	83	73.9	84.3	30
08/12/01	9:00 a	78.2	79.3	77.1	94	76.3	0.0	SE	0.00	1.0	78.2	83.7	83.7	29.929	0.00	0.000	0.275	80.2	85	75.3	86.0	30
08/12/01	9:30 a	80.4	81.8	78.5	85	75.5	0.0	SSW	0.00	5.0	80.4	86.5	86.5	29.930	0.00	0.000	0.321	81.3	87	77.1	89.2	30
08/12/01	10:00 a	83.1	84.9	81.0	79	75.9	1.0	ESE	0.50	9.0	83.1	91.7	91.7	29.927	0.00	0.000	0.377	82.5	88	78.6	92.8	30
08/12/01	10:30 a	86.0	87.7	84.4	74	76.7	2.0	ESE	1.00	13.0	86.0	96.7	96.7	29.926	0.00	0.000	0.438	84.2	87	79.9	97.4	30
08/12/01	11:00 a	88.4	89.8	87.1	71	77.8	3.0	ESE	1.50	14.0	88.4	100.9	100.9	29.923	0.00	0.000	0.488	86.1	84	80.7	101.1	30
08/12/01	11:30 a	90.0	91.1	89.1	68	78.0	4.0	ESE	2.00	13.0	90.0	104.6	104.6	29.921	0.00	0.000	0.521	88.2	81	81.6	106.2	30
08/12/01	12:00 p	91.2	91.8	90.6	67	78.7	3.0	ESE	1.50	14.0	91.2	107.6	107.6	29.913	0.00	0.000	0.546	89.9	78	82.1	111.3	30
08/12/01	12:30 p	91.8	92.5	91.1	66	78.8	2.0	ESE	1.00	15.0	91.8	108.7	108.7	29.900	0.00	0.000	0.558	91.2	76	82.6	115.3	30
08/12/01	1:00 p	92.6	93.6	91.6	63	78.2	3.0	ESE	1.50	13.0	92.6	108.9	108.9	29.889	0.00	0.000	0.575	92.4	73	82.5	117.3	30
08/12/01	1:30 p	93.4	93.9	92.7	64	79.4	3.0	NE	1.50	12.0	93.4	112.2	112.2	29.882	0.00	0.000	0.592	93.5	72	83.1	120.7	30
08/12/01	2:00 p	93.9	94.8	92.9	62	78.9	3.0	ESE	1.50	19.0	93.9	112.1	112.1	29.871	0.00	0.000	0.602	94.4	70	83.1	121.0	30
08/12/01	2:30 p	94.9	95.7	93.9	61	79.3	4.0	ESE	2.00	15.0	94.9	114.4	114.4	29.864	0.00	0.000	0.623	95.1	69	83.3	122.8	30
08/12/01	3:00 p	94.0	94.7	93.4	60	78.0	3.0	ENE	1.50	18.0	94.0	110.7	110.7	29.855	0.00	0.000	0.604	95.7	67	83.0	123.1	30
08/12/01	3:30 p	94.9	95.8	93.9	61	79.3	3.0	ESE	1.50	16.0	94.9	114.4	114.4	29.844	0.00	0.000	0.623	96.1	66	82.9	123.6	30
08/12/01	4:00 p	95.0	95.5	94.4	60	78.9	3.0	ESE	1.50	16.0	95.0	113.8	113.8	29.837	0.00	0.000	0.625	96.4	66	83.2	124.7	30
08/12/01	4:30 p	95.2	96.1	93.7	60	79.1	3.0	ENE	1.50	13.0	95.2	114.5	114.5	29.820	0.00	0.000	0.629	96.6	64	82.4	123.3	30
08/12/01	5:00 p	94.9	96.1	93.3	60	78.8	3.0	ESE	1.50	20.0	94.9	113.5	113.5	29.828	0.00	0.000	0.623	96.7	63	82.0	122.7	30
08/12/01	5:30 p	95.0	95.8	93.8	60	78.9	4.0	ESE	2.00	17.0	95.0	113.8	113.8	29.824	0.00	0.000	0.625	96.6	62	81.4	121.3	30
08/12/01	6:00 p	93.8	94.7	93.0	60	77.8	3.0	ESE	1.50	10.0	93.8	110.1	110.1	29.820	0.00	0.000	0.600	96.3	62	81.2	120.2	30
08/12/01	6:30 p	93.5	94.7	92.2	62	78.5	2.0	ESE	1.00	12.0	93.5	110.8	110.8	29.812	0.00	0.000	0.594	95.7	61	80.1	117.1	30
08/12/01	7:00 p	91.0	92.7	90.1	64	77.1	2.0	ESE	1.00	13.0	91.0	104.9	104.9	29.810	0.00	0.000	0.542	94.7	61	79.2	113.8	30
08/12/01	7:30 p	89.9	90.6	88.7	67	77.5	2.0	SE	1.00	10.0	89.9	103.7	103.7	29.822	0.00	0.000	0.519	93.4	63	78.9	111.3	30
08/12/01	8:00 p	87.8	89.1	86.7	69	76.4	1.0	SE	0.50	9.0	87.8	98.3	98.3	29.830	0.00	0.000	0.475	92.0	64	78.1	107.9	30
08/12/01	8:30 p	86.1	87.0	85.2	71	75.6	1.0	SE	0.50	8.0	86.1	95.9	95.9	29.838	0.00	0.000	0.440	90.7	65	77.3	104.8	30
08/12/01	9:00 p	84.9	85.7	84.3	74	75.7	1.0	SE	0.50	6.0	84.9	94.1	94.1	29.843	0.00	0.000	0.415	89.8	66	76.9	102.7	30
08/12/01	9:30 p	84.3	84.8	83.7	76	75.9	1.0	ESE	0.50	7.0	84.3	93.6	93.6	29.852	0.00	0.000	0.402	88.9	69	77.4	101.4	30
08/12/01	10:00 p	83.9	84.3	83.3	79	76.7	1.0	SE	0.50	5.0	83.9	93.9	93.9	29.862	0.00	0.000	0.394	88.4	70	77.4	100.3	30
08/12/01	10:30 p	83.3	83.8	82.7	80	76.5	1.0	SE	0.50	6.0	83.3	92.5	92.5	29.875	0.00	0.000	0.381	88.1	71	77.5	99.8	30
08/12/01	11:00 p	82.9	83.4	82.4	82	76.8	1.0	SE	0.50	9.0	82.9	92.0	92.0	29.864	0.00	0.000	0.373	87.7	73	78.0	99.9	30
08/12/01	11:30 p	82.5	83.1	82.1	82	76.4	1.0	ESE	0.50	6.0	82.5	90.9	90.9	29.864	0.00	0.000	0.365	87.4	73	77.7	99.4	30
08/13/01	12:00 a	82.3	82.8	81.7	82	76.3	0.0	ESE	0.00	4.0	82.3	90.3	90.3	29.872	0.00	0.000	0.360	87.0	74	77.7	99.2	30
08/13/01	12:30 a	81.9	82.4	81.4	82	75.9	0.0	ESE	0.00	3.0	81.9	89.3	89.3	29.869	0.00	0.000	0.352	86.6	74	77.3	98.2	30
08/13/01	1:00 a	81.5	82.1	81.0	83	75.8	0.0	ESE	0.00	2.0	81.5	88.5	88.5	29.867	0.00	0.000	0.344	86.2	75	77.3	97.5	30
08/13/01	1:30 a	81.0	81.6	80.4	85	76.1	0.0	---	0.00	1.0	81.0	87.8	87.8	29.860	0.00	0.000	0.333	85.8	76	77.4	96.9	30
08/13/01	2:00 a	80.4	81.1	79.8	87	76.2	0.0	---	0.00	0.0	80.4	87.0	87.0	29.849	0.00	0.000	0.321	85.4	77	77.4	96.3	30
08/13/01	2:30 a	79.8	80.5	79.1	87	75.6	0.0	---	0.00	0.0	79.8	85.7	85.7	29.846	0.00	0.000	0.308	85.0	77	77.0	95.3	30
08/13/01	3:00 a	79.1	79.7	78.5	87	74.9	0.0	---	0.00	0.0	79.1	84.3	84.3	29.841	0.00	0.000	0.294	84.6	78	77.0	94.9	30
08/13/01	3:30 a	78.6	79.2	77.9	88	74.7	0.0	---	0.00	0.0	78.6	83.6	83.6	29.841	0.00	0.000	0.283	84.1	78	76.5	94.0	30
08/13/01	4:00 a	78.2	78.7	77.6	89	74.7	0.0	---	0.00	0.0	78.2	83.0	83.0	29.835	0.00	0.000	0.275	83.7	78	76.1	93.0	30
08/13/01	4:30 a	77.7	78.3	77.1	89	74.2	0.0	---	0.00	0.0	77.7	82.1	82.1	29.838	0.00	0.000	0.265	83.4	78	75.8	92.1	30
08/13/01	5:00 a	77.3	77.8	76.8	89	73.8	0.0	---	0.00	0.0	77.3	81.4	81.4	29.836	0.00	0.000	0.256	82.9	79	75.7	91.1	30
08/13/01	5:30 a	77.0	77.5	76.5	90	73.8	0.0	---	0.00	0.0	77.0	81.0	81.0	29.841	0.00	0.000	0.250	82.6	79	75.4	90.3	30
08/13/01	6:00 a	76.6	77.2	76.1	90	73.4	0.0	---	0.00	0.0	76.6	80.4	80.4	29.837	0.00	0.000	0.242	82.2	79	75.0	89.2	30
08/13/01	6:30 a	76.3	76.9	75.8	90	73.1	0.0	---	0.00	0.0	76.3	80.0	80.0	29.849	0.00	0.000	0.235	81.9	79	74.7	88.4	30
08/13/01	7:00 a	76.0	76.6	75.5	91	73.2	0.0	---	0.00	0.0	76.0	79.6	79.6	29.856	0.00	0.000	0.229	81.6	78	74.1	87.4	30
08/13/01	7:30 a	75.9	76.4	75.5	91	73.1	0.0	---	0.00	0.0	75.9	79.5	79.5	29.858	0.00	0.000	0.227	81.5	78	74.0	87.2	30
08/13/01	8:00 a	76.7	77.6	75.7	93	74.5	0.0	---	0.00	0.0	76.7	80.8	80.8	29.858	0.00	0.000	0.244	81.4	78	73.9	87.0	30
08/13/01	8:30 a	77.7	78.7	76.9	93	75.5	0.0	NW	0.00	3.0	77.7	82.6	82.6	29.865	0.00	0.000	0.265	81.5	81	75.1	88.0	30
08/13/01	9:00 a	78.9	80.1	78.0	90	75.7	0.0	SSW	0.00	1.0	78.9	84.5	84.5	29.871	0.00	0.000	0.290	82.1	82	76.1	89.8	30
08/13/01	9:30 a	81.2	83.1	79.4	81	74.8	0.0	---	0.00	1.0	81.2	87.2	87.2	29.866	0.00	0.000	0.337	83.2	84	77.9	93.4	30
08/13/01	10:00 a	84.4	86.5	82.5	72	74.4	0.0	SSE	0.00	2.0	84.4	92.4	92.4	29.866	0.00	0.000	0.404	84.7	83	79.0	97.0	30
08/13/01	10:30 a	87.8	89.3	86.1	68	75.9	0.0	ESE	0.00	6.0	87.8	97.8	97.8	29.859	0.00	0.000	0.475	87.0	80	80.1	102.1	30
08/13/01	11:00 a	89.4	90.3	88.6	68	77.4	1.0	NE	0.50	8.0	89.4	102.6	102.6	29.855	0.00	0.000	0.508	88.9	78	81.1	107.3	30
08/13/01	11:30 a	90.2	91.2	89.0	67	77.8	1.0	ENE	0.50	7.0	90.2	104.6	104.6	29.852	0.00	0.000	0.525	90.2	75	81.2	110.2	30
08/13/01	12:00 p	91.5	92.1	90.7	64	77.6	1.0	ENE	0.50	8.0	91.5	106.4	106.4	29.844	0.00	0.000	0.552	91.3	73	81.4	112.8	30
08/13/01	12:30 p	92.0	92.6	91.4	61	76.6	1.0	ENE	0.50	12.0	92.0	105.6	105.6	29.831	0.00	0.000	0.563	92.3	71	81.5	114.5	30
08/13/01	1:00 p	92.7	93.7	91.9	61	77.3	2.0	NE	1.00	9.0	92.7	107.6	107.6	29.827	0.00	0.000	0.577	93.3	69	81.6	116.0	30
08/13/01	1:30 p	93.3	94.1	92.3	62	78.3	2.0	NE	1.00	13.0	93.3	110.2	110.2	29.811	0.00	0.000	0.590	94.2	68	82.0	118.4	30
08/13/01	2:00 p	93.1	93.8	92.3	62	78.1	2.0	NE	1.00	12.0	93.1	109.6	109.6	29.797	0.00	0.000	0.585	94.9	67	82.2	120.0	30
08/13/01	2:30 p	93.4	94.3	92.5	60	77.4	2.0	ENE	1.00	10.0	93.4	108.9	108.9	29.789	0.00	0.000	0.592	95.3	66	82.1	120.5	30
08/13/01	3:00 p	94.1	95.2	93.2	56	76.0	3.0	NE	1.50	10.0	94.1	108.2	108.2	29.774	0.00	0.000	0.606	95.7	65	82.0	121.0	30
08/13/01	3:30 p	94.7	95.3	94.2	61	79.2	2.0	ENE	1.00	9.0	94.7	113.8	113.8	29.766	0.00	0.000	0.619	96.2	63	81.6	120.8	30
08/13/01	4:00 p	94.7	95.7	93.7	63	80.1	2.0	NE	1.00	13.0	94.7	115.6	115.6	29.750	0.00	0.000	0.619	96.6	64	82.4	123.3	30
08/13/01	4:30 p	94.8	95.6	94.0	60	78.7	3.0	ENE	1.50	14.0	94.8	113.2	113.2	29.747	0.00	0.000	0.621	97.2	63	82.5	124.6	30
08/13/01	5:00 p	94.4	95.3	93.4	63	79.9	3.0	ENE	1.50	11.0	94.4	114.6	114.6	29.739	0.00	0.000	0.613	97.7	62	82.5	125.4	30
08/13/01	5:30 p	95.0	95.6	94.4	58	77.9	3.0	ESE	1.50	15.0	95.0	112.3	112.3	29.741	0.00	0.000	0.625	97.9	61	82.2	125.1	30
08/13/01	6:00 p	94.6	95.3	93.4	62	79.6	2.0	ESE	1.00	13.0	94.6	114.3	114.3	29.743	0.00	0.000	0.617	96.4	62	81.2	120.5	30
08/13/01	6:30 p	93.0	93.7	92.3	65	79.5	3.0	ESE	1.50	14.0	93.0	111.7	111.7	29.736	0.00	0.000	0.583	95.6	62	80.5	117.7	30
08/13/01	7:00 p	91.5	92.6	90.4	66	78.5	2.0	ESE	1.00	15.0	91.5	107.8	107.8	29.730	0.00	0.000	0.552	94.5	64	80.4	115.8	30
08/13/01	7:30 p	90.1	90.9	89.1	69	78.6	1.0	SE	0.50	8.0	90.1	105.5	105.5	29.732	0.00	0.000	0.523	93.2	65	79.7	112.3	30
08/13/01	8:00 p	88.6	89.7	87.4	72	78.4	1.0	SE	0.50	6.0	88.6	102.1	102.1	29.736	0.00	0.000	0.492	92.0	66	79.0	109.3	30
08/13/01	8:30 p	87.0	87.9	86.3	73	77.3	1.0	SE	0.50	7.0	87.0	98.8	98.8	29.732	0.00	0.000	0.458	90.8	68	78.8	107.0	30
08/13/01	9:00 p	86.2	86.8	85.3	76	77.7	0.0	SE	0.00	3.0	86.2	97.9	97.9	29.748	0.00	0.000	0.442	89.9	70	78.8	105.5	30
08/13/01	9:30 p	85.1	86.0	84.2	78	77.5	0.0	---	0.00	0.0	85.1	95.9	95.9	29.752	0.00	0.000	0.419	89.1	71	78.5	103.3	30
08/13/01	10:00 p	84.1	84.8	83.5	79	76.9	0.0	SE	0.00	1.0	84.1	94.3	94.3	29.755	0.00	0.000	0.398	88.3	72	78.1	101.0	30
08/13/01	10:30 p	83.5	84.1	82.9	81	77.1	0.0	---	0.00	1.0	83.5	93.4	93.4	29.758	0.00	0.000	0.385	87.8	73	78.1	100.1	30
08/13/01	11:00 p	83.0	83.6	82.5	82	76.9	0.0	---	0.00	1.0	83.0	92.3	92.3	29.766	0.00	0.000	0.375	87.3	74	78.0	99.7	30
08/13/01	11:30 p	82.6	83.1	82.1	83	76.9	0.0	---	0.00	0.0	82.6	91.4	91.4	29.770	0.00	0.000	0.367	86.9	74	77.6	98.9	30
08/14/01	12:00 a	82.1	82.7	81.6	84	76.8	0.0	---	0.00	0.0	82.1	90.4	90.4	29.775	0.00	0.000	0.356	86.8	75	77.9	99.1	30
08/14/01	12:30 a	81.5	82.2	80.9	85	76.6	0.0	---	0.00	0.0	81.5	89.1	89.1	29.775	0.00	0.000	0.344	86.4	76	77.9	98.5	30
08/14/01	1:00 a	81.0	81.6	80.4	86	76.4	0.0	---	0.00	0.0	81.0	88.1	88.1	29.764	0.00	0.000	0.333	86.0	76	77.5	97.4	30
08/14/01	1:30 a	80.5	81.0	79.9	86	75.9	0.0	---	0.00	0.0	80.5	87.0	87.0	29.761	0.00	0.000	0.323	85.6	77	77.6	96.8	30
08/14/01	2:00 a	79.8	80.6	79.1	89	76.3	0.0	SE	0.00	1.0	79.8	86.1	86.1	29.748	0.00	0.000	0.308	85.2	78	77.6	96.2	30
08/14/01	2:30 a	79.4	79.9	78.9	89	75.9	0.0	---	0.00	0.0	79.4	85.3	85.3	29.734	0.00	0.000	0.300	84.9	78	77.3	95.5	30
08/14/01	3:00 a	79.1	79.6	78.6	88	75.2	0.0	---	0.00	0.0	79.1	84.5	84.5	29.718	0.00	0.000	0.294	84.5	78	76.9	94.7	30
08/14/01	3:30 a	78.7	79.2	78.1	90	75.5	0.0	---	0.00	0.0	78.7	84.1	84.1	29.720	0.00	0.000	0.285	84.2	79	77.0	94.5	30
08/14/01	4:00 a	78.3	78.9	77.8	89	74.8	0.0	---	0.00	0.0	78.3	83.2	83.2	29.719	0.00	0.000	0.277	83.8	79	76.6	93.6	30
08/14/01	4:30 a	78.0	78.5	77.5	90	74.8	0.0	---	0.00	0.0	78.0	82.8	82.8	29.714	0.00	0.000	0.271	83.5	80	76.7	93.1	30
08/14/01	5:00 a	77.8	78.3	77.3	90	74.6	0.0	---	0.00	0.0	77.8	82.4	82.4	29.716	0.00	0.000	0.267	83.2	80	76.4	92.3	30
08/14/01	5:30 a	77.6	78.0	77.1	91	74.8	0.0	---	0.00	0.0	77.6	82.2	82.2	29.715	0.00	0.000	0.262	82.9	80	76.1	91.4	30
08/14/01	6:00 a	77.5	78.0	77.0	91	74.7	0.0	WNW	0.00	1.0	77.5	82.0	82.0	29.723	0.00	0.000	0.260	82.7	81	76.3	91.1	30
08/14/01	6:30 a	77.3	77.9	76.9	91	74.5	0.0	---	0.00	0.0	77.3	81.6	81.6	29.725	0.00	0.000	0.256	82.5	82	76.4	90.9	30
08/14/01	7:00 a	77.1	77.7	76.6	92	74.6	0.0	---	0.00	0.0	77.1	81.4	81.4	29.729	0.00	0.000	0.252	82.2	82	76.2	90.1	30
08/14/01	7:30 a	77.1	77.7	76.6	92	74.6	0.0	---	0.00	0.0	77.1	81.4	81.4	29.735	0.00	0.000	0.252	82.0	82	76.0	89.5	30
08/14/01	8:00 a	77.5	78.4	76.9	93	75.3	0.0	---	0.00	0.0	77.5	82.2	82.2	29.739	0.00	0.000	0.260	81.9	84	76.6	89.8	30
08/14/01	8:30 a	78.6	79.7	77.6	92	76.1	0.0	WNW	0.00	2.0	78.6	84.3	84.3	29.741	0.00	0.000	0.283	82.1	85	77.1	90.7	30
08/14/01	9:00 a	80.0	81.3	78.8	88	76.1	1.0	SW	0.50	4.0	80.0	86.3	86.3	29.734	0.00	0.000	0.313	82.8	86	78.2	92.9	30
08/14/01	9:30 a	82.2	83.9	80.7	84	76.9	1.0	SW	0.50	5.0	82.2	90.6	90.6	29.734	0.00	0.000	0.358	84.0	87	79.7	96.9	30
08/14/01	10:00 a	84.7	86.0	83.5	78	77.1	1.0	SSW	0.50	7.0	84.7	95.1	95.1	29.733	0.00	0.000	0.410	85.3	86	80.6	99.8	30
08/14/01	10:30 a	87.1	88.2	85.6	73	77.4	0.0	WSW	0.00	6.0	87.1	98.9	98.9	29.731	0.00	0.000	0.460	86.6	85	81.5	103.7	30
08/14/01	11:00 a	88.6	90.3	87.4	69	77.1	0.0	SW	0.00	6.0	88.6	100.5	100.5	29.725	0.00	0.000	0.492	87.8	82	81.6	105.5	30
08/14/01	11:30 a	90.3	91.3	89.6	66	77.4	0.0	NNW	0.00	6.0	90.3	104.3	104.3	29.715	0.00	0.000	0.527	89.0	79	81.6	108.5	30
08/14/01	12:00 p	91.6	93.2	90.7	62	76.7	1.0	NW	0.50	7.0	91.6	105.3	105.3	29.704	0.00	0.000	0.554	90.1	77	81.9	111.4	30
08/14/01	12:30 p	92.5	94.3	91.1	67	79.9	0.0	ENE	0.00	5.0	92.5	111.7	111.7	29.700	0.00	0.000	0.573	91.2	75	82.2	114.3	30
08/14/01	1:00 p	92.8	94.0	91.7	67	80.2	1.0	NE	0.50	8.0	92.8	112.7	112.7	29.690	0.00	0.000	0.579	92.1	74	82.6	117.2	30
08/14/01	1:30 p	92.7	94.1	91.0	69	81.0	2.0	ENE	1.00	10.0	92.7	113.9	113.9	29.685	0.00	0.000	0.577	93.1	73	83.2	120.4	30
08/14/01	2:00 p	92.1	93.5	90.9	66	79.1	2.0	NE	1.00	8.0	92.1	109.7	109.7	29.672	0.00	0.000	0.565	93.3	72	82.9	119.8	30
08/14/01	2:30 p	93.7	94.6	92.8	65	80.2	2.0	NE	1.00	13.0	93.7	113.9	113.9	29.658	0.00	0.000	0.598	94.1	71	83.3	121.6	30
08/14/01	3:00 p	94.9	97.1	93.6	60	78.8	2.0	NE	1.00	12.0	94.9	113.5	113.5	29.646	0.00	0.000	0.623	95.0	70	83.7	123.4	30
08/14/01	3:30 p	97.2	97.8	96.0	61	81.5	4.0	ESE	2.00	14.0	97.2	122.4	122.4	29.629	0.00	0.000	0.671	95.8	68	83.5	124.6	30
08/14/01	4:00 p	95.9	97.0	95.1	59	79.3	3.0	ESE	1.50	15.0	95.9	115.9	115.9	29.626	0.00	0.000	0.644	96.4	66	83.2	124.7	30
08/14/01	4:30 p	95.5	96.0	94.6	60	79.4	2.0	ESE	1.00	10.0	95.5	115.4	115.4	29.620	0.00	0.000	0.635	96.6	64	82.4	123.3	30
08/14/01	5:00 p	94.7	95.8	93.9	60	78.7	4.0	ESE	2.00	14.0	94.7	112.9	112.9	29.609	0.00	0.000	0.619	96.5	63	81.8	121.9	30
08/14/01	5:30 p	93.9	95.4	92.2	61	78.4	3.0	ESE	1.50	12.0	93.9	111.2	111.2	29.611	0.00	0.000	0.602	96.1	62	81.0	119.5	30
08/14/01	6:00 p	93.1	94.0	92.3	62	78.1	3.0	ESE	1.50	13.0	93.1	109.6	109.6	29.609	0.00	0.000	0.585	95.6	62	80.5	117.7	30
08/14/01	6:30 p	92.7	93.4	91.8	61	77.3	2.0	SE	1.00	10.0	92.7	107.6	107.6	29.613	0.00	0.000	0.577	95.0	61	79.4	114.7	30
08/14/01	7:00 p	90.9	92.4	89.6	65	77.5	2.0	SE	1.00	9.0	90.9	105.3	105.3	29.615	0.00	0.000	0.540	93.9	62	78.9	112.1	30
08/14/01	7:30 p	89.1	89.9	88.1	67	76.7	1.0	SE	0.50	9.0	89.1	101.0	101.0	29.625	0.00	0.000	0.502	92.6	64	78.6	109.7	30
08/14/01	8:00 p	87.3	88.6	86.2	71	76.7	2.0	SE	1.00	9.0	87.3	98.4	98.4	29.629	0.00	0.000	0.465	91.4	65	78.0	106.8	30
08/14/01	8:30 p	86.0	86.8	85.4	71	75.5	1.0	SE	0.50	8.0	86.0	95.6	95.6	29.638	0.00	0.000	0.438	90.3	66	77.4	104.3	30
08/14/01	9:00 p	85.5	86.0	84.9	74	76.3	1.0	SSE	0.50	6.0	85.5	95.5	95.5	29.647	0.00	0.000	0.427	89.7	68	77.7	103.6	30
08/14/01	9:30 p	85.0	85.5	84.4	73	75.4	1.0	SE	0.50	6.0	85.0	93.9	93.9	29.665	0.00	0.000	0.417	89.3	69	77.8	102.8	30
08/14/01	10:00 p	84.5	85.1	83.7	75	75.7	2.0	SSE	1.00	7.0	84.5	93.6	93.6	29.663	0.00	0.000	0.406	88.8	69	77.3	101.1	30
08/14/01	10:30 p	83.9	84.4	83.3	76	75.5	1.0	SSE	0.50	10.0	83.9	92.8	92.8	29.686	0.00	0.000	0.394	88.5	70	77.5	100.7	30
08/14/01	11:00 p	83.0	84.0	81.7	84	77.7	1.0	WNW	0.50	10.0	83.0	92.8	92.8	29.707	0.02	0.000	0.375	88.2	72	78.0	100.7	30
08/14/01	11:30 p	80.8	82.2	79.9	88	76.9	1.0	NW	0.50	10.0	80.8	88.2	88.2	29.706	0.12	0.000	0.329	87.6	74	78.3	100.2	30
08/15/01	12:00 a	80.0	80.6	79.5	90	76.8	0.0	ENE	0.00	1.0	80.0	86.8	86.8	29.704	0.00	0.000	0.313	86.9	75	78.0	99.3	30
08/15/01	12:30 a	79.8	80.3	79.4	89	76.3	0.0	ENE	0.00	2.0	79.8	86.1	86.1	29.677	0.00	0.000	0.308	86.4	76	77.9	98.5	30
08/15/01	1:00 a	79.7	80.2	79.2	90	76.5	0.0	---	0.00	0.0	79.7	86.2	86.2	29.672	0.00	0.000	0.306	86.0	77	77.9	97.7	30
08/15/01	1:30 a	79.5	79.9	79.0	90	76.3	0.0	---	0.00	0.0	79.5	85.8	85.8	29.662	0.00	0.000	0.302	85.6	77	77.6	96.8	30
08/15/01	2:00 a	79.2	79.7	78.7	91	76.3	0.0	---	0.00	0.0	79.2	85.3	85.3	29.660	0.00	0.000	0.296	85.3	78	77.7	96.4	30
08/15/01	2:30 a	79.0	79.5	78.5	92	76.5	0.0	---	0.00	0.0	79.0	85.1	85.1	29.660	0.00	0.000	0.292	85.0	79	77.8	96.0	30
08/15/01	3:00 a	78.9	79.3	78.3	91	76.0	0.0	---	0.00	0.0	78.9	84.7	84.7	29.651	0.00	0.000	0.290	84.7	80	77.8	95.8	30
08/15/01	3:30 a	78.5	79.0	78.0	91	75.7	0.0	---	0.00	0.0	78.5	83.9	83.9	29.643	0.00	0.000	0.281	84.4	80	77.6	95.3	30
08/15/01	4:00 a	78.3	78.7	77.7	91	75.5	0.0	---	0.00	0.0	78.3	83.5	83.5	29.635	0.00	0.000	0.277	84.0	80	77.2	94.5	30
08/15/01	4:30 a	77.9	78.5	77.4	91	75.1	0.0	---	0.00	0.0	77.9	82.7	82.7	29.632	0.00	0.000	0.269	83.7	80	76.9	93.7	30
08/15/01	5:00 a	77.6	78.1	77.0	91	74.8	0.0	---	0.00	0.0	77.6	82.2	82.2	29.639	0.00	0.000	0.262	83.3	81	76.9	92.8	30
08/15/01	5:30 a	77.3	77.8	76.7	91	74.5	0.0	---	0.00	0.0	77.3	81.6	81.6	29.649	0.00	0.000	0.256	82.9	81	76.5	91.7	30
08/15/01	6:00 a	76.9	77.5	76.4	92	74.4	0.0	---	0.00	0.0	76.9	81.1	81.1	29.650	0.00	0.000	0.248	82.5	81	76.1	90.6	30
08/15/01	6:30 a	76.7	77.2	76.1	92	74.2	0.0	---	0.00	1.0	76.7	80.7	80.7	29.659	0.00	0.000	0.244	82.2	81	75.8	89.8	30
08/15/01	7:00 a	76.2	76.9	75.7	93	74.0	0.0	---	0.00	0.0	76.2	80.1	80.1	29.667	0.00	0.000	0.233	81.9	82	75.9	89.3	30
08/15/01	7:30 a	76.1	76.6	75.7	92	73.6	0.0	---	0.00	0.0	76.1	79.8	79.8	29.677	0.00	0.000	0.231	81.6	82	75.6	88.5	30
08/15/01	8:00 a	76.4	77.2	75.7	93	74.2	0.0	---	0.00	0.0	76.4	80.4	80.4	29.687	0.00	0.000	0.238	81.5	83	75.8	88.5	30
08/15/01	8:30 a	77.2	78.0	76.3	94	75.3	0.0	SW	0.00	2.0	77.2	81.8	81.8	29.694	0.00	0.000	0.254	81.6	85	76.6	89.4	30
08/15/01	9:00 a	78.0	79.1	77.2	92	75.5	0.0	SW	0.00	2.0	78.0	83.0	83.0	29.702	0.00	0.000	0.271	82.1	85	77.1	90.7	30
08/15/01	9:30 a	79.8	81.4	78.4	87	75.6	0.0	NNW	0.00	4.0	79.8	85.7	85.7	29.701	0.01	0.000	0.308	83.0	86	78.4	93.4	30
08/15/01	10:00 a	82.0	83.3	80.9	80	75.2	1.0	NW	0.50	6.0	82.0	88.9	88.9	29.703	0.00	0.000	0.354	84.2	86	79.6	97.0	30
08/15/01	10:30 a	84.4	85.9	82.7	76	76.0	0.0	NW	0.00	4.0	84.4	93.8	93.8	29.715	0.00	0.000	0.404	85.6	85	80.6	100.1	30
08/15/01	11:00 a	87.1	88.2	85.3	72	77.0	1.0	N	0.50	5.0	87.1	98.5	98.5	29.714	0.00	0.000	0.460	87.1	84	81.7	105.0	30
08/15/01	11:30 a	89.1	90.3	88.0	66	76.3	0.0	NW	0.00	5.0	89.1	100.5	100.5	29.709	0.00	0.000	0.502	88.5	81	81.9	107.7	30
08/15/01	12:00 p	90.4	91.0	89.7	71	79.7	1.0	ENE	0.50	6.0	90.4	107.9	107.9	29.701	0.00	0.000	0.529	89.9	79	82.5	112.1	30
08/15/01	12:30 p	90.5	91.4	89.9	67	78.0	1.0	NE	0.50	9.0	90.5	105.5	105.5	29.691	0.00	0.000	0.531	90.9	76	82.3	113.9	30
08/15/01	1:00 p	91.5	92.7	90.3	63	77.1	1.0	ENE	0.50	9.0	91.5	105.7	105.7	29.682	0.00	0.000	0.552	91.9	74	82.4	116.3	30
08/15/01	1:30 p	92.4	93.2	91.3	64	78.4	1.0	NE	0.50	7.0	92.4	109.1	109.1	29.678	0.00	0.000	0.571	92.9	72	82.5	118.1	30
08/15/01	2:00 p	93.8	95.4	92.7	63	79.3	1.0	ENE	0.50	9.0	93.8	112.6	112.6	29.672	0.00	0.000	0.600	93.8	70	82.5	118.7	30
08/15/01	2:30 p	93.6	94.3	92.9	63	79.1	1.0	NE	0.50	8.0	93.6	112.0	112.0	29.667	0.00	0.000	0.596	94.7	69	82.9	121.2	30
08/15/01	3:00 p	94.7	95.2	94.0	62	79.7	2.0	NE	1.00	10.0	94.7	114.7	114.7	29.653	0.00	0.000	0.619	95.6	68	83.3	123.8	30
08/15/01	3:30 p	93.7	94.8	92.0	66	80.6	2.0	ENE	1.00	12.0	93.7	114.8	114.8	29.637	0.00	0.000	0.598	96.1	67	83.4	124.7	30
08/15/01	4:00 p	92.7	93.7	91.7	65	79.2	2.0	ENE	1.00	12.0	92.7	110.8	110.8	29.639	0.00	0.000	0.577	95.6	66	82.4	121.7	30
08/15/01	4:30 p	94.0	94.8	92.5	63	79.5	3.0	ESE	1.50	13.0	94.0	113.2	113.2	29.636	0.00	0.000	0.604	95.7	66	82.5	122.0	30
08/15/01	5:00 p	93.7	94.3	92.7	63	79.2	3.0	ESE	1.50	14.0	93.7	112.3	112.3	29.641	0.00	0.000	0.598	95.6	66	82.4	121.7	30
08/15/01	5:30 p	92.7	93.8	91.3	65	79.2	2.0	ESE	1.00	14.0	92.7	110.8	110.8	29.651	0.00	0.000	0.577	95.5	65	81.9	120.3	30
08/15/01	6:00 p	90.3	91.6	88.9	70	79.2	1.0	ESE	0.50	8.0	90.3	106.8	106.8	29.645	0.00	0.000	0.527	94.1	66	81.0	116.2	30
08/15/01	6:30 p	87.5	89.4	85.7	74	78.2	1.0	NW	0.50	12.0	87.5	100.1	100.1	29.680	0.00	0.000	0.469	92.7	66	79.7	111.6	30
08/15/01	7:00 p	84.7	85.9	83.4	81	78.2	0.0	NW	0.00	4.0	84.7	96.2	96.2	29.676	0.00	0.000	0.410	91.4	68	79.3	108.9	30
08/15/01	7:30 p	83.8	84.3	83.2	82	77.7	0.0	S	0.00	1.0	83.8	94.6	94.6	29.667	0.00	0.000	0.392	90.3	70	79.2	106.8	30
08/15/01	8:00 p	83.8	84.3	83.5	83	78.1	0.0	---	0.00	0.0	83.8	94.9	94.9	29.681	0.00	0.000	0.392	89.6	72	79.4	105.8	30
08/15/01	8:30 p	83.7	84.1	83.3	83	78.0	0.0	---	0.00	1.0	83.7	94.6	94.6	29.690	0.00	0.000	0.390	88.9	74	79.5	104.5	30
08/15/01	9:00 p	83.6	84.0	83.1	83	77.9	0.0	---	0.00	0.0	83.6	94.3	94.3	29.699	0.00	0.000	0.387	88.3	75	79.4	102.6	30
08/15/01	9:30 p	83.4	83.8	82.9	84	78.1	0.0	---	0.00	0.0	83.4	94.0	94.0	29.709	0.00	0.000	0.383	88.0	76	79.5	102.0	30
08/15/01	10:00 p	83.2	83.6	82.6	84	77.9	0.0	S	0.00	2.0	83.2	93.4	93.4	29.716	0.00	0.000	0.379	87.7	76	79.2	101.4	30
08/15/01	10:30 p	82.6	83.2	82.0	85	77.6	0.0	S	0.00	2.0	82.6	92.0	92.0	29.722	0.00	0.000	0.367	87.5	76	79.0	101.1	30
08/15/01	11:00 p	82.1	82.7	81.4	84	76.8	1.0	S	0.50	9.0	82.1	90.4	90.4	29.720	0.00	0.000	0.356	87.1	76	78.6	100.3	30
08/15/01	11:30 p	81.1	82.2	80.1	83	75.4	2.0	SW	1.00	10.0	81.1	87.5	87.5	29.738	0.00	0.000	0.335	86.6	75	77.7	98.6	30
08/16/01	12:00 a	79.9	80.7	79.2	83	74.3	1.0	SSW	0.50	10.0	79.9	85.0	85.0	29.734	0.00	0.000	0.310	85.9	74	76.6	96.4	30
08/16/01	12:30 a	79.4	79.8	78.9	84	74.1	0.0	SSW	0.00	4.0	79.4	84.3	84.3	29.735	0.00	0.000	0.300	85.3	74	76.1	95.0	30
08/16/01	1:00 a	79.1	79.7	78.7	85	74.2	0.0	SSW	0.00	2.0	79.1	83.9	83.9	29.729	0.00	0.000	0.294	84.9	75	76.1	94.4	30
08/16/01	1:30 a	79.0	79.5	78.5	85	74.1	0.0	S	0.00	3.0	79.0	83.7	83.7	29.726	0.00	0.000	0.292	84.6	76	76.2	94.2	30
08/16/01	2:00 a	78.8	79.2	78.2	86	74.3	0.0	S	0.00	2.0	78.8	83.6	83.6	29.718	0.00	0.000	0.288	84.3	76	75.9	93.6	30
08/16/01	2:30 a	78.4	79.0	77.9	86	73.9	0.0	---	0.00	1.0	78.4	82.9	82.9	29.702	0.00	0.000	0.279	84.0	77	76.0	93.4	30
08/16/01	3:00 a	78.1	78.6	77.5	87	73.9	0.0	---	0.00	1.0	78.1	82.6	82.6	29.706	0.00	0.000	0.273	83.6	77	75.6	92.3	30
08/16/01	3:30 a	77.8	78.3	77.3	88	74.0	0.0	---	0.00	0.0	77.8	82.2	82.2	29.711	0.00	0.000	0.267	83.3	78	75.7	91.9	30
08/16/01	4:00 a	77.6	78.0	77.0	89	74.1	0.0	S	0.00	2.0	77.6	82.0	82.0	29.718	0.00	0.000	0.262	83.1	78	75.5	91.3	30
08/16/01	4:30 a	77.4	77.9	76.9	89	73.9	0.0	S	0.00	3.0	77.4	81.6	81.6	29.717	0.00	0.000	0.258	82.8	79	75.6	90.8	30
08/16/01	5:00 a	77.3	77.7	76.8	89	73.8	0.0	SSW	0.00	2.0	77.3	81.4	81.4	29.722	0.00	0.000	0.256	82.6	79	75.4	90.3	30
08/16/01	5:30 a	77.2	77.7	76.8	89	73.7	0.0	SSW	0.00	1.0	77.2	81.3	81.3	29.723	0.00	0.000	0.254	82.3	79	75.1	89.4	30
08/16/01	6:00 a	77.1	77.5	76.6	90	73.9	0.0	---	0.00	1.0	77.1	81.2	81.2	29.734	0.00	0.000	0.252	82.2	78	74.7	88.9	30
08/16/01	6:30 a	77.0	77.4	76.5	91	74.2	0.0	---	0.00	0.0	77.0	81.1	81.1	29.747	0.00	0.000	0.250	82.1	77	74.2	88.3	30
08/16/01	7:00 a	76.7	77.2	76.2	91	73.9	0.0	---	0.00	0.0	76.7	80.6	80.6	29.764	0.00	0.000	0.244	81.8	78	74.3	87.9	30
08/16/01	7:30 a	76.5	77.0	76.0	92	74.0	0.0	---	0.00	0.0	76.5	80.4	80.4	29.786	0.00	0.000	0.240	81.7	78	74.2	87.7	30
08/16/01	8:00 a	76.6	77.2	76.0	93	74.4	0.0	---	0.00	0.0	76.6	80.7	80.7	29.800	0.00	0.000	0.242	81.6	77	73.7	87.2	30
08/16/01	8:30 a	77.1	77.8	76.5	93	74.9	0.0	---	0.00	1.0	77.1	81.5	81.5	29.804	0.00	0.000	0.252	81.6	78	74.1	87.4	30
08/16/01	9:00 a	78.0	79.0	77.2	92	75.5	0.0	SSW	0.00	4.0	78.0	83.0	83.0	29.802	0.00	0.000	0.271	81.8	80	75.0	88.4	30
08/16/01	9:30 a	79.9	81.6	78.3	86	75.3	0.0	WNW	0.00	4.0	79.9	85.6	85.6	29.800	0.00	0.000	0.310	82.5	81	76.1	90.6	30
08/16/01	10:00 a	82.9	84.5	81.0	79	75.7	0.0	NNW	0.00	5.0	82.9	91.1	91.1	29.805	0.00	0.000	0.373	83.8	82	77.7	94.6	30
08/16/01	10:30 a	85.6	86.8	83.9	73	75.9	0.0	NNW	0.00	4.0	85.6	95.4	95.4	29.821	0.00	0.000	0.429	85.3	82	79.2	98.0	30
08/16/01	11:00 a	87.8	89.5	86.2	69	76.4	0.0	SSW	0.00	2.0	87.8	98.3	98.3	29.822	0.00	0.000	0.475	86.9	80	80.0	101.8	30
08/16/01	11:30 a	89.8	90.6	88.8	69	78.3	0.0	SSW	0.00	2.0	89.8	104.5	104.5	29.816	0.00	0.000	0.517	88.3	77	80.2	103.9	30
08/16/01	12:00 p	90.2	90.9	89.6	70	79.1	0.0	NE	0.00	2.0	90.2	106.4	106.4	29.807	0.00	0.000	0.525	89.2	76	80.6	107.0	30
08/16/01	12:30 p	90.7	91.5	90.1	71	80.0	0.0	E	0.00	6.0	90.7	108.9	108.9	29.804	0.00	0.000	0.535	89.8	75	80.8	108.6	30
08/16/01	1:00 p	89.5	90.2	88.7	70	78.4	2.0	NE	1.00	8.0	89.5	104.1	104.1	29.804	0.00	0.000	0.510	90.5	74	81.1	110.6	30
08/16/01	1:30 p	90.7	92.4	89.8	65	77.3	1.0	ENE	0.50	10.0	90.7	104.8	104.8	29.796	0.00	0.000	0.535	91.1	73	81.2	112.0	30
08/16/01	2:00 p	91.7	93.2	90.7	63	77.3	2.0	ESE	1.00	13.0	91.7	106.3	106.3	29.788	0.00	0.000	0.556	92.0	71	81.2	113.4	30
08/16/01	2:30 p	94.4	96.1	93.2	61	78.9	2.0	ESE	1.00	11.0	94.4	112.8	112.8	29.781	0.00	0.000	0.613	93.0	70	81.8	115.7	30
08/16/01	3:00 p	96.1	97.7	93.3	66	82.9	1.0	ENE	0.50	9.0	96.1	123.6	123.6	29.766	0.00	0.000	0.648	94.0	69	82.3	118.5	30
08/16/01	3:30 p	94.2	94.9	93.3	65	80.6	2.0	E	1.00	11.0	94.2	115.6	115.6	29.755	0.00	0.000	0.608	94.4	69	82.7	120.1	30
08/16/01	4:00 p	95.0	96.0	94.1	63	80.4	3.0	ESE	1.50	14.0	95.0	116.6	116.6	29.745	0.00	0.000	0.625	94.7	69	82.9	121.2	30
08/16/01	4:30 p	95.6	96.4	94.6	61	80.0	3.0	ESE	1.50	13.0	95.6	116.7	116.7	29.742	0.00	0.000	0.637	95.3	68	83.1	122.6	30
08/16/01	5:00 p	95.7	96.4	95.1	61	80.1	3.0	ESE	1.50	16.0	95.7	117.1	117.1	29.741	0.00	0.000	0.640	95.7	67	83.0	123.1	30
08/16/01	5:30 p	95.9	96.6	95.1	60	79.8	3.0	ESE	1.50	14.0	95.9	116.8	116.8	29.739	0.00	0.000	0.644	96.0	65	82.3	122.1	30
08/16/01	6:00 p	95.4	96.0	94.7	61	79.8	3.0	ESE	1.50	11.0	95.4	116.1	116.1	29.739	0.00	0.000	0.633	96.1	65	82.4	122.5	30
08/16/01	6:30 p	93.3	95.4	91.4	66	80.2	3.0	SE	1.50	13.0	93.3	113.5	113.5	29.737	0.00	0.000	0.590	95.1	65	81.5	118.8	30
08/16/01	7:00 p	90.6	92.0	89.5	70	79.5	2.0	SE	1.00	9.0	90.6	107.7	107.7	29.750	0.00	0.000	0.533	93.4	67	80.8	114.7	30
08/16/01	7:30 p	89.3	90.1	88.5	72	79.1	2.0	SE	1.00	9.0	89.3	104.7	104.7	29.747	0.00	0.000	0.506	92.3	69	80.7	112.6	30
08/16/01	8:00 p	88.0	88.8	87.0	75	79.1	2.0	SE	1.00	8.0	88.0	101.4	101.4	29.762	0.00	0.000	0.479	91.4	71	80.7	111.3	30
08/16/01	8:30 p	87.0	87.7	86.1	77	78.9	1.0	SE	0.50	9.0	87.0	100.6	100.6	29.772	0.00	0.000	0.458	90.4	72	80.1	108.6	30
08/16/01	9:00 p	86.0	86.8	85.2	78	78.3	1.0	SE	0.50	8.0	86.0	98.1	98.1	29.781	0.00	0.000	0.438	89.8	73	80.0	107.2	30
08/16/01	9:30 p	85.3	85.8	84.8	80	78.4	1.0	SE	0.50	7.0	85.3	97.1	97.1	29.796	0.00	0.000	0.423	89.3	74	79.9	106.0	30
08/16/01	10:00 p	84.9	85.4	84.3	81	78.4	1.0	SE	0.50	7.0	84.9	96.6	96.6	29.807	0.00	0.000	0.415	89.0	75	80.0	105.5	30
08/16/01	10:30 p	84.6	85.0	84.0	81	78.1	1.0	SE	0.50	8.0	84.6	96.0	96.0	29.808	0.00	0.000	0.408	88.7	75	79.8	104.3	30
08/16/01	11:00 p	84.2	84.7	83.6	83	78.5	1.0	SE	0.50	7.0	84.2	95.9	95.9	29.823	0.00	0.000	0.400	88.5	76	80.0	104.1	30
08/16/01	11:30 p	83.7	84.3	82.9	84	78.3	0.0	SSE	0.00	2.0	83.7	94.9	94.9	29.832	0.00	0.000	0.390	88.1	76	79.6	102.4	30
08/17/01	12:00 a	82.6	83.5	82.0	86	78.0	0.0	NW	0.00	2.0	82.6	92.4	92.4	29.827	0.00	0.000	0.367	87.7	77	79.6	102.0	30
08/17/01	12:30 a	82.0	82.7	81.5	87	77.7	0.0	NW	0.00	2.0	82.0	91.1	91.1	29.841	0.00	0.000	0.354	87.3	77	79.2	101.2	30
08/17/01	1:00 a	81.7	82.3	81.2	87	77.5	0.0	---	0.00	1.0	81.7	90.3	90.3	29.841	0.00	0.000	0.348	86.9	78	79.2	100.8	30
08/17/01	1:30 a	81.4	81.9	80.9	88	77.5	0.0	---	0.00	0.0	81.4	89.8	89.8	29.835	0.00	0.000	0.342	86.6	79	79.3	100.3	30
08/17/01	2:00 a	81.2	81.6	80.8	88	77.3	0.0	---	0.00	1.0	81.2	89.2	89.2	29.821	0.00	0.000	0.337	86.3	79	79.0	99.4	30
08/17/01	2:30 a	80.9	81.4	80.4	89	77.4	0.0	---	0.00	0.0	80.9	88.7	88.7	29.818	0.00	0.000	0.331	85.9	80	79.0	98.6	30
08/17/01	3:00 a	80.5	81.1	79.8	89	77.0	0.0	---	0.00	0.0	80.5	87.7	87.7	29.817	0.00	0.000	0.323	85.5	80	78.6	97.6	30
08/17/01	3:30 a	80.1	80.7	79.6	90	76.9	0.0	---	0.00	0.0	80.1	87.0	87.0	29.810	0.00	0.000	0.315	85.2	81	78.7	97.3	30
08/17/01	4:00 a	80.0	80.5	79.5	90	76.8	0.0	---	0.00	1.0	80.0	86.8	86.8	29.806	0.00	0.000	0.313	84.9	81	78.4	96.6	30
08/17/01	4:30 a	79.9	80.4	79.4	90	76.7	0.0	NW	0.00	1.0	79.9	86.6	86.6	29.805	0.00	0.000	0.310	84.7	81	78.2	96.2	30
08/17/01	5:00 a	79.7	80.3	79.1	90	76.5	0.0	---	0.00	1.0	79.7	86.2	86.2	29.807	0.00	0.000	0.306	84.4	81	77.9	95.6	30
08/17/01	5:30 a	79.3	80.0	78.6	90	76.1	0.0	---	0.00	0.0	79.3	85.3	85.3	29.807	0.00	0.000	0.298	84.1	82	78.0	95.3	30
08/17/01	6:00 a	78.8	79.4	78.3	90	75.6	0.0	---	0.00	0.0	78.8	84.3	84.3	29.817	0.00	0.000	0.288	83.7	82	77.6	94.3	30
08/17/01	6:30 a	78.5	79.1	77.9	91	75.7	0.0	---	0.00	0.0	78.5	83.9	83.9	29.830	0.00	0.000	0.281	83.5	82	77.4	93.7	30
08/17/01	7:00 a	78.2	78.7	77.7	91	75.4	0.0	---	0.00	0.0	78.2	83.3	83.3	29.840	0.00	0.000	0.275	83.2	83	77.5	93.1	30
08/17/01	7:30 a	78.2	78.8	77.7	92	75.7	0.0	---	0.00	0.0	78.2	83.5	83.5	29.853	0.00	0.000	0.275	82.9	83	77.2	92.3	30
08/17/01	8:00 a	78.7	79.6	77.9	92	76.2	0.0	SSW	0.00	4.0	78.7	84.5	84.5	29.854	0.00	0.000	0.285	83.0	85	78.0	93.1	30
08/17/01	8:30 a	79.8	80.8	79.0	89	76.3	1.0	S	0.50	6.0	79.8	86.1	86.1	29.859	0.00	0.000	0.308	83.1	85	78.1	93.4	30
08/17/01	9:00 a	81.2	82.5	80.0	86	76.6	1.0	SSW	0.50	6.0	81.2	88.6	88.6	29.868	0.00	0.000	0.337	83.8	86	79.2	95.9	30
08/17/01	9:30 a	83.6	85.5	81.7	80	76.8	1.0	SW	0.50	4.0	83.6	93.4	93.4	29.872	0.00	0.000	0.387	85.1	87	80.8	99.7	30
08/17/01	10:00 a	86.2	87.7	84.8	73	76.5	1.0	SW	0.50	6.0	86.2	96.8	96.8	29.871	0.00	0.000	0.442	86.5	83	80.7	102.2	30
08/17/01	10:30 a	88.8	89.9	87.4	70	77.7	1.0	SSW	0.50	6.0	88.8	101.6	101.6	29.867	0.00	0.000	0.496	87.7	82	81.5	105.3	30
08/17/01	11:00 a	90.8	92.3	89.4	66	77.9	1.0	S	0.50	4.0	90.8	105.7	105.7	29.869	0.00	0.000	0.538	88.9	80	81.9	108.7	30
08/17/01	11:30 a	92.3	93.5	91.2	63	77.9	0.0	S	0.00	3.0	92.3	108.0	108.0	29.871	0.00	0.000	0.569	90.0	78	82.2	111.7	30
08/17/01	12:00 p	92.4	93.4	91.6	67	79.8	1.0	ESE	0.50	10.0	92.4	111.4	111.4	29.864	0.00	0.000	0.571	91.1	78	83.3	116.8	30
08/17/01	12:30 p	93.5	94.3	92.7	66	80.4	3.0	ESE	1.50	13.0	93.5	114.2	114.2	29.852	0.00	0.000	0.594	92.2	76	83.5	120.0	30
08/17/01	1:00 p	94.7	95.7	93.6	64	80.6	3.0	ESE	1.50	14.0	94.7	116.5	116.5	29.843	0.00	0.000	0.619	93.1	75	84.0	123.2	30
08/17/01	1:30 p	95.3	96.0	94.7	65	81.7	3.0	ESE	1.50	12.0	95.3	119.5	119.5	29.826	0.00	0.000	0.631	94.1	73	84.1	125.1	30
08/17/01	2:00 p	96.3	97.3	94.7	60	80.1	3.0	ESE	1.50	12.0	96.3	118.2	118.2	29.815	0.00	0.000	0.652	95.0	72	84.5	127.6	30
08/17/01	2:30 p	97.6	98.2	96.9	58	80.3	3.0	ESE	1.50	13.0	97.6	120.9	120.9	29.807	0.00	0.000	0.679	95.8	70	84.4	126.7	30
08/17/01	3:00 p	97.5	98.1	96.6	57	79.7	4.0	ESE	2.00	16.0	97.5	119.5	119.5	29.798	0.00	0.000	0.677	96.4	68	84.1	127.0	30
08/17/01	3:30 p	97.4	98.3	96.2	53	77.4	3.0	E	1.50	13.0	97.4	115.0	115.0	29.781	0.00	0.000	0.675	96.6	66	83.4	125.5	30
08/17/01	4:00 p	96.8	97.5	95.9	53	76.8	3.0	ESE	1.50	13.0	96.8	113.3	113.3	29.764	0.00	0.000	0.663	96.8	64	82.6	124.1	30
08/17/01	4:30 p	97.5	98.4	96.3	53	77.5	4.0	ESE	2.00	17.0	97.5	115.3	115.3	29.766	0.00	0.000	0.677	97.0	64	82.8	124.8	30
08/17/01	5:00 p	97.8	98.4	96.4	57	80.0	5.0	ESE	2.50	17.0	97.8	120.6	120.6	29.755	0.00	0.000	0.683	97.2	63	82.5	124.6	30
08/17/01	5:30 p	93.7	96.6	91.7	62	78.7	3.0	ESE	1.50	12.0	93.7	111.5	111.5	29.791	0.00	0.000	0.598	96.2	61	80.6	118.8	30
08/17/01	6:00 p	91.0	92.3	89.7	64	77.1	1.0	ESE	0.50	8.0	91.0	104.9	104.9	29.794	0.00	0.000	0.542	94.2	62	79.2	113.0	30
08/17/01	6:30 p	88.9	90.3	87.7	66	76.1	0.0	SW	0.00	5.0	88.9	99.9	99.9	29.771	0.00	0.000	0.498	92.8	63	78.3	109.5	30
08/17/01	7:00 p	86.9	88.0	85.7	70	75.9	0.0	W	0.00	3.0	86.9	97.3	97.3	29.780	0.00	0.000	0.456	91.4	63	77.0	105.4	30
08/17/01	7:30 p	85.3	86.2	84.7	72	75.2	0.0	NNW	0.00	1.0	85.3	94.3	94.3	29.778	0.00	0.000	0.423	90.4	65	77.0	103.9	30
08/17/01	8:00 p	84.6	85.3	84.2	72	74.6	0.0	---	0.00	1.0	84.6	92.8	92.8	29.785	0.00	0.000	0.408	89.6	66	76.7	102.1	30
08/17/01	8:30 p	83.9	84.6	83.1	74	74.7	0.0	---	0.00	0.0	83.9	92.1	92.1	29.791	0.00	0.000	0.394	88.7	67	76.3	99.8	30
08/17/01	9:00 p	82.9	83.7	82.2	76	74.6	0.0	---	0.00	0.0	82.9	90.2	90.2	29.805	0.00	0.000	0.373	88.2	68	76.3	98.7	30
08/17/01	9:30 p	82.1	82.8	81.6	78	74.6	0.0	---	0.00	0.0	82.1	88.6	88.6	29.816	0.00	0.000	0.356	87.7	69	76.3	98.1	30
08/17/01	10:00 p	81.7	82.1	81.2	80	74.9	0.0	---	0.00	0.0	81.7	88.2	88.2	29.821	0.00	0.000	0.348	87.2	70	76.2	97.8	30
08/17/01	10:30 p	81.3	81.8	80.9	79	74.2	0.0	---	0.00	1.0	81.3	87.0	87.0	29.817	0.00	0.000	0.340	86.8	71	76.3	97.5	30
08/17/01	11:00 p	81.2	81.6	80.9	81	74.8	0.0	S	0.00	2.0	81.2	87.2	87.2	29.816	0.00	0.000	0.337	86.4	72	76.3	96.9	30
08/17/01	11:30 p	81.1	81.5	80.6	82	75.1	0.0	S	0.00	1.0	81.1	87.3	87.3	29.818	0.00	0.000	0.335	86.2	73	76.5	96.8	30
08/18/01	12:00 a	80.9	81.3	80.5	83	75.2	0.0	---	0.00	1.0	80.9	87.1	87.1	29.821	0.00	0.000	0.331	85.8	74	76.5	96.2	30
08/18/01	12:30 a	80.9	81.2	80.5	85	76.0	0.0	S	0.00	1.0	80.9	87.6	87.6	29.818	0.00	0.000	0.331	85.6	75	76.8	96.0	30
08/18/01	1:00 a	80.9	81.3	80.5	86	76.3	0.0	S	0.00	3.0	80.9	87.9	87.9	29.816	0.00	0.000	0.331	85.4	77	77.4	96.3	30
08/18/01	1:30 a	80.9	81.3	80.5	87	76.7	0.0	S	0.00	3.0	80.9	88.1	88.1	29.813	0.00	0.000	0.331	85.3	78	77.7	96.4	30
08/18/01	2:00 a	81.0	81.4	80.4	87	76.8	0.0	S	0.00	1.0	81.0	88.4	88.4	29.807	0.00	0.000	0.333	85.2	79	77.9	96.5	30
08/18/01	2:30 a	80.5	81.2	79.7	87	76.3	0.0	S	0.00	1.0	80.5	87.2	87.2	29.798	0.00	0.000	0.323	85.0	79	77.8	96.0	30
08/18/01	3:00 a	79.8	80.4	79.1	87	75.6	0.0	---	0.00	1.0	79.8	85.7	85.7	29.800	0.00	0.000	0.308	84.7	78	77.1	95.1	30
08/18/01	3:30 a	79.3	79.9	78.7	88	75.4	0.0	S	0.00	1.0	79.3	84.9	84.9	29.800	0.00	0.000	0.298	84.4	79	77.2	94.9	30
08/18/01	4:00 a	78.9	79.4	78.4	89	75.4	0.0	S	0.00	1.0	78.9	84.3	84.3	29.795	0.00	0.000	0.290	84.1	80	77.3	94.7	30
08/18/01	4:30 a	78.7	79.2	78.1	90	75.5	0.0	---	0.00	0.0	78.7	84.1	84.1	29.789	0.00	0.000	0.285	83.8	80	77.0	93.9	30
08/18/01	5:00 a	78.3	78.9	77.7	90	75.1	0.0	---	0.00	0.0	78.3	83.4	83.4	29.795	0.00	0.000	0.277	83.4	80	76.6	92.8	30
08/18/01	5:30 a	77.9	78.4	77.4	90	74.7	0.0	---	0.00	0.0	77.9	82.6	82.6	29.798	0.00	0.000	0.269	83.1	81	76.7	92.3	30
08/18/01	6:00 a	77.6	78.2	77.1	91	74.8	0.0	---	0.00	0.0	77.6	82.2	82.2	29.797	0.00	0.000	0.262	82.8	80	76.0	91.1	30
08/18/01	6:30 a	77.5	77.9	76.9	90	74.3	0.0	---	0.00	0.0	77.5	81.9	81.9	29.802	0.00	0.000	0.260	82.7	79	75.5	90.6	30
08/18/01	7:00 a	77.3	77.7	76.7	91	74.5	0.0	---	0.00	0.0	77.3	81.6	81.6	29.805	0.00	0.000	0.256	82.5	78	74.9	89.7	30
08/18/01	7:30 a	77.1	77.6	76.6	92	74.6	0.0	---	0.00	0.0	77.1	81.4	81.4	29.816	0.00	0.000	0.252	82.3	78	74.7	89.2	30
08/18/01	8:00 a	77.5	78.3	76.8	92	75.0	0.0	---	0.00	0.0	77.5	82.1	82.1	29.823	0.00	0.000	0.260	82.4	84	77.1	91.2	30
08/18/01	8:30 a	78.6	79.4	77.6	91	75.8	0.0	NW	0.00	2.0	78.6	84.1	84.1	29.826	0.00	0.000	0.283	82.6	85	77.6	92.0	30
08/18/01	9:00 a	79.9	81.1	78.9	89	76.4	0.0	NW	0.00	3.0	79.9	86.4	86.4	29.828	0.00	0.000	0.310	83.2	85	78.2	93.7	30
08/18/01	9:30 a	82.3	84.4	80.8	81	75.9	0.0	NW	0.00	2.0	82.3	90.0	90.0	29.828	0.00	0.000	0.360	84.4	85	79.4	97.0	30
08/18/01	10:00 a	85.7	87.5	83.9	73	76.0	0.0	S	0.00	2.0	85.7	95.6	95.6	29.823	0.00	0.000	0.431	85.9	82	79.8	99.5	30
08/18/01	10:30 a	88.4	89.5	86.9	70	77.4	0.0	SSW	0.00	3.0	88.4	100.3	100.3	29.816	0.00	0.000	0.488	87.5	79	80.2	102.7	30
08/18/01	11:00 a	90.6	91.8	89.0	69	79.0	0.0	ESE	0.00	7.0	90.6	107.1	107.1	29.811	0.00	0.000	0.533	89.2	78	81.4	108.5	30
08/18/01	11:30 a	92.0	92.7	91.2	66	79.0	1.0	ENE	0.50	6.0	92.0	109.3	109.3	29.804	0.00	0.000	0.563	90.9	77	82.7	114.9	30
08/18/01	12:00 p	92.7	93.5	92.0	66	79.7	2.0	NE	1.00	12.0	92.7	111.6	111.6	29.786	0.00	0.000	0.577	92.7	74	83.2	119.9	30
08/18/01	12:30 p	93.9	94.6	93.2	65	80.3	3.0	ENE	1.50	14.0	93.9	114.6	114.6	29.775	0.00	0.000	0.602	94.1	72	83.7	123.3	30
08/18/01	1:00 p	94.2	95.0	93.5	60	78.2	3.0	ESE	1.50	16.0	94.2	111.3	111.3	29.775	0.00	0.000	0.608	95.1	69	83.3	122.8	30
08/18/01	1:30 p	94.5	95.3	93.7	59	78.0	4.0	ESE	2.00	17.0	94.5	111.5	111.5	29.768	0.00	0.000	0.615	96.1	65	82.4	122.5	30
08/18/01	2:00 p	95.2	96.1	94.4	56	77.0	5.0	ESE	2.50	18.0	95.2	111.4	111.4	29.760	0.00	0.000	0.629	96.8	61	81.1	120.9	30
08/18/01	2:30 p	95.1	96.3	94.3	58	78.0	4.0	ESE	2.00	19.0	95.1	112.6	112.6	29.752	0.00	0.000	0.627	97.2	61	81.5	122.4	30
08/18/01	3:00 p	95.3	96.2	94.3	59	78.7	5.0	ESE	2.50	19.0	95.3	114.0	114.0	29.736	0.00	0.000	0.631	97.7	61	82.0	124.3	30
08/18/01	3:30 p	94.8	95.9	94.1	60	78.7	4.0	ESE	2.00	16.0	94.8	113.2	113.2	29.721	0.00	0.000	0.621	98.0	61	82.3	125.4	30
08/18/01	4:00 p	96.1	97.0	95.3	58	78.9	5.0	ESE	2.50	20.0	96.1	115.8	115.8	29.705	0.00	0.000	0.648	98.1	61	82.3	125.8	30
08/18/01	4:30 p	96.7	97.3	96.1	58	79.5	4.0	ESE	2.00	20.0	96.7	117.8	117.8	29.695	0.00	0.000	0.660	96.1	64	81.9	121.5	30
08/18/01	5:00 p	96.6	97.4	95.9	61	80.9	4.0	ESE	2.00	15.0	96.6	120.2	120.2	29.691	0.00	0.000	0.658	94.4	66	81.3	117.2	30
08/18/01	5:30 p	95.9	96.3	95.4	60	79.8	4.0	ESE	2.00	16.0	95.9	116.8	116.8	29.697	0.00	0.000	0.644	93.9	66	80.8	115.5	30
08/18/01	6:00 p	94.8	95.8	93.8	61	79.2	4.0	SE	2.00	13.0	94.8	114.1	114.1	29.704	0.00	0.000	0.621	93.3	66	80.2	113.5	30
08/18/01	6:30 p	93.4	94.2	91.5	64	79.4	2.0	ESE	1.00	12.0	93.4	112.2	112.2	29.714	0.00	0.000	0.592	92.7	65	79.2	110.8	30
08/18/01	7:00 p	90.3	92.0	89.1	67	77.8	2.0	ESE	1.00	12.0	90.3	104.9	104.9	29.723	0.00	0.000	0.527	91.1	68	79.1	108.0	30
08/18/01	7:30 p	88.6	89.4	87.6	67	76.2	1.0	SE	0.50	7.0	88.6	99.5	99.5	29.731	0.00	0.000	0.492	89.8	68	77.8	103.9	30
08/18/01	8:00 p	87.3	88.0	86.5	72	77.2	0.0	SE	0.00	2.0	87.3	98.8	98.8	29.757	0.00	0.000	0.465	88.9	71	78.3	102.6	30
08/18/01	8:30 p	84.8	87.2	82.0	66	72.2	4.0	NW	2.00	22.0	84.8	91.1	91.1	29.776	0.00	0.000	0.413	88.2	62	73.5	96.2	30
08/18/01	9:00 p	80.9	82.5	80.0	68	69.3	1.0	N	0.50	8.0	80.9	83.9	83.9	29.748	0.00	0.000	0.331	86.7	63	72.6	94.2	30
08/18/01	9:30 p	80.6	81.1	79.8	73	71.1	0.0	N	0.00	6.0	80.6	84.3	84.3	29.738	0.00	0.000	0.325	86.5	64	72.9	94.1	30
08/18/01	10:00 p	80.0	80.5	79.6	76	71.8	0.0	NE	0.00	2.0	80.0	83.8	83.8	29.749	0.00	0.000	0.313	86.1	66	73.4	94.0	30
08/18/01	10:30 p	80.0	80.5	79.6	76	71.8	0.0	---	0.00	0.0	80.0	83.8	83.8	29.757	0.00	0.000	0.313	85.8	67	73.6	93.7	30
08/18/01	11:00 p	80.0	80.5	79.5	76	71.8	0.0	---	0.00	0.0	80.0	83.8	83.8	29.746	0.00	0.000	0.313	85.5	67	73.3	93.0	30
08/18/01	11:30 p	79.6	80.2	79.2	77	71.8	0.0	---	0.00	0.0	79.6	83.3	83.3	29.746	0.00	0.000	0.304	85.1	68	73.3	92.4	30
08/19/01	12:00 a	79.0	79.8	78.6	79	71.9	0.0	---	0.00	0.0	79.0	82.6	82.6	29.756	0.00	0.000	0.292	84.8	69	73.5	92.1	30
08/19/01	12:30 a	78.8	79.2	78.3	81	72.5	0.0	---	0.00	0.0	78.8	82.7	82.7	29.761	0.00	0.000	0.288	84.5	70	73.6	91.9	30
08/19/01	1:00 a	78.7	79.1	78.1	82	72.7	0.0	---	0.00	1.0	78.7	82.7	82.7	29.777	0.00	0.000	0.285	84.2	72	74.2	92.0	30
08/19/01	1:30 a	78.5	78.9	78.1	82	72.5	0.0	---	0.00	0.0	78.5	82.4	82.4	29.766	0.00	0.000	0.281	84.1	72	74.1	91.8	30
08/19/01	2:00 a	78.4	78.8	77.9	83	72.8	0.0	---	0.00	0.0	78.4	82.4	82.4	29.761	0.00	0.000	0.279	83.9	73	74.3	91.7	30
08/19/01	2:30 a	78.2	78.6	77.6	85	73.3	0.0	---	0.00	0.0	78.2	82.4	82.4	29.752	0.00	0.000	0.275	83.6	74	74.4	91.3	30
08/19/01	3:00 a	77.6	78.3	77.1	86	73.1	0.0	---	0.00	0.0	77.6	81.6	81.6	29.748	0.00	0.000	0.262	83.3	75	74.5	90.9	30
08/19/01	3:30 a	77.3	77.8	76.8	87	73.1	0.0	---	0.00	0.0	77.3	81.2	81.2	29.736	0.00	0.000	0.256	83.0	75	74.3	90.1	30
08/19/01	4:00 a	77.1	77.6	76.6	87	72.9	0.0	---	0.00	0.0	77.1	80.9	80.9	29.727	0.00	0.000	0.252	82.7	76	74.4	89.6	30
08/19/01	4:30 a	76.8	77.3	76.2	88	73.0	0.0	---	0.00	0.0	76.8	80.5	80.5	29.718	0.00	0.000	0.246	82.4	76	74.1	88.8	30
08/19/01	5:00 a	76.5	77.0	76.0	89	73.0	0.0	---	0.00	0.0	76.5	80.2	80.2	29.721	0.00	0.000	0.240	82.0	77	74.1	88.1	30
08/19/01	5:30 a	76.3	76.8	75.9	89	72.8	0.0	---	0.00	0.0	76.3	79.9	79.9	29.716	0.00	0.000	0.235	81.7	77	73.8	87.4	30
08/19/01	6:00 a	76.2	76.6	75.6	89	72.7	0.0	---	0.00	0.0	76.2	79.7	79.7	29.722	0.00	0.000	0.233	81.5	78	74.0	87.2	30
08/19/01	6:30 a	76.0	76.4	75.4	90	72.9	0.0	---	0.00	0.0	76.0	79.5	79.5	29.733	0.00	0.000	0.229	81.2	79	74.1	86.7	30
08/19/01	7:00 a	75.7	76.2	75.3	90	72.6	0.0	---	0.00	0.0	75.7	79.2	79.2	29.743	0.00	0.000	0.223	81.0	79	73.9	86.3	30
08/19/01	7:30 a	75.8	76.4	75.2	91	73.0	0.0	---	0.00	0.0	75.8	79.4	79.4	29.741	0.00	0.000	0.225	80.9	80	74.1	86.3	30
08/19/01	8:00 a	76.4	77.3	75.6	93	74.2	0.0	---	0.00	1.0	76.4	80.4	80.4	29.751	0.00	0.000	0.238	80.8	82	74.8	86.6	30
08/19/01	8:30 a	77.6	78.6	76.7	91	74.8	0.0	---	0.00	1.0	77.6	82.2	82.2	29.759	0.00	0.000	0.262	81.2	83	75.5	87.8	30
08/19/01	9:00 a	79.2	80.6	78.1	88	75.3	0.0	NNE	0.00	1.0	79.2	84.7	84.7	29.760	0.00	0.000	0.296	82.0	86	77.4	90.7	30
08/19/01	9:30 a	81.7	83.7	79.9	80	74.9	0.0	S	0.00	2.0	81.7	88.2	88.2	29.754	0.00	0.000	0.348	83.5	85	78.5	94.6	30
08/19/01	10:00 a	84.9	86.9	82.9	74	75.7	0.0	SW	0.00	4.0	84.9	94.1	94.1	29.756	0.00	0.000	0.415	85.5	81	79.0	98.0	30
08/19/01	10:30 a	88.1	89.6	86.3	66	75.3	1.0	SSW	0.50	6.0	88.1	97.5	97.5	29.751	0.00	0.000	0.481	87.4	76	78.9	100.9	30
08/19/01	11:00 a	90.3	91.5	89.2	63	76.0	1.0	S	0.50	7.0	90.3	102.4	102.4	29.756	0.00	0.000	0.527	89.0	71	78.4	102.9	30
08/19/01	11:30 a	92.4	93.5	91.1	58	75.5	0.0	SSW	0.00	5.0	92.4	104.9	104.9	29.755	0.00	0.000	0.571	90.6	68	78.6	106.4	30
08/19/01	12:00 p	93.6	94.5	92.5	65	80.1	1.0	ESE	0.50	10.0	93.6	113.6	113.6	29.759	0.00	0.000	0.596	91.9	70	80.7	112.0	30
08/19/01	12:30 p	93.2	93.8	92.5	65	79.7	1.0	NE	0.50	8.0	93.2	112.3	112.3	29.751	0.00	0.000	0.587	92.5	70	81.3	114.0	30
08/19/01	1:00 p	93.4	94.6	92.6	62	78.4	2.0	NE	1.00	11.0	93.4	110.5	110.5	29.741	0.00	0.000	0.592	93.3	68	81.2	115.2	30
08/19/01	1:30 p	94.8	95.4	94.0	61	79.2	3.0	ESE	1.50	14.0	94.8	114.1	114.1	29.735	0.00	0.000	0.621	93.5	68	81.3	115.8	30
08/19/01	2:00 p	94.8	95.6	94.3	61	79.2	3.0	ENE	1.50	13.0	94.8	114.1	114.1	29.721	0.00	0.000	0.621	94.0	66	80.9	115.8	30
08/19/01	2:30 p	94.9	95.8	94.0	61	79.3	3.0	ESE	1.50	14.0	94.9	114.4	114.4	29.708	0.00	0.000	0.623	95.4	66	82.2	120.9	30
08/19/01	3:00 p	94.9	95.6	94.2	61	79.3	3.0	ESE	1.50	13.0	94.9	114.4	114.4	29.691	0.00	0.000	0.623	97.0	64	82.8	124.8	30
08/19/01	3:30 p	95.0	95.8	94.1	60	78.9	3.0	ENE	1.50	14.0	95.0	113.8	113.8	29.684	0.00	0.000	0.625	97.5	62	82.3	124.7	30
08/19/01	4:00 p	95.7	96.6	94.6	56	77.5	3.0	ESE	1.50	15.0	95.7	112.8	112.8	29.676	0.00	0.000	0.640	97.4	61	81.7	123.2	30
08/19/01	4:30 p	95.8	96.8	94.2	59	79.2	3.0	ESE	1.50	18.0	95.8	115.6	115.6	29.681	0.00	0.000	0.642	97.6	58	80.3	120.9	30
08/19/01	5:00 p	93.3	94.5	92.4	60	77.3	3.0	SE	1.50	12.0	93.3	108.6	108.6	29.692	0.00	0.000	0.590	94.1	61	78.6	111.9	30
08/19/01	5:30 p	93.4	93.7	92.9	60	77.4	2.0	ESE	1.00	11.0	93.4	108.9	108.9	29.681	0.00	0.000	0.592	92.6	63	78.2	108.9	30
08/19/01	6:00 p	92.7	93.6	92.2	61	77.3	3.0	SE	1.50	11.0	92.7	107.6	107.6	29.672	0.00	0.000	0.577	92.3	64	78.4	108.8	30
08/19/01	6:30 p	91.6	92.4	91.1	64	77.7	3.0	ESE	1.50	14.0	91.6	106.7	106.7	29.659	0.00	0.000	0.554	91.7	67	79.2	109.1	30
08/19/01	7:00 p	90.7	91.6	90.0	67	78.2	3.0	SE	1.50	11.0	90.7	106.1	106.1	29.654	0.00	0.000	0.535	91.2	69	79.6	109.0	30
08/19/01	7:30 p	89.0	89.9	88.0	71	78.4	2.0	SE	1.00	9.0	89.0	102.9	102.9	29.664	0.00	0.000	0.500	90.2	70	79.1	106.4	30
08/19/01	8:00 p	87.2	88.2	86.2	73	77.5	1.0	SE	0.50	8.0	87.2	99.1	99.1	29.673	0.00	0.000	0.462	90.2	70	79.1	106.4	30
08/19/01	8:30 p	85.9	86.6	85.2	75	77.1	1.0	SSE	0.50	8.0	85.9	96.8	96.8	29.693	0.00	0.000	0.435	89.6	71	78.9	105.1	30
08/19/01	9:00 p	85.1	85.6	84.4	76	76.7	0.0	SSE	0.00	5.0	85.1	95.2	95.2	29.713	0.00	0.000	0.419	88.9	71	78.3	102.6	30
08/19/01	9:30 p	84.5	84.9	84.1	76	76.1	0.0	SE	0.00	6.0	84.5	94.0	94.0	29.732	0.00	0.000	0.406	88.5	71	77.9	101.2	30
08/19/01	10:00 p	84.2	84.6	83.6	77	76.2	0.0	SE	0.00	4.0	84.2	93.8	93.8	29.742	0.00	0.000	0.400	88.2	71	77.6	100.2	30
08/19/01	10:30 p	83.7	84.1	83.1	79	76.5	0.0	SSE	0.00	4.0	83.7	93.3	93.3	29.753	0.00	0.000	0.390	87.9	72	77.7	99.8	30
08/19/01	11:00 p	83.3	83.7	82.8	80	76.5	0.0	SSE	0.00	3.0	83.3	92.5	92.5	29.760	0.00	0.000	0.381	87.6	72	77.5	99.3	30
08/19/01	11:30 p	82.9	83.3	82.5	81	76.5	0.0	SSE	0.00	3.0	82.9	91.7	91.7	29.756	0.00	0.000	0.373	87.3	74	78.0	99.7	30
08/20/01	12:00 a	82.7	83.1	82.3	83	77.0	0.0	SSE	0.00	2.0	82.7	91.7	91.7	29.758	0.00	0.000	0.369	87.0	75	78.1	99.6	30
08/20/01	12:30 a	82.6	82.9	82.2	84	77.3	0.0	SSE	0.00	2.0	82.6	91.7	91.7	29.754	0.00	0.000	0.367	86.8	76	78.3	99.6	30
08/20/01	1:00 a	82.5	82.9	82.1	84	77.2	0.0	SSE	0.00	2.0	82.5	91.5	91.5	29.758	0.00	0.000	0.365	86.6	77	78.5	99.4	30
08/20/01	1:30 a	82.4	82.8	82.0	85	77.4	0.0	---	0.00	1.0	82.4	91.5	91.5	29.762	0.00	0.000	0.363	86.5	78	78.8	99.6	30
08/20/01	2:00 a	82.1	82.5	81.6	86	77.5	0.0	SSE	0.00	1.0	82.1	91.0	91.0	29.757	0.00	0.000	0.356	86.3	78	78.6	99.0	30
08/20/01	2:30 a	81.7	82.3	81.2	86	77.1	0.0	---	0.00	0.0	81.7	89.9	89.9	29.753	0.00	0.000	0.348	86.1	79	78.8	98.8	30
08/20/01	3:00 a	81.4	81.8	81.0	86	76.8	0.0	---	0.00	0.0	81.4	89.1	89.1	29.742	0.00	0.000	0.342	85.8	78	78.1	97.6	30
08/20/01	3:30 a	81.2	81.6	80.7	87	77.0	0.0	---	0.00	0.0	81.2	88.9	88.9	29.733	0.00	0.000	0.337	85.6	79	78.3	97.5	30
08/20/01	4:00 a	80.9	81.3	80.4	88	77.0	0.0	---	0.00	0.0	80.9	88.4	88.4	29.735	0.00	0.000	0.331	85.4	80	78.5	97.4	30
08/20/01	4:30 a	80.7	81.0	80.3	88	76.8	0.0	---	0.00	0.0	80.7	87.9	87.9	29.723	0.00	0.000	0.327	85.1	80	78.2	96.6	30
08/20/01	5:00 a	80.4	80.8	80.0	88	76.5	0.0	---	0.00	0.0	80.4	87.2	87.2	29.722	0.00	0.000	0.321	84.9	80	78.0	96.2	30
08/20/01	5:30 a	80.0	80.4	79.4	89	76.5	0.0	SSW	0.00	3.0	80.0	86.6	86.6	29.732	0.00	0.000	0.313	84.7	81	78.2	96.2	30
08/20/01	6:00 a	79.7	80.3	79.2	90	76.5	0.0	SW	0.00	1.0	79.7	86.2	86.2	29.740	0.00	0.000	0.306	84.5	82	78.4	96.2	30
08/20/01	6:30 a	79.4	79.9	78.9	90	76.2	0.0	---	0.00	0.0	79.4	85.5	85.5	29.735	0.00	0.000	0.300	84.2	81	77.7	95.2	30
08/20/01	7:00 a	79.0	79.6	78.2	91	76.1	0.0	---	0.00	0.0	79.0	84.9	84.9	29.744	0.00	0.000	0.292	83.9	82	77.8	94.9	30
08/20/01	7:30 a	78.4	78.9	77.9	92	75.9	0.0	---	0.00	0.0	78.4	83.9	83.9	29.751	0.00	0.000	0.279	83.5	82	77.4	93.7	30
08/20/01	8:00 a	78.8	79.5	78.0	91	75.9	0.0	SW	0.00	1.0	78.8	84.5	84.5	29.759	0.00	0.000	0.288	83.3	83	77.6	93.4	30
08/20/01	8:30 a	79.3	80.0	78.6	89	75.8	0.0	SW	0.00	1.0	79.3	85.1	85.1	29.756	0.00	0.000	0.298	83.3	83	77.6	93.4	30
08/20/01	9:00 a	80.0	80.8	79.3	87	75.8	0.0	SW	0.00	1.0	80.0	86.1	86.1	29.767	0.00	0.000	0.313	83.7	83	78.0	94.6	30
08/20/01	9:30 a	81.6	83.1	80.0	83	75.9	0.0	SSE	0.00	2.0	81.6	88.8	88.8	29.778	0.00	0.000	0.346	84.5	84	79.1	96.9	30
08/20/01	10:00 a	85.0	86.7	82.8	75	76.2	0.0	SSW	0.00	4.0	85.0	94.6	94.6	29.781	0.00	0.000	0.417	86.0	84	80.6	100.7	30
08/20/01	10:30 a	88.0	89.7	86.2	69	76.5	1.0	SSW	0.50	7.0	88.0	98.6	98.6	29.784	0.00	0.000	0.479	87.5	81	80.9	104.0	30
08/20/01	11:00 a	89.8	90.8	89.1	68	77.8	1.0	SW	0.50	5.0	89.8	103.9	103.9	29.783	0.00	0.000	0.517	88.8	79	81.4	107.5	30
08/20/01	11:30 a	90.7	92.1	89.2	68	78.7	0.0	ESE	0.00	6.0	90.7	106.7	106.7	29.774	0.00	0.000	0.535	89.5	76	80.9	108.2	30
08/20/01	12:00 p	93.0	93.8	91.8	59	76.6	1.0	SE	0.50	7.0	93.0	107.1	107.1	29.765	0.00	0.000	0.583	90.7	75	81.7	112.2	30
08/20/01	12:30 p	93.5	94.4	92.5	65	80.0	0.0	N	0.00	6.0	93.5	113.3	113.3	29.755	0.00	0.000	0.594	91.8	73	81.9	114.8	30
08/20/01	1:00 p	92.9	94.4	91.6	64	78.9	1.0	NE	0.50	9.0	92.9	110.6	110.6	29.743	0.00	0.000	0.581	92.9	73	83.0	119.5	30
08/20/01	1:30 p	94.8	95.5	93.9	63	80.2	2.0	ENE	1.00	13.0	94.8	115.9	115.9	29.733	0.00	0.000	0.621	93.9	71	83.1	120.7	30
08/20/01	2:00 p	95.8	96.6	94.8	58	78.6	2.0	E	1.00	11.0	95.8	114.8	114.8	29.724	0.00	0.000	0.642	95.0	69	83.2	122.4	30
08/20/01	2:30 p	96.8	97.5	96.0	59	80.1	2.0	E	1.00	15.0	96.8	119.0	119.0	29.710	0.00	0.000	0.663	95.8	68	83.5	124.6	30
08/20/01	3:00 p	97.1	97.5	96.6	59	80.4	3.0	ESE	1.50	13.0	97.1	120.0	120.0	29.702	0.00	0.000	0.669	96.5	67	83.7	126.3	30
08/20/01	3:30 p	97.5	98.6	96.1	60	81.3	3.0	ENE	1.50	12.0	97.5	122.4	122.4	29.696	0.00	0.000	0.677	96.9	66	83.7	126.7	30
08/20/01	4:00 p	97.0	98.2	96.0	59	80.3	3.0	ESE	1.50	12.0	97.0	119.7	119.7	29.697	0.00	0.000	0.667	97.2	65	83.5	126.7	30
08/20/01	4:30 p	96.7	97.6	95.9	57	79.0	3.0	ESE	1.50	12.0	96.7	116.9	116.9	29.688	0.00	0.000	0.660	97.2	64	83.0	125.6	30
08/20/01	5:00 p	96.9	97.8	96.2	57	79.1	3.0	ESE	1.50	16.0	96.9	117.5	117.5	29.679	0.00	0.000	0.665	97.3	64	83.1	126.0	30
08/20/01	5:30 p	96.5	97.6	95.3	57	78.8	3.0	E	1.50	15.0	96.5	116.2	116.2	29.682	0.00	0.000	0.656	96.6	62	81.4	121.3	30
08/20/01	6:00 p	94.7	95.6	93.2	61	79.2	3.0	ESE	1.50	14.0	94.7	113.8	113.8	29.696	0.00	0.000	0.619	94.7	62	79.7	114.7	30
08/20/01	6:30 p	92.0	93.5	90.6	66	79.0	2.0	SE	1.00	12.0	92.0	109.3	109.3	29.690	0.00	0.000	0.563	94.7	63	80.1	115.6	30
08/20/01	7:00 p	90.0	90.9	89.3	69	78.5	1.0	ESE	0.50	9.0	90.0	105.2	105.2	29.701	0.00	0.000	0.521	93.0	67	80.4	113.3	30
08/20/01	7:30 p	88.6	89.7	87.1	64	74.9	1.0	SSW	0.50	6.0	88.6	98.1	98.1	29.703	0.00	0.000	0.492	90.7	63	76.4	103.5	30
08/20/01	8:00 p	86.4	87.4	85.3	68	74.6	0.0	SSW	0.00	2.0	86.4	95.4	95.4	29.714	0.00	0.000	0.446	89.1	66	76.3	100.5	30
08/20/01	8:30 p	84.3	85.7	83.1	72	74.3	0.0	NNW	0.00	3.0	84.3	92.2	92.2	29.737	0.00	0.000	0.402	88.7	66	75.9	99.3	30
08/20/01	9:00 p	83.5	83.8	83.1	74	74.3	0.0	SW	0.00	2.0	83.5	91.1	91.1	29.735	0.00	0.000	0.385	88.3	68	76.4	99.1	30
08/20/01	9:30 p	83.4	83.9	82.8	77	75.4	0.0	NNW	0.00	4.0	83.4	91.8	91.8	29.759	0.00	0.000	0.383	88.0	70	77.0	99.0	30
08/20/01	10:00 p	82.8	83.2	82.5	75	74.1	0.0	NW	0.00	5.0	82.8	89.6	89.6	29.762	0.00	0.000	0.371	87.7	69	76.3	98.1	30
08/20/01	10:30 p	82.8	83.2	82.4	77	74.8	0.0	---	0.00	0.0	82.8	90.2	90.2	29.751	0.00	0.000	0.371	87.6	70	76.6	98.4	30
08/20/01	11:00 p	82.4	82.7	82.0	75	73.7	0.0	---	0.00	0.0	82.4	88.5	88.5	29.760	0.00	0.000	0.363	87.3	69	75.9	97.6	30
08/20/01	11:30 p	82.1	82.5	81.7	77	74.2	0.0	---	0.00	1.0	82.1	88.3	88.3	29.756	0.00	0.000	0.356	87.0	69	75.6	97.1	30
08/21/01	12:00 a	82.0	82.2	81.5	78	74.5	0.0	---	0.00	0.0	82.0	88.3	88.3	29.751	0.00	0.000	0.354	86.7	71	76.2	97.2	30
08/21/01	12:30 a	81.7	82.0	81.4	81	75.3	0.0	---	0.00	0.0	81.7	88.5	88.5	29.742	0.00	0.000	0.348	86.5	72	76.4	97.2	30
08/21/01	1:00 a	81.3	81.9	80.8	81	74.9	0.0	---	0.00	0.0	81.3	87.5	87.5	29.755	0.00	0.000	0.340	86.2	73	76.5	96.8	30
08/21/01	1:30 a	80.4	81.1	79.8	80	73.7	0.0	NNW	0.00	4.0	80.4	85.3	85.3	29.756	0.00	0.000	0.321	85.8	72	75.7	95.5	30
08/21/01	2:00 a	79.9	80.5	79.6	80	73.2	0.0	---	0.00	0.0	79.9	84.3	84.3	29.749	0.00	0.000	0.310	85.4	72	75.3	94.5	30
08/21/01	2:30 a	79.4	79.8	79.0	80	72.7	0.0	---	0.00	0.0	79.4	83.5	83.5	29.737	0.00	0.000	0.300	85.0	71	74.5	93.2	30
08/21/01	3:00 a	78.7	79.4	78.3	81	72.4	0.0	NW	0.00	1.0	78.7	82.5	82.5	29.733	0.00	0.000	0.285	84.6	72	74.6	92.8	30
08/21/01	3:30 a	78.2	78.7	77.7	82	72.3	0.0	---	0.00	0.0	78.2	82.0	82.0	29.738	0.00	0.000	0.275	84.2	72	74.2	92.0	30
08/21/01	4:00 a	77.9	78.3	77.5	84	72.7	0.0	---	0.00	0.0	77.9	81.8	81.8	29.733	0.00	0.000	0.269	83.8	73	74.2	91.5	30
08/21/01	4:30 a	77.4	77.8	77.0	85	72.5	0.0	---	0.00	0.0	77.4	81.2	81.2	29.733	0.00	0.000	0.258	83.4	73	73.8	90.4	30
08/21/01	5:00 a	77.0	77.4	76.6	86	72.5	0.0	---	0.00	0.0	77.0	80.7	80.7	29.733	0.00	0.000	0.250	83.1	74	73.9	90.0	30
08/21/01	5:30 a	76.7	77.0	76.2	88	72.9	0.0	---	0.00	0.0	76.7	80.4	80.4	29.733	0.00	0.000	0.244	82.7	75	74.0	89.3	30
08/21/01	6:00 a	76.4	76.8	76.1	88	72.6	0.0	---	0.00	0.0	76.4	80.0	80.0	29.742	0.00	0.000	0.238	82.4	76	74.1	88.8	30
08/21/01	6:30 a	76.3	76.6	75.9	88	72.5	0.0	---	0.00	0.0	76.3	79.8	79.8	29.749	0.00	0.000	0.235	82.1	77	74.2	88.3	30
08/21/01	7:00 a	76.1	76.5	75.7	89	72.6	0.0	---	0.00	0.0	76.1	79.6	79.6	29.756	0.00	0.000	0.231	81.8	77	73.9	87.6	30
08/21/01	7:30 a	76.0	76.4	75.6	90	72.9	0.0	---	0.00	0.0	76.0	79.5	79.5	29.764	0.00	0.000	0.229	81.5	78	74.0	87.2	30
08/21/01	8:00 a	76.6	77.4	76.0	91	73.8	0.0	---	0.00	0.0	76.6	80.5	80.5	29.772	0.00	0.000	0.242	81.5	79	74.4	87.4	30
08/21/01	8:30 a	78.0	79.4	77.0	90	74.8	0.0	---	0.00	1.0	78.0	82.8	82.8	29.770	0.00	0.000	0.271	81.8	81	75.4	88.7	30
08/21/01	9:00 a	79.9	81.0	79.0	87	75.7	0.0	---	0.00	0.0	79.9	85.9	85.9	29.773	0.00	0.000	0.310	82.7	84	77.4	92.0	30
08/21/01	9:30 a	82.2	83.6	80.7	81	75.8	0.0	NNW	0.00	1.0	82.2	89.8	89.8	29.780	0.00	0.000	0.358	83.9	85	78.9	95.8	30
08/21/01	10:00 a	84.6	85.7	83.1	75	75.8	0.0	S	0.00	1.0	84.6	93.8	93.8	29.785	0.00	0.000	0.408	85.2	83	79.4	98.1	30
08/21/01	10:30 a	86.5	87.8	85.2	71	76.0	0.0	S	0.00	2.0	86.5	96.8	96.8	29.794	0.00	0.000	0.448	86.3	80	79.4	99.8	30
08/21/01	11:00 a	88.6	90.2	87.4	67	76.2	0.0	SSW	0.00	2.0	88.6	99.5	99.5	29.787	0.00	0.000	0.492	87.4	78	79.7	101.9	30
08/21/01	11:30 a	89.7	90.3	89.0	65	76.4	0.0	NW	0.00	3.0	89.7	101.8	101.8	29.786	0.00	0.000	0.515	88.5	76	80.0	104.1	30
08/21/01	12:00 p	90.4	91.3	89.5	66	77.5	0.0	NNW	0.00	1.0	90.4	104.6	104.6	29.778	0.00	0.000	0.529	89.3	74	79.9	106.0	30
08/21/01	12:30 p	90.4	91.8	89.5	65	77.0	0.0	ENE	0.00	5.0	90.4	103.9	103.9	29.764	0.00	0.000	0.529	90.3	74	80.9	109.8	30
08/21/01	1:00 p	91.4	92.1	90.8	66	78.4	1.0	ENE	0.50	7.0	91.4	107.5	107.5	29.757	0.00	0.000	0.550	91.3	73	81.4	112.8	30
08/21/01	1:30 p	91.0	91.9	90.1	67	78.5	1.0	NE	0.50	7.0	91.0	107.0	107.0	29.740	0.00	0.000	0.542	91.8	72	81.5	113.8	30
08/21/01	2:00 p	92.3	93.2	91.6	65	78.8	1.0	ENE	0.50	9.0	92.3	109.5	109.5	29.733	0.00	0.000	0.569	92.5	71	81.7	115.3	30
08/21/01	2:30 p	92.8	93.7	91.9	63	78.3	1.0	ENE	0.50	9.0	92.8	109.5	109.5	29.718	0.00	0.000	0.579	93.2	70	82.0	116.4	30
08/21/01	3:00 p	92.9	93.6	91.7	64	78.9	1.0	ENE	0.50	12.0	92.9	110.6	110.6	29.702	0.00	0.000	0.581	93.8	68	81.6	116.9	30
08/21/01	3:30 p	90.9	92.1	89.8	67	78.4	2.0	ENE	1.00	8.0	90.9	106.7	106.7	29.687	0.00	0.000	0.540	93.8	68	81.6	116.9	30
08/21/01	4:00 p	88.9	90.1	88.2	68	77.0	1.0	ENE	0.50	8.0	88.9	100.9	100.9	29.682	0.00	0.000	0.498	93.0	67	80.4	113.3	30
08/21/01	4:30 p	87.6	88.6	86.6	69	76.2	1.0	ENE	0.50	8.0	87.6	98.0	98.0	29.693	0.00	0.000	0.471	92.0	67	79.5	110.1	30
08/21/01	5:00 p	86.5	87.2	86.0	73	76.8	1.0	NE	0.50	8.0	86.5	97.5	97.5	29.707	0.00	0.000	0.448	91.1	68	79.1	108.0	30
08/21/01	5:30 p	86.1	86.7	85.5	75	77.2	1.0	ENE	0.50	8.0	86.1	97.3	97.3	29.697	0.00	0.000	0.440	90.5	70	79.4	107.4	30
08/21/01	6:00 p	85.4	86.2	84.5	77	77.4	1.0	NE	0.50	8.0	85.4	96.3	96.3	29.721	0.00	0.000	0.425	89.3	73	79.5	105.3	30
08/21/01	6:30 p	84.6	85.2	84.0	82	78.5	0.0	NE	0.00	6.0	84.6	96.4	96.4	29.733	0.00	0.000	0.408	88.5	76	80.0	104.1	30
08/21/01	7:00 p	82.3	84.6	76.4	82	76.3	3.0	NW	1.50	23.0	82.3	90.3	90.3	29.779	0.63	0.000	0.360	87.6	69	76.2	98.0	30
08/21/01	7:30 p	73.9	76.3	72.8	86	69.4	4.0	ENE	2.00	19.0	73.9	76.1	76.1	29.772	0.71	0.000	0.185	85.0	65	71.9	91.1	30
08/21/01	8:00 p	73.8	74.3	73.1	87	69.7	3.0	ESE	1.50	18.0	73.8	76.1	76.1	29.764	0.01	0.000	0.183	83.7	68	72.0	89.5	30
08/21/01	8:30 p	74.0	74.6	73.3	87	69.9	1.0	E	0.50	10.0	74.0	76.3	76.3	29.743	0.00	0.000	0.188	83.3	69	72.1	88.8	30
08/21/01	9:00 p	74.0	74.6	73.6	88	70.2	0.0	---	0.00	2.0	74.0	76.3	76.3	29.750	0.00	0.000	0.188	82.8	71	72.4	88.3	30
08/21/01	9:30 p	74.0	74.5	73.5	88	70.2	0.0	---	0.00	0.0	74.0	76.3	76.3	29.758	0.00	0.000	0.188	82.4	72	72.5	87.7	30
08/21/01	10:00 p	73.6	74.2	73.2	88	69.8	1.0	SW	0.50	5.0	73.6	75.9	75.9	29.763	0.00	0.000	0.179	81.9	72	72.0	86.6	30
08/21/01	10:30 p	73.4	73.8	73.0	90	70.3	1.0	SSW	0.50	6.0	73.4	75.9	75.9	29.759	0.00	0.000	0.175	81.4	73	71.9	85.8	30
08/21/01	11:00 p	73.4	73.8	73.0	90	70.3	2.0	SSW	1.00	10.0	73.4	75.9	75.9	29.764	0.00	0.000	0.175	81.2	73	71.7	85.4	30
08/21/01	11:30 p	73.2	73.7	72.8	91	70.4	0.0	NW	0.00	3.0	73.2	75.8	75.8	29.771	0.00	0.000	0.171	80.9	73	71.4	84.8	30
08/22/01	12:00 a	72.9	73.5	72.5	93	70.8	0.0	NNW	0.00	2.0	72.9	75.6	75.6	29.775	0.00	0.000	0.165	80.7	73	71.2	84.5	30
08/22/01	12:30 a	73.2	73.9	72.5	91	70.4	0.0	NNW	0.00	3.0	73.2	75.8	75.8	29.787	0.00	0.000	0.171	80.6	73	71.1	84.3	30
08/22/01	1:00 a	73.5	73.9	73.0	91	70.7	0.0	---	0.00	0.0	73.5	76.0	76.0	29.771	0.00	0.000	0.177	80.4	73	70.9	83.9	30
08/22/01	1:30 a	73.4	73.8	73.0	91	70.6	0.0	---	0.00	0.0	73.4	75.9	75.9	29.755	0.00	0.000	0.175	80.2	73	70.8	83.6	30
08/22/01	2:00 a	73.2	73.6	72.7	92	70.7	0.0	---	0.00	0.0	73.2	75.8	75.8	29.752	0.00	0.000	0.171	79.9	73	70.5	83.1	30
08/22/01	2:30 a	72.9	73.4	72.3	92	70.4	0.0	NNW	0.00	2.0	72.9	75.5	75.5	29.758	0.00	0.000	0.165	79.7	74	70.7	83.0	30
08/22/01	3:00 a	72.4	73.0	72.0	93	70.3	0.0	E	0.00	1.0	72.4	75.0	75.0	29.756	0.00	0.000	0.154	79.4	74	70.4	82.5	30
08/22/01	3:30 a	72.2	72.7	71.8	93	70.1	0.0	---	0.00	0.0	72.2	74.8	74.8	29.753	0.00	0.000	0.150	79.1	73	69.7	81.9	30
08/22/01	4:00 a	71.9	72.5	71.5	93	69.8	0.0	E	0.00	1.0	71.9	74.5	74.5	29.750	0.00	0.000	0.144	78.8	73	69.4	81.4	30
08/22/01	4:30 a	71.9	72.3	71.4	94	70.1	0.0	---	0.00	1.0	71.9	74.6	74.6	29.756	0.00	0.000	0.144	78.6	73	69.2	81.2	30
08/22/01	5:00 a	71.9	72.3	71.5	93	69.8	0.0	---	0.00	0.0	71.9	74.5	74.5	29.762	0.00	0.000	0.144	78.4	73	69.0	80.9	30
08/22/01	5:30 a	71.8	72.2	71.4	94	70.0	0.0	---	0.00	0.0	71.8	74.5	74.5	29.771	0.00	0.000	0.142	78.3	74	69.3	80.9	30
08/22/01	6:00 a	72.0	72.5	71.5	96	70.8	0.0	E	0.00	2.0	72.0	75.0	75.0	29.778	0.00	0.000	0.146	78.2	75	69.6	80.9	30
08/22/01	6:30 a	72.5	73.1	71.7	96	71.3	0.0	---	0.00	0.0	72.5	75.5	75.5	29.791	0.00	0.000	0.156	78.2	75	69.6	80.9	30
08/22/01	7:00 a	73.4	74.0	72.6	97	72.5	0.0	NNE	0.00	4.0	73.4	76.6	76.6	29.799	0.01	0.000	0.175	78.3	77	70.5	81.3	30
08/22/01	7:30 a	73.7	74.0	73.3	97	72.8	0.0	---	0.00	0.0	73.7	76.9	76.9	29.804	0.00	0.000	0.181	78.4	77	70.6	81.5	30
08/22/01	8:00 a	73.9	74.5	73.3	97	73.0	0.0	NNE	0.00	1.0	73.9	77.1	77.1	29.807	0.00	0.000	0.185	78.4	77	70.6	81.5	30
08/22/01	8:30 a	74.7	75.5	74.0	99	74.4	0.0	NNE	0.00	1.0	74.7	78.4	78.4	29.809	0.00	0.000	0.202	78.6	78	71.2	81.9	30
08/22/01	9:00 a	76.8	78.3	75.3	92	74.3	1.0	NNE	0.50	5.0	76.8	80.9	80.9	29.797	0.00	0.000	0.246	79.3	82	73.3	83.7	30
08/22/01	9:30 a	79.1	80.7	77.7	85	74.2	1.0	ESE	0.50	5.0	79.1	83.9	83.9	29.798	0.00	0.000	0.294	80.4	83	74.8	86.0	30
08/22/01	10:00 a	81.9	83.4	80.4	80	75.1	0.0	E	0.00	4.0	81.9	88.7	88.7	29.802	0.00	0.000	0.352	81.7	84	76.4	89.3	30
08/22/01	10:30 a	83.7	84.7	82.8	78	76.1	0.0	SE	0.00	3.0	83.7	93.0	93.0	29.802	0.00	0.000	0.390	83.1	83	77.4	92.8	30
08/22/01	11:00 a	84.9	85.4	84.1	77	76.9	0.0	S	0.00	4.0	84.9	95.1	95.1	29.805	0.00	0.000	0.415	84.2	82	78.1	95.6	30
08/22/01	11:30 a	86.7	88.0	84.8	73	77.0	0.0	NE	0.00	5.0	86.7	98.0	98.0	29.798	0.00	0.000	0.452	85.3	79	78.0	96.8	30
08/22/01	12:00 p	87.2	88.3	86.5	70	76.2	1.0	NE	0.50	10.0	87.2	97.8	97.8	29.793	0.00	0.000	0.462	86.6	77	78.5	99.4	30
08/22/01	12:30 p	88.4	89.7	87.6	66	75.6	1.0	ESE	0.50	6.0	88.4	98.4	98.4	29.783	0.00	0.000	0.488	87.5	75	78.6	100.5	30
08/22/01	1:00 p	90.2	90.9	89.2	64	76.4	2.0	ESE	1.00	16.0	90.2	102.7	102.7	29.773	0.00	0.000	0.525	88.7	73	78.9	103.1	30
08/22/01	1:30 p	90.4	91.2	89.6	65	77.0	3.0	ESE	1.50	12.0	90.4	103.9	103.9	29.765	0.00	0.000	0.529	89.5	73	79.7	106.1	30
08/22/01	2:00 p	91.2	92.0	90.5	64	77.3	2.0	ENE	1.00	14.0	91.2	105.5	105.5	29.758	0.00	0.000	0.546	90.4	71	79.7	107.9	30
08/22/01	2:30 p	92.2	93.0	91.2	62	77.3	3.0	ESE	1.50	15.0	92.2	107.0	107.0	29.755	0.00	0.000	0.567	91.4	70	80.2	110.3	30
08/22/01	3:00 p	92.4	93.4	91.8	61	77.0	2.0	E	1.00	13.0	92.4	106.8	106.8	29.738	0.00	0.000	0.571	92.3	68	80.2	111.8	30
08/22/01	3:30 p	93.7	94.4	92.8	59	77.2	4.0	ESE	2.00	15.0	93.7	109.1	109.1	29.730	0.00	0.000	0.598	92.8	67	80.2	112.7	30
08/22/01	4:00 p	92.8	93.5	91.7	57	75.3	3.0	ENE	1.50	11.0	92.8	105.3	105.3	29.728	0.00	0.000	0.579	93.3	66	80.2	113.5	30
08/22/01	4:30 p	92.9	93.4	92.1	57	75.4	3.0	ESE	1.50	12.0	92.9	105.6	105.6	29.725	0.00	0.000	0.581	93.5	64	79.5	112.5	30
08/22/01	5:00 p	92.2	93.6	91.2	59	75.8	2.0	NE	1.00	12.0	92.2	104.9	104.9	29.726	0.00	0.000	0.567	93.6	63	79.1	112.0	30
08/22/01	5:30 p	90.6	92.0	89.7	60	74.8	3.0	ENE	1.50	13.0	90.6	101.3	101.3	29.728	0.00	0.000	0.533	94.0	59	77.5	110.0	30
08/22/01	6:00 p	89.8	90.3	89.3	60	74.1	2.0	ENE	1.00	11.0	89.8	99.3	99.3	29.728	0.00	0.000	0.517	93.9	58	76.9	109.0	30
08/22/01	6:30 p	88.6	89.8	87.8	61	73.4	2.0	ENE	1.00	11.0	88.6	96.8	96.8	29.728	0.00	0.000	0.492	93.2	57	75.7	106.4	30
08/22/01	7:00 p	87.2	88.1	86.3	65	74.0	3.0	ENE	1.50	12.0	87.2	95.8	95.8	29.735	0.00	0.000	0.462	92.1	60	76.2	105.2	30
08/22/01	7:30 p	86.2	86.7	85.4	65	73.0	1.0	E	0.50	11.0	86.2	93.8	93.8	29.742	0.00	0.000	0.442	91.0	61	75.7	103.0	30
08/22/01	8:00 p	84.9	85.9	83.9	69	73.6	1.0	ENE	0.50	7.0	84.9	92.3	92.3	29.749	0.00	0.000	0.415	89.8	62	75.0	100.4	30
08/22/01	8:30 p	83.8	84.4	83.2	71	73.4	1.0	E	0.50	10.0	83.8	90.8	90.8	29.756	0.00	0.000	0.392	88.6	65	75.3	98.5	30
08/22/01	9:00 p	83.1	83.6	82.5	76	74.7	1.0	E	0.50	8.0	83.1	90.7	90.7	29.761	0.00	0.000	0.377	87.9	68	76.0	98.0	30
08/22/01	9:30 p	82.7	83.1	82.1	75	74.0	2.0	ENE	1.00	9.0	82.7	89.3	89.3	29.769	0.00	0.000	0.369	87.4	69	76.0	97.7	30
08/22/01	10:00 p	82.3	82.7	81.9	76	74.0	2.0	E	1.00	10.0	82.3	88.6	88.6	29.776	0.00	0.000	0.360	86.9	70	75.9	97.3	30
08/22/01	10:30 p	82.0	82.5	81.6	75	73.3	1.0	E	0.50	12.0	82.0	87.5	87.5	29.781	0.00	0.000	0.354	86.5	70	75.5	96.4	30
08/22/01	11:00 p	81.8	82.2	81.3	77	73.9	1.0	ESE	0.50	7.0	81.8	87.6	87.6	29.778	0.00	0.000	0.350	86.1	70	75.2	95.5	30
08/22/01	11:30 p	81.5	81.9	81.0	79	74.4	0.0	ESE	0.00	7.0	81.5	87.4	87.4	29.778	0.00	0.000	0.344	85.7	71	75.2	94.9	30
08/23/01	12:00 a	81.2	81.7	80.8	79	74.1	0.0	ESE	0.00	5.0	81.2	86.7	86.7	29.774	0.00	0.000	0.337	85.5	72	75.4	94.8	30
08/23/01	12:30 a	81.0	81.5	80.6	80	74.2	1.0	ESE	0.50	6.0	81.0	86.5	86.5	29.773	0.00	0.000	0.333	85.2	72	75.1	94.1	30
08/23/01	1:00 a	80.8	81.2	80.2	81	74.4	0.0	ESE	0.00	2.0	80.8	86.4	86.4	29.767	0.00	0.000	0.329	85.0	73	75.4	93.9	30
08/23/01	1:30 a	80.3	80.8	79.8	81	73.9	0.0	ESE	0.00	3.0	80.3	85.3	85.3	29.758	0.00	0.000	0.319	84.7	73	75.1	93.3	30
08/23/01	2:00 a	79.8	80.5	78.9	83	74.2	0.0	---	0.00	0.0	79.8	84.8	84.8	29.753	0.00	0.000	0.308	84.3	74	75.1	92.9	30
08/23/01	2:30 a	78.8	79.6	78.0	85	73.9	0.0	---	0.00	0.0	78.8	83.4	83.4	29.748	0.00	0.000	0.288	83.8	75	75.0	92.2	30
08/23/01	3:00 a	78.0	78.7	77.4	86	73.5	0.0	---	0.00	0.0	78.0	82.2	82.2	29.739	0.00	0.000	0.271	83.4	75	74.6	91.1	30
08/23/01	3:30 a	77.4	78.0	76.7	87	73.2	0.0	---	0.00	0.0	77.4	81.4	81.4	29.732	0.00	0.000	0.258	83.0	76	74.6	90.4	30
08/23/01	4:00 a	76.8	77.4	76.2	88	73.0	0.0	---	0.00	0.0	76.8	80.5	80.5	29.728	0.00	0.000	0.246	82.5	76	74.2	89.1	30
08/23/01	4:30 a	76.3	76.8	75.7	89	72.8	0.0	---	0.00	0.0	76.3	79.9	79.9	29.738	0.00	0.000	0.235	82.2	77	74.3	88.6	30
08/23/01	5:00 a	76.0	76.5	75.4	90	72.9	0.0	---	0.00	0.0	76.0	79.5	79.5	29.751	0.00	0.000	0.229	81.8	77	73.9	87.6	30
08/23/01	5:30 a	75.7	76.2	75.3	90	72.6	0.0	---	0.00	0.0	75.7	79.2	79.2	29.758	0.00	0.000	0.223	81.5	76	73.2	86.7	30
08/23/01	6:00 a	75.7	76.1	75.2	90	72.6	0.0	---	0.00	0.0	75.7	79.2	79.2	29.769	0.00	0.000	0.223	81.4	75	72.7	86.2	30
08/23/01	6:30 a	75.4	75.9	74.9	90	72.3	0.0	---	0.00	0.0	75.4	78.8	78.8	29.772	0.00	0.000	0.217	81.2	75	72.5	85.8	30
08/23/01	7:00 a	75.0	75.6	74.6	91	72.2	0.0	---	0.00	0.0	75.0	78.5	78.5	29.778	0.00	0.000	0.208	80.9	74	71.8	85.0	30
08/23/01	7:30 a	74.8	75.4	74.5	91	72.0	0.0	---	0.00	0.0	74.8	78.1	78.1	29.786	0.00	0.000	0.204	80.7	75	72.0	84.9	30
08/23/01	8:00 a	75.4	76.2	74.7	92	72.9	0.0	---	0.00	0.0	75.4	79.0	79.0	29.797	0.00	0.000	0.217	80.5	76	72.2	84.7	30
08/23/01	8:30 a	76.5	77.6	75.5	92	74.0	0.0	---	0.00	0.0	76.5	80.4	80.4	29.806	0.00	0.000	0.240	80.7	78	73.2	85.5	30
08/23/01	9:00 a	78.3	80.0	77.2	85	73.4	0.0	ESE	0.00	3.0	78.3	82.6	82.6	29.806	0.00	0.000	0.277	81.3	78	73.8	86.7	30
08/23/01	9:30 a	80.9	82.6	79.2	79	73.8	0.0	N	0.00	3.0	80.9	86.1	86.1	29.812	0.00	0.000	0.331	82.4	81	76.0	90.3	30
08/23/01	10:00 a	83.8	85.2	82.3	74	74.6	0.0	N	0.00	4.0	83.8	91.8	91.8	29.817	0.00	0.000	0.392	83.9	80	77.1	94.2	30
08/23/01	10:30 a	85.8	86.8	84.8	70	74.9	1.0	N	0.50	7.0	85.8	94.8	94.8	29.819	0.00	0.000	0.433	85.6	79	78.3	97.5	30
08/23/01	11:00 a	87.0	87.8	86.1	70	76.0	1.0	NE	0.50	8.0	87.0	97.5	97.5	29.817	0.00	0.000	0.458	87.1	76	78.6	100.3	30
08/23/01	11:30 a	87.8	88.5	87.2	69	76.4	2.0	N	1.00	9.0	87.8	98.3	98.3	29.813	0.00	0.000	0.475	88.3	75	79.4	102.6	30
08/23/01	12:00 p	88.9	89.7	87.9	65	75.6	2.0	NE	1.00	9.0	88.9	99.3	99.3	29.808	0.00	0.000	0.498	89.4	72	79.2	105.0	30
08/23/01	12:30 p	89.6	90.0	89.1	65	76.3	2.0	N	1.00	12.0	89.6	101.5	101.5	29.803	0.00	0.000	0.512	90.4	71	79.7	107.9	30
08/23/01	1:00 p	90.0	90.8	89.3	65	76.6	2.0	N	1.00	12.0	90.0	102.8	102.8	29.789	0.00	0.000	0.521	91.4	70	80.2	110.3	30
08/23/01	1:30 p	90.6	91.1	90.2	66	77.7	3.0	NNE	1.50	11.0	90.6	105.1	105.1	29.780	0.00	0.000	0.533	92.3	69	80.7	112.6	30
08/23/01	2:00 p	90.7	91.1	90.1	65	77.3	2.0	NE	1.00	11.0	90.7	104.8	104.8	29.772	0.00	0.000	0.535	93.0	68	80.9	114.1	30
08/23/01	2:30 p	91.2	92.2	90.6	60	75.4	2.0	NE	1.00	11.0	91.2	102.8	102.8	29.757	0.00	0.000	0.546	93.7	67	81.1	115.7	30
08/23/01	3:00 p	91.5	92.2	91.0	59	75.1	3.0	NE	1.50	12.0	91.5	103.1	103.1	29.752	0.00	0.000	0.552	94.1	64	80.1	114.4	30
08/23/01	3:30 p	92.3	93.5	91.2	60	76.4	3.0	NE	1.50	11.0	92.3	105.7	105.7	29.741	0.00	0.000	0.569	94.5	63	80.0	114.9	30
08/23/01	4:00 p	92.3	93.0	91.3	60	76.4	2.0	ENE	1.00	13.0	92.3	105.7	105.7	29.742	0.00	0.000	0.569	94.6	62	79.6	114.3	30
08/23/01	4:30 p	92.0	92.8	91.2	59	75.6	2.0	ENE	1.00	10.0	92.0	104.3	104.3	29.734	0.00	0.000	0.563	94.8	62	79.7	115.0	30
08/23/01	5:00 p	92.0	92.6	91.4	60	76.1	2.0	ENE	1.00	13.0	92.0	104.9	104.9	29.733	0.00	0.000	0.563	94.9	61	79.3	114.4	30
08/23/01	5:30 p	91.3	92.1	90.0	62	76.5	2.0	ENE	1.00	11.0	91.3	104.4	104.4	29.734	0.00	0.000	0.548	94.5	59	78.0	111.5	30
08/23/01	6:00 p	90.5	91.0	90.0	61	75.2	2.0	ENE	1.00	10.0	90.5	101.7	101.7	29.733	0.00	0.000	0.531	92.6	61	77.2	107.4	30
08/23/01	6:30 p	89.1	90.5	87.3	65	75.8	2.0	NE	1.00	13.0	89.1	99.9	99.9	29.732	0.00	0.000	0.502	91.7	63	77.3	106.3	30
08/23/01	7:00 p	86.8	87.7	86.1	68	75.0	2.0	ENE	1.00	10.0	86.8	96.3	96.3	29.735	0.00	0.000	0.454	90.6	65	77.2	104.5	30
08/23/01	7:30 p	85.5	86.4	84.6	71	75.0	2.0	ENE	1.00	8.0	85.5	94.4	94.4	29.733	0.00	0.000	0.427	89.2	66	76.4	100.8	30
08/23/01	8:00 p	84.0	85.0	83.2	75	75.2	1.0	NE	0.50	7.0	84.0	92.7	92.7	29.738	0.00	0.000	0.396	88.2	68	76.3	98.7	30
08/23/01	8:30 p	83.1	83.6	82.3	74	73.9	1.0	E	0.50	8.0	83.1	90.0	90.0	29.743	0.00	0.000	0.377	87.9	68	76.0	98.0	30
08/23/01	9:00 p	82.4	83.0	81.9	73	72.9	0.0	E	0.00	5.0	82.4	88.0	88.0	29.757	0.00	0.000	0.363	87.3	67	75.0	96.8	30
08/23/01	9:30 p	82.1	82.5	81.7	76	73.8	0.0	E	0.00	4.0	82.1	88.0	88.0	29.760	0.00	0.000	0.356	86.9	68	75.1	96.5	30
08/23/01	10:00 p	81.6	82.2	81.2	77	73.7	0.0	E	0.00	1.0	81.6	87.2	87.2	29.771	0.00	0.000	0.346	86.5	68	74.7	95.6	30
08/23/01	10:30 p	81.2	81.8	80.5	78	73.7	0.0	---	0.00	2.0	81.2	86.5	86.5	29.773	0.00	0.000	0.337	86.1	69	74.7	95.1	30
08/23/01	11:00 p	80.6	81.1	80.1	79	73.5	0.0	---	0.00	0.0	80.6	85.5	85.5	29.778	0.00	0.000	0.325	85.6	70	74.7	94.3	30
08/23/01	11:30 p	80.1	80.7	79.4	81	73.7	0.0	---	0.00	0.0	80.1	84.9	84.9	29.778	0.00	0.000	0.315	85.2	71	74.7	93.7	30
08/24/01	12:00 a	79.3	79.9	78.7	83	73.7	0.0	---	0.00	0.0	79.3	83.9	83.9	29.773	0.00	0.000	0.298	84.7	72	74.7	93.0	30
08/24/01	12:30 a	78.7	79.3	78.0	83	73.1	0.0	---	0.00	0.0	78.7	82.9	82.9	29.779	0.00	0.000	0.285	84.3	72	74.3	92.2	30
08/24/01	1:00 a	78.1	78.7	77.5	85	73.2	0.0	---	0.00	0.0	78.1	82.3	82.3	29.787	0.00	0.000	0.273	83.8	73	74.2	91.5	30
08/24/01	1:30 a	77.5	78.1	77.0	86	73.0	0.0	---	0.00	0.0	77.5	81.5	81.5	29.781	0.00	0.000	0.260	83.4	74	74.2	90.8	30
08/24/01	2:00 a	77.0	77.6	76.4	87	72.8	0.0	---	0.00	0.0	77.0	80.8	80.8	29.772	0.00	0.000	0.250	83.0	74	73.9	89.8	30
08/24/01	2:30 a	76.5	77.0	76.0	87	72.3	0.0	---	0.00	0.0	76.5	80.0	80.0	29.762	0.00	0.000	0.240	82.6	75	73.9	89.1	30
08/24/01	3:00 a	76.0	76.6	75.6	88	72.2	0.0	---	0.00	0.0	76.0	79.4	79.4	29.758	0.00	0.000	0.229	82.2	75	73.5	88.0	30
08/24/01	3:30 a	75.6	76.2	75.0	88	71.8	0.0	---	0.00	0.0	75.6	78.9	78.9	29.756	0.00	0.000	0.221	81.8	75	73.1	87.1	30
08/24/01	4:00 a	75.3	75.7	74.7	89	71.8	0.0	---	0.00	0.0	75.3	78.7	78.7	29.755	0.00	0.000	0.215	81.4	76	73.1	86.5	30
08/24/01	4:30 a	74.8	75.4	74.3	90	71.7	0.0	---	0.00	0.0	74.8	78.0	78.0	29.755	0.00	0.000	0.204	81.0	76	72.7	85.6	30
08/24/01	5:00 a	74.6	75.1	74.2	90	71.5	0.0	---	0.00	0.0	74.6	77.6	77.6	29.749	0.00	0.000	0.200	80.7	76	72.4	85.1	30
08/24/01	5:30 a	74.4	74.9	73.9	90	71.3	0.0	---	0.00	0.0	74.4	77.2	77.2	29.754	0.00	0.000	0.196	80.2	77	72.3	84.3	30
08/24/01	6:00 a	74.1	74.5	73.6	91	71.3	0.0	---	0.00	0.0	74.1	76.7	76.7	29.761	0.00	0.000	0.190	80.0	76	71.8	83.8	30
08/24/01	6:30 a	74.0	74.4	73.5	91	71.2	0.0	---	0.00	0.0	74.0	76.5	76.5	29.758	0.00	0.000	0.188	79.9	75	71.3	83.4	30
08/24/01	7:00 a	73.8	74.2	73.3	91	71.0	0.0	---	0.00	0.0	73.8	76.3	76.3	29.764	0.00	0.000	0.183	79.7	75	71.1	83.1	30
08/24/01	7:30 a	73.8	74.2	73.3	92	71.3	0.0	---	0.00	0.0	73.8	76.4	76.4	29.778	0.00	0.000	0.183	79.6	75	71.0	83.0	30
08/24/01	8:00 a	74.3	75.0	73.6	94	72.5	0.0	E	0.00	1.0	74.3	77.4	77.4	29.789	0.00	0.000	0.194	79.5	76	71.3	83.0	30
08/24/01	8:30 a	75.2	76.1	74.3	94	73.4	0.0	E	0.00	2.0	75.2	78.9	78.9	29.790	0.00	0.000	0.212	79.7	76	71.5	83.3	30
08/24/01	9:00 a	76.5	77.7	75.5	90	73.3	1.0	NW	0.50	5.0	76.5	80.3	80.3	29.790	0.00	0.000	0.240	80.2	77	72.3	84.3	30
08/24/01	9:30 a	78.7	80.2	77.0	83	73.1	2.0	NW	1.00	7.0	78.7	82.9	82.9	29.789	0.00	0.000	0.285	81.1	80	74.3	86.7	30
08/24/01	10:00 a	81.5	82.8	80.1	76	73.2	1.0	NW	0.50	7.0	81.5	86.7	86.7	29.783	0.00	0.000	0.344	82.2	81	75.8	89.8	30
08/24/01	10:30 a	83.7	85.3	82.2	71	73.3	1.0	NNW	0.50	6.0	83.7	90.5	90.5	29.787	0.00	0.000	0.390	83.6	81	77.1	93.7	30
08/24/01	11:00 a	85.8	86.9	84.8	67	73.6	1.0	NW	0.50	7.0	85.8	93.7	93.7	29.782	0.00	0.000	0.433	85.2	79	77.9	96.5	30
08/24/01	11:30 a	87.7	88.3	86.8	64	74.0	1.0	NNW	0.50	10.0	87.7	96.1	96.1	29.772	0.00	0.000	0.473	86.6	76	78.1	99.0	30
08/24/01	12:00 p	89.1	90.2	88.1	64	75.3	0.0	N	0.00	5.0	89.1	99.4	99.4	29.764	0.00	0.000	0.502	87.8	74	78.5	100.6	30
08/24/01	12:30 p	90.1	90.7	89.4	65	76.7	1.0	NE	0.50	7.0	90.1	103.1	103.1	29.756	0.00	0.000	0.523	88.9	73	79.1	103.8	30
08/24/01	1:00 p	89.6	90.5	88.9	68	77.6	2.0	ENE	1.00	9.0	89.6	103.2	103.2	29.746	0.00	0.000	0.512	89.9	72	79.7	106.9	30
08/24/01	1:30 p	90.1	91.2	89.1	67	77.7	2.0	NE	1.00	10.0	90.1	104.3	104.3	29.742	0.00	0.000	0.523	91.0	71	80.3	109.9	30
08/24/01	2:00 p	89.8	90.4	89.1	66	76.9	2.0	NE	1.00	11.0	89.8	102.7	102.7	29.735	0.00	0.000	0.517	92.0	69	80.4	111.6	30
08/24/01	2:30 p	90.0	90.8	89.2	65	76.6	3.0	NE	1.50	11.0	90.0	102.8	102.8	29.722	0.00	0.000	0.521	92.6	67	80.0	112.0	30
08/24/01	3:00 p	90.8	91.7	90.0	65	77.4	3.0	NE	1.50	15.0	90.8	105.0	105.0	29.717	0.00	0.000	0.538	93.2	67	80.6	114.0	30
08/24/01	3:30 p	91.2	91.7	90.7	64	77.3	2.0	NE	1.00	11.0	91.2	105.5	105.5	29.709	0.00	0.000	0.546	93.6	66	80.5	114.5	30
08/24/01	4:00 p	91.1	91.7	90.0	64	77.2	3.0	NE	1.50	10.0	91.1	105.2	105.2	29.703	0.00	0.000	0.544	93.9	65	80.3	114.6	30
08/24/01	4:30 p	90.5	91.3	89.9	65	77.1	2.0	ENE	1.00	13.0	90.5	104.2	104.2	29.704	0.00	0.000	0.531	94.1	64	80.1	114.4	30
08/24/01	5:00 p	89.9	90.7	89.1	64	76.1	2.0	ENE	1.00	9.0	89.9	101.9	101.9	29.695	0.00	0.000	0.519	94.1	63	79.6	113.6	30
08/24/01	5:30 p	89.6	90.5	88.9	63	75.3	2.0	NE	1.00	10.0	89.6	100.4	100.4	29.694	0.00	0.000	0.512	94.1	61	78.6	111.9	30
08/24/01	6:00 p	88.6	89.2	87.9	63	74.4	1.0	NE	0.50	11.0	88.6	97.6	97.6	29.691	0.00	0.000	0.492	92.6	60	76.7	106.6	30
08/24/01	6:30 p	87.5	88.6	86.3	64	73.8	1.0	NE	0.50	8.0	87.5	95.8	95.8	29.692	0.00	0.000	0.469	91.6	60	75.7	103.9	30
08/24/01	7:00 p	85.8	86.9	84.9	65	72.7	1.0	NE	0.50	10.0	85.8	92.9	92.9	29.696	0.00	0.000	0.433	90.3	61	75.0	101.2	30
08/24/01	7:30 p	84.7	85.5	83.8	68	73.0	1.0	NE	0.50	7.0	84.7	91.6	91.6	29.692	0.00	0.000	0.410	89.1	62	74.4	98.5	30
08/24/01	8:00 p	83.4	84.2	82.7	70	72.6	0.0	NNE	0.00	4.0	83.4	89.4	89.4	29.696	0.00	0.000	0.383	88.5	64	74.8	97.8	30
08/24/01	8:30 p	82.8	83.3	82.1	71	72.4	0.0	NNE	0.00	2.0	82.8	88.3	88.3	29.708	0.00	0.000	0.371	87.1	66	74.4	96.1	30
08/24/01	9:00 p	82.1	82.7	81.3	73	72.6	0.0	---	0.00	0.0	82.1	87.3	87.3	29.721	0.00	0.000	0.356	86.2	67	74.0	94.6	30
08/24/01	9:30 p	81.3	81.9	80.7	75	72.6	0.0	---	0.00	0.0	81.3	86.0	86.0	29.730	0.00	0.000	0.340	85.8	67	73.6	93.7	30
08/24/01	10:00 p	80.4	81.1	79.6	77	72.5	0.0	---	0.00	0.0	80.4	84.7	84.7	29.746	0.00	0.000	0.321	85.4	68	73.6	93.1	30
08/24/01	10:30 p	79.5	80.1	78.7	79	72.4	0.0	---	0.00	0.0	79.5	83.5	83.5	29.753	0.00	0.000	0.302	84.9	69	73.6	92.3	30
08/24/01	11:00 p	78.6	79.4	78.0	81	72.3	0.0	---	0.00	0.0	78.6	82.4	82.4	29.759	0.00	0.000	0.283	84.4	69	73.1	91.4	30
08/24/01	11:30 p	77.9	78.5	77.3	83	72.3	0.0	---	0.00	0.0	77.9	81.7	81.7	29.767	0.00	0.000	0.269	83.9	70	73.1	90.7	30
08/25/01	12:00 a	77.3	77.9	76.8	83	71.7	0.0	---	0.00	0.0	77.3	80.8	80.8	29.771	0.00	0.000	0.256	83.5	71	73.1	90.0	30
08/25/01	12:30 a	76.8	77.3	76.3	84	71.6	0.0	---	0.00	0.0	76.8	80.2	80.2	29.768	0.00	0.000	0.246	83.0	71	72.6	88.7	30
08/25/01	1:00 a	76.4	77.0	75.8	85	71.6	0.0	---	0.00	0.0	76.4	79.8	79.8	29.760	0.00	0.000	0.238	82.8	70	72.0	88.0	30
08/25/01	1:30 a	75.9	76.4	75.4	86	71.4	0.0	---	0.00	0.0	75.9	79.1	79.1	29.746	0.00	0.000	0.227	82.5	69	71.3	87.1	30
08/25/01	2:00 a	75.4	75.9	74.9	87	71.3	0.0	---	0.00	0.0	75.4	78.6	78.6	29.732	0.00	0.000	0.217	82.2	69	71.0	86.5	30
08/25/01	2:30 a	75.0	75.5	74.5	88	71.2	0.0	---	0.00	0.0	75.0	78.2	78.2	29.726	0.00	0.000	0.208	81.8	69	70.6	85.7	30
08/25/01	3:00 a	74.7	75.2	74.3	88	70.9	0.0	---	0.00	0.0	74.7	77.7	77.7	29.719	0.00	0.000	0.202	81.5	69	70.3	85.2	30
08/25/01	3:30 a	74.4	74.8	73.8	88	70.6	0.0	---	0.00	0.0	74.4	77.1	77.1	29.724	0.00	0.000	0.196	81.1	68	69.5	84.2	30
08/25/01	4:00 a	74.1	74.5	73.7	89	70.6	0.0	---	0.00	0.0	74.1	76.6	76.6	29.719	0.00	0.000	0.190	80.7	68	69.2	83.6	30
08/25/01	4:30 a	73.8	74.2	73.4	88	70.0	0.0	---	0.00	0.0	73.8	76.1	76.1	29.714	0.00	0.000	0.183	80.4	68	68.9	83.1	30
08/25/01	5:00 a	73.5	74.0	73.1	90	70.4	0.0	---	0.00	1.0	73.5	75.9	75.9	29.710	0.00	0.000	0.177	80.1	69	69.0	82.7	30
08/25/01	5:30 a	73.4	73.8	73.0	91	70.6	0.0	---	0.00	0.0	73.4	75.9	75.9	29.714	0.00	0.000	0.175	79.8	69	68.7	82.3	30
08/25/01	6:00 a	73.2	73.6	72.7	91	70.4	0.0	---	0.00	0.0	73.2	75.8	75.8	29.721	0.00	0.000	0.171	79.6	70	69.0	82.1	30
08/25/01	6:30 a	72.8	73.3	72.4	91	70.0	0.0	---	0.00	0.0	72.8	75.3	75.3	29.726	0.00	0.000	0.163	79.3	70	68.7	81.7	30
08/25/01	7:00 a	72.6	73.1	72.2	91	69.8	0.0	---	0.00	0.0	72.6	75.1	75.1	29.734	0.00	0.000	0.158	79.2	69	68.1	81.5	30
08/25/01	7:30 a	72.6	72.9	72.2	91	69.8	0.0	---	0.00	0.0	72.6	75.1	75.1	29.744	0.00	0.000	0.158	79.0	69	68.0	81.2	30
08/25/01	8:00 a	73.0	73.7	72.4	94	71.2	0.0	---	0.00	0.0	73.0	75.7	75.7	29.756	0.00	0.000	0.167	78.8	78	71.4	82.2	30
08/25/01	8:30 a	74.1	75.0	73.2	94	72.3	0.0	NNE	0.00	1.0	74.1	77.1	77.1	29.765	0.00	0.000	0.190	78.9	82	72.9	83.0	30
08/25/01	9:00 a	75.8	77.1	74.8	90	72.7	0.0	NNE	0.00	2.0	75.8	79.3	79.3	29.763	0.00	0.000	0.225	79.7	83	74.1	84.6	30
08/25/01	9:30 a	78.4	80.2	76.7	80	71.7	0.0	SW	0.00	3.0	78.4	82.0	82.0	29.762	0.00	0.000	0.279	80.9	83	75.2	87.1	30
08/25/01	10:00 a	81.4	83.0	79.8	70	70.7	0.0	WSW	0.00	3.0	81.4	85.2	85.2	29.758	0.00	0.000	0.342	82.4	79	75.2	89.7	30
08/25/01	10:30 a	84.2	85.6	82.8	65	71.2	0.0	NW	0.00	4.0	84.2	89.6	89.6	29.758	0.00	0.000	0.400	84.2	74	75.0	92.7	30
08/25/01	11:00 a	86.6	88.0	85.2	62	72.0	0.0	NW	0.00	4.0	86.6	93.5	93.5	29.762	0.00	0.000	0.450	86.0	71	75.5	95.6	30
08/25/01	11:30 a	88.7	89.6	87.7	58	72.0	0.0	NNW	0.00	4.0	88.7	95.8	95.8	29.755	0.00	0.000	0.494	87.7	67	75.4	97.3	30
08/25/01	12:00 p	90.3	91.7	88.9	55	71.9	0.0	NNW	0.00	5.0	90.3	98.1	98.1	29.749	0.00	0.000	0.527	89.1	64	75.3	99.4	30
08/25/01	12:30 p	92.3	93.1	91.4	52	72.1	1.0	NNW	0.50	6.0	92.3	101.0	101.0	29.746	0.00	0.000	0.569	90.7	62	75.9	102.8	30
08/25/01	1:00 p	92.9	93.3	92.4	52	72.7	1.0	NE	0.50	5.0	92.9	102.3	102.3	29.737	0.00	0.000	0.581	92.1	60	76.2	105.2	30
08/25/01	1:30 p	93.3	94.0	92.7	51	72.5	1.0	NE	0.50	8.0	93.3	102.6	102.6	29.730	0.00	0.000	0.590	93.4	59	76.9	108.2	30
08/25/01	2:00 p	94.2	94.9	93.4	51	73.3	1.0	NE	0.50	7.0	94.2	104.6	104.6	29.722	0.00	0.000	0.608	94.0	57	76.4	108.6	30
08/25/01	2:30 p	94.2	94.7	93.8	53	74.4	1.0	NE	0.50	8.0	94.2	106.2	106.2	29.714	0.00	0.000	0.608	95.4	57	77.7	112.7	30
08/25/01	3:00 p	94.6	95.1	94.1	52	74.2	1.0	NE	0.50	7.0	94.6	106.4	106.4	29.702	0.00	0.000	0.617	96.8	56	78.5	116.3	30
08/25/01	3:30 p	94.1	94.9	93.6	51	73.2	1.0	ENE	0.50	9.0	94.1	104.4	104.4	29.693	0.00	0.000	0.606	97.4	54	78.0	116.2	30
08/25/01	4:00 p	93.9	94.4	93.5	55	75.3	1.0	NE	0.50	10.0	93.9	106.9	106.9	29.674	0.00	0.000	0.602	97.5	54	78.1	116.5	30
08/25/01	4:30 p	93.9	94.7	93.2	52	73.6	1.0	ENE	0.50	8.0	93.9	104.7	104.7	29.671	0.00	0.000	0.602	97.6	53	77.6	115.6	30
08/25/01	5:00 p	93.5	94.0	92.9	52	73.2	2.0	NE	1.00	7.0	93.5	103.7	103.7	29.668	0.00	0.000	0.594	96.8	53	76.8	113.3	30
08/25/01	5:30 p	93.2	94.0	92.6	54	74.1	1.0	ENE	0.50	8.0	93.2	104.4	104.4	29.666	0.00	0.000	0.587	95.1	55	76.4	110.3	30
08/25/01	6:00 p	92.1	92.9	91.1	58	75.2	1.0	ENE	0.50	9.0	92.1	104.0	104.0	29.680	0.00	0.000	0.565	94.3	56	76.2	108.8	30
08/25/01	6:30 p	89.5	91.4	88.1	63	75.2	1.0	NE	0.50	7.0	89.5	100.1	100.1	29.680	0.00	0.000	0.510	92.7	59	76.3	106.3	30
08/25/01	7:00 p	87.4	88.4	86.6	67	75.1	0.0	NE	0.00	5.0	87.4	96.9	96.9	29.700	0.00	0.000	0.467	91.3	62	76.5	104.4	30
08/25/01	7:30 p	85.4	87.1	82.8	72	75.3	3.0	NW	1.50	17.0	85.4	94.5	94.5	29.720	0.00	0.000	0.425	89.8	64	76.0	101.6	30
08/25/01	8:00 p	82.0	83.3	80.9	75	73.3	0.0	NW	0.00	6.0	82.0	87.5	87.5	29.719	0.00	0.000	0.354	87.4	66	74.6	96.5	30
08/25/01	8:30 p	81.0	81.4	80.3	76	72.7	0.0	NW	0.00	1.0	81.0	85.6	85.6	29.718	0.00	0.000	0.333	86.2	67	74.0	94.6	30
08/25/01	9:00 p	80.2	80.8	79.6	82	74.2	0.0	---	0.00	0.0	80.2	85.4	85.4	29.714	0.00	0.000	0.317	86.1	69	74.7	95.1	30
08/25/01	9:30 p	79.4	79.9	78.9	83	73.8	0.0	---	0.00	0.0	79.4	84.1	84.1	29.726	0.00	0.000	0.300	85.6	71	75.1	94.7	30
08/25/01	10:00 p	78.6	79.3	78.0	83	73.0	0.0	---	0.00	1.0	78.6	82.7	82.7	29.728	0.00	0.000	0.283	85.2	70	74.3	93.4	30
08/25/01	10:30 p	78.5	78.9	78.1	84	73.3	0.0	---	0.00	0.0	78.5	82.7	82.7	29.728	0.00	0.000	0.281	84.9	71	74.4	93.0	30
08/25/01	11:00 p	78.4	78.9	78.0	85	73.5	0.0	---	0.00	0.0	78.4	82.7	82.7	29.730	0.00	0.000	0.279	84.5	72	74.5	92.6	30
08/25/01	11:30 p	78.2	78.7	77.8	86	73.7	0.0	---	0.00	0.0	78.2	82.6	82.6	29.738	0.00	0.000	0.275	84.3	73	74.7	92.6	30
08/26/01	12:00 a	78.0	78.4	77.6	87	73.8	0.0	---	0.00	0.0	78.0	82.4	82.4	29.740	0.00	0.000	0.271	84.0	74	74.8	92.3	30
08/26/01	12:30 a	77.8	78.2	77.3	88	74.0	0.0	NW	0.00	1.0	77.8	82.2	82.2	29.744	0.00	0.000	0.267	83.7	74	74.5	91.6	30
08/26/01	1:00 a	77.3	77.8	76.9	88	73.5	0.0	NW	0.00	1.0	77.3	81.3	81.3	29.746	0.01	0.000	0.256	83.4	75	74.6	91.1	30
08/26/01	1:30 a	77.1	77.5	76.7	88	73.3	0.0	---	0.00	1.0	77.1	81.0	81.0	29.742	0.00	0.000	0.252	83.2	75	74.4	90.6	30
08/26/01	2:00 a	76.8	77.2	76.3	89	73.3	0.0	NW	0.00	1.0	76.8	80.6	80.6	29.735	0.00	0.000	0.246	82.9	76	74.6	90.2	30
08/26/01	2:30 a	76.3	76.9	75.9	91	73.5	0.0	NW	0.00	2.0	76.3	80.1	80.1	29.728	0.00	0.000	0.235	82.5	76	74.2	89.1	30
08/26/01	3:00 a	76.1	76.5	75.6	91	73.3	0.0	NW	0.00	1.0	76.1	79.8	79.8	29.726	0.00	0.000	0.231	82.2	77	74.3	88.6	30
08/26/01	3:30 a	76.0	76.4	75.6	92	73.5	0.0	NW	0.00	2.0	76.0	79.7	79.7	29.731	0.00	0.000	0.229	81.9	78	74.4	88.1	30
08/26/01	4:00 a	75.9	76.4	75.5	93	73.7	0.0	NW	0.00	2.0	75.9	79.7	79.7	29.729	0.00	0.000	0.227	81.7	79	74.5	87.9	30
08/26/01	4:30 a	75.7	76.1	75.3	93	73.5	0.0	NW	0.00	2.0	75.7	79.4	79.4	29.728	0.00	0.000	0.223	81.4	79	74.3	87.2	30
08/26/01	5:00 a	75.7	76.0	75.2	93	73.5	0.0	---	0.00	1.0	75.7	79.4	79.4	29.731	0.00	0.000	0.223	81.2	80	74.4	87.0	30
08/26/01	5:30 a	75.6	76.1	75.1	92	73.1	0.0	---	0.00	0.0	75.6	79.2	79.2	29.733	0.00	0.000	0.221	81.0	80	74.2	86.5	30
08/26/01	6:00 a	75.3	75.9	74.8	92	72.8	0.0	---	0.00	0.0	75.3	78.9	78.9	29.740	0.00	0.000	0.215	80.7	80	74.0	85.9	30
08/26/01	6:30 a	74.9	75.5	74.4	94	73.1	0.0	NW	0.00	1.0	74.9	78.5	78.5	29.740	0.00	0.000	0.206	80.4	80	73.7	85.3	30
08/26/01	7:00 a	74.8	75.2	74.3	94	73.0	0.0	NNW	0.00	3.0	74.8	78.3	78.3	29.756	0.00	0.000	0.204	80.2	81	73.8	85.1	30
08/26/01	7:30 a	74.8	75.2	74.4	94	73.0	0.0	NNW	0.00	2.0	74.8	78.3	78.3	29.768	0.00	0.000	0.204	80.1	81	73.7	84.9	30
08/26/01	8:00 a	75.0	75.6	74.5	94	73.2	0.0	NNW	0.00	3.0	75.0	78.6	78.6	29.772	0.00	0.000	0.208	79.9	82	73.9	84.8	30
08/26/01	8:30 a	75.6	76.2	74.9	91	72.8	1.0	NNW	0.50	5.0	75.6	79.1	79.1	29.775	0.00	0.000	0.221	80.0	82	74.0	84.9	30
08/26/01	9:00 a	76.5	77.7	75.6	87	72.3	1.0	NNW	0.50	7.0	76.5	80.0	80.0	29.780	0.00	0.000	0.240	80.5	81	74.1	85.7	30
08/26/01	9:30 a	78.5	79.9	77.1	82	72.5	2.0	NNW	1.00	9.0	78.5	82.4	82.4	29.784	0.00	0.000	0.281	81.3	82	75.3	87.8	30
08/26/01	10:00 a	81.0	82.4	79.6	76	72.7	2.0	NNW	1.00	7.0	81.0	85.6	85.6	29.787	0.00	0.000	0.333	82.6	82	76.5	91.2	30
08/26/01	10:30 a	83.1	84.1	82.0	72	73.1	3.0	NNW	1.50	11.0	83.1	89.3	89.3	29.786	0.00	0.000	0.377	84.0	78	76.4	93.8	30
08/26/01	11:00 a	84.2	85.1	83.6	68	72.5	2.0	N	1.00	12.0	84.2	90.6	90.6	29.785	0.00	0.000	0.400	85.3	74	76.1	95.0	30
08/26/01	11:30 a	86.1	87.2	84.8	65	73.0	2.0	N	1.00	9.0	86.1	93.6	93.6	29.778	0.00	0.000	0.440	86.9	73	77.2	98.5	30
08/26/01	12:00 p	87.8	88.6	86.8	63	73.6	2.0	N	1.00	12.0	87.8	95.8	95.8	29.769	0.00	0.000	0.475	88.5	70	77.5	100.7	30
08/26/01	12:30 p	88.8	89.7	88.1	57	71.6	3.0	N	1.50	12.0	88.8	95.7	95.7	29.757	0.00	0.000	0.496	89.6	66	76.7	102.1	30
08/26/01	1:00 p	89.7	90.2	89.0	61	74.5	3.0	N	1.50	12.0	89.7	99.6	99.6	29.742	0.00	0.000	0.515	91.4	66	78.4	107.5	30
08/26/01	1:30 p	89.9	90.3	89.3	60	74.2	3.0	N	1.50	11.0	89.9	99.6	99.6	29.737	0.00	0.000	0.519	92.7	64	78.7	110.0	30
08/26/01	2:00 p	90.2	90.8	89.6	62	75.4	3.0	NNE	1.50	13.0	90.2	101.5	101.5	29.733	0.00	0.000	0.525	93.6	63	79.1	112.0	30
08/26/01	2:30 p	90.7	91.3	90.0	63	76.4	3.0	N	1.50	12.0	90.7	103.5	103.5	29.725	0.00	0.000	0.535	94.3	61	78.8	112.5	30
08/26/01	3:00 p	90.6	91.2	90.2	61	75.3	4.0	N	2.00	13.0	90.6	101.9	101.9	29.717	0.00	0.000	0.533	94.8	61	79.2	114.1	30
08/26/01	3:30 p	90.2	90.9	89.6	63	75.9	4.0	NNE	2.00	15.0	90.2	102.1	102.1	29.703	0.00	0.000	0.525	95.0	61	79.4	114.7	30
08/26/01	4:00 p	89.9	90.5	89.3	60	74.2	4.0	N	2.00	16.0	89.9	99.6	99.6	29.693	0.00	0.000	0.519	94.9	58	77.8	112.0	30
08/26/01	4:30 p	89.3	89.7	88.8	57	72.1	4.0	N	2.00	16.0	89.3	96.8	96.8	29.690	0.00	0.000	0.506	95.2	56	77.0	111.4	30
08/26/01	5:00 p	89.1	89.5	88.3	59	72.9	5.0	N	2.50	18.0	89.1	97.2	97.2	29.699	0.00	0.000	0.502	95.6	55	76.9	111.7	30
08/26/01	5:30 p	88.1	88.7	87.7	58	71.5	4.0	NNE	2.00	19.0	88.1	94.4	94.4	29.694	0.00	0.000	0.481	95.3	53	75.5	109.1	30
08/26/01	6:00 p	87.8	88.5	87.1	62	73.2	4.0	N	2.00	16.0	87.8	95.4	95.4	29.694	0.00	0.000	0.475	93.0	56	75.0	105.2	30
08/26/01	6:30 p	86.5	87.5	85.5	66	73.8	3.0	N	1.50	15.0	86.5	94.9	94.9	29.691	0.00	0.000	0.448	91.5	59	75.1	103.1	30
08/26/01	7:00 p	85.2	86.0	84.6	69	73.9	3.0	N	1.50	16.0	85.2	93.0	93.0	29.699	0.00	0.000	0.421	90.4	62	75.6	102.0	30
08/26/01	7:30 p	84.3	85.2	83.4	71	73.9	2.0	N	1.00	11.0	84.3	91.9	91.9	29.698	0.00	0.000	0.402	89.3	63	75.0	99.6	30
08/26/01	8:00 p	83.0	83.9	82.1	73	73.4	2.0	N	1.00	12.0	83.0	89.4	89.4	29.708	0.00	0.000	0.375	88.0	65	74.8	96.8	30
08/26/01	8:30 p	82.0	82.5	81.4	75	73.3	1.0	N	0.50	10.0	82.0	87.5	87.5	29.707	0.00	0.000	0.354	87.2	67	74.9	96.6	30
08/26/01	9:00 p	81.3	81.9	80.8	75	72.6	1.0	N	0.50	8.0	81.3	86.0	86.0	29.717	0.00	0.000	0.340	86.4	68	74.6	95.4	30
08/26/01	9:30 p	81.0	81.4	80.5	76	72.7	2.0	N	1.00	8.0	81.0	85.6	85.6	29.718	0.00	0.000	0.333	85.9	68	74.1	94.3	30
08/26/01	10:00 p	80.6	81.0	80.2	77	72.7	1.0	N	0.50	10.0	80.6	85.1	85.1	29.724	0.00	0.000	0.325	85.7	68	73.9	93.8	30
08/26/01	10:30 p	80.3	80.7	79.8	79	73.2	0.0	N	0.00	6.0	80.3	84.9	84.9	29.731	0.00	0.000	0.319	85.4	69	74.1	93.5	30
08/26/01	11:00 p	79.9	80.4	79.5	80	73.2	0.0	N	0.00	3.0	79.9	84.3	84.3	29.732	0.00	0.000	0.310	85.1	69	73.8	92.8	30
08/26/01	11:30 p	79.5	80.1	78.9	79	72.4	0.0	NW	0.00	3.0	79.5	83.5	83.5	29.737	0.00	0.000	0.302	84.8	69	73.5	92.1	30
08/27/01	12:00 a	78.8	79.3	78.3	81	72.5	0.0	---	0.00	1.0	78.8	82.7	82.7	29.739	0.00	0.000	0.288	84.4	70	73.5	91.7	30
08/27/01	12:30 a	78.2	78.6	77.8	81	71.9	1.0	NW	0.50	4.0	78.2	81.8	81.8	29.732	0.00	0.000	0.275	84.0	70	73.2	90.9	30
08/27/01	1:00 a	77.8	78.3	77.1	82	71.9	0.0	NW	0.00	4.0	77.8	81.4	81.4	29.724	0.00	0.000	0.267	83.7	70	72.9	90.1	30
08/27/01	1:30 a	77.3	77.8	76.8	83	71.7	0.0	NW	0.00	3.0	77.3	80.8	80.8	29.726	0.00	0.000	0.256	83.3	71	72.9	89.5	30
08/27/01	2:00 a	76.9	77.2	76.5	84	71.7	0.0	NW	0.00	5.0	76.9	80.3	80.3	29.726	0.00	0.000	0.248	83.0	70	72.2	88.4	30
08/27/01	2:30 a	76.5	76.9	76.2	84	71.3	1.0	NW	0.50	4.0	76.5	79.8	79.8	29.724	0.00	0.000	0.240	82.8	69	71.6	87.7	30
08/27/01	3:00 a	76.3	76.6	75.9	85	71.5	0.0	NW	0.00	3.0	76.3	79.6	79.6	29.715	0.00	0.000	0.235	82.5	68	70.9	86.8	30
08/27/01	3:30 a	76.0	76.3	75.4	86	71.5	1.0	NNW	0.50	5.0	76.0	79.3	79.3	29.713	0.00	0.000	0.229	82.2	69	71.0	86.5	30
08/27/01	4:00 a	75.7	76.2	75.3	87	71.6	0.0	NNW	0.00	4.0	75.7	79.0	79.0	29.711	0.00	0.000	0.223	81.9	69	70.7	85.9	30
08/27/01	4:30 a	75.5	75.9	75.2	87	71.4	1.0	NNW	0.50	4.0	75.5	78.7	78.7	29.707	0.00	0.000	0.219	81.6	69	70.4	85.3	30
08/27/01	5:00 a	75.3	75.7	74.9	87	71.2	1.0	NNW	0.50	5.0	75.3	78.5	78.5	29.707	0.00	0.000	0.215	81.4	68	69.8	84.8	30
08/27/01	5:30 a	75.2	75.6	74.8	88	71.4	0.0	NNW	0.00	2.0	75.2	78.5	78.5	29.715	0.00	0.000	0.212	81.1	68	69.5	84.2	30
08/27/01	6:00 a	74.9	75.4	74.6	88	71.1	0.0	NNW	0.00	3.0	74.9	78.0	78.0	29.717	0.00	0.000	0.206	80.8	69	69.7	83.9	30
08/27/01	6:30 a	74.6	74.9	74.3	90	71.5	0.0	---	0.00	0.0	74.6	77.6	77.6	29.721	0.00	0.000	0.200	80.6	69	69.5	83.6	30
08/27/01	7:00 a	74.2	74.7	73.9	89	70.7	0.0	---	0.00	0.0	74.2	76.8	76.8	29.735	0.00	0.000	0.192	80.3	69	69.2	83.1	30
08/27/01	7:30 a	73.9	74.2	73.5	90	70.8	0.0	---	0.00	0.0	73.9	76.3	76.3	29.739	0.00	0.000	0.185	80.1	69	69.0	82.7	30
08/27/01	8:00 a	73.9	74.4	73.5	90	70.8	0.0	---	0.00	0.0	73.9	76.3	76.3	29.753	0.00	0.000	0.185	79.8	69	68.7	82.3	30
08/27/01	8:30 a	74.7	75.5	74.1	90	71.6	0.0	NNW	0.00	2.0	74.7	77.8	77.8	29.760	0.00	0.000	0.202	79.9	70	69.2	82.6	30
08/27/01	9:00 a	76.0	77.3	74.9	87	71.8	0.0	NNW	0.00	2.0	76.0	79.3	79.3	29.760	0.00	0.000	0.229	80.3	71	70.0	83.4	30
08/27/01	9:30 a	79.3	81.5	77.1	71	69.1	0.0	N	0.00	6.0	79.3	81.9	81.9	29.765	0.00	0.000	0.298	81.3	74	72.2	85.8	30
08/27/01	10:00 a	82.7	84.0	81.0	64	69.3	1.0	NE	0.50	9.0	82.7	86.2	86.2	29.767	0.00	0.000	0.369	82.7	72	72.7	88.4	30
08/27/01	10:30 a	84.5	85.5	83.5	61	69.6	1.0	NE	0.50	8.0	84.5	88.9	88.9	29.767	0.00	0.000	0.406	84.2	70	73.3	91.3	30
08/27/01	11:00 a	86.0	87.0	85.0	61	71.0	1.0	N	0.50	7.0	86.0	91.9	91.9	29.770	0.00	0.000	0.438	85.6	69	74.3	94.0	30
08/27/01	11:30 a	87.5	88.5	86.4	59	71.4	1.0	NE	0.50	7.0	87.5	93.9	93.9	29.766	0.00	0.000	0.469	87.1	67	74.8	96.5	30
08/27/01	12:00 p	88.7	89.6	88.0	56	71.0	1.0	NNE	0.50	10.0	88.7	95.1	95.1	29.759	0.00	0.000	0.494	88.3	66	75.5	98.1	30
08/27/01	12:30 p	89.6	90.3	89.0	57	72.3	1.0	N	0.50	9.0	89.6	97.5	97.5	29.751	0.00	0.000	0.512	89.5	65	76.2	101.2	30
08/27/01	1:00 p	90.5	91.5	89.7	54	71.6	1.0	N	0.50	8.0	90.5	98.1	98.1	29.744	0.00	0.000	0.531	90.6	64	76.7	103.8	30
08/27/01	1:30 p	91.5	91.9	91.0	54	72.5	2.0	N	1.00	8.0	91.5	100.3	100.3	29.730	0.00	0.000	0.552	91.7	62	76.8	105.6	30
08/27/01	2:00 p	92.0	92.8	91.3	53	72.4	2.0	N	1.00	9.0	92.0	100.9	100.9	29.723	0.00	0.000	0.563	92.7	61	77.3	107.6	30
08/27/01	2:30 p	92.4	92.9	92.0	54	73.3	2.0	NE	1.00	8.0	92.4	102.5	102.5	29.719	0.00	0.000	0.571	93.5	60	77.5	109.2	30
08/27/01	3:00 p	92.4	93.0	91.6	54	73.3	2.0	N	1.00	8.0	92.4	102.5	102.5	29.708	0.00	0.000	0.571	94.1	59	77.6	110.3	30
08/27/01	3:30 p	92.6	93.2	92.1	55	74.1	1.0	NE	0.50	8.0	92.6	103.6	103.6	29.691	0.00	0.000	0.575	94.7	59	78.1	112.1	30
08/27/01	4:00 p	92.6	93.1	91.9	54	73.5	2.0	N	1.00	8.0	92.6	103.0	103.0	29.682	0.00	0.000	0.575	95.0	57	77.4	111.5	30
08/27/01	4:30 p	92.0	92.4	91.5	55	73.5	1.0	NNE	0.50	9.0	92.0	102.1	102.1	29.673	0.00	0.000	0.563	95.2	57	77.6	112.1	30
08/27/01	5:00 p	91.6	92.0	91.2	54	72.6	1.0	N	0.50	9.0	91.6	100.6	100.6	29.678	0.00	0.000	0.554	95.2	56	77.0	111.4	30
08/27/01	5:30 p	91.3	92.0	90.4	57	73.9	1.0	N	0.50	6.0	91.3	101.5	101.5	29.671	0.00	0.000	0.548	95.2	56	77.0	111.4	30
08/27/01	6:00 p	90.3	90.9	89.6	59	74.0	1.0	N	0.50	7.0	90.3	100.1	100.1	29.666	0.00	0.000	0.527	94.7	57	77.1	110.6	30
08/27/01	6:30 p	88.9	90.0	87.9	58	72.2	1.0	NE	0.50	6.0	88.9	96.3	96.3	29.666	0.00	0.000	0.498	93.8	55	75.2	106.7	30
08/27/01	7:00 p	87.2	88.4	86.2	63	73.1	1.0	N	0.50	5.0	87.2	95.0	95.0	29.660	0.00	0.000	0.462	91.5	57	74.1	102.0	30
08/27/01	7:30 p	85.9	86.5	85.0	66	73.2	0.0	NNE	0.00	3.0	85.9	93.5	93.5	29.661	0.00	0.000	0.435	89.8	61	74.6	99.9	30
08/27/01	8:00 p	84.4	85.1	83.5	70	73.5	0.0	NNE	0.00	4.0	84.4	91.7	91.7	29.675	0.00	0.000	0.404	88.6	64	74.9	98.1	30
08/27/01	8:30 p	83.1	83.9	82.4	72	73.1	0.0	ENE	0.00	3.0	83.1	89.3	89.3	29.677	0.00	0.000	0.377	87.4	66	74.6	96.5	30
08/27/01	9:00 p	82.3	82.8	81.8	74	73.2	0.0	ENE	0.00	4.0	82.3	88.0	88.0	29.691	0.00	0.000	0.360	86.7	68	74.9	96.1	30
08/27/01	9:30 p	81.9	82.4	81.4	76	73.6	0.0	ENE	0.00	3.0	81.9	87.6	87.6	29.700	0.00	0.000	0.352	86.1	70	75.2	95.5	30
08/27/01	10:00 p	81.5	81.9	81.0	77	73.6	0.0	ENE	0.00	1.0	81.5	86.9	86.9	29.720	0.00	0.000	0.344	85.9	69	74.5	94.7	30
08/27/01	10:30 p	81.1	81.5	80.7	77	73.2	0.0	---	0.00	1.0	81.1	86.1	86.1	29.726	0.00	0.000	0.335	85.8	69	74.4	94.4	30
08/27/01	11:00 p	80.9	81.4	80.4	78	73.4	0.0	---	0.00	0.0	80.9	85.9	85.9	29.732	0.00	0.000	0.331	85.6	69	74.3	94.0	30
08/27/01	11:30 p	80.2	80.7	79.5	80	73.5	0.0	---	0.00	0.0	80.2	84.9	84.9	29.741	0.00	0.000	0.317	85.2	70	74.3	93.4	30
08/28/01	12:00 a	79.2	79.9	78.5	82	73.2	0.0	---	0.00	0.0	79.2	83.5	83.5	29.746	0.00	0.000	0.296	84.7	70	73.8	92.3	30
08/28/01	12:30 a	78.4	79.1	77.8	83	72.8	0.0	---	0.00	0.0	78.4	82.4	82.4	29.748	0.00	0.000	0.279	84.3	71	73.9	91.9	30
08/28/01	1:00 a	77.8	78.4	77.2	84	72.6	0.0	---	0.00	0.0	77.8	81.7	81.7	29.751	0.00	0.000	0.267	83.8	72	73.8	91.1	30
08/28/01	1:30 a	77.2	77.7	76.7	85	72.3	0.0	---	0.00	0.0	77.2	80.9	80.9	29.749	0.00	0.000	0.254	83.3	72	73.3	89.8	30
08/28/01	2:00 a	76.7	77.3	76.3	86	72.2	0.0	---	0.00	0.0	76.7	80.3	80.3	29.748	0.00	0.000	0.244	82.9	72	72.9	88.9	30
08/28/01	2:30 a	76.3	76.8	75.9	86	71.8	0.0	---	0.00	0.0	76.3	79.7	79.7	29.746	0.00	0.000	0.235	82.5	73	73.0	88.2	30
08/28/01	3:00 a	75.9	76.4	75.4	86	71.4	0.0	---	0.00	0.0	75.9	79.1	79.1	29.744	0.00	0.000	0.227	82.1	73	72.6	87.3	30
08/28/01	3:30 a	75.5	76.0	74.9	88	71.7	0.0	---	0.00	0.0	75.5	78.8	78.8	29.746	0.00	0.000	0.219	81.6	74	72.5	86.4	30
08/28/01	4:00 a	75.2	75.6	74.6	88	71.4	0.0	---	0.00	0.0	75.2	78.5	78.5	29.747	0.00	0.000	0.212	81.3	74	72.2	85.8	30
08/28/01	4:30 a	74.8	75.3	74.3	88	71.0	0.0	---	0.00	0.0	74.8	77.9	77.9	29.742	0.00	0.000	0.204	80.9	74	71.8	85.0	30
08/28/01	5:00 a	74.5	75.0	74.0	89	71.0	0.0	---	0.00	0.0	74.5	77.3	77.3	29.749	0.00	0.000	0.198	80.6	75	71.9	84.7	30
08/28/01	5:30 a	74.3	74.7	73.8	89	70.8	0.0	---	0.00	0.0	74.3	76.9	76.9	29.753	0.00	0.000	0.194	80.3	75	71.6	84.1	30
08/28/01	6:00 a	74.0	74.5	73.6	90	70.9	0.0	---	0.00	1.0	74.0	76.4	76.4	29.766	0.00	0.000	0.188	80.0	76	71.8	83.8	30
08/28/01	6:30 a	73.9	74.3	73.5	90	70.8	0.0	---	0.00	0.0	73.9	76.3	76.3	29.781	0.00	0.000	0.185	79.8	77	71.9	83.6	30
08/28/01	7:00 a	73.9	74.3	73.6	91	71.1	0.0	---	0.00	0.0	73.9	76.4	76.4	29.787	0.00	0.000	0.185	79.6	76	71.4	83.1	30
08/28/01	7:30 a	74.0	74.4	73.6	91	71.2	0.0	---	0.00	0.0	74.0	76.5	76.5	29.796	0.00	0.000	0.188	79.6	75	71.0	83.0	30
08/28/01	8:00 a	74.4	75.0	73.7	92	71.9	0.0	ENE	0.00	1.0	74.4	77.4	77.4	29.799	0.00	0.000	0.196	79.6	75	71.0	83.0	30
08/28/01	8:30 a	75.6	76.6	74.6	92	73.1	0.0	ENE	0.00	1.0	75.6	79.2	79.2	29.812	0.00	0.000	0.221	79.9	75	71.3	83.4	30
08/28/01	9:00 a	77.2	78.3	76.1	86	72.7	1.0	NW	0.50	4.0	77.2	81.0	81.0	29.816	0.00	0.000	0.254	80.5	76	72.2	84.7	30
08/28/01	9:30 a	79.5	81.4	77.8	78	72.0	0.0	NW	0.00	2.0	79.5	83.3	83.3	29.820	0.00	0.000	0.302	81.4	77	73.5	86.7	30
08/28/01	10:00 a	82.4	83.9	80.9	69	71.2	0.0	NW	0.00	2.0	82.4	86.9	86.9	29.818	0.00	0.000	0.363	82.7	77	74.8	89.9	30
08/28/01	10:30 a	85.0	86.0	83.5	64	71.5	0.0	ENE	0.00	4.0	85.0	90.8	90.8	29.816	0.00	0.000	0.417	84.4	75	75.6	93.5	30
08/28/01	11:00 a	86.9	88.2	85.5	64	73.3	1.0	E	0.50	7.0	86.9	95.0	95.0	29.813	0.00	0.000	0.456	86.0	72	75.9	96.0	30
08/28/01	11:30 a	88.4	89.1	87.6	59	72.2	0.0	ENE	0.00	6.0	88.4	95.5	95.5	29.805	0.00	0.000	0.488	87.3	71	76.7	98.4	30
08/28/01	12:00 p	89.7	91.0	88.6	55	71.4	1.0	NE	0.50	9.0	89.7	96.8	96.8	29.798	0.00	0.000	0.515	88.6	68	76.7	100.0	30
08/28/01	12:30 p	90.9	91.7	89.9	55	72.5	1.0	E	0.50	8.0	90.9	99.5	99.5	29.788	0.00	0.000	0.540	89.8	67	77.4	103.3	30
08/28/01	1:00 p	91.2	92.0	90.5	56	73.3	1.0	NE	0.50	10.0	91.2	100.7	100.7	29.771	0.00	0.000	0.546	90.9	65	77.5	105.3	30
08/28/01	1:30 p	92.1	92.6	91.2	56	74.1	1.0	NE	0.50	8.0	92.1	102.9	102.9	29.762	0.00	0.000	0.565	91.9	63	77.5	106.8	30
08/28/01	2:00 p	93.0	94.1	91.6	52	72.8	1.0	NE	0.50	9.0	93.0	102.6	102.6	29.753	0.00	0.000	0.583	92.7	62	77.8	108.4	30
08/28/01	2:30 p	93.6	94.3	93.0	56	75.5	2.0	NE	1.00	10.0	93.6	106.8	106.8	29.742	0.00	0.000	0.596	93.5	61	78.0	110.0	30
08/28/01	3:00 p	93.4	94.0	92.9	55	74.8	1.0	ENE	0.50	8.0	93.4	105.6	105.6	29.732	0.00	0.000	0.592	94.1	60	78.1	111.0	30
08/28/01	3:30 p	93.6	94.5	92.6	55	75.0	1.0	NE	0.50	9.0	93.6	106.2	106.2	29.721	0.00	0.000	0.596	94.5	59	78.0	111.5	30
08/28/01	4:00 p	93.4	94.2	92.9	54	74.3	2.0	ENE	1.00	7.0	93.4	104.9	104.9	29.719	0.00	0.000	0.592	94.8	59	78.2	112.4	30
08/28/01	4:30 p	93.7	94.8	92.7	54	74.5	2.0	NE	1.00	9.0	93.7	105.7	105.7	29.712	0.00	0.000	0.598	95.1	58	78.0	112.6	30
08/28/01	5:00 p	92.9	93.6	92.3	56	74.9	1.0	NE	0.50	9.0	92.9	105.0	105.0	29.712	0.00	0.000	0.581	95.1	57	77.5	111.8	30
08/28/01	5:30 p	92.3	93.0	91.4	51	71.6	1.0	ENE	0.50	9.0	92.3	100.4	100.4	29.711	0.00	0.000	0.569	95.2	57	77.6	112.1	30
08/28/01	6:00 p	91.6	92.2	91.0	54	72.6	2.0	ESE	1.00	10.0	91.6	100.6	100.6	29.706	0.00	0.000	0.554	93.1	56	75.1	105.5	30
08/28/01	6:30 p	91.0	91.9	89.5	59	74.7	2.0	ESE	1.00	10.0	91.0	101.8	101.8	29.703	0.00	0.000	0.542	91.1	59	74.8	102.0	30
08/28/01	7:00 p	88.6	89.7	88.0	62	73.9	1.0	ESE	0.50	8.0	88.6	97.2	97.2	29.710	0.00	0.000	0.492	90.0	61	74.7	100.4	30
08/28/01	7:30 p	87.4	88.4	86.3	66	74.6	1.0	ESE	0.50	6.0	87.4	96.5	96.5	29.723	0.00	0.000	0.467	88.9	64	75.1	98.9	30
08/28/01	8:00 p	86.1	86.8	85.1	68	74.3	0.0	ESE	0.00	4.0	86.1	94.8	94.8	29.735	0.00	0.000	0.440	87.9	66	75.1	97.1	30
08/28/01	8:30 p	84.7	85.4	83.8	70	73.8	0.0	ESE	0.00	3.0	84.7	92.3	92.3	29.746	0.00	0.000	0.410	87.0	67	74.7	96.4	30
08/28/01	9:00 p	83.5	84.1	82.8	72	73.5	0.0	ESE	0.00	2.0	83.5	90.4	90.4	29.753	0.00	0.000	0.385	86.3	68	74.5	95.2	30
08/28/01	9:30 p	82.4	83.2	81.8	73	72.9	0.0	---	0.00	1.0	82.4	88.0	88.0	29.763	0.00	0.000	0.363	86.0	66	73.3	93.8	30
08/28/01	10:00 p	81.7	82.2	81.2	75	73.0	0.0	---	0.00	0.0	81.7	86.9	86.9	29.767	0.00	0.000	0.348	85.9	67	73.7	93.9	30
08/28/01	10:30 p	80.9	81.6	80.1	77	73.0	0.0	---	0.00	0.0	80.9	85.7	85.7	29.771	0.00	0.000	0.331	85.5	68	73.7	93.4	30
08/28/01	11:00 p	80.0	80.7	79.4	79	72.9	0.0	---	0.00	0.0	80.0	84.3	84.3	29.781	0.00	0.000	0.313	85.1	68	73.3	92.4	30
08/28/01	11:30 p	79.3	79.9	78.6	80	72.6	0.0	---	0.00	0.0	79.3	83.3	83.3	29.788	0.00	0.000	0.298	84.6	69	73.3	91.7	30
08/29/01	12:00 a	78.6	79.1	78.0	81	72.3	0.0	---	0.00	0.0	78.6	82.4	82.4	29.792	0.00	0.000	0.283	84.1	70	73.3	91.1	30
08/29/01	12:30 a	78.0	78.5	77.5	82	72.1	0.0	---	0.00	0.0	78.0	81.7	81.7	29.788	0.00	0.000	0.271	83.7	70	72.9	90.1	30
08/29/01	1:00 a	77.5	78.0	77.0	83	71.9	0.0	---	0.00	0.0	77.5	81.1	81.1	29.792	0.00	0.000	0.260	83.3	71	72.9	89.5	30
08/29/01	1:30 a	77.0	77.5	76.5	84	71.8	0.0	---	0.00	0.0	77.0	80.5	80.5	29.790	0.00	0.000	0.250	82.9	71	72.5	88.5	30
08/29/01	2:00 a	76.5	77.1	76.1	85	71.7	0.0	---	0.00	0.0	76.5	79.9	79.9	29.786	0.00	0.000	0.240	82.6	71	72.2	87.9	30
08/29/01	2:30 a	76.2	76.6	75.8	86	71.7	0.0	---	0.00	0.0	76.2	79.5	79.5	29.780	0.00	0.000	0.233	82.4	70	71.6	87.1	30
08/29/01	3:00 a	76.0	76.3	75.5	86	71.5	0.0	---	0.00	0.0	76.0	79.3	79.3	29.772	0.00	0.000	0.229	82.2	70	71.4	86.7	30
08/29/01	3:30 a	75.6	76.1	75.2	87	71.5	0.0	---	0.00	0.0	75.6	78.9	78.9	29.765	0.00	0.000	0.221	81.9	70	71.2	86.1	30
08/29/01	4:00 a	75.3	75.8	74.9	87	71.2	0.0	---	0.00	0.0	75.3	78.5	78.5	29.760	0.00	0.000	0.215	81.7	70	71.0	85.7	30
08/29/01	4:30 a	75.1	75.5	74.5	88	71.3	0.0	---	0.00	0.0	75.1	78.4	78.4	29.756	0.00	0.000	0.210	81.4	70	70.7	85.2	30
08/29/01	5:00 a	74.7	75.1	74.3	88	70.9	0.0	---	0.00	0.0	74.7	77.7	77.7	29.758	0.00	0.000	0.202	81.1	69	70.0	84.4	30
08/29/01	5:30 a	74.5	74.9	74.1	89	71.0	0.0	---	0.00	0.0	74.5	77.3	77.3	29.752	0.00	0.000	0.198	80.8	70	70.1	84.1	30
08/29/01	6:00 a	74.2	74.6	73.8	89	70.7	0.0	---	0.00	0.0	74.2	76.8	76.8	29.751	0.00	0.000	0.192	80.5	69	69.4	83.4	30
08/29/01	6:30 a	73.9	74.4	73.5	89	70.5	0.0	---	0.00	0.0	73.9	76.3	76.3	29.761	0.00	0.000	0.185	80.2	70	69.5	83.0	30
08/29/01	7:00 a	73.6	74.0	73.2	90	70.5	0.0	---	0.00	0.0	73.6	76.0	76.0	29.769	0.00	0.000	0.179	80.0	70	69.3	82.7	30
08/29/01	7:30 a	73.4	73.9	73.1	91	70.6	0.0	---	0.00	0.0	73.4	75.9	75.9	29.778	0.00	0.000	0.175	79.8	70	69.1	82.4	30
08/29/01	8:00 a	73.7	74.6	73.2	92	71.2	0.0	---	0.00	1.0	73.7	76.3	76.3	29.792	0.00	0.000	0.181	79.6	72	69.8	82.5	30
08/29/01	8:30 a	75.1	76.3	74.1	94	73.3	0.0	---	0.00	1.0	75.1	78.8	78.8	29.800	0.00	0.000	0.210	79.7	72	69.9	82.6	30
08/29/01	9:00 a	77.6	79.4	75.9	90	74.4	0.0	ESE	0.00	2.0	77.6	82.1	82.1	29.802	0.00	0.000	0.262	80.4	76	72.1	84.5	30
08/29/01	9:30 a	80.8	83.0	78.9	82	74.8	0.0	ENE	0.00	3.0	80.8	86.6	86.6	29.808	0.00	0.000	0.329	81.6	78	74.1	87.4	30
08/29/01	10:00 a	84.6	86.4	82.6	74	75.4	0.0	NE	0.00	5.0	84.6	93.5	93.5	29.794	0.00	0.000	0.408	83.3	79	76.1	92.2	30
08/29/01	10:30 a	87.7	89.5	85.9	67	75.4	0.0	N	0.00	6.0	87.7	97.3	97.3	29.798	0.00	0.000	0.473	85.4	77	77.4	96.3	30
08/29/01	11:00 a	90.1	91.4	88.8	61	74.8	1.0	ENE	0.50	8.0	90.1	100.7	100.7	29.787	0.00	0.000	0.523	87.3	74	78.0	99.7	30
08/29/01	11:30 a	91.1	91.9	90.4	60	75.3	1.0	NE	0.50	6.0	91.1	102.6	102.6	29.781	0.00	0.000	0.544	88.9	71	78.3	102.6	30
08/29/01	12:00 p	91.4	92.1	90.9	63	77.0	1.0	NE	0.50	10.0	91.4	105.4	105.4	29.773	0.00	0.000	0.550	90.1	69	78.6	105.5	30
08/29/01	12:30 p	90.8	91.6	90.1	63	76.5	1.0	NE	0.50	9.0	90.8	103.7	103.7	29.770	0.00	0.000	0.538	91.1	68	79.1	108.0	30
08/29/01	1:00 p	91.2	92.5	90.3	62	76.4	2.0	ENE	1.00	9.0	91.2	104.2	104.2	29.762	0.00	0.000	0.546	92.0	68	79.9	110.8	30
08/29/01	1:30 p	92.2	93.0	91.7	62	77.3	2.0	ENE	1.00	9.0	92.2	107.0	107.0	29.760	0.00	0.000	0.567	92.8	66	79.8	111.9	30
08/29/01	2:00 p	92.4	93.0	91.6	63	78.0	2.0	NE	1.00	10.0	92.4	108.3	108.3	29.755	0.00	0.000	0.571	93.5	65	80.0	113.3	30
08/29/01	2:30 p	92.3	93.1	91.3	63	77.9	2.0	ENE	1.00	11.0	92.3	108.0	108.0	29.745	0.00	0.000	0.569	94.1	64	80.1	114.4	30
08/29/01	3:00 p	92.4	93.0	91.9	62	77.5	2.0	ENE	1.00	11.0	92.4	107.5	107.5	29.733	0.00	0.000	0.571	94.5	64	80.4	115.8	30
08/29/01	3:30 p	92.9	93.7	92.1	63	78.4	2.0	ENE	1.00	11.0	92.9	109.8	109.8	29.714	0.00	0.000	0.581	96.0	62	80.9	119.1	30
08/29/01	4:00 p	92.6	93.4	91.8	63	78.2	2.0	ENE	1.00	11.0	92.6	108.9	108.9	29.699	0.00	0.000	0.575	96.4	61	80.7	119.5	30
08/29/01	4:30 p	91.7	92.3	91.2	65	78.3	2.0	NE	1.00	12.0	91.7	107.7	107.7	29.700	0.00	0.000	0.556	96.4	61	80.7	119.5	30
08/29/01	5:00 p	91.4	92.0	90.7	67	78.9	2.0	NE	1.00	9.0	91.4	108.2	108.2	29.699	0.00	0.000	0.550	96.3	62	81.2	120.2	30
08/29/01	5:30 p	90.4	91.4	88.4	70	79.3	1.0	NE	0.50	11.0	90.4	107.1	107.1	29.714	0.00	0.000	0.529	96.0	61	80.4	118.1	30
08/29/01	6:00 p	87.9	88.9	87.0	73	78.2	1.0	NE	0.50	7.0	87.9	100.3	100.3	29.709	0.00	0.000	0.477	93.2	64	79.2	111.5	30
08/29/01	6:30 p	86.9	87.6	86.0	72	76.8	1.0	ENE	0.50	7.0	86.9	98.1	98.1	29.712	0.00	0.000	0.456	92.2	65	78.7	109.2	30
08/29/01	7:00 p	86.2	86.7	85.6	73	76.5	0.0	E	0.00	6.0	86.2	96.8	96.8	29.714	0.00	0.000	0.442	91.3	65	77.9	106.5	30
08/29/01	7:30 p	85.7	86.3	85.1	75	76.9	0.0	ESE	0.00	4.0	85.7	96.3	96.3	29.716	0.00	0.000	0.431	90.6	67	78.1	105.8	30
08/29/01	8:00 p	85.0	85.6	84.4	77	77.0	0.0	ESE	0.00	5.0	85.0	95.3	95.3	29.719	0.00	0.000	0.417	89.8	69	78.3	104.5	30
08/29/01	8:30 p	84.3	84.8	83.8	79	77.1	0.0	E	0.00	4.0	84.3	94.7	94.7	29.728	0.00	0.000	0.402	89.0	71	78.4	102.9	30
08/29/01	9:00 p	84.0	84.4	83.6	80	77.2	0.0	ESE	0.00	4.0	84.0	94.5	94.5	29.731	0.00	0.000	0.396	88.4	73	78.6	102.0	30
08/29/01	9:30 p	83.6	84.0	83.2	81	77.1	0.0	ESE	0.00	2.0	83.6	93.7	93.7	29.741	0.00	0.000	0.387	88.0	74	78.7	100.9	30
08/29/01	10:00 p	83.2	83.7	82.8	82	77.1	0.0	ESE	0.00	3.0	83.2	92.8	92.8	29.758	0.00	0.000	0.379	87.5	76	79.0	101.1	30
08/29/01	10:30 p	83.0	83.5	82.6	83	77.3	0.0	SSE	0.00	1.0	83.0	92.5	92.5	29.766	0.00	0.000	0.375	87.1	76	78.6	100.3	30
08/29/01	11:00 p	82.8	83.3	82.4	84	77.5	0.0	SSE	0.00	2.0	82.8	92.3	92.3	29.766	0.00	0.000	0.371	87.0	76	78.5	100.1	30
08/29/01	11:30 p	82.7	83.1	82.3	85	77.7	0.0	SSE	0.00	2.0	82.7	92.3	92.3	29.767	0.00	0.000	0.369	86.9	76	78.4	99.8	30
08/30/01	12:00 a	82.5	82.9	82.1	85	77.5	0.0	SSE	0.00	2.0	82.5	91.8	91.8	29.766	0.00	0.000	0.365	86.7	77	78.6	99.7	30
08/30/01	12:30 a	82.1	82.7	81.6	86	77.5	0.0	---	0.00	0.0	82.1	91.0	91.0	29.765	0.00	0.000	0.356	86.4	78	78.7	99.3	30
08/30/01	1:00 a	81.6	82.1	81.2	86	77.0	0.0	---	0.00	0.0	81.6	89.7	89.7	29.764	0.00	0.000	0.346	86.1	78	78.4	98.4	30
08/30/01	1:30 a	81.3	81.8	80.8	86	76.7	0.0	---	0.00	0.0	81.3	88.9	88.9	29.760	0.00	0.000	0.340	85.7	78	78.0	97.4	30
08/30/01	2:00 a	81.0	81.5	80.5	87	76.8	0.0	---	0.00	0.0	81.0	88.4	88.4	29.753	0.00	0.000	0.333	85.5	78	77.9	96.9	30
08/30/01	2:30 a	80.8	81.2	80.3	87	76.6	0.0	---	0.00	0.0	80.8	87.9	87.9	29.744	0.00	0.000	0.329	85.3	79	78.0	96.8	30
08/30/01	3:00 a	80.5	81.0	80.0	88	76.6	0.0	---	0.00	0.0	80.5	87.5	87.5	29.735	0.00	0.000	0.323	85.0	79	77.8	96.0	30
08/30/01	3:30 a	80.2	80.7	79.6	88	76.3	0.0	---	0.00	0.0	80.2	86.8	86.8	29.730	0.00	0.000	0.317	84.7	79	77.5	95.5	30
08/30/01	4:00 a	79.8	80.3	79.2	89	76.3	0.0	---	0.00	0.0	79.8	86.1	86.1	29.728	0.00	0.000	0.308	84.4	80	77.6	95.3	30
08/30/01	4:30 a	79.2	79.8	78.6	89	75.7	0.0	---	0.00	0.0	79.2	84.9	84.9	29.726	0.00	0.000	0.296	84.1	80	77.3	94.7	30
08/30/01	5:00 a	78.6	79.3	78.1	89	75.1	0.0	---	0.00	0.0	78.6	83.8	83.8	29.730	0.00	0.000	0.283	83.8	80	77.0	93.9	30
08/30/01	5:30 a	78.2	78.8	77.7	90	75.0	0.0	---	0.00	0.0	78.2	83.2	83.2	29.730	0.00	0.000	0.275	83.4	80	76.6	92.8	30
08/30/01	6:00 a	77.9	78.5	77.4	90	74.7	0.0	---	0.00	0.0	77.9	82.6	82.6	29.735	0.00	0.000	0.269	83.1	79	75.9	91.7	30
08/30/01	6:30 a	77.6	78.1	77.2	91	74.8	0.0	---	0.00	0.0	77.6	82.2	82.2	29.749	0.00	0.000	0.262	83.0	78	75.4	91.1	30
08/30/01	7:00 a	77.4	77.8	76.8	91	74.6	0.0	---	0.00	0.0	77.4	81.8	81.8	29.758	0.00	0.000	0.258	82.7	78	75.1	90.2	30
08/30/01	7:30 a	77.2	77.7	76.8	91	74.4	0.0	---	0.00	0.0	77.2	81.5	81.5	29.767	0.00	0.000	0.254	82.6	77	74.7	89.7	30
08/30/01	8:00 a	77.6	78.2	77.0	92	75.1	0.0	---	0.00	0.0	77.6	82.3	82.3	29.774	0.00	0.000	0.262	82.4	78	74.8	89.4	30
08/30/01	8:30 a	78.4	79.4	77.6	91	75.6	0.0	SSE	0.00	1.0	78.4	83.7	83.7	29.782	0.00	0.000	0.279	82.5	77	74.6	89.4	30
08/30/01	9:00 a	80.1	81.5	78.8	86	75.5	0.0	SSE	0.00	4.0	80.1	86.1	86.1	29.786	0.00	0.000	0.315	83.2	80	76.4	92.3	30
08/30/01	9:30 a	83.0	84.9	81.1	79	75.8	2.0	S	1.00	8.0	83.0	91.4	91.4	29.796	0.00	0.000	0.375	84.3	82	78.2	95.8	30
08/30/01	10:00 a	86.3	87.7	84.8	73	76.6	1.0	S	0.50	7.0	86.3	97.1	97.1	29.793	0.00	0.000	0.444	85.6	81	79.1	98.3	30
08/30/01	10:30 a	88.1	89.6	86.8	68	76.2	1.0	SSW	0.50	6.0	88.1	98.4	98.4	29.787	0.00	0.000	0.481	86.9	79	79.6	101.3	30
08/30/01	11:00 a	90.4	92.0	89.3	64	76.6	1.0	SSE	0.50	9.0	90.4	103.3	103.3	29.779	0.00	0.000	0.529	88.3	76	79.8	103.3	30
08/30/01	11:30 a	91.5	92.3	90.8	63	77.1	0.0	S	0.00	8.0	91.5	105.7	105.7	29.778	0.00	0.000	0.552	89.5	74	80.1	106.8	30
08/30/01	12:00 p	91.1	92.5	90.4	62	76.3	2.0	ESE	1.00	12.0	91.1	103.9	103.9	29.774	0.00	0.000	0.544	90.1	73	80.3	108.3	30
08/30/01	12:30 p	93.5	94.1	92.5	60	77.5	4.0	ESE	2.00	15.0	93.5	109.2	109.2	29.762	0.00	0.000	0.594	91.4	71	80.7	111.3	30
08/30/01	1:00 p	93.0	94.1	91.5	65	79.5	4.0	ESE	2.00	19.0	93.0	111.7	111.7	29.761	0.00	0.000	0.583	92.4	69	80.7	112.9	30
08/30/01	1:30 p	91.3	92.1	90.2	67	78.8	3.0	ESE	1.50	14.0	91.3	107.9	107.9	29.755	0.00	0.000	0.548	92.1	69	80.5	111.9	30
08/30/01	2:00 p	90.1	90.5	89.6	67	77.7	3.0	ESE	1.50	13.0	90.1	104.3	104.3	29.751	0.00	0.000	0.523	91.7	69	80.1	110.6	30
08/30/01	2:30 p	90.1	90.8	89.5	68	78.1	3.0	ESE	1.50	12.0	90.1	104.9	104.9	29.734	0.00	0.000	0.523	91.6	69	80.0	110.3	30
08/30/01	3:00 p	90.0	90.6	89.2	72	79.8	2.0	ESE	1.00	12.0	90.0	107.2	107.2	29.728	0.00	0.000	0.521	91.6	69	80.0	110.3	30
08/30/01	3:30 p	89.3	89.9	88.8	73	79.5	1.0	ENE	0.50	8.0	89.3	105.3	105.3	29.724	0.00	0.000	0.506	91.6	70	80.4	111.0	30
08/30/01	4:00 p	89.0	89.7	88.2	71	78.4	2.0	ENE	1.00	8.0	89.0	102.9	102.9	29.707	0.00	0.000	0.500	91.7	71	81.0	112.3	30
08/30/01	4:30 p	91.1	92.2	89.3	67	78.6	3.0	ESE	1.50	13.0	91.1	107.3	107.3	29.697	0.00	0.000	0.544	92.2	69	80.6	112.2	30
08/30/01	5:00 p	92.9	93.9	91.6	64	78.9	4.0	ESE	2.00	15.0	92.9	110.6	110.6	29.693	0.00	0.000	0.581	93.3	68	81.2	115.2	30
08/30/01	5:30 p	93.5	94.2	93.0	64	79.5	3.0	ESE	1.50	14.0	93.5	112.5	112.5	29.696	0.00	0.000	0.594	93.6	68	81.4	116.2	30
08/30/01	6:00 p	92.6	93.8	91.3	68	80.5	3.0	ESE	1.50	15.0	92.6	112.8	112.8	29.693	0.00	0.000	0.575	91.9	70	80.7	112.0	30
08/30/01	6:30 p	89.8	91.6	88.9	69	78.3	1.0	ESE	0.50	8.0	89.8	104.5	104.5	29.691	0.00	0.000	0.517	91.1	69	79.5	108.6	30
08/30/01	7:00 p	88.8	89.5	87.9	72	78.6	2.0	ESE	1.00	11.0	88.8	102.9	102.9	29.696	0.00	0.000	0.496	89.9	72	79.7	106.9	30
08/30/01	7:30 p	87.4	88.3	86.4	73	77.7	1.0	ESE	0.50	9.0	87.4	99.4	99.4	29.714	0.00	0.000	0.467	88.9	73	79.1	103.8	30
08/30/01	8:00 p	86.0	86.9	85.2	75	77.1	1.0	ESE	0.50	7.0	86.0	97.0	97.0	29.741	0.00	0.000	0.438	88.1	73	78.3	100.8	30
08/30/01	8:30 p	84.8	85.6	84.0	76	76.4	1.0	ESE	0.50	8.0	84.8	94.6	94.6	29.742	0.00	0.000	0.413	87.7	73	78.0	99.9	30
08/30/01	9:00 p	84.0	84.5	83.5	77	76.0	1.0	SE	0.50	8.0	84.0	93.4	93.4	29.748	0.00	0.000	0.396	87.5	74	78.2	100.1	30
08/30/01	9:30 p	83.6	84.0	83.2	79	76.4	1.0	ESE	0.50	10.0	83.6	93.0	93.0	29.757	0.00	0.000	0.387	87.2	75	78.3	100.0	30
08/30/01	10:00 p	83.5	83.9	83.1	80	76.7	2.0	SE	1.00	11.0	83.5	93.1	93.1	29.762	0.00	0.000	0.385	87.0	76	78.5	100.1	30
08/30/01	10:30 p	83.4	83.7	82.9	80	76.6	2.0	SE	1.00	11.0	83.4	92.8	92.8	29.772	0.00	0.000	0.383	87.0	76	78.5	100.1	30
08/30/01	11:00 p	83.1	83.6	82.7	80	76.3	1.0	SSE	0.50	7.0	83.1	92.0	92.0	29.771	0.00	0.000	0.377	86.9	75	78.0	99.3	30
08/30/01	11:30 p	82.9	83.3	82.5	81	76.5	1.0	SE	0.50	8.0	82.9	91.7	91.7	29.774	0.00	0.000	0.373	86.7	76	78.2	99.3	30
08/31/01	12:00 a	82.7	83.1	82.3	83	77.0	1.0	SSE	0.50	5.0	82.7	91.7	91.7	29.767	0.00	0.000	0.369	86.4	77	78.3	98.9	30
08/31/01	12:30 a	82.4	82.8	81.9	83	76.7	0.0	SE	0.00	7.0	82.4	90.9	90.9	29.767	0.00	0.000	0.363	86.2	77	78.1	98.3	30
08/31/01	1:00 a	81.9	82.4	81.3	84	76.6	0.0	---	0.00	1.0	81.9	89.8	89.8	29.771	0.00	0.000	0.352	85.9	78	78.2	97.8	30
08/31/01	1:30 a	81.3	81.9	80.8	85	76.4	0.0	---	0.00	1.0	81.3	88.6	88.6	29.764	0.00	0.000	0.340	85.5	78	77.9	96.9	30
08/31/01	2:00 a	80.6	81.3	80.2	86	76.0	0.0	---	0.00	0.0	80.6	87.2	87.2	29.760	0.00	0.000	0.325	85.2	78	77.6	96.2	30
08/31/01	2:30 a	80.2	80.8	79.7	86	75.6	0.0	---	0.00	0.0	80.2	86.3	86.3	29.749	0.00	0.000	0.317	84.8	78	77.2	95.3	30
08/31/01	3:00 a	79.8	80.4	79.3	87	75.6	0.0	---	0.00	0.0	79.8	85.7	85.7	29.741	0.00	0.000	0.308	84.5	79	77.3	95.1	30
08/31/01	3:30 a	79.4	79.9	78.7	88	75.5	0.0	---	0.00	0.0	79.4	85.1	85.1	29.733	0.00	0.000	0.300	84.2	79	77.0	94.5	30
08/31/01	4:00 a	78.9	79.3	78.6	89	75.4	0.0	SE	0.00	1.0	78.9	84.3	84.3	29.726	0.00	0.000	0.290	83.9	80	77.1	94.2	30
08/31/01	4:30 a	78.9	79.3	78.4	90	75.7	0.0	SE	0.00	2.0	78.9	84.5	84.5	29.726	0.00	0.000	0.290	83.6	80	76.8	93.4	30
08/31/01	5:00 a	78.8	79.2	78.3	90	75.6	0.0	SSE	0.00	2.0	78.8	84.3	84.3	29.729	0.00	0.000	0.288	83.4	81	77.0	93.1	30
08/31/01	5:30 a	78.7	79.1	78.3	90	75.5	0.0	SSE	0.00	3.0	78.7	84.1	84.1	29.731	0.00	0.000	0.285	83.3	81	76.9	92.8	30
08/31/01	6:00 a	78.5	79.0	78.0	90	75.3	0.0	S	0.00	2.0	78.5	83.8	83.8	29.739	0.00	0.000	0.281	83.1	82	77.0	92.5	30
08/31/01	6:30 a	78.2	78.7	77.8	90	75.0	0.0	---	0.00	0.0	78.2	83.2	83.2	29.753	0.00	0.000	0.275	82.9	82	76.8	92.0	30
08/31/01	7:00 a	77.8	78.4	77.3	91	75.0	0.0	---	0.00	0.0	77.8	82.6	82.6	29.765	0.00	0.000	0.267	82.6	82	76.5	91.2	30
08/31/01	7:30 a	77.4	77.9	77.0	91	74.6	0.0	---	0.00	0.0	77.4	81.8	81.8	29.776	0.00	0.000	0.258	82.2	82	76.2	90.1	30
08/31/01	8:00 a	77.7	78.3	77.2	91	74.9	0.0	---	0.00	0.0	77.7	82.4	82.4	29.779	0.00	0.000	0.265	82.1	83	76.4	90.1	30
08/31/01	8:30 a	78.6	79.4	77.6	90	75.4	0.0	SSW	0.00	3.0	78.6	83.9	83.9	29.788	0.00	0.000	0.283	82.2	84	76.9	90.6	30
08/31/01	9:00 a	79.8	81.0	79.0	86	75.2	1.0	SSW	0.50	6.0	79.8	85.5	85.5	29.793	0.00	0.000	0.308	82.8	84	77.5	92.3	30
08/31/01	9:30 a	82.1	83.7	80.5	82	76.1	2.0	S	1.00	7.0	82.1	89.8	89.8	29.795	0.00	0.000	0.356	83.9	86	79.3	96.2	30
08/31/01	10:00 a	85.0	86.5	83.2	73	75.4	2.0	SSW	1.00	10.0	85.0	93.9	93.9	29.794	0.00	0.000	0.417	85.2	84	79.8	98.5	30
08/31/01	10:30 a	87.4	89.0	86.0	69	76.0	2.0	SSW	1.00	8.0	87.4	97.7	97.7	29.799	0.00	0.000	0.467	86.5	82	80.3	101.6	30
08/31/01	11:00 a	89.9	91.2	88.3	65	76.6	2.0	SW	1.00	8.0	89.9	102.5	102.5	29.795	0.00	0.000	0.519	87.7	80	80.8	103.7	30
08/31/01	11:30 a	90.8	92.1	90.1	62	76.0	2.0	SW	1.00	10.0	90.8	103.1	103.1	29.782	0.00	0.000	0.538	88.9	77	80.7	106.5	30
08/31/01	12:00 p	92.8	94.4	91.7	58	75.8	2.0	SSW	1.00	8.0	92.8	105.9	105.9	29.769	0.00	0.000	0.579	89.9	74	80.5	108.3	30
08/31/01	12:30 p	94.7	95.4	94.0	55	76.0	1.0	SSW	0.50	8.0	94.7	109.2	109.2	29.765	0.00	0.000	0.619	91.1	72	80.8	111.1	30
08/31/01	1:00 p	93.1	94.8	91.0	66	80.0	4.0	ESE	2.00	17.0	93.1	112.8	112.8	29.758	0.00	0.000	0.585	91.9	71	81.1	113.0	30
08/31/01	1:30 p	90.3	91.8	89.2	69	78.7	4.0	ESE	2.00	12.0	90.3	106.1	106.1	29.746	0.00	0.000	0.527	91.5	70	80.3	110.7	30
08/31/01	2:00 p	92.1	94.1	89.9	64	78.2	5.0	SE	2.50	19.0	92.1	108.2	108.2	29.737	0.00	0.000	0.565	91.6	70	80.4	111.0	30
08/31/01	2:30 p	95.3	96.3	93.9	56	77.1	5.0	SE	2.50	16.0	95.3	111.7	111.7	29.726	0.00	0.000	0.631	93.0	70	81.8	115.7	30
08/31/01	3:00 p	96.3	96.9	95.4	57	78.6	6.0	ESE	3.00	18.0	96.3	115.6	115.6	29.716	0.00	0.000	0.652	94.2	68	82.0	118.4	30
08/31/01	3:30 p	96.2	96.8	95.7	56	78.0	5.0	ESE	2.50	21.0	96.2	114.4	114.4	29.705	0.00	0.000	0.650	94.8	66	81.7	118.7	30
08/31/01	4:00 p	95.7	96.7	95.3	57	78.0	6.0	ESE	3.00	20.0	95.7	113.7	113.7	29.695	0.00	0.000	0.640	94.9	64	80.8	117.1	30
08/31/01	4:30 p	95.0	96.0	94.3	57	77.4	5.0	ESE	2.50	19.0	95.0	111.5	111.5	29.689	0.00	0.000	0.625	94.9	64	80.8	117.1	30
08/31/01	5:00 p	93.8	95.2	91.3	61	78.3	5.0	SSE	2.50	13.0	93.8	110.9	110.9	29.701	0.00	0.000	0.600	94.6	60	78.6	112.6	30
08/31/01	5:30 p	90.2	91.8	89.0	65	76.8	1.0	SSE	0.50	8.0	90.2	103.4	103.4	29.705	0.00	0.000	0.525	91.1	65	77.7	105.9	30
08/31/01	6:00 p	87.8	89.3	86.3	68	75.9	2.0	S	1.00	8.0	87.8	97.8	97.8	29.705	0.00	0.000	0.475	89.3	66	76.4	101.1	30
08/31/01	6:30 p	85.7	86.5	85.1	69	74.4	0.0	SE	0.00	5.0	85.7	94.2	94.2	29.707	0.00	0.000	0.431	87.6	68	75.7	97.6	30
08/31/01	7:00 p	85.2	85.6	84.7	71	74.7	1.0	SSE	0.50	5.0	85.2	93.7	93.7	29.714	0.00	0.000	0.421	87.1	70	76.1	97.6	30
08/31/01	7:30 p	84.8	85.3	84.3	74	75.6	1.0	SSE	0.50	6.0	84.8	93.9	93.9	29.710	0.00	0.000	0.413	86.8	73	77.1	98.3	30
08/31/01	8:00 p	84.2	84.8	83.8	77	76.2	1.0	SSE	0.50	7.0	84.2	93.8	93.8	29.717	0.00	0.000	0.400	86.4	76	77.9	98.5	30
08/31/01	8:30 p	83.8	84.3	83.0	78	76.2	0.0	SSE	0.00	5.0	83.8	93.2	93.2	29.730	0.00	0.000	0.392	86.3	76	77.8	98.2	30
08/31/01	9:00 p	83.0	83.3	82.6	80	76.2	0.0	NW	0.00	2.0	83.0	91.7	91.7	29.751	0.00	0.000	0.375	86.2	76	77.7	97.9	30
08/31/01	9:30 p	82.5	83.1	82.0	80	75.7	0.0	WNW	0.00	1.0	82.5	90.3	90.3	29.755	0.00	0.000	0.365	86.4	75	77.5	98.0	30
08/31/01	10:00 p	82.1	82.7	81.6	80	75.3	0.0	---	0.00	0.0	82.1	89.2	89.2	29.765	0.00	0.000	0.356	86.2	75	77.3	97.5	30
08/31/01	10:30 p	81.7	82.1	81.2	80	74.9	0.0	---	0.00	0.0	81.7	88.2	88.2	29.776	0.00	0.000	0.348	85.9	74	76.6	96.4	30
08/31/01	11:00 p	81.3	81.7	80.7	81	74.9	0.0	---	0.00	0.0	81.3	87.5	87.5	29.781	0.00	0.000	0.340	85.6	75	76.8	96.0	30
08/31/01	11:30 p	80.8	81.2	80.4	82	74.8	0.0	---	0.00	0.0	80.8	86.6	86.6	29.787	0.00	0.000	0.329	85.2	75	76.4	95.1	30
09/01/01	12:00 a	80.5	80.9	80.1	83	74.9	0.0	---	0.00	0.0	80.5	86.2	86.2	29.794	0.00	0.000	0.323	84.9	75	76.1	94.4	30
09/01/01	12:30 a	80.3	80.7	79.8	84	75.0	0.0	---	0.00	0.0	80.3	86.0	86.0	29.793	0.00	0.000	0.319	84.7	76	76.3	94.4	30
09/01/01	1:00 a	79.9	80.3	79.4	85	75.0	0.0	---	0.00	0.0	79.9	85.4	85.4	29.786	0.00	0.000	0.310	84.4	77	76.4	94.2	30
09/01/01	1:30 a	79.6	80.0	79.2	85	74.7	0.0	---	0.00	0.0	79.6	84.8	84.8	29.774	0.00	0.000	0.304	84.2	77	76.2	93.8	30
09/01/01	2:00 a	79.2	79.6	78.8	86	74.6	0.0	---	0.00	0.0	79.2	84.3	84.3	29.765	0.00	0.000	0.296	83.9	77	75.9	93.2	30
09/01/01	2:30 a	79.0	79.5	78.4	86	74.5	0.0	---	0.00	0.0	79.0	83.9	83.9	29.749	0.00	0.000	0.292	83.7	78	76.1	93.0	30
09/01/01	3:00 a	78.6	79.1	78.1	87	74.4	0.0	---	0.00	0.0	78.6	83.4	83.4	29.748	0.00	0.000	0.283	83.4	78	75.8	92.1	30
09/01/01	3:30 a	78.4	78.8	78.0	88	74.5	0.0	---	0.00	0.0	78.4	83.2	83.2	29.737	0.00	0.000	0.279	83.2	78	75.6	91.6	30
09/01/01	4:00 a	78.2	78.7	77.8	88	74.4	0.0	---	0.00	0.0	78.2	82.9	82.9	29.740	0.00	0.000	0.275	82.9	79	75.7	91.1	30
09/01/01	4:30 a	77.8	78.4	77.3	89	74.3	0.0	---	0.00	0.0	77.8	82.3	82.3	29.737	0.00	0.000	0.267	82.7	80	75.9	90.9	30
09/01/01	5:00 a	77.5	77.9	77.0	89	74.0	0.0	---	0.00	0.0	77.5	81.8	81.8	29.733	0.00	0.000	0.260	82.5	80	75.7	90.3	30
09/01/01	5:30 a	77.1	77.6	76.5	89	73.6	0.0	---	0.00	0.0	77.1	81.1	81.1	29.737	0.00	0.000	0.252	82.2	80	75.4	89.5	30
09/01/01	6:00 a	76.6	77.2	76.0	90	73.4	0.0	---	0.00	0.0	76.6	80.4	80.4	29.742	0.00	0.000	0.242	81.8	80	75.0	88.4	30
09/01/01	6:30 a	76.1	76.6	75.6	90	73.0	0.0	---	0.00	0.0	76.1	79.6	79.6	29.751	0.00	0.000	0.231	81.4	80	74.6	87.5	30
09/01/01	7:00 a	75.7	76.3	75.2	91	72.9	0.0	---	0.00	0.0	75.7	79.3	79.3	29.760	0.00	0.000	0.223	81.1	80	74.3	86.7	30
09/01/01	7:30 a	75.5	76.0	75.1	91	72.7	0.0	---	0.00	0.0	75.5	79.0	79.0	29.776	0.00	0.000	0.219	80.9	81	74.5	86.6	30
09/01/01	8:00 a	75.7	76.1	75.2	91	72.9	0.0	---	0.00	0.0	75.7	79.3	79.3	29.785	0.00	0.000	0.223	80.6	83	75.0	86.4	30
09/01/01	8:30 a	76.4	77.3	75.6	93	74.2	0.0	---	0.00	1.0	76.4	80.4	80.4	29.791	0.00	0.000	0.238	80.5	86	75.9	87.0	30
09/01/01	9:00 a	77.8	79.0	76.7	91	75.0	0.0	WNW	0.00	1.0	77.8	82.6	82.6	29.790	0.00	0.000	0.267	81.2	86	76.6	88.6	30
09/01/01	9:30 a	80.3	82.4	78.5	84	75.0	1.0	W	0.50	4.0	80.3	86.0	86.0	29.785	0.00	0.000	0.319	82.5	88	78.6	92.8	30
09/01/01	10:00 a	84.1	86.0	82.1	75	75.3	1.0	SW	0.50	5.0	84.1	92.9	92.9	29.783	0.00	0.000	0.398	84.6	84	79.2	97.1	30
09/01/01	10:30 a	86.8	87.9	85.8	69	75.4	1.0	SSE	0.50	7.0	86.8	96.7	96.7	29.781	0.00	0.000	0.454	86.3	78	78.6	99.0	30
09/01/01	11:00 a	88.7	89.8	87.7	65	75.4	1.0	S	0.50	6.0	88.7	98.8	98.8	29.776	0.00	0.000	0.494	87.6	74	78.3	100.2	30
09/01/01	11:30 a	90.1	90.9	89.5	63	75.8	1.0	SW	0.50	6.0	90.1	101.9	101.9	29.767	0.00	0.000	0.523	89.0	72	78.8	103.6	30
09/01/01	12:00 p	90.8	92.9	89.3	61	75.5	1.0	SSW	0.50	7.0	90.8	102.4	102.4	29.753	0.00	0.000	0.538	89.8	70	78.7	105.1	30
09/01/01	12:30 p	93.6	94.7	92.7	62	78.6	2.0	ESE	1.00	14.0	93.6	111.1	111.1	29.744	0.00	0.000	0.596	91.4	69	79.8	109.6	30
09/01/01	1:00 p	93.4	94.2	92.7	62	78.4	3.0	ESE	1.50	16.0	93.4	110.5	110.5	29.739	0.00	0.000	0.592	91.6	69	80.0	110.3	30
09/01/01	1:30 p	93.9	94.7	92.8	59	77.4	5.0	ESE	2.50	16.0	93.9	109.7	109.7	29.730	0.00	0.000	0.602	92.3	66	79.3	110.3	30
09/01/01	2:00 p	94.4	95.1	93.2	57	76.8	6.0	ESE	3.00	19.0	94.4	109.8	109.8	29.719	0.00	0.000	0.613	92.8	64	78.8	110.3	30
09/01/01	2:30 p	95.0	96.2	94.2	56	76.8	5.0	ESE	2.50	18.0	95.0	110.8	110.8	29.705	0.00	0.000	0.625	92.9	64	78.9	110.6	30
09/01/01	3:00 p	95.9	96.4	95.2	56	77.7	5.0	ESE	2.50	18.0	95.9	113.4	113.4	29.690	0.00	0.000	0.644	93.1	63	78.6	110.4	30
09/01/01	3:30 p	96.1	96.6	95.4	57	78.4	4.0	ESE	2.00	18.0	96.1	114.9	114.9	29.683	0.00	0.000	0.648	93.2	65	79.7	112.3	30
09/01/01	4:00 p	95.7	96.5	95.0	59	79.1	5.0	ESE	2.50	16.0	95.7	115.3	115.3	29.668	0.00	0.000	0.640	93.1	66	80.0	112.8	30
09/01/01	4:30 p	95.6	96.0	95.0	60	79.5	5.0	ESE	2.50	18.0	95.6	115.8	115.8	29.658	0.00	0.000	0.637	93.0	66	80.0	112.5	30
09/01/01	5:00 p	94.9	95.6	94.2	59	78.3	5.0	ESE	2.50	16.0	94.9	112.7	112.7	29.661	0.00	0.000	0.623	93.0	64	79.0	110.9	30
09/01/01	5:30 p	93.5	94.7	92.7	62	78.5	5.0	ESE	2.50	15.0	93.5	110.8	110.8	29.656	0.00	0.000	0.594	92.3	66	79.3	110.3	30
09/01/01	6:00 p	92.2	93.5	90.7	63	77.8	4.0	SE	2.00	19.0	92.2	107.7	107.7	29.669	0.00	0.000	0.567	91.6	65	78.2	107.4	30
09/01/01	6:30 p	89.9	91.0	88.8	68	77.9	3.0	SE	1.50	11.0	89.9	104.3	104.3	29.682	0.00	0.000	0.519	90.4	68	78.4	105.8	30
09/01/01	7:00 p	88.2	89.1	86.7	65	74.9	1.0	SSE	0.50	7.0	88.2	97.4	97.4	29.696	0.00	0.000	0.483	89.5	66	76.6	101.8	30
09/01/01	7:30 p	85.8	87.0	84.9	67	73.6	1.0	SW	0.50	7.0	85.8	93.7	93.7	29.709	0.00	0.000	0.433	88.3	65	75.0	97.6	30
09/01/01	8:00 p	84.1	85.1	83.4	68	72.4	0.0	---	0.00	3.0	84.1	90.4	90.4	29.710	0.00	0.000	0.398	86.9	65	73.7	95.4	30
09/01/01	8:30 p	82.9	83.8	82.2	70	72.1	0.0	---	0.00	0.0	82.9	88.2	88.2	29.717	0.00	0.000	0.373	85.7	67	73.5	93.5	30
09/01/01	9:00 p	81.8	82.5	81.0	72	71.9	0.0	---	0.00	0.0	81.8	86.4	86.4	29.724	0.00	0.000	0.350	84.8	68	73.1	91.8	30
09/01/01	9:30 p	80.9	81.4	80.4	74	71.8	0.0	---	0.00	0.0	80.9	85.0	85.0	29.734	0.00	0.000	0.331	84.0	70	73.2	90.9	30
09/01/01	10:00 p	80.0	80.8	79.4	76	71.8	0.0	---	0.00	0.0	80.0	83.8	83.8	29.754	0.00	0.000	0.313	83.7	71	73.3	90.5	30
09/01/01	10:30 p	79.5	79.9	79.1	77	71.7	0.0	---	0.00	0.0	79.5	83.1	83.1	29.756	0.00	0.000	0.302	83.5	70	72.7	89.7	30
09/01/01	11:00 p	79.2	79.7	78.6	78	71.7	0.0	---	0.00	0.0	79.2	82.8	82.8	29.758	0.00	0.000	0.296	83.7	71	73.3	90.5	30
09/01/01	11:30 p	78.7	79.2	78.2	79	71.6	0.0	---	0.00	0.0	78.7	82.2	82.2	29.758	0.00	0.000	0.285	83.6	71	73.2	90.3	30
09/02/01	12:00 a	78.5	78.8	78.0	81	72.2	0.0	---	0.00	0.0	78.5	82.3	82.3	29.756	0.00	0.000	0.281	83.4	71	73.0	89.7	30
09/02/01	12:30 a	78.1	78.6	77.7	82	72.2	0.0	WNW	0.00	1.0	78.1	81.8	81.8	29.758	0.00	0.000	0.273	83.3	71	72.9	89.5	30
09/02/01	1:00 a	78.2	78.5	77.8	82	72.3	0.0	---	0.00	0.0	78.2	82.0	82.0	29.757	0.00	0.000	0.275	83.2	71	72.8	89.2	30
09/02/01	1:30 a	78.1	78.5	77.7	84	72.9	0.0	---	0.00	0.0	78.1	82.1	82.1	29.751	0.00	0.000	0.273	83.2	71	72.8	89.2	30
09/02/01	2:00 a	77.9	78.2	77.5	85	73.0	0.0	---	0.00	1.0	77.9	81.9	81.9	29.743	0.00	0.000	0.269	83.1	72	73.1	89.3	30
09/02/01	2:30 a	77.9	78.2	77.5	86	73.4	0.0	---	0.00	0.0	77.9	82.1	82.1	29.735	0.00	0.000	0.269	82.9	72	72.9	88.9	30
09/02/01	3:00 a	77.7	78.1	77.3	87	73.5	0.0	---	0.00	0.0	77.7	81.9	81.9	29.726	0.00	0.000	0.265	82.8	72	72.8	88.6	30
09/02/01	3:30 a	77.5	77.9	77.1	87	73.3	0.0	---	0.00	0.0	77.5	81.6	81.6	29.717	0.00	0.000	0.260	82.6	72	72.7	88.2	30
09/02/01	4:00 a	77.1	77.5	76.6	87	72.9	0.0	---	0.00	0.0	77.1	80.9	80.9	29.707	0.00	0.000	0.252	82.4	72	72.5	87.7	30
09/02/01	4:30 a	76.7	77.1	76.3	88	72.9	0.0	---	0.00	0.0	76.7	80.4	80.4	29.705	0.00	0.000	0.244	82.2	72	72.3	87.2	30
09/02/01	5:00 a	76.3	76.7	75.8	88	72.5	0.0	---	0.00	0.0	76.3	79.8	79.8	29.694	0.00	0.000	0.235	81.9	72	72.0	86.6	30
09/02/01	5:30 a	75.9	76.4	75.6	89	72.4	0.0	---	0.00	0.0	75.9	79.3	79.3	29.703	0.00	0.000	0.227	81.6	72	71.7	86.0	30
09/02/01	6:00 a	75.7	76.1	75.3	90	72.6	0.0	---	0.00	0.0	75.7	79.2	79.2	29.713	0.00	0.000	0.223	81.4	72	71.5	85.6	30
09/02/01	6:30 a	75.5	75.9	75.0	90	72.4	0.0	---	0.00	0.0	75.5	78.9	78.9	29.721	0.00	0.000	0.219	81.2	72	71.3	85.2	30
09/02/01	7:00 a	75.2	75.6	74.8	90	72.1	0.0	---	0.00	0.0	75.2	78.6	78.6	29.722	0.00	0.000	0.212	81.0	72	71.1	84.8	30
09/02/01	7:30 a	75.0	75.4	74.6	91	72.2	0.0	---	0.00	0.0	75.0	78.5	78.5	29.733	0.00	0.000	0.208	80.6	81	74.2	85.9	30
09/02/01	8:00 a	75.4	76.0	74.8	92	72.9	0.0	---	0.00	0.0	75.4	79.0	79.0	29.737	0.00	0.000	0.217	80.3	84	75.0	86.0	30
09/02/01	8:30 a	76.5	77.7	75.7	93	74.3	0.0	---	0.00	0.0	76.5	80.6	80.6	29.741	0.00	0.000	0.240	80.7	84	75.4	86.9	30
09/02/01	9:00 a	78.2	79.2	77.3	91	75.4	0.0	---	0.00	0.0	78.2	83.3	83.3	29.740	0.00	0.000	0.275	81.7	87	77.5	90.3	30
09/02/01	9:30 a	80.4	82.5	78.8	84	75.1	0.0	SW	0.00	3.0	80.4	86.2	86.2	29.742	0.00	0.000	0.321	83.0	87	78.7	93.8	30
09/02/01	10:00 a	84.0	85.8	82.5	75	75.2	1.0	S	0.50	5.0	84.0	92.7	92.7	29.742	0.00	0.000	0.396	84.7	83	79.0	97.0	30
09/02/01	10:30 a	86.2	87.2	85.6	71	75.7	0.0	S	0.00	4.0	86.2	96.1	96.1	29.748	0.00	0.000	0.442	86.0	78	78.3	98.1	30
09/02/01	11:00 a	88.1	89.4	86.9	64	74.4	1.0	SSE	0.50	6.0	88.1	96.7	96.7	29.739	0.00	0.000	0.481	87.3	73	77.6	99.3	30
09/02/01	11:30 a	90.3	91.3	88.8	64	76.5	1.0	SE	0.50	6.0	90.3	103.0	103.0	29.727	0.00	0.000	0.527	88.8	71	78.2	102.2	30
09/02/01	12:00 p	90.6	91.4	90.0	67	78.1	2.0	ESE	1.00	12.0	90.6	105.8	105.8	29.718	0.00	0.000	0.533	89.9	72	79.7	106.9	30
09/02/01	12:30 p	92.0	93.0	90.1	63	77.6	3.0	ENE	1.50	16.0	92.0	107.1	107.1	29.714	0.00	0.000	0.563	91.0	70	79.8	109.0	30
09/02/01	1:00 p	93.3	95.0	91.7	59	76.8	4.0	ESE	2.00	15.0	93.3	108.0	108.0	29.705	0.00	0.000	0.590	91.9	68	79.8	110.5	30
09/02/01	1:30 p	94.5	95.6	93.4	57	76.9	3.0	ENE	1.50	11.0	94.5	110.1	110.1	29.698	0.00	0.000	0.615	92.5	65	79.0	110.1	30
09/02/01	2:00 p	94.1	94.6	93.6	59	77.6	3.0	E	1.50	11.0	94.1	110.3	110.3	29.694	0.00	0.000	0.606	93.3	64	79.3	111.8	30
09/02/01	2:30 p	94.1	95.0	93.4	60	78.1	3.0	ESE	1.50	13.0	94.1	111.0	111.0	29.679	0.00	0.000	0.606	94.5	64	80.4	115.8	30
09/02/01	3:00 p	93.6	94.6	92.6	60	77.6	4.0	ESE	2.00	15.0	93.6	109.5	109.5	29.661	0.00	0.000	0.596	95.6	63	81.0	118.7	30
09/02/01	3:30 p	94.5	95.5	93.4	61	79.0	4.0	ESE	2.00	16.0	94.5	113.1	113.1	29.648	0.00	0.000	0.615	96.2	62	81.1	119.8	30
09/02/01	4:00 p	92.9	93.8	92.2	63	78.4	4.0	SE	2.00	13.0	92.9	109.8	109.8	29.649	0.00	0.000	0.581	95.9	62	80.8	118.8	30
09/02/01	4:30 p	93.6	94.6	92.6	61	78.1	4.0	SE	2.00	14.0	93.6	110.3	110.3	29.639	0.00	0.000	0.596	95.6	63	81.0	118.7	30
09/02/01	5:00 p	93.3	94.4	92.5	63	78.8	3.0	SE	1.50	14.0	93.3	111.0	111.0	29.643	0.00	0.000	0.590	95.9	63	81.3	119.7	30
09/02/01	5:30 p	92.5	93.5	91.5	60	76.6	3.0	SE	1.50	12.0	92.5	106.3	106.3	29.646	0.00	0.000	0.573	95.3	62	80.2	116.7	30
09/02/01	6:00 p	92.5	93.4	91.9	64	78.5	3.0	ESE	1.50	12.0	92.5	109.4	109.4	29.636	0.00	0.000	0.573	94.9	63	80.3	116.2	30
09/02/01	6:30 p	90.9	92.2	90.1	66	78.0	2.0	SE	1.00	11.0	90.9	106.0	106.0	29.651	0.00	0.000	0.540	93.3	65	79.8	112.7	30
09/02/01	7:00 p	89.5	90.4	88.3	69	78.0	2.0	ESE	1.00	12.0	89.5	103.5	103.5	29.652	0.00	0.000	0.510	91.2	67	78.7	107.6	30
09/02/01	7:30 p	87.7	88.6	86.8	70	76.7	1.0	SE	0.50	6.0	87.7	98.5	98.5	29.664	0.00	0.000	0.473	90.2	68	78.2	105.2	30
09/02/01	8:00 p	86.3	87.1	85.5	73	76.6	1.0	SE	0.50	7.0	86.3	97.1	97.1	29.673	0.00	0.000	0.444	89.2	69	77.7	102.4	30
09/02/01	8:30 p	85.0	85.5	84.3	74	75.8	1.0	SE	0.50	7.0	85.0	94.3	94.3	29.684	0.00	0.000	0.417	88.3	70	77.3	100.0	30
09/02/01	9:00 p	84.2	84.7	83.7	75	75.4	0.0	ESE	0.00	4.0	84.2	93.1	93.1	29.700	0.00	0.000	0.400	87.8	71	77.2	99.2	30
09/02/01	9:30 p	83.6	84.1	83.0	76	75.2	0.0	SE	0.00	4.0	83.6	92.0	92.0	29.707	0.00	0.000	0.387	87.1	72	77.0	98.5	30
09/02/01	10:00 p	83.1	83.5	82.6	77	75.1	0.0	ESE	0.00	3.0	83.1	91.0	91.0	29.712	0.00	0.000	0.377	86.9	73	77.2	98.5	30
09/02/01	10:30 p	82.8	83.1	82.4	78	75.2	1.0	ESE	0.50	7.0	82.8	90.5	90.5	29.711	0.00	0.000	0.371	87.0	73	77.3	98.8	30
09/02/01	11:00 p	82.7	83.0	82.3	77	74.8	1.0	ESE	0.50	8.0	82.7	89.9	89.9	29.706	0.00	0.000	0.369	86.6	72	76.5	97.4	30
09/02/01	11:30 p	82.5	82.8	82.1	77	74.6	1.0	SE	0.50	7.0	82.5	89.4	89.4	29.707	0.00	0.000	0.365	86.3	72	76.2	96.7	30
09/03/01	12:00 a	82.3	82.7	81.8	78	74.7	0.0	SE	0.00	5.0	82.3	89.2	89.2	29.707	0.00	0.000	0.360	86.0	72	75.9	96.0	30
09/03/01	12:30 a	82.0	82.4	81.5	80	75.2	0.0	SE	0.00	6.0	82.0	88.9	88.9	29.714	0.00	0.000	0.354	85.8	74	76.5	96.2	30
09/03/01	1:00 a	81.7	82.1	81.2	79	74.5	0.0	SSE	0.00	2.0	81.7	87.9	87.9	29.712	0.00	0.000	0.348	85.5	73	75.9	95.1	30
09/03/01	1:30 a	81.1	81.7	80.6	78	73.6	0.0	SSE	0.00	1.0	81.1	86.3	86.3	29.706	0.00	0.000	0.335	85.2	73	75.6	94.4	30
09/03/01	2:00 a	80.6	81.2	79.8	80	73.9	0.0	---	0.00	0.0	80.6	85.7	85.7	29.698	0.00	0.000	0.325	84.9	73	75.3	93.7	30
09/03/01	2:30 a	79.6	80.4	78.9	82	73.6	0.0	---	0.00	0.0	79.6	84.2	84.2	29.688	0.00	0.000	0.304	84.4	73	74.8	92.8	30
09/03/01	3:00 a	78.8	79.5	78.1	84	73.6	0.0	---	0.00	0.0	78.8	83.2	83.2	29.682	0.00	0.000	0.288	84.0	74	74.8	92.3	30
09/03/01	3:30 a	78.1	78.8	77.5	86	73.6	0.0	---	0.00	0.0	78.1	82.4	82.4	29.671	0.00	0.000	0.273	83.6	75	74.8	91.7	30
09/03/01	4:00 a	77.7	78.2	77.2	87	73.5	0.0	---	0.00	0.0	77.7	81.9	81.9	29.664	0.00	0.000	0.265	83.2	76	74.8	90.9	30
09/03/01	4:30 a	77.4	77.8	76.9	87	73.2	0.0	---	0.00	0.0	77.4	81.4	81.4	29.665	0.00	0.000	0.258	83.0	76	74.6	90.4	30
09/03/01	5:00 a	77.4	77.8	77.1	88	73.6	0.0	---	0.00	0.0	77.4	81.5	81.5	29.666	0.00	0.000	0.258	82.8	77	74.8	90.2	30
09/03/01	5:30 a	77.3	77.8	76.9	88	73.5	0.0	---	0.00	0.0	77.3	81.3	81.3	29.671	0.00	0.000	0.256	82.6	78	75.0	90.0	30
09/03/01	6:00 a	76.9	77.5	76.4	89	73.4	0.0	---	0.00	0.0	76.9	80.8	80.8	29.677	0.00	0.000	0.248	82.4	78	74.8	89.4	30
09/03/01	6:30 a	76.4	76.9	75.9	89	72.9	0.0	---	0.00	0.0	76.4	80.0	80.0	29.687	0.00	0.000	0.238	81.9	80	75.1	88.7	30
09/03/01	7:00 a	76.1	76.6	75.7	90	73.0	0.0	---	0.00	0.0	76.1	79.6	79.6	29.687	0.00	0.000	0.231	81.1	82	75.1	87.3	30
09/03/01	7:30 a	75.9	76.4	75.5	90	72.8	0.0	---	0.00	0.0	75.9	79.4	79.4	29.705	0.00	0.000	0.227	80.7	82	74.7	86.4	30
09/03/01	8:00 a	76.0	76.7	75.5	91	73.2	0.0	---	0.00	0.0	76.0	79.6	79.6	29.719	0.00	0.000	0.229	80.9	84	75.6	87.3	30
09/03/01	8:30 a	76.8	77.6	75.9	91	74.0	0.0	---	0.00	0.0	76.8	80.8	80.8	29.723	0.00	0.000	0.246	81.5	84	76.2	88.8	30
09/03/01	9:00 a	78.4	79.8	77.2	88	74.5	0.0	---	0.00	0.0	78.4	83.2	83.2	29.721	0.00	0.000	0.279	82.6	85	77.6	92.0	30
09/03/01	9:30 a	81.1	83.4	79.3	80	74.3	0.0	SSE	0.00	2.0	81.1	86.7	86.7	29.726	0.00	0.000	0.335	84.1	84	78.7	96.0	30
09/03/01	10:00 a	84.0	85.3	82.9	76	75.6	0.0	SSE	0.00	4.0	84.0	93.1	93.1	29.726	0.00	0.000	0.396	85.5	81	79.0	98.0	30
09/03/01	10:30 a	85.7	87.0	84.5	79	78.4	1.0	SW	0.50	9.0	85.7	97.7	97.7	29.734	0.12	0.000	0.431	86.9	80	80.0	101.8	30
09/03/01	11:00 a	84.2	85.0	83.3	79	77.0	1.0	SW	0.50	9.0	84.2	94.5	94.5	29.730	0.01	0.000	0.400	86.5	84	81.1	102.7	30
09/03/01	11:30 a	84.6	85.3	84.1	78	77.0	0.0	ESE	0.00	5.0	84.6	94.9	94.9	29.724	0.00	0.000	0.408	86.4	83	80.6	101.8	30
09/03/01	12:00 p	86.0	87.1	84.8	75	77.1	1.0	NE	0.50	6.0	86.0	97.0	97.0	29.715	0.00	0.000	0.438	87.6	81	81.0	104.2	30
09/03/01	12:30 p	88.0	89.3	86.6	71	77.4	2.0	NE	1.00	10.0	88.0	99.5	99.5	29.702	0.00	0.000	0.479	89.9	77	81.7	110.6	30
09/03/01	1:00 p	89.5	90.0	88.7	69	78.0	3.0	NE	1.50	11.0	89.5	103.5	103.5	29.691	0.00	0.000	0.510	92.2	73	82.3	116.5	30
09/03/01	1:30 p	90.3	91.4	89.2	65	76.9	3.0	NE	1.50	10.0	90.3	103.6	103.6	29.704	0.00	0.000	0.527	93.5	70	82.2	117.6	30
09/03/01	2:00 p	87.6	89.6	86.2	67	75.3	2.0	SSW	1.00	10.0	87.6	97.2	97.2	29.688	0.00	0.000	0.471	92.5	64	78.5	109.4	30
09/03/01	2:30 p	87.5	89.3	86.2	65	74.3	0.0	SSW	0.00	3.0	87.5	96.2	96.2	29.670	0.00	0.000	0.469	91.3	66	78.3	107.2	30
09/03/01	3:00 p	90.8	93.2	89.1	57	73.5	0.0	S	0.00	8.0	90.8	100.3	100.3	29.656	0.00	0.000	0.538	92.4	63	78.0	108.3	30
09/03/01	3:30 p	92.0	94.1	90.3	65	78.5	2.0	ENE	1.00	9.0	92.0	108.6	108.6	29.639	0.00	0.000	0.563	92.8	66	79.8	111.9	30
09/03/01	4:00 p	89.9	90.7	89.3	66	77.0	2.0	ENE	1.00	10.0	89.9	103.1	103.1	29.642	0.00	0.000	0.519	92.2	66	79.2	110.0	30
09/03/01	4:30 p	89.2	90.0	88.8	68	77.3	2.0	ENE	1.00	12.0	89.2	101.9	101.9	29.633	0.00	0.000	0.504	91.5	67	79.0	108.5	30
09/03/01	5:00 p	90.5	91.3	89.2	66	77.6	4.0	ESE	2.00	13.0	90.5	104.8	104.8	29.633	0.00	0.000	0.531	91.7	68	79.6	109.9	30
09/03/01	5:30 p	90.0	90.9	89.1	68	78.0	3.0	ENE	1.50	13.0	90.0	104.6	104.6	29.629	0.00	0.000	0.521	91.7	68	79.6	109.9	30
09/03/01	6:00 p	89.9	90.7	89.0	70	78.8	3.0	ESE	1.50	12.0	89.9	105.5	105.5	29.627	0.00	0.000	0.519	91.3	69	79.7	109.3	30
09/03/01	6:30 p	88.4	89.3	87.7	72	78.2	2.0	E	1.00	12.0	88.4	101.4	101.4	29.629	0.00	0.000	0.488	90.7	71	80.0	108.9	30
09/03/01	7:00 p	87.9	88.5	87.2	72	77.7	3.0	ESE	1.50	11.0	87.9	99.8	99.8	29.644	0.00	0.000	0.477	90.0	70	78.9	105.8	30
09/03/01	7:30 p	87.0	87.7	86.2	73	77.3	1.0	ESE	0.50	7.0	87.0	98.8	98.8	29.651	0.00	0.000	0.458	89.4	71	78.8	104.4	30
09/03/01	8:00 p	85.8	86.7	84.9	76	77.4	1.0	ESE	0.50	8.0	85.8	96.9	96.9	29.659	0.00	0.000	0.433	88.8	73	79.0	103.5	30
09/03/01	8:30 p	84.6	85.4	83.9	80	77.7	1.0	ESE	0.50	8.0	84.6	95.6	95.6	29.664	0.00	0.000	0.408	88.3	74	79.0	102.1	30
09/03/01	9:00 p	83.8	84.4	83.2	78	76.2	2.0	SE	1.00	8.0	83.8	93.2	93.2	29.679	0.00	0.000	0.392	88.0	73	78.3	100.4	30
09/03/01	9:30 p	83.2	83.8	82.7	80	76.4	1.0	SE	0.50	8.0	83.2	92.3	92.3	29.696	0.00	0.000	0.379	87.4	74	78.1	99.9	30
09/03/01	10:00 p	82.7	83.3	82.1	81	76.3	0.0	S	0.00	4.0	82.7	91.1	91.1	29.702	0.00	0.000	0.369	87.0	74	77.7	99.2	30
09/03/01	10:30 p	82.2	82.8	81.5	82	76.2	0.0	---	0.00	0.0	82.2	90.1	90.1	29.704	0.00	0.000	0.358	86.5	75	77.6	98.3	30
09/03/01	11:00 p	81.6	82.0	81.0	84	76.3	0.0	---	0.00	0.0	81.6	89.1	89.1	29.716	0.00	0.000	0.346	86.1	76	77.6	97.6	30
09/03/01	11:30 p	81.1	81.5	80.5	85	76.2	0.0	---	0.00	0.0	81.1	88.1	88.1	29.720	0.00	0.000	0.335	85.7	77	77.7	97.0	30
09/04/01	12:00 a	80.6	81.1	80.0	85	75.7	0.0	S	0.00	1.0	80.6	86.9	86.9	29.711	0.00	0.000	0.325	85.4	77	77.4	96.3	30
09/04/01	12:30 a	80.0	80.7	79.4	86	75.4	0.0	SSW	0.00	2.0	80.0	85.8	85.8	29.713	0.00	0.000	0.313	85.0	77	77.0	95.3	30
09/04/01	1:00 a	79.5	80.1	78.9	87	75.3	0.0	SSW	0.00	2.0	79.5	85.1	85.1	29.711	0.00	0.000	0.302	84.7	78	77.1	95.1	30
09/04/01	1:30 a	79.0	79.6	78.5	87	74.8	0.0	---	0.00	1.0	79.0	84.1	84.1	29.703	0.00	0.000	0.292	84.3	78	76.7	94.4	30
09/04/01	2:00 a	78.5	79.2	78.0	89	75.0	0.0	---	0.00	0.0	78.5	83.6	83.6	29.695	0.00	0.000	0.281	84.0	78	76.4	93.8	30
09/04/01	2:30 a	78.1	78.6	77.6	89	74.6	0.0	---	0.00	0.0	78.1	82.8	82.8	29.688	0.00	0.000	0.273	83.6	78	76.0	92.7	30
09/04/01	3:00 a	77.7	78.3	77.0	90	74.5	0.0	SSW	0.00	1.0	77.7	82.3	82.3	29.684	0.00	0.000	0.265	83.3	79	76.1	92.2	30
09/04/01	3:30 a	77.3	77.8	76.8	90	74.1	0.0	---	0.00	0.0	77.3	81.5	81.5	29.679	0.00	0.000	0.256	83.0	79	75.8	91.4	30
09/04/01	4:00 a	77.0	77.6	76.5	90	73.8	0.0	---	0.00	0.0	77.0	81.0	81.0	29.675	0.00	0.000	0.250	82.7	79	75.5	90.6	30
09/04/01	4:30 a	76.7	77.3	76.2	90	73.5	0.0	---	0.00	0.0	76.7	80.5	80.5	29.677	0.00	0.000	0.244	82.5	77	74.6	89.4	30
09/04/01	5:00 a	76.3	77.0	75.8	90	73.1	0.0	---	0.00	0.0	76.3	80.0	80.0	29.674	0.00	0.000	0.235	82.4	79	75.2	89.7	30
09/04/01	5:30 a	76.1	76.6	75.5	90	73.0	0.0	---	0.00	0.0	76.1	79.6	79.6	29.676	0.00	0.000	0.231	82.2	79	75.0	89.2	30
09/04/01	6:00 a	75.6	76.1	75.1	91	72.8	0.0	---	0.00	0.0	75.6	79.1	79.1	29.688	0.00	0.000	0.221	81.7	80	74.9	88.2	30
09/04/01	6:30 a	75.4	75.9	74.8	91	72.6	0.0	---	0.00	0.0	75.4	78.9	78.9	29.698	0.00	0.000	0.217	81.2	81	74.8	87.2	30
09/04/01	7:00 a	75.1	75.6	74.6	91	72.3	0.0	---	0.00	0.0	75.1	78.6	78.6	29.713	0.00	0.000	0.210	80.6	82	74.6	86.2	30
09/04/01	7:30 a	74.9	75.4	74.5	91	72.1	0.0	---	0.00	0.0	74.9	78.3	78.3	29.724	0.00	0.000	0.206	80.5	83	74.9	86.2	30
09/04/01	8:00 a	75.3	76.1	74.6	92	72.8	0.0	---	0.00	0.0	75.3	78.9	78.9	29.732	0.00	0.000	0.215	80.4	84	75.1	86.2	30
09/04/01	8:30 a	76.6	77.7	75.5	90	73.4	0.0	SSW	0.00	1.0	76.6	80.4	80.4	29.735	0.00	0.000	0.242	81.1	85	76.2	88.1	30
09/04/01	9:00 a	78.2	79.2	77.1	86	73.7	0.0	SSW	0.00	2.0	78.2	82.6	82.6	29.739	0.00	0.000	0.275	82.2	83	76.5	90.3	30
09/04/01	9:30 a	79.8	80.9	78.6	83	74.2	0.0	---	0.00	0.0	79.8	84.8	84.8	29.743	0.00	0.000	0.308	83.0	83	77.3	92.5	30
09/04/01	10:00 a	81.5	82.9	80.4	80	74.7	0.0	---	0.00	0.0	81.5	87.7	87.7	29.746	0.00	0.000	0.344	84.0	83	78.3	95.5	30
09/04/01	10:30 a	83.0	83.7	82.1	80	76.2	0.0	---	0.00	0.0	83.0	91.7	91.7	29.757	0.00	0.000	0.375	84.9	82	78.8	97.0	30
09/04/01	11:00 a	84.2	86.0	83.0	75	75.4	0.0	ESE	0.00	3.0	84.2	93.1	93.1	29.754	0.00	0.000	0.400	85.7	81	79.2	98.5	30
09/04/01	11:30 a	87.5	90.0	85.3	67	75.2	1.0	SSE	0.50	7.0	87.5	97.0	97.0	29.751	0.00	0.000	0.469	87.4	76	78.9	100.9	30
09/04/01	12:00 p	90.0	91.1	88.9	68	78.0	1.0	SSE	0.50	7.0	90.0	104.6	104.6	29.741	0.00	0.000	0.521	89.3	76	80.7	107.4	30
09/04/01	12:30 p	90.2	91.2	89.1	67	77.8	2.0	ENE	1.00	10.0	90.2	104.6	104.6	29.732	0.00	0.000	0.525	90.4	74	81.0	110.2	30
09/04/01	1:00 p	91.1	91.8	90.5	66	78.2	2.0	NE	1.00	10.0	91.1	106.6	106.6	29.719	0.00	0.000	0.544	91.7	71	81.0	112.3	30
09/04/01	1:30 p	91.6	92.5	90.6	67	79.1	4.0	ESE	2.00	14.0	91.6	108.8	108.8	29.713	0.00	0.000	0.554	92.1	69	80.5	111.9	30
09/04/01	2:00 p	90.4	91.3	89.6	67	77.9	3.0	ESE	1.50	15.0	90.4	105.2	105.2	29.702	0.00	0.000	0.529	90.6	69	79.0	107.1	30
09/04/01	2:30 p	89.5	89.9	89.0	69	78.0	2.0	SE	1.00	8.0	89.5	103.5	103.5	29.707	0.00	0.000	0.510	89.8	71	79.1	105.8	30
09/04/01	3:00 p	89.1	89.7	88.3	70	78.0	0.0	SE	0.00	6.0	89.1	102.6	102.6	29.704	0.00	0.000	0.502	89.8	71	79.1	105.8	30
09/04/01	3:30 p	87.8	88.9	86.8	70	76.8	0.0	SW	0.00	3.0	87.8	98.7	98.7	29.685	0.00	0.000	0.475	89.6	69	78.1	103.8	30
09/04/01	4:00 p	85.8	87.3	84.8	74	76.5	0.0	SW	0.00	2.0	85.8	96.2	96.2	29.667	0.00	0.000	0.433	89.5	69	78.0	103.5	30
09/04/01	4:30 p	85.5	86.0	85.1	77	77.5	1.0	SE	0.50	7.0	85.5	96.5	96.5	29.667	0.00	0.000	0.427	89.2	72	79.0	104.3	30
09/04/01	5:00 p	85.5	85.9	85.0	78	77.9	1.0	SE	0.50	9.0	85.5	96.9	96.9	29.660	0.00	0.000	0.427	89.1	73	79.3	104.6	30
09/04/01	5:30 p	85.8	86.7	85.2	76	77.4	2.0	ESE	1.00	11.0	85.8	96.9	96.9	29.648	0.00	0.000	0.433	89.1	74	79.7	105.2	30
09/04/01	6:00 p	87.5	88.5	86.3	73	77.8	3.0	ESE	1.50	14.0	87.5	99.6	99.6	29.653	0.00	0.000	0.469	89.6	74	80.2	107.2	30
09/04/01	6:30 p	87.1	88.0	86.4	75	78.2	2.0	ESE	1.00	15.0	87.1	99.8	99.8	29.943	0.00	0.000	0.460	89.2	74	79.8	105.6	30
09/04/01	7:00 p	86.1	86.8	85.4	76	77.6	1.0	SE	0.50	7.0	86.1	97.6	97.6	29.964	0.00	0.000	0.440	88.4	74	79.1	102.5	30
09/04/01	7:30 p	84.9	85.6	84.0	79	77.7	0.0	SSE	0.00	5.0	84.9	95.9	95.9	29.971	0.00	0.000	0.415	87.8	75	78.9	101.0	30
09/04/01	8:00 p	83.7	84.4	83.0	80	76.9	0.0	E	0.00	3.0	83.7	93.7	93.7	29.969	0.00	0.000	0.390	87.2	77	79.1	101.0	30
09/04/01	8:30 p	82.9	83.6	82.3	82	76.8	0.0	SE	0.00	2.0	82.9	92.0	92.0	29.985	0.00	0.000	0.373	86.7	78	79.0	100.2	30
09/04/01	9:00 p	82.1	82.8	81.3	84	76.8	0.0	---	0.00	0.0	82.1	90.4	90.4	29.992	0.00	0.000	0.356	86.3	78	78.6	99.0	30
09/04/01	9:30 p	81.2	81.9	80.6	86	76.6	0.0	---	0.00	0.0	81.2	88.6	88.6	29.993	0.00	0.000	0.337	85.9	79	78.6	98.2	30
09/04/01	10:00 p	80.5	81.1	80.0	86	75.9	0.0	---	0.00	0.0	80.5	87.0	87.0	30.004	0.00	0.000	0.323	85.3	79	78.0	96.8	30
09/04/01	10:30 p	80.1	80.5	79.6	87	75.9	0.0	---	0.00	0.0	80.1	86.3	86.3	29.997	0.00	0.000	0.315	84.8	79	77.6	95.7	30
09/04/01	11:00 p	79.8	80.2	79.3	87	75.6	0.0	---	0.00	0.0	79.8	85.7	85.7	30.012	0.00	0.000	0.308	84.5	79	77.3	95.1	30
09/04/01	11:30 p	79.4	79.9	79.0	88	75.5	0.0	---	0.00	0.0	79.4	85.1	85.1	30.020	0.00	0.000	0.300	84.1	80	77.3	94.7	30
09/05/01	12:00 a	79.2	79.7	78.8	89	75.7	0.0	---	0.00	0.0	79.2	84.9	84.9	30.017	0.00	0.000	0.296	83.9	80	77.1	94.2	30
09/05/01	12:30 a	79.0	79.4	78.5	89	75.5	0.0	---	0.00	0.0	79.0	84.5	84.5	30.022	0.00	0.000	0.292	83.6	81	77.1	93.7	30
09/05/01	1:00 a	78.6	79.1	78.2	90	75.4	0.0	SE	0.00	1.0	78.6	83.9	83.9	30.022	0.00	0.000	0.283	83.4	81	77.0	93.1	30
09/05/01	1:30 a	78.2	78.7	77.7	90	75.0	0.0	---	0.00	0.0	78.2	83.2	83.2	30.015	0.00	0.000	0.275	83.1	82	77.0	92.5	30
09/05/01	2:00 a	77.9	78.4	77.4	91	75.1	0.0	SE	0.00	1.0	77.9	82.7	82.7	30.021	0.00	0.000	0.269	82.8	82	76.7	91.7	30
09/05/01	2:30 a	77.7	78.1	77.3	92	75.2	0.0	SE	0.00	1.0	77.7	82.5	82.5	30.019	0.00	0.000	0.265	82.6	83	76.9	91.4	30
09/05/01	3:00 a	77.7	78.1	77.3	92	75.2	0.0	---	0.00	0.0	77.7	82.5	82.5	30.009	0.00	0.000	0.265	82.4	83	76.7	90.9	30
09/05/01	3:30 a	77.8	78.2	77.3	93	75.6	0.0	---	0.00	0.0	77.8	82.8	82.8	30.003	0.00	0.000	0.267	82.3	84	77.0	90.9	30
09/05/01	4:00 a	77.6	78.2	77.2	93	75.4	0.0	---	0.00	0.0	77.6	82.4	82.4	29.995	0.00	0.000	0.262	82.3	84	77.0	90.9	30
09/05/01	4:30 a	77.5	77.9	77.0	92	75.0	0.0	---	0.00	0.0	77.5	82.1	82.1	29.995	0.00	0.000	0.260	82.0	84	76.7	90.1	30
09/05/01	5:00 a	77.3	77.7	76.8	93	75.1	0.0	---	0.00	1.0	77.3	81.9	81.9	29.994	0.00	0.000	0.256	81.9	85	76.9	90.1	30
09/05/01	5:30 a	77.0	77.5	76.5	93	74.8	0.0	---	0.00	0.0	77.0	81.3	81.3	30.001	0.00	0.000	0.250	81.9	85	76.9	90.1	30
09/05/01	6:00 a	76.8	77.3	76.4	93	74.6	0.0	---	0.00	0.0	76.8	81.0	81.0	30.010	0.00	0.000	0.246	81.8	85	76.8	89.9	30
09/05/01	6:30 a	76.5	77.0	76.1	94	74.6	0.0	---	0.00	0.0	76.5	80.7	80.7	30.024	0.00	0.000	0.240	81.5	86	76.9	89.4	30
09/05/01	7:00 a	76.3	76.8	75.9	93	74.1	0.0	---	0.00	0.0	76.3	80.3	80.3	30.027	0.00	0.000	0.235	81.1	88	77.2	88.9	30
09/05/01	7:30 a	76.2	76.6	75.7	94	74.3	0.0	---	0.00	0.0	76.2	80.2	80.2	30.034	0.00	0.000	0.233	80.6	88	76.7	87.7	30
09/05/01	8:00 a	76.1	76.4	75.6	94	74.2	0.0	---	0.00	0.0	76.1	80.1	80.1	30.040	0.00	0.000	0.231	80.4	89	76.9	87.5	30
09/05/01	8:30 a	76.6	77.5	75.9	95	75.1	0.0	---	0.00	0.0	76.6	80.9	80.9	30.045	0.00	0.000	0.242	80.6	90	77.4	88.2	30
09/05/01	9:00 a	78.4	79.9	77.2	91	75.6	0.0	SE	0.00	1.0	78.4	83.7	83.7	30.049	0.00	0.000	0.279	81.8	91	78.9	91.9	30
09/05/01	9:30 a	81.2	83.1	79.5	83	75.5	0.0	SW	0.00	3.0	81.2	87.8	87.8	30.057	0.00	0.000	0.337	83.5	89	79.9	96.0	30
09/05/01	10:00 a	84.6	86.3	82.6	76	76.2	0.0	SW	0.00	5.0	84.6	94.2	94.2	30.049	0.00	0.000	0.408	85.4	86	80.7	100.1	30
09/05/01	10:30 a	86.9	87.6	85.9	73	77.2	0.0	S	0.00	6.0	86.9	98.5	98.5	30.049	0.00	0.000	0.456	87.2	82	81.0	103.9	30
09/05/01	11:00 a	88.8	89.5	87.3	70	77.7	0.0	SSE	0.00	4.0	88.8	101.6	101.6	30.056	0.00	0.000	0.496	88.6	78	80.9	105.9	30
09/05/01	11:30 a	89.0	89.6	88.2	64	75.2	0.0	S	0.00	7.0	89.0	99.1	99.1	30.051	0.00	0.000	0.500	89.1	74	79.7	105.2	30
09/05/01	12:00 p	89.3	90.2	88.2	73	79.5	1.0	ESE	0.50	9.0	89.3	105.3	105.3	30.047	0.00	0.000	0.506	89.7	76	81.1	109.0	30
09/05/01	12:30 p	90.4	91.6	88.5	67	77.9	2.0	ENE	1.00	12.0	90.4	105.2	105.2	30.039	0.00	0.000	0.529	90.7	75	81.7	112.2	30
09/05/01	1:00 p	91.4	92.4	89.3	69	79.8	3.0	ENE	1.50	14.0	91.4	109.6	109.6	30.032	0.00	0.000	0.550	92.1	72	81.8	114.9	30
09/05/01	1:30 p	88.1	89.6	86.7	72	77.9	2.0	ENE	1.00	14.0	88.1	100.3	100.3	30.036	0.00	0.000	0.481	92.1	69	80.5	111.9	30
09/05/01	2:00 p	86.0	87.2	84.8	73	76.3	1.0	NW	0.50	5.0	86.0	96.3	96.3	30.043	0.00	0.000	0.438	90.4	67	77.9	105.2	30
09/05/01	2:30 p	83.9	85.0	82.2	76	75.5	2.0	SSW	1.00	9.0	83.9	92.8	92.8	30.031	0.00	0.000	0.394	88.7	66	75.9	99.3	30
09/05/01	3:00 p	81.2	82.2	80.4	82	75.2	0.0	S	0.00	2.0	81.2	87.5	87.5	30.020	0.01	0.000	0.337	86.9	72	76.8	98.1	30
09/05/01	3:30 p	80.1	80.8	79.4	88	76.2	0.0	---	0.00	0.0	80.1	86.6	86.6	30.016	0.01	0.000	0.315	85.6	77	77.6	96.8	30
09/05/01	4:00 p	80.0	80.5	79.6	90	76.8	0.0	S	0.00	1.0	80.0	86.8	86.8	29.998	0.02	0.000	0.313	85.0	81	78.5	96.8	30
09/05/01	4:30 p	80.3	81.0	79.8	92	77.8	0.0	---	0.00	1.0	80.3	88.1	88.1	30.008	0.01	0.000	0.319	84.8	84	79.4	97.6	30
09/05/01	5:00 p	81.0	81.5	80.4	92	78.5	0.0	E	0.00	2.0	81.0	89.8	89.8	29.999	0.00	0.000	0.333	85.1	87	80.8	99.7	30
09/05/01	5:30 p	81.3	81.7	80.9	93	79.1	0.0	---	0.00	1.0	81.3	91.0	91.0	29.995	0.00	0.000	0.340	85.2	88	81.2	100.6	30
09/05/01	6:00 p	81.4	81.8	81.0	94	79.5	0.0	E	0.00	1.0	81.4	91.7	91.7	29.991	0.02	0.000	0.342	85.1	90	81.8	101.3	30
09/05/01	6:30 p	81.4	81.8	81.0	93	79.2	0.0	---	0.00	1.0	81.4	91.3	91.3	30.010	0.00	0.000	0.342	84.9	91	82.0	101.2	30
09/05/01	7:00 p	81.3	81.7	80.8	94	79.4	0.0	E	0.00	1.0	81.3	91.3	91.3	30.009	0.00	0.000	0.340	84.8	91	81.9	100.9	30
09/05/01	7:30 p	80.9	81.4	80.3	94	79.0	0.0	---	0.00	0.0	80.9	90.1	90.1	30.015	0.00	0.000	0.331	84.5	91	81.6	100.0	30
09/05/01	8:00 p	80.5	81.0	80.0	94	78.6	0.0	E	0.00	4.0	80.5	89.1	89.1	30.022	0.00	0.000	0.323	84.2	91	81.3	99.1	30
09/05/01	8:30 p	80.3	80.7	79.8	94	78.4	0.0	---	0.00	1.0	80.3	88.6	88.6	30.038	0.00	0.000	0.319	83.9	92	81.3	98.7	30
09/05/01	9:00 p	80.1	80.6	79.7	95	78.5	0.0	---	0.00	0.0	80.1	88.4	88.4	30.042	0.00	0.000	0.315	83.7	93	81.5	98.5	30
09/05/01	9:30 p	79.9	80.3	79.4	95	78.3	0.0	---	0.00	0.0	79.9	87.9	87.9	30.043	0.00	0.000	0.310	83.6	93	81.4	98.2	30
09/05/01	10:00 p	79.7	80.2	79.2	95	78.1	0.0	---	0.00	1.0	79.7	87.4	87.4	30.054	0.00	0.000	0.306	83.4	93	81.2	97.6	30
09/05/01	10:30 p	79.4	79.9	78.9	96	78.2	0.0	---	0.00	0.0	79.4	87.0	87.0	30.055	0.00	0.000	0.300	83.5	92	80.9	97.4	30
09/05/01	11:00 p	79.2	79.7	78.7	96	78.0	0.0	---	0.00	0.0	79.2	86.5	86.5	30.072	0.00	0.000	0.296	83.6	91	80.7	97.2	30
09/05/01	11:30 p	79.1	79.6	78.7	96	77.9	0.0	---	0.00	0.0	79.1	86.2	86.2	30.068	0.00	0.000	0.294	83.6	90	80.4	96.7	30
09/06/01	12:00 a	78.9	79.4	78.2	92	76.4	1.0	SSW	0.50	9.0	78.9	84.9	84.9	30.083	0.00	0.000	0.290	83.4	89	79.8	95.7	30
09/06/01	12:30 a	78.0	78.6	77.4	91	75.2	2.0	SSW	1.00	7.0	78.0	82.9	82.9	30.077	0.00	0.000	0.271	83.0	86	78.4	93.4	30
09/06/01	1:00 a	77.4	78.0	76.9	93	75.2	1.0	SSW	0.50	5.0	77.4	82.0	82.0	30.073	0.00	0.000	0.258	82.7	86	78.1	92.6	30
09/06/01	1:30 a	77.1	77.6	76.6	93	74.9	0.0	SSW	0.00	2.0	77.1	81.5	81.5	30.057	0.00	0.000	0.252	82.4	86	77.8	91.8	30
09/06/01	2:00 a	76.8	77.3	76.3	93	74.6	0.0	---	0.00	0.0	76.8	81.0	81.0	30.054	0.00	0.000	0.246	82.2	85	77.2	90.9	30
09/06/01	2:30 a	76.4	76.8	75.9	93	74.2	0.0	---	0.00	0.0	76.4	80.4	80.4	30.050	0.00	0.000	0.238	81.9	85	76.9	90.1	30
09/06/01	3:00 a	75.9	76.3	75.4	93	73.7	0.0	---	0.00	0.0	75.9	79.7	79.7	30.041	0.00	0.000	0.227	81.6	85	76.6	89.4	30
09/06/01	3:30 a	75.6	76.1	75.1	94	73.8	0.0	---	0.00	1.0	75.6	79.4	79.4	30.043	0.00	0.000	0.221	81.3	85	76.4	88.6	30
09/06/01	4:00 a	75.3	75.7	74.9	94	73.5	0.0	---	0.00	0.0	75.3	79.0	79.0	30.040	0.00	0.000	0.215	81.1	85	76.2	88.1	30
09/06/01	4:30 a	75.2	75.7	74.9	95	73.7	0.0	---	0.00	0.0	75.2	79.0	79.0	30.043	0.00	0.000	0.212	80.9	85	76.0	87.6	30
09/06/01	5:00 a	75.2	75.6	74.8	95	73.7	0.0	---	0.00	0.0	75.2	79.0	79.0	30.048	0.00	0.000	0.212	80.7	86	76.1	87.4	30
09/06/01	5:30 a	75.2	75.8	74.8	96	74.0	0.0	---	0.00	0.0	75.2	79.0	79.0	30.053	0.00	0.000	0.212	80.6	87	76.4	87.4	30
09/06/01	6:00 a	75.5	76.0	75.0	96	74.3	0.0	---	0.00	0.0	75.5	79.4	79.4	30.062	0.00	0.000	0.219	80.8	88	76.9	88.2	30
09/06/01	6:30 a	75.6	76.0	75.1	96	74.4	0.0	---	0.00	0.0	75.6	79.5	79.5	30.065	0.00	0.000	0.221	80.6	88	76.7	87.7	30
09/06/01	7:00 a	75.5	75.9	75.0	96	74.3	0.0	---	0.00	0.0	75.5	79.4	79.4	30.071	0.00	0.000	0.219	80.7	87	76.5	87.7	30
09/06/01	7:30 a	75.5	75.9	75.0	96	74.3	0.0	---	0.00	0.0	75.5	79.4	79.4	30.083	0.00	0.000	0.219	80.5	88	76.6	87.5	30
09/06/01	8:00 a	75.6	76.3	75.1	96	74.4	0.0	---	0.00	0.0	75.6	79.5	79.5	30.087	0.00	0.000	0.221	80.5	89	77.0	87.7	30
09/06/01	8:30 a	76.2	77.0	75.4	97	75.3	0.0	---	0.00	0.0	76.2	80.5	80.5	30.096	0.00	0.000	0.233	80.5	91	77.6	88.3	30
09/06/01	9:00 a	77.3	78.4	76.4	97	76.4	0.0	---	0.00	0.0	77.3	82.4	82.4	30.107	0.00	0.000	0.256	80.8	92	78.3	89.3	30
09/06/01	9:30 a	78.9	80.0	77.7	94	77.0	0.0	---	0.00	0.0	78.9	85.4	85.4	30.101	0.00	0.000	0.290	81.4	92	78.9	91.0	30
09/06/01	10:00 a	81.2	82.1	79.4	89	77.6	0.0	N	0.00	3.0	81.2	89.5	89.5	30.109	0.00	0.000	0.337	82.2	92	79.6	93.4	30
09/06/01	10:30 a	81.7	82.4	81.1	82	75.7	1.0	E	0.50	7.0	81.7	88.8	88.8	30.114	0.00	0.000	0.348	82.9	91	80.0	95.0	30
09/06/01	11:00 a	81.7	82.9	81.1	74	72.6	0.0	ESE	0.00	8.0	81.7	86.6	86.6	30.110	0.00	0.000	0.348	83.2	86	78.6	94.0	30
09/06/01	11:30 a	84.3	86.6	82.2	72	74.3	1.0	ESE	0.50	9.0	84.3	92.2	92.2	30.103	0.01	0.000	0.402	84.6	84	79.2	97.1	30
09/06/01	12:00 p	87.9	90.0	85.9	64	74.2	1.0	ESE	0.50	9.0	87.9	96.3	96.3	30.089	0.00	0.000	0.477	87.0	76	78.5	100.1	30
09/06/01	12:30 p	90.0	91.0	89.2	71	79.3	2.0	ESE	1.00	13.0	90.0	106.5	106.5	30.076	0.00	0.000	0.521	89.0	77	80.8	107.0	30
09/06/01	1:00 p	90.2	91.3	89.5	69	78.6	4.0	ESE	2.00	18.0	90.2	105.8	105.8	30.066	0.00	0.000	0.525	89.9	76	81.3	109.8	30
09/06/01	1:30 p	91.2	92.1	90.5	70	80.0	3.0	ESE	1.50	14.0	91.2	109.7	109.7	30.048	0.00	0.000	0.546	90.6	74	81.2	111.0	30
09/06/01	2:00 p	91.1	92.0	90.4	67	78.6	3.0	ESE	1.50	16.0	91.1	107.3	107.3	30.041	0.00	0.000	0.544	90.9	73	81.0	111.3	30
09/06/01	2:30 p	92.2	93.3	91.0	64	78.3	5.0	ESE	2.50	17.0	92.2	108.5	108.5	30.036	0.00	0.000	0.567	91.0	71	80.3	109.9	30
09/06/01	3:00 p	91.9	93.9	89.6	69	80.3	3.0	E	1.50	16.0	91.9	111.2	111.2	30.024	0.00	0.000	0.560	91.1	70	79.9	109.3	30
09/06/01	3:30 p	88.8	90.1	87.4	71	78.2	3.0	ESE	1.50	19.0	88.8	102.2	102.2	30.019	0.00	0.000	0.496	90.0	71	79.3	106.5	30
09/06/01	4:00 p	86.5	87.7	85.6	73	76.8	3.0	ESE	1.50	11.0	86.5	97.5	97.5	30.019	0.00	0.000	0.448	88.7	72	78.5	102.5	30
09/06/01	4:30 p	85.1	86.2	84.2	76	76.7	2.0	ESE	1.00	11.0	85.1	95.2	95.2	30.017	0.00	0.000	0.419	87.6	73	77.9	99.8	30
09/06/01	5:00 p	84.1	84.7	83.4	75	75.3	1.0	ESE	0.50	7.0	84.1	92.9	92.9	30.023	0.00	0.000	0.398	87.0	73	77.3	98.8	30
09/06/01	5:30 p	83.2	84.0	82.4	80	76.4	1.0	ESE	0.50	10.0	83.2	92.3	92.3	30.002	0.00	0.000	0.379	86.6	76	78.1	99.0	30
09/06/01	6:00 p	82.1	83.0	81.3	83	76.4	1.0	E	0.50	7.0	82.1	90.1	90.1	30.005	0.01	0.000	0.356	85.9	79	78.6	98.2	30
09/06/01	6:30 p	81.4	82.0	81.0	84	76.1	0.0	E	0.00	8.0	81.4	88.6	88.6	30.015	0.00	0.000	0.342	85.3	80	78.4	97.1	30
09/06/01	7:00 p	81.1	81.6	80.7	87	76.9	0.0	E	0.00	3.0	81.1	88.6	88.6	30.029	0.00	0.000	0.335	85.1	81	78.6	97.0	30
09/06/01	7:30 p	80.8	81.3	80.4	88	76.9	0.0	---	0.00	1.0	80.8	88.2	88.2	30.038	0.00	0.000	0.329	85.0	82	78.9	97.2	30
09/06/01	8:00 p	80.4	81.0	79.8	89	76.9	0.0	---	0.00	1.0	80.4	87.5	87.5	30.043	0.00	0.000	0.321	84.7	84	79.3	97.3	30
09/06/01	8:30 p	79.9	80.5	78.6	88	76.0	1.0	WSW	0.50	15.0	79.9	86.1	86.1	30.039	0.02	0.000	0.310	84.6	82	78.5	96.4	30
09/06/01	9:00 p	77.6	79.2	76.6	90	74.4	1.0	NW	0.50	7.0	77.6	82.1	82.1	30.029	0.01	0.000	0.262	84.2	79	77.0	94.5	30
09/06/01	9:30 p	76.7	77.3	76.0	90	73.5	0.0	SSW	0.00	4.0	76.7	80.5	80.5	30.023	0.01	0.000	0.244	83.6	78	76.0	92.7	30
09/06/01	10:00 p	76.2	76.8	75.6	92	73.7	0.0	SSW	0.00	1.0	76.2	80.0	80.0	30.021	0.00	0.000	0.233	83.1	79	75.9	91.7	30
09/06/01	10:30 p	75.9	76.3	75.5	92	73.4	0.0	SSW	0.00	2.0	75.9	79.6	79.6	30.014	0.00	0.000	0.227	82.7	80	75.9	90.9	30
09/06/01	11:00 p	76.0	76.4	75.5	94	74.1	0.0	---	0.00	0.0	76.0	79.9	79.9	30.014	0.00	0.000	0.229	82.4	80	75.6	90.0	30
09/06/01	11:30 p	75.7	76.4	75.1	94	73.8	0.0	---	0.00	1.0	75.7	79.5	79.5	30.032	0.00	0.000	0.223	82.2	81	75.8	89.8	30
09/07/01	12:00 a	75.6	76.0	75.1	94	73.8	0.0	---	0.00	0.0	75.6	79.4	79.4	30.044	0.00	0.000	0.221	81.9	81	75.5	89.0	30
09/07/01	12:30 a	75.4	75.9	75.0	94	73.6	0.0	---	0.00	0.0	75.4	79.1	79.1	30.046	0.00	0.000	0.217	81.7	82	75.7	88.8	30
09/07/01	1:00 a	75.4	75.9	74.9	94	73.6	0.0	---	0.00	0.0	75.4	79.1	79.1	30.044	0.00	0.000	0.217	81.5	82	75.5	88.3	30
09/07/01	1:30 a	75.1	75.6	74.7	94	73.3	0.0	---	0.00	0.0	75.1	78.8	78.8	30.032	0.00	0.000	0.210	81.3	82	75.3	87.8	30
09/07/01	2:00 a	75.0	75.5	74.6	94	73.2	0.0	---	0.00	0.0	75.0	78.6	78.6	30.023	0.00	0.000	0.208	81.1	83	75.4	87.5	30
09/07/01	2:30 a	74.8	75.3	74.2	94	73.0	0.0	---	0.00	1.0	74.8	78.3	78.3	30.018	0.00	0.000	0.204	80.9	83	75.2	87.1	30
09/07/01	3:00 a	74.5	75.0	74.1	94	72.7	0.0	---	0.00	0.0	74.5	77.8	77.8	30.016	0.00	0.000	0.198	80.6	83	75.0	86.4	30
09/07/01	3:30 a	74.3	74.8	73.9	94	72.5	0.0	---	0.00	0.0	74.3	77.4	77.4	30.009	0.00	0.000	0.194	80.4	83	74.8	86.0	30
09/07/01	4:00 a	74.4	74.8	73.9	94	72.6	0.0	---	0.00	0.0	74.4	77.6	77.6	30.004	0.00	0.000	0.196	80.3	83	74.7	85.8	30
09/07/01	4:30 a	74.3	74.8	73.9	94	72.5	0.0	---	0.00	0.0	74.3	77.4	77.4	29.998	0.00	0.000	0.194	80.1	84	74.8	85.6	30
09/07/01	5:00 a	74.3	74.8	73.9	95	72.8	0.0	---	0.00	0.0	74.3	77.5	77.5	29.995	0.00	0.000	0.194	80.1	84	74.8	85.6	30
09/07/01	5:30 a	74.3	74.8	73.9	95	72.8	0.0	---	0.00	0.0	74.3	77.5	77.5	29.994	0.00	0.000	0.194	80.0	83	74.4	85.2	30
09/07/01	6:00 a	74.2	74.7	73.7	95	72.7	0.0	---	0.00	0.0	74.2	77.3	77.3	30.000	0.00	0.000	0.192	80.0	83	74.4	85.2	30
09/07/01	6:30 a	74.0	74.5	73.5	95	72.5	0.0	---	0.00	0.0	74.0	77.0	77.0	30.000	0.00	0.000	0.188	79.9	83	74.3	85.0	30
09/07/01	7:00 a	73.8	74.3	73.4	96	72.6	0.0	---	0.00	0.0	73.8	76.9	76.9	30.013	0.00	0.000	0.183	79.3	85	74.4	84.3	30
09/07/01	7:30 a	73.8	74.3	73.4	96	72.6	0.0	---	0.00	0.0	73.8	76.9	76.9	30.016	0.01	0.000	0.183	79.2	86	74.6	84.3	30
09/07/01	8:00 a	74.3	75.0	73.5	97	73.4	0.0	---	0.00	0.0	74.3	77.7	77.7	30.023	0.00	0.000	0.194	79.5	88	75.6	85.3	30
09/07/01	8:30 a	75.3	76.6	74.4	99	75.0	0.0	---	0.00	0.0	75.3	79.2	79.2	30.025	0.00	0.000	0.215	80.1	89	76.6	86.8	30
09/07/01	9:00 a	77.0	78.2	75.9	98	76.4	0.0	---	0.00	0.0	77.0	81.9	81.9	30.026	0.00	0.000	0.250	81.3	89	77.7	89.8	30
09/07/01	9:30 a	78.6	79.7	77.5	93	76.4	0.0	SE	0.00	4.0	78.6	84.5	84.5	30.030	0.00	0.000	0.283	81.8	90	78.6	91.5	30
09/07/01	10:00 a	80.2	81.2	79.1	87	76.0	0.0	SE	0.00	4.0	80.2	86.5	86.5	30.029	0.00	0.000	0.317	82.1	90	78.9	92.4	30
09/07/01	10:30 a	80.6	81.5	79.3	83	75.0	2.0	SE	1.00	14.0	80.6	86.4	86.4	30.026	0.00	0.000	0.325	82.6	86	78.0	92.4	30
09/07/01	11:00 a	78.3	79.9	77.2	88	74.5	2.0	SE	1.00	11.0	78.3	83.1	83.1	30.030	0.00	0.000	0.277	81.9	84	76.6	89.8	30
09/07/01	11:30 a	77.8	78.9	77.0	86	73.3	4.0	ESE	2.00	13.0	77.8	81.9	81.9	30.023	0.00	0.000	0.267	81.6	84	76.3	89.1	30
09/07/01	12:00 p	80.2	82.0	78.2	81	73.8	4.0	ESE	2.00	14.0	80.2	85.1	85.1	30.012	0.00	0.000	0.317	82.2	84	76.9	90.6	30
09/07/01	12:30 p	81.5	82.2	80.3	88	77.6	2.0	SSE	1.00	9.0	81.5	90.0	90.0	30.028	0.27	0.000	0.344	83.7	85	78.7	95.2	30
09/07/01	1:00 p	79.6	80.9	78.7	92	77.1	0.0	---	0.00	0.0	79.6	86.4	86.4	30.024	0.19	0.000	0.304	83.2	87	78.9	94.4	30
09/07/01	1:30 p	78.5	79.4	77.8	94	76.6	0.0	---	0.00	0.0	78.5	84.4	84.4	30.023	0.05	0.000	0.281	82.3	89	78.7	92.6	30
09/07/01	2:00 p	77.9	78.6	77.4	94	76.0	0.0	NNW	0.00	2.0	77.9	83.1	83.1	30.013	0.07	0.000	0.269	81.9	89	78.3	91.5	30
09/07/01	2:30 p	77.1	77.9	76.5	95	75.6	0.0	NNW	0.00	1.0	77.1	81.7	81.7	30.006	0.11	0.000	0.252	81.4	89	77.8	90.1	30
09/07/01	3:00 p	77.4	78.2	76.6	96	76.2	0.0	N	0.00	4.0	77.4	82.4	82.4	30.007	0.02	0.000	0.258	81.4	91	78.5	90.7	30
09/07/01	3:30 p	77.5	78.0	77.0	96	76.3	0.0	N	0.00	3.0	77.5	82.6	82.6	30.007	0.01	0.000	0.260	81.6	91	78.7	91.3	30
09/07/01	4:00 p	77.0	77.9	75.8	93	74.8	1.0	SW	0.50	10.0	77.0	81.3	81.3	30.003	0.20	0.000	0.250	81.3	89	77.7	89.8	30
09/07/01	4:30 p	75.6	76.4	75.1	94	73.8	1.0	SSE	0.50	6.0	75.6	79.4	79.4	29.992	0.15	0.000	0.221	81.0	87	76.8	88.4	30
09/07/01	5:00 p	75.3	75.9	74.6	94	73.5	0.0	SSE	0.00	3.0	75.3	79.0	79.0	29.987	0.09	0.000	0.215	80.7	86	76.1	87.4	30
09/07/01	5:30 p	74.8	75.4	74.2	94	73.0	0.0	SSE	0.00	2.0	74.8	78.3	78.3	29.976	0.04	0.000	0.204	79.9	86	75.3	85.6	30
09/07/01	6:00 p	74.5	75.0	73.9	95	73.0	0.0	SSE	0.00	2.0	74.5	77.8	77.8	29.990	0.01	0.000	0.198	79.6	87	75.4	85.3	30
09/07/01	6:30 p	74.2	74.7	73.6	94	72.4	0.0	SSW	0.00	3.0	74.2	77.2	77.2	29.998	0.00	0.000	0.192	79.2	86	74.6	84.3	30
09/07/01	7:00 p	74.0	74.4	73.5	95	72.5	0.0	---	0.00	1.0	74.0	77.0	77.0	30.010	0.00	0.000	0.188	79.0	87	74.8	84.1	30
09/07/01	7:30 p	73.8	74.3	73.2	95	72.3	0.0	SSW	0.00	2.0	73.8	76.8	76.8	30.008	0.00	0.000	0.183	79.0	87	74.8	84.1	30
09/07/01	8:00 p	73.5	74.1	73.0	95	72.0	0.0	---	0.00	1.0	73.5	76.4	76.4	30.014	0.00	0.000	0.177	78.4	88	74.5	83.2	30
09/07/01	8:30 p	73.4	73.9	72.9	96	72.2	0.0	---	0.00	0.0	73.4	76.4	76.4	30.013	0.00	0.000	0.175	78.1	89	74.6	82.8	30
09/07/01	9:00 p	73.2	73.8	72.7	96	72.0	0.0	---	0.00	0.0	73.2	76.2	76.2	30.005	0.00	0.000	0.171	78.0	88	74.2	82.5	30
09/07/01	9:30 p	73.2	73.7	72.7	96	72.0	0.0	---	0.00	0.0	73.2	76.2	76.2	30.002	0.00	0.000	0.171	78.3	87	74.1	82.9	30
09/07/01	10:00 p	73.1	73.6	72.7	97	72.2	0.0	---	0.00	0.0	73.1	76.2	76.2	30.003	0.00	0.000	0.169	78.4	86	73.9	82.9	30
09/07/01	10:30 p	73.2	73.6	72.6	96	72.0	0.0	SSW	0.00	1.0	73.2	76.2	76.2	30.003	0.00	0.000	0.171	78.4	86	73.9	82.9	30
09/07/01	11:00 p	72.9	73.5	72.5	97	72.0	0.0	SSW	0.00	2.0	72.9	76.0	76.0	30.010	0.00	0.000	0.165	78.3	86	73.8	82.7	30
09/07/01	11:30 p	72.8	73.3	72.4	97	71.9	0.0	---	0.00	0.0	72.8	75.9	75.9	30.012	0.00	0.000	0.163	78.2	85	73.3	82.4	30
09/08/01	12:00 a	72.7	73.2	72.3	97	71.8	0.0	---	0.00	0.0	72.7	75.8	75.8	30.004	0.00	0.000	0.160	78.2	85	73.3	82.4	30
09/08/01	12:30 a	72.6	73.1	72.1	97	71.7	0.0	---	0.00	0.0	72.6	75.7	75.7	30.002	0.00	0.000	0.158	78.1	85	73.2	82.3	30
09/08/01	1:00 a	72.3	73.0	71.7	97	71.4	0.0	---	0.00	0.0	72.3	75.4	75.4	30.010	0.00	0.000	0.152	77.9	85	73.0	81.9	30
09/08/01	1:30 a	72.1	72.6	71.6	98	71.5	0.0	---	0.00	0.0	72.1	75.4	75.4	30.002	0.00	0.000	0.148	77.8	85	72.9	81.8	30
09/08/01	2:00 a	72.0	72.5	71.5	98	71.4	0.0	---	0.00	0.0	72.0	75.3	75.3	29.999	0.00	0.000	0.146	77.7	84	72.5	81.5	30
09/08/01	2:30 a	72.0	72.4	71.5	98	71.4	0.0	---	0.00	0.0	72.0	75.3	75.3	29.987	0.00	0.000	0.146	77.6	84	72.4	81.4	30
09/08/01	3:00 a	71.8	72.4	71.3	98	71.2	0.0	---	0.00	0.0	71.8	75.1	75.1	29.981	0.00	0.000	0.142	77.5	85	72.6	81.3	30
09/08/01	3:30 a	71.6	72.2	71.2	98	71.0	0.0	---	0.00	0.0	71.6	74.9	74.9	29.973	0.00	0.000	0.137	77.3	84	72.1	80.9	30
09/08/01	4:00 a	71.6	72.1	71.1	97	70.7	0.0	---	0.00	0.0	71.6	74.7	74.7	29.966	0.01	0.000	0.137	77.3	84	72.1	80.9	30
09/08/01	4:30 a	71.4	71.9	70.7	98	70.8	0.0	---	0.00	0.0	71.4	74.7	74.7	29.972	0.00	0.000	0.133	77.1	84	71.9	80.6	30
09/08/01	5:00 a	71.0	71.6	70.6	98	70.4	0.0	---	0.00	0.0	71.0	74.3	74.3	29.964	0.00	0.000	0.125	77.0	84	71.8	80.5	30
09/08/01	5:30 a	71.1	71.5	70.6	98	70.5	0.0	---	0.00	0.0	71.1	74.4	74.4	29.967	0.00	0.000	0.127	76.9	84	71.7	80.3	30
09/08/01	6:00 a	71.1	71.6	70.5	98	70.5	0.0	---	0.00	0.0	71.1	74.4	74.4	29.985	0.00	0.000	0.127	76.8	84	71.6	80.2	30
09/08/01	6:30 a	71.2	71.6	70.7	98	70.6	0.0	---	0.00	0.0	71.2	74.5	74.5	29.992	0.00	0.000	0.129	76.8	84	71.6	80.2	30
09/08/01	7:00 a	71.1	71.5	70.6	98	70.5	0.0	---	0.00	0.0	71.1	74.4	74.4	29.990	0.00	0.000	0.127	76.7	85	71.8	80.2	30
09/08/01	10:15 p	0.0	---	---	94	-1.3	0.0	---	0.00	0.0	0.0	0.0	0.0	30.015	37.52	1.354	0.000	0.0	91	-2.0	0.0	30
09/08/01	10:45 p	75.1	---	74.9	95	73.6	0.0	---	0.00	0.0	75.1	78.8	78.8	30.014	0.00	0.000	0.210	80.5	89	77.0	87.7	30
09/08/01	11:15 p	74.9	75.3	74.5	95	73.4	0.0	---	0.00	0.0	74.9	78.5	78.5	30.008	0.00	0.000	0.206	80.0	90	76.8	86.8	30
09/08/01	11:45 p	74.8	75.2	74.4	95	73.3	0.0	---	0.00	0.0	74.8	78.4	78.4	30.001	0.00	0.000	0.204	79.8	90	76.6	86.4	30
09/09/01	12:15 a	74.5	74.9	74.0	96	73.3	0.0	---	0.00	0.0	74.5	77.9	77.9	30.005	0.00	0.000	0.198	79.6	89	76.1	85.7	30
09/09/01	12:30 a	74.2	74.6	73.8	96	73.0	0.0	---	0.00	0.0	74.2	77.4	77.4	30.003	0.00	0.000	0.192	79.6	87	75.4	85.3	30
09/09/01	1:00 a	74.0	74.5	73.6	95	72.5	0.0	---	0.00	0.0	74.0	77.0	77.0	29.996	0.00	0.000	0.188	79.6	85	74.7	84.8	30
09/09/01	1:30 a	73.8	74.3	73.4	96	72.6	0.0	---	0.00	0.0	73.8	76.9	76.9	29.999	0.00	0.000	0.183	79.4	85	74.5	84.5	30
09/09/01	2:00 a	73.7	74.1	73.3	96	72.5	0.0	---	0.00	0.0	73.7	76.8	76.8	29.994	0.00	0.000	0.181	79.2	85	74.3	84.1	30
09/09/01	2:30 a	73.6	74.0	73.2	96	72.4	0.0	---	0.00	0.0	73.6	76.7	76.7	29.988	0.00	0.000	0.179	79.1	85	74.2	83.9	30
09/09/01	3:00 a	73.6	74.1	73.2	97	72.7	0.0	---	0.00	0.0	73.6	76.8	76.8	29.978	0.00	0.000	0.179	78.9	85	74.0	83.5	30
09/09/01	3:30 a	73.6	74.0	73.2	97	72.7	0.0	---	0.00	0.0	73.6	76.8	76.8	29.978	0.00	0.000	0.179	78.8	85	73.9	83.4	30
09/09/01	4:00 a	73.5	73.9	73.1	97	72.6	0.0	---	0.00	0.0	73.5	76.7	76.7	29.973	0.00	0.000	0.177	78.7	85	73.8	83.2	30
09/09/01	4:30 a	73.3	73.7	72.9	97	72.4	0.0	---	0.00	0.0	73.3	76.5	76.5	29.964	0.00	0.000	0.173	78.6	84	73.4	82.9	30
09/09/01	5:00 a	73.1	73.5	72.7	98	72.5	0.0	---	0.00	0.0	73.1	76.4	76.4	29.978	0.00	0.000	0.169	78.4	85	73.5	82.7	30
09/09/01	5:30 a	73.3	73.7	72.8	98	72.7	0.0	---	0.00	0.0	73.3	76.6	76.6	29.980	0.00	0.000	0.173	78.4	85	73.5	82.7	30
09/09/01	6:00 a	73.3	73.7	72.9	98	72.7	0.0	---	0.00	0.0	73.3	76.6	76.6	29.987	0.00	0.000	0.173	78.4	85	73.5	82.7	30
09/09/01	6:30 a	73.1	73.5	72.7	98	72.5	0.0	---	0.00	0.0	73.1	76.4	76.4	30.003	0.00	0.000	0.169	78.3	85	73.4	82.6	30
09/09/01	7:00 a	73.4	74.0	72.7	98	72.8	1.0	SE	0.50	10.0	73.4	76.7	76.7	30.015	0.00	0.000	0.175	78.2	87	74.0	82.7	30
09/09/01	7:30 a	73.8	74.3	73.4	98	73.2	1.0	S	0.50	7.0	73.8	77.1	77.1	30.019	0.00	0.000	0.183	78.4	88	74.5	83.2	30
09/09/01	8:00 a	74.1	74.5	73.6	97	73.2	1.0	SSE	0.50	7.0	74.1	77.4	77.4	30.034	0.00	0.000	0.190	78.5	88	74.6	83.4	30
09/09/01	8:30 a	74.5	75.0	74.0	97	73.6	1.0	S	0.50	4.0	74.5	78.0	78.0	30.036	0.00	0.000	0.198	78.6	88	74.7	83.6	30
09/09/01	9:00 a	75.1	75.7	74.5	96	73.9	0.0	S	0.00	1.0	75.1	78.9	78.9	30.024	0.00	0.000	0.210	78.7	88	74.8	83.8	30
09/09/01	9:30 a	76.1	77.0	75.4	94	74.2	1.0	S	0.50	3.0	76.1	80.1	80.1	30.031	0.00	0.000	0.231	79.0	88	75.1	84.3	30
09/09/01	10:00 a	77.6	78.9	76.4	92	75.1	1.0	S	0.50	8.0	77.6	82.3	82.3	30.044	0.00	0.000	0.262	79.4	88	75.5	85.1	30
09/09/01	10:30 a	79.3	80.2	78.4	89	75.8	3.0	SE	1.50	12.0	79.3	85.1	85.1	30.047	0.00	0.000	0.298	80.3	92	77.8	88.1	30
09/09/01	11:00 a	80.9	82.5	79.7	85	76.0	2.0	S	1.00	11.0	80.9	87.6	87.6	30.036	0.00	0.000	0.331	81.8	92	79.2	92.2	30
09/09/01	11:30 a	83.4	84.0	82.3	80	76.6	2.0	SSE	1.00	10.0	83.4	92.8	92.8	30.033	0.00	0.000	0.383	83.7	89	80.1	96.7	30
09/09/01	12:00 p	84.0	84.7	83.3	78	76.4	2.0	S	1.00	8.0	84.0	93.8	93.8	30.031	0.00	0.000	0.396	84.8	85	79.8	97.9	30
09/09/01	12:30 p	83.7	84.6	83.0	83	78.0	2.0	ESE	1.00	15.0	83.7	94.6	94.6	30.021	0.01	0.000	0.390	85.2	85	80.2	99.0	30
09/09/01	1:00 p	85.8	87.7	83.6	73	76.1	5.0	ESE	2.50	19.0	85.8	95.8	95.8	30.012	0.00	0.000	0.433	85.9	82	79.8	99.5	30
09/09/01	1:30 p	88.6	89.2	87.5	72	78.4	5.0	SE	2.50	17.0	88.6	102.1	102.1	29.988	0.00	0.000	0.492	87.4	82	81.2	104.5	30
09/09/01	2:00 p	90.2	91.2	89.0	70	79.1	6.0	SE	3.00	19.0	90.2	106.4	106.4	29.985	0.00	0.000	0.525	89.0	80	82.0	109.2	30
09/09/01	2:30 p	87.3	89.1	85.5	76	78.8	4.0	SE	2.00	22.0	87.3	100.7	100.7	29.982	0.00	0.000	0.465	88.8	78	81.0	106.8	30
09/09/01	3:00 p	83.1	85.9	79.5	85	78.1	5.0	SSW	2.50	18.0	83.1	93.4	93.4	29.999	0.60	0.000	0.377	86.9	76	78.4	99.8	30
09/09/01	3:30 p	77.4	79.7	75.8	90	74.2	5.0	SW	2.50	16.0	77.4	81.7	81.7	29.996	0.29	0.000	0.258	84.4	76	76.0	93.8	30
09/09/01	4:00 p	75.7	76.5	75.1	92	73.2	3.0	SW	1.50	11.0	75.7	79.3	79.3	29.984	0.05	0.000	0.223	83.0	78	75.4	91.1	30
09/09/01	4:30 p	75.5	76.0	75.1	92	73.0	1.0	SW	0.50	8.0	75.5	79.1	79.1	29.973	0.03	0.000	0.219	82.1	81	75.7	89.5	30
09/09/01	5:00 p	75.8	76.4	75.2	93	73.6	1.0	SSW	0.50	6.0	75.8	79.6	79.6	29.979	0.00	0.000	0.225	81.7	82	75.7	88.8	30
09/09/01	5:30 p	76.2	76.8	75.7	92	73.7	0.0	S	0.00	5.0	76.2	80.0	80.0	29.999	0.00	0.000	0.233	81.3	85	76.4	88.6	30
09/09/01	6:00 p	76.7	77.1	76.2	91	73.9	1.0	S	0.50	4.0	76.7	80.6	80.6	29.997	0.00	0.000	0.244	80.9	86	76.3	87.9	30
09/09/01	6:30 p	76.6	77.2	76.1	91	73.8	1.0	S	0.50	4.0	76.6	80.5	80.5	30.009	0.00	0.000	0.242	80.7	86	76.1	87.4	30
09/09/01	7:00 p	76.2	76.8	75.5	91	73.4	1.0	S	0.50	5.0	76.2	79.9	79.9	30.008	0.00	0.000	0.233	80.5	86	75.9	87.0	30
09/09/01	7:30 p	75.5	76.2	74.8	92	73.0	1.0	S	0.50	4.0	75.5	79.1	79.1	30.016	0.00	0.000	0.219	80.0	86	75.4	85.8	30
09/09/01	8:00 p	75.1	75.5	74.5	93	72.9	0.0	---	0.00	0.0	75.1	78.7	78.7	30.025	0.00	0.000	0.210	79.7	87	75.5	85.5	30
09/09/01	8:30 p	74.6	75.0	74.1	93	72.4	0.0	---	0.00	0.0	74.6	77.9	77.9	30.032	0.00	0.000	0.200	79.4	87	75.2	84.9	30
09/09/01	9:00 p	74.3	74.7	73.7	94	72.5	0.0	---	0.00	0.0	74.3	77.4	77.4	30.041	0.00	0.000	0.194	79.2	86	74.6	84.3	30
09/09/01	9:30 p	74.0	74.4	73.5	94	72.2	0.0	---	0.00	0.0	74.0	76.9	76.9	30.048	0.00	0.000	0.188	79.1	86	74.5	84.1	30
09/09/01	10:00 p	73.8	74.3	73.4	94	72.0	0.0	---	0.00	0.0	73.8	76.7	76.7	30.052	0.00	0.000	0.183	79.0	85	74.1	83.7	30
09/09/01	10:30 p	73.7	74.2	73.3	94	71.9	0.0	---	0.00	0.0	73.7	76.5	76.5	30.054	0.00	0.000	0.181	79.0	84	73.7	83.5	30
09/09/01	11:00 p	73.6	74.0	73.0	95	72.1	0.0	---	0.00	0.0	73.6	76.5	76.5	30.056	0.00	0.000	0.179	79.0	83	73.4	83.3	30
09/09/01	11:30 p	73.2	73.7	72.9	95	71.7	0.0	---	0.00	0.0	73.2	76.0	76.0	30.050	0.00	0.000	0.171	78.9	83	73.3	83.2	30
09/10/01	12:00 a	73.3	73.7	72.9	97	72.4	0.0	---	0.00	0.0	73.3	76.5	76.5	30.049	0.00	0.000	0.173	78.7	83	73.1	82.9	30
09/10/01	12:30 a	73.4	73.8	72.9	97	72.5	0.0	---	0.00	0.0	73.4	76.6	76.6	30.045	0.00	0.000	0.175	78.7	84	73.5	83.1	30
09/10/01	1:00 a	73.5	73.9	73.1	98	72.9	0.0	---	0.00	0.0	73.5	76.8	76.8	30.048	0.00	0.000	0.177	78.6	84	73.4	82.9	30
09/10/01	1:30 a	73.5	74.0	73.1	98	72.9	0.0	---	0.00	0.0	73.5	76.8	76.8	30.048	0.00	0.000	0.177	78.6	84	73.4	82.9	30
09/10/01	2:00 a	73.6	74.1	73.2	98	73.0	0.0	---	0.00	0.0	73.6	76.9	76.9	30.041	0.00	0.000	0.179	78.5	85	73.6	82.9	30
09/10/01	2:30 a	73.9	74.3	73.4	98	73.3	0.0	---	0.00	0.0	73.9	77.3	77.3	30.028	0.00	0.000	0.185	78.5	85	73.6	82.9	30
09/10/01	3:00 a	73.9	74.3	73.5	97	73.0	0.0	---	0.00	0.0	73.9	77.1	77.1	30.032	0.00	0.000	0.185	78.5	85	73.6	82.9	30
09/10/01	3:30 a	73.9	74.4	73.5	97	73.0	0.0	---	0.00	0.0	73.9	77.1	77.1	30.027	0.00	0.000	0.185	78.5	85	73.6	82.9	30
09/10/01	4:00 a	74.1	74.4	73.6	97	73.2	0.0	S	0.00	3.0	74.1	77.4	77.4	30.018	0.00	0.000	0.190	78.5	86	74.0	83.1	30
09/10/01	4:30 a	74.1	74.5	73.7	97	73.2	0.0	S	0.00	3.0	74.1	77.4	77.4	30.013	0.00	0.000	0.190	78.5	86	74.0	83.1	30
09/10/01	5:00 a	74.3	74.6	73.8	97	73.4	0.0	S	0.00	4.0	74.3	77.7	77.7	30.018	0.00	0.000	0.194	78.5	86	74.0	83.1	30
09/10/01	5:30 a	74.3	74.7	73.9	97	73.4	0.0	---	0.00	0.0	74.3	77.7	77.7	30.021	0.00	0.000	0.194	78.5	86	74.0	83.1	30
09/10/01	6:00 a	74.2	74.6	73.8	97	73.3	0.0	---	0.00	0.0	74.2	77.5	77.5	30.023	0.00	0.000	0.192	78.5	86	74.0	83.1	30
09/10/01	6:30 a	74.1	74.5	73.6	98	73.5	0.0	S	0.00	1.0	74.1	77.5	77.5	30.032	0.00	0.000	0.190	78.5	86	74.0	83.1	30
09/10/01	7:00 a	73.8	74.3	73.3	98	73.2	0.0	---	0.00	0.0	73.8	77.1	77.1	30.040	0.00	0.000	0.183	78.4	86	73.9	82.9	30
09/10/01	7:30 a	73.5	74.0	73.0	98	72.9	0.0	---	0.00	0.0	73.5	76.8	76.8	30.045	0.00	0.000	0.177	78.2	86	73.7	82.6	30
09/10/01	8:00 a	73.3	73.7	72.8	98	72.7	0.0	---	0.00	0.0	73.3	76.6	76.6	30.049	0.00	0.000	0.173	78.1	85	73.2	82.3	30
09/10/01	8:30 a	73.6	74.6	72.8	99	73.3	0.0	S	0.00	1.0	73.6	77.1	77.1	30.060	0.00	0.000	0.179	78.2	85	73.3	82.4	30
09/10/01	9:00 a	75.0	76.1	74.0	97	74.1	0.0	S	0.00	3.0	75.0	78.7	78.7	30.065	0.00	0.000	0.208	78.7	87	74.5	83.6	30
09/10/01	9:30 a	77.0	77.9	75.7	93	74.8	1.0	SSE	0.50	4.0	77.0	81.3	81.3	30.076	0.00	0.000	0.250	79.3	88	75.4	84.9	30
09/10/01	10:00 a	77.3	77.8	76.8	93	75.1	0.0	SSE	0.00	6.0	77.3	81.9	81.9	30.076	0.00	0.000	0.256	79.7	88	75.8	85.7	30
09/10/01	10:30 a	77.2	77.7	76.7	92	74.7	3.0	ESE	1.50	15.0	77.2	81.6	81.6	30.081	0.00	0.000	0.254	79.8	89	76.3	86.1	30
09/10/01	11:00 a	77.4	78.0	76.8	91	74.6	3.0	ESE	1.50	11.0	77.4	81.8	81.8	30.077	0.00	0.000	0.258	80.0	88	76.1	86.3	30
09/10/01	11:30 a	78.2	79.1	77.4	92	75.7	2.0	ESE	1.00	13.0	78.2	83.5	83.5	30.072	0.00	0.000	0.275	80.4	89	76.9	87.5	30
09/10/01	12:00 p	80.1	81.2	78.5	87	75.9	3.0	ESE	1.50	12.0	80.1	86.3	86.3	30.058	0.00	0.000	0.315	81.1	88	77.2	88.9	30
09/10/01	12:30 p	81.6	82.8	80.6	83	75.9	2.0	SE	1.00	11.0	81.6	88.8	88.8	30.064	0.00	0.000	0.346	81.9	87	77.6	90.8	30
09/10/01	1:00 p	83.4	84.0	82.2	80	76.6	2.0	SSE	1.00	14.0	83.4	92.8	92.8	30.055	0.00	0.000	0.383	83.0	87	78.7	93.8	30
09/10/01	1:30 p	84.1	84.8	83.4	77	76.1	4.0	ESE	2.00	12.0	84.1	93.6	93.6	30.048	0.00	0.000	0.398	83.9	85	78.9	95.8	30
09/10/